<?xml version="1.0" encoding="UTF-8" standalone="no" ?>
<gpx xmlns="http://www.topografix.com/GPX/1/1" xmlns:xsi="http://www.w3.org/2001/XMLSchema-instance" xsi:schemaLocation="http://www.topografix.com/GPX/1/1 http://www.topografix.com/GPX/1/1/gpx.xsd" version="1.1" creator="VisuGPX - https://www.visugpx.com">
  <metadata>
    <name>Molières - 21/11/21</name>
  </metadata>
  <trk>
    <name><![CDATA[Randonnée dans l'après-midi]]></name>
    <trkseg>
      <trkpt lat="44.19236" lon="1.35966">
        <ele>167.8</ele>
        <time>2021-11-21T13:35:46Z</time>
      </trkpt>
      <trkpt lat="44.19238" lon="1.35962">
        <ele>168.2</ele>
        <time>2021-11-21T13:35:47Z</time>
      </trkpt>
      <trkpt lat="44.19237" lon="1.35962">
        <ele>168.4</ele>
        <time>2021-11-21T13:35:48Z</time>
      </trkpt>
      <trkpt lat="44.19235" lon="1.35963">
        <ele>168.6</ele>
        <time>2021-11-21T13:35:49Z</time>
      </trkpt>
      <trkpt lat="44.19232" lon="1.35965">
        <ele>169</ele>
        <time>2021-11-21T13:35:51Z</time>
      </trkpt>
      <trkpt lat="44.19231" lon="1.35965">
        <ele>169.1</ele>
        <time>2021-11-21T13:35:52Z</time>
      </trkpt>
      <trkpt lat="44.19229" lon="1.35966">
        <ele>169.3</ele>
        <time>2021-11-21T13:35:54Z</time>
      </trkpt>
      <trkpt lat="44.19228" lon="1.35968">
        <ele>169.6</ele>
        <time>2021-11-21T13:35:56Z</time>
      </trkpt>
      <trkpt lat="44.19227" lon="1.35969">
        <ele>169.6</ele>
        <time>2021-11-21T13:35:57Z</time>
      </trkpt>
      <trkpt lat="44.19226" lon="1.3597">
        <ele>169.8</ele>
        <time>2021-11-21T13:35:59Z</time>
      </trkpt>
      <trkpt lat="44.19225" lon="1.35971">
        <ele>170</ele>
        <time>2021-11-21T13:36:01Z</time>
      </trkpt>
      <trkpt lat="44.19225" lon="1.35972">
        <ele>170.1</ele>
        <time>2021-11-21T13:36:02Z</time>
      </trkpt>
      <trkpt lat="44.19223" lon="1.35973">
        <ele>170.3</ele>
        <time>2021-11-21T13:36:04Z</time>
      </trkpt>
      <trkpt lat="44.19223" lon="1.35974">
        <ele>170.4</ele>
        <time>2021-11-21T13:36:05Z</time>
      </trkpt>
      <trkpt lat="44.19221" lon="1.35979">
        <ele>170.8</ele>
        <time>2021-11-21T13:36:07Z</time>
      </trkpt>
      <trkpt lat="44.19221" lon="1.3598">
        <ele>170.9</ele>
        <time>2021-11-21T13:36:08Z</time>
      </trkpt>
      <trkpt lat="44.19219" lon="1.35981">
        <ele>171.1</ele>
        <time>2021-11-21T13:36:09Z</time>
      </trkpt>
      <trkpt lat="44.19217" lon="1.35983">
        <ele>171.3</ele>
        <time>2021-11-21T13:36:11Z</time>
      </trkpt>
      <trkpt lat="44.19216" lon="1.35984">
        <ele>171.5</ele>
        <time>2021-11-21T13:36:12Z</time>
      </trkpt>
      <trkpt lat="44.19215" lon="1.35985">
        <ele>171.6</ele>
        <time>2021-11-21T13:36:13Z</time>
      </trkpt>
      <trkpt lat="44.19214" lon="1.35986">
        <ele>171.8</ele>
        <time>2021-11-21T13:36:15Z</time>
      </trkpt>
      <trkpt lat="44.19214" lon="1.35987">
        <ele>171.9</ele>
        <time>2021-11-21T13:36:16Z</time>
      </trkpt>
      <trkpt lat="44.19212" lon="1.35989">
        <ele>172</ele>
        <time>2021-11-21T13:36:18Z</time>
      </trkpt>
      <trkpt lat="44.19211" lon="1.3599">
        <ele>172.2</ele>
        <time>2021-11-21T13:36:19Z</time>
      </trkpt>
      <trkpt lat="44.1921" lon="1.35993">
        <ele>172.4</ele>
        <time>2021-11-21T13:36:21Z</time>
      </trkpt>
      <trkpt lat="44.1921" lon="1.35995">
        <ele>172.5</ele>
        <time>2021-11-21T13:36:22Z</time>
      </trkpt>
      <trkpt lat="44.19209" lon="1.35997">
        <ele>172.7</ele>
        <time>2021-11-21T13:36:23Z</time>
      </trkpt>
      <trkpt lat="44.19208" lon="1.36001">
        <ele>173</ele>
        <time>2021-11-21T13:36:25Z</time>
      </trkpt>
      <trkpt lat="44.19208" lon="1.36003">
        <ele>173.1</ele>
        <time>2021-11-21T13:36:26Z</time>
      </trkpt>
      <trkpt lat="44.19208" lon="1.36005">
        <ele>173.3</ele>
        <time>2021-11-21T13:36:28Z</time>
      </trkpt>
      <trkpt lat="44.19208" lon="1.36007">
        <ele>173.4</ele>
        <time>2021-11-21T13:36:29Z</time>
      </trkpt>
      <trkpt lat="44.19208" lon="1.36008">
        <ele>173.5</ele>
        <time>2021-11-21T13:36:31Z</time>
      </trkpt>
      <trkpt lat="44.19208" lon="1.3601">
        <ele>173.6</ele>
        <time>2021-11-21T13:36:32Z</time>
      </trkpt>
      <trkpt lat="44.19208" lon="1.36011">
        <ele>173.7</ele>
        <time>2021-11-21T13:36:34Z</time>
      </trkpt>
      <trkpt lat="44.19209" lon="1.36011">
        <ele>173.7</ele>
        <time>2021-11-21T13:36:35Z</time>
      </trkpt>
      <trkpt lat="44.19209" lon="1.36011">
        <ele>173.8</ele>
        <time>2021-11-21T13:36:36Z</time>
      </trkpt>
      <trkpt lat="44.1921" lon="1.3601">
        <ele>173.8</ele>
        <time>2021-11-21T13:36:37Z</time>
      </trkpt>
      <trkpt lat="44.1921" lon="1.36011">
        <ele>173.9</ele>
        <time>2021-11-21T13:36:38Z</time>
      </trkpt>
      <trkpt lat="44.1921" lon="1.36013">
        <ele>174</ele>
        <time>2021-11-21T13:36:40Z</time>
      </trkpt>
      <trkpt lat="44.1921" lon="1.36014">
        <ele>174</ele>
        <time>2021-11-21T13:36:41Z</time>
      </trkpt>
      <trkpt lat="44.1921" lon="1.36017">
        <ele>174</ele>
        <time>2021-11-21T13:36:43Z</time>
      </trkpt>
      <trkpt lat="44.1921" lon="1.36018">
        <ele>174.1</ele>
        <time>2021-11-21T13:36:44Z</time>
      </trkpt>
      <trkpt lat="44.1921" lon="1.3602">
        <ele>174.1</ele>
        <time>2021-11-21T13:36:45Z</time>
      </trkpt>
      <trkpt lat="44.1921" lon="1.36021">
        <ele>174.3</ele>
        <time>2021-11-21T13:36:46Z</time>
      </trkpt>
      <trkpt lat="44.1921" lon="1.36023">
        <ele>174.3</ele>
        <time>2021-11-21T13:36:47Z</time>
      </trkpt>
      <trkpt lat="44.1921" lon="1.36025">
        <ele>174.4</ele>
        <time>2021-11-21T13:36:49Z</time>
      </trkpt>
      <trkpt lat="44.19212" lon="1.36029">
        <ele>174.4</ele>
        <time>2021-11-21T13:36:50Z</time>
      </trkpt>
      <trkpt lat="44.19213" lon="1.3603">
        <ele>174.5</ele>
        <time>2021-11-21T13:36:52Z</time>
      </trkpt>
      <trkpt lat="44.19214" lon="1.36032">
        <ele>174.5</ele>
        <time>2021-11-21T13:36:53Z</time>
      </trkpt>
      <trkpt lat="44.19215" lon="1.36033">
        <ele>174.5</ele>
        <time>2021-11-21T13:36:54Z</time>
      </trkpt>
      <trkpt lat="44.19216" lon="1.36035">
        <ele>174.6</ele>
        <time>2021-11-21T13:36:55Z</time>
      </trkpt>
      <trkpt lat="44.19217" lon="1.36037">
        <ele>174.6</ele>
        <time>2021-11-21T13:36:57Z</time>
      </trkpt>
      <trkpt lat="44.19217" lon="1.3604">
        <ele>174.7</ele>
        <time>2021-11-21T13:36:58Z</time>
      </trkpt>
      <trkpt lat="44.19217" lon="1.36042">
        <ele>174.7</ele>
        <time>2021-11-21T13:37:00Z</time>
      </trkpt>
      <trkpt lat="44.19217" lon="1.36043">
        <ele>174.7</ele>
        <time>2021-11-21T13:37:01Z</time>
      </trkpt>
      <trkpt lat="44.19217" lon="1.36044">
        <ele>174.7</ele>
        <time>2021-11-21T13:37:02Z</time>
      </trkpt>
      <trkpt lat="44.19217" lon="1.36045">
        <ele>174.7</ele>
        <time>2021-11-21T13:37:03Z</time>
      </trkpt>
      <trkpt lat="44.19217" lon="1.36046">
        <ele>174.8</ele>
        <time>2021-11-21T13:37:05Z</time>
      </trkpt>
      <trkpt lat="44.19217" lon="1.36047">
        <ele>174.8</ele>
        <time>2021-11-21T13:37:06Z</time>
      </trkpt>
      <trkpt lat="44.19217" lon="1.36047">
        <ele>174.8</ele>
        <time>2021-11-21T13:37:07Z</time>
      </trkpt>
      <trkpt lat="44.19218" lon="1.36044">
        <ele>174.8</ele>
        <time>2021-11-21T13:37:09Z</time>
      </trkpt>
      <trkpt lat="44.19218" lon="1.36045">
        <ele>174.8</ele>
        <time>2021-11-21T13:37:10Z</time>
      </trkpt>
      <trkpt lat="44.19218" lon="1.36046">
        <ele>174.9</ele>
        <time>2021-11-21T13:37:12Z</time>
      </trkpt>
      <trkpt lat="44.19219" lon="1.36047">
        <ele>174.9</ele>
        <time>2021-11-21T13:37:13Z</time>
      </trkpt>
      <trkpt lat="44.19219" lon="1.36047">
        <ele>174.9</ele>
        <time>2021-11-21T13:37:14Z</time>
      </trkpt>
      <trkpt lat="44.19219" lon="1.36048">
        <ele>174.9</ele>
        <time>2021-11-21T13:37:15Z</time>
      </trkpt>
      <trkpt lat="44.19219" lon="1.36048">
        <ele>174.9</ele>
        <time>2021-11-21T13:37:16Z</time>
      </trkpt>
      <trkpt lat="44.1922" lon="1.36049">
        <ele>174.9</ele>
        <time>2021-11-21T13:37:17Z</time>
      </trkpt>
      <trkpt lat="44.1922" lon="1.3605">
        <ele>174.9</ele>
        <time>2021-11-21T13:37:19Z</time>
      </trkpt>
      <trkpt lat="44.19221" lon="1.36052">
        <ele>175</ele>
        <time>2021-11-21T13:37:20Z</time>
      </trkpt>
      <trkpt lat="44.19221" lon="1.36053">
        <ele>175</ele>
        <time>2021-11-21T13:37:21Z</time>
      </trkpt>
      <trkpt lat="44.19222" lon="1.36054">
        <ele>175</ele>
        <time>2021-11-21T13:37:22Z</time>
      </trkpt>
      <trkpt lat="44.19222" lon="1.36055">
        <ele>175</ele>
        <time>2021-11-21T13:37:23Z</time>
      </trkpt>
      <trkpt lat="44.19222" lon="1.36056">
        <ele>175.1</ele>
        <time>2021-11-21T13:37:25Z</time>
      </trkpt>
      <trkpt lat="44.19223" lon="1.36057">
        <ele>175.1</ele>
        <time>2021-11-21T13:37:26Z</time>
      </trkpt>
      <trkpt lat="44.19223" lon="1.36058">
        <ele>175.1</ele>
        <time>2021-11-21T13:37:27Z</time>
      </trkpt>
      <trkpt lat="44.19223" lon="1.36059">
        <ele>175.1</ele>
        <time>2021-11-21T13:37:28Z</time>
      </trkpt>
      <trkpt lat="44.19223" lon="1.36059">
        <ele>175.1</ele>
        <time>2021-11-21T13:37:30Z</time>
      </trkpt>
      <trkpt lat="44.19223" lon="1.36061">
        <ele>175.1</ele>
        <time>2021-11-21T13:37:32Z</time>
      </trkpt>
      <trkpt lat="44.19223" lon="1.36061">
        <ele>175.1</ele>
        <time>2021-11-21T13:37:33Z</time>
      </trkpt>
      <trkpt lat="44.19223" lon="1.3606">
        <ele>175.2</ele>
        <time>2021-11-21T13:37:35Z</time>
      </trkpt>
      <trkpt lat="44.19223" lon="1.3606">
        <ele>175.2</ele>
        <time>2021-11-21T13:37:36Z</time>
      </trkpt>
      <trkpt lat="44.19223" lon="1.36061">
        <ele>175.2</ele>
        <time>2021-11-21T13:37:38Z</time>
      </trkpt>
      <trkpt lat="44.19223" lon="1.36062">
        <ele>175.2</ele>
        <time>2021-11-21T13:37:39Z</time>
      </trkpt>
      <trkpt lat="44.19222" lon="1.36064">
        <ele>175.2</ele>
        <time>2021-11-21T13:37:40Z</time>
      </trkpt>
      <trkpt lat="44.19222" lon="1.36065">
        <ele>175.2</ele>
        <time>2021-11-21T13:37:42Z</time>
      </trkpt>
      <trkpt lat="44.19222" lon="1.36067">
        <ele>175.3</ele>
        <time>2021-11-21T13:37:43Z</time>
      </trkpt>
      <trkpt lat="44.19223" lon="1.36068">
        <ele>175.3</ele>
        <time>2021-11-21T13:37:44Z</time>
      </trkpt>
      <trkpt lat="44.19223" lon="1.36069">
        <ele>175.3</ele>
        <time>2021-11-21T13:37:46Z</time>
      </trkpt>
      <trkpt lat="44.19223" lon="1.3607">
        <ele>175.3</ele>
        <time>2021-11-21T13:37:47Z</time>
      </trkpt>
      <trkpt lat="44.19223" lon="1.36071">
        <ele>175.4</ele>
        <time>2021-11-21T13:37:48Z</time>
      </trkpt>
      <trkpt lat="44.19222" lon="1.36073">
        <ele>175.4</ele>
        <time>2021-11-21T13:37:49Z</time>
      </trkpt>
      <trkpt lat="44.19222" lon="1.36075">
        <ele>175.4</ele>
        <time>2021-11-21T13:37:51Z</time>
      </trkpt>
      <trkpt lat="44.19222" lon="1.36077">
        <ele>175.4</ele>
        <time>2021-11-21T13:37:52Z</time>
      </trkpt>
      <trkpt lat="44.19222" lon="1.36078">
        <ele>175.5</ele>
        <time>2021-11-21T13:37:53Z</time>
      </trkpt>
      <trkpt lat="44.19222" lon="1.3608">
        <ele>175.5</ele>
        <time>2021-11-21T13:37:54Z</time>
      </trkpt>
      <trkpt lat="44.19222" lon="1.36082">
        <ele>175.5</ele>
        <time>2021-11-21T13:37:56Z</time>
      </trkpt>
      <trkpt lat="44.19222" lon="1.36084">
        <ele>175.6</ele>
        <time>2021-11-21T13:37:57Z</time>
      </trkpt>
      <trkpt lat="44.19222" lon="1.36085">
        <ele>175.6</ele>
        <time>2021-11-21T13:37:58Z</time>
      </trkpt>
      <trkpt lat="44.19222" lon="1.36087">
        <ele>175.6</ele>
        <time>2021-11-21T13:37:59Z</time>
      </trkpt>
      <trkpt lat="44.19222" lon="1.36088">
        <ele>175.7</ele>
        <time>2021-11-21T13:38:01Z</time>
      </trkpt>
      <trkpt lat="44.19222" lon="1.3609">
        <ele>175.7</ele>
        <time>2021-11-21T13:38:02Z</time>
      </trkpt>
      <trkpt lat="44.19222" lon="1.36091">
        <ele>175.7</ele>
        <time>2021-11-21T13:38:03Z</time>
      </trkpt>
      <trkpt lat="44.19222" lon="1.36093">
        <ele>175.7</ele>
        <time>2021-11-21T13:38:04Z</time>
      </trkpt>
      <trkpt lat="44.19222" lon="1.36094">
        <ele>175.8</ele>
        <time>2021-11-21T13:38:05Z</time>
      </trkpt>
      <trkpt lat="44.19222" lon="1.36096">
        <ele>175.8</ele>
        <time>2021-11-21T13:38:07Z</time>
      </trkpt>
      <trkpt lat="44.19223" lon="1.36097">
        <ele>175.8</ele>
        <time>2021-11-21T13:38:08Z</time>
      </trkpt>
      <trkpt lat="44.19223" lon="1.36099">
        <ele>175.8</ele>
        <time>2021-11-21T13:38:09Z</time>
      </trkpt>
      <trkpt lat="44.19225" lon="1.36102">
        <ele>175.9</ele>
        <time>2021-11-21T13:38:11Z</time>
      </trkpt>
      <trkpt lat="44.19225" lon="1.36103">
        <ele>175.9</ele>
        <time>2021-11-21T13:38:12Z</time>
      </trkpt>
      <trkpt lat="44.19226" lon="1.36104">
        <ele>175.9</ele>
        <time>2021-11-21T13:38:13Z</time>
      </trkpt>
      <trkpt lat="44.19225" lon="1.36106">
        <ele>175.9</ele>
        <time>2021-11-21T13:38:15Z</time>
      </trkpt>
      <trkpt lat="44.19226" lon="1.36107">
        <ele>176</ele>
        <time>2021-11-21T13:38:16Z</time>
      </trkpt>
      <trkpt lat="44.19226" lon="1.36109">
        <ele>176</ele>
        <time>2021-11-21T13:38:17Z</time>
      </trkpt>
      <trkpt lat="44.19226" lon="1.3611">
        <ele>176</ele>
        <time>2021-11-21T13:38:18Z</time>
      </trkpt>
      <trkpt lat="44.19227" lon="1.36112">
        <ele>176</ele>
        <time>2021-11-21T13:38:19Z</time>
      </trkpt>
      <trkpt lat="44.19228" lon="1.36113">
        <ele>176.1</ele>
        <time>2021-11-21T13:38:20Z</time>
      </trkpt>
      <trkpt lat="44.19228" lon="1.36114">
        <ele>176.1</ele>
        <time>2021-11-21T13:38:22Z</time>
      </trkpt>
      <trkpt lat="44.19228" lon="1.36116">
        <ele>176.1</ele>
        <time>2021-11-21T13:38:23Z</time>
      </trkpt>
      <trkpt lat="44.19228" lon="1.36118">
        <ele>176.1</ele>
        <time>2021-11-21T13:38:24Z</time>
      </trkpt>
      <trkpt lat="44.19228" lon="1.36119">
        <ele>176.1</ele>
        <time>2021-11-21T13:38:25Z</time>
      </trkpt>
      <trkpt lat="44.19228" lon="1.36121">
        <ele>176.2</ele>
        <time>2021-11-21T13:38:27Z</time>
      </trkpt>
      <trkpt lat="44.19228" lon="1.36122">
        <ele>176.2</ele>
        <time>2021-11-21T13:38:28Z</time>
      </trkpt>
      <trkpt lat="44.19228" lon="1.36123">
        <ele>176.2</ele>
        <time>2021-11-21T13:38:29Z</time>
      </trkpt>
      <trkpt lat="44.19228" lon="1.36125">
        <ele>176.2</ele>
        <time>2021-11-21T13:38:30Z</time>
      </trkpt>
      <trkpt lat="44.19229" lon="1.36126">
        <ele>176.2</ele>
        <time>2021-11-21T13:38:32Z</time>
      </trkpt>
      <trkpt lat="44.19229" lon="1.36128">
        <ele>176.3</ele>
        <time>2021-11-21T13:38:33Z</time>
      </trkpt>
      <trkpt lat="44.19229" lon="1.3613">
        <ele>176.3</ele>
        <time>2021-11-21T13:38:34Z</time>
      </trkpt>
      <trkpt lat="44.19229" lon="1.36131">
        <ele>176.3</ele>
        <time>2021-11-21T13:38:35Z</time>
      </trkpt>
      <trkpt lat="44.19229" lon="1.36132">
        <ele>176.3</ele>
        <time>2021-11-21T13:38:36Z</time>
      </trkpt>
      <trkpt lat="44.1923" lon="1.36133">
        <ele>176.3</ele>
        <time>2021-11-21T13:38:37Z</time>
      </trkpt>
      <trkpt lat="44.1923" lon="1.36135">
        <ele>176.4</ele>
        <time>2021-11-21T13:38:39Z</time>
      </trkpt>
      <trkpt lat="44.1923" lon="1.36136">
        <ele>176.4</ele>
        <time>2021-11-21T13:38:40Z</time>
      </trkpt>
      <trkpt lat="44.1923" lon="1.36137">
        <ele>176.4</ele>
        <time>2021-11-21T13:38:41Z</time>
      </trkpt>
      <trkpt lat="44.1923" lon="1.36139">
        <ele>176.4</ele>
        <time>2021-11-21T13:38:42Z</time>
      </trkpt>
      <trkpt lat="44.1923" lon="1.3614">
        <ele>176.4</ele>
        <time>2021-11-21T13:38:43Z</time>
      </trkpt>
      <trkpt lat="44.19231" lon="1.36142">
        <ele>176.5</ele>
        <time>2021-11-21T13:38:45Z</time>
      </trkpt>
      <trkpt lat="44.19231" lon="1.36144">
        <ele>176.5</ele>
        <time>2021-11-21T13:38:46Z</time>
      </trkpt>
      <trkpt lat="44.19231" lon="1.36145">
        <ele>176.5</ele>
        <time>2021-11-21T13:38:47Z</time>
      </trkpt>
      <trkpt lat="44.19231" lon="1.36146">
        <ele>176.5</ele>
        <time>2021-11-21T13:38:48Z</time>
      </trkpt>
      <trkpt lat="44.19232" lon="1.36148">
        <ele>176.6</ele>
        <time>2021-11-21T13:38:50Z</time>
      </trkpt>
      <trkpt lat="44.19232" lon="1.3615">
        <ele>176.6</ele>
        <time>2021-11-21T13:38:51Z</time>
      </trkpt>
      <trkpt lat="44.19233" lon="1.36151">
        <ele>176.6</ele>
        <time>2021-11-21T13:38:52Z</time>
      </trkpt>
      <trkpt lat="44.19233" lon="1.36153">
        <ele>176.6</ele>
        <time>2021-11-21T13:38:53Z</time>
      </trkpt>
      <trkpt lat="44.19234" lon="1.36154">
        <ele>176.7</ele>
        <time>2021-11-21T13:38:55Z</time>
      </trkpt>
      <trkpt lat="44.19235" lon="1.36155">
        <ele>176.7</ele>
        <time>2021-11-21T13:38:57Z</time>
      </trkpt>
      <trkpt lat="44.19235" lon="1.36157">
        <ele>176.7</ele>
        <time>2021-11-21T13:38:58Z</time>
      </trkpt>
      <trkpt lat="44.19235" lon="1.36159">
        <ele>176.7</ele>
        <time>2021-11-21T13:39:00Z</time>
      </trkpt>
      <trkpt lat="44.19236" lon="1.36163">
        <ele>176.8</ele>
        <time>2021-11-21T13:39:01Z</time>
      </trkpt>
      <trkpt lat="44.19236" lon="1.36164">
        <ele>176.8</ele>
        <time>2021-11-21T13:39:03Z</time>
      </trkpt>
      <trkpt lat="44.19236" lon="1.36165">
        <ele>176.8</ele>
        <time>2021-11-21T13:39:04Z</time>
      </trkpt>
      <trkpt lat="44.19237" lon="1.36167">
        <ele>176.8</ele>
        <time>2021-11-21T13:39:05Z</time>
      </trkpt>
      <trkpt lat="44.19237" lon="1.36168">
        <ele>176.8</ele>
        <time>2021-11-21T13:39:06Z</time>
      </trkpt>
      <trkpt lat="44.19237" lon="1.3617">
        <ele>176.8</ele>
        <time>2021-11-21T13:39:08Z</time>
      </trkpt>
      <trkpt lat="44.19238" lon="1.36171">
        <ele>176.8</ele>
        <time>2021-11-21T13:39:09Z</time>
      </trkpt>
      <trkpt lat="44.19238" lon="1.36174">
        <ele>176.9</ele>
        <time>2021-11-21T13:39:10Z</time>
      </trkpt>
      <trkpt lat="44.19238" lon="1.36176">
        <ele>176.9</ele>
        <time>2021-11-21T13:39:11Z</time>
      </trkpt>
      <trkpt lat="44.19239" lon="1.36179">
        <ele>176.9</ele>
        <time>2021-11-21T13:39:13Z</time>
      </trkpt>
      <trkpt lat="44.19239" lon="1.3618">
        <ele>176.9</ele>
        <time>2021-11-21T13:39:14Z</time>
      </trkpt>
      <trkpt lat="44.19239" lon="1.36181">
        <ele>176.9</ele>
        <time>2021-11-21T13:39:15Z</time>
      </trkpt>
      <trkpt lat="44.1924" lon="1.36183">
        <ele>176.9</ele>
        <time>2021-11-21T13:39:17Z</time>
      </trkpt>
      <trkpt lat="44.1924" lon="1.36184">
        <ele>176.9</ele>
        <time>2021-11-21T13:39:18Z</time>
      </trkpt>
      <trkpt lat="44.19241" lon="1.36187">
        <ele>176.9</ele>
        <time>2021-11-21T13:39:19Z</time>
      </trkpt>
      <trkpt lat="44.19241" lon="1.36188">
        <ele>176.9</ele>
        <time>2021-11-21T13:39:20Z</time>
      </trkpt>
      <trkpt lat="44.19241" lon="1.36189">
        <ele>176.9</ele>
        <time>2021-11-21T13:39:21Z</time>
      </trkpt>
      <trkpt lat="44.19242" lon="1.36191">
        <ele>176.9</ele>
        <time>2021-11-21T13:39:23Z</time>
      </trkpt>
      <trkpt lat="44.19242" lon="1.36193">
        <ele>176.9</ele>
        <time>2021-11-21T13:39:25Z</time>
      </trkpt>
      <trkpt lat="44.19243" lon="1.36195">
        <ele>176.9</ele>
        <time>2021-11-21T13:39:26Z</time>
      </trkpt>
      <trkpt lat="44.19243" lon="1.36196">
        <ele>176.9</ele>
        <time>2021-11-21T13:39:27Z</time>
      </trkpt>
      <trkpt lat="44.19243" lon="1.36198">
        <ele>176.9</ele>
        <time>2021-11-21T13:39:28Z</time>
      </trkpt>
      <trkpt lat="44.19244" lon="1.36199">
        <ele>176.9</ele>
        <time>2021-11-21T13:39:30Z</time>
      </trkpt>
      <trkpt lat="44.19244" lon="1.36201">
        <ele>176.8</ele>
        <time>2021-11-21T13:39:31Z</time>
      </trkpt>
      <trkpt lat="44.19245" lon="1.36203">
        <ele>176.8</ele>
        <time>2021-11-21T13:39:33Z</time>
      </trkpt>
      <trkpt lat="44.19246" lon="1.36205">
        <ele>176.8</ele>
        <time>2021-11-21T13:39:34Z</time>
      </trkpt>
      <trkpt lat="44.19247" lon="1.36208">
        <ele>176.7</ele>
        <time>2021-11-21T13:39:36Z</time>
      </trkpt>
      <trkpt lat="44.19248" lon="1.3621">
        <ele>176.7</ele>
        <time>2021-11-21T13:39:37Z</time>
      </trkpt>
      <trkpt lat="44.19248" lon="1.36211">
        <ele>176.7</ele>
        <time>2021-11-21T13:39:38Z</time>
      </trkpt>
      <trkpt lat="44.19249" lon="1.36214">
        <ele>176.7</ele>
        <time>2021-11-21T13:39:40Z</time>
      </trkpt>
      <trkpt lat="44.19249" lon="1.36215">
        <ele>176.7</ele>
        <time>2021-11-21T13:39:41Z</time>
      </trkpt>
      <trkpt lat="44.1925" lon="1.36216">
        <ele>176.6</ele>
        <time>2021-11-21T13:39:42Z</time>
      </trkpt>
      <trkpt lat="44.1925" lon="1.36217">
        <ele>176.6</ele>
        <time>2021-11-21T13:39:43Z</time>
      </trkpt>
      <trkpt lat="44.19251" lon="1.3622">
        <ele>176.6</ele>
        <time>2021-11-21T13:39:45Z</time>
      </trkpt>
      <trkpt lat="44.19251" lon="1.36221">
        <ele>176.6</ele>
        <time>2021-11-21T13:39:47Z</time>
      </trkpt>
      <trkpt lat="44.19251" lon="1.36222">
        <ele>176.6</ele>
        <time>2021-11-21T13:39:48Z</time>
      </trkpt>
      <trkpt lat="44.1925" lon="1.36225">
        <ele>176.5</ele>
        <time>2021-11-21T13:39:50Z</time>
      </trkpt>
      <trkpt lat="44.19249" lon="1.36227">
        <ele>176.5</ele>
        <time>2021-11-21T13:39:52Z</time>
      </trkpt>
      <trkpt lat="44.19249" lon="1.36228">
        <ele>176.5</ele>
        <time>2021-11-21T13:39:53Z</time>
      </trkpt>
      <trkpt lat="44.19247" lon="1.3623">
        <ele>176.4</ele>
        <time>2021-11-21T13:39:55Z</time>
      </trkpt>
      <trkpt lat="44.19247" lon="1.36232">
        <ele>176.4</ele>
        <time>2021-11-21T13:39:56Z</time>
      </trkpt>
      <trkpt lat="44.19246" lon="1.36233">
        <ele>176.4</ele>
        <time>2021-11-21T13:39:57Z</time>
      </trkpt>
      <trkpt lat="44.19246" lon="1.36235">
        <ele>176.4</ele>
        <time>2021-11-21T13:39:58Z</time>
      </trkpt>
      <trkpt lat="44.19245" lon="1.36236">
        <ele>176.3</ele>
        <time>2021-11-21T13:40:00Z</time>
      </trkpt>
      <trkpt lat="44.19245" lon="1.36238">
        <ele>176.3</ele>
        <time>2021-11-21T13:40:01Z</time>
      </trkpt>
      <trkpt lat="44.19245" lon="1.36239">
        <ele>176.3</ele>
        <time>2021-11-21T13:40:02Z</time>
      </trkpt>
      <trkpt lat="44.19244" lon="1.3624">
        <ele>176.3</ele>
        <time>2021-11-21T13:40:03Z</time>
      </trkpt>
      <trkpt lat="44.19244" lon="1.36242">
        <ele>176.2</ele>
        <time>2021-11-21T13:40:04Z</time>
      </trkpt>
      <trkpt lat="44.19244" lon="1.36243">
        <ele>176.2</ele>
        <time>2021-11-21T13:40:06Z</time>
      </trkpt>
      <trkpt lat="44.19244" lon="1.36245">
        <ele>176.2</ele>
        <time>2021-11-21T13:40:07Z</time>
      </trkpt>
      <trkpt lat="44.19244" lon="1.36246">
        <ele>176.2</ele>
        <time>2021-11-21T13:40:08Z</time>
      </trkpt>
      <trkpt lat="44.19244" lon="1.36248">
        <ele>176.1</ele>
        <time>2021-11-21T13:40:10Z</time>
      </trkpt>
      <trkpt lat="44.19244" lon="1.36248">
        <ele>176.1</ele>
        <time>2021-11-21T13:40:11Z</time>
      </trkpt>
      <trkpt lat="44.19244" lon="1.36249">
        <ele>176.1</ele>
        <time>2021-11-21T13:40:13Z</time>
      </trkpt>
      <trkpt lat="44.19244" lon="1.3625">
        <ele>176.1</ele>
        <time>2021-11-21T13:40:14Z</time>
      </trkpt>
      <trkpt lat="44.19245" lon="1.36251">
        <ele>176.1</ele>
        <time>2021-11-21T13:40:15Z</time>
      </trkpt>
      <trkpt lat="44.19246" lon="1.36252">
        <ele>176</ele>
        <time>2021-11-21T13:40:16Z</time>
      </trkpt>
      <trkpt lat="44.19247" lon="1.36256">
        <ele>176</ele>
        <time>2021-11-21T13:40:18Z</time>
      </trkpt>
      <trkpt lat="44.19248" lon="1.36256">
        <ele>175.9</ele>
        <time>2021-11-21T13:40:19Z</time>
      </trkpt>
      <trkpt lat="44.19249" lon="1.36257">
        <ele>175.9</ele>
        <time>2021-11-21T13:40:21Z</time>
      </trkpt>
      <trkpt lat="44.1925" lon="1.36258">
        <ele>175.8</ele>
        <time>2021-11-21T13:40:22Z</time>
      </trkpt>
      <trkpt lat="44.19251" lon="1.36259">
        <ele>175.8</ele>
        <time>2021-11-21T13:40:23Z</time>
      </trkpt>
      <trkpt lat="44.19252" lon="1.3626">
        <ele>175.8</ele>
        <time>2021-11-21T13:40:24Z</time>
      </trkpt>
      <trkpt lat="44.19253" lon="1.3626">
        <ele>175.7</ele>
        <time>2021-11-21T13:40:25Z</time>
      </trkpt>
      <trkpt lat="44.19253" lon="1.36261">
        <ele>175.7</ele>
        <time>2021-11-21T13:40:27Z</time>
      </trkpt>
      <trkpt lat="44.19254" lon="1.36262">
        <ele>175.7</ele>
        <time>2021-11-21T13:40:28Z</time>
      </trkpt>
      <trkpt lat="44.19255" lon="1.36262">
        <ele>175.6</ele>
        <time>2021-11-21T13:40:29Z</time>
      </trkpt>
      <trkpt lat="44.19256" lon="1.36263">
        <ele>175.6</ele>
        <time>2021-11-21T13:40:30Z</time>
      </trkpt>
      <trkpt lat="44.19256" lon="1.36263">
        <ele>175.6</ele>
        <time>2021-11-21T13:40:31Z</time>
      </trkpt>
      <trkpt lat="44.19257" lon="1.36263">
        <ele>175.6</ele>
        <time>2021-11-21T13:40:32Z</time>
      </trkpt>
      <trkpt lat="44.19257" lon="1.36263">
        <ele>175.5</ele>
        <time>2021-11-21T13:40:34Z</time>
      </trkpt>
      <trkpt lat="44.19258" lon="1.36264">
        <ele>175.5</ele>
        <time>2021-11-21T13:40:35Z</time>
      </trkpt>
      <trkpt lat="44.1926" lon="1.36265">
        <ele>175.4</ele>
        <time>2021-11-21T13:40:37Z</time>
      </trkpt>
      <trkpt lat="44.19261" lon="1.36265">
        <ele>175.4</ele>
        <time>2021-11-21T13:40:38Z</time>
      </trkpt>
      <trkpt lat="44.19262" lon="1.36265">
        <ele>175.3</ele>
        <time>2021-11-21T13:40:39Z</time>
      </trkpt>
      <trkpt lat="44.19264" lon="1.36264">
        <ele>175.3</ele>
        <time>2021-11-21T13:40:40Z</time>
      </trkpt>
      <trkpt lat="44.19265" lon="1.36264">
        <ele>175.2</ele>
        <time>2021-11-21T13:40:42Z</time>
      </trkpt>
      <trkpt lat="44.19266" lon="1.36264">
        <ele>175.2</ele>
        <time>2021-11-21T13:40:44Z</time>
      </trkpt>
      <trkpt lat="44.19265" lon="1.36265">
        <ele>175.2</ele>
        <time>2021-11-21T13:40:46Z</time>
      </trkpt>
      <trkpt lat="44.19265" lon="1.36265">
        <ele>175.2</ele>
        <time>2021-11-21T13:40:47Z</time>
      </trkpt>
      <trkpt lat="44.19265" lon="1.36266">
        <ele>175.2</ele>
        <time>2021-11-21T13:40:49Z</time>
      </trkpt>
      <trkpt lat="44.19265" lon="1.36266">
        <ele>175.1</ele>
        <time>2021-11-21T13:40:50Z</time>
      </trkpt>
      <trkpt lat="44.19266" lon="1.36267">
        <ele>175.1</ele>
        <time>2021-11-21T13:40:52Z</time>
      </trkpt>
      <trkpt lat="44.19266" lon="1.36266">
        <ele>175.1</ele>
        <time>2021-11-21T13:40:54Z</time>
      </trkpt>
      <trkpt lat="44.19265" lon="1.36267">
        <ele>175.1</ele>
        <time>2021-11-21T13:40:56Z</time>
      </trkpt>
      <trkpt lat="44.19265" lon="1.36267">
        <ele>175</ele>
        <time>2021-11-21T13:40:57Z</time>
      </trkpt>
      <trkpt lat="44.19262" lon="1.36268">
        <ele>174.9</ele>
        <time>2021-11-21T13:40:59Z</time>
      </trkpt>
      <trkpt lat="44.19262" lon="1.36268">
        <ele>174.9</ele>
        <time>2021-11-21T13:41:00Z</time>
      </trkpt>
      <trkpt lat="44.19264" lon="1.36268">
        <ele>174.9</ele>
        <time>2021-11-21T13:41:01Z</time>
      </trkpt>
      <trkpt lat="44.19265" lon="1.36269">
        <ele>174.8</ele>
        <time>2021-11-21T13:41:02Z</time>
      </trkpt>
      <trkpt lat="44.1927" lon="1.36271">
        <ele>174.6</ele>
        <time>2021-11-21T13:41:04Z</time>
      </trkpt>
      <trkpt lat="44.19271" lon="1.36272">
        <ele>174.6</ele>
        <time>2021-11-21T13:41:05Z</time>
      </trkpt>
      <trkpt lat="44.19272" lon="1.36273">
        <ele>174.5</ele>
        <time>2021-11-21T13:41:06Z</time>
      </trkpt>
      <trkpt lat="44.19274" lon="1.36275">
        <ele>174.4</ele>
        <time>2021-11-21T13:41:07Z</time>
      </trkpt>
      <trkpt lat="44.19275" lon="1.36276">
        <ele>174.4</ele>
        <time>2021-11-21T13:41:08Z</time>
      </trkpt>
      <trkpt lat="44.19275" lon="1.36277">
        <ele>174.4</ele>
        <time>2021-11-21T13:41:09Z</time>
      </trkpt>
      <trkpt lat="44.19276" lon="1.36277">
        <ele>174.3</ele>
        <time>2021-11-21T13:41:10Z</time>
      </trkpt>
      <trkpt lat="44.19277" lon="1.36278">
        <ele>174.3</ele>
        <time>2021-11-21T13:41:12Z</time>
      </trkpt>
      <trkpt lat="44.19278" lon="1.3628">
        <ele>174.2</ele>
        <time>2021-11-21T13:41:13Z</time>
      </trkpt>
      <trkpt lat="44.19279" lon="1.36281">
        <ele>174.2</ele>
        <time>2021-11-21T13:41:14Z</time>
      </trkpt>
      <trkpt lat="44.19279" lon="1.36284">
        <ele>174.1</ele>
        <time>2021-11-21T13:41:15Z</time>
      </trkpt>
      <trkpt lat="44.1928" lon="1.36285">
        <ele>174.1</ele>
        <time>2021-11-21T13:41:16Z</time>
      </trkpt>
      <trkpt lat="44.1928" lon="1.36287">
        <ele>174</ele>
        <time>2021-11-21T13:41:18Z</time>
      </trkpt>
      <trkpt lat="44.19281" lon="1.36289">
        <ele>174</ele>
        <time>2021-11-21T13:41:19Z</time>
      </trkpt>
      <trkpt lat="44.19281" lon="1.36291">
        <ele>173.9</ele>
        <time>2021-11-21T13:41:20Z</time>
      </trkpt>
      <trkpt lat="44.19281" lon="1.36294">
        <ele>173.8</ele>
        <time>2021-11-21T13:41:21Z</time>
      </trkpt>
      <trkpt lat="44.19281" lon="1.36296">
        <ele>173.8</ele>
        <time>2021-11-21T13:41:22Z</time>
      </trkpt>
      <trkpt lat="44.19282" lon="1.36298">
        <ele>173.7</ele>
        <time>2021-11-21T13:41:24Z</time>
      </trkpt>
      <trkpt lat="44.19282" lon="1.363">
        <ele>173.7</ele>
        <time>2021-11-21T13:41:25Z</time>
      </trkpt>
      <trkpt lat="44.19282" lon="1.36301">
        <ele>173.6</ele>
        <time>2021-11-21T13:41:26Z</time>
      </trkpt>
      <trkpt lat="44.19283" lon="1.36303">
        <ele>173.6</ele>
        <time>2021-11-21T13:41:27Z</time>
      </trkpt>
      <trkpt lat="44.19284" lon="1.36305">
        <ele>173.5</ele>
        <time>2021-11-21T13:41:29Z</time>
      </trkpt>
      <trkpt lat="44.19284" lon="1.36307">
        <ele>173.5</ele>
        <time>2021-11-21T13:41:30Z</time>
      </trkpt>
      <trkpt lat="44.19286" lon="1.36309">
        <ele>173.4</ele>
        <time>2021-11-21T13:41:32Z</time>
      </trkpt>
      <trkpt lat="44.19286" lon="1.36311">
        <ele>173.4</ele>
        <time>2021-11-21T13:41:33Z</time>
      </trkpt>
      <trkpt lat="44.19287" lon="1.36313">
        <ele>173.3</ele>
        <time>2021-11-21T13:41:35Z</time>
      </trkpt>
      <trkpt lat="44.19288" lon="1.36315">
        <ele>173.2</ele>
        <time>2021-11-21T13:41:36Z</time>
      </trkpt>
      <trkpt lat="44.19288" lon="1.36317">
        <ele>173.2</ele>
        <time>2021-11-21T13:41:38Z</time>
      </trkpt>
      <trkpt lat="44.19289" lon="1.36319">
        <ele>173.2</ele>
        <time>2021-11-21T13:41:39Z</time>
      </trkpt>
      <trkpt lat="44.1929" lon="1.36321">
        <ele>173.1</ele>
        <time>2021-11-21T13:41:40Z</time>
      </trkpt>
      <trkpt lat="44.19291" lon="1.36323">
        <ele>173.1</ele>
        <time>2021-11-21T13:41:41Z</time>
      </trkpt>
      <trkpt lat="44.19291" lon="1.36324">
        <ele>173</ele>
        <time>2021-11-21T13:41:42Z</time>
      </trkpt>
      <trkpt lat="44.19292" lon="1.36325">
        <ele>173</ele>
        <time>2021-11-21T13:41:43Z</time>
      </trkpt>
      <trkpt lat="44.19292" lon="1.36326">
        <ele>173</ele>
        <time>2021-11-21T13:41:45Z</time>
      </trkpt>
      <trkpt lat="44.19293" lon="1.36328">
        <ele>172.9</ele>
        <time>2021-11-21T13:41:46Z</time>
      </trkpt>
      <trkpt lat="44.19294" lon="1.3633">
        <ele>172.9</ele>
        <time>2021-11-21T13:41:48Z</time>
      </trkpt>
      <trkpt lat="44.19295" lon="1.36332">
        <ele>172.8</ele>
        <time>2021-11-21T13:41:49Z</time>
      </trkpt>
      <trkpt lat="44.19296" lon="1.36334">
        <ele>172.8</ele>
        <time>2021-11-21T13:41:50Z</time>
      </trkpt>
      <trkpt lat="44.19297" lon="1.36335">
        <ele>172.7</ele>
        <time>2021-11-21T13:41:51Z</time>
      </trkpt>
      <trkpt lat="44.19297" lon="1.36337">
        <ele>172.7</ele>
        <time>2021-11-21T13:41:52Z</time>
      </trkpt>
      <trkpt lat="44.19297" lon="1.36339">
        <ele>172.6</ele>
        <time>2021-11-21T13:41:54Z</time>
      </trkpt>
      <trkpt lat="44.19298" lon="1.3634">
        <ele>172.6</ele>
        <time>2021-11-21T13:41:55Z</time>
      </trkpt>
      <trkpt lat="44.19299" lon="1.36342">
        <ele>172.6</ele>
        <time>2021-11-21T13:41:56Z</time>
      </trkpt>
      <trkpt lat="44.193" lon="1.36344">
        <ele>172.5</ele>
        <time>2021-11-21T13:41:57Z</time>
      </trkpt>
      <trkpt lat="44.193" lon="1.36345">
        <ele>172.5</ele>
        <time>2021-11-21T13:41:58Z</time>
      </trkpt>
      <trkpt lat="44.193" lon="1.36347">
        <ele>172.4</ele>
        <time>2021-11-21T13:41:59Z</time>
      </trkpt>
      <trkpt lat="44.193" lon="1.3635">
        <ele>172.4</ele>
        <time>2021-11-21T13:42:01Z</time>
      </trkpt>
      <trkpt lat="44.193" lon="1.36351">
        <ele>172.4</ele>
        <time>2021-11-21T13:42:02Z</time>
      </trkpt>
      <trkpt lat="44.193" lon="1.36352">
        <ele>172.3</ele>
        <time>2021-11-21T13:42:03Z</time>
      </trkpt>
      <trkpt lat="44.19299" lon="1.36355">
        <ele>172.3</ele>
        <time>2021-11-21T13:42:05Z</time>
      </trkpt>
      <trkpt lat="44.19299" lon="1.36357">
        <ele>172.2</ele>
        <time>2021-11-21T13:42:06Z</time>
      </trkpt>
      <trkpt lat="44.19299" lon="1.36359">
        <ele>172.2</ele>
        <time>2021-11-21T13:42:07Z</time>
      </trkpt>
      <trkpt lat="44.19299" lon="1.36362">
        <ele>172.1</ele>
        <time>2021-11-21T13:42:09Z</time>
      </trkpt>
      <trkpt lat="44.193" lon="1.36363">
        <ele>172.1</ele>
        <time>2021-11-21T13:42:10Z</time>
      </trkpt>
      <trkpt lat="44.19301" lon="1.36365">
        <ele>172</ele>
        <time>2021-11-21T13:42:12Z</time>
      </trkpt>
      <trkpt lat="44.19301" lon="1.36366">
        <ele>172</ele>
        <time>2021-11-21T13:42:13Z</time>
      </trkpt>
      <trkpt lat="44.19302" lon="1.36368">
        <ele>172</ele>
        <time>2021-11-21T13:42:14Z</time>
      </trkpt>
      <trkpt lat="44.19303" lon="1.36369">
        <ele>172</ele>
        <time>2021-11-21T13:42:15Z</time>
      </trkpt>
      <trkpt lat="44.19304" lon="1.3637">
        <ele>171.9</ele>
        <time>2021-11-21T13:42:17Z</time>
      </trkpt>
      <trkpt lat="44.19305" lon="1.36372">
        <ele>171.9</ele>
        <time>2021-11-21T13:42:18Z</time>
      </trkpt>
      <trkpt lat="44.19305" lon="1.36373">
        <ele>171.9</ele>
        <time>2021-11-21T13:42:19Z</time>
      </trkpt>
      <trkpt lat="44.19307" lon="1.36373">
        <ele>171.9</ele>
        <time>2021-11-21T13:42:20Z</time>
      </trkpt>
      <trkpt lat="44.19308" lon="1.36375">
        <ele>171.9</ele>
        <time>2021-11-21T13:42:22Z</time>
      </trkpt>
      <trkpt lat="44.19309" lon="1.36376">
        <ele>171.9</ele>
        <time>2021-11-21T13:42:23Z</time>
      </trkpt>
      <trkpt lat="44.19309" lon="1.36376">
        <ele>171.9</ele>
        <time>2021-11-21T13:42:24Z</time>
      </trkpt>
      <trkpt lat="44.1931" lon="1.36376">
        <ele>171.9</ele>
        <time>2021-11-21T13:42:25Z</time>
      </trkpt>
      <trkpt lat="44.19312" lon="1.36376">
        <ele>171.9</ele>
        <time>2021-11-21T13:42:27Z</time>
      </trkpt>
      <trkpt lat="44.19313" lon="1.36376">
        <ele>171.9</ele>
        <time>2021-11-21T13:42:28Z</time>
      </trkpt>
      <trkpt lat="44.19315" lon="1.36374">
        <ele>171.8</ele>
        <time>2021-11-21T13:42:29Z</time>
      </trkpt>
      <trkpt lat="44.19315" lon="1.36373">
        <ele>171.8</ele>
        <time>2021-11-21T13:42:30Z</time>
      </trkpt>
      <trkpt lat="44.19316" lon="1.36372">
        <ele>171.8</ele>
        <time>2021-11-21T13:42:31Z</time>
      </trkpt>
      <trkpt lat="44.19317" lon="1.36371">
        <ele>171.8</ele>
        <time>2021-11-21T13:42:33Z</time>
      </trkpt>
      <trkpt lat="44.19317" lon="1.36369">
        <ele>171.8</ele>
        <time>2021-11-21T13:42:34Z</time>
      </trkpt>
      <trkpt lat="44.19317" lon="1.36368">
        <ele>171.8</ele>
        <time>2021-11-21T13:42:35Z</time>
      </trkpt>
      <trkpt lat="44.19318" lon="1.36367">
        <ele>171.8</ele>
        <time>2021-11-21T13:42:36Z</time>
      </trkpt>
      <trkpt lat="44.19319" lon="1.36368">
        <ele>171.8</ele>
        <time>2021-11-21T13:42:38Z</time>
      </trkpt>
      <trkpt lat="44.19319" lon="1.36369">
        <ele>171.8</ele>
        <time>2021-11-21T13:42:39Z</time>
      </trkpt>
      <trkpt lat="44.1932" lon="1.36369">
        <ele>171.8</ele>
        <time>2021-11-21T13:42:40Z</time>
      </trkpt>
      <trkpt lat="44.1932" lon="1.3637">
        <ele>171.8</ele>
        <time>2021-11-21T13:42:42Z</time>
      </trkpt>
      <trkpt lat="44.19321" lon="1.36371">
        <ele>171.8</ele>
        <time>2021-11-21T13:42:44Z</time>
      </trkpt>
      <trkpt lat="44.19321" lon="1.36371">
        <ele>171.8</ele>
        <time>2021-11-21T13:42:45Z</time>
      </trkpt>
      <trkpt lat="44.19321" lon="1.36372">
        <ele>171.8</ele>
        <time>2021-11-21T13:42:47Z</time>
      </trkpt>
      <trkpt lat="44.19322" lon="1.36373">
        <ele>171.8</ele>
        <time>2021-11-21T13:42:48Z</time>
      </trkpt>
      <trkpt lat="44.19322" lon="1.36373">
        <ele>171.8</ele>
        <time>2021-11-21T13:42:49Z</time>
      </trkpt>
      <trkpt lat="44.19323" lon="1.36374">
        <ele>171.8</ele>
        <time>2021-11-21T13:42:50Z</time>
      </trkpt>
      <trkpt lat="44.19323" lon="1.36376">
        <ele>171.8</ele>
        <time>2021-11-21T13:42:52Z</time>
      </trkpt>
      <trkpt lat="44.19322" lon="1.36377">
        <ele>171.8</ele>
        <time>2021-11-21T13:42:53Z</time>
      </trkpt>
      <trkpt lat="44.19322" lon="1.3638">
        <ele>171.7</ele>
        <time>2021-11-21T13:42:55Z</time>
      </trkpt>
      <trkpt lat="44.19322" lon="1.36383">
        <ele>171.7</ele>
        <time>2021-11-21T13:42:57Z</time>
      </trkpt>
      <trkpt lat="44.19322" lon="1.36385">
        <ele>171.7</ele>
        <time>2021-11-21T13:42:59Z</time>
      </trkpt>
      <trkpt lat="44.19323" lon="1.36384">
        <ele>171.7</ele>
        <time>2021-11-21T13:43:01Z</time>
      </trkpt>
      <trkpt lat="44.19323" lon="1.36384">
        <ele>171.7</ele>
        <time>2021-11-21T13:43:03Z</time>
      </trkpt>
      <trkpt lat="44.19323" lon="1.36384">
        <ele>171.7</ele>
        <time>2021-11-21T13:43:04Z</time>
      </trkpt>
      <trkpt lat="44.19323" lon="1.36384">
        <ele>171.7</ele>
        <time>2021-11-21T13:43:06Z</time>
      </trkpt>
      <trkpt lat="44.19323" lon="1.36384">
        <ele>171.7</ele>
        <time>2021-11-21T13:43:07Z</time>
      </trkpt>
      <trkpt lat="44.19323" lon="1.36383">
        <ele>171.7</ele>
        <time>2021-11-21T13:43:09Z</time>
      </trkpt>
      <trkpt lat="44.19323" lon="1.36382">
        <ele>171.7</ele>
        <time>2021-11-21T13:43:10Z</time>
      </trkpt>
      <trkpt lat="44.19324" lon="1.36381">
        <ele>171.7</ele>
        <time>2021-11-21T13:43:12Z</time>
      </trkpt>
      <trkpt lat="44.19324" lon="1.36381">
        <ele>171.7</ele>
        <time>2021-11-21T13:43:13Z</time>
      </trkpt>
      <trkpt lat="44.19324" lon="1.36381">
        <ele>171.7</ele>
        <time>2021-11-21T13:43:14Z</time>
      </trkpt>
      <trkpt lat="44.19324" lon="1.36382">
        <ele>171.6</ele>
        <time>2021-11-21T13:43:15Z</time>
      </trkpt>
      <trkpt lat="44.19324" lon="1.36383">
        <ele>171.6</ele>
        <time>2021-11-21T13:43:16Z</time>
      </trkpt>
      <trkpt lat="44.19325" lon="1.36383">
        <ele>171.6</ele>
        <time>2021-11-21T13:43:17Z</time>
      </trkpt>
      <trkpt lat="44.19326" lon="1.36384">
        <ele>171.6</ele>
        <time>2021-11-21T13:43:19Z</time>
      </trkpt>
      <trkpt lat="44.19326" lon="1.36386">
        <ele>171.6</ele>
        <time>2021-11-21T13:43:20Z</time>
      </trkpt>
      <trkpt lat="44.19326" lon="1.36387">
        <ele>171.6</ele>
        <time>2021-11-21T13:43:21Z</time>
      </trkpt>
      <trkpt lat="44.19327" lon="1.36389">
        <ele>171.6</ele>
        <time>2021-11-21T13:43:23Z</time>
      </trkpt>
      <trkpt lat="44.19327" lon="1.36392">
        <ele>171.6</ele>
        <time>2021-11-21T13:43:24Z</time>
      </trkpt>
      <trkpt lat="44.19327" lon="1.36396">
        <ele>171.5</ele>
        <time>2021-11-21T13:43:26Z</time>
      </trkpt>
      <trkpt lat="44.19327" lon="1.36396">
        <ele>171.5</ele>
        <time>2021-11-21T13:43:27Z</time>
      </trkpt>
      <trkpt lat="44.19328" lon="1.36397">
        <ele>171.5</ele>
        <time>2021-11-21T13:43:28Z</time>
      </trkpt>
      <trkpt lat="44.19328" lon="1.36398">
        <ele>171.5</ele>
        <time>2021-11-21T13:43:29Z</time>
      </trkpt>
      <trkpt lat="44.19329" lon="1.36397">
        <ele>171.5</ele>
        <time>2021-11-21T13:43:30Z</time>
      </trkpt>
      <trkpt lat="44.1933" lon="1.36399">
        <ele>171.5</ele>
        <time>2021-11-21T13:43:32Z</time>
      </trkpt>
      <trkpt lat="44.1933" lon="1.364">
        <ele>171.5</ele>
        <time>2021-11-21T13:43:33Z</time>
      </trkpt>
      <trkpt lat="44.19331" lon="1.36401">
        <ele>171.5</ele>
        <time>2021-11-21T13:43:34Z</time>
      </trkpt>
      <trkpt lat="44.19331" lon="1.36402">
        <ele>171.5</ele>
        <time>2021-11-21T13:43:35Z</time>
      </trkpt>
      <trkpt lat="44.19332" lon="1.36403">
        <ele>171.5</ele>
        <time>2021-11-21T13:43:37Z</time>
      </trkpt>
      <trkpt lat="44.19332" lon="1.36405">
        <ele>171.5</ele>
        <time>2021-11-21T13:43:38Z</time>
      </trkpt>
      <trkpt lat="44.19333" lon="1.36406">
        <ele>171.4</ele>
        <time>2021-11-21T13:43:39Z</time>
      </trkpt>
      <trkpt lat="44.19333" lon="1.36407">
        <ele>171.4</ele>
        <time>2021-11-21T13:43:40Z</time>
      </trkpt>
      <trkpt lat="44.19333" lon="1.36409">
        <ele>171.4</ele>
        <time>2021-11-21T13:43:42Z</time>
      </trkpt>
      <trkpt lat="44.19333" lon="1.3641">
        <ele>171.4</ele>
        <time>2021-11-21T13:43:43Z</time>
      </trkpt>
      <trkpt lat="44.19332" lon="1.36413">
        <ele>171.4</ele>
        <time>2021-11-21T13:43:45Z</time>
      </trkpt>
      <trkpt lat="44.19331" lon="1.36415">
        <ele>171.4</ele>
        <time>2021-11-21T13:43:46Z</time>
      </trkpt>
      <trkpt lat="44.19329" lon="1.36416">
        <ele>171.4</ele>
        <time>2021-11-21T13:43:47Z</time>
      </trkpt>
      <trkpt lat="44.19327" lon="1.36418">
        <ele>171.4</ele>
        <time>2021-11-21T13:43:49Z</time>
      </trkpt>
      <trkpt lat="44.19326" lon="1.36419">
        <ele>171.4</ele>
        <time>2021-11-21T13:43:50Z</time>
      </trkpt>
      <trkpt lat="44.19325" lon="1.3642">
        <ele>171.4</ele>
        <time>2021-11-21T13:43:51Z</time>
      </trkpt>
      <trkpt lat="44.19324" lon="1.36422">
        <ele>171.4</ele>
        <time>2021-11-21T13:43:53Z</time>
      </trkpt>
      <trkpt lat="44.19324" lon="1.36423">
        <ele>171.4</ele>
        <time>2021-11-21T13:43:54Z</time>
      </trkpt>
      <trkpt lat="44.19323" lon="1.36424">
        <ele>171.4</ele>
        <time>2021-11-21T13:43:55Z</time>
      </trkpt>
      <trkpt lat="44.19322" lon="1.36425">
        <ele>171.4</ele>
        <time>2021-11-21T13:43:56Z</time>
      </trkpt>
      <trkpt lat="44.19322" lon="1.36426">
        <ele>171.4</ele>
        <time>2021-11-21T13:43:57Z</time>
      </trkpt>
      <trkpt lat="44.19321" lon="1.36427">
        <ele>171.3</ele>
        <time>2021-11-21T13:43:59Z</time>
      </trkpt>
      <trkpt lat="44.19321" lon="1.36429">
        <ele>171.3</ele>
        <time>2021-11-21T13:44:00Z</time>
      </trkpt>
      <trkpt lat="44.19321" lon="1.36429">
        <ele>171.3</ele>
        <time>2021-11-21T13:44:01Z</time>
      </trkpt>
      <trkpt lat="44.19321" lon="1.36431">
        <ele>171.3</ele>
        <time>2021-11-21T13:44:03Z</time>
      </trkpt>
      <trkpt lat="44.19321" lon="1.36431">
        <ele>171.3</ele>
        <time>2021-11-21T13:44:04Z</time>
      </trkpt>
      <trkpt lat="44.19321" lon="1.36431">
        <ele>171.3</ele>
        <time>2021-11-21T13:44:05Z</time>
      </trkpt>
      <trkpt lat="44.19321" lon="1.36432">
        <ele>171.3</ele>
        <time>2021-11-21T13:44:07Z</time>
      </trkpt>
      <trkpt lat="44.19322" lon="1.36433">
        <ele>171.3</ele>
        <time>2021-11-21T13:44:08Z</time>
      </trkpt>
      <trkpt lat="44.19322" lon="1.36435">
        <ele>171.3</ele>
        <time>2021-11-21T13:44:10Z</time>
      </trkpt>
      <trkpt lat="44.19322" lon="1.36436">
        <ele>171.3</ele>
        <time>2021-11-21T13:44:11Z</time>
      </trkpt>
      <trkpt lat="44.19322" lon="1.36438">
        <ele>171.3</ele>
        <time>2021-11-21T13:44:13Z</time>
      </trkpt>
      <trkpt lat="44.19322" lon="1.36439">
        <ele>171.3</ele>
        <time>2021-11-21T13:44:14Z</time>
      </trkpt>
      <trkpt lat="44.19322" lon="1.3644">
        <ele>171.3</ele>
        <time>2021-11-21T13:44:16Z</time>
      </trkpt>
      <trkpt lat="44.19322" lon="1.36441">
        <ele>171.3</ele>
        <time>2021-11-21T13:44:18Z</time>
      </trkpt>
      <trkpt lat="44.19322" lon="1.36441">
        <ele>171.3</ele>
        <time>2021-11-21T13:44:19Z</time>
      </trkpt>
      <trkpt lat="44.19322" lon="1.36441">
        <ele>171.3</ele>
        <time>2021-11-21T13:44:20Z</time>
      </trkpt>
      <trkpt lat="44.19322" lon="1.36441">
        <ele>171.3</ele>
        <time>2021-11-21T13:44:22Z</time>
      </trkpt>
      <trkpt lat="44.19322" lon="1.36442">
        <ele>171.3</ele>
        <time>2021-11-21T13:44:23Z</time>
      </trkpt>
      <trkpt lat="44.19322" lon="1.36445">
        <ele>171.3</ele>
        <time>2021-11-21T13:44:25Z</time>
      </trkpt>
      <trkpt lat="44.19323" lon="1.36446">
        <ele>171.3</ele>
        <time>2021-11-21T13:44:26Z</time>
      </trkpt>
      <trkpt lat="44.19322" lon="1.36449">
        <ele>171.3</ele>
        <time>2021-11-21T13:44:28Z</time>
      </trkpt>
      <trkpt lat="44.19322" lon="1.36451">
        <ele>171.3</ele>
        <time>2021-11-21T13:44:29Z</time>
      </trkpt>
      <trkpt lat="44.19323" lon="1.36452">
        <ele>171.3</ele>
        <time>2021-11-21T13:44:30Z</time>
      </trkpt>
      <trkpt lat="44.19324" lon="1.36453">
        <ele>171.3</ele>
        <time>2021-11-21T13:44:31Z</time>
      </trkpt>
      <trkpt lat="44.19326" lon="1.36455">
        <ele>171.3</ele>
        <time>2021-11-21T13:44:33Z</time>
      </trkpt>
      <trkpt lat="44.19327" lon="1.36456">
        <ele>171.3</ele>
        <time>2021-11-21T13:44:34Z</time>
      </trkpt>
      <trkpt lat="44.19329" lon="1.36457">
        <ele>171.3</ele>
        <time>2021-11-21T13:44:36Z</time>
      </trkpt>
      <trkpt lat="44.1933" lon="1.36458">
        <ele>171.3</ele>
        <time>2021-11-21T13:44:37Z</time>
      </trkpt>
      <trkpt lat="44.19331" lon="1.36459">
        <ele>171.3</ele>
        <time>2021-11-21T13:44:38Z</time>
      </trkpt>
      <trkpt lat="44.19332" lon="1.36461">
        <ele>171.3</ele>
        <time>2021-11-21T13:44:39Z</time>
      </trkpt>
      <trkpt lat="44.19333" lon="1.36462">
        <ele>171.3</ele>
        <time>2021-11-21T13:44:41Z</time>
      </trkpt>
      <trkpt lat="44.19334" lon="1.36464">
        <ele>171.3</ele>
        <time>2021-11-21T13:44:42Z</time>
      </trkpt>
      <trkpt lat="44.19335" lon="1.36466">
        <ele>171.3</ele>
        <time>2021-11-21T13:44:44Z</time>
      </trkpt>
      <trkpt lat="44.19336" lon="1.36467">
        <ele>171.3</ele>
        <time>2021-11-21T13:44:45Z</time>
      </trkpt>
      <trkpt lat="44.19336" lon="1.3647">
        <ele>171.3</ele>
        <time>2021-11-21T13:44:47Z</time>
      </trkpt>
      <trkpt lat="44.19336" lon="1.36472">
        <ele>171.3</ele>
        <time>2021-11-21T13:44:48Z</time>
      </trkpt>
      <trkpt lat="44.19336" lon="1.36474">
        <ele>171.3</ele>
        <time>2021-11-21T13:44:49Z</time>
      </trkpt>
      <trkpt lat="44.19336" lon="1.36475">
        <ele>171.3</ele>
        <time>2021-11-21T13:44:51Z</time>
      </trkpt>
      <trkpt lat="44.19335" lon="1.36477">
        <ele>171.3</ele>
        <time>2021-11-21T13:44:52Z</time>
      </trkpt>
      <trkpt lat="44.19335" lon="1.36479">
        <ele>171.3</ele>
        <time>2021-11-21T13:44:53Z</time>
      </trkpt>
      <trkpt lat="44.19335" lon="1.36481">
        <ele>171.3</ele>
        <time>2021-11-21T13:44:55Z</time>
      </trkpt>
      <trkpt lat="44.19335" lon="1.36483">
        <ele>171.3</ele>
        <time>2021-11-21T13:44:56Z</time>
      </trkpt>
      <trkpt lat="44.19334" lon="1.36484">
        <ele>171.3</ele>
        <time>2021-11-21T13:44:57Z</time>
      </trkpt>
      <trkpt lat="44.19333" lon="1.36487">
        <ele>171.3</ele>
        <time>2021-11-21T13:44:59Z</time>
      </trkpt>
      <trkpt lat="44.19332" lon="1.36488">
        <ele>171.3</ele>
        <time>2021-11-21T13:45:00Z</time>
      </trkpt>
      <trkpt lat="44.19331" lon="1.3649">
        <ele>171.3</ele>
        <time>2021-11-21T13:45:02Z</time>
      </trkpt>
      <trkpt lat="44.19331" lon="1.36492">
        <ele>171.3</ele>
        <time>2021-11-21T13:45:03Z</time>
      </trkpt>
      <trkpt lat="44.1933" lon="1.36494">
        <ele>171.3</ele>
        <time>2021-11-21T13:45:05Z</time>
      </trkpt>
      <trkpt lat="44.19329" lon="1.36496">
        <ele>171.3</ele>
        <time>2021-11-21T13:45:06Z</time>
      </trkpt>
      <trkpt lat="44.19329" lon="1.36498">
        <ele>171.3</ele>
        <time>2021-11-21T13:45:08Z</time>
      </trkpt>
      <trkpt lat="44.19328" lon="1.36501">
        <ele>171.3</ele>
        <time>2021-11-21T13:45:10Z</time>
      </trkpt>
      <trkpt lat="44.19328" lon="1.36502">
        <ele>171.3</ele>
        <time>2021-11-21T13:45:11Z</time>
      </trkpt>
      <trkpt lat="44.19328" lon="1.36502">
        <ele>171.3</ele>
        <time>2021-11-21T13:45:12Z</time>
      </trkpt>
      <trkpt lat="44.19328" lon="1.36502">
        <ele>171.3</ele>
        <time>2021-11-21T13:45:13Z</time>
      </trkpt>
      <trkpt lat="44.19328" lon="1.36504">
        <ele>171.3</ele>
        <time>2021-11-21T13:45:15Z</time>
      </trkpt>
      <trkpt lat="44.19328" lon="1.36504">
        <ele>171.3</ele>
        <time>2021-11-21T13:45:16Z</time>
      </trkpt>
      <trkpt lat="44.19328" lon="1.36505">
        <ele>171.3</ele>
        <time>2021-11-21T13:45:17Z</time>
      </trkpt>
      <trkpt lat="44.19328" lon="1.36504">
        <ele>171.3</ele>
        <time>2021-11-21T13:45:19Z</time>
      </trkpt>
      <trkpt lat="44.19329" lon="1.36505">
        <ele>171.3</ele>
        <time>2021-11-21T13:45:20Z</time>
      </trkpt>
      <trkpt lat="44.1933" lon="1.36508">
        <ele>171.3</ele>
        <time>2021-11-21T13:45:22Z</time>
      </trkpt>
      <trkpt lat="44.19331" lon="1.3651">
        <ele>171.3</ele>
        <time>2021-11-21T13:45:23Z</time>
      </trkpt>
      <trkpt lat="44.19332" lon="1.36512">
        <ele>171.3</ele>
        <time>2021-11-21T13:45:25Z</time>
      </trkpt>
      <trkpt lat="44.19332" lon="1.36513">
        <ele>171.3</ele>
        <time>2021-11-21T13:45:26Z</time>
      </trkpt>
      <trkpt lat="44.19332" lon="1.36514">
        <ele>171.3</ele>
        <time>2021-11-21T13:45:27Z</time>
      </trkpt>
      <trkpt lat="44.19332" lon="1.36513">
        <ele>171.3</ele>
        <time>2021-11-21T13:45:29Z</time>
      </trkpt>
      <trkpt lat="44.19332" lon="1.36514">
        <ele>171.3</ele>
        <time>2021-11-21T13:45:30Z</time>
      </trkpt>
      <trkpt lat="44.19332" lon="1.36516">
        <ele>171.3</ele>
        <time>2021-11-21T13:45:31Z</time>
      </trkpt>
      <trkpt lat="44.19333" lon="1.36518">
        <ele>171.3</ele>
        <time>2021-11-21T13:45:33Z</time>
      </trkpt>
      <trkpt lat="44.19333" lon="1.3652">
        <ele>171.3</ele>
        <time>2021-11-21T13:45:34Z</time>
      </trkpt>
      <trkpt lat="44.19334" lon="1.36522">
        <ele>171.3</ele>
        <time>2021-11-21T13:45:36Z</time>
      </trkpt>
      <trkpt lat="44.19334" lon="1.36523">
        <ele>171.3</ele>
        <time>2021-11-21T13:45:37Z</time>
      </trkpt>
      <trkpt lat="44.19335" lon="1.36524">
        <ele>171.3</ele>
        <time>2021-11-21T13:45:38Z</time>
      </trkpt>
      <trkpt lat="44.19335" lon="1.36524">
        <ele>171.3</ele>
        <time>2021-11-21T13:45:39Z</time>
      </trkpt>
      <trkpt lat="44.19336" lon="1.36523">
        <ele>171.3</ele>
        <time>2021-11-21T13:45:41Z</time>
      </trkpt>
      <trkpt lat="44.19336" lon="1.36524">
        <ele>171.3</ele>
        <time>2021-11-21T13:45:42Z</time>
      </trkpt>
      <trkpt lat="44.19336" lon="1.36524">
        <ele>171.3</ele>
        <time>2021-11-21T13:45:44Z</time>
      </trkpt>
      <trkpt lat="44.19336" lon="1.36525">
        <ele>171.4</ele>
        <time>2021-11-21T13:45:45Z</time>
      </trkpt>
      <trkpt lat="44.19336" lon="1.36526">
        <ele>171.4</ele>
        <time>2021-11-21T13:45:47Z</time>
      </trkpt>
      <trkpt lat="44.19336" lon="1.36526">
        <ele>171.4</ele>
        <time>2021-11-21T13:45:48Z</time>
      </trkpt>
      <trkpt lat="44.19336" lon="1.36526">
        <ele>171.4</ele>
        <time>2021-11-21T13:45:49Z</time>
      </trkpt>
      <trkpt lat="44.19336" lon="1.36527">
        <ele>171.4</ele>
        <time>2021-11-21T13:45:50Z</time>
      </trkpt>
      <trkpt lat="44.19336" lon="1.36528">
        <ele>171.4</ele>
        <time>2021-11-21T13:45:52Z</time>
      </trkpt>
      <trkpt lat="44.19336" lon="1.36529">
        <ele>171.4</ele>
        <time>2021-11-21T13:45:53Z</time>
      </trkpt>
      <trkpt lat="44.19335" lon="1.36531">
        <ele>171.4</ele>
        <time>2021-11-21T13:45:54Z</time>
      </trkpt>
      <trkpt lat="44.19335" lon="1.36531">
        <ele>171.4</ele>
        <time>2021-11-21T13:45:56Z</time>
      </trkpt>
      <trkpt lat="44.19336" lon="1.36533">
        <ele>171.4</ele>
        <time>2021-11-21T13:45:57Z</time>
      </trkpt>
      <trkpt lat="44.19336" lon="1.36534">
        <ele>171.4</ele>
        <time>2021-11-21T13:45:58Z</time>
      </trkpt>
      <trkpt lat="44.19336" lon="1.36536">
        <ele>171.4</ele>
        <time>2021-11-21T13:46:00Z</time>
      </trkpt>
      <trkpt lat="44.19337" lon="1.36537">
        <ele>171.4</ele>
        <time>2021-11-21T13:46:01Z</time>
      </trkpt>
      <trkpt lat="44.19337" lon="1.36538">
        <ele>171.4</ele>
        <time>2021-11-21T13:46:02Z</time>
      </trkpt>
      <trkpt lat="44.19338" lon="1.3654">
        <ele>171.4</ele>
        <time>2021-11-21T13:46:03Z</time>
      </trkpt>
      <trkpt lat="44.19338" lon="1.36542">
        <ele>171.4</ele>
        <time>2021-11-21T13:46:05Z</time>
      </trkpt>
      <trkpt lat="44.19338" lon="1.36543">
        <ele>171.4</ele>
        <time>2021-11-21T13:46:06Z</time>
      </trkpt>
      <trkpt lat="44.19337" lon="1.36544">
        <ele>171.4</ele>
        <time>2021-11-21T13:46:08Z</time>
      </trkpt>
      <trkpt lat="44.19336" lon="1.36545">
        <ele>171.4</ele>
        <time>2021-11-21T13:46:09Z</time>
      </trkpt>
      <trkpt lat="44.19336" lon="1.36545">
        <ele>171.4</ele>
        <time>2021-11-21T13:46:10Z</time>
      </trkpt>
      <trkpt lat="44.19335" lon="1.36546">
        <ele>171.4</ele>
        <time>2021-11-21T13:46:11Z</time>
      </trkpt>
      <trkpt lat="44.19334" lon="1.36546">
        <ele>171.4</ele>
        <time>2021-11-21T13:46:12Z</time>
      </trkpt>
      <trkpt lat="44.19333" lon="1.36547">
        <ele>171.4</ele>
        <time>2021-11-21T13:46:14Z</time>
      </trkpt>
      <trkpt lat="44.19332" lon="1.36548">
        <ele>171.4</ele>
        <time>2021-11-21T13:46:16Z</time>
      </trkpt>
      <trkpt lat="44.19332" lon="1.36549">
        <ele>171.4</ele>
        <time>2021-11-21T13:46:18Z</time>
      </trkpt>
      <trkpt lat="44.19332" lon="1.36549">
        <ele>171.4</ele>
        <time>2021-11-21T13:46:20Z</time>
      </trkpt>
      <trkpt lat="44.19332" lon="1.36549">
        <ele>171.4</ele>
        <time>2021-11-21T13:46:21Z</time>
      </trkpt>
      <trkpt lat="44.19332" lon="1.36549">
        <ele>171.4</ele>
        <time>2021-11-21T13:46:23Z</time>
      </trkpt>
      <trkpt lat="44.19332" lon="1.36549">
        <ele>171.4</ele>
        <time>2021-11-21T13:46:25Z</time>
      </trkpt>
      <trkpt lat="44.19332" lon="1.36549">
        <ele>171.4</ele>
        <time>2021-11-21T13:46:26Z</time>
      </trkpt>
      <trkpt lat="44.19332" lon="1.36549">
        <ele>171.4</ele>
        <time>2021-11-21T13:46:27Z</time>
      </trkpt>
      <trkpt lat="44.19332" lon="1.3655">
        <ele>171.4</ele>
        <time>2021-11-21T13:46:29Z</time>
      </trkpt>
      <trkpt lat="44.19332" lon="1.3655">
        <ele>171.4</ele>
        <time>2021-11-21T13:46:31Z</time>
      </trkpt>
      <trkpt lat="44.19332" lon="1.3655">
        <ele>171.4</ele>
        <time>2021-11-21T13:46:33Z</time>
      </trkpt>
      <trkpt lat="44.19332" lon="1.3655">
        <ele>171.4</ele>
        <time>2021-11-21T13:46:34Z</time>
      </trkpt>
      <trkpt lat="44.19332" lon="1.3655">
        <ele>171.4</ele>
        <time>2021-11-21T13:46:35Z</time>
      </trkpt>
      <trkpt lat="44.19332" lon="1.3655">
        <ele>171.4</ele>
        <time>2021-11-21T13:46:37Z</time>
      </trkpt>
      <trkpt lat="44.19332" lon="1.36551">
        <ele>171.4</ele>
        <time>2021-11-21T13:46:38Z</time>
      </trkpt>
      <trkpt lat="44.19332" lon="1.36551">
        <ele>171.4</ele>
        <time>2021-11-21T13:46:39Z</time>
      </trkpt>
      <trkpt lat="44.19332" lon="1.36551">
        <ele>171.4</ele>
        <time>2021-11-21T13:46:40Z</time>
      </trkpt>
      <trkpt lat="44.19332" lon="1.36551">
        <ele>171.4</ele>
        <time>2021-11-21T13:46:42Z</time>
      </trkpt>
      <trkpt lat="44.19333" lon="1.36551">
        <ele>171.4</ele>
        <time>2021-11-21T13:46:43Z</time>
      </trkpt>
      <trkpt lat="44.19333" lon="1.36551">
        <ele>171.4</ele>
        <time>2021-11-21T13:46:44Z</time>
      </trkpt>
      <trkpt lat="44.19333" lon="1.36552">
        <ele>171.4</ele>
        <time>2021-11-21T13:46:46Z</time>
      </trkpt>
      <trkpt lat="44.19333" lon="1.36552">
        <ele>171.4</ele>
        <time>2021-11-21T13:46:47Z</time>
      </trkpt>
      <trkpt lat="44.19333" lon="1.36552">
        <ele>171.4</ele>
        <time>2021-11-21T13:46:49Z</time>
      </trkpt>
      <trkpt lat="44.19333" lon="1.36552">
        <ele>171.4</ele>
        <time>2021-11-21T13:46:50Z</time>
      </trkpt>
      <trkpt lat="44.19333" lon="1.36552">
        <ele>171.4</ele>
        <time>2021-11-21T13:46:51Z</time>
      </trkpt>
      <trkpt lat="44.19333" lon="1.36552">
        <ele>171.4</ele>
        <time>2021-11-21T13:46:53Z</time>
      </trkpt>
      <trkpt lat="44.19333" lon="1.36553">
        <ele>171.4</ele>
        <time>2021-11-21T13:46:54Z</time>
      </trkpt>
      <trkpt lat="44.19334" lon="1.36555">
        <ele>171.4</ele>
        <time>2021-11-21T13:46:56Z</time>
      </trkpt>
      <trkpt lat="44.19334" lon="1.36556">
        <ele>171.4</ele>
        <time>2021-11-21T13:46:57Z</time>
      </trkpt>
      <trkpt lat="44.19334" lon="1.36558">
        <ele>171.4</ele>
        <time>2021-11-21T13:46:59Z</time>
      </trkpt>
      <trkpt lat="44.19334" lon="1.36559">
        <ele>171.4</ele>
        <time>2021-11-21T13:47:00Z</time>
      </trkpt>
      <trkpt lat="44.19334" lon="1.36559">
        <ele>171.4</ele>
        <time>2021-11-21T13:47:01Z</time>
      </trkpt>
      <trkpt lat="44.19334" lon="1.3656">
        <ele>171.4</ele>
        <time>2021-11-21T13:47:02Z</time>
      </trkpt>
      <trkpt lat="44.19335" lon="1.36561">
        <ele>171.4</ele>
        <time>2021-11-21T13:47:03Z</time>
      </trkpt>
      <trkpt lat="44.19335" lon="1.36562">
        <ele>171.4</ele>
        <time>2021-11-21T13:47:04Z</time>
      </trkpt>
      <trkpt lat="44.19335" lon="1.36562">
        <ele>171.4</ele>
        <time>2021-11-21T13:47:06Z</time>
      </trkpt>
      <trkpt lat="44.19335" lon="1.36562">
        <ele>171.4</ele>
        <time>2021-11-21T13:47:07Z</time>
      </trkpt>
      <trkpt lat="44.19335" lon="1.36561">
        <ele>171.4</ele>
        <time>2021-11-21T13:47:09Z</time>
      </trkpt>
      <trkpt lat="44.19335" lon="1.3656">
        <ele>171.4</ele>
        <time>2021-11-21T13:47:11Z</time>
      </trkpt>
      <trkpt lat="44.19336" lon="1.36559">
        <ele>171.4</ele>
        <time>2021-11-21T13:47:12Z</time>
      </trkpt>
      <trkpt lat="44.19336" lon="1.36559">
        <ele>171.4</ele>
        <time>2021-11-21T13:47:13Z</time>
      </trkpt>
      <trkpt lat="44.19335" lon="1.36558">
        <ele>171.4</ele>
        <time>2021-11-21T13:47:15Z</time>
      </trkpt>
      <trkpt lat="44.19335" lon="1.36558">
        <ele>171.4</ele>
        <time>2021-11-21T13:47:16Z</time>
      </trkpt>
      <trkpt lat="44.19335" lon="1.36559">
        <ele>171.4</ele>
        <time>2021-11-21T13:47:18Z</time>
      </trkpt>
      <trkpt lat="44.19334" lon="1.36559">
        <ele>171.4</ele>
        <time>2021-11-21T13:47:19Z</time>
      </trkpt>
      <trkpt lat="44.19335" lon="1.36559">
        <ele>171.4</ele>
        <time>2021-11-21T13:47:21Z</time>
      </trkpt>
      <trkpt lat="44.19334" lon="1.3656">
        <ele>171.4</ele>
        <time>2021-11-21T13:47:22Z</time>
      </trkpt>
      <trkpt lat="44.19335" lon="1.36561">
        <ele>171.4</ele>
        <time>2021-11-21T13:47:24Z</time>
      </trkpt>
      <trkpt lat="44.19335" lon="1.36562">
        <ele>171.4</ele>
        <time>2021-11-21T13:47:25Z</time>
      </trkpt>
      <trkpt lat="44.19335" lon="1.36563">
        <ele>171.4</ele>
        <time>2021-11-21T13:47:27Z</time>
      </trkpt>
      <trkpt lat="44.19335" lon="1.36564">
        <ele>171.4</ele>
        <time>2021-11-21T13:47:29Z</time>
      </trkpt>
      <trkpt lat="44.19335" lon="1.36564">
        <ele>171.4</ele>
        <time>2021-11-21T13:47:30Z</time>
      </trkpt>
      <trkpt lat="44.19336" lon="1.36565">
        <ele>171.4</ele>
        <time>2021-11-21T13:47:31Z</time>
      </trkpt>
      <trkpt lat="44.19336" lon="1.36566">
        <ele>171.4</ele>
        <time>2021-11-21T13:47:33Z</time>
      </trkpt>
      <trkpt lat="44.19336" lon="1.36566">
        <ele>171.4</ele>
        <time>2021-11-21T13:47:34Z</time>
      </trkpt>
      <trkpt lat="44.19337" lon="1.36567">
        <ele>171.4</ele>
        <time>2021-11-21T13:47:35Z</time>
      </trkpt>
      <trkpt lat="44.19338" lon="1.36568">
        <ele>171.4</ele>
        <time>2021-11-21T13:47:37Z</time>
      </trkpt>
      <trkpt lat="44.19338" lon="1.36569">
        <ele>171.4</ele>
        <time>2021-11-21T13:47:38Z</time>
      </trkpt>
      <trkpt lat="44.19338" lon="1.36571">
        <ele>171.4</ele>
        <time>2021-11-21T13:47:39Z</time>
      </trkpt>
      <trkpt lat="44.19339" lon="1.36572">
        <ele>171.4</ele>
        <time>2021-11-21T13:47:41Z</time>
      </trkpt>
      <trkpt lat="44.19339" lon="1.36573">
        <ele>171.4</ele>
        <time>2021-11-21T13:47:42Z</time>
      </trkpt>
      <trkpt lat="44.19338" lon="1.36574">
        <ele>171.4</ele>
        <time>2021-11-21T13:47:44Z</time>
      </trkpt>
      <trkpt lat="44.19338" lon="1.36575">
        <ele>171.4</ele>
        <time>2021-11-21T13:47:45Z</time>
      </trkpt>
      <trkpt lat="44.19338" lon="1.36576">
        <ele>171.4</ele>
        <time>2021-11-21T13:47:46Z</time>
      </trkpt>
      <trkpt lat="44.19338" lon="1.36576">
        <ele>171.4</ele>
        <time>2021-11-21T13:47:48Z</time>
      </trkpt>
      <trkpt lat="44.19338" lon="1.36577">
        <ele>171.4</ele>
        <time>2021-11-21T13:47:49Z</time>
      </trkpt>
      <trkpt lat="44.19337" lon="1.36577">
        <ele>171.4</ele>
        <time>2021-11-21T13:47:50Z</time>
      </trkpt>
      <trkpt lat="44.19337" lon="1.36578">
        <ele>171.4</ele>
        <time>2021-11-21T13:47:52Z</time>
      </trkpt>
      <trkpt lat="44.19337" lon="1.36578">
        <ele>171.4</ele>
        <time>2021-11-21T13:47:53Z</time>
      </trkpt>
      <trkpt lat="44.19336" lon="1.36579">
        <ele>171.4</ele>
        <time>2021-11-21T13:47:55Z</time>
      </trkpt>
      <trkpt lat="44.19336" lon="1.3658">
        <ele>171.4</ele>
        <time>2021-11-21T13:47:56Z</time>
      </trkpt>
      <trkpt lat="44.19336" lon="1.36581">
        <ele>171.4</ele>
        <time>2021-11-21T13:47:58Z</time>
      </trkpt>
      <trkpt lat="44.19335" lon="1.36582">
        <ele>171.4</ele>
        <time>2021-11-21T13:48:00Z</time>
      </trkpt>
      <trkpt lat="44.19336" lon="1.36582">
        <ele>171.4</ele>
        <time>2021-11-21T13:48:02Z</time>
      </trkpt>
      <trkpt lat="44.19336" lon="1.36582">
        <ele>171.4</ele>
        <time>2021-11-21T13:48:04Z</time>
      </trkpt>
      <trkpt lat="44.19335" lon="1.36582">
        <ele>171.4</ele>
        <time>2021-11-21T13:48:05Z</time>
      </trkpt>
      <trkpt lat="44.19336" lon="1.36582">
        <ele>171.4</ele>
        <time>2021-11-21T13:48:07Z</time>
      </trkpt>
      <trkpt lat="44.19336" lon="1.36582">
        <ele>171.4</ele>
        <time>2021-11-21T13:48:08Z</time>
      </trkpt>
      <trkpt lat="44.19335" lon="1.36582">
        <ele>171.4</ele>
        <time>2021-11-21T13:48:09Z</time>
      </trkpt>
      <trkpt lat="44.19335" lon="1.36582">
        <ele>171.4</ele>
        <time>2021-11-21T13:48:10Z</time>
      </trkpt>
      <trkpt lat="44.19336" lon="1.36581">
        <ele>171.4</ele>
        <time>2021-11-21T13:48:12Z</time>
      </trkpt>
      <trkpt lat="44.19337" lon="1.36581">
        <ele>171.4</ele>
        <time>2021-11-21T13:48:13Z</time>
      </trkpt>
      <trkpt lat="44.19337" lon="1.36581">
        <ele>171.4</ele>
        <time>2021-11-21T13:48:14Z</time>
      </trkpt>
      <trkpt lat="44.19338" lon="1.3658">
        <ele>171.4</ele>
        <time>2021-11-21T13:48:15Z</time>
      </trkpt>
      <trkpt lat="44.19339" lon="1.36579">
        <ele>171.4</ele>
        <time>2021-11-21T13:48:16Z</time>
      </trkpt>
      <trkpt lat="44.1934" lon="1.36578">
        <ele>171.4</ele>
        <time>2021-11-21T13:48:18Z</time>
      </trkpt>
      <trkpt lat="44.19341" lon="1.36578">
        <ele>171.4</ele>
        <time>2021-11-21T13:48:19Z</time>
      </trkpt>
      <trkpt lat="44.19342" lon="1.36577">
        <ele>171.4</ele>
        <time>2021-11-21T13:48:20Z</time>
      </trkpt>
      <trkpt lat="44.19343" lon="1.36576">
        <ele>171.4</ele>
        <time>2021-11-21T13:48:22Z</time>
      </trkpt>
      <trkpt lat="44.19344" lon="1.36576">
        <ele>171.4</ele>
        <time>2021-11-21T13:48:23Z</time>
      </trkpt>
      <trkpt lat="44.19345" lon="1.36576">
        <ele>171.4</ele>
        <time>2021-11-21T13:48:25Z</time>
      </trkpt>
      <trkpt lat="44.19346" lon="1.36576">
        <ele>171.4</ele>
        <time>2021-11-21T13:48:27Z</time>
      </trkpt>
      <trkpt lat="44.19347" lon="1.36575">
        <ele>171.4</ele>
        <time>2021-11-21T13:48:28Z</time>
      </trkpt>
      <trkpt lat="44.19348" lon="1.36575">
        <ele>171.4</ele>
        <time>2021-11-21T13:48:29Z</time>
      </trkpt>
      <trkpt lat="44.19349" lon="1.36576">
        <ele>171.4</ele>
        <time>2021-11-21T13:48:31Z</time>
      </trkpt>
      <trkpt lat="44.1935" lon="1.36576">
        <ele>171.4</ele>
        <time>2021-11-21T13:48:32Z</time>
      </trkpt>
      <trkpt lat="44.1935" lon="1.36576">
        <ele>171.4</ele>
        <time>2021-11-21T13:48:33Z</time>
      </trkpt>
      <trkpt lat="44.19351" lon="1.36578">
        <ele>171.4</ele>
        <time>2021-11-21T13:48:35Z</time>
      </trkpt>
      <trkpt lat="44.19351" lon="1.36579">
        <ele>171.4</ele>
        <time>2021-11-21T13:48:36Z</time>
      </trkpt>
      <trkpt lat="44.19352" lon="1.36579">
        <ele>171.4</ele>
        <time>2021-11-21T13:48:38Z</time>
      </trkpt>
      <trkpt lat="44.19352" lon="1.3658">
        <ele>171.4</ele>
        <time>2021-11-21T13:48:40Z</time>
      </trkpt>
      <trkpt lat="44.19351" lon="1.36581">
        <ele>171.4</ele>
        <time>2021-11-21T13:48:41Z</time>
      </trkpt>
      <trkpt lat="44.19351" lon="1.36581">
        <ele>171.4</ele>
        <time>2021-11-21T13:48:43Z</time>
      </trkpt>
      <trkpt lat="44.19351" lon="1.36582">
        <ele>171.4</ele>
        <time>2021-11-21T13:48:44Z</time>
      </trkpt>
      <trkpt lat="44.19351" lon="1.36584">
        <ele>171.4</ele>
        <time>2021-11-21T13:48:46Z</time>
      </trkpt>
      <trkpt lat="44.1935" lon="1.36587">
        <ele>171.3</ele>
        <time>2021-11-21T13:48:48Z</time>
      </trkpt>
      <trkpt lat="44.19351" lon="1.36587">
        <ele>171.3</ele>
        <time>2021-11-21T13:48:49Z</time>
      </trkpt>
      <trkpt lat="44.19352" lon="1.36588">
        <ele>171.3</ele>
        <time>2021-11-21T13:48:51Z</time>
      </trkpt>
      <trkpt lat="44.19353" lon="1.36588">
        <ele>171.3</ele>
        <time>2021-11-21T13:48:52Z</time>
      </trkpt>
      <trkpt lat="44.19354" lon="1.36589">
        <ele>171.3</ele>
        <time>2021-11-21T13:48:54Z</time>
      </trkpt>
      <trkpt lat="44.19354" lon="1.3659">
        <ele>171.3</ele>
        <time>2021-11-21T13:48:55Z</time>
      </trkpt>
      <trkpt lat="44.19354" lon="1.3659">
        <ele>171.3</ele>
        <time>2021-11-21T13:48:56Z</time>
      </trkpt>
      <trkpt lat="44.19355" lon="1.36591">
        <ele>171.3</ele>
        <time>2021-11-21T13:48:58Z</time>
      </trkpt>
      <trkpt lat="44.19355" lon="1.36593">
        <ele>171.3</ele>
        <time>2021-11-21T13:49:00Z</time>
      </trkpt>
      <trkpt lat="44.19355" lon="1.36594">
        <ele>171.3</ele>
        <time>2021-11-21T13:49:01Z</time>
      </trkpt>
      <trkpt lat="44.19356" lon="1.36595">
        <ele>171.3</ele>
        <time>2021-11-21T13:49:03Z</time>
      </trkpt>
      <trkpt lat="44.19356" lon="1.36596">
        <ele>171.3</ele>
        <time>2021-11-21T13:49:04Z</time>
      </trkpt>
      <trkpt lat="44.19356" lon="1.36596">
        <ele>171.2</ele>
        <time>2021-11-21T13:49:05Z</time>
      </trkpt>
      <trkpt lat="44.19357" lon="1.36596">
        <ele>171.2</ele>
        <time>2021-11-21T13:49:07Z</time>
      </trkpt>
      <trkpt lat="44.19357" lon="1.36597">
        <ele>171.2</ele>
        <time>2021-11-21T13:49:08Z</time>
      </trkpt>
      <trkpt lat="44.19358" lon="1.36598">
        <ele>171.2</ele>
        <time>2021-11-21T13:49:09Z</time>
      </trkpt>
      <trkpt lat="44.19358" lon="1.36599">
        <ele>171.2</ele>
        <time>2021-11-21T13:49:10Z</time>
      </trkpt>
      <trkpt lat="44.19358" lon="1.36601">
        <ele>171.2</ele>
        <time>2021-11-21T13:49:12Z</time>
      </trkpt>
      <trkpt lat="44.19358" lon="1.36601">
        <ele>171.2</ele>
        <time>2021-11-21T13:49:13Z</time>
      </trkpt>
      <trkpt lat="44.19358" lon="1.36602">
        <ele>171.2</ele>
        <time>2021-11-21T13:49:14Z</time>
      </trkpt>
      <trkpt lat="44.19358" lon="1.36603">
        <ele>171.2</ele>
        <time>2021-11-21T13:49:16Z</time>
      </trkpt>
      <trkpt lat="44.19358" lon="1.36604">
        <ele>171.2</ele>
        <time>2021-11-21T13:49:17Z</time>
      </trkpt>
      <trkpt lat="44.19358" lon="1.36605">
        <ele>171.2</ele>
        <time>2021-11-21T13:49:19Z</time>
      </trkpt>
      <trkpt lat="44.19358" lon="1.36605">
        <ele>171.2</ele>
        <time>2021-11-21T13:49:20Z</time>
      </trkpt>
      <trkpt lat="44.19358" lon="1.36605">
        <ele>171.2</ele>
        <time>2021-11-21T13:49:22Z</time>
      </trkpt>
      <trkpt lat="44.19358" lon="1.36605">
        <ele>171.2</ele>
        <time>2021-11-21T13:49:24Z</time>
      </trkpt>
      <trkpt lat="44.19358" lon="1.36606">
        <ele>171.2</ele>
        <time>2021-11-21T13:49:26Z</time>
      </trkpt>
      <trkpt lat="44.19358" lon="1.36606">
        <ele>171.2</ele>
        <time>2021-11-21T13:49:27Z</time>
      </trkpt>
      <trkpt lat="44.19358" lon="1.36606">
        <ele>171.2</ele>
        <time>2021-11-21T13:49:29Z</time>
      </trkpt>
      <trkpt lat="44.19358" lon="1.36606">
        <ele>171.2</ele>
        <time>2021-11-21T13:49:30Z</time>
      </trkpt>
      <trkpt lat="44.19359" lon="1.36606">
        <ele>171.2</ele>
        <time>2021-11-21T13:49:32Z</time>
      </trkpt>
      <trkpt lat="44.19359" lon="1.36606">
        <ele>171.1</ele>
        <time>2021-11-21T13:49:33Z</time>
      </trkpt>
      <trkpt lat="44.19359" lon="1.36606">
        <ele>171.1</ele>
        <time>2021-11-21T13:49:35Z</time>
      </trkpt>
      <trkpt lat="44.19359" lon="1.36607">
        <ele>171.1</ele>
        <time>2021-11-21T13:49:36Z</time>
      </trkpt>
      <trkpt lat="44.19359" lon="1.36608">
        <ele>171.1</ele>
        <time>2021-11-21T13:49:37Z</time>
      </trkpt>
      <trkpt lat="44.1936" lon="1.36609">
        <ele>171.1</ele>
        <time>2021-11-21T13:49:39Z</time>
      </trkpt>
      <trkpt lat="44.1936" lon="1.3661">
        <ele>171.1</ele>
        <time>2021-11-21T13:49:40Z</time>
      </trkpt>
      <trkpt lat="44.19361" lon="1.36611">
        <ele>171.1</ele>
        <time>2021-11-21T13:49:42Z</time>
      </trkpt>
      <trkpt lat="44.19361" lon="1.36612">
        <ele>171.1</ele>
        <time>2021-11-21T13:49:43Z</time>
      </trkpt>
      <trkpt lat="44.19362" lon="1.36613">
        <ele>171.1</ele>
        <time>2021-11-21T13:49:44Z</time>
      </trkpt>
      <trkpt lat="44.19362" lon="1.36615">
        <ele>171</ele>
        <time>2021-11-21T13:49:46Z</time>
      </trkpt>
      <trkpt lat="44.19362" lon="1.36617">
        <ele>171</ele>
        <time>2021-11-21T13:49:47Z</time>
      </trkpt>
      <trkpt lat="44.19362" lon="1.36618">
        <ele>171</ele>
        <time>2021-11-21T13:49:48Z</time>
      </trkpt>
      <trkpt lat="44.19362" lon="1.36619">
        <ele>171</ele>
        <time>2021-11-21T13:49:49Z</time>
      </trkpt>
      <trkpt lat="44.19362" lon="1.3662">
        <ele>171</ele>
        <time>2021-11-21T13:49:51Z</time>
      </trkpt>
      <trkpt lat="44.19362" lon="1.36622">
        <ele>170.9</ele>
        <time>2021-11-21T13:49:52Z</time>
      </trkpt>
      <trkpt lat="44.19363" lon="1.36623">
        <ele>170.9</ele>
        <time>2021-11-21T13:49:53Z</time>
      </trkpt>
      <trkpt lat="44.19363" lon="1.36624">
        <ele>170.9</ele>
        <time>2021-11-21T13:49:54Z</time>
      </trkpt>
      <trkpt lat="44.19363" lon="1.36625">
        <ele>170.9</ele>
        <time>2021-11-21T13:49:55Z</time>
      </trkpt>
      <trkpt lat="44.19363" lon="1.36626">
        <ele>170.8</ele>
        <time>2021-11-21T13:49:56Z</time>
      </trkpt>
      <trkpt lat="44.19363" lon="1.36627">
        <ele>170.8</ele>
        <time>2021-11-21T13:49:58Z</time>
      </trkpt>
      <trkpt lat="44.19364" lon="1.36628">
        <ele>170.8</ele>
        <time>2021-11-21T13:49:59Z</time>
      </trkpt>
      <trkpt lat="44.19364" lon="1.3663">
        <ele>170.8</ele>
        <time>2021-11-21T13:50:00Z</time>
      </trkpt>
      <trkpt lat="44.19364" lon="1.36631">
        <ele>170.8</ele>
        <time>2021-11-21T13:50:01Z</time>
      </trkpt>
      <trkpt lat="44.19365" lon="1.36633">
        <ele>170.7</ele>
        <time>2021-11-21T13:50:02Z</time>
      </trkpt>
      <trkpt lat="44.19365" lon="1.36634">
        <ele>170.7</ele>
        <time>2021-11-21T13:50:04Z</time>
      </trkpt>
      <trkpt lat="44.19365" lon="1.36636">
        <ele>170.7</ele>
        <time>2021-11-21T13:50:05Z</time>
      </trkpt>
      <trkpt lat="44.19366" lon="1.36637">
        <ele>170.6</ele>
        <time>2021-11-21T13:50:06Z</time>
      </trkpt>
      <trkpt lat="44.19366" lon="1.36638">
        <ele>170.6</ele>
        <time>2021-11-21T13:50:07Z</time>
      </trkpt>
      <trkpt lat="44.19367" lon="1.3664">
        <ele>170.5</ele>
        <time>2021-11-21T13:50:08Z</time>
      </trkpt>
      <trkpt lat="44.19368" lon="1.36641">
        <ele>170.5</ele>
        <time>2021-11-21T13:50:09Z</time>
      </trkpt>
      <trkpt lat="44.19368" lon="1.36642">
        <ele>170.5</ele>
        <time>2021-11-21T13:50:11Z</time>
      </trkpt>
      <trkpt lat="44.19368" lon="1.36644">
        <ele>170.5</ele>
        <time>2021-11-21T13:50:12Z</time>
      </trkpt>
      <trkpt lat="44.19368" lon="1.36645">
        <ele>170.4</ele>
        <time>2021-11-21T13:50:13Z</time>
      </trkpt>
      <trkpt lat="44.19368" lon="1.36646">
        <ele>170.4</ele>
        <time>2021-11-21T13:50:14Z</time>
      </trkpt>
      <trkpt lat="44.19369" lon="1.36649">
        <ele>170.3</ele>
        <time>2021-11-21T13:50:16Z</time>
      </trkpt>
      <trkpt lat="44.19369" lon="1.3665">
        <ele>170.3</ele>
        <time>2021-11-21T13:50:17Z</time>
      </trkpt>
      <trkpt lat="44.19369" lon="1.36654">
        <ele>170.2</ele>
        <time>2021-11-21T13:50:18Z</time>
      </trkpt>
      <trkpt lat="44.19369" lon="1.36655">
        <ele>170.2</ele>
        <time>2021-11-21T13:50:20Z</time>
      </trkpt>
      <trkpt lat="44.19369" lon="1.36657">
        <ele>170.1</ele>
        <time>2021-11-21T13:50:21Z</time>
      </trkpt>
      <trkpt lat="44.19369" lon="1.36658">
        <ele>170.1</ele>
        <time>2021-11-21T13:50:22Z</time>
      </trkpt>
      <trkpt lat="44.1937" lon="1.3666">
        <ele>170</ele>
        <time>2021-11-21T13:50:23Z</time>
      </trkpt>
      <trkpt lat="44.1937" lon="1.36663">
        <ele>169.9</ele>
        <time>2021-11-21T13:50:24Z</time>
      </trkpt>
      <trkpt lat="44.19371" lon="1.36665">
        <ele>169.9</ele>
        <time>2021-11-21T13:50:26Z</time>
      </trkpt>
      <trkpt lat="44.19371" lon="1.36666">
        <ele>169.8</ele>
        <time>2021-11-21T13:50:27Z</time>
      </trkpt>
      <trkpt lat="44.19372" lon="1.36667">
        <ele>169.8</ele>
        <time>2021-11-21T13:50:28Z</time>
      </trkpt>
      <trkpt lat="44.19372" lon="1.36668">
        <ele>169.8</ele>
        <time>2021-11-21T13:50:29Z</time>
      </trkpt>
      <trkpt lat="44.19372" lon="1.3667">
        <ele>169.7</ele>
        <time>2021-11-21T13:50:30Z</time>
      </trkpt>
      <trkpt lat="44.19373" lon="1.36672">
        <ele>169.7</ele>
        <time>2021-11-21T13:50:32Z</time>
      </trkpt>
      <trkpt lat="44.19372" lon="1.36673">
        <ele>169.6</ele>
        <time>2021-11-21T13:50:33Z</time>
      </trkpt>
      <trkpt lat="44.19372" lon="1.36674">
        <ele>169.6</ele>
        <time>2021-11-21T13:50:34Z</time>
      </trkpt>
      <trkpt lat="44.19372" lon="1.36676">
        <ele>169.5</ele>
        <time>2021-11-21T13:50:35Z</time>
      </trkpt>
      <trkpt lat="44.19372" lon="1.36678">
        <ele>169.5</ele>
        <time>2021-11-21T13:50:37Z</time>
      </trkpt>
      <trkpt lat="44.19372" lon="1.36679">
        <ele>169.4</ele>
        <time>2021-11-21T13:50:38Z</time>
      </trkpt>
      <trkpt lat="44.19373" lon="1.36681">
        <ele>169.3</ele>
        <time>2021-11-21T13:50:39Z</time>
      </trkpt>
      <trkpt lat="44.19373" lon="1.36682">
        <ele>169.3</ele>
        <time>2021-11-21T13:50:40Z</time>
      </trkpt>
      <trkpt lat="44.19373" lon="1.36684">
        <ele>169.2</ele>
        <time>2021-11-21T13:50:41Z</time>
      </trkpt>
      <trkpt lat="44.19373" lon="1.36686">
        <ele>169.2</ele>
        <time>2021-11-21T13:50:43Z</time>
      </trkpt>
      <trkpt lat="44.19373" lon="1.36687">
        <ele>169.1</ele>
        <time>2021-11-21T13:50:44Z</time>
      </trkpt>
      <trkpt lat="44.19374" lon="1.36689">
        <ele>169.1</ele>
        <time>2021-11-21T13:50:45Z</time>
      </trkpt>
      <trkpt lat="44.19374" lon="1.3669">
        <ele>169</ele>
        <time>2021-11-21T13:50:46Z</time>
      </trkpt>
      <trkpt lat="44.19374" lon="1.36692">
        <ele>168.9</ele>
        <time>2021-11-21T13:50:48Z</time>
      </trkpt>
      <trkpt lat="44.19375" lon="1.36693">
        <ele>168.9</ele>
        <time>2021-11-21T13:50:49Z</time>
      </trkpt>
      <trkpt lat="44.19375" lon="1.36695">
        <ele>168.8</ele>
        <time>2021-11-21T13:50:50Z</time>
      </trkpt>
      <trkpt lat="44.19375" lon="1.36697">
        <ele>168.8</ele>
        <time>2021-11-21T13:50:51Z</time>
      </trkpt>
      <trkpt lat="44.19375" lon="1.36698">
        <ele>168.7</ele>
        <time>2021-11-21T13:50:52Z</time>
      </trkpt>
      <trkpt lat="44.19375" lon="1.367">
        <ele>168.6</ele>
        <time>2021-11-21T13:50:54Z</time>
      </trkpt>
      <trkpt lat="44.19376" lon="1.36702">
        <ele>168.6</ele>
        <time>2021-11-21T13:50:55Z</time>
      </trkpt>
      <trkpt lat="44.19376" lon="1.36704">
        <ele>168.4</ele>
        <time>2021-11-21T13:50:56Z</time>
      </trkpt>
      <trkpt lat="44.19377" lon="1.36706">
        <ele>168.4</ele>
        <time>2021-11-21T13:50:57Z</time>
      </trkpt>
      <trkpt lat="44.19377" lon="1.36707">
        <ele>168.3</ele>
        <time>2021-11-21T13:50:58Z</time>
      </trkpt>
      <trkpt lat="44.19378" lon="1.3671">
        <ele>168.2</ele>
        <time>2021-11-21T13:50:59Z</time>
      </trkpt>
      <trkpt lat="44.19378" lon="1.36711">
        <ele>168.2</ele>
        <time>2021-11-21T13:51:01Z</time>
      </trkpt>
      <trkpt lat="44.19378" lon="1.36712">
        <ele>168.1</ele>
        <time>2021-11-21T13:51:02Z</time>
      </trkpt>
      <trkpt lat="44.19378" lon="1.36715">
        <ele>168</ele>
        <time>2021-11-21T13:51:03Z</time>
      </trkpt>
      <trkpt lat="44.19379" lon="1.36716">
        <ele>167.9</ele>
        <time>2021-11-21T13:51:04Z</time>
      </trkpt>
      <trkpt lat="44.19379" lon="1.36717">
        <ele>167.9</ele>
        <time>2021-11-21T13:51:05Z</time>
      </trkpt>
      <trkpt lat="44.19379" lon="1.36719">
        <ele>167.8</ele>
        <time>2021-11-21T13:51:06Z</time>
      </trkpt>
      <trkpt lat="44.1938" lon="1.3672">
        <ele>167.7</ele>
        <time>2021-11-21T13:51:08Z</time>
      </trkpt>
      <trkpt lat="44.19381" lon="1.36721">
        <ele>167.7</ele>
        <time>2021-11-21T13:51:09Z</time>
      </trkpt>
      <trkpt lat="44.19382" lon="1.36721">
        <ele>167.6</ele>
        <time>2021-11-21T13:51:10Z</time>
      </trkpt>
      <trkpt lat="44.19383" lon="1.36722">
        <ele>167.5</ele>
        <time>2021-11-21T13:51:12Z</time>
      </trkpt>
      <trkpt lat="44.19385" lon="1.36722">
        <ele>167.4</ele>
        <time>2021-11-21T13:51:13Z</time>
      </trkpt>
      <trkpt lat="44.19386" lon="1.36723">
        <ele>167.3</ele>
        <time>2021-11-21T13:51:14Z</time>
      </trkpt>
      <trkpt lat="44.19387" lon="1.36723">
        <ele>167.3</ele>
        <time>2021-11-21T13:51:15Z</time>
      </trkpt>
      <trkpt lat="44.19388" lon="1.36724">
        <ele>167.2</ele>
        <time>2021-11-21T13:51:16Z</time>
      </trkpt>
      <trkpt lat="44.19389" lon="1.36725">
        <ele>167.1</ele>
        <time>2021-11-21T13:51:18Z</time>
      </trkpt>
      <trkpt lat="44.1939" lon="1.36725">
        <ele>167.1</ele>
        <time>2021-11-21T13:51:19Z</time>
      </trkpt>
      <trkpt lat="44.19391" lon="1.36728">
        <ele>166.9</ele>
        <time>2021-11-21T13:51:20Z</time>
      </trkpt>
      <trkpt lat="44.19391" lon="1.36729">
        <ele>166.8</ele>
        <time>2021-11-21T13:51:21Z</time>
      </trkpt>
      <trkpt lat="44.19391" lon="1.36731">
        <ele>166.8</ele>
        <time>2021-11-21T13:51:23Z</time>
      </trkpt>
      <trkpt lat="44.19391" lon="1.36732">
        <ele>166.7</ele>
        <time>2021-11-21T13:51:24Z</time>
      </trkpt>
      <trkpt lat="44.19391" lon="1.36734">
        <ele>166.6</ele>
        <time>2021-11-21T13:51:25Z</time>
      </trkpt>
      <trkpt lat="44.19392" lon="1.36735">
        <ele>166.5</ele>
        <time>2021-11-21T13:51:26Z</time>
      </trkpt>
      <trkpt lat="44.19392" lon="1.36737">
        <ele>166.4</ele>
        <time>2021-11-21T13:51:27Z</time>
      </trkpt>
      <trkpt lat="44.19393" lon="1.36738">
        <ele>166.3</ele>
        <time>2021-11-21T13:51:28Z</time>
      </trkpt>
      <trkpt lat="44.19394" lon="1.3674">
        <ele>166.2</ele>
        <time>2021-11-21T13:51:30Z</time>
      </trkpt>
      <trkpt lat="44.19395" lon="1.36742">
        <ele>166.1</ele>
        <time>2021-11-21T13:51:31Z</time>
      </trkpt>
      <trkpt lat="44.19395" lon="1.36743">
        <ele>166</ele>
        <time>2021-11-21T13:51:32Z</time>
      </trkpt>
      <trkpt lat="44.19397" lon="1.36746">
        <ele>165.8</ele>
        <time>2021-11-21T13:51:33Z</time>
      </trkpt>
      <trkpt lat="44.19397" lon="1.36747">
        <ele>165.8</ele>
        <time>2021-11-21T13:51:34Z</time>
      </trkpt>
      <trkpt lat="44.19398" lon="1.36747">
        <ele>165.7</ele>
        <time>2021-11-21T13:51:35Z</time>
      </trkpt>
      <trkpt lat="44.19398" lon="1.36749">
        <ele>165.6</ele>
        <time>2021-11-21T13:51:36Z</time>
      </trkpt>
      <trkpt lat="44.19399" lon="1.3675">
        <ele>165.5</ele>
        <time>2021-11-21T13:51:37Z</time>
      </trkpt>
      <trkpt lat="44.194" lon="1.36751">
        <ele>165.4</ele>
        <time>2021-11-21T13:51:39Z</time>
      </trkpt>
      <trkpt lat="44.194" lon="1.36753">
        <ele>165.3</ele>
        <time>2021-11-21T13:51:40Z</time>
      </trkpt>
      <trkpt lat="44.19401" lon="1.36754">
        <ele>165.3</ele>
        <time>2021-11-21T13:51:41Z</time>
      </trkpt>
      <trkpt lat="44.19401" lon="1.36756">
        <ele>165.2</ele>
        <time>2021-11-21T13:51:42Z</time>
      </trkpt>
      <trkpt lat="44.19402" lon="1.36757">
        <ele>165.1</ele>
        <time>2021-11-21T13:51:43Z</time>
      </trkpt>
      <trkpt lat="44.19402" lon="1.36759">
        <ele>165</ele>
        <time>2021-11-21T13:51:44Z</time>
      </trkpt>
      <trkpt lat="44.19403" lon="1.3676">
        <ele>164.9</ele>
        <time>2021-11-21T13:51:45Z</time>
      </trkpt>
      <trkpt lat="44.19404" lon="1.36763">
        <ele>164.8</ele>
        <time>2021-11-21T13:51:46Z</time>
      </trkpt>
      <trkpt lat="44.19404" lon="1.36763">
        <ele>164.7</ele>
        <time>2021-11-21T13:51:48Z</time>
      </trkpt>
      <trkpt lat="44.19405" lon="1.36764">
        <ele>164.6</ele>
        <time>2021-11-21T13:51:49Z</time>
      </trkpt>
      <trkpt lat="44.19405" lon="1.36765">
        <ele>164.6</ele>
        <time>2021-11-21T13:51:50Z</time>
      </trkpt>
      <trkpt lat="44.19406" lon="1.36767">
        <ele>164.5</ele>
        <time>2021-11-21T13:51:51Z</time>
      </trkpt>
      <trkpt lat="44.19407" lon="1.36768">
        <ele>164.4</ele>
        <time>2021-11-21T13:51:52Z</time>
      </trkpt>
      <trkpt lat="44.19407" lon="1.3677">
        <ele>164.3</ele>
        <time>2021-11-21T13:51:53Z</time>
      </trkpt>
      <trkpt lat="44.19408" lon="1.36772">
        <ele>164.2</ele>
        <time>2021-11-21T13:51:55Z</time>
      </trkpt>
      <trkpt lat="44.19408" lon="1.36774">
        <ele>164.1</ele>
        <time>2021-11-21T13:51:56Z</time>
      </trkpt>
      <trkpt lat="44.19409" lon="1.36776">
        <ele>164</ele>
        <time>2021-11-21T13:51:57Z</time>
      </trkpt>
      <trkpt lat="44.19409" lon="1.36779">
        <ele>163.8</ele>
        <time>2021-11-21T13:51:59Z</time>
      </trkpt>
      <trkpt lat="44.1941" lon="1.36782">
        <ele>163.6</ele>
        <time>2021-11-21T13:52:01Z</time>
      </trkpt>
      <trkpt lat="44.19409" lon="1.36784">
        <ele>163.6</ele>
        <time>2021-11-21T13:52:03Z</time>
      </trkpt>
      <trkpt lat="44.19409" lon="1.36785">
        <ele>163.5</ele>
        <time>2021-11-21T13:52:04Z</time>
      </trkpt>
      <trkpt lat="44.19409" lon="1.36785">
        <ele>163.5</ele>
        <time>2021-11-21T13:52:05Z</time>
      </trkpt>
      <trkpt lat="44.19409" lon="1.36785">
        <ele>163.5</ele>
        <time>2021-11-21T13:52:07Z</time>
      </trkpt>
      <trkpt lat="44.19409" lon="1.36786">
        <ele>163.4</ele>
        <time>2021-11-21T13:52:08Z</time>
      </trkpt>
      <trkpt lat="44.19409" lon="1.36788">
        <ele>163.3</ele>
        <time>2021-11-21T13:52:09Z</time>
      </trkpt>
      <trkpt lat="44.19409" lon="1.3679">
        <ele>163.2</ele>
        <time>2021-11-21T13:52:10Z</time>
      </trkpt>
      <trkpt lat="44.1941" lon="1.36791">
        <ele>163.2</ele>
        <time>2021-11-21T13:52:11Z</time>
      </trkpt>
      <trkpt lat="44.1941" lon="1.36792">
        <ele>163.1</ele>
        <time>2021-11-21T13:52:13Z</time>
      </trkpt>
      <trkpt lat="44.1941" lon="1.36793">
        <ele>163.1</ele>
        <time>2021-11-21T13:52:14Z</time>
      </trkpt>
      <trkpt lat="44.19411" lon="1.36794">
        <ele>163</ele>
        <time>2021-11-21T13:52:15Z</time>
      </trkpt>
      <trkpt lat="44.19411" lon="1.36795">
        <ele>163</ele>
        <time>2021-11-21T13:52:16Z</time>
      </trkpt>
      <trkpt lat="44.19411" lon="1.36797">
        <ele>162.9</ele>
        <time>2021-11-21T13:52:17Z</time>
      </trkpt>
      <trkpt lat="44.19411" lon="1.36798">
        <ele>162.8</ele>
        <time>2021-11-21T13:52:19Z</time>
      </trkpt>
      <trkpt lat="44.19411" lon="1.36799">
        <ele>162.8</ele>
        <time>2021-11-21T13:52:20Z</time>
      </trkpt>
      <trkpt lat="44.19411" lon="1.36801">
        <ele>162.7</ele>
        <time>2021-11-21T13:52:21Z</time>
      </trkpt>
      <trkpt lat="44.19412" lon="1.36802">
        <ele>162.6</ele>
        <time>2021-11-21T13:52:23Z</time>
      </trkpt>
      <trkpt lat="44.19412" lon="1.36803">
        <ele>162.6</ele>
        <time>2021-11-21T13:52:24Z</time>
      </trkpt>
      <trkpt lat="44.19413" lon="1.36804">
        <ele>162.5</ele>
        <time>2021-11-21T13:52:25Z</time>
      </trkpt>
      <trkpt lat="44.19413" lon="1.36806">
        <ele>162.5</ele>
        <time>2021-11-21T13:52:26Z</time>
      </trkpt>
      <trkpt lat="44.19413" lon="1.36807">
        <ele>162.4</ele>
        <time>2021-11-21T13:52:28Z</time>
      </trkpt>
      <trkpt lat="44.19413" lon="1.36808">
        <ele>162.4</ele>
        <time>2021-11-21T13:52:29Z</time>
      </trkpt>
      <trkpt lat="44.19414" lon="1.3681">
        <ele>162.3</ele>
        <time>2021-11-21T13:52:30Z</time>
      </trkpt>
      <trkpt lat="44.19414" lon="1.36811">
        <ele>162.2</ele>
        <time>2021-11-21T13:52:32Z</time>
      </trkpt>
      <trkpt lat="44.19415" lon="1.36812">
        <ele>162.2</ele>
        <time>2021-11-21T13:52:33Z</time>
      </trkpt>
      <trkpt lat="44.19415" lon="1.36813">
        <ele>162.1</ele>
        <time>2021-11-21T13:52:34Z</time>
      </trkpt>
      <trkpt lat="44.19415" lon="1.36814">
        <ele>162.1</ele>
        <time>2021-11-21T13:52:35Z</time>
      </trkpt>
      <trkpt lat="44.19416" lon="1.36816">
        <ele>162</ele>
        <time>2021-11-21T13:52:37Z</time>
      </trkpt>
      <trkpt lat="44.19417" lon="1.36817">
        <ele>162</ele>
        <time>2021-11-21T13:52:38Z</time>
      </trkpt>
      <trkpt lat="44.19417" lon="1.36818">
        <ele>161.9</ele>
        <time>2021-11-21T13:52:39Z</time>
      </trkpt>
      <trkpt lat="44.19417" lon="1.36819">
        <ele>161.9</ele>
        <time>2021-11-21T13:52:40Z</time>
      </trkpt>
      <trkpt lat="44.19418" lon="1.36821">
        <ele>161.8</ele>
        <time>2021-11-21T13:52:42Z</time>
      </trkpt>
      <trkpt lat="44.19419" lon="1.36822">
        <ele>161.7</ele>
        <time>2021-11-21T13:52:44Z</time>
      </trkpt>
      <trkpt lat="44.19419" lon="1.36822">
        <ele>161.7</ele>
        <time>2021-11-21T13:52:45Z</time>
      </trkpt>
      <trkpt lat="44.19419" lon="1.36823">
        <ele>161.7</ele>
        <time>2021-11-21T13:52:46Z</time>
      </trkpt>
      <trkpt lat="44.19419" lon="1.36824">
        <ele>161.6</ele>
        <time>2021-11-21T13:52:48Z</time>
      </trkpt>
      <trkpt lat="44.19419" lon="1.36825">
        <ele>161.6</ele>
        <time>2021-11-21T13:52:49Z</time>
      </trkpt>
      <trkpt lat="44.19419" lon="1.36826">
        <ele>161.5</ele>
        <time>2021-11-21T13:52:50Z</time>
      </trkpt>
      <trkpt lat="44.1942" lon="1.36827">
        <ele>161.5</ele>
        <time>2021-11-21T13:52:51Z</time>
      </trkpt>
      <trkpt lat="44.19421" lon="1.3683">
        <ele>161.3</ele>
        <time>2021-11-21T13:52:52Z</time>
      </trkpt>
      <trkpt lat="44.19422" lon="1.36831">
        <ele>161.3</ele>
        <time>2021-11-21T13:52:54Z</time>
      </trkpt>
      <trkpt lat="44.19422" lon="1.36832">
        <ele>161.3</ele>
        <time>2021-11-21T13:52:55Z</time>
      </trkpt>
      <trkpt lat="44.19423" lon="1.36832">
        <ele>161.2</ele>
        <time>2021-11-21T13:52:56Z</time>
      </trkpt>
      <trkpt lat="44.19423" lon="1.36834">
        <ele>161.1</ele>
        <time>2021-11-21T13:52:57Z</time>
      </trkpt>
      <trkpt lat="44.19424" lon="1.36836">
        <ele>161</ele>
        <time>2021-11-21T13:52:59Z</time>
      </trkpt>
      <trkpt lat="44.19424" lon="1.36838">
        <ele>161</ele>
        <time>2021-11-21T13:53:00Z</time>
      </trkpt>
      <trkpt lat="44.19424" lon="1.3684">
        <ele>160.9</ele>
        <time>2021-11-21T13:53:01Z</time>
      </trkpt>
      <trkpt lat="44.19425" lon="1.36841">
        <ele>160.9</ele>
        <time>2021-11-21T13:53:02Z</time>
      </trkpt>
      <trkpt lat="44.19426" lon="1.36843">
        <ele>160.7</ele>
        <time>2021-11-21T13:53:04Z</time>
      </trkpt>
      <trkpt lat="44.19427" lon="1.36844">
        <ele>160.7</ele>
        <time>2021-11-21T13:53:05Z</time>
      </trkpt>
      <trkpt lat="44.19427" lon="1.36845">
        <ele>160.7</ele>
        <time>2021-11-21T13:53:06Z</time>
      </trkpt>
      <trkpt lat="44.19428" lon="1.36846">
        <ele>160.6</ele>
        <time>2021-11-21T13:53:07Z</time>
      </trkpt>
      <trkpt lat="44.19429" lon="1.36848">
        <ele>160.5</ele>
        <time>2021-11-21T13:53:09Z</time>
      </trkpt>
      <trkpt lat="44.19429" lon="1.3685">
        <ele>160.4</ele>
        <time>2021-11-21T13:53:10Z</time>
      </trkpt>
      <trkpt lat="44.1943" lon="1.36851">
        <ele>160.4</ele>
        <time>2021-11-21T13:53:11Z</time>
      </trkpt>
      <trkpt lat="44.1943" lon="1.36853">
        <ele>160.3</ele>
        <time>2021-11-21T13:53:13Z</time>
      </trkpt>
      <trkpt lat="44.19431" lon="1.36854">
        <ele>160.3</ele>
        <time>2021-11-21T13:53:14Z</time>
      </trkpt>
      <trkpt lat="44.19431" lon="1.36856">
        <ele>160.2</ele>
        <time>2021-11-21T13:53:15Z</time>
      </trkpt>
      <trkpt lat="44.19432" lon="1.36857">
        <ele>160.2</ele>
        <time>2021-11-21T13:53:16Z</time>
      </trkpt>
      <trkpt lat="44.19432" lon="1.36858">
        <ele>160.1</ele>
        <time>2021-11-21T13:53:17Z</time>
      </trkpt>
      <trkpt lat="44.19433" lon="1.36859">
        <ele>160.1</ele>
        <time>2021-11-21T13:53:18Z</time>
      </trkpt>
      <trkpt lat="44.19433" lon="1.36861">
        <ele>160</ele>
        <time>2021-11-21T13:53:19Z</time>
      </trkpt>
      <trkpt lat="44.19434" lon="1.36862">
        <ele>159.9</ele>
        <time>2021-11-21T13:53:21Z</time>
      </trkpt>
      <trkpt lat="44.19435" lon="1.36863">
        <ele>159.9</ele>
        <time>2021-11-21T13:53:22Z</time>
      </trkpt>
      <trkpt lat="44.19436" lon="1.36864">
        <ele>159.8</ele>
        <time>2021-11-21T13:53:23Z</time>
      </trkpt>
      <trkpt lat="44.19436" lon="1.36865">
        <ele>159.8</ele>
        <time>2021-11-21T13:53:24Z</time>
      </trkpt>
      <trkpt lat="44.19437" lon="1.36867">
        <ele>159.7</ele>
        <time>2021-11-21T13:53:25Z</time>
      </trkpt>
      <trkpt lat="44.19438" lon="1.36868">
        <ele>159.7</ele>
        <time>2021-11-21T13:53:26Z</time>
      </trkpt>
      <trkpt lat="44.19438" lon="1.36869">
        <ele>159.6</ele>
        <time>2021-11-21T13:53:28Z</time>
      </trkpt>
      <trkpt lat="44.19439" lon="1.36871">
        <ele>159.6</ele>
        <time>2021-11-21T13:53:29Z</time>
      </trkpt>
      <trkpt lat="44.19439" lon="1.36872">
        <ele>159.5</ele>
        <time>2021-11-21T13:53:30Z</time>
      </trkpt>
      <trkpt lat="44.19439" lon="1.36874">
        <ele>159.5</ele>
        <time>2021-11-21T13:53:31Z</time>
      </trkpt>
      <trkpt lat="44.19439" lon="1.36875">
        <ele>159.4</ele>
        <time>2021-11-21T13:53:32Z</time>
      </trkpt>
      <trkpt lat="44.19439" lon="1.36877">
        <ele>159.4</ele>
        <time>2021-11-21T13:53:34Z</time>
      </trkpt>
      <trkpt lat="44.19438" lon="1.36878">
        <ele>159.4</ele>
        <time>2021-11-21T13:53:35Z</time>
      </trkpt>
      <trkpt lat="44.19438" lon="1.36879">
        <ele>159.3</ele>
        <time>2021-11-21T13:53:36Z</time>
      </trkpt>
      <trkpt lat="44.19438" lon="1.36881">
        <ele>159.3</ele>
        <time>2021-11-21T13:53:37Z</time>
      </trkpt>
      <trkpt lat="44.19437" lon="1.36882">
        <ele>159.2</ele>
        <time>2021-11-21T13:53:39Z</time>
      </trkpt>
      <trkpt lat="44.19437" lon="1.36883">
        <ele>159.2</ele>
        <time>2021-11-21T13:53:40Z</time>
      </trkpt>
      <trkpt lat="44.19437" lon="1.36885">
        <ele>159.1</ele>
        <time>2021-11-21T13:53:41Z</time>
      </trkpt>
      <trkpt lat="44.19437" lon="1.36886">
        <ele>159.1</ele>
        <time>2021-11-21T13:53:43Z</time>
      </trkpt>
      <trkpt lat="44.19437" lon="1.36889">
        <ele>159</ele>
        <time>2021-11-21T13:53:45Z</time>
      </trkpt>
      <trkpt lat="44.19435" lon="1.36889">
        <ele>159</ele>
        <time>2021-11-21T13:53:47Z</time>
      </trkpt>
      <trkpt lat="44.19435" lon="1.3689">
        <ele>158.9</ele>
        <time>2021-11-21T13:53:48Z</time>
      </trkpt>
      <trkpt lat="44.19434" lon="1.36891">
        <ele>158.9</ele>
        <time>2021-11-21T13:53:49Z</time>
      </trkpt>
      <trkpt lat="44.19432" lon="1.36893">
        <ele>158.8</ele>
        <time>2021-11-21T13:53:50Z</time>
      </trkpt>
      <trkpt lat="44.19432" lon="1.36894">
        <ele>158.8</ele>
        <time>2021-11-21T13:53:52Z</time>
      </trkpt>
      <trkpt lat="44.19432" lon="1.36895">
        <ele>158.8</ele>
        <time>2021-11-21T13:53:53Z</time>
      </trkpt>
      <trkpt lat="44.19431" lon="1.36897">
        <ele>158.7</ele>
        <time>2021-11-21T13:53:54Z</time>
      </trkpt>
      <trkpt lat="44.19431" lon="1.36898">
        <ele>158.7</ele>
        <time>2021-11-21T13:53:55Z</time>
      </trkpt>
      <trkpt lat="44.19431" lon="1.369">
        <ele>158.7</ele>
        <time>2021-11-21T13:53:56Z</time>
      </trkpt>
      <trkpt lat="44.19431" lon="1.36902">
        <ele>158.7</ele>
        <time>2021-11-21T13:53:57Z</time>
      </trkpt>
      <trkpt lat="44.19432" lon="1.36903">
        <ele>158.6</ele>
        <time>2021-11-21T13:53:59Z</time>
      </trkpt>
      <trkpt lat="44.19432" lon="1.36904">
        <ele>158.6</ele>
        <time>2021-11-21T13:54:00Z</time>
      </trkpt>
      <trkpt lat="44.19433" lon="1.36906">
        <ele>158.6</ele>
        <time>2021-11-21T13:54:01Z</time>
      </trkpt>
      <trkpt lat="44.19434" lon="1.36907">
        <ele>158.6</ele>
        <time>2021-11-21T13:54:02Z</time>
      </trkpt>
      <trkpt lat="44.19434" lon="1.36908">
        <ele>158.5</ele>
        <time>2021-11-21T13:54:03Z</time>
      </trkpt>
      <trkpt lat="44.19435" lon="1.36909">
        <ele>158.5</ele>
        <time>2021-11-21T13:54:04Z</time>
      </trkpt>
      <trkpt lat="44.19436" lon="1.36911">
        <ele>158.5</ele>
        <time>2021-11-21T13:54:06Z</time>
      </trkpt>
      <trkpt lat="44.19436" lon="1.36913">
        <ele>158.5</ele>
        <time>2021-11-21T13:54:07Z</time>
      </trkpt>
      <trkpt lat="44.19436" lon="1.36915">
        <ele>158.4</ele>
        <time>2021-11-21T13:54:08Z</time>
      </trkpt>
      <trkpt lat="44.19435" lon="1.36917">
        <ele>158.4</ele>
        <time>2021-11-21T13:54:09Z</time>
      </trkpt>
      <trkpt lat="44.19435" lon="1.36918">
        <ele>158.4</ele>
        <time>2021-11-21T13:54:10Z</time>
      </trkpt>
      <trkpt lat="44.19435" lon="1.36921">
        <ele>158.4</ele>
        <time>2021-11-21T13:54:12Z</time>
      </trkpt>
      <trkpt lat="44.19435" lon="1.36922">
        <ele>158.4</ele>
        <time>2021-11-21T13:54:13Z</time>
      </trkpt>
      <trkpt lat="44.19435" lon="1.36923">
        <ele>158.4</ele>
        <time>2021-11-21T13:54:14Z</time>
      </trkpt>
      <trkpt lat="44.19435" lon="1.36925">
        <ele>158.3</ele>
        <time>2021-11-21T13:54:15Z</time>
      </trkpt>
      <trkpt lat="44.19435" lon="1.36927">
        <ele>157.8</ele>
        <time>2021-11-21T13:54:16Z</time>
      </trkpt>
      <trkpt lat="44.19435" lon="1.36928">
        <ele>157.6</ele>
        <time>2021-11-21T13:54:18Z</time>
      </trkpt>
      <trkpt lat="44.19435" lon="1.3693">
        <ele>157.5</ele>
        <time>2021-11-21T13:54:19Z</time>
      </trkpt>
      <trkpt lat="44.19434" lon="1.36931">
        <ele>157.4</ele>
        <time>2021-11-21T13:54:20Z</time>
      </trkpt>
      <trkpt lat="44.19434" lon="1.36933">
        <ele>157.3</ele>
        <time>2021-11-21T13:54:21Z</time>
      </trkpt>
      <trkpt lat="44.19434" lon="1.36934">
        <ele>157.3</ele>
        <time>2021-11-21T13:54:22Z</time>
      </trkpt>
      <trkpt lat="44.19433" lon="1.36935">
        <ele>157.1</ele>
        <time>2021-11-21T13:54:24Z</time>
      </trkpt>
      <trkpt lat="44.19432" lon="1.36936">
        <ele>157</ele>
        <time>2021-11-21T13:54:25Z</time>
      </trkpt>
      <trkpt lat="44.19431" lon="1.36938">
        <ele>156.8</ele>
        <time>2021-11-21T13:54:27Z</time>
      </trkpt>
      <trkpt lat="44.19431" lon="1.36938">
        <ele>156.8</ele>
        <time>2021-11-21T13:54:28Z</time>
      </trkpt>
      <trkpt lat="44.19431" lon="1.36939">
        <ele>156.8</ele>
        <time>2021-11-21T13:54:30Z</time>
      </trkpt>
      <trkpt lat="44.19431" lon="1.36939">
        <ele>156.7</ele>
        <time>2021-11-21T13:54:32Z</time>
      </trkpt>
      <trkpt lat="44.19431" lon="1.3694">
        <ele>156.7</ele>
        <time>2021-11-21T13:54:34Z</time>
      </trkpt>
      <trkpt lat="44.1943" lon="1.3694">
        <ele>156.7</ele>
        <time>2021-11-21T13:54:35Z</time>
      </trkpt>
      <trkpt lat="44.1943" lon="1.3694">
        <ele>156.6</ele>
        <time>2021-11-21T13:54:37Z</time>
      </trkpt>
      <trkpt lat="44.1943" lon="1.36941">
        <ele>156.6</ele>
        <time>2021-11-21T13:54:38Z</time>
      </trkpt>
      <trkpt lat="44.1943" lon="1.36941">
        <ele>156.6</ele>
        <time>2021-11-21T13:54:40Z</time>
      </trkpt>
      <trkpt lat="44.19429" lon="1.36941">
        <ele>156.5</ele>
        <time>2021-11-21T13:54:41Z</time>
      </trkpt>
      <trkpt lat="44.19429" lon="1.36942">
        <ele>156.5</ele>
        <time>2021-11-21T13:54:43Z</time>
      </trkpt>
      <trkpt lat="44.19429" lon="1.36942">
        <ele>156.4</ele>
        <time>2021-11-21T13:54:44Z</time>
      </trkpt>
      <trkpt lat="44.19429" lon="1.36942">
        <ele>156.4</ele>
        <time>2021-11-21T13:54:46Z</time>
      </trkpt>
      <trkpt lat="44.19429" lon="1.36943">
        <ele>156.4</ele>
        <time>2021-11-21T13:54:47Z</time>
      </trkpt>
      <trkpt lat="44.19429" lon="1.36944">
        <ele>156.2</ele>
        <time>2021-11-21T13:54:48Z</time>
      </trkpt>
      <trkpt lat="44.19428" lon="1.36947">
        <ele>156</ele>
        <time>2021-11-21T13:54:49Z</time>
      </trkpt>
      <trkpt lat="44.19429" lon="1.36948">
        <ele>155.9</ele>
        <time>2021-11-21T13:54:51Z</time>
      </trkpt>
      <trkpt lat="44.1943" lon="1.36951">
        <ele>155.7</ele>
        <time>2021-11-21T13:54:52Z</time>
      </trkpt>
      <trkpt lat="44.1943" lon="1.36952">
        <ele>155.6</ele>
        <time>2021-11-21T13:54:53Z</time>
      </trkpt>
      <trkpt lat="44.1943" lon="1.36953">
        <ele>155.5</ele>
        <time>2021-11-21T13:54:54Z</time>
      </trkpt>
      <trkpt lat="44.19431" lon="1.36954">
        <ele>155.4</ele>
        <time>2021-11-21T13:54:56Z</time>
      </trkpt>
      <trkpt lat="44.19431" lon="1.36956">
        <ele>155.2</ele>
        <time>2021-11-21T13:54:57Z</time>
      </trkpt>
      <trkpt lat="44.19432" lon="1.36957">
        <ele>155.1</ele>
        <time>2021-11-21T13:54:58Z</time>
      </trkpt>
      <trkpt lat="44.19432" lon="1.36959">
        <ele>154.9</ele>
        <time>2021-11-21T13:54:59Z</time>
      </trkpt>
      <trkpt lat="44.19433" lon="1.3696">
        <ele>154.8</ele>
        <time>2021-11-21T13:55:00Z</time>
      </trkpt>
      <trkpt lat="44.19433" lon="1.36962">
        <ele>154.7</ele>
        <time>2021-11-21T13:55:02Z</time>
      </trkpt>
      <trkpt lat="44.19434" lon="1.36964">
        <ele>154.5</ele>
        <time>2021-11-21T13:55:03Z</time>
      </trkpt>
      <trkpt lat="44.19434" lon="1.36965">
        <ele>154.4</ele>
        <time>2021-11-21T13:55:05Z</time>
      </trkpt>
      <trkpt lat="44.19433" lon="1.36966">
        <ele>154.3</ele>
        <time>2021-11-21T13:55:06Z</time>
      </trkpt>
      <trkpt lat="44.19433" lon="1.36968">
        <ele>154.2</ele>
        <time>2021-11-21T13:55:07Z</time>
      </trkpt>
      <trkpt lat="44.19432" lon="1.36969">
        <ele>154</ele>
        <time>2021-11-21T13:55:08Z</time>
      </trkpt>
      <trkpt lat="44.19432" lon="1.3697">
        <ele>153.9</ele>
        <time>2021-11-21T13:55:10Z</time>
      </trkpt>
      <trkpt lat="44.19431" lon="1.36972">
        <ele>153.8</ele>
        <time>2021-11-21T13:55:11Z</time>
      </trkpt>
      <trkpt lat="44.19431" lon="1.36973">
        <ele>153.7</ele>
        <time>2021-11-21T13:55:12Z</time>
      </trkpt>
      <trkpt lat="44.19431" lon="1.36974">
        <ele>153.6</ele>
        <time>2021-11-21T13:55:13Z</time>
      </trkpt>
      <trkpt lat="44.19431" lon="1.36976">
        <ele>153.5</ele>
        <time>2021-11-21T13:55:14Z</time>
      </trkpt>
      <trkpt lat="44.19431" lon="1.36977">
        <ele>153.4</ele>
        <time>2021-11-21T13:55:15Z</time>
      </trkpt>
      <trkpt lat="44.19431" lon="1.36979">
        <ele>153.2</ele>
        <time>2021-11-21T13:55:17Z</time>
      </trkpt>
      <trkpt lat="44.19431" lon="1.3698">
        <ele>153.1</ele>
        <time>2021-11-21T13:55:18Z</time>
      </trkpt>
      <trkpt lat="44.19431" lon="1.36982">
        <ele>153</ele>
        <time>2021-11-21T13:55:20Z</time>
      </trkpt>
      <trkpt lat="44.19431" lon="1.36983">
        <ele>152.9</ele>
        <time>2021-11-21T13:55:21Z</time>
      </trkpt>
      <trkpt lat="44.19431" lon="1.36985">
        <ele>152.8</ele>
        <time>2021-11-21T13:55:22Z</time>
      </trkpt>
      <trkpt lat="44.19431" lon="1.36986">
        <ele>152.7</ele>
        <time>2021-11-21T13:55:23Z</time>
      </trkpt>
      <trkpt lat="44.19431" lon="1.36987">
        <ele>152.6</ele>
        <time>2021-11-21T13:55:24Z</time>
      </trkpt>
      <trkpt lat="44.1943" lon="1.36988">
        <ele>152.5</ele>
        <time>2021-11-21T13:55:26Z</time>
      </trkpt>
      <trkpt lat="44.1943" lon="1.3699">
        <ele>152.4</ele>
        <time>2021-11-21T13:55:27Z</time>
      </trkpt>
      <trkpt lat="44.1943" lon="1.36991">
        <ele>152.3</ele>
        <time>2021-11-21T13:55:28Z</time>
      </trkpt>
      <trkpt lat="44.1943" lon="1.36992">
        <ele>152.2</ele>
        <time>2021-11-21T13:55:29Z</time>
      </trkpt>
      <trkpt lat="44.19431" lon="1.36993">
        <ele>152.1</ele>
        <time>2021-11-21T13:55:30Z</time>
      </trkpt>
      <trkpt lat="44.19432" lon="1.36995">
        <ele>152</ele>
        <time>2021-11-21T13:55:32Z</time>
      </trkpt>
      <trkpt lat="44.19432" lon="1.36996">
        <ele>151.9</ele>
        <time>2021-11-21T13:55:33Z</time>
      </trkpt>
      <trkpt lat="44.19432" lon="1.36997">
        <ele>151.8</ele>
        <time>2021-11-21T13:55:34Z</time>
      </trkpt>
      <trkpt lat="44.19432" lon="1.36999">
        <ele>151.7</ele>
        <time>2021-11-21T13:55:35Z</time>
      </trkpt>
      <trkpt lat="44.19432" lon="1.37">
        <ele>151.6</ele>
        <time>2021-11-21T13:55:37Z</time>
      </trkpt>
      <trkpt lat="44.19432" lon="1.37002">
        <ele>151.5</ele>
        <time>2021-11-21T13:55:38Z</time>
      </trkpt>
      <trkpt lat="44.19431" lon="1.37004">
        <ele>151.3</ele>
        <time>2021-11-21T13:55:39Z</time>
      </trkpt>
      <trkpt lat="44.1943" lon="1.37006">
        <ele>151.2</ele>
        <time>2021-11-21T13:55:40Z</time>
      </trkpt>
      <trkpt lat="44.1943" lon="1.37007">
        <ele>151.1</ele>
        <time>2021-11-21T13:55:42Z</time>
      </trkpt>
      <trkpt lat="44.1943" lon="1.37008">
        <ele>151.1</ele>
        <time>2021-11-21T13:55:43Z</time>
      </trkpt>
      <trkpt lat="44.1943" lon="1.37009">
        <ele>151</ele>
        <time>2021-11-21T13:55:44Z</time>
      </trkpt>
      <trkpt lat="44.19429" lon="1.3701">
        <ele>150.9</ele>
        <time>2021-11-21T13:55:45Z</time>
      </trkpt>
      <trkpt lat="44.19429" lon="1.37011">
        <ele>150.8</ele>
        <time>2021-11-21T13:55:46Z</time>
      </trkpt>
      <trkpt lat="44.19429" lon="1.37013">
        <ele>150.7</ele>
        <time>2021-11-21T13:55:48Z</time>
      </trkpt>
      <trkpt lat="44.1943" lon="1.37014">
        <ele>150.6</ele>
        <time>2021-11-21T13:55:49Z</time>
      </trkpt>
      <trkpt lat="44.1943" lon="1.37016">
        <ele>150.5</ele>
        <time>2021-11-21T13:55:50Z</time>
      </trkpt>
      <trkpt lat="44.1943" lon="1.37017">
        <ele>150.4</ele>
        <time>2021-11-21T13:55:51Z</time>
      </trkpt>
      <trkpt lat="44.1943" lon="1.37019">
        <ele>150.3</ele>
        <time>2021-11-21T13:55:52Z</time>
      </trkpt>
      <trkpt lat="44.1943" lon="1.37022">
        <ele>150.1</ele>
        <time>2021-11-21T13:55:54Z</time>
      </trkpt>
      <trkpt lat="44.1943" lon="1.37026">
        <ele>149.8</ele>
        <time>2021-11-21T13:55:56Z</time>
      </trkpt>
      <trkpt lat="44.1943" lon="1.37027">
        <ele>149.7</ele>
        <time>2021-11-21T13:55:57Z</time>
      </trkpt>
      <trkpt lat="44.1943" lon="1.37031">
        <ele>149.5</ele>
        <time>2021-11-21T13:55:58Z</time>
      </trkpt>
      <trkpt lat="44.1943" lon="1.37032">
        <ele>149.4</ele>
        <time>2021-11-21T13:56:00Z</time>
      </trkpt>
      <trkpt lat="44.1943" lon="1.37034">
        <ele>149.3</ele>
        <time>2021-11-21T13:56:01Z</time>
      </trkpt>
      <trkpt lat="44.19429" lon="1.37035">
        <ele>149.2</ele>
        <time>2021-11-21T13:56:02Z</time>
      </trkpt>
      <trkpt lat="44.19429" lon="1.37037">
        <ele>149.1</ele>
        <time>2021-11-21T13:56:03Z</time>
      </trkpt>
      <trkpt lat="44.19429" lon="1.3704">
        <ele>148.9</ele>
        <time>2021-11-21T13:56:05Z</time>
      </trkpt>
      <trkpt lat="44.19429" lon="1.37041">
        <ele>148.8</ele>
        <time>2021-11-21T13:56:06Z</time>
      </trkpt>
      <trkpt lat="44.19429" lon="1.37042">
        <ele>148.7</ele>
        <time>2021-11-21T13:56:07Z</time>
      </trkpt>
      <trkpt lat="44.19429" lon="1.37046">
        <ele>148.4</ele>
        <time>2021-11-21T13:56:09Z</time>
      </trkpt>
      <trkpt lat="44.19429" lon="1.37048">
        <ele>148.3</ele>
        <time>2021-11-21T13:56:10Z</time>
      </trkpt>
      <trkpt lat="44.19428" lon="1.37049">
        <ele>148.2</ele>
        <time>2021-11-21T13:56:11Z</time>
      </trkpt>
      <trkpt lat="44.19428" lon="1.37051">
        <ele>148.1</ele>
        <time>2021-11-21T13:56:12Z</time>
      </trkpt>
      <trkpt lat="44.19429" lon="1.37053">
        <ele>148</ele>
        <time>2021-11-21T13:56:14Z</time>
      </trkpt>
      <trkpt lat="44.19429" lon="1.37055">
        <ele>147.8</ele>
        <time>2021-11-21T13:56:15Z</time>
      </trkpt>
      <trkpt lat="44.19429" lon="1.37057">
        <ele>147.7</ele>
        <time>2021-11-21T13:56:16Z</time>
      </trkpt>
      <trkpt lat="44.1943" lon="1.37059">
        <ele>147.5</ele>
        <time>2021-11-21T13:56:17Z</time>
      </trkpt>
      <trkpt lat="44.1943" lon="1.37062">
        <ele>147.3</ele>
        <time>2021-11-21T13:56:19Z</time>
      </trkpt>
      <trkpt lat="44.1943" lon="1.37063">
        <ele>147.2</ele>
        <time>2021-11-21T13:56:20Z</time>
      </trkpt>
      <trkpt lat="44.1943" lon="1.37064">
        <ele>147.2</ele>
        <time>2021-11-21T13:56:21Z</time>
      </trkpt>
      <trkpt lat="44.1943" lon="1.37066">
        <ele>147</ele>
        <time>2021-11-21T13:56:22Z</time>
      </trkpt>
      <trkpt lat="44.1943" lon="1.37068">
        <ele>146.9</ele>
        <time>2021-11-21T13:56:23Z</time>
      </trkpt>
      <trkpt lat="44.1943" lon="1.37069">
        <ele>146.8</ele>
        <time>2021-11-21T13:56:25Z</time>
      </trkpt>
      <trkpt lat="44.1943" lon="1.3707">
        <ele>146.7</ele>
        <time>2021-11-21T13:56:26Z</time>
      </trkpt>
      <trkpt lat="44.1943" lon="1.37071">
        <ele>146.7</ele>
        <time>2021-11-21T13:56:27Z</time>
      </trkpt>
      <trkpt lat="44.1943" lon="1.37071">
        <ele>146.6</ele>
        <time>2021-11-21T13:56:28Z</time>
      </trkpt>
      <trkpt lat="44.1943" lon="1.37072">
        <ele>146.6</ele>
        <time>2021-11-21T13:56:29Z</time>
      </trkpt>
      <trkpt lat="44.19429" lon="1.37074">
        <ele>146.4</ele>
        <time>2021-11-21T13:56:31Z</time>
      </trkpt>
      <trkpt lat="44.19429" lon="1.37076">
        <ele>146.3</ele>
        <time>2021-11-21T13:56:32Z</time>
      </trkpt>
      <trkpt lat="44.19429" lon="1.37078">
        <ele>146.2</ele>
        <time>2021-11-21T13:56:33Z</time>
      </trkpt>
      <trkpt lat="44.19428" lon="1.3708">
        <ele>146</ele>
        <time>2021-11-21T13:56:35Z</time>
      </trkpt>
      <trkpt lat="44.19428" lon="1.37082">
        <ele>145.8</ele>
        <time>2021-11-21T13:56:36Z</time>
      </trkpt>
      <trkpt lat="44.19428" lon="1.37084">
        <ele>145.6</ele>
        <time>2021-11-21T13:56:38Z</time>
      </trkpt>
      <trkpt lat="44.19428" lon="1.37086">
        <ele>145.5</ele>
        <time>2021-11-21T13:56:39Z</time>
      </trkpt>
      <trkpt lat="44.19427" lon="1.37088">
        <ele>145.3</ele>
        <time>2021-11-21T13:56:40Z</time>
      </trkpt>
      <trkpt lat="44.19427" lon="1.37092">
        <ele>145</ele>
        <time>2021-11-21T13:56:41Z</time>
      </trkpt>
      <trkpt lat="44.19427" lon="1.37093">
        <ele>144.9</ele>
        <time>2021-11-21T13:56:43Z</time>
      </trkpt>
      <trkpt lat="44.19427" lon="1.37095">
        <ele>144.8</ele>
        <time>2021-11-21T13:56:44Z</time>
      </trkpt>
      <trkpt lat="44.19427" lon="1.37096">
        <ele>144.7</ele>
        <time>2021-11-21T13:56:45Z</time>
      </trkpt>
      <trkpt lat="44.19426" lon="1.37097">
        <ele>144.6</ele>
        <time>2021-11-21T13:56:46Z</time>
      </trkpt>
      <trkpt lat="44.19426" lon="1.371">
        <ele>144.3</ele>
        <time>2021-11-21T13:56:48Z</time>
      </trkpt>
      <trkpt lat="44.19426" lon="1.37102">
        <ele>144.2</ele>
        <time>2021-11-21T13:56:49Z</time>
      </trkpt>
      <trkpt lat="44.19426" lon="1.37103">
        <ele>144.1</ele>
        <time>2021-11-21T13:56:50Z</time>
      </trkpt>
      <trkpt lat="44.19426" lon="1.37105">
        <ele>144</ele>
        <time>2021-11-21T13:56:51Z</time>
      </trkpt>
      <trkpt lat="44.19425" lon="1.37107">
        <ele>143.8</ele>
        <time>2021-11-21T13:56:52Z</time>
      </trkpt>
      <trkpt lat="44.19425" lon="1.37108">
        <ele>143.7</ele>
        <time>2021-11-21T13:56:54Z</time>
      </trkpt>
      <trkpt lat="44.19426" lon="1.3711">
        <ele>143.6</ele>
        <time>2021-11-21T13:56:55Z</time>
      </trkpt>
      <trkpt lat="44.19426" lon="1.37111">
        <ele>143.4</ele>
        <time>2021-11-21T13:56:56Z</time>
      </trkpt>
      <trkpt lat="44.19427" lon="1.37112">
        <ele>143.3</ele>
        <time>2021-11-21T13:56:57Z</time>
      </trkpt>
      <trkpt lat="44.19427" lon="1.37114">
        <ele>143.2</ele>
        <time>2021-11-21T13:56:59Z</time>
      </trkpt>
      <trkpt lat="44.19427" lon="1.37116">
        <ele>143</ele>
        <time>2021-11-21T13:57:00Z</time>
      </trkpt>
      <trkpt lat="44.19427" lon="1.37117">
        <ele>142.9</ele>
        <time>2021-11-21T13:57:01Z</time>
      </trkpt>
      <trkpt lat="44.19427" lon="1.37119">
        <ele>142.8</ele>
        <time>2021-11-21T13:57:02Z</time>
      </trkpt>
      <trkpt lat="44.19427" lon="1.3712">
        <ele>142.7</ele>
        <time>2021-11-21T13:57:03Z</time>
      </trkpt>
      <trkpt lat="44.19427" lon="1.37121">
        <ele>142.6</ele>
        <time>2021-11-21T13:57:05Z</time>
      </trkpt>
      <trkpt lat="44.19427" lon="1.37123">
        <ele>142.5</ele>
        <time>2021-11-21T13:57:06Z</time>
      </trkpt>
      <trkpt lat="44.19427" lon="1.37124">
        <ele>142.5</ele>
        <time>2021-11-21T13:57:07Z</time>
      </trkpt>
      <trkpt lat="44.19426" lon="1.37125">
        <ele>142.4</ele>
        <time>2021-11-21T13:57:08Z</time>
      </trkpt>
      <trkpt lat="44.19426" lon="1.37128">
        <ele>142.1</ele>
        <time>2021-11-21T13:57:09Z</time>
      </trkpt>
      <trkpt lat="44.19426" lon="1.37129">
        <ele>142.1</ele>
        <time>2021-11-21T13:57:11Z</time>
      </trkpt>
      <trkpt lat="44.19425" lon="1.3713">
        <ele>142</ele>
        <time>2021-11-21T13:57:12Z</time>
      </trkpt>
      <trkpt lat="44.19425" lon="1.37131">
        <ele>141.9</ele>
        <time>2021-11-21T13:57:13Z</time>
      </trkpt>
      <trkpt lat="44.19425" lon="1.37133">
        <ele>141.7</ele>
        <time>2021-11-21T13:57:15Z</time>
      </trkpt>
      <trkpt lat="44.19424" lon="1.37135">
        <ele>141.6</ele>
        <time>2021-11-21T13:57:16Z</time>
      </trkpt>
      <trkpt lat="44.19424" lon="1.37136">
        <ele>141.5</ele>
        <time>2021-11-21T13:57:17Z</time>
      </trkpt>
      <trkpt lat="44.19425" lon="1.37138">
        <ele>141.4</ele>
        <time>2021-11-21T13:57:19Z</time>
      </trkpt>
      <trkpt lat="44.19425" lon="1.37139">
        <ele>141.3</ele>
        <time>2021-11-21T13:57:20Z</time>
      </trkpt>
      <trkpt lat="44.19426" lon="1.3714">
        <ele>141.2</ele>
        <time>2021-11-21T13:57:21Z</time>
      </trkpt>
      <trkpt lat="44.19426" lon="1.37142">
        <ele>141.1</ele>
        <time>2021-11-21T13:57:22Z</time>
      </trkpt>
      <trkpt lat="44.19427" lon="1.37143">
        <ele>141</ele>
        <time>2021-11-21T13:57:24Z</time>
      </trkpt>
      <trkpt lat="44.19427" lon="1.37145">
        <ele>140.8</ele>
        <time>2021-11-21T13:57:25Z</time>
      </trkpt>
      <trkpt lat="44.19427" lon="1.37146">
        <ele>140.8</ele>
        <time>2021-11-21T13:57:26Z</time>
      </trkpt>
      <trkpt lat="44.19428" lon="1.37147">
        <ele>140.7</ele>
        <time>2021-11-21T13:57:27Z</time>
      </trkpt>
      <trkpt lat="44.19428" lon="1.37149">
        <ele>140.5</ele>
        <time>2021-11-21T13:57:29Z</time>
      </trkpt>
      <trkpt lat="44.19428" lon="1.37151">
        <ele>140.4</ele>
        <time>2021-11-21T13:57:30Z</time>
      </trkpt>
      <trkpt lat="44.19428" lon="1.37153">
        <ele>140.3</ele>
        <time>2021-11-21T13:57:32Z</time>
      </trkpt>
      <trkpt lat="44.19428" lon="1.37154">
        <ele>140.1</ele>
        <time>2021-11-21T13:57:33Z</time>
      </trkpt>
      <trkpt lat="44.19428" lon="1.37156">
        <ele>140</ele>
        <time>2021-11-21T13:57:34Z</time>
      </trkpt>
      <trkpt lat="44.19428" lon="1.37157">
        <ele>139.9</ele>
        <time>2021-11-21T13:57:36Z</time>
      </trkpt>
      <trkpt lat="44.19429" lon="1.37157">
        <ele>139.9</ele>
        <time>2021-11-21T13:57:37Z</time>
      </trkpt>
      <trkpt lat="44.19429" lon="1.37157">
        <ele>139.8</ele>
        <time>2021-11-21T13:57:39Z</time>
      </trkpt>
      <trkpt lat="44.19429" lon="1.37157">
        <ele>139.8</ele>
        <time>2021-11-21T13:57:40Z</time>
      </trkpt>
      <trkpt lat="44.19429" lon="1.37159">
        <ele>139.6</ele>
        <time>2021-11-21T13:57:41Z</time>
      </trkpt>
      <trkpt lat="44.19428" lon="1.37161">
        <ele>139.5</ele>
        <time>2021-11-21T13:57:43Z</time>
      </trkpt>
      <trkpt lat="44.19428" lon="1.37163">
        <ele>139.3</ele>
        <time>2021-11-21T13:57:44Z</time>
      </trkpt>
      <trkpt lat="44.19428" lon="1.37165">
        <ele>139.2</ele>
        <time>2021-11-21T13:57:45Z</time>
      </trkpt>
      <trkpt lat="44.19429" lon="1.37168">
        <ele>139</ele>
        <time>2021-11-21T13:57:47Z</time>
      </trkpt>
      <trkpt lat="44.1943" lon="1.3717">
        <ele>138.8</ele>
        <time>2021-11-21T13:57:48Z</time>
      </trkpt>
      <trkpt lat="44.1943" lon="1.37172">
        <ele>138.7</ele>
        <time>2021-11-21T13:57:50Z</time>
      </trkpt>
      <trkpt lat="44.19431" lon="1.37173">
        <ele>138.6</ele>
        <time>2021-11-21T13:57:51Z</time>
      </trkpt>
      <trkpt lat="44.19432" lon="1.37174">
        <ele>138.5</ele>
        <time>2021-11-21T13:57:53Z</time>
      </trkpt>
      <trkpt lat="44.19432" lon="1.37176">
        <ele>138.4</ele>
        <time>2021-11-21T13:57:54Z</time>
      </trkpt>
      <trkpt lat="44.19432" lon="1.37177">
        <ele>138.3</ele>
        <time>2021-11-21T13:57:55Z</time>
      </trkpt>
      <trkpt lat="44.19433" lon="1.3718">
        <ele>138.1</ele>
        <time>2021-11-21T13:57:57Z</time>
      </trkpt>
      <trkpt lat="44.19433" lon="1.37178">
        <ele>137.9</ele>
        <time>2021-11-21T13:57:58Z</time>
      </trkpt>
      <trkpt lat="44.19434" lon="1.37179">
        <ele>137.8</ele>
        <time>2021-11-21T13:58:00Z</time>
      </trkpt>
      <trkpt lat="44.19435" lon="1.37181">
        <ele>137.6</ele>
        <time>2021-11-21T13:58:02Z</time>
      </trkpt>
      <trkpt lat="44.19436" lon="1.37182">
        <ele>137.5</ele>
        <time>2021-11-21T13:58:03Z</time>
      </trkpt>
      <trkpt lat="44.19437" lon="1.37183">
        <ele>137.4</ele>
        <time>2021-11-21T13:58:04Z</time>
      </trkpt>
      <trkpt lat="44.19438" lon="1.37184">
        <ele>137.3</ele>
        <time>2021-11-21T13:58:05Z</time>
      </trkpt>
      <trkpt lat="44.19439" lon="1.37186">
        <ele>137.1</ele>
        <time>2021-11-21T13:58:07Z</time>
      </trkpt>
      <trkpt lat="44.1944" lon="1.37187">
        <ele>137</ele>
        <time>2021-11-21T13:58:08Z</time>
      </trkpt>
      <trkpt lat="44.1944" lon="1.37188">
        <ele>136.9</ele>
        <time>2021-11-21T13:58:09Z</time>
      </trkpt>
      <trkpt lat="44.19441" lon="1.37193">
        <ele>136.7</ele>
        <time>2021-11-21T13:58:12Z</time>
      </trkpt>
      <trkpt lat="44.19443" lon="1.37195">
        <ele>136.4</ele>
        <time>2021-11-21T13:58:14Z</time>
      </trkpt>
      <trkpt lat="44.19444" lon="1.37196">
        <ele>136.4</ele>
        <time>2021-11-21T13:58:15Z</time>
      </trkpt>
      <trkpt lat="44.19444" lon="1.37197">
        <ele>136.3</ele>
        <time>2021-11-21T13:58:16Z</time>
      </trkpt>
      <trkpt lat="44.19446" lon="1.37199">
        <ele>136.1</ele>
        <time>2021-11-21T13:58:18Z</time>
      </trkpt>
      <trkpt lat="44.19447" lon="1.37199">
        <ele>136.1</ele>
        <time>2021-11-21T13:58:19Z</time>
      </trkpt>
      <trkpt lat="44.19447" lon="1.372">
        <ele>136</ele>
        <time>2021-11-21T13:58:20Z</time>
      </trkpt>
      <trkpt lat="44.19448" lon="1.37202">
        <ele>135.9</ele>
        <time>2021-11-21T13:58:21Z</time>
      </trkpt>
      <trkpt lat="44.19449" lon="1.37204">
        <ele>135.8</ele>
        <time>2021-11-21T13:58:22Z</time>
      </trkpt>
      <trkpt lat="44.19449" lon="1.37205">
        <ele>135.7</ele>
        <time>2021-11-21T13:58:24Z</time>
      </trkpt>
      <trkpt lat="44.1945" lon="1.37206">
        <ele>135.6</ele>
        <time>2021-11-21T13:58:25Z</time>
      </trkpt>
      <trkpt lat="44.1945" lon="1.37208">
        <ele>135.5</ele>
        <time>2021-11-21T13:58:26Z</time>
      </trkpt>
      <trkpt lat="44.19451" lon="1.37211">
        <ele>135.4</ele>
        <time>2021-11-21T13:58:27Z</time>
      </trkpt>
      <trkpt lat="44.19451" lon="1.37212">
        <ele>135.3</ele>
        <time>2021-11-21T13:58:28Z</time>
      </trkpt>
      <trkpt lat="44.19451" lon="1.37213">
        <ele>135.3</ele>
        <time>2021-11-21T13:58:29Z</time>
      </trkpt>
      <trkpt lat="44.19452" lon="1.37215">
        <ele>135.2</ele>
        <time>2021-11-21T13:58:31Z</time>
      </trkpt>
      <trkpt lat="44.19452" lon="1.37216">
        <ele>135.1</ele>
        <time>2021-11-21T13:58:32Z</time>
      </trkpt>
      <trkpt lat="44.19452" lon="1.37218">
        <ele>135</ele>
        <time>2021-11-21T13:58:33Z</time>
      </trkpt>
      <trkpt lat="44.19453" lon="1.37219">
        <ele>134.9</ele>
        <time>2021-11-21T13:58:34Z</time>
      </trkpt>
      <trkpt lat="44.19453" lon="1.3722">
        <ele>134.9</ele>
        <time>2021-11-21T13:58:35Z</time>
      </trkpt>
      <trkpt lat="44.19453" lon="1.37222">
        <ele>134.8</ele>
        <time>2021-11-21T13:58:37Z</time>
      </trkpt>
      <trkpt lat="44.19454" lon="1.37223">
        <ele>134.7</ele>
        <time>2021-11-21T13:58:38Z</time>
      </trkpt>
      <trkpt lat="44.19454" lon="1.37224">
        <ele>134.7</ele>
        <time>2021-11-21T13:58:39Z</time>
      </trkpt>
      <trkpt lat="44.19454" lon="1.37226">
        <ele>134.6</ele>
        <time>2021-11-21T13:58:41Z</time>
      </trkpt>
      <trkpt lat="44.19454" lon="1.37228">
        <ele>134.5</ele>
        <time>2021-11-21T13:58:42Z</time>
      </trkpt>
      <trkpt lat="44.19454" lon="1.37229">
        <ele>134.5</ele>
        <time>2021-11-21T13:58:43Z</time>
      </trkpt>
      <trkpt lat="44.19454" lon="1.37231">
        <ele>134.4</ele>
        <time>2021-11-21T13:58:44Z</time>
      </trkpt>
      <trkpt lat="44.19453" lon="1.37233">
        <ele>134.3</ele>
        <time>2021-11-21T13:58:45Z</time>
      </trkpt>
      <trkpt lat="44.19453" lon="1.37235">
        <ele>134.2</ele>
        <time>2021-11-21T13:58:47Z</time>
      </trkpt>
      <trkpt lat="44.19453" lon="1.37236">
        <ele>134.2</ele>
        <time>2021-11-21T13:58:48Z</time>
      </trkpt>
      <trkpt lat="44.19453" lon="1.37238">
        <ele>134.1</ele>
        <time>2021-11-21T13:58:49Z</time>
      </trkpt>
      <trkpt lat="44.19453" lon="1.37239">
        <ele>134.1</ele>
        <time>2021-11-21T13:58:50Z</time>
      </trkpt>
      <trkpt lat="44.19452" lon="1.37241">
        <ele>134</ele>
        <time>2021-11-21T13:58:52Z</time>
      </trkpt>
      <trkpt lat="44.19452" lon="1.37242">
        <ele>134</ele>
        <time>2021-11-21T13:58:53Z</time>
      </trkpt>
      <trkpt lat="44.19452" lon="1.37244">
        <ele>134</ele>
        <time>2021-11-21T13:58:54Z</time>
      </trkpt>
      <trkpt lat="44.19452" lon="1.37245">
        <ele>133.9</ele>
        <time>2021-11-21T13:58:55Z</time>
      </trkpt>
      <trkpt lat="44.19452" lon="1.37247">
        <ele>133.9</ele>
        <time>2021-11-21T13:58:56Z</time>
      </trkpt>
      <trkpt lat="44.19451" lon="1.37248">
        <ele>133.8</ele>
        <time>2021-11-21T13:58:57Z</time>
      </trkpt>
      <trkpt lat="44.19451" lon="1.3725">
        <ele>133.8</ele>
        <time>2021-11-21T13:58:59Z</time>
      </trkpt>
      <trkpt lat="44.19451" lon="1.37251">
        <ele>133.8</ele>
        <time>2021-11-21T13:59:00Z</time>
      </trkpt>
      <trkpt lat="44.19451" lon="1.37253">
        <ele>133.7</ele>
        <time>2021-11-21T13:59:01Z</time>
      </trkpt>
      <trkpt lat="44.19451" lon="1.37256">
        <ele>133.7</ele>
        <time>2021-11-21T13:59:02Z</time>
      </trkpt>
      <trkpt lat="44.19451" lon="1.37257">
        <ele>133.6</ele>
        <time>2021-11-21T13:59:04Z</time>
      </trkpt>
      <trkpt lat="44.19451" lon="1.37258">
        <ele>133.6</ele>
        <time>2021-11-21T13:59:05Z</time>
      </trkpt>
      <trkpt lat="44.19451" lon="1.3726">
        <ele>133.6</ele>
        <time>2021-11-21T13:59:06Z</time>
      </trkpt>
      <trkpt lat="44.19451" lon="1.37262">
        <ele>133.5</ele>
        <time>2021-11-21T13:59:07Z</time>
      </trkpt>
      <trkpt lat="44.1945" lon="1.37263">
        <ele>133.5</ele>
        <time>2021-11-21T13:59:09Z</time>
      </trkpt>
      <trkpt lat="44.1945" lon="1.37264">
        <ele>133.5</ele>
        <time>2021-11-21T13:59:10Z</time>
      </trkpt>
      <trkpt lat="44.19449" lon="1.37266">
        <ele>133.5</ele>
        <time>2021-11-21T13:59:11Z</time>
      </trkpt>
      <trkpt lat="44.19449" lon="1.37267">
        <ele>133.4</ele>
        <time>2021-11-21T13:59:12Z</time>
      </trkpt>
      <trkpt lat="44.19449" lon="1.37269">
        <ele>133.4</ele>
        <time>2021-11-21T13:59:13Z</time>
      </trkpt>
      <trkpt lat="44.19449" lon="1.37271">
        <ele>133.4</ele>
        <time>2021-11-21T13:59:15Z</time>
      </trkpt>
      <trkpt lat="44.1945" lon="1.37271">
        <ele>133.4</ele>
        <time>2021-11-21T13:59:17Z</time>
      </trkpt>
      <trkpt lat="44.1945" lon="1.3727">
        <ele>133.4</ele>
        <time>2021-11-21T13:59:19Z</time>
      </trkpt>
      <trkpt lat="44.1945" lon="1.3727">
        <ele>133.4</ele>
        <time>2021-11-21T13:59:20Z</time>
      </trkpt>
      <trkpt lat="44.19449" lon="1.37269">
        <ele>133.3</ele>
        <time>2021-11-21T13:59:21Z</time>
      </trkpt>
      <trkpt lat="44.19449" lon="1.3727">
        <ele>133.3</ele>
        <time>2021-11-21T13:59:23Z</time>
      </trkpt>
      <trkpt lat="44.19448" lon="1.37271">
        <ele>133.3</ele>
        <time>2021-11-21T13:59:24Z</time>
      </trkpt>
      <trkpt lat="44.19447" lon="1.37273">
        <ele>133.3</ele>
        <time>2021-11-21T13:59:25Z</time>
      </trkpt>
      <trkpt lat="44.19446" lon="1.37274">
        <ele>133.3</ele>
        <time>2021-11-21T13:59:27Z</time>
      </trkpt>
      <trkpt lat="44.19445" lon="1.37276">
        <ele>133.3</ele>
        <time>2021-11-21T13:59:28Z</time>
      </trkpt>
      <trkpt lat="44.19444" lon="1.37278">
        <ele>133.3</ele>
        <time>2021-11-21T13:59:29Z</time>
      </trkpt>
      <trkpt lat="44.19444" lon="1.37279">
        <ele>133.3</ele>
        <time>2021-11-21T13:59:31Z</time>
      </trkpt>
      <trkpt lat="44.19444" lon="1.3728">
        <ele>133.3</ele>
        <time>2021-11-21T13:59:33Z</time>
      </trkpt>
      <trkpt lat="44.19444" lon="1.3728">
        <ele>133.3</ele>
        <time>2021-11-21T13:59:34Z</time>
      </trkpt>
      <trkpt lat="44.19444" lon="1.37279">
        <ele>133.3</ele>
        <time>2021-11-21T13:59:35Z</time>
      </trkpt>
      <trkpt lat="44.19443" lon="1.37279">
        <ele>133.3</ele>
        <time>2021-11-21T13:59:37Z</time>
      </trkpt>
      <trkpt lat="44.19443" lon="1.37279">
        <ele>133.3</ele>
        <time>2021-11-21T13:59:38Z</time>
      </trkpt>
      <trkpt lat="44.19443" lon="1.3728">
        <ele>133.3</ele>
        <time>2021-11-21T13:59:40Z</time>
      </trkpt>
      <trkpt lat="44.19443" lon="1.37281">
        <ele>133.3</ele>
        <time>2021-11-21T13:59:41Z</time>
      </trkpt>
      <trkpt lat="44.19442" lon="1.37282">
        <ele>133.3</ele>
        <time>2021-11-21T13:59:42Z</time>
      </trkpt>
      <trkpt lat="44.19442" lon="1.37285">
        <ele>133.3</ele>
        <time>2021-11-21T13:59:44Z</time>
      </trkpt>
      <trkpt lat="44.19442" lon="1.37287">
        <ele>133.3</ele>
        <time>2021-11-21T13:59:45Z</time>
      </trkpt>
      <trkpt lat="44.19441" lon="1.3729">
        <ele>133.3</ele>
        <time>2021-11-21T13:59:47Z</time>
      </trkpt>
      <trkpt lat="44.1944" lon="1.37293">
        <ele>133.3</ele>
        <time>2021-11-21T13:59:48Z</time>
      </trkpt>
      <trkpt lat="44.1944" lon="1.37294">
        <ele>133.3</ele>
        <time>2021-11-21T13:59:49Z</time>
      </trkpt>
      <trkpt lat="44.1944" lon="1.37295">
        <ele>133.3</ele>
        <time>2021-11-21T13:59:50Z</time>
      </trkpt>
      <trkpt lat="44.19439" lon="1.37297">
        <ele>133.3</ele>
        <time>2021-11-21T13:59:51Z</time>
      </trkpt>
      <trkpt lat="44.19439" lon="1.37298">
        <ele>133.3</ele>
        <time>2021-11-21T13:59:52Z</time>
      </trkpt>
      <trkpt lat="44.19439" lon="1.37301">
        <ele>133.4</ele>
        <time>2021-11-21T13:59:54Z</time>
      </trkpt>
      <trkpt lat="44.19439" lon="1.37302">
        <ele>133.4</ele>
        <time>2021-11-21T13:59:55Z</time>
      </trkpt>
      <trkpt lat="44.19439" lon="1.37304">
        <ele>133.4</ele>
        <time>2021-11-21T13:59:56Z</time>
      </trkpt>
      <trkpt lat="44.19438" lon="1.37306">
        <ele>133.4</ele>
        <time>2021-11-21T13:59:58Z</time>
      </trkpt>
      <trkpt lat="44.19437" lon="1.37308">
        <ele>133.5</ele>
        <time>2021-11-21T13:59:59Z</time>
      </trkpt>
      <trkpt lat="44.19437" lon="1.37309">
        <ele>133.5</ele>
        <time>2021-11-21T14:00:00Z</time>
      </trkpt>
      <trkpt lat="44.19436" lon="1.37312">
        <ele>133.6</ele>
        <time>2021-11-21T14:00:02Z</time>
      </trkpt>
      <trkpt lat="44.19436" lon="1.37315">
        <ele>133.6</ele>
        <time>2021-11-21T14:00:03Z</time>
      </trkpt>
      <trkpt lat="44.19436" lon="1.37316">
        <ele>133.6</ele>
        <time>2021-11-21T14:00:04Z</time>
      </trkpt>
      <trkpt lat="44.19436" lon="1.37318">
        <ele>133.7</ele>
        <time>2021-11-21T14:00:05Z</time>
      </trkpt>
      <trkpt lat="44.19435" lon="1.3732">
        <ele>133.7</ele>
        <time>2021-11-21T14:00:07Z</time>
      </trkpt>
      <trkpt lat="44.19435" lon="1.37321">
        <ele>133.8</ele>
        <time>2021-11-21T14:00:08Z</time>
      </trkpt>
      <trkpt lat="44.19434" lon="1.37323">
        <ele>133.8</ele>
        <time>2021-11-21T14:00:09Z</time>
      </trkpt>
      <trkpt lat="44.19434" lon="1.37325">
        <ele>133.8</ele>
        <time>2021-11-21T14:00:10Z</time>
      </trkpt>
      <trkpt lat="44.19434" lon="1.37326">
        <ele>133.9</ele>
        <time>2021-11-21T14:00:11Z</time>
      </trkpt>
      <trkpt lat="44.19433" lon="1.37329">
        <ele>134</ele>
        <time>2021-11-21T14:00:12Z</time>
      </trkpt>
      <trkpt lat="44.19433" lon="1.3733">
        <ele>134</ele>
        <time>2021-11-21T14:00:14Z</time>
      </trkpt>
      <trkpt lat="44.19432" lon="1.37331">
        <ele>134</ele>
        <time>2021-11-21T14:00:15Z</time>
      </trkpt>
      <trkpt lat="44.19432" lon="1.37333">
        <ele>134.1</ele>
        <time>2021-11-21T14:00:16Z</time>
      </trkpt>
      <trkpt lat="44.19432" lon="1.37334">
        <ele>134.1</ele>
        <time>2021-11-21T14:00:17Z</time>
      </trkpt>
      <trkpt lat="44.19432" lon="1.37336">
        <ele>134.2</ele>
        <time>2021-11-21T14:00:18Z</time>
      </trkpt>
      <trkpt lat="44.19431" lon="1.37339">
        <ele>134.3</ele>
        <time>2021-11-21T14:00:19Z</time>
      </trkpt>
      <trkpt lat="44.1943" lon="1.3734">
        <ele>134.3</ele>
        <time>2021-11-21T14:00:21Z</time>
      </trkpt>
      <trkpt lat="44.1943" lon="1.37342">
        <ele>134.3</ele>
        <time>2021-11-21T14:00:22Z</time>
      </trkpt>
      <trkpt lat="44.1943" lon="1.37343">
        <ele>134.4</ele>
        <time>2021-11-21T14:00:23Z</time>
      </trkpt>
      <trkpt lat="44.19429" lon="1.37344">
        <ele>134.4</ele>
        <time>2021-11-21T14:00:24Z</time>
      </trkpt>
      <trkpt lat="44.19429" lon="1.37345">
        <ele>134.5</ele>
        <time>2021-11-21T14:00:25Z</time>
      </trkpt>
      <trkpt lat="44.19428" lon="1.37347">
        <ele>134.5</ele>
        <time>2021-11-21T14:00:26Z</time>
      </trkpt>
      <trkpt lat="44.19427" lon="1.37349">
        <ele>134.6</ele>
        <time>2021-11-21T14:00:28Z</time>
      </trkpt>
      <trkpt lat="44.19427" lon="1.3735">
        <ele>134.7</ele>
        <time>2021-11-21T14:00:29Z</time>
      </trkpt>
      <trkpt lat="44.19427" lon="1.37352">
        <ele>134.7</ele>
        <time>2021-11-21T14:00:30Z</time>
      </trkpt>
      <trkpt lat="44.19427" lon="1.37353">
        <ele>134.7</ele>
        <time>2021-11-21T14:00:31Z</time>
      </trkpt>
      <trkpt lat="44.19427" lon="1.37355">
        <ele>134.8</ele>
        <time>2021-11-21T14:00:33Z</time>
      </trkpt>
      <trkpt lat="44.19426" lon="1.37356">
        <ele>134.9</ele>
        <time>2021-11-21T14:00:34Z</time>
      </trkpt>
      <trkpt lat="44.19426" lon="1.37357">
        <ele>134.9</ele>
        <time>2021-11-21T14:00:35Z</time>
      </trkpt>
      <trkpt lat="44.19425" lon="1.37359">
        <ele>135</ele>
        <time>2021-11-21T14:00:36Z</time>
      </trkpt>
      <trkpt lat="44.19424" lon="1.37361">
        <ele>135</ele>
        <time>2021-11-21T14:00:37Z</time>
      </trkpt>
      <trkpt lat="44.19424" lon="1.37362">
        <ele>135.1</ele>
        <time>2021-11-21T14:00:38Z</time>
      </trkpt>
      <trkpt lat="44.19423" lon="1.37364">
        <ele>135.2</ele>
        <time>2021-11-21T14:00:39Z</time>
      </trkpt>
      <trkpt lat="44.19422" lon="1.37367">
        <ele>135.3</ele>
        <time>2021-11-21T14:00:41Z</time>
      </trkpt>
      <trkpt lat="44.19422" lon="1.37368">
        <ele>135.3</ele>
        <time>2021-11-21T14:00:42Z</time>
      </trkpt>
      <trkpt lat="44.19421" lon="1.37369">
        <ele>135.4</ele>
        <time>2021-11-21T14:00:43Z</time>
      </trkpt>
      <trkpt lat="44.19421" lon="1.37371">
        <ele>135.5</ele>
        <time>2021-11-21T14:00:44Z</time>
      </trkpt>
      <trkpt lat="44.19421" lon="1.37372">
        <ele>135.5</ele>
        <time>2021-11-21T14:00:45Z</time>
      </trkpt>
      <trkpt lat="44.19421" lon="1.37374">
        <ele>135.6</ele>
        <time>2021-11-21T14:00:46Z</time>
      </trkpt>
      <trkpt lat="44.1942" lon="1.37375">
        <ele>135.6</ele>
        <time>2021-11-21T14:00:48Z</time>
      </trkpt>
      <trkpt lat="44.1942" lon="1.37377">
        <ele>135.7</ele>
        <time>2021-11-21T14:00:49Z</time>
      </trkpt>
      <trkpt lat="44.1942" lon="1.37378">
        <ele>135.8</ele>
        <time>2021-11-21T14:00:50Z</time>
      </trkpt>
      <trkpt lat="44.1942" lon="1.37381">
        <ele>135.9</ele>
        <time>2021-11-21T14:00:52Z</time>
      </trkpt>
      <trkpt lat="44.19419" lon="1.37382">
        <ele>135.9</ele>
        <time>2021-11-21T14:00:53Z</time>
      </trkpt>
      <trkpt lat="44.19419" lon="1.37384">
        <ele>136</ele>
        <time>2021-11-21T14:00:55Z</time>
      </trkpt>
      <trkpt lat="44.19419" lon="1.37385">
        <ele>136.1</ele>
        <time>2021-11-21T14:00:56Z</time>
      </trkpt>
      <trkpt lat="44.19418" lon="1.37387">
        <ele>136.1</ele>
        <time>2021-11-21T14:00:57Z</time>
      </trkpt>
      <trkpt lat="44.19418" lon="1.37388">
        <ele>136.2</ele>
        <time>2021-11-21T14:00:58Z</time>
      </trkpt>
      <trkpt lat="44.19418" lon="1.37389">
        <ele>136.2</ele>
        <time>2021-11-21T14:00:59Z</time>
      </trkpt>
      <trkpt lat="44.19418" lon="1.37391">
        <ele>136.3</ele>
        <time>2021-11-21T14:01:00Z</time>
      </trkpt>
      <trkpt lat="44.19418" lon="1.37394">
        <ele>136.4</ele>
        <time>2021-11-21T14:01:02Z</time>
      </trkpt>
      <trkpt lat="44.19418" lon="1.37395">
        <ele>136.5</ele>
        <time>2021-11-21T14:01:03Z</time>
      </trkpt>
      <trkpt lat="44.19418" lon="1.37397">
        <ele>136.5</ele>
        <time>2021-11-21T14:01:04Z</time>
      </trkpt>
      <trkpt lat="44.19418" lon="1.37399">
        <ele>136.6</ele>
        <time>2021-11-21T14:01:06Z</time>
      </trkpt>
      <trkpt lat="44.19418" lon="1.374">
        <ele>136.7</ele>
        <time>2021-11-21T14:01:07Z</time>
      </trkpt>
      <trkpt lat="44.19417" lon="1.37402">
        <ele>136.8</ele>
        <time>2021-11-21T14:01:09Z</time>
      </trkpt>
      <trkpt lat="44.19417" lon="1.37403">
        <ele>136.8</ele>
        <time>2021-11-21T14:01:10Z</time>
      </trkpt>
      <trkpt lat="44.19417" lon="1.37405">
        <ele>136.9</ele>
        <time>2021-11-21T14:01:11Z</time>
      </trkpt>
      <trkpt lat="44.19416" lon="1.37406">
        <ele>136.9</ele>
        <time>2021-11-21T14:01:13Z</time>
      </trkpt>
      <trkpt lat="44.19416" lon="1.37408">
        <ele>137</ele>
        <time>2021-11-21T14:01:14Z</time>
      </trkpt>
      <trkpt lat="44.19415" lon="1.37409">
        <ele>137.1</ele>
        <time>2021-11-21T14:01:15Z</time>
      </trkpt>
      <trkpt lat="44.19414" lon="1.3741">
        <ele>137.2</ele>
        <time>2021-11-21T14:01:17Z</time>
      </trkpt>
      <trkpt lat="44.19414" lon="1.37412">
        <ele>137.2</ele>
        <time>2021-11-21T14:01:18Z</time>
      </trkpt>
      <trkpt lat="44.19413" lon="1.37413">
        <ele>137.3</ele>
        <time>2021-11-21T14:01:20Z</time>
      </trkpt>
      <trkpt lat="44.19412" lon="1.37414">
        <ele>137.4</ele>
        <time>2021-11-21T14:01:21Z</time>
      </trkpt>
      <trkpt lat="44.19412" lon="1.37416">
        <ele>137.4</ele>
        <time>2021-11-21T14:01:22Z</time>
      </trkpt>
      <trkpt lat="44.19411" lon="1.37417">
        <ele>137.5</ele>
        <time>2021-11-21T14:01:24Z</time>
      </trkpt>
      <trkpt lat="44.19411" lon="1.37418">
        <ele>137.5</ele>
        <time>2021-11-21T14:01:25Z</time>
      </trkpt>
      <trkpt lat="44.19411" lon="1.3742">
        <ele>137.6</ele>
        <time>2021-11-21T14:01:27Z</time>
      </trkpt>
      <trkpt lat="44.19411" lon="1.37422">
        <ele>137.7</ele>
        <time>2021-11-21T14:01:28Z</time>
      </trkpt>
      <trkpt lat="44.19411" lon="1.37423">
        <ele>137.7</ele>
        <time>2021-11-21T14:01:29Z</time>
      </trkpt>
      <trkpt lat="44.19411" lon="1.37425">
        <ele>137.9</ele>
        <time>2021-11-21T14:01:31Z</time>
      </trkpt>
      <trkpt lat="44.1941" lon="1.37427">
        <ele>137.9</ele>
        <time>2021-11-21T14:01:32Z</time>
      </trkpt>
      <trkpt lat="44.1941" lon="1.37428">
        <ele>138</ele>
        <time>2021-11-21T14:01:34Z</time>
      </trkpt>
      <trkpt lat="44.19409" lon="1.3743">
        <ele>138.1</ele>
        <time>2021-11-21T14:01:35Z</time>
      </trkpt>
      <trkpt lat="44.19409" lon="1.37431">
        <ele>138.1</ele>
        <time>2021-11-21T14:01:36Z</time>
      </trkpt>
      <trkpt lat="44.19408" lon="1.37433">
        <ele>138.2</ele>
        <time>2021-11-21T14:01:38Z</time>
      </trkpt>
      <trkpt lat="44.19408" lon="1.37434">
        <ele>138.3</ele>
        <time>2021-11-21T14:01:39Z</time>
      </trkpt>
      <trkpt lat="44.19407" lon="1.37435">
        <ele>138.4</ele>
        <time>2021-11-21T14:01:40Z</time>
      </trkpt>
      <trkpt lat="44.19406" lon="1.37438">
        <ele>138.5</ele>
        <time>2021-11-21T14:01:42Z</time>
      </trkpt>
      <trkpt lat="44.19406" lon="1.37439">
        <ele>138.5</ele>
        <time>2021-11-21T14:01:43Z</time>
      </trkpt>
      <trkpt lat="44.19406" lon="1.37441">
        <ele>138.6</ele>
        <time>2021-11-21T14:01:45Z</time>
      </trkpt>
      <trkpt lat="44.19405" lon="1.37442">
        <ele>138.7</ele>
        <time>2021-11-21T14:01:46Z</time>
      </trkpt>
      <trkpt lat="44.19404" lon="1.37443">
        <ele>138.8</ele>
        <time>2021-11-21T14:01:48Z</time>
      </trkpt>
      <trkpt lat="44.19403" lon="1.37444">
        <ele>138.8</ele>
        <time>2021-11-21T14:01:50Z</time>
      </trkpt>
      <trkpt lat="44.19402" lon="1.37445">
        <ele>138.8</ele>
        <time>2021-11-21T14:01:51Z</time>
      </trkpt>
      <trkpt lat="44.19401" lon="1.37446">
        <ele>138.9</ele>
        <time>2021-11-21T14:01:53Z</time>
      </trkpt>
      <trkpt lat="44.19401" lon="1.37447">
        <ele>139</ele>
        <time>2021-11-21T14:01:54Z</time>
      </trkpt>
      <trkpt lat="44.19401" lon="1.37448">
        <ele>139</ele>
        <time>2021-11-21T14:01:55Z</time>
      </trkpt>
      <trkpt lat="44.194" lon="1.3745">
        <ele>139.1</ele>
        <time>2021-11-21T14:01:57Z</time>
      </trkpt>
      <trkpt lat="44.194" lon="1.37451">
        <ele>139.1</ele>
        <time>2021-11-21T14:01:58Z</time>
      </trkpt>
      <trkpt lat="44.194" lon="1.37451">
        <ele>139.1</ele>
        <time>2021-11-21T14:01:59Z</time>
      </trkpt>
      <trkpt lat="44.194" lon="1.37452">
        <ele>139.2</ele>
        <time>2021-11-21T14:02:00Z</time>
      </trkpt>
      <trkpt lat="44.194" lon="1.37454">
        <ele>139.2</ele>
        <time>2021-11-21T14:02:02Z</time>
      </trkpt>
      <trkpt lat="44.194" lon="1.37455">
        <ele>139.2</ele>
        <time>2021-11-21T14:02:03Z</time>
      </trkpt>
      <trkpt lat="44.194" lon="1.37456">
        <ele>139.2</ele>
        <time>2021-11-21T14:02:05Z</time>
      </trkpt>
      <trkpt lat="44.194" lon="1.37457">
        <ele>139.3</ele>
        <time>2021-11-21T14:02:06Z</time>
      </trkpt>
      <trkpt lat="44.194" lon="1.37458">
        <ele>139.3</ele>
        <time>2021-11-21T14:02:07Z</time>
      </trkpt>
      <trkpt lat="44.194" lon="1.37459">
        <ele>139.4</ele>
        <time>2021-11-21T14:02:08Z</time>
      </trkpt>
      <trkpt lat="44.194" lon="1.37461">
        <ele>139.4</ele>
        <time>2021-11-21T14:02:10Z</time>
      </trkpt>
      <trkpt lat="44.194" lon="1.37462">
        <ele>139.5</ele>
        <time>2021-11-21T14:02:11Z</time>
      </trkpt>
      <trkpt lat="44.19399" lon="1.37463">
        <ele>139.5</ele>
        <time>2021-11-21T14:02:13Z</time>
      </trkpt>
      <trkpt lat="44.19399" lon="1.37464">
        <ele>139.5</ele>
        <time>2021-11-21T14:02:14Z</time>
      </trkpt>
      <trkpt lat="44.19399" lon="1.37466">
        <ele>139.6</ele>
        <time>2021-11-21T14:02:16Z</time>
      </trkpt>
      <trkpt lat="44.19399" lon="1.37467">
        <ele>139.7</ele>
        <time>2021-11-21T14:02:17Z</time>
      </trkpt>
      <trkpt lat="44.19399" lon="1.37468">
        <ele>139.7</ele>
        <time>2021-11-21T14:02:18Z</time>
      </trkpt>
      <trkpt lat="44.19398" lon="1.3747">
        <ele>139.7</ele>
        <time>2021-11-21T14:02:20Z</time>
      </trkpt>
      <trkpt lat="44.19399" lon="1.37471">
        <ele>139.8</ele>
        <time>2021-11-21T14:02:21Z</time>
      </trkpt>
      <trkpt lat="44.194" lon="1.37472">
        <ele>139.9</ele>
        <time>2021-11-21T14:02:23Z</time>
      </trkpt>
      <trkpt lat="44.19398" lon="1.37477">
        <ele>140.1</ele>
        <time>2021-11-21T14:02:24Z</time>
      </trkpt>
      <trkpt lat="44.19397" lon="1.37479">
        <ele>140.2</ele>
        <time>2021-11-21T14:02:25Z</time>
      </trkpt>
      <trkpt lat="44.19396" lon="1.37481">
        <ele>140.2</ele>
        <time>2021-11-21T14:02:27Z</time>
      </trkpt>
      <trkpt lat="44.19396" lon="1.37482">
        <ele>140.3</ele>
        <time>2021-11-21T14:02:28Z</time>
      </trkpt>
      <trkpt lat="44.19395" lon="1.37483">
        <ele>140.3</ele>
        <time>2021-11-21T14:02:30Z</time>
      </trkpt>
      <trkpt lat="44.19395" lon="1.37485">
        <ele>140.4</ele>
        <time>2021-11-21T14:02:32Z</time>
      </trkpt>
      <trkpt lat="44.19395" lon="1.37485">
        <ele>140.3</ele>
        <time>2021-11-21T14:02:33Z</time>
      </trkpt>
      <trkpt lat="44.19395" lon="1.37486">
        <ele>140.4</ele>
        <time>2021-11-21T14:02:35Z</time>
      </trkpt>
      <trkpt lat="44.19395" lon="1.37487">
        <ele>140.4</ele>
        <time>2021-11-21T14:02:36Z</time>
      </trkpt>
      <trkpt lat="44.19395" lon="1.37488">
        <ele>140.5</ele>
        <time>2021-11-21T14:02:37Z</time>
      </trkpt>
      <trkpt lat="44.19395" lon="1.37488">
        <ele>140.5</ele>
        <time>2021-11-21T14:02:39Z</time>
      </trkpt>
      <trkpt lat="44.19395" lon="1.37488">
        <ele>140.4</ele>
        <time>2021-11-21T14:02:40Z</time>
      </trkpt>
      <trkpt lat="44.19394" lon="1.37488">
        <ele>140.4</ele>
        <time>2021-11-21T14:02:42Z</time>
      </trkpt>
      <trkpt lat="44.19394" lon="1.37488">
        <ele>140.5</ele>
        <time>2021-11-21T14:02:43Z</time>
      </trkpt>
      <trkpt lat="44.19394" lon="1.37488">
        <ele>140.5</ele>
        <time>2021-11-21T14:02:44Z</time>
      </trkpt>
      <trkpt lat="44.19394" lon="1.37488">
        <ele>140.5</ele>
        <time>2021-11-21T14:02:45Z</time>
      </trkpt>
      <trkpt lat="44.19394" lon="1.37488">
        <ele>140.4</ele>
        <time>2021-11-21T14:02:47Z</time>
      </trkpt>
      <trkpt lat="44.19394" lon="1.37488">
        <ele>140.4</ele>
        <time>2021-11-21T14:02:49Z</time>
      </trkpt>
      <trkpt lat="44.19394" lon="1.37488">
        <ele>140.4</ele>
        <time>2021-11-21T14:02:50Z</time>
      </trkpt>
      <trkpt lat="44.19393" lon="1.37488">
        <ele>140.4</ele>
        <time>2021-11-21T14:02:51Z</time>
      </trkpt>
      <trkpt lat="44.19393" lon="1.37489">
        <ele>140.4</ele>
        <time>2021-11-21T14:02:53Z</time>
      </trkpt>
      <trkpt lat="44.19393" lon="1.37489">
        <ele>140.4</ele>
        <time>2021-11-21T14:02:55Z</time>
      </trkpt>
      <trkpt lat="44.19393" lon="1.37489">
        <ele>140.4</ele>
        <time>2021-11-21T14:02:56Z</time>
      </trkpt>
      <trkpt lat="44.19393" lon="1.37489">
        <ele>140.4</ele>
        <time>2021-11-21T14:02:57Z</time>
      </trkpt>
      <trkpt lat="44.19393" lon="1.37489">
        <ele>140.4</ele>
        <time>2021-11-21T14:02:58Z</time>
      </trkpt>
      <trkpt lat="44.19393" lon="1.37489">
        <ele>140.4</ele>
        <time>2021-11-21T14:02:59Z</time>
      </trkpt>
      <trkpt lat="44.19392" lon="1.37489">
        <ele>140.4</ele>
        <time>2021-11-21T14:03:01Z</time>
      </trkpt>
      <trkpt lat="44.19392" lon="1.37489">
        <ele>140.4</ele>
        <time>2021-11-21T14:03:02Z</time>
      </trkpt>
      <trkpt lat="44.19393" lon="1.37493">
        <ele>140.5</ele>
        <time>2021-11-21T14:03:03Z</time>
      </trkpt>
      <trkpt lat="44.19393" lon="1.37494">
        <ele>140.6</ele>
        <time>2021-11-21T14:03:04Z</time>
      </trkpt>
      <trkpt lat="44.19392" lon="1.37497">
        <ele>140.7</ele>
        <time>2021-11-21T14:03:06Z</time>
      </trkpt>
      <trkpt lat="44.19392" lon="1.37498">
        <ele>140.7</ele>
        <time>2021-11-21T14:03:07Z</time>
      </trkpt>
      <trkpt lat="44.19392" lon="1.375">
        <ele>140.8</ele>
        <time>2021-11-21T14:03:08Z</time>
      </trkpt>
      <trkpt lat="44.19391" lon="1.37502">
        <ele>140.9</ele>
        <time>2021-11-21T14:03:10Z</time>
      </trkpt>
      <trkpt lat="44.19391" lon="1.37504">
        <ele>140.9</ele>
        <time>2021-11-21T14:03:11Z</time>
      </trkpt>
      <trkpt lat="44.19391" lon="1.37505">
        <ele>141</ele>
        <time>2021-11-21T14:03:12Z</time>
      </trkpt>
      <trkpt lat="44.1939" lon="1.37506">
        <ele>141</ele>
        <time>2021-11-21T14:03:13Z</time>
      </trkpt>
      <trkpt lat="44.1939" lon="1.37508">
        <ele>141</ele>
        <time>2021-11-21T14:03:15Z</time>
      </trkpt>
      <trkpt lat="44.19389" lon="1.37509">
        <ele>141.1</ele>
        <time>2021-11-21T14:03:16Z</time>
      </trkpt>
      <trkpt lat="44.19389" lon="1.37511">
        <ele>141.1</ele>
        <time>2021-11-21T14:03:17Z</time>
      </trkpt>
      <trkpt lat="44.19388" lon="1.37513">
        <ele>141.2</ele>
        <time>2021-11-21T14:03:18Z</time>
      </trkpt>
      <trkpt lat="44.19388" lon="1.37515">
        <ele>141.2</ele>
        <time>2021-11-21T14:03:20Z</time>
      </trkpt>
      <trkpt lat="44.19387" lon="1.37516">
        <ele>141.3</ele>
        <time>2021-11-21T14:03:21Z</time>
      </trkpt>
      <trkpt lat="44.19387" lon="1.37518">
        <ele>141.4</ele>
        <time>2021-11-21T14:03:22Z</time>
      </trkpt>
      <trkpt lat="44.19386" lon="1.37519">
        <ele>141.4</ele>
        <time>2021-11-21T14:03:24Z</time>
      </trkpt>
      <trkpt lat="44.19386" lon="1.37521">
        <ele>141.5</ele>
        <time>2021-11-21T14:03:25Z</time>
      </trkpt>
      <trkpt lat="44.19385" lon="1.37522">
        <ele>141.5</ele>
        <time>2021-11-21T14:03:26Z</time>
      </trkpt>
      <trkpt lat="44.19384" lon="1.37524">
        <ele>141.5</ele>
        <time>2021-11-21T14:03:28Z</time>
      </trkpt>
      <trkpt lat="44.19384" lon="1.37526">
        <ele>141.6</ele>
        <time>2021-11-21T14:03:29Z</time>
      </trkpt>
      <trkpt lat="44.19383" lon="1.37527">
        <ele>141.6</ele>
        <time>2021-11-21T14:03:31Z</time>
      </trkpt>
      <trkpt lat="44.19383" lon="1.37529">
        <ele>141.7</ele>
        <time>2021-11-21T14:03:32Z</time>
      </trkpt>
      <trkpt lat="44.19382" lon="1.3753">
        <ele>141.7</ele>
        <time>2021-11-21T14:03:33Z</time>
      </trkpt>
      <trkpt lat="44.19382" lon="1.37533">
        <ele>141.8</ele>
        <time>2021-11-21T14:03:34Z</time>
      </trkpt>
      <trkpt lat="44.19381" lon="1.37535">
        <ele>141.9</ele>
        <time>2021-11-21T14:03:36Z</time>
      </trkpt>
      <trkpt lat="44.19381" lon="1.37536">
        <ele>141.9</ele>
        <time>2021-11-21T14:03:37Z</time>
      </trkpt>
      <trkpt lat="44.1938" lon="1.37539">
        <ele>142</ele>
        <time>2021-11-21T14:03:39Z</time>
      </trkpt>
      <trkpt lat="44.1938" lon="1.3754">
        <ele>142</ele>
        <time>2021-11-21T14:03:40Z</time>
      </trkpt>
      <trkpt lat="44.19379" lon="1.37542">
        <ele>142.1</ele>
        <time>2021-11-21T14:03:42Z</time>
      </trkpt>
      <trkpt lat="44.19378" lon="1.37543">
        <ele>142.1</ele>
        <time>2021-11-21T14:03:43Z</time>
      </trkpt>
      <trkpt lat="44.19378" lon="1.37544">
        <ele>142.1</ele>
        <time>2021-11-21T14:03:44Z</time>
      </trkpt>
      <trkpt lat="44.19377" lon="1.37546">
        <ele>142.2</ele>
        <time>2021-11-21T14:03:45Z</time>
      </trkpt>
      <trkpt lat="44.19377" lon="1.37547">
        <ele>142.3</ele>
        <time>2021-11-21T14:03:47Z</time>
      </trkpt>
      <trkpt lat="44.19377" lon="1.37549">
        <ele>142.3</ele>
        <time>2021-11-21T14:03:48Z</time>
      </trkpt>
      <trkpt lat="44.19376" lon="1.3755">
        <ele>142.3</ele>
        <time>2021-11-21T14:03:49Z</time>
      </trkpt>
      <trkpt lat="44.19376" lon="1.37551">
        <ele>142.4</ele>
        <time>2021-11-21T14:03:50Z</time>
      </trkpt>
      <trkpt lat="44.19376" lon="1.37553">
        <ele>142.4</ele>
        <time>2021-11-21T14:03:51Z</time>
      </trkpt>
      <trkpt lat="44.19376" lon="1.37555">
        <ele>142.4</ele>
        <time>2021-11-21T14:03:53Z</time>
      </trkpt>
      <trkpt lat="44.19376" lon="1.37557">
        <ele>142.4</ele>
        <time>2021-11-21T14:03:54Z</time>
      </trkpt>
      <trkpt lat="44.19376" lon="1.37558">
        <ele>142.5</ele>
        <time>2021-11-21T14:03:55Z</time>
      </trkpt>
      <trkpt lat="44.19375" lon="1.37559">
        <ele>142.5</ele>
        <time>2021-11-21T14:03:56Z</time>
      </trkpt>
      <trkpt lat="44.19374" lon="1.37561">
        <ele>142.6</ele>
        <time>2021-11-21T14:03:58Z</time>
      </trkpt>
      <trkpt lat="44.19374" lon="1.37563">
        <ele>142.6</ele>
        <time>2021-11-21T14:03:59Z</time>
      </trkpt>
      <trkpt lat="44.19373" lon="1.37564">
        <ele>142.7</ele>
        <time>2021-11-21T14:04:00Z</time>
      </trkpt>
      <trkpt lat="44.19372" lon="1.37566">
        <ele>142.8</ele>
        <time>2021-11-21T14:04:02Z</time>
      </trkpt>
      <trkpt lat="44.19371" lon="1.37567">
        <ele>142.8</ele>
        <time>2021-11-21T14:04:03Z</time>
      </trkpt>
      <trkpt lat="44.1937" lon="1.37569">
        <ele>142.9</ele>
        <time>2021-11-21T14:04:05Z</time>
      </trkpt>
      <trkpt lat="44.19369" lon="1.3757">
        <ele>142.9</ele>
        <time>2021-11-21T14:04:06Z</time>
      </trkpt>
      <trkpt lat="44.19368" lon="1.37571">
        <ele>143</ele>
        <time>2021-11-21T14:04:07Z</time>
      </trkpt>
      <trkpt lat="44.19367" lon="1.37572">
        <ele>143</ele>
        <time>2021-11-21T14:04:08Z</time>
      </trkpt>
      <trkpt lat="44.19366" lon="1.37573">
        <ele>143.1</ele>
        <time>2021-11-21T14:04:09Z</time>
      </trkpt>
      <trkpt lat="44.19365" lon="1.37574">
        <ele>143.1</ele>
        <time>2021-11-21T14:04:10Z</time>
      </trkpt>
      <trkpt lat="44.19365" lon="1.37575">
        <ele>143.1</ele>
        <time>2021-11-21T14:04:12Z</time>
      </trkpt>
      <trkpt lat="44.19364" lon="1.37576">
        <ele>143.2</ele>
        <time>2021-11-21T14:04:13Z</time>
      </trkpt>
      <trkpt lat="44.19363" lon="1.37577">
        <ele>143.2</ele>
        <time>2021-11-21T14:04:14Z</time>
      </trkpt>
      <trkpt lat="44.19362" lon="1.37577">
        <ele>143.3</ele>
        <time>2021-11-21T14:04:15Z</time>
      </trkpt>
      <trkpt lat="44.19361" lon="1.37578">
        <ele>143.3</ele>
        <time>2021-11-21T14:04:16Z</time>
      </trkpt>
      <trkpt lat="44.1936" lon="1.37579">
        <ele>143.4</ele>
        <time>2021-11-21T14:04:18Z</time>
      </trkpt>
      <trkpt lat="44.19359" lon="1.3758">
        <ele>143.4</ele>
        <time>2021-11-21T14:04:19Z</time>
      </trkpt>
      <trkpt lat="44.19358" lon="1.37581">
        <ele>143.4</ele>
        <time>2021-11-21T14:04:20Z</time>
      </trkpt>
      <trkpt lat="44.19357" lon="1.37583">
        <ele>143.5</ele>
        <time>2021-11-21T14:04:22Z</time>
      </trkpt>
      <trkpt lat="44.19357" lon="1.37584">
        <ele>143.6</ele>
        <time>2021-11-21T14:04:23Z</time>
      </trkpt>
      <trkpt lat="44.19356" lon="1.37586">
        <ele>143.6</ele>
        <time>2021-11-21T14:04:24Z</time>
      </trkpt>
      <trkpt lat="44.19356" lon="1.37587">
        <ele>143.6</ele>
        <time>2021-11-21T14:04:26Z</time>
      </trkpt>
      <trkpt lat="44.19355" lon="1.37589">
        <ele>143.7</ele>
        <time>2021-11-21T14:04:27Z</time>
      </trkpt>
      <trkpt lat="44.19355" lon="1.37591">
        <ele>143.7</ele>
        <time>2021-11-21T14:04:28Z</time>
      </trkpt>
      <trkpt lat="44.19355" lon="1.37593">
        <ele>143.8</ele>
        <time>2021-11-21T14:04:30Z</time>
      </trkpt>
      <trkpt lat="44.19355" lon="1.37596">
        <ele>143.8</ele>
        <time>2021-11-21T14:04:31Z</time>
      </trkpt>
      <trkpt lat="44.19355" lon="1.37597">
        <ele>143.9</ele>
        <time>2021-11-21T14:04:32Z</time>
      </trkpt>
      <trkpt lat="44.19355" lon="1.37599">
        <ele>143.9</ele>
        <time>2021-11-21T14:04:33Z</time>
      </trkpt>
      <trkpt lat="44.19354" lon="1.37602">
        <ele>144</ele>
        <time>2021-11-21T14:04:34Z</time>
      </trkpt>
      <trkpt lat="44.19354" lon="1.37603">
        <ele>144</ele>
        <time>2021-11-21T14:04:36Z</time>
      </trkpt>
      <trkpt lat="44.19353" lon="1.37604">
        <ele>144</ele>
        <time>2021-11-21T14:04:37Z</time>
      </trkpt>
      <trkpt lat="44.19353" lon="1.37605">
        <ele>144.1</ele>
        <time>2021-11-21T14:04:38Z</time>
      </trkpt>
      <trkpt lat="44.19352" lon="1.37606">
        <ele>144.1</ele>
        <time>2021-11-21T14:04:39Z</time>
      </trkpt>
      <trkpt lat="44.19351" lon="1.37607">
        <ele>144.1</ele>
        <time>2021-11-21T14:04:40Z</time>
      </trkpt>
      <trkpt lat="44.1935" lon="1.37608">
        <ele>144.2</ele>
        <time>2021-11-21T14:04:41Z</time>
      </trkpt>
      <trkpt lat="44.19349" lon="1.3761">
        <ele>144.2</ele>
        <time>2021-11-21T14:04:43Z</time>
      </trkpt>
      <trkpt lat="44.19349" lon="1.37611">
        <ele>144.2</ele>
        <time>2021-11-21T14:04:44Z</time>
      </trkpt>
      <trkpt lat="44.19348" lon="1.37612">
        <ele>144.3</ele>
        <time>2021-11-21T14:04:45Z</time>
      </trkpt>
      <trkpt lat="44.19346" lon="1.37614">
        <ele>144.3</ele>
        <time>2021-11-21T14:04:47Z</time>
      </trkpt>
      <trkpt lat="44.19346" lon="1.37615">
        <ele>144.4</ele>
        <time>2021-11-21T14:04:48Z</time>
      </trkpt>
      <trkpt lat="44.19345" lon="1.37616">
        <ele>144.4</ele>
        <time>2021-11-21T14:04:49Z</time>
      </trkpt>
      <trkpt lat="44.19344" lon="1.37617">
        <ele>144.5</ele>
        <time>2021-11-21T14:04:51Z</time>
      </trkpt>
      <trkpt lat="44.19343" lon="1.37618">
        <ele>144.5</ele>
        <time>2021-11-21T14:04:52Z</time>
      </trkpt>
      <trkpt lat="44.19342" lon="1.37619">
        <ele>144.5</ele>
        <time>2021-11-21T14:04:53Z</time>
      </trkpt>
      <trkpt lat="44.19341" lon="1.3762">
        <ele>144.6</ele>
        <time>2021-11-21T14:04:54Z</time>
      </trkpt>
      <trkpt lat="44.1934" lon="1.37622">
        <ele>144.6</ele>
        <time>2021-11-21T14:04:56Z</time>
      </trkpt>
      <trkpt lat="44.1934" lon="1.37623">
        <ele>144.6</ele>
        <time>2021-11-21T14:04:57Z</time>
      </trkpt>
      <trkpt lat="44.19339" lon="1.37624">
        <ele>144.7</ele>
        <time>2021-11-21T14:04:58Z</time>
      </trkpt>
      <trkpt lat="44.19339" lon="1.37627">
        <ele>144.7</ele>
        <time>2021-11-21T14:04:59Z</time>
      </trkpt>
      <trkpt lat="44.19338" lon="1.37628">
        <ele>144.8</ele>
        <time>2021-11-21T14:05:01Z</time>
      </trkpt>
      <trkpt lat="44.19338" lon="1.37629">
        <ele>144.8</ele>
        <time>2021-11-21T14:05:02Z</time>
      </trkpt>
      <trkpt lat="44.19337" lon="1.37631">
        <ele>144.8</ele>
        <time>2021-11-21T14:05:03Z</time>
      </trkpt>
      <trkpt lat="44.19337" lon="1.37632">
        <ele>144.9</ele>
        <time>2021-11-21T14:05:04Z</time>
      </trkpt>
      <trkpt lat="44.19336" lon="1.37634">
        <ele>144.9</ele>
        <time>2021-11-21T14:05:06Z</time>
      </trkpt>
      <trkpt lat="44.19336" lon="1.37636">
        <ele>144.9</ele>
        <time>2021-11-21T14:05:07Z</time>
      </trkpt>
      <trkpt lat="44.19336" lon="1.37637">
        <ele>145</ele>
        <time>2021-11-21T14:05:08Z</time>
      </trkpt>
      <trkpt lat="44.19335" lon="1.37639">
        <ele>145</ele>
        <time>2021-11-21T14:05:09Z</time>
      </trkpt>
      <trkpt lat="44.19335" lon="1.37641">
        <ele>145.1</ele>
        <time>2021-11-21T14:05:11Z</time>
      </trkpt>
      <trkpt lat="44.19334" lon="1.37643">
        <ele>145.1</ele>
        <time>2021-11-21T14:05:12Z</time>
      </trkpt>
      <trkpt lat="44.19333" lon="1.37645">
        <ele>145.2</ele>
        <time>2021-11-21T14:05:13Z</time>
      </trkpt>
      <trkpt lat="44.19333" lon="1.37646">
        <ele>145.2</ele>
        <time>2021-11-21T14:05:15Z</time>
      </trkpt>
      <trkpt lat="44.19332" lon="1.37647">
        <ele>145.2</ele>
        <time>2021-11-21T14:05:16Z</time>
      </trkpt>
      <trkpt lat="44.19332" lon="1.37648">
        <ele>145.3</ele>
        <time>2021-11-21T14:05:17Z</time>
      </trkpt>
      <trkpt lat="44.19331" lon="1.3765">
        <ele>145.3</ele>
        <time>2021-11-21T14:05:18Z</time>
      </trkpt>
      <trkpt lat="44.1933" lon="1.37651">
        <ele>145.3</ele>
        <time>2021-11-21T14:05:20Z</time>
      </trkpt>
      <trkpt lat="44.19329" lon="1.37654">
        <ele>145.4</ele>
        <time>2021-11-21T14:05:21Z</time>
      </trkpt>
      <trkpt lat="44.19329" lon="1.37654">
        <ele>145.4</ele>
        <time>2021-11-21T14:05:22Z</time>
      </trkpt>
      <trkpt lat="44.19328" lon="1.37655">
        <ele>145.4</ele>
        <time>2021-11-21T14:05:23Z</time>
      </trkpt>
      <trkpt lat="44.19328" lon="1.37657">
        <ele>145.5</ele>
        <time>2021-11-21T14:05:24Z</time>
      </trkpt>
      <trkpt lat="44.19327" lon="1.37658">
        <ele>145.5</ele>
        <time>2021-11-21T14:05:25Z</time>
      </trkpt>
      <trkpt lat="44.19326" lon="1.37659">
        <ele>145.6</ele>
        <time>2021-11-21T14:05:27Z</time>
      </trkpt>
      <trkpt lat="44.19325" lon="1.37661">
        <ele>145.6</ele>
        <time>2021-11-21T14:05:28Z</time>
      </trkpt>
      <trkpt lat="44.19325" lon="1.37662">
        <ele>145.6</ele>
        <time>2021-11-21T14:05:29Z</time>
      </trkpt>
      <trkpt lat="44.19324" lon="1.37664">
        <ele>145.7</ele>
        <time>2021-11-21T14:05:31Z</time>
      </trkpt>
      <trkpt lat="44.19323" lon="1.37667">
        <ele>145.8</ele>
        <time>2021-11-21T14:05:32Z</time>
      </trkpt>
      <trkpt lat="44.19322" lon="1.37668">
        <ele>145.8</ele>
        <time>2021-11-21T14:05:34Z</time>
      </trkpt>
      <trkpt lat="44.19322" lon="1.37669">
        <ele>145.8</ele>
        <time>2021-11-21T14:05:35Z</time>
      </trkpt>
      <trkpt lat="44.19321" lon="1.3767">
        <ele>145.8</ele>
        <time>2021-11-21T14:05:36Z</time>
      </trkpt>
      <trkpt lat="44.1932" lon="1.37671">
        <ele>145.9</ele>
        <time>2021-11-21T14:05:37Z</time>
      </trkpt>
      <trkpt lat="44.19319" lon="1.37673">
        <ele>145.9</ele>
        <time>2021-11-21T14:05:39Z</time>
      </trkpt>
      <trkpt lat="44.19318" lon="1.37675">
        <ele>146</ele>
        <time>2021-11-21T14:05:40Z</time>
      </trkpt>
      <trkpt lat="44.19317" lon="1.37676">
        <ele>146.1</ele>
        <time>2021-11-21T14:05:42Z</time>
      </trkpt>
      <trkpt lat="44.19316" lon="1.37677">
        <ele>146.1</ele>
        <time>2021-11-21T14:05:43Z</time>
      </trkpt>
      <trkpt lat="44.19315" lon="1.37678">
        <ele>146.1</ele>
        <time>2021-11-21T14:05:45Z</time>
      </trkpt>
      <trkpt lat="44.19314" lon="1.3768">
        <ele>146.2</ele>
        <time>2021-11-21T14:05:46Z</time>
      </trkpt>
      <trkpt lat="44.19313" lon="1.37681">
        <ele>146.2</ele>
        <time>2021-11-21T14:05:48Z</time>
      </trkpt>
      <trkpt lat="44.19312" lon="1.37682">
        <ele>146.3</ele>
        <time>2021-11-21T14:05:49Z</time>
      </trkpt>
      <trkpt lat="44.19311" lon="1.37683">
        <ele>146.3</ele>
        <time>2021-11-21T14:05:50Z</time>
      </trkpt>
      <trkpt lat="44.1931" lon="1.37684">
        <ele>146.3</ele>
        <time>2021-11-21T14:05:51Z</time>
      </trkpt>
      <trkpt lat="44.19309" lon="1.37687">
        <ele>146.4</ele>
        <time>2021-11-21T14:05:53Z</time>
      </trkpt>
      <trkpt lat="44.19309" lon="1.37688">
        <ele>146.4</ele>
        <time>2021-11-21T14:05:54Z</time>
      </trkpt>
      <trkpt lat="44.19308" lon="1.37689">
        <ele>146.5</ele>
        <time>2021-11-21T14:05:55Z</time>
      </trkpt>
      <trkpt lat="44.19308" lon="1.37692">
        <ele>146.5</ele>
        <time>2021-11-21T14:05:56Z</time>
      </trkpt>
      <trkpt lat="44.19307" lon="1.37693">
        <ele>146.6</ele>
        <time>2021-11-21T14:05:58Z</time>
      </trkpt>
      <trkpt lat="44.19307" lon="1.37694">
        <ele>146.6</ele>
        <time>2021-11-21T14:05:59Z</time>
      </trkpt>
      <trkpt lat="44.19307" lon="1.37696">
        <ele>146.6</ele>
        <time>2021-11-21T14:06:00Z</time>
      </trkpt>
      <trkpt lat="44.19307" lon="1.37698">
        <ele>146.7</ele>
        <time>2021-11-21T14:06:01Z</time>
      </trkpt>
      <trkpt lat="44.19307" lon="1.377">
        <ele>146.7</ele>
        <time>2021-11-21T14:06:03Z</time>
      </trkpt>
      <trkpt lat="44.19306" lon="1.37703">
        <ele>146.8</ele>
        <time>2021-11-21T14:06:04Z</time>
      </trkpt>
      <trkpt lat="44.19306" lon="1.37704">
        <ele>146.8</ele>
        <time>2021-11-21T14:06:05Z</time>
      </trkpt>
      <trkpt lat="44.19306" lon="1.37705">
        <ele>146.9</ele>
        <time>2021-11-21T14:06:06Z</time>
      </trkpt>
      <trkpt lat="44.19305" lon="1.37708">
        <ele>146.9</ele>
        <time>2021-11-21T14:06:08Z</time>
      </trkpt>
      <trkpt lat="44.19305" lon="1.37709">
        <ele>147</ele>
        <time>2021-11-21T14:06:09Z</time>
      </trkpt>
      <trkpt lat="44.19305" lon="1.3771">
        <ele>147</ele>
        <time>2021-11-21T14:06:10Z</time>
      </trkpt>
      <trkpt lat="44.19304" lon="1.37712">
        <ele>147</ele>
        <time>2021-11-21T14:06:11Z</time>
      </trkpt>
      <trkpt lat="44.19303" lon="1.37713">
        <ele>147.1</ele>
        <time>2021-11-21T14:06:13Z</time>
      </trkpt>
      <trkpt lat="44.19303" lon="1.37714">
        <ele>147.1</ele>
        <time>2021-11-21T14:06:14Z</time>
      </trkpt>
      <trkpt lat="44.19301" lon="1.37716">
        <ele>147.2</ele>
        <time>2021-11-21T14:06:16Z</time>
      </trkpt>
      <trkpt lat="44.193" lon="1.37718">
        <ele>147.2</ele>
        <time>2021-11-21T14:06:17Z</time>
      </trkpt>
      <trkpt lat="44.193" lon="1.37719">
        <ele>147.2</ele>
        <time>2021-11-21T14:06:18Z</time>
      </trkpt>
      <trkpt lat="44.19299" lon="1.37721">
        <ele>147.3</ele>
        <time>2021-11-21T14:06:20Z</time>
      </trkpt>
      <trkpt lat="44.19299" lon="1.37722">
        <ele>147.3</ele>
        <time>2021-11-21T14:06:21Z</time>
      </trkpt>
      <trkpt lat="44.19297" lon="1.37725">
        <ele>147.4</ele>
        <time>2021-11-21T14:06:22Z</time>
      </trkpt>
      <trkpt lat="44.19297" lon="1.37726">
        <ele>147.4</ele>
        <time>2021-11-21T14:06:24Z</time>
      </trkpt>
      <trkpt lat="44.19297" lon="1.37728">
        <ele>147.5</ele>
        <time>2021-11-21T14:06:25Z</time>
      </trkpt>
      <trkpt lat="44.19296" lon="1.37729">
        <ele>147.5</ele>
        <time>2021-11-21T14:06:26Z</time>
      </trkpt>
      <trkpt lat="44.19296" lon="1.3773">
        <ele>147.5</ele>
        <time>2021-11-21T14:06:27Z</time>
      </trkpt>
      <trkpt lat="44.19295" lon="1.37732">
        <ele>147.6</ele>
        <time>2021-11-21T14:06:29Z</time>
      </trkpt>
      <trkpt lat="44.19295" lon="1.37733">
        <ele>147.6</ele>
        <time>2021-11-21T14:06:30Z</time>
      </trkpt>
      <trkpt lat="44.19294" lon="1.37734">
        <ele>147.6</ele>
        <time>2021-11-21T14:06:31Z</time>
      </trkpt>
      <trkpt lat="44.19292" lon="1.37736">
        <ele>147.7</ele>
        <time>2021-11-21T14:06:32Z</time>
      </trkpt>
      <trkpt lat="44.19291" lon="1.37737">
        <ele>147.7</ele>
        <time>2021-11-21T14:06:34Z</time>
      </trkpt>
      <trkpt lat="44.19291" lon="1.37737">
        <ele>147.8</ele>
        <time>2021-11-21T14:06:35Z</time>
      </trkpt>
      <trkpt lat="44.19289" lon="1.37738">
        <ele>147.8</ele>
        <time>2021-11-21T14:06:36Z</time>
      </trkpt>
      <trkpt lat="44.19289" lon="1.37739">
        <ele>147.8</ele>
        <time>2021-11-21T14:06:38Z</time>
      </trkpt>
      <trkpt lat="44.19288" lon="1.37741">
        <ele>147.9</ele>
        <time>2021-11-21T14:06:39Z</time>
      </trkpt>
      <trkpt lat="44.19287" lon="1.37743">
        <ele>147.9</ele>
        <time>2021-11-21T14:06:40Z</time>
      </trkpt>
      <trkpt lat="44.19287" lon="1.37744">
        <ele>148</ele>
        <time>2021-11-21T14:06:42Z</time>
      </trkpt>
      <trkpt lat="44.19286" lon="1.37746">
        <ele>148</ele>
        <time>2021-11-21T14:06:43Z</time>
      </trkpt>
      <trkpt lat="44.19285" lon="1.37747">
        <ele>148.1</ele>
        <time>2021-11-21T14:06:44Z</time>
      </trkpt>
      <trkpt lat="44.19285" lon="1.37748">
        <ele>148.1</ele>
        <time>2021-11-21T14:06:45Z</time>
      </trkpt>
      <trkpt lat="44.19284" lon="1.37749">
        <ele>148.1</ele>
        <time>2021-11-21T14:06:46Z</time>
      </trkpt>
      <trkpt lat="44.19283" lon="1.37753">
        <ele>148.2</ele>
        <time>2021-11-21T14:06:47Z</time>
      </trkpt>
      <trkpt lat="44.19282" lon="1.37754">
        <ele>148.3</ele>
        <time>2021-11-21T14:06:49Z</time>
      </trkpt>
      <trkpt lat="44.19282" lon="1.37755">
        <ele>148.3</ele>
        <time>2021-11-21T14:06:50Z</time>
      </trkpt>
      <trkpt lat="44.19281" lon="1.37756">
        <ele>148.3</ele>
        <time>2021-11-21T14:06:51Z</time>
      </trkpt>
      <trkpt lat="44.1928" lon="1.37758">
        <ele>148.4</ele>
        <time>2021-11-21T14:06:52Z</time>
      </trkpt>
      <trkpt lat="44.1928" lon="1.3776">
        <ele>148.4</ele>
        <time>2021-11-21T14:06:54Z</time>
      </trkpt>
      <trkpt lat="44.19279" lon="1.37761">
        <ele>148.5</ele>
        <time>2021-11-21T14:06:55Z</time>
      </trkpt>
      <trkpt lat="44.19278" lon="1.37764">
        <ele>148.6</ele>
        <time>2021-11-21T14:06:56Z</time>
      </trkpt>
      <trkpt lat="44.19277" lon="1.37765">
        <ele>148.6</ele>
        <time>2021-11-21T14:06:58Z</time>
      </trkpt>
      <trkpt lat="44.19277" lon="1.37767">
        <ele>148.7</ele>
        <time>2021-11-21T14:06:59Z</time>
      </trkpt>
      <trkpt lat="44.19277" lon="1.37768">
        <ele>148.7</ele>
        <time>2021-11-21T14:07:00Z</time>
      </trkpt>
      <trkpt lat="44.19276" lon="1.37769">
        <ele>148.7</ele>
        <time>2021-11-21T14:07:01Z</time>
      </trkpt>
      <trkpt lat="44.19276" lon="1.3777">
        <ele>148.8</ele>
        <time>2021-11-21T14:07:02Z</time>
      </trkpt>
      <trkpt lat="44.19275" lon="1.37772">
        <ele>148.9</ele>
        <time>2021-11-21T14:07:04Z</time>
      </trkpt>
      <trkpt lat="44.19274" lon="1.37773">
        <ele>148.9</ele>
        <time>2021-11-21T14:07:06Z</time>
      </trkpt>
      <trkpt lat="44.19273" lon="1.37774">
        <ele>149</ele>
        <time>2021-11-21T14:07:07Z</time>
      </trkpt>
      <trkpt lat="44.19272" lon="1.37775">
        <ele>149</ele>
        <time>2021-11-21T14:07:08Z</time>
      </trkpt>
      <trkpt lat="44.19271" lon="1.37776">
        <ele>149.1</ele>
        <time>2021-11-21T14:07:10Z</time>
      </trkpt>
      <trkpt lat="44.1927" lon="1.37777">
        <ele>149.1</ele>
        <time>2021-11-21T14:07:11Z</time>
      </trkpt>
      <trkpt lat="44.1927" lon="1.37778">
        <ele>149.2</ele>
        <time>2021-11-21T14:07:12Z</time>
      </trkpt>
      <trkpt lat="44.1927" lon="1.3778">
        <ele>149.2</ele>
        <time>2021-11-21T14:07:13Z</time>
      </trkpt>
      <trkpt lat="44.1927" lon="1.37781">
        <ele>149.3</ele>
        <time>2021-11-21T14:07:15Z</time>
      </trkpt>
      <trkpt lat="44.1927" lon="1.37782">
        <ele>149.3</ele>
        <time>2021-11-21T14:07:16Z</time>
      </trkpt>
      <trkpt lat="44.1927" lon="1.37785">
        <ele>149.4</ele>
        <time>2021-11-21T14:07:17Z</time>
      </trkpt>
      <trkpt lat="44.19269" lon="1.37786">
        <ele>149.5</ele>
        <time>2021-11-21T14:07:19Z</time>
      </trkpt>
      <trkpt lat="44.19269" lon="1.37787">
        <ele>149.5</ele>
        <time>2021-11-21T14:07:20Z</time>
      </trkpt>
      <trkpt lat="44.19269" lon="1.37788">
        <ele>149.6</ele>
        <time>2021-11-21T14:07:21Z</time>
      </trkpt>
      <trkpt lat="44.19268" lon="1.37789">
        <ele>149.6</ele>
        <time>2021-11-21T14:07:22Z</time>
      </trkpt>
      <trkpt lat="44.19268" lon="1.37791">
        <ele>149.7</ele>
        <time>2021-11-21T14:07:23Z</time>
      </trkpt>
      <trkpt lat="44.19267" lon="1.37794">
        <ele>149.8</ele>
        <time>2021-11-21T14:07:25Z</time>
      </trkpt>
      <trkpt lat="44.19266" lon="1.37795">
        <ele>149.8</ele>
        <time>2021-11-21T14:07:26Z</time>
      </trkpt>
      <trkpt lat="44.19266" lon="1.37796">
        <ele>149.9</ele>
        <time>2021-11-21T14:07:27Z</time>
      </trkpt>
      <trkpt lat="44.19264" lon="1.37798">
        <ele>150</ele>
        <time>2021-11-21T14:07:29Z</time>
      </trkpt>
      <trkpt lat="44.19264" lon="1.37799">
        <ele>150</ele>
        <time>2021-11-21T14:07:30Z</time>
      </trkpt>
      <trkpt lat="44.19263" lon="1.378">
        <ele>150.1</ele>
        <time>2021-11-21T14:07:31Z</time>
      </trkpt>
      <trkpt lat="44.19262" lon="1.37802">
        <ele>150.2</ele>
        <time>2021-11-21T14:07:33Z</time>
      </trkpt>
      <trkpt lat="44.19261" lon="1.37803">
        <ele>150.3</ele>
        <time>2021-11-21T14:07:34Z</time>
      </trkpt>
      <trkpt lat="44.1926" lon="1.37805">
        <ele>150.3</ele>
        <time>2021-11-21T14:07:36Z</time>
      </trkpt>
      <trkpt lat="44.19259" lon="1.37806">
        <ele>150.4</ele>
        <time>2021-11-21T14:07:37Z</time>
      </trkpt>
      <trkpt lat="44.19257" lon="1.37808">
        <ele>150.6</ele>
        <time>2021-11-21T14:07:38Z</time>
      </trkpt>
      <trkpt lat="44.19257" lon="1.37809">
        <ele>150.6</ele>
        <time>2021-11-21T14:07:40Z</time>
      </trkpt>
      <trkpt lat="44.19256" lon="1.3781">
        <ele>150.7</ele>
        <time>2021-11-21T14:07:41Z</time>
      </trkpt>
      <trkpt lat="44.19256" lon="1.37811">
        <ele>150.7</ele>
        <time>2021-11-21T14:07:42Z</time>
      </trkpt>
      <trkpt lat="44.19255" lon="1.37812">
        <ele>150.8</ele>
        <time>2021-11-21T14:07:43Z</time>
      </trkpt>
      <trkpt lat="44.19255" lon="1.37814">
        <ele>150.9</ele>
        <time>2021-11-21T14:07:44Z</time>
      </trkpt>
      <trkpt lat="44.19254" lon="1.37815">
        <ele>150.9</ele>
        <time>2021-11-21T14:07:46Z</time>
      </trkpt>
      <trkpt lat="44.19254" lon="1.37816">
        <ele>151</ele>
        <time>2021-11-21T14:07:47Z</time>
      </trkpt>
      <trkpt lat="44.19253" lon="1.37818">
        <ele>151</ele>
        <time>2021-11-21T14:07:48Z</time>
      </trkpt>
      <trkpt lat="44.19253" lon="1.37819">
        <ele>151.1</ele>
        <time>2021-11-21T14:07:50Z</time>
      </trkpt>
      <trkpt lat="44.19252" lon="1.3782">
        <ele>151.1</ele>
        <time>2021-11-21T14:07:51Z</time>
      </trkpt>
      <trkpt lat="44.19252" lon="1.37821">
        <ele>151.2</ele>
        <time>2021-11-21T14:07:52Z</time>
      </trkpt>
      <trkpt lat="44.19251" lon="1.37823">
        <ele>151.3</ele>
        <time>2021-11-21T14:07:54Z</time>
      </trkpt>
      <trkpt lat="44.1925" lon="1.37824">
        <ele>151.3</ele>
        <time>2021-11-21T14:07:55Z</time>
      </trkpt>
      <trkpt lat="44.19249" lon="1.37826">
        <ele>151.4</ele>
        <time>2021-11-21T14:07:57Z</time>
      </trkpt>
      <trkpt lat="44.19248" lon="1.37827">
        <ele>151.5</ele>
        <time>2021-11-21T14:07:58Z</time>
      </trkpt>
      <trkpt lat="44.19248" lon="1.37828">
        <ele>151.6</ele>
        <time>2021-11-21T14:07:59Z</time>
      </trkpt>
      <trkpt lat="44.19247" lon="1.3783">
        <ele>151.7</ele>
        <time>2021-11-21T14:08:01Z</time>
      </trkpt>
      <trkpt lat="44.19246" lon="1.37831">
        <ele>151.8</ele>
        <time>2021-11-21T14:08:02Z</time>
      </trkpt>
      <trkpt lat="44.19245" lon="1.37833">
        <ele>151.8</ele>
        <time>2021-11-21T14:08:03Z</time>
      </trkpt>
      <trkpt lat="44.19244" lon="1.37834">
        <ele>151.9</ele>
        <time>2021-11-21T14:08:05Z</time>
      </trkpt>
      <trkpt lat="44.19244" lon="1.37835">
        <ele>152</ele>
        <time>2021-11-21T14:08:06Z</time>
      </trkpt>
      <trkpt lat="44.19244" lon="1.37837">
        <ele>152</ele>
        <time>2021-11-21T14:08:07Z</time>
      </trkpt>
      <trkpt lat="44.19243" lon="1.37839">
        <ele>152.1</ele>
        <time>2021-11-21T14:08:09Z</time>
      </trkpt>
      <trkpt lat="44.19243" lon="1.3784">
        <ele>152.2</ele>
        <time>2021-11-21T14:08:10Z</time>
      </trkpt>
      <trkpt lat="44.19242" lon="1.37841">
        <ele>152.3</ele>
        <time>2021-11-21T14:08:12Z</time>
      </trkpt>
      <trkpt lat="44.19242" lon="1.37843">
        <ele>152.3</ele>
        <time>2021-11-21T14:08:13Z</time>
      </trkpt>
      <trkpt lat="44.19241" lon="1.37844">
        <ele>152.4</ele>
        <time>2021-11-21T14:08:14Z</time>
      </trkpt>
      <trkpt lat="44.19241" lon="1.37845">
        <ele>152.5</ele>
        <time>2021-11-21T14:08:15Z</time>
      </trkpt>
      <trkpt lat="44.1924" lon="1.37847">
        <ele>152.6</ele>
        <time>2021-11-21T14:08:17Z</time>
      </trkpt>
      <trkpt lat="44.19239" lon="1.37849">
        <ele>152.7</ele>
        <time>2021-11-21T14:08:18Z</time>
      </trkpt>
      <trkpt lat="44.19238" lon="1.37851">
        <ele>152.8</ele>
        <time>2021-11-21T14:08:20Z</time>
      </trkpt>
      <trkpt lat="44.19238" lon="1.37852">
        <ele>152.8</ele>
        <time>2021-11-21T14:08:21Z</time>
      </trkpt>
      <trkpt lat="44.19237" lon="1.37854">
        <ele>153</ele>
        <time>2021-11-21T14:08:22Z</time>
      </trkpt>
      <trkpt lat="44.19236" lon="1.37857">
        <ele>153.1</ele>
        <time>2021-11-21T14:08:24Z</time>
      </trkpt>
      <trkpt lat="44.19235" lon="1.37858">
        <ele>153.2</ele>
        <time>2021-11-21T14:08:25Z</time>
      </trkpt>
      <trkpt lat="44.19235" lon="1.37859">
        <ele>153.2</ele>
        <time>2021-11-21T14:08:26Z</time>
      </trkpt>
      <trkpt lat="44.19234" lon="1.3786">
        <ele>153.3</ele>
        <time>2021-11-21T14:08:28Z</time>
      </trkpt>
      <trkpt lat="44.19234" lon="1.37862">
        <ele>153.4</ele>
        <time>2021-11-21T14:08:29Z</time>
      </trkpt>
      <trkpt lat="44.19233" lon="1.37864">
        <ele>153.5</ele>
        <time>2021-11-21T14:08:31Z</time>
      </trkpt>
      <trkpt lat="44.19233" lon="1.37865">
        <ele>153.5</ele>
        <time>2021-11-21T14:08:32Z</time>
      </trkpt>
      <trkpt lat="44.19232" lon="1.37867">
        <ele>153.6</ele>
        <time>2021-11-21T14:08:33Z</time>
      </trkpt>
      <trkpt lat="44.19232" lon="1.37868">
        <ele>153.7</ele>
        <time>2021-11-21T14:08:35Z</time>
      </trkpt>
      <trkpt lat="44.19231" lon="1.37869">
        <ele>153.8</ele>
        <time>2021-11-21T14:08:36Z</time>
      </trkpt>
      <trkpt lat="44.1923" lon="1.3787">
        <ele>153.9</ele>
        <time>2021-11-21T14:08:37Z</time>
      </trkpt>
      <trkpt lat="44.19229" lon="1.37872">
        <ele>153.9</ele>
        <time>2021-11-21T14:08:39Z</time>
      </trkpt>
      <trkpt lat="44.19228" lon="1.37873">
        <ele>154</ele>
        <time>2021-11-21T14:08:40Z</time>
      </trkpt>
      <trkpt lat="44.19228" lon="1.37874">
        <ele>154.1</ele>
        <time>2021-11-21T14:08:41Z</time>
      </trkpt>
      <trkpt lat="44.19227" lon="1.37875">
        <ele>154.1</ele>
        <time>2021-11-21T14:08:42Z</time>
      </trkpt>
      <trkpt lat="44.19227" lon="1.37877">
        <ele>154.2</ele>
        <time>2021-11-21T14:08:44Z</time>
      </trkpt>
      <trkpt lat="44.19226" lon="1.37878">
        <ele>154.3</ele>
        <time>2021-11-21T14:08:45Z</time>
      </trkpt>
      <trkpt lat="44.19226" lon="1.37879">
        <ele>154.3</ele>
        <time>2021-11-21T14:08:46Z</time>
      </trkpt>
      <trkpt lat="44.19225" lon="1.37881">
        <ele>154.4</ele>
        <time>2021-11-21T14:08:48Z</time>
      </trkpt>
      <trkpt lat="44.19225" lon="1.37882">
        <ele>154.5</ele>
        <time>2021-11-21T14:08:49Z</time>
      </trkpt>
      <trkpt lat="44.19224" lon="1.37884">
        <ele>154.6</ele>
        <time>2021-11-21T14:08:50Z</time>
      </trkpt>
      <trkpt lat="44.19224" lon="1.37885">
        <ele>154.6</ele>
        <time>2021-11-21T14:08:51Z</time>
      </trkpt>
      <trkpt lat="44.19223" lon="1.37887">
        <ele>154.7</ele>
        <time>2021-11-21T14:08:53Z</time>
      </trkpt>
      <trkpt lat="44.19222" lon="1.3789">
        <ele>154.8</ele>
        <time>2021-11-21T14:08:54Z</time>
      </trkpt>
      <trkpt lat="44.19221" lon="1.37891">
        <ele>154.9</ele>
        <time>2021-11-21T14:08:55Z</time>
      </trkpt>
      <trkpt lat="44.19221" lon="1.37892">
        <ele>154.9</ele>
        <time>2021-11-21T14:08:57Z</time>
      </trkpt>
      <trkpt lat="44.1922" lon="1.37893">
        <ele>155</ele>
        <time>2021-11-21T14:08:58Z</time>
      </trkpt>
      <trkpt lat="44.19219" lon="1.37894">
        <ele>155</ele>
        <time>2021-11-21T14:08:59Z</time>
      </trkpt>
      <trkpt lat="44.19219" lon="1.37895">
        <ele>155.1</ele>
        <time>2021-11-21T14:09:00Z</time>
      </trkpt>
      <trkpt lat="44.19217" lon="1.37898">
        <ele>155.2</ele>
        <time>2021-11-21T14:09:02Z</time>
      </trkpt>
      <trkpt lat="44.19217" lon="1.37899">
        <ele>155.3</ele>
        <time>2021-11-21T14:09:03Z</time>
      </trkpt>
      <trkpt lat="44.19216" lon="1.379">
        <ele>155.3</ele>
        <time>2021-11-21T14:09:04Z</time>
      </trkpt>
      <trkpt lat="44.19216" lon="1.37901">
        <ele>155.4</ele>
        <time>2021-11-21T14:09:06Z</time>
      </trkpt>
      <trkpt lat="44.19215" lon="1.37903">
        <ele>155.5</ele>
        <time>2021-11-21T14:09:07Z</time>
      </trkpt>
      <trkpt lat="44.19214" lon="1.37904">
        <ele>155.5</ele>
        <time>2021-11-21T14:09:08Z</time>
      </trkpt>
      <trkpt lat="44.19213" lon="1.37906">
        <ele>155.6</ele>
        <time>2021-11-21T14:09:10Z</time>
      </trkpt>
      <trkpt lat="44.19212" lon="1.37907">
        <ele>155.7</ele>
        <time>2021-11-21T14:09:11Z</time>
      </trkpt>
      <trkpt lat="44.19212" lon="1.37909">
        <ele>155.7</ele>
        <time>2021-11-21T14:09:12Z</time>
      </trkpt>
      <trkpt lat="44.19211" lon="1.37911">
        <ele>155.8</ele>
        <time>2021-11-21T14:09:14Z</time>
      </trkpt>
      <trkpt lat="44.19211" lon="1.37913">
        <ele>155.9</ele>
        <time>2021-11-21T14:09:15Z</time>
      </trkpt>
      <trkpt lat="44.1921" lon="1.37914">
        <ele>156</ele>
        <time>2021-11-21T14:09:16Z</time>
      </trkpt>
      <trkpt lat="44.1921" lon="1.37916">
        <ele>156</ele>
        <time>2021-11-21T14:09:18Z</time>
      </trkpt>
      <trkpt lat="44.1921" lon="1.37918">
        <ele>156.1</ele>
        <time>2021-11-21T14:09:19Z</time>
      </trkpt>
      <trkpt lat="44.19209" lon="1.37919">
        <ele>156.1</ele>
        <time>2021-11-21T14:09:20Z</time>
      </trkpt>
      <trkpt lat="44.19209" lon="1.3792">
        <ele>156.2</ele>
        <time>2021-11-21T14:09:21Z</time>
      </trkpt>
      <trkpt lat="44.19209" lon="1.37921">
        <ele>156.2</ele>
        <time>2021-11-21T14:09:22Z</time>
      </trkpt>
      <trkpt lat="44.19208" lon="1.37922">
        <ele>156.2</ele>
        <time>2021-11-21T14:09:24Z</time>
      </trkpt>
      <trkpt lat="44.19208" lon="1.37923">
        <ele>156.3</ele>
        <time>2021-11-21T14:09:25Z</time>
      </trkpt>
      <trkpt lat="44.19208" lon="1.37924">
        <ele>156.3</ele>
        <time>2021-11-21T14:09:27Z</time>
      </trkpt>
      <trkpt lat="44.19208" lon="1.37925">
        <ele>156.4</ele>
        <time>2021-11-21T14:09:28Z</time>
      </trkpt>
      <trkpt lat="44.19209" lon="1.37926">
        <ele>156.4</ele>
        <time>2021-11-21T14:09:29Z</time>
      </trkpt>
      <trkpt lat="44.19209" lon="1.37927">
        <ele>156.4</ele>
        <time>2021-11-21T14:09:31Z</time>
      </trkpt>
      <trkpt lat="44.19209" lon="1.37928">
        <ele>156.4</ele>
        <time>2021-11-21T14:09:32Z</time>
      </trkpt>
      <trkpt lat="44.19209" lon="1.37927">
        <ele>156.5</ele>
        <time>2021-11-21T14:09:33Z</time>
      </trkpt>
      <trkpt lat="44.19209" lon="1.37926">
        <ele>156.5</ele>
        <time>2021-11-21T14:09:35Z</time>
      </trkpt>
      <trkpt lat="44.19209" lon="1.37926">
        <ele>156.5</ele>
        <time>2021-11-21T14:09:37Z</time>
      </trkpt>
      <trkpt lat="44.19209" lon="1.37925">
        <ele>156.5</ele>
        <time>2021-11-21T14:09:39Z</time>
      </trkpt>
      <trkpt lat="44.19209" lon="1.37925">
        <ele>156.5</ele>
        <time>2021-11-21T14:09:41Z</time>
      </trkpt>
      <trkpt lat="44.19209" lon="1.37925">
        <ele>156.5</ele>
        <time>2021-11-21T14:09:42Z</time>
      </trkpt>
      <trkpt lat="44.19209" lon="1.37925">
        <ele>156.5</ele>
        <time>2021-11-21T14:09:43Z</time>
      </trkpt>
      <trkpt lat="44.19209" lon="1.37925">
        <ele>156.5</ele>
        <time>2021-11-21T14:09:45Z</time>
      </trkpt>
      <trkpt lat="44.19209" lon="1.37924">
        <ele>156.6</ele>
        <time>2021-11-21T14:09:46Z</time>
      </trkpt>
      <trkpt lat="44.19209" lon="1.37924">
        <ele>156.6</ele>
        <time>2021-11-21T14:09:48Z</time>
      </trkpt>
      <trkpt lat="44.19209" lon="1.37924">
        <ele>156.6</ele>
        <time>2021-11-21T14:09:49Z</time>
      </trkpt>
      <trkpt lat="44.19209" lon="1.37924">
        <ele>156.6</ele>
        <time>2021-11-21T14:09:50Z</time>
      </trkpt>
      <trkpt lat="44.19209" lon="1.37924">
        <ele>156.6</ele>
        <time>2021-11-21T14:09:51Z</time>
      </trkpt>
      <trkpt lat="44.1921" lon="1.37924">
        <ele>156.6</ele>
        <time>2021-11-21T14:09:52Z</time>
      </trkpt>
      <trkpt lat="44.1921" lon="1.37923">
        <ele>156.6</ele>
        <time>2021-11-21T14:09:54Z</time>
      </trkpt>
      <trkpt lat="44.1921" lon="1.37923">
        <ele>156.6</ele>
        <time>2021-11-21T14:09:56Z</time>
      </trkpt>
      <trkpt lat="44.1921" lon="1.37923">
        <ele>156.6</ele>
        <time>2021-11-21T14:09:57Z</time>
      </trkpt>
      <trkpt lat="44.1921" lon="1.37923">
        <ele>156.6</ele>
        <time>2021-11-21T14:09:59Z</time>
      </trkpt>
      <trkpt lat="44.1921" lon="1.37924">
        <ele>156.6</ele>
        <time>2021-11-21T14:10:01Z</time>
      </trkpt>
      <trkpt lat="44.1921" lon="1.37924">
        <ele>156.6</ele>
        <time>2021-11-21T14:10:02Z</time>
      </trkpt>
      <trkpt lat="44.1921" lon="1.37924">
        <ele>156.6</ele>
        <time>2021-11-21T14:10:04Z</time>
      </trkpt>
      <trkpt lat="44.1921" lon="1.37924">
        <ele>156.6</ele>
        <time>2021-11-21T14:10:05Z</time>
      </trkpt>
      <trkpt lat="44.1921" lon="1.37924">
        <ele>156.6</ele>
        <time>2021-11-21T14:10:06Z</time>
      </trkpt>
      <trkpt lat="44.19211" lon="1.37924">
        <ele>156.7</ele>
        <time>2021-11-21T14:10:08Z</time>
      </trkpt>
      <trkpt lat="44.19211" lon="1.37924">
        <ele>156.7</ele>
        <time>2021-11-21T14:10:10Z</time>
      </trkpt>
      <trkpt lat="44.19211" lon="1.37923">
        <ele>156.7</ele>
        <time>2021-11-21T14:10:11Z</time>
      </trkpt>
      <trkpt lat="44.19211" lon="1.37923">
        <ele>156.7</ele>
        <time>2021-11-21T14:10:12Z</time>
      </trkpt>
      <trkpt lat="44.19211" lon="1.37923">
        <ele>156.7</ele>
        <time>2021-11-21T14:10:13Z</time>
      </trkpt>
      <trkpt lat="44.19211" lon="1.37923">
        <ele>156.7</ele>
        <time>2021-11-21T14:10:14Z</time>
      </trkpt>
      <trkpt lat="44.19211" lon="1.37923">
        <ele>156.7</ele>
        <time>2021-11-21T14:10:16Z</time>
      </trkpt>
      <trkpt lat="44.19211" lon="1.37922">
        <ele>156.7</ele>
        <time>2021-11-21T14:10:18Z</time>
      </trkpt>
      <trkpt lat="44.19211" lon="1.37922">
        <ele>156.7</ele>
        <time>2021-11-21T14:10:19Z</time>
      </trkpt>
      <trkpt lat="44.19211" lon="1.37922">
        <ele>156.7</ele>
        <time>2021-11-21T14:10:21Z</time>
      </trkpt>
      <trkpt lat="44.19211" lon="1.37922">
        <ele>156.7</ele>
        <time>2021-11-21T14:10:22Z</time>
      </trkpt>
      <trkpt lat="44.19211" lon="1.37922">
        <ele>156.7</ele>
        <time>2021-11-21T14:10:24Z</time>
      </trkpt>
      <trkpt lat="44.19211" lon="1.37922">
        <ele>156.7</ele>
        <time>2021-11-21T14:10:26Z</time>
      </trkpt>
      <trkpt lat="44.19211" lon="1.37922">
        <ele>156.7</ele>
        <time>2021-11-21T14:10:27Z</time>
      </trkpt>
      <trkpt lat="44.19212" lon="1.37922">
        <ele>156.7</ele>
        <time>2021-11-21T14:10:29Z</time>
      </trkpt>
      <trkpt lat="44.19211" lon="1.37922">
        <ele>156.7</ele>
        <time>2021-11-21T14:10:31Z</time>
      </trkpt>
      <trkpt lat="44.19211" lon="1.37922">
        <ele>156.7</ele>
        <time>2021-11-21T14:10:32Z</time>
      </trkpt>
      <trkpt lat="44.19211" lon="1.37922">
        <ele>156.7</ele>
        <time>2021-11-21T14:10:34Z</time>
      </trkpt>
      <trkpt lat="44.19211" lon="1.37923">
        <ele>156.7</ele>
        <time>2021-11-21T14:10:35Z</time>
      </trkpt>
      <trkpt lat="44.19211" lon="1.37922">
        <ele>156.7</ele>
        <time>2021-11-21T14:10:36Z</time>
      </trkpt>
      <trkpt lat="44.19211" lon="1.37922">
        <ele>156.8</ele>
        <time>2021-11-21T14:10:37Z</time>
      </trkpt>
      <trkpt lat="44.19212" lon="1.37922">
        <ele>156.8</ele>
        <time>2021-11-21T14:10:39Z</time>
      </trkpt>
      <trkpt lat="44.19212" lon="1.37923">
        <ele>156.8</ele>
        <time>2021-11-21T14:10:40Z</time>
      </trkpt>
      <trkpt lat="44.19212" lon="1.37923">
        <ele>156.8</ele>
        <time>2021-11-21T14:10:42Z</time>
      </trkpt>
      <trkpt lat="44.19212" lon="1.37922">
        <ele>156.8</ele>
        <time>2021-11-21T14:10:44Z</time>
      </trkpt>
      <trkpt lat="44.19212" lon="1.37922">
        <ele>156.8</ele>
        <time>2021-11-21T14:10:45Z</time>
      </trkpt>
      <trkpt lat="44.19212" lon="1.37922">
        <ele>156.8</ele>
        <time>2021-11-21T14:10:46Z</time>
      </trkpt>
      <trkpt lat="44.19212" lon="1.37922">
        <ele>156.8</ele>
        <time>2021-11-21T14:10:48Z</time>
      </trkpt>
      <trkpt lat="44.19211" lon="1.37922">
        <ele>156.8</ele>
        <time>2021-11-21T14:10:49Z</time>
      </trkpt>
      <trkpt lat="44.19211" lon="1.37923">
        <ele>156.8</ele>
        <time>2021-11-21T14:10:51Z</time>
      </trkpt>
      <trkpt lat="44.19211" lon="1.37923">
        <ele>156.8</ele>
        <time>2021-11-21T14:10:52Z</time>
      </trkpt>
      <trkpt lat="44.19211" lon="1.37923">
        <ele>156.8</ele>
        <time>2021-11-21T14:10:53Z</time>
      </trkpt>
      <trkpt lat="44.19212" lon="1.37923">
        <ele>156.8</ele>
        <time>2021-11-21T14:10:55Z</time>
      </trkpt>
      <trkpt lat="44.19212" lon="1.37923">
        <ele>156.8</ele>
        <time>2021-11-21T14:10:56Z</time>
      </trkpt>
      <trkpt lat="44.19211" lon="1.37923">
        <ele>156.8</ele>
        <time>2021-11-21T14:10:58Z</time>
      </trkpt>
      <trkpt lat="44.19211" lon="1.37923">
        <ele>156.8</ele>
        <time>2021-11-21T14:11:00Z</time>
      </trkpt>
      <trkpt lat="44.19211" lon="1.37923">
        <ele>156.9</ele>
        <time>2021-11-21T14:11:01Z</time>
      </trkpt>
      <trkpt lat="44.19211" lon="1.37923">
        <ele>156.9</ele>
        <time>2021-11-21T14:11:03Z</time>
      </trkpt>
      <trkpt lat="44.19211" lon="1.37923">
        <ele>156.9</ele>
        <time>2021-11-21T14:11:04Z</time>
      </trkpt>
      <trkpt lat="44.19211" lon="1.37922">
        <ele>156.9</ele>
        <time>2021-11-21T14:11:06Z</time>
      </trkpt>
      <trkpt lat="44.1921" lon="1.37922">
        <ele>156.9</ele>
        <time>2021-11-21T14:11:08Z</time>
      </trkpt>
      <trkpt lat="44.19209" lon="1.37923">
        <ele>156.9</ele>
        <time>2021-11-21T14:11:10Z</time>
      </trkpt>
      <trkpt lat="44.19209" lon="1.37923">
        <ele>157</ele>
        <time>2021-11-21T14:11:11Z</time>
      </trkpt>
      <trkpt lat="44.19209" lon="1.37923">
        <ele>157</ele>
        <time>2021-11-21T14:11:12Z</time>
      </trkpt>
      <trkpt lat="44.19209" lon="1.37923">
        <ele>157</ele>
        <time>2021-11-21T14:11:14Z</time>
      </trkpt>
      <trkpt lat="44.19209" lon="1.37923">
        <ele>157</ele>
        <time>2021-11-21T14:11:15Z</time>
      </trkpt>
      <trkpt lat="44.19209" lon="1.37923">
        <ele>157</ele>
        <time>2021-11-21T14:11:16Z</time>
      </trkpt>
      <trkpt lat="44.19209" lon="1.37923">
        <ele>157</ele>
        <time>2021-11-21T14:11:17Z</time>
      </trkpt>
      <trkpt lat="44.19209" lon="1.37923">
        <ele>157</ele>
        <time>2021-11-21T14:11:18Z</time>
      </trkpt>
      <trkpt lat="44.19209" lon="1.37923">
        <ele>157</ele>
        <time>2021-11-21T14:11:20Z</time>
      </trkpt>
      <trkpt lat="44.19209" lon="1.37923">
        <ele>157</ele>
        <time>2021-11-21T14:11:21Z</time>
      </trkpt>
      <trkpt lat="44.19209" lon="1.37922">
        <ele>157</ele>
        <time>2021-11-21T14:11:23Z</time>
      </trkpt>
      <trkpt lat="44.19209" lon="1.37922">
        <ele>157</ele>
        <time>2021-11-21T14:11:24Z</time>
      </trkpt>
      <trkpt lat="44.19209" lon="1.37922">
        <ele>157</ele>
        <time>2021-11-21T14:11:26Z</time>
      </trkpt>
      <trkpt lat="44.19209" lon="1.37922">
        <ele>157</ele>
        <time>2021-11-21T14:11:27Z</time>
      </trkpt>
      <trkpt lat="44.19209" lon="1.37922">
        <ele>157</ele>
        <time>2021-11-21T14:11:29Z</time>
      </trkpt>
      <trkpt lat="44.19209" lon="1.37922">
        <ele>157</ele>
        <time>2021-11-21T14:11:30Z</time>
      </trkpt>
      <trkpt lat="44.19209" lon="1.37922">
        <ele>157</ele>
        <time>2021-11-21T14:11:31Z</time>
      </trkpt>
      <trkpt lat="44.19209" lon="1.37923">
        <ele>157</ele>
        <time>2021-11-21T14:11:32Z</time>
      </trkpt>
      <trkpt lat="44.19209" lon="1.37923">
        <ele>157</ele>
        <time>2021-11-21T14:11:34Z</time>
      </trkpt>
      <trkpt lat="44.19209" lon="1.37923">
        <ele>157</ele>
        <time>2021-11-21T14:11:36Z</time>
      </trkpt>
      <trkpt lat="44.19209" lon="1.37923">
        <ele>157</ele>
        <time>2021-11-21T14:11:38Z</time>
      </trkpt>
      <trkpt lat="44.19209" lon="1.37923">
        <ele>157</ele>
        <time>2021-11-21T14:11:39Z</time>
      </trkpt>
      <trkpt lat="44.19209" lon="1.37923">
        <ele>157</ele>
        <time>2021-11-21T14:11:41Z</time>
      </trkpt>
      <trkpt lat="44.19209" lon="1.37923">
        <ele>157</ele>
        <time>2021-11-21T14:11:43Z</time>
      </trkpt>
      <trkpt lat="44.19209" lon="1.37923">
        <ele>157</ele>
        <time>2021-11-21T14:11:44Z</time>
      </trkpt>
      <trkpt lat="44.19209" lon="1.37923">
        <ele>157</ele>
        <time>2021-11-21T14:11:46Z</time>
      </trkpt>
      <trkpt lat="44.19209" lon="1.37923">
        <ele>157</ele>
        <time>2021-11-21T14:11:47Z</time>
      </trkpt>
      <trkpt lat="44.19209" lon="1.37924">
        <ele>157</ele>
        <time>2021-11-21T14:11:49Z</time>
      </trkpt>
      <trkpt lat="44.19209" lon="1.37924">
        <ele>157.1</ele>
        <time>2021-11-21T14:11:51Z</time>
      </trkpt>
      <trkpt lat="44.19209" lon="1.37925">
        <ele>157.1</ele>
        <time>2021-11-21T14:11:53Z</time>
      </trkpt>
      <trkpt lat="44.19209" lon="1.37925">
        <ele>157.1</ele>
        <time>2021-11-21T14:11:54Z</time>
      </trkpt>
      <trkpt lat="44.1921" lon="1.37925">
        <ele>157.1</ele>
        <time>2021-11-21T14:11:55Z</time>
      </trkpt>
      <trkpt lat="44.1921" lon="1.37925">
        <ele>157.1</ele>
        <time>2021-11-21T14:11:56Z</time>
      </trkpt>
      <trkpt lat="44.1921" lon="1.37924">
        <ele>157.1</ele>
        <time>2021-11-21T14:11:58Z</time>
      </trkpt>
      <trkpt lat="44.19211" lon="1.37924">
        <ele>157.1</ele>
        <time>2021-11-21T14:11:59Z</time>
      </trkpt>
      <trkpt lat="44.19211" lon="1.37924">
        <ele>157.1</ele>
        <time>2021-11-21T14:12:01Z</time>
      </trkpt>
      <trkpt lat="44.19211" lon="1.37924">
        <ele>157.1</ele>
        <time>2021-11-21T14:12:02Z</time>
      </trkpt>
      <trkpt lat="44.19211" lon="1.37924">
        <ele>157.1</ele>
        <time>2021-11-21T14:12:04Z</time>
      </trkpt>
      <trkpt lat="44.19211" lon="1.37925">
        <ele>157.1</ele>
        <time>2021-11-21T14:12:05Z</time>
      </trkpt>
      <trkpt lat="44.19211" lon="1.37925">
        <ele>157.2</ele>
        <time>2021-11-21T14:12:06Z</time>
      </trkpt>
      <trkpt lat="44.19211" lon="1.37925">
        <ele>157.2</ele>
        <time>2021-11-21T14:12:08Z</time>
      </trkpt>
      <trkpt lat="44.19211" lon="1.37925">
        <ele>157.2</ele>
        <time>2021-11-21T14:12:09Z</time>
      </trkpt>
      <trkpt lat="44.19211" lon="1.37925">
        <ele>157.2</ele>
        <time>2021-11-21T14:12:10Z</time>
      </trkpt>
      <trkpt lat="44.1921" lon="1.37925">
        <ele>157.2</ele>
        <time>2021-11-21T14:12:11Z</time>
      </trkpt>
      <trkpt lat="44.1921" lon="1.37925">
        <ele>157.2</ele>
        <time>2021-11-21T14:12:13Z</time>
      </trkpt>
      <trkpt lat="44.1921" lon="1.37926">
        <ele>157.2</ele>
        <time>2021-11-21T14:12:14Z</time>
      </trkpt>
      <trkpt lat="44.1921" lon="1.37926">
        <ele>157.2</ele>
        <time>2021-11-21T14:12:16Z</time>
      </trkpt>
      <trkpt lat="44.1921" lon="1.37926">
        <ele>157.2</ele>
        <time>2021-11-21T14:12:18Z</time>
      </trkpt>
      <trkpt lat="44.1921" lon="1.37926">
        <ele>157.2</ele>
        <time>2021-11-21T14:12:19Z</time>
      </trkpt>
      <trkpt lat="44.1921" lon="1.37926">
        <ele>157.2</ele>
        <time>2021-11-21T14:12:21Z</time>
      </trkpt>
      <trkpt lat="44.1921" lon="1.37926">
        <ele>157.2</ele>
        <time>2021-11-21T14:12:23Z</time>
      </trkpt>
      <trkpt lat="44.1921" lon="1.37926">
        <ele>157.2</ele>
        <time>2021-11-21T14:12:25Z</time>
      </trkpt>
      <trkpt lat="44.1921" lon="1.37926">
        <ele>157.2</ele>
        <time>2021-11-21T14:12:26Z</time>
      </trkpt>
      <trkpt lat="44.1921" lon="1.37926">
        <ele>157.2</ele>
        <time>2021-11-21T14:12:27Z</time>
      </trkpt>
      <trkpt lat="44.1921" lon="1.37925">
        <ele>157.2</ele>
        <time>2021-11-21T14:12:28Z</time>
      </trkpt>
      <trkpt lat="44.1921" lon="1.37925">
        <ele>157.2</ele>
        <time>2021-11-21T14:12:29Z</time>
      </trkpt>
      <trkpt lat="44.1921" lon="1.37924">
        <ele>157.2</ele>
        <time>2021-11-21T14:12:31Z</time>
      </trkpt>
      <trkpt lat="44.1921" lon="1.37924">
        <ele>157.3</ele>
        <time>2021-11-21T14:12:32Z</time>
      </trkpt>
      <trkpt lat="44.1921" lon="1.37923">
        <ele>157.3</ele>
        <time>2021-11-21T14:12:34Z</time>
      </trkpt>
      <trkpt lat="44.1921" lon="1.37923">
        <ele>157.3</ele>
        <time>2021-11-21T14:12:35Z</time>
      </trkpt>
      <trkpt lat="44.1921" lon="1.37923">
        <ele>157.3</ele>
        <time>2021-11-21T14:12:37Z</time>
      </trkpt>
      <trkpt lat="44.1921" lon="1.37923">
        <ele>157.3</ele>
        <time>2021-11-21T14:12:38Z</time>
      </trkpt>
      <trkpt lat="44.1921" lon="1.37923">
        <ele>157.3</ele>
        <time>2021-11-21T14:12:39Z</time>
      </trkpt>
      <trkpt lat="44.19209" lon="1.37923">
        <ele>157.3</ele>
        <time>2021-11-21T14:12:40Z</time>
      </trkpt>
      <trkpt lat="44.19209" lon="1.37923">
        <ele>157.3</ele>
        <time>2021-11-21T14:12:41Z</time>
      </trkpt>
      <trkpt lat="44.19209" lon="1.37922">
        <ele>157.3</ele>
        <time>2021-11-21T14:12:42Z</time>
      </trkpt>
      <trkpt lat="44.19209" lon="1.37922">
        <ele>157.3</ele>
        <time>2021-11-21T14:12:43Z</time>
      </trkpt>
      <trkpt lat="44.19209" lon="1.37922">
        <ele>157.3</ele>
        <time>2021-11-21T14:12:45Z</time>
      </trkpt>
      <trkpt lat="44.1921" lon="1.37923">
        <ele>157.3</ele>
        <time>2021-11-21T14:12:47Z</time>
      </trkpt>
      <trkpt lat="44.1921" lon="1.37923">
        <ele>157.3</ele>
        <time>2021-11-21T14:12:49Z</time>
      </trkpt>
      <trkpt lat="44.1921" lon="1.37923">
        <ele>157.3</ele>
        <time>2021-11-21T14:12:50Z</time>
      </trkpt>
      <trkpt lat="44.19211" lon="1.37924">
        <ele>157.3</ele>
        <time>2021-11-21T14:12:52Z</time>
      </trkpt>
      <trkpt lat="44.19211" lon="1.37924">
        <ele>157.3</ele>
        <time>2021-11-21T14:12:54Z</time>
      </trkpt>
      <trkpt lat="44.19211" lon="1.37924">
        <ele>157.3</ele>
        <time>2021-11-21T14:12:55Z</time>
      </trkpt>
      <trkpt lat="44.19211" lon="1.37924">
        <ele>157.3</ele>
        <time>2021-11-21T14:12:57Z</time>
      </trkpt>
      <trkpt lat="44.19211" lon="1.37924">
        <ele>157.3</ele>
        <time>2021-11-21T14:12:59Z</time>
      </trkpt>
      <trkpt lat="44.19211" lon="1.37924">
        <ele>157.3</ele>
        <time>2021-11-21T14:13:01Z</time>
      </trkpt>
      <trkpt lat="44.19211" lon="1.37924">
        <ele>157.3</ele>
        <time>2021-11-21T14:13:02Z</time>
      </trkpt>
      <trkpt lat="44.19211" lon="1.37924">
        <ele>157.3</ele>
        <time>2021-11-21T14:13:04Z</time>
      </trkpt>
      <trkpt lat="44.19211" lon="1.37924">
        <ele>157.3</ele>
        <time>2021-11-21T14:13:06Z</time>
      </trkpt>
      <trkpt lat="44.19211" lon="1.37924">
        <ele>157.3</ele>
        <time>2021-11-21T14:13:07Z</time>
      </trkpt>
      <trkpt lat="44.19211" lon="1.37924">
        <ele>157.3</ele>
        <time>2021-11-21T14:13:08Z</time>
      </trkpt>
      <trkpt lat="44.19211" lon="1.37923">
        <ele>157.3</ele>
        <time>2021-11-21T14:13:10Z</time>
      </trkpt>
      <trkpt lat="44.19211" lon="1.37923">
        <ele>157.3</ele>
        <time>2021-11-21T14:13:11Z</time>
      </trkpt>
      <trkpt lat="44.19211" lon="1.37923">
        <ele>157.3</ele>
        <time>2021-11-21T14:13:13Z</time>
      </trkpt>
      <trkpt lat="44.1921" lon="1.37923">
        <ele>157.4</ele>
        <time>2021-11-21T14:13:15Z</time>
      </trkpt>
      <trkpt lat="44.1921" lon="1.37923">
        <ele>157.4</ele>
        <time>2021-11-21T14:13:16Z</time>
      </trkpt>
      <trkpt lat="44.1921" lon="1.37923">
        <ele>157.4</ele>
        <time>2021-11-21T14:13:17Z</time>
      </trkpt>
      <trkpt lat="44.19209" lon="1.37923">
        <ele>157.4</ele>
        <time>2021-11-21T14:13:18Z</time>
      </trkpt>
      <trkpt lat="44.19209" lon="1.37923">
        <ele>157.4</ele>
        <time>2021-11-21T14:13:20Z</time>
      </trkpt>
      <trkpt lat="44.19209" lon="1.37923">
        <ele>157.4</ele>
        <time>2021-11-21T14:13:21Z</time>
      </trkpt>
      <trkpt lat="44.19209" lon="1.37923">
        <ele>157.4</ele>
        <time>2021-11-21T14:13:22Z</time>
      </trkpt>
      <trkpt lat="44.19209" lon="1.37924">
        <ele>157.4</ele>
        <time>2021-11-21T14:13:24Z</time>
      </trkpt>
      <trkpt lat="44.19208" lon="1.37924">
        <ele>157.4</ele>
        <time>2021-11-21T14:13:26Z</time>
      </trkpt>
      <trkpt lat="44.19208" lon="1.37924">
        <ele>157.4</ele>
        <time>2021-11-21T14:13:28Z</time>
      </trkpt>
      <trkpt lat="44.19208" lon="1.37924">
        <ele>157.4</ele>
        <time>2021-11-21T14:13:30Z</time>
      </trkpt>
      <trkpt lat="44.19208" lon="1.37924">
        <ele>157.4</ele>
        <time>2021-11-21T14:13:32Z</time>
      </trkpt>
      <trkpt lat="44.19208" lon="1.37924">
        <ele>157.4</ele>
        <time>2021-11-21T14:13:34Z</time>
      </trkpt>
      <trkpt lat="44.19208" lon="1.37925">
        <ele>157.4</ele>
        <time>2021-11-21T14:13:36Z</time>
      </trkpt>
      <trkpt lat="44.19208" lon="1.37925">
        <ele>157.4</ele>
        <time>2021-11-21T14:13:37Z</time>
      </trkpt>
      <trkpt lat="44.19208" lon="1.37926">
        <ele>157.4</ele>
        <time>2021-11-21T14:13:39Z</time>
      </trkpt>
      <trkpt lat="44.19209" lon="1.37926">
        <ele>157.4</ele>
        <time>2021-11-21T14:13:41Z</time>
      </trkpt>
      <trkpt lat="44.19209" lon="1.37926">
        <ele>157.4</ele>
        <time>2021-11-21T14:13:42Z</time>
      </trkpt>
      <trkpt lat="44.19209" lon="1.37926">
        <ele>157.4</ele>
        <time>2021-11-21T14:13:43Z</time>
      </trkpt>
      <trkpt lat="44.19208" lon="1.37926">
        <ele>157.4</ele>
        <time>2021-11-21T14:13:45Z</time>
      </trkpt>
      <trkpt lat="44.19209" lon="1.37926">
        <ele>157.4</ele>
        <time>2021-11-21T14:13:46Z</time>
      </trkpt>
      <trkpt lat="44.19209" lon="1.37926">
        <ele>157.4</ele>
        <time>2021-11-21T14:13:48Z</time>
      </trkpt>
      <trkpt lat="44.19209" lon="1.37926">
        <ele>157.4</ele>
        <time>2021-11-21T14:13:50Z</time>
      </trkpt>
      <trkpt lat="44.19209" lon="1.37926">
        <ele>157.4</ele>
        <time>2021-11-21T14:13:51Z</time>
      </trkpt>
      <trkpt lat="44.19209" lon="1.37926">
        <ele>157.4</ele>
        <time>2021-11-21T14:13:52Z</time>
      </trkpt>
      <trkpt lat="44.1921" lon="1.37926">
        <ele>157.4</ele>
        <time>2021-11-21T14:13:54Z</time>
      </trkpt>
      <trkpt lat="44.1921" lon="1.37925">
        <ele>157.5</ele>
        <time>2021-11-21T14:13:56Z</time>
      </trkpt>
      <trkpt lat="44.1921" lon="1.37925">
        <ele>157.5</ele>
        <time>2021-11-21T14:13:57Z</time>
      </trkpt>
      <trkpt lat="44.19211" lon="1.37925">
        <ele>157.5</ele>
        <time>2021-11-21T14:13:59Z</time>
      </trkpt>
      <trkpt lat="44.19211" lon="1.37925">
        <ele>157.5</ele>
        <time>2021-11-21T14:14:00Z</time>
      </trkpt>
      <trkpt lat="44.19211" lon="1.37925">
        <ele>157.5</ele>
        <time>2021-11-21T14:14:02Z</time>
      </trkpt>
      <trkpt lat="44.19211" lon="1.37925">
        <ele>157.5</ele>
        <time>2021-11-21T14:14:03Z</time>
      </trkpt>
      <trkpt lat="44.19211" lon="1.37925">
        <ele>157.5</ele>
        <time>2021-11-21T14:14:05Z</time>
      </trkpt>
      <trkpt lat="44.19211" lon="1.37925">
        <ele>157.5</ele>
        <time>2021-11-21T14:14:07Z</time>
      </trkpt>
      <trkpt lat="44.19211" lon="1.37925">
        <ele>157.5</ele>
        <time>2021-11-21T14:14:08Z</time>
      </trkpt>
      <trkpt lat="44.19211" lon="1.37925">
        <ele>157.5</ele>
        <time>2021-11-21T14:14:09Z</time>
      </trkpt>
      <trkpt lat="44.19211" lon="1.37925">
        <ele>157.5</ele>
        <time>2021-11-21T14:14:11Z</time>
      </trkpt>
      <trkpt lat="44.19211" lon="1.37925">
        <ele>157.5</ele>
        <time>2021-11-21T14:14:13Z</time>
      </trkpt>
      <trkpt lat="44.19212" lon="1.37925">
        <ele>157.5</ele>
        <time>2021-11-21T14:14:15Z</time>
      </trkpt>
      <trkpt lat="44.19212" lon="1.37925">
        <ele>157.5</ele>
        <time>2021-11-21T14:14:16Z</time>
      </trkpt>
      <trkpt lat="44.19212" lon="1.37925">
        <ele>157.5</ele>
        <time>2021-11-21T14:14:17Z</time>
      </trkpt>
      <trkpt lat="44.19212" lon="1.37925">
        <ele>157.5</ele>
        <time>2021-11-21T14:14:18Z</time>
      </trkpt>
      <trkpt lat="44.19212" lon="1.37925">
        <ele>157.5</ele>
        <time>2021-11-21T14:14:19Z</time>
      </trkpt>
      <trkpt lat="44.19212" lon="1.37925">
        <ele>157.5</ele>
        <time>2021-11-21T14:14:21Z</time>
      </trkpt>
      <trkpt lat="44.19212" lon="1.37925">
        <ele>157.5</ele>
        <time>2021-11-21T14:14:22Z</time>
      </trkpt>
      <trkpt lat="44.19212" lon="1.37925">
        <ele>157.5</ele>
        <time>2021-11-21T14:14:23Z</time>
      </trkpt>
      <trkpt lat="44.19211" lon="1.37924">
        <ele>157.5</ele>
        <time>2021-11-21T14:14:25Z</time>
      </trkpt>
      <trkpt lat="44.19211" lon="1.37923">
        <ele>157.5</ele>
        <time>2021-11-21T14:14:26Z</time>
      </trkpt>
      <trkpt lat="44.19209" lon="1.37922">
        <ele>157.5</ele>
        <time>2021-11-21T14:14:28Z</time>
      </trkpt>
      <trkpt lat="44.19209" lon="1.3792">
        <ele>157.5</ele>
        <time>2021-11-21T14:14:29Z</time>
      </trkpt>
      <trkpt lat="44.19208" lon="1.37918">
        <ele>157.5</ele>
        <time>2021-11-21T14:14:30Z</time>
      </trkpt>
      <trkpt lat="44.19207" lon="1.37916">
        <ele>157.5</ele>
        <time>2021-11-21T14:14:31Z</time>
      </trkpt>
      <trkpt lat="44.19206" lon="1.37914">
        <ele>157.5</ele>
        <time>2021-11-21T14:14:33Z</time>
      </trkpt>
      <trkpt lat="44.19205" lon="1.37912">
        <ele>157.6</ele>
        <time>2021-11-21T14:14:34Z</time>
      </trkpt>
      <trkpt lat="44.19204" lon="1.3791">
        <ele>157.6</ele>
        <time>2021-11-21T14:14:35Z</time>
      </trkpt>
      <trkpt lat="44.19204" lon="1.37909">
        <ele>157.7</ele>
        <time>2021-11-21T14:14:36Z</time>
      </trkpt>
      <trkpt lat="44.19203" lon="1.37907">
        <ele>157.7</ele>
        <time>2021-11-21T14:14:38Z</time>
      </trkpt>
      <trkpt lat="44.19202" lon="1.37906">
        <ele>157.7</ele>
        <time>2021-11-21T14:14:39Z</time>
      </trkpt>
      <trkpt lat="44.19202" lon="1.37905">
        <ele>157.7</ele>
        <time>2021-11-21T14:14:40Z</time>
      </trkpt>
      <trkpt lat="44.19201" lon="1.37904">
        <ele>157.8</ele>
        <time>2021-11-21T14:14:41Z</time>
      </trkpt>
      <trkpt lat="44.192" lon="1.37903">
        <ele>157.8</ele>
        <time>2021-11-21T14:14:42Z</time>
      </trkpt>
      <trkpt lat="44.192" lon="1.37902">
        <ele>157.8</ele>
        <time>2021-11-21T14:14:43Z</time>
      </trkpt>
      <trkpt lat="44.19199" lon="1.379">
        <ele>157.9</ele>
        <time>2021-11-21T14:14:45Z</time>
      </trkpt>
      <trkpt lat="44.19198" lon="1.37899">
        <ele>157.9</ele>
        <time>2021-11-21T14:14:46Z</time>
      </trkpt>
      <trkpt lat="44.19198" lon="1.37898">
        <ele>157.9</ele>
        <time>2021-11-21T14:14:47Z</time>
      </trkpt>
      <trkpt lat="44.19197" lon="1.37897">
        <ele>157.9</ele>
        <time>2021-11-21T14:14:48Z</time>
      </trkpt>
      <trkpt lat="44.19196" lon="1.37894">
        <ele>158</ele>
        <time>2021-11-21T14:14:49Z</time>
      </trkpt>
      <trkpt lat="44.19196" lon="1.37893">
        <ele>158</ele>
        <time>2021-11-21T14:14:50Z</time>
      </trkpt>
      <trkpt lat="44.19195" lon="1.37891">
        <ele>158.1</ele>
        <time>2021-11-21T14:14:52Z</time>
      </trkpt>
      <trkpt lat="44.19195" lon="1.3789">
        <ele>158.1</ele>
        <time>2021-11-21T14:14:53Z</time>
      </trkpt>
      <trkpt lat="44.19195" lon="1.37888">
        <ele>158.1</ele>
        <time>2021-11-21T14:14:54Z</time>
      </trkpt>
      <trkpt lat="44.19194" lon="1.37887">
        <ele>158.1</ele>
        <time>2021-11-21T14:14:55Z</time>
      </trkpt>
      <trkpt lat="44.19193" lon="1.37885">
        <ele>158.2</ele>
        <time>2021-11-21T14:14:56Z</time>
      </trkpt>
      <trkpt lat="44.19193" lon="1.37884">
        <ele>158.2</ele>
        <time>2021-11-21T14:14:57Z</time>
      </trkpt>
      <trkpt lat="44.19193" lon="1.37883">
        <ele>158.2</ele>
        <time>2021-11-21T14:14:58Z</time>
      </trkpt>
      <trkpt lat="44.19192" lon="1.37881">
        <ele>158.3</ele>
        <time>2021-11-21T14:15:00Z</time>
      </trkpt>
      <trkpt lat="44.19191" lon="1.3788">
        <ele>158.3</ele>
        <time>2021-11-21T14:15:01Z</time>
      </trkpt>
      <trkpt lat="44.19191" lon="1.37878">
        <ele>158.3</ele>
        <time>2021-11-21T14:15:02Z</time>
      </trkpt>
      <trkpt lat="44.1919" lon="1.37877">
        <ele>158.3</ele>
        <time>2021-11-21T14:15:03Z</time>
      </trkpt>
      <trkpt lat="44.1919" lon="1.37876">
        <ele>158.4</ele>
        <time>2021-11-21T14:15:04Z</time>
      </trkpt>
      <trkpt lat="44.19189" lon="1.37875">
        <ele>158.4</ele>
        <time>2021-11-21T14:15:05Z</time>
      </trkpt>
      <trkpt lat="44.19189" lon="1.37873">
        <ele>158.4</ele>
        <time>2021-11-21T14:15:07Z</time>
      </trkpt>
      <trkpt lat="44.19188" lon="1.37872">
        <ele>158.4</ele>
        <time>2021-11-21T14:15:08Z</time>
      </trkpt>
      <trkpt lat="44.19188" lon="1.37871">
        <ele>158.5</ele>
        <time>2021-11-21T14:15:09Z</time>
      </trkpt>
      <trkpt lat="44.19187" lon="1.3787">
        <ele>158.5</ele>
        <time>2021-11-21T14:15:10Z</time>
      </trkpt>
      <trkpt lat="44.19186" lon="1.37869">
        <ele>158.5</ele>
        <time>2021-11-21T14:15:11Z</time>
      </trkpt>
      <trkpt lat="44.19186" lon="1.37867">
        <ele>158.6</ele>
        <time>2021-11-21T14:15:13Z</time>
      </trkpt>
      <trkpt lat="44.19185" lon="1.37866">
        <ele>158.6</ele>
        <time>2021-11-21T14:15:14Z</time>
      </trkpt>
      <trkpt lat="44.19185" lon="1.37864">
        <ele>158.6</ele>
        <time>2021-11-21T14:15:15Z</time>
      </trkpt>
      <trkpt lat="44.19184" lon="1.37863">
        <ele>158.6</ele>
        <time>2021-11-21T14:15:16Z</time>
      </trkpt>
      <trkpt lat="44.19184" lon="1.37861">
        <ele>158.7</ele>
        <time>2021-11-21T14:15:18Z</time>
      </trkpt>
      <trkpt lat="44.19183" lon="1.37859">
        <ele>158.7</ele>
        <time>2021-11-21T14:15:19Z</time>
      </trkpt>
      <trkpt lat="44.19183" lon="1.37858">
        <ele>158.8</ele>
        <time>2021-11-21T14:15:20Z</time>
      </trkpt>
      <trkpt lat="44.19182" lon="1.37856">
        <ele>158.8</ele>
        <time>2021-11-21T14:15:21Z</time>
      </trkpt>
      <trkpt lat="44.19181" lon="1.37853">
        <ele>158.8</ele>
        <time>2021-11-21T14:15:23Z</time>
      </trkpt>
      <trkpt lat="44.19181" lon="1.37852">
        <ele>158.9</ele>
        <time>2021-11-21T14:15:24Z</time>
      </trkpt>
      <trkpt lat="44.1918" lon="1.37851">
        <ele>158.9</ele>
        <time>2021-11-21T14:15:25Z</time>
      </trkpt>
      <trkpt lat="44.1918" lon="1.3785">
        <ele>158.9</ele>
        <time>2021-11-21T14:15:26Z</time>
      </trkpt>
      <trkpt lat="44.19179" lon="1.37847">
        <ele>158.9</ele>
        <time>2021-11-21T14:15:28Z</time>
      </trkpt>
      <trkpt lat="44.19179" lon="1.37846">
        <ele>159</ele>
        <time>2021-11-21T14:15:29Z</time>
      </trkpt>
      <trkpt lat="44.19178" lon="1.37845">
        <ele>159</ele>
        <time>2021-11-21T14:15:30Z</time>
      </trkpt>
      <trkpt lat="44.19177" lon="1.37842">
        <ele>159</ele>
        <time>2021-11-21T14:15:32Z</time>
      </trkpt>
      <trkpt lat="44.19176" lon="1.37839">
        <ele>159.1</ele>
        <time>2021-11-21T14:15:33Z</time>
      </trkpt>
      <trkpt lat="44.19176" lon="1.37838">
        <ele>159.1</ele>
        <time>2021-11-21T14:15:35Z</time>
      </trkpt>
      <trkpt lat="44.19175" lon="1.37836">
        <ele>159.2</ele>
        <time>2021-11-21T14:15:36Z</time>
      </trkpt>
      <trkpt lat="44.19175" lon="1.37834">
        <ele>159.2</ele>
        <time>2021-11-21T14:15:37Z</time>
      </trkpt>
      <trkpt lat="44.19174" lon="1.37833">
        <ele>159.2</ele>
        <time>2021-11-21T14:15:38Z</time>
      </trkpt>
      <trkpt lat="44.19174" lon="1.37831">
        <ele>159.3</ele>
        <time>2021-11-21T14:15:40Z</time>
      </trkpt>
      <trkpt lat="44.19173" lon="1.37829">
        <ele>159.3</ele>
        <time>2021-11-21T14:15:41Z</time>
      </trkpt>
      <trkpt lat="44.19172" lon="1.37826">
        <ele>159.4</ele>
        <time>2021-11-21T14:15:42Z</time>
      </trkpt>
      <trkpt lat="44.19171" lon="1.37825">
        <ele>159.4</ele>
        <time>2021-11-21T14:15:43Z</time>
      </trkpt>
      <trkpt lat="44.19171" lon="1.37824">
        <ele>159.4</ele>
        <time>2021-11-21T14:15:44Z</time>
      </trkpt>
      <trkpt lat="44.1917" lon="1.37822">
        <ele>159.4</ele>
        <time>2021-11-21T14:15:46Z</time>
      </trkpt>
      <trkpt lat="44.19169" lon="1.37821">
        <ele>159.5</ele>
        <time>2021-11-21T14:15:47Z</time>
      </trkpt>
      <trkpt lat="44.19169" lon="1.37819">
        <ele>159.5</ele>
        <time>2021-11-21T14:15:48Z</time>
      </trkpt>
      <trkpt lat="44.19169" lon="1.37818">
        <ele>159.5</ele>
        <time>2021-11-21T14:15:49Z</time>
      </trkpt>
      <trkpt lat="44.19169" lon="1.37816">
        <ele>159.6</ele>
        <time>2021-11-21T14:15:50Z</time>
      </trkpt>
      <trkpt lat="44.19168" lon="1.37814">
        <ele>159.6</ele>
        <time>2021-11-21T14:15:52Z</time>
      </trkpt>
      <trkpt lat="44.19168" lon="1.37813">
        <ele>159.6</ele>
        <time>2021-11-21T14:15:53Z</time>
      </trkpt>
      <trkpt lat="44.19168" lon="1.37811">
        <ele>159.7</ele>
        <time>2021-11-21T14:15:54Z</time>
      </trkpt>
      <trkpt lat="44.19168" lon="1.37809">
        <ele>159.7</ele>
        <time>2021-11-21T14:15:55Z</time>
      </trkpt>
      <trkpt lat="44.19167" lon="1.37808">
        <ele>159.7</ele>
        <time>2021-11-21T14:15:56Z</time>
      </trkpt>
      <trkpt lat="44.19167" lon="1.37806">
        <ele>159.8</ele>
        <time>2021-11-21T14:15:58Z</time>
      </trkpt>
      <trkpt lat="44.19167" lon="1.37805">
        <ele>159.8</ele>
        <time>2021-11-21T14:15:59Z</time>
      </trkpt>
      <trkpt lat="44.19166" lon="1.37803">
        <ele>159.8</ele>
        <time>2021-11-21T14:16:00Z</time>
      </trkpt>
      <trkpt lat="44.19166" lon="1.37801">
        <ele>159.9</ele>
        <time>2021-11-21T14:16:02Z</time>
      </trkpt>
      <trkpt lat="44.19165" lon="1.378">
        <ele>159.9</ele>
        <time>2021-11-21T14:16:03Z</time>
      </trkpt>
      <trkpt lat="44.19165" lon="1.37798">
        <ele>159.9</ele>
        <time>2021-11-21T14:16:04Z</time>
      </trkpt>
      <trkpt lat="44.19164" lon="1.37797">
        <ele>160</ele>
        <time>2021-11-21T14:16:05Z</time>
      </trkpt>
      <trkpt lat="44.19164" lon="1.37794">
        <ele>160</ele>
        <time>2021-11-21T14:16:07Z</time>
      </trkpt>
      <trkpt lat="44.19164" lon="1.37792">
        <ele>160.1</ele>
        <time>2021-11-21T14:16:08Z</time>
      </trkpt>
      <trkpt lat="44.19163" lon="1.3779">
        <ele>160.1</ele>
        <time>2021-11-21T14:16:09Z</time>
      </trkpt>
      <trkpt lat="44.19162" lon="1.37789">
        <ele>160.1</ele>
        <time>2021-11-21T14:16:10Z</time>
      </trkpt>
      <trkpt lat="44.19161" lon="1.37788">
        <ele>160.2</ele>
        <time>2021-11-21T14:16:11Z</time>
      </trkpt>
      <trkpt lat="44.1916" lon="1.37785">
        <ele>160.2</ele>
        <time>2021-11-21T14:16:13Z</time>
      </trkpt>
      <trkpt lat="44.1916" lon="1.37784">
        <ele>160.3</ele>
        <time>2021-11-21T14:16:14Z</time>
      </trkpt>
      <trkpt lat="44.19159" lon="1.37783">
        <ele>160.3</ele>
        <time>2021-11-21T14:16:15Z</time>
      </trkpt>
      <trkpt lat="44.19158" lon="1.37781">
        <ele>160.3</ele>
        <time>2021-11-21T14:16:16Z</time>
      </trkpt>
      <trkpt lat="44.19157" lon="1.3778">
        <ele>160.4</ele>
        <time>2021-11-21T14:16:17Z</time>
      </trkpt>
      <trkpt lat="44.19156" lon="1.37778">
        <ele>160.4</ele>
        <time>2021-11-21T14:16:18Z</time>
      </trkpt>
      <trkpt lat="44.19155" lon="1.37776">
        <ele>160.5</ele>
        <time>2021-11-21T14:16:20Z</time>
      </trkpt>
      <trkpt lat="44.19155" lon="1.37775">
        <ele>160.5</ele>
        <time>2021-11-21T14:16:21Z</time>
      </trkpt>
      <trkpt lat="44.19154" lon="1.37773">
        <ele>160.6</ele>
        <time>2021-11-21T14:16:22Z</time>
      </trkpt>
      <trkpt lat="44.19151" lon="1.37771">
        <ele>160.7</ele>
        <time>2021-11-21T14:16:24Z</time>
      </trkpt>
      <trkpt lat="44.19151" lon="1.3777">
        <ele>160.7</ele>
        <time>2021-11-21T14:16:25Z</time>
      </trkpt>
      <trkpt lat="44.1915" lon="1.37768">
        <ele>160.8</ele>
        <time>2021-11-21T14:16:27Z</time>
      </trkpt>
      <trkpt lat="44.19149" lon="1.37766">
        <ele>160.8</ele>
        <time>2021-11-21T14:16:28Z</time>
      </trkpt>
      <trkpt lat="44.19148" lon="1.37765">
        <ele>160.9</ele>
        <time>2021-11-21T14:16:29Z</time>
      </trkpt>
      <trkpt lat="44.19147" lon="1.37762">
        <ele>161</ele>
        <time>2021-11-21T14:16:31Z</time>
      </trkpt>
      <trkpt lat="44.19146" lon="1.37761">
        <ele>161</ele>
        <time>2021-11-21T14:16:32Z</time>
      </trkpt>
      <trkpt lat="44.19145" lon="1.3776">
        <ele>161.1</ele>
        <time>2021-11-21T14:16:33Z</time>
      </trkpt>
      <trkpt lat="44.19144" lon="1.37759">
        <ele>161.1</ele>
        <time>2021-11-21T14:16:34Z</time>
      </trkpt>
      <trkpt lat="44.19142" lon="1.37758">
        <ele>161.2</ele>
        <time>2021-11-21T14:16:36Z</time>
      </trkpt>
      <trkpt lat="44.19141" lon="1.37757">
        <ele>161.2</ele>
        <time>2021-11-21T14:16:37Z</time>
      </trkpt>
      <trkpt lat="44.1914" lon="1.37756">
        <ele>161.3</ele>
        <time>2021-11-21T14:16:39Z</time>
      </trkpt>
      <trkpt lat="44.19139" lon="1.37756">
        <ele>161.3</ele>
        <time>2021-11-21T14:16:40Z</time>
      </trkpt>
      <trkpt lat="44.1914" lon="1.37758">
        <ele>161.4</ele>
        <time>2021-11-21T14:16:42Z</time>
      </trkpt>
      <trkpt lat="44.1914" lon="1.37759">
        <ele>161.4</ele>
        <time>2021-11-21T14:16:43Z</time>
      </trkpt>
      <trkpt lat="44.19141" lon="1.3776">
        <ele>161.4</ele>
        <time>2021-11-21T14:16:45Z</time>
      </trkpt>
      <trkpt lat="44.19141" lon="1.3776">
        <ele>161.5</ele>
        <time>2021-11-21T14:16:47Z</time>
      </trkpt>
      <trkpt lat="44.19141" lon="1.3776">
        <ele>161.5</ele>
        <time>2021-11-21T14:16:48Z</time>
      </trkpt>
      <trkpt lat="44.19141" lon="1.3776">
        <ele>161.5</ele>
        <time>2021-11-21T14:16:50Z</time>
      </trkpt>
      <trkpt lat="44.19141" lon="1.3776">
        <ele>161.5</ele>
        <time>2021-11-21T14:16:51Z</time>
      </trkpt>
      <trkpt lat="44.19141" lon="1.3776">
        <ele>161.5</ele>
        <time>2021-11-21T14:16:53Z</time>
      </trkpt>
      <trkpt lat="44.1914" lon="1.37759">
        <ele>161.5</ele>
        <time>2021-11-21T14:16:54Z</time>
      </trkpt>
      <trkpt lat="44.1914" lon="1.37758">
        <ele>161.6</ele>
        <time>2021-11-21T14:16:55Z</time>
      </trkpt>
      <trkpt lat="44.19139" lon="1.37755">
        <ele>161.6</ele>
        <time>2021-11-21T14:16:56Z</time>
      </trkpt>
      <trkpt lat="44.19138" lon="1.37753">
        <ele>161.7</ele>
        <time>2021-11-21T14:16:58Z</time>
      </trkpt>
      <trkpt lat="44.19138" lon="1.37752">
        <ele>161.8</ele>
        <time>2021-11-21T14:16:59Z</time>
      </trkpt>
      <trkpt lat="44.19137" lon="1.3775">
        <ele>161.8</ele>
        <time>2021-11-21T14:17:00Z</time>
      </trkpt>
      <trkpt lat="44.19135" lon="1.37746">
        <ele>162</ele>
        <time>2021-11-21T14:17:02Z</time>
      </trkpt>
      <trkpt lat="44.19135" lon="1.37746">
        <ele>162</ele>
        <time>2021-11-21T14:17:03Z</time>
      </trkpt>
      <trkpt lat="44.19132" lon="1.37743">
        <ele>162.1</ele>
        <time>2021-11-21T14:17:05Z</time>
      </trkpt>
      <trkpt lat="44.19131" lon="1.37743">
        <ele>162.2</ele>
        <time>2021-11-21T14:17:06Z</time>
      </trkpt>
      <trkpt lat="44.1913" lon="1.37741">
        <ele>162.3</ele>
        <time>2021-11-21T14:17:08Z</time>
      </trkpt>
      <trkpt lat="44.19129" lon="1.3774">
        <ele>162.3</ele>
        <time>2021-11-21T14:17:09Z</time>
      </trkpt>
      <trkpt lat="44.19128" lon="1.3774">
        <ele>162.4</ele>
        <time>2021-11-21T14:17:10Z</time>
      </trkpt>
      <trkpt lat="44.19127" lon="1.37738">
        <ele>162.5</ele>
        <time>2021-11-21T14:17:12Z</time>
      </trkpt>
      <trkpt lat="44.19126" lon="1.37737">
        <ele>162.6</ele>
        <time>2021-11-21T14:17:13Z</time>
      </trkpt>
      <trkpt lat="44.19124" lon="1.37735">
        <ele>162.7</ele>
        <time>2021-11-21T14:17:14Z</time>
      </trkpt>
      <trkpt lat="44.19123" lon="1.37734">
        <ele>162.7</ele>
        <time>2021-11-21T14:17:16Z</time>
      </trkpt>
      <trkpt lat="44.19123" lon="1.37733">
        <ele>162.8</ele>
        <time>2021-11-21T14:17:17Z</time>
      </trkpt>
      <trkpt lat="44.19121" lon="1.37731">
        <ele>162.9</ele>
        <time>2021-11-21T14:17:18Z</time>
      </trkpt>
      <trkpt lat="44.1912" lon="1.37731">
        <ele>162.9</ele>
        <time>2021-11-21T14:17:20Z</time>
      </trkpt>
      <trkpt lat="44.1912" lon="1.3773">
        <ele>162.9</ele>
        <time>2021-11-21T14:17:21Z</time>
      </trkpt>
      <trkpt lat="44.19118" lon="1.37728">
        <ele>163.1</ele>
        <time>2021-11-21T14:17:22Z</time>
      </trkpt>
      <trkpt lat="44.19117" lon="1.37728">
        <ele>163.1</ele>
        <time>2021-11-21T14:17:24Z</time>
      </trkpt>
      <trkpt lat="44.19117" lon="1.37727">
        <ele>163.2</ele>
        <time>2021-11-21T14:17:25Z</time>
      </trkpt>
      <trkpt lat="44.19116" lon="1.37727">
        <ele>163.2</ele>
        <time>2021-11-21T14:17:26Z</time>
      </trkpt>
      <trkpt lat="44.19115" lon="1.37726">
        <ele>163.3</ele>
        <time>2021-11-21T14:17:27Z</time>
      </trkpt>
      <trkpt lat="44.19114" lon="1.37726">
        <ele>163.3</ele>
        <time>2021-11-21T14:17:28Z</time>
      </trkpt>
      <trkpt lat="44.19112" lon="1.37725">
        <ele>163.4</ele>
        <time>2021-11-21T14:17:29Z</time>
      </trkpt>
      <trkpt lat="44.19111" lon="1.37724">
        <ele>163.5</ele>
        <time>2021-11-21T14:17:31Z</time>
      </trkpt>
      <trkpt lat="44.1911" lon="1.37724">
        <ele>163.5</ele>
        <time>2021-11-21T14:17:32Z</time>
      </trkpt>
      <trkpt lat="44.19109" lon="1.37724">
        <ele>163.6</ele>
        <time>2021-11-21T14:17:33Z</time>
      </trkpt>
      <trkpt lat="44.19108" lon="1.37723">
        <ele>163.6</ele>
        <time>2021-11-21T14:17:34Z</time>
      </trkpt>
      <trkpt lat="44.19107" lon="1.37723">
        <ele>163.7</ele>
        <time>2021-11-21T14:17:36Z</time>
      </trkpt>
      <trkpt lat="44.19105" lon="1.37722">
        <ele>163.8</ele>
        <time>2021-11-21T14:17:37Z</time>
      </trkpt>
      <trkpt lat="44.19104" lon="1.37722">
        <ele>163.9</ele>
        <time>2021-11-21T14:17:38Z</time>
      </trkpt>
      <trkpt lat="44.19103" lon="1.37722">
        <ele>163.9</ele>
        <time>2021-11-21T14:17:40Z</time>
      </trkpt>
      <trkpt lat="44.19102" lon="1.37722">
        <ele>164</ele>
        <time>2021-11-21T14:17:41Z</time>
      </trkpt>
      <trkpt lat="44.19101" lon="1.37721">
        <ele>164.1</ele>
        <time>2021-11-21T14:17:42Z</time>
      </trkpt>
      <trkpt lat="44.191" lon="1.37722">
        <ele>164.1</ele>
        <time>2021-11-21T14:17:43Z</time>
      </trkpt>
      <trkpt lat="44.19099" lon="1.37721">
        <ele>164.2</ele>
        <time>2021-11-21T14:17:45Z</time>
      </trkpt>
      <trkpt lat="44.19098" lon="1.37721">
        <ele>164.3</ele>
        <time>2021-11-21T14:17:46Z</time>
      </trkpt>
      <trkpt lat="44.19097" lon="1.37721">
        <ele>164.3</ele>
        <time>2021-11-21T14:17:47Z</time>
      </trkpt>
      <trkpt lat="44.19096" lon="1.37721">
        <ele>164.4</ele>
        <time>2021-11-21T14:17:48Z</time>
      </trkpt>
      <trkpt lat="44.19095" lon="1.37721">
        <ele>164.4</ele>
        <time>2021-11-21T14:17:50Z</time>
      </trkpt>
      <trkpt lat="44.19094" lon="1.3772">
        <ele>164.5</ele>
        <time>2021-11-21T14:17:51Z</time>
      </trkpt>
      <trkpt lat="44.19093" lon="1.3772">
        <ele>164.5</ele>
        <time>2021-11-21T14:17:52Z</time>
      </trkpt>
      <trkpt lat="44.19092" lon="1.3772">
        <ele>164.6</ele>
        <time>2021-11-21T14:17:53Z</time>
      </trkpt>
      <trkpt lat="44.19091" lon="1.3772">
        <ele>164.7</ele>
        <time>2021-11-21T14:17:54Z</time>
      </trkpt>
      <trkpt lat="44.1909" lon="1.3772">
        <ele>164.7</ele>
        <time>2021-11-21T14:17:56Z</time>
      </trkpt>
      <trkpt lat="44.19089" lon="1.3772">
        <ele>164.8</ele>
        <time>2021-11-21T14:17:57Z</time>
      </trkpt>
      <trkpt lat="44.19088" lon="1.3772">
        <ele>164.8</ele>
        <time>2021-11-21T14:17:58Z</time>
      </trkpt>
      <trkpt lat="44.19087" lon="1.3772">
        <ele>164.9</ele>
        <time>2021-11-21T14:17:59Z</time>
      </trkpt>
      <trkpt lat="44.19086" lon="1.3772">
        <ele>165</ele>
        <time>2021-11-21T14:18:01Z</time>
      </trkpt>
      <trkpt lat="44.19085" lon="1.3772">
        <ele>165.1</ele>
        <time>2021-11-21T14:18:02Z</time>
      </trkpt>
      <trkpt lat="44.19084" lon="1.3772">
        <ele>165.1</ele>
        <time>2021-11-21T14:18:03Z</time>
      </trkpt>
      <trkpt lat="44.19082" lon="1.37719">
        <ele>165.2</ele>
        <time>2021-11-21T14:18:04Z</time>
      </trkpt>
      <trkpt lat="44.19081" lon="1.37719">
        <ele>165.2</ele>
        <time>2021-11-21T14:18:06Z</time>
      </trkpt>
      <trkpt lat="44.1908" lon="1.37719">
        <ele>165.2</ele>
        <time>2021-11-21T14:18:07Z</time>
      </trkpt>
      <trkpt lat="44.19078" lon="1.37719">
        <ele>165.2</ele>
        <time>2021-11-21T14:18:08Z</time>
      </trkpt>
      <trkpt lat="44.19076" lon="1.37718">
        <ele>165.2</ele>
        <time>2021-11-21T14:18:09Z</time>
      </trkpt>
      <trkpt lat="44.19075" lon="1.37718">
        <ele>165.2</ele>
        <time>2021-11-21T14:18:10Z</time>
      </trkpt>
      <trkpt lat="44.19074" lon="1.37718">
        <ele>165.2</ele>
        <time>2021-11-21T14:18:11Z</time>
      </trkpt>
      <trkpt lat="44.19073" lon="1.37718">
        <ele>165.2</ele>
        <time>2021-11-21T14:18:13Z</time>
      </trkpt>
      <trkpt lat="44.19071" lon="1.37718">
        <ele>165.2</ele>
        <time>2021-11-21T14:18:14Z</time>
      </trkpt>
      <trkpt lat="44.1907" lon="1.37717">
        <ele>165.2</ele>
        <time>2021-11-21T14:18:15Z</time>
      </trkpt>
      <trkpt lat="44.19068" lon="1.37717">
        <ele>165.2</ele>
        <time>2021-11-21T14:18:17Z</time>
      </trkpt>
      <trkpt lat="44.19067" lon="1.37716">
        <ele>165.3</ele>
        <time>2021-11-21T14:18:18Z</time>
      </trkpt>
      <trkpt lat="44.19065" lon="1.37716">
        <ele>165.3</ele>
        <time>2021-11-21T14:18:19Z</time>
      </trkpt>
      <trkpt lat="44.19064" lon="1.37716">
        <ele>165.3</ele>
        <time>2021-11-21T14:18:21Z</time>
      </trkpt>
      <trkpt lat="44.19062" lon="1.37715">
        <ele>165.3</ele>
        <time>2021-11-21T14:18:22Z</time>
      </trkpt>
      <trkpt lat="44.1906" lon="1.37715">
        <ele>165.3</ele>
        <time>2021-11-21T14:18:24Z</time>
      </trkpt>
      <trkpt lat="44.19059" lon="1.37714">
        <ele>165.3</ele>
        <time>2021-11-21T14:18:25Z</time>
      </trkpt>
      <trkpt lat="44.19057" lon="1.37714">
        <ele>165.3</ele>
        <time>2021-11-21T14:18:27Z</time>
      </trkpt>
      <trkpt lat="44.19056" lon="1.37713">
        <ele>165.3</ele>
        <time>2021-11-21T14:18:28Z</time>
      </trkpt>
      <trkpt lat="44.19054" lon="1.37712">
        <ele>165.3</ele>
        <time>2021-11-21T14:18:30Z</time>
      </trkpt>
      <trkpt lat="44.19053" lon="1.37712">
        <ele>165.3</ele>
        <time>2021-11-21T14:18:31Z</time>
      </trkpt>
      <trkpt lat="44.19053" lon="1.37712">
        <ele>165.3</ele>
        <time>2021-11-21T14:18:32Z</time>
      </trkpt>
      <trkpt lat="44.19052" lon="1.37711">
        <ele>165.3</ele>
        <time>2021-11-21T14:18:33Z</time>
      </trkpt>
      <trkpt lat="44.19051" lon="1.37711">
        <ele>165.3</ele>
        <time>2021-11-21T14:18:35Z</time>
      </trkpt>
      <trkpt lat="44.1905" lon="1.3771">
        <ele>165.4</ele>
        <time>2021-11-21T14:18:36Z</time>
      </trkpt>
      <trkpt lat="44.19049" lon="1.37709">
        <ele>165.4</ele>
        <time>2021-11-21T14:18:38Z</time>
      </trkpt>
      <trkpt lat="44.19048" lon="1.37709">
        <ele>165.4</ele>
        <time>2021-11-21T14:18:39Z</time>
      </trkpt>
      <trkpt lat="44.19047" lon="1.37709">
        <ele>165.4</ele>
        <time>2021-11-21T14:18:40Z</time>
      </trkpt>
      <trkpt lat="44.19046" lon="1.37708">
        <ele>165.4</ele>
        <time>2021-11-21T14:18:41Z</time>
      </trkpt>
      <trkpt lat="44.19046" lon="1.37708">
        <ele>165.4</ele>
        <time>2021-11-21T14:18:42Z</time>
      </trkpt>
      <trkpt lat="44.19045" lon="1.37708">
        <ele>165.5</ele>
        <time>2021-11-21T14:18:44Z</time>
      </trkpt>
      <trkpt lat="44.19044" lon="1.37708">
        <ele>165.5</ele>
        <time>2021-11-21T14:18:45Z</time>
      </trkpt>
      <trkpt lat="44.19043" lon="1.37707">
        <ele>165.5</ele>
        <time>2021-11-21T14:18:46Z</time>
      </trkpt>
      <trkpt lat="44.19042" lon="1.37706">
        <ele>165.5</ele>
        <time>2021-11-21T14:18:48Z</time>
      </trkpt>
      <trkpt lat="44.19041" lon="1.37706">
        <ele>165.5</ele>
        <time>2021-11-21T14:18:50Z</time>
      </trkpt>
      <trkpt lat="44.1904" lon="1.37706">
        <ele>165.6</ele>
        <time>2021-11-21T14:18:51Z</time>
      </trkpt>
      <trkpt lat="44.19039" lon="1.37705">
        <ele>165.6</ele>
        <time>2021-11-21T14:18:52Z</time>
      </trkpt>
      <trkpt lat="44.19038" lon="1.37705">
        <ele>165.6</ele>
        <time>2021-11-21T14:18:54Z</time>
      </trkpt>
      <trkpt lat="44.19038" lon="1.37704">
        <ele>165.7</ele>
        <time>2021-11-21T14:18:55Z</time>
      </trkpt>
      <trkpt lat="44.19036" lon="1.37703">
        <ele>165.7</ele>
        <time>2021-11-21T14:18:57Z</time>
      </trkpt>
      <trkpt lat="44.19035" lon="1.37703">
        <ele>165.7</ele>
        <time>2021-11-21T14:18:58Z</time>
      </trkpt>
      <trkpt lat="44.19034" lon="1.37702">
        <ele>165.8</ele>
        <time>2021-11-21T14:19:00Z</time>
      </trkpt>
      <trkpt lat="44.19033" lon="1.37702">
        <ele>165.8</ele>
        <time>2021-11-21T14:19:01Z</time>
      </trkpt>
      <trkpt lat="44.19032" lon="1.37701">
        <ele>165.9</ele>
        <time>2021-11-21T14:19:03Z</time>
      </trkpt>
      <trkpt lat="44.19032" lon="1.377">
        <ele>165.9</ele>
        <time>2021-11-21T14:19:04Z</time>
      </trkpt>
      <trkpt lat="44.19031" lon="1.37698">
        <ele>165.9</ele>
        <time>2021-11-21T14:19:05Z</time>
      </trkpt>
      <trkpt lat="44.19031" lon="1.37696">
        <ele>166</ele>
        <time>2021-11-21T14:19:07Z</time>
      </trkpt>
      <trkpt lat="44.1903" lon="1.37694">
        <ele>166.1</ele>
        <time>2021-11-21T14:19:08Z</time>
      </trkpt>
      <trkpt lat="44.1903" lon="1.37692">
        <ele>166.1</ele>
        <time>2021-11-21T14:19:10Z</time>
      </trkpt>
      <trkpt lat="44.19029" lon="1.3769">
        <ele>166.2</ele>
        <time>2021-11-21T14:19:11Z</time>
      </trkpt>
      <trkpt lat="44.19029" lon="1.37689">
        <ele>166.2</ele>
        <time>2021-11-21T14:19:13Z</time>
      </trkpt>
      <trkpt lat="44.1903" lon="1.37687">
        <ele>166.3</ele>
        <time>2021-11-21T14:19:14Z</time>
      </trkpt>
      <trkpt lat="44.1903" lon="1.37687">
        <ele>166.3</ele>
        <time>2021-11-21T14:19:15Z</time>
      </trkpt>
      <trkpt lat="44.1903" lon="1.37686">
        <ele>166.3</ele>
        <time>2021-11-21T14:19:16Z</time>
      </trkpt>
      <trkpt lat="44.19031" lon="1.37684">
        <ele>166.4</ele>
        <time>2021-11-21T14:19:18Z</time>
      </trkpt>
      <trkpt lat="44.19031" lon="1.37683">
        <ele>166.4</ele>
        <time>2021-11-21T14:19:19Z</time>
      </trkpt>
      <trkpt lat="44.19031" lon="1.37681">
        <ele>166.5</ele>
        <time>2021-11-21T14:19:21Z</time>
      </trkpt>
      <trkpt lat="44.19031" lon="1.37679">
        <ele>166.5</ele>
        <time>2021-11-21T14:19:23Z</time>
      </trkpt>
      <trkpt lat="44.19031" lon="1.37679">
        <ele>166.5</ele>
        <time>2021-11-21T14:19:25Z</time>
      </trkpt>
      <trkpt lat="44.19031" lon="1.37678">
        <ele>166.5</ele>
        <time>2021-11-21T14:19:26Z</time>
      </trkpt>
      <trkpt lat="44.19031" lon="1.37678">
        <ele>166.5</ele>
        <time>2021-11-21T14:19:27Z</time>
      </trkpt>
      <trkpt lat="44.19031" lon="1.37678">
        <ele>166.5</ele>
        <time>2021-11-21T14:19:28Z</time>
      </trkpt>
      <trkpt lat="44.19031" lon="1.37679">
        <ele>166.6</ele>
        <time>2021-11-21T14:19:29Z</time>
      </trkpt>
      <trkpt lat="44.1903" lon="1.3768">
        <ele>166.6</ele>
        <time>2021-11-21T14:19:31Z</time>
      </trkpt>
      <trkpt lat="44.1903" lon="1.37681">
        <ele>166.6</ele>
        <time>2021-11-21T14:19:32Z</time>
      </trkpt>
      <trkpt lat="44.1903" lon="1.37682">
        <ele>166.7</ele>
        <time>2021-11-21T14:19:34Z</time>
      </trkpt>
      <trkpt lat="44.1903" lon="1.37683">
        <ele>166.7</ele>
        <time>2021-11-21T14:19:35Z</time>
      </trkpt>
      <trkpt lat="44.1903" lon="1.37685">
        <ele>166.7</ele>
        <time>2021-11-21T14:19:36Z</time>
      </trkpt>
      <trkpt lat="44.19029" lon="1.37687">
        <ele>166.8</ele>
        <time>2021-11-21T14:19:38Z</time>
      </trkpt>
      <trkpt lat="44.19029" lon="1.37689">
        <ele>166.8</ele>
        <time>2021-11-21T14:19:39Z</time>
      </trkpt>
      <trkpt lat="44.19029" lon="1.3769">
        <ele>166.9</ele>
        <time>2021-11-21T14:19:40Z</time>
      </trkpt>
      <trkpt lat="44.19029" lon="1.37692">
        <ele>166.9</ele>
        <time>2021-11-21T14:19:41Z</time>
      </trkpt>
      <trkpt lat="44.19028" lon="1.37694">
        <ele>167</ele>
        <time>2021-11-21T14:19:43Z</time>
      </trkpt>
      <trkpt lat="44.19027" lon="1.37695">
        <ele>167</ele>
        <time>2021-11-21T14:19:44Z</time>
      </trkpt>
      <trkpt lat="44.19026" lon="1.37697">
        <ele>167.1</ele>
        <time>2021-11-21T14:19:45Z</time>
      </trkpt>
      <trkpt lat="44.19025" lon="1.37699">
        <ele>167.1</ele>
        <time>2021-11-21T14:19:47Z</time>
      </trkpt>
      <trkpt lat="44.19023" lon="1.377">
        <ele>167.2</ele>
        <time>2021-11-21T14:19:49Z</time>
      </trkpt>
      <trkpt lat="44.19022" lon="1.377">
        <ele>167.2</ele>
        <time>2021-11-21T14:19:50Z</time>
      </trkpt>
      <trkpt lat="44.19021" lon="1.377">
        <ele>167.2</ele>
        <time>2021-11-21T14:19:51Z</time>
      </trkpt>
      <trkpt lat="44.19019" lon="1.37699">
        <ele>167.3</ele>
        <time>2021-11-21T14:19:53Z</time>
      </trkpt>
      <trkpt lat="44.19018" lon="1.37699">
        <ele>167.3</ele>
        <time>2021-11-21T14:19:54Z</time>
      </trkpt>
      <trkpt lat="44.19016" lon="1.37699">
        <ele>167.3</ele>
        <time>2021-11-21T14:19:55Z</time>
      </trkpt>
      <trkpt lat="44.19014" lon="1.37699">
        <ele>167.4</ele>
        <time>2021-11-21T14:19:57Z</time>
      </trkpt>
      <trkpt lat="44.19013" lon="1.37699">
        <ele>167.4</ele>
        <time>2021-11-21T14:19:58Z</time>
      </trkpt>
      <trkpt lat="44.19012" lon="1.37699">
        <ele>167.4</ele>
        <time>2021-11-21T14:19:59Z</time>
      </trkpt>
      <trkpt lat="44.19011" lon="1.37699">
        <ele>167.5</ele>
        <time>2021-11-21T14:20:01Z</time>
      </trkpt>
      <trkpt lat="44.1901" lon="1.37699">
        <ele>167.5</ele>
        <time>2021-11-21T14:20:02Z</time>
      </trkpt>
      <trkpt lat="44.19009" lon="1.377">
        <ele>167.5</ele>
        <time>2021-11-21T14:20:03Z</time>
      </trkpt>
      <trkpt lat="44.19007" lon="1.377">
        <ele>167.5</ele>
        <time>2021-11-21T14:20:05Z</time>
      </trkpt>
      <trkpt lat="44.19006" lon="1.377">
        <ele>167.5</ele>
        <time>2021-11-21T14:20:06Z</time>
      </trkpt>
      <trkpt lat="44.19004" lon="1.37701">
        <ele>167.6</ele>
        <time>2021-11-21T14:20:07Z</time>
      </trkpt>
      <trkpt lat="44.19003" lon="1.37701">
        <ele>167.6</ele>
        <time>2021-11-21T14:20:09Z</time>
      </trkpt>
      <trkpt lat="44.19002" lon="1.37702">
        <ele>167.6</ele>
        <time>2021-11-21T14:20:10Z</time>
      </trkpt>
      <trkpt lat="44.19" lon="1.37703">
        <ele>167.6</ele>
        <time>2021-11-21T14:20:12Z</time>
      </trkpt>
      <trkpt lat="44.18999" lon="1.37703">
        <ele>167.7</ele>
        <time>2021-11-21T14:20:13Z</time>
      </trkpt>
      <trkpt lat="44.18999" lon="1.37703">
        <ele>167.7</ele>
        <time>2021-11-21T14:20:14Z</time>
      </trkpt>
      <trkpt lat="44.18997" lon="1.37704">
        <ele>167.7</ele>
        <time>2021-11-21T14:20:16Z</time>
      </trkpt>
      <trkpt lat="44.18996" lon="1.37705">
        <ele>167.7</ele>
        <time>2021-11-21T14:20:17Z</time>
      </trkpt>
      <trkpt lat="44.18995" lon="1.37705">
        <ele>167.7</ele>
        <time>2021-11-21T14:20:18Z</time>
      </trkpt>
      <trkpt lat="44.18995" lon="1.37705">
        <ele>167.7</ele>
        <time>2021-11-21T14:20:20Z</time>
      </trkpt>
      <trkpt lat="44.18994" lon="1.37706">
        <ele>167.8</ele>
        <time>2021-11-21T14:20:21Z</time>
      </trkpt>
      <trkpt lat="44.18992" lon="1.37707">
        <ele>167.8</ele>
        <time>2021-11-21T14:20:22Z</time>
      </trkpt>
      <trkpt lat="44.18991" lon="1.37707">
        <ele>167.8</ele>
        <time>2021-11-21T14:20:24Z</time>
      </trkpt>
      <trkpt lat="44.18991" lon="1.37708">
        <ele>167.8</ele>
        <time>2021-11-21T14:20:25Z</time>
      </trkpt>
      <trkpt lat="44.18989" lon="1.37708">
        <ele>167.9</ele>
        <time>2021-11-21T14:20:27Z</time>
      </trkpt>
      <trkpt lat="44.18988" lon="1.37709">
        <ele>167.9</ele>
        <time>2021-11-21T14:20:28Z</time>
      </trkpt>
      <trkpt lat="44.18987" lon="1.37709">
        <ele>167.9</ele>
        <time>2021-11-21T14:20:29Z</time>
      </trkpt>
      <trkpt lat="44.18986" lon="1.3771">
        <ele>167.9</ele>
        <time>2021-11-21T14:20:31Z</time>
      </trkpt>
      <trkpt lat="44.18985" lon="1.37711">
        <ele>168</ele>
        <time>2021-11-21T14:20:32Z</time>
      </trkpt>
      <trkpt lat="44.18984" lon="1.37711">
        <ele>168</ele>
        <time>2021-11-21T14:20:33Z</time>
      </trkpt>
      <trkpt lat="44.18983" lon="1.37711">
        <ele>168</ele>
        <time>2021-11-21T14:20:35Z</time>
      </trkpt>
      <trkpt lat="44.18982" lon="1.37711">
        <ele>168</ele>
        <time>2021-11-21T14:20:36Z</time>
      </trkpt>
      <trkpt lat="44.1898" lon="1.37712">
        <ele>168.1</ele>
        <time>2021-11-21T14:20:38Z</time>
      </trkpt>
      <trkpt lat="44.18979" lon="1.37712">
        <ele>168.1</ele>
        <time>2021-11-21T14:20:39Z</time>
      </trkpt>
      <trkpt lat="44.18978" lon="1.37713">
        <ele>168.2</ele>
        <time>2021-11-21T14:20:41Z</time>
      </trkpt>
      <trkpt lat="44.18977" lon="1.37713">
        <ele>168.2</ele>
        <time>2021-11-21T14:20:42Z</time>
      </trkpt>
      <trkpt lat="44.18975" lon="1.37714">
        <ele>168.2</ele>
        <time>2021-11-21T14:20:44Z</time>
      </trkpt>
      <trkpt lat="44.18974" lon="1.37714">
        <ele>168.3</ele>
        <time>2021-11-21T14:20:45Z</time>
      </trkpt>
      <trkpt lat="44.18972" lon="1.37714">
        <ele>168.3</ele>
        <time>2021-11-21T14:20:47Z</time>
      </trkpt>
      <trkpt lat="44.18971" lon="1.37715">
        <ele>168.4</ele>
        <time>2021-11-21T14:20:48Z</time>
      </trkpt>
      <trkpt lat="44.1897" lon="1.37715">
        <ele>168.4</ele>
        <time>2021-11-21T14:20:50Z</time>
      </trkpt>
      <trkpt lat="44.18969" lon="1.37716">
        <ele>168.5</ele>
        <time>2021-11-21T14:20:51Z</time>
      </trkpt>
      <trkpt lat="44.18968" lon="1.37716">
        <ele>168.5</ele>
        <time>2021-11-21T14:20:52Z</time>
      </trkpt>
      <trkpt lat="44.18967" lon="1.37717">
        <ele>168.5</ele>
        <time>2021-11-21T14:20:53Z</time>
      </trkpt>
      <trkpt lat="44.18966" lon="1.37717">
        <ele>168.6</ele>
        <time>2021-11-21T14:20:54Z</time>
      </trkpt>
      <trkpt lat="44.18965" lon="1.37717">
        <ele>168.6</ele>
        <time>2021-11-21T14:20:55Z</time>
      </trkpt>
      <trkpt lat="44.18964" lon="1.37718">
        <ele>168.6</ele>
        <time>2021-11-21T14:20:56Z</time>
      </trkpt>
      <trkpt lat="44.18963" lon="1.37719">
        <ele>168.7</ele>
        <time>2021-11-21T14:20:58Z</time>
      </trkpt>
      <trkpt lat="44.18962" lon="1.37719">
        <ele>168.8</ele>
        <time>2021-11-21T14:20:59Z</time>
      </trkpt>
      <trkpt lat="44.18962" lon="1.37719">
        <ele>168.9</ele>
        <time>2021-11-21T14:21:00Z</time>
      </trkpt>
      <trkpt lat="44.1896" lon="1.3772">
        <ele>169.1</ele>
        <time>2021-11-21T14:21:02Z</time>
      </trkpt>
      <trkpt lat="44.18959" lon="1.37721">
        <ele>169.2</ele>
        <time>2021-11-21T14:21:03Z</time>
      </trkpt>
      <trkpt lat="44.18959" lon="1.37721">
        <ele>169.2</ele>
        <time>2021-11-21T14:21:04Z</time>
      </trkpt>
      <trkpt lat="44.18958" lon="1.37722">
        <ele>169.4</ele>
        <time>2021-11-21T14:21:06Z</time>
      </trkpt>
      <trkpt lat="44.18957" lon="1.37722">
        <ele>169.5</ele>
        <time>2021-11-21T14:21:07Z</time>
      </trkpt>
      <trkpt lat="44.18956" lon="1.37723">
        <ele>169.6</ele>
        <time>2021-11-21T14:21:08Z</time>
      </trkpt>
      <trkpt lat="44.18955" lon="1.37723">
        <ele>169.7</ele>
        <time>2021-11-21T14:21:10Z</time>
      </trkpt>
      <trkpt lat="44.18953" lon="1.37724">
        <ele>169.9</ele>
        <time>2021-11-21T14:21:11Z</time>
      </trkpt>
      <trkpt lat="44.18953" lon="1.37724">
        <ele>169.9</ele>
        <time>2021-11-21T14:21:12Z</time>
      </trkpt>
      <trkpt lat="44.18951" lon="1.37725">
        <ele>170.1</ele>
        <time>2021-11-21T14:21:14Z</time>
      </trkpt>
      <trkpt lat="44.18951" lon="1.37726">
        <ele>170.2</ele>
        <time>2021-11-21T14:21:15Z</time>
      </trkpt>
      <trkpt lat="44.1895" lon="1.37727">
        <ele>170.3</ele>
        <time>2021-11-21T14:21:17Z</time>
      </trkpt>
      <trkpt lat="44.1895" lon="1.37728">
        <ele>170.3</ele>
        <time>2021-11-21T14:21:19Z</time>
      </trkpt>
      <trkpt lat="44.1895" lon="1.37728">
        <ele>170.4</ele>
        <time>2021-11-21T14:21:20Z</time>
      </trkpt>
      <trkpt lat="44.1895" lon="1.37729">
        <ele>170.4</ele>
        <time>2021-11-21T14:21:21Z</time>
      </trkpt>
      <trkpt lat="44.18949" lon="1.37729">
        <ele>170.5</ele>
        <time>2021-11-21T14:21:23Z</time>
      </trkpt>
      <trkpt lat="44.18949" lon="1.37729">
        <ele>170.6</ele>
        <time>2021-11-21T14:21:24Z</time>
      </trkpt>
      <trkpt lat="44.18947" lon="1.3773">
        <ele>170.7</ele>
        <time>2021-11-21T14:21:26Z</time>
      </trkpt>
      <trkpt lat="44.18946" lon="1.3773">
        <ele>170.8</ele>
        <time>2021-11-21T14:21:28Z</time>
      </trkpt>
      <trkpt lat="44.18945" lon="1.3773">
        <ele>171</ele>
        <time>2021-11-21T14:21:29Z</time>
      </trkpt>
      <trkpt lat="44.18944" lon="1.37729">
        <ele>171.1</ele>
        <time>2021-11-21T14:21:31Z</time>
      </trkpt>
      <trkpt lat="44.18943" lon="1.37729">
        <ele>171.2</ele>
        <time>2021-11-21T14:21:32Z</time>
      </trkpt>
      <trkpt lat="44.18943" lon="1.37729">
        <ele>171.2</ele>
        <time>2021-11-21T14:21:33Z</time>
      </trkpt>
      <trkpt lat="44.18942" lon="1.37728">
        <ele>171.3</ele>
        <time>2021-11-21T14:21:35Z</time>
      </trkpt>
      <trkpt lat="44.18941" lon="1.37728">
        <ele>171.5</ele>
        <time>2021-11-21T14:21:36Z</time>
      </trkpt>
      <trkpt lat="44.1894" lon="1.37728">
        <ele>171.5</ele>
        <time>2021-11-21T14:21:37Z</time>
      </trkpt>
      <trkpt lat="44.18939" lon="1.37728">
        <ele>171.7</ele>
        <time>2021-11-21T14:21:39Z</time>
      </trkpt>
      <trkpt lat="44.18938" lon="1.37729">
        <ele>171.8</ele>
        <time>2021-11-21T14:21:40Z</time>
      </trkpt>
      <trkpt lat="44.18936" lon="1.37729">
        <ele>171.9</ele>
        <time>2021-11-21T14:21:42Z</time>
      </trkpt>
      <trkpt lat="44.18936" lon="1.37729">
        <ele>172</ele>
        <time>2021-11-21T14:21:43Z</time>
      </trkpt>
      <trkpt lat="44.18935" lon="1.37728">
        <ele>172.1</ele>
        <time>2021-11-21T14:21:44Z</time>
      </trkpt>
      <trkpt lat="44.18933" lon="1.37727">
        <ele>172.3</ele>
        <time>2021-11-21T14:21:46Z</time>
      </trkpt>
      <trkpt lat="44.18932" lon="1.37727">
        <ele>172.3</ele>
        <time>2021-11-21T14:21:47Z</time>
      </trkpt>
      <trkpt lat="44.18932" lon="1.37726">
        <ele>172.4</ele>
        <time>2021-11-21T14:21:48Z</time>
      </trkpt>
      <trkpt lat="44.18931" lon="1.37726">
        <ele>172.5</ele>
        <time>2021-11-21T14:21:50Z</time>
      </trkpt>
      <trkpt lat="44.1893" lon="1.37725">
        <ele>172.6</ele>
        <time>2021-11-21T14:21:51Z</time>
      </trkpt>
      <trkpt lat="44.1893" lon="1.37725">
        <ele>172.7</ele>
        <time>2021-11-21T14:21:53Z</time>
      </trkpt>
      <trkpt lat="44.18929" lon="1.37724">
        <ele>172.7</ele>
        <time>2021-11-21T14:21:55Z</time>
      </trkpt>
      <trkpt lat="44.18928" lon="1.37724">
        <ele>172.8</ele>
        <time>2021-11-21T14:21:56Z</time>
      </trkpt>
      <trkpt lat="44.18927" lon="1.37723">
        <ele>172.9</ele>
        <time>2021-11-21T14:21:57Z</time>
      </trkpt>
      <trkpt lat="44.18927" lon="1.37723">
        <ele>173</ele>
        <time>2021-11-21T14:21:59Z</time>
      </trkpt>
      <trkpt lat="44.18926" lon="1.37722">
        <ele>173</ele>
        <time>2021-11-21T14:22:00Z</time>
      </trkpt>
      <trkpt lat="44.18925" lon="1.37722">
        <ele>173.1</ele>
        <time>2021-11-21T14:22:02Z</time>
      </trkpt>
      <trkpt lat="44.18924" lon="1.37722">
        <ele>173.2</ele>
        <time>2021-11-21T14:22:04Z</time>
      </trkpt>
      <trkpt lat="44.18923" lon="1.37721">
        <ele>173.3</ele>
        <time>2021-11-21T14:22:05Z</time>
      </trkpt>
      <trkpt lat="44.18922" lon="1.37721">
        <ele>173.4</ele>
        <time>2021-11-21T14:22:06Z</time>
      </trkpt>
      <trkpt lat="44.18921" lon="1.37719">
        <ele>173.5</ele>
        <time>2021-11-21T14:22:08Z</time>
      </trkpt>
      <trkpt lat="44.18921" lon="1.37718">
        <ele>173.5</ele>
        <time>2021-11-21T14:22:09Z</time>
      </trkpt>
      <trkpt lat="44.18921" lon="1.37717">
        <ele>173.6</ele>
        <time>2021-11-21T14:22:10Z</time>
      </trkpt>
      <trkpt lat="44.1892" lon="1.37716">
        <ele>173.7</ele>
        <time>2021-11-21T14:22:12Z</time>
      </trkpt>
      <trkpt lat="44.18918" lon="1.37715">
        <ele>173.8</ele>
        <time>2021-11-21T14:22:13Z</time>
      </trkpt>
      <trkpt lat="44.18918" lon="1.37715">
        <ele>173.8</ele>
        <time>2021-11-21T14:22:14Z</time>
      </trkpt>
      <trkpt lat="44.18916" lon="1.37714">
        <ele>173.9</ele>
        <time>2021-11-21T14:22:16Z</time>
      </trkpt>
      <trkpt lat="44.18915" lon="1.37714">
        <ele>174</ele>
        <time>2021-11-21T14:22:17Z</time>
      </trkpt>
      <trkpt lat="44.18914" lon="1.37713">
        <ele>174.1</ele>
        <time>2021-11-21T14:22:19Z</time>
      </trkpt>
      <trkpt lat="44.18913" lon="1.37712">
        <ele>174.2</ele>
        <time>2021-11-21T14:22:20Z</time>
      </trkpt>
      <trkpt lat="44.18912" lon="1.37712">
        <ele>174.2</ele>
        <time>2021-11-21T14:22:22Z</time>
      </trkpt>
      <trkpt lat="44.18911" lon="1.37711">
        <ele>174.3</ele>
        <time>2021-11-21T14:22:24Z</time>
      </trkpt>
      <trkpt lat="44.1891" lon="1.3771">
        <ele>174.4</ele>
        <time>2021-11-21T14:22:25Z</time>
      </trkpt>
      <trkpt lat="44.18909" lon="1.37709">
        <ele>174.5</ele>
        <time>2021-11-21T14:22:27Z</time>
      </trkpt>
      <trkpt lat="44.18909" lon="1.37708">
        <ele>174.5</ele>
        <time>2021-11-21T14:22:28Z</time>
      </trkpt>
      <trkpt lat="44.18908" lon="1.37706">
        <ele>174.6</ele>
        <time>2021-11-21T14:22:30Z</time>
      </trkpt>
      <trkpt lat="44.18907" lon="1.37705">
        <ele>174.7</ele>
        <time>2021-11-21T14:22:31Z</time>
      </trkpt>
      <trkpt lat="44.18906" lon="1.37704">
        <ele>174.7</ele>
        <time>2021-11-21T14:22:33Z</time>
      </trkpt>
      <trkpt lat="44.18906" lon="1.37704">
        <ele>174.8</ele>
        <time>2021-11-21T14:22:34Z</time>
      </trkpt>
      <trkpt lat="44.18905" lon="1.37703">
        <ele>174.8</ele>
        <time>2021-11-21T14:22:35Z</time>
      </trkpt>
      <trkpt lat="44.18904" lon="1.37702">
        <ele>174.9</ele>
        <time>2021-11-21T14:22:37Z</time>
      </trkpt>
      <trkpt lat="44.18904" lon="1.37701">
        <ele>175</ele>
        <time>2021-11-21T14:22:38Z</time>
      </trkpt>
      <trkpt lat="44.18904" lon="1.377">
        <ele>175</ele>
        <time>2021-11-21T14:22:39Z</time>
      </trkpt>
      <trkpt lat="44.18903" lon="1.37699">
        <ele>175.1</ele>
        <time>2021-11-21T14:22:41Z</time>
      </trkpt>
      <trkpt lat="44.18902" lon="1.37697">
        <ele>175.1</ele>
        <time>2021-11-21T14:22:42Z</time>
      </trkpt>
      <trkpt lat="44.18901" lon="1.37696">
        <ele>175.2</ele>
        <time>2021-11-21T14:22:43Z</time>
      </trkpt>
      <trkpt lat="44.189" lon="1.37695">
        <ele>175.3</ele>
        <time>2021-11-21T14:22:45Z</time>
      </trkpt>
      <trkpt lat="44.18899" lon="1.37694">
        <ele>175.3</ele>
        <time>2021-11-21T14:22:46Z</time>
      </trkpt>
      <trkpt lat="44.18898" lon="1.37692">
        <ele>175.4</ele>
        <time>2021-11-21T14:22:48Z</time>
      </trkpt>
      <trkpt lat="44.18897" lon="1.37692">
        <ele>175.4</ele>
        <time>2021-11-21T14:22:49Z</time>
      </trkpt>
      <trkpt lat="44.18896" lon="1.37691">
        <ele>175.5</ele>
        <time>2021-11-21T14:22:50Z</time>
      </trkpt>
      <trkpt lat="44.18895" lon="1.3769">
        <ele>175.5</ele>
        <time>2021-11-21T14:22:52Z</time>
      </trkpt>
      <trkpt lat="44.18895" lon="1.37688">
        <ele>175.6</ele>
        <time>2021-11-21T14:22:53Z</time>
      </trkpt>
      <trkpt lat="44.18894" lon="1.37687">
        <ele>175.7</ele>
        <time>2021-11-21T14:22:55Z</time>
      </trkpt>
      <trkpt lat="44.18893" lon="1.37685">
        <ele>175.7</ele>
        <time>2021-11-21T14:22:56Z</time>
      </trkpt>
      <trkpt lat="44.18892" lon="1.37684">
        <ele>175.8</ele>
        <time>2021-11-21T14:22:57Z</time>
      </trkpt>
      <trkpt lat="44.18891" lon="1.37683">
        <ele>175.8</ele>
        <time>2021-11-21T14:22:58Z</time>
      </trkpt>
      <trkpt lat="44.1889" lon="1.37682">
        <ele>175.9</ele>
        <time>2021-11-21T14:23:00Z</time>
      </trkpt>
      <trkpt lat="44.18889" lon="1.37681">
        <ele>176</ele>
        <time>2021-11-21T14:23:01Z</time>
      </trkpt>
      <trkpt lat="44.18888" lon="1.3768">
        <ele>176</ele>
        <time>2021-11-21T14:23:03Z</time>
      </trkpt>
      <trkpt lat="44.18887" lon="1.37678">
        <ele>176.1</ele>
        <time>2021-11-21T14:23:04Z</time>
      </trkpt>
      <trkpt lat="44.18886" lon="1.37676">
        <ele>176.2</ele>
        <time>2021-11-21T14:23:06Z</time>
      </trkpt>
      <trkpt lat="44.18886" lon="1.37676">
        <ele>176.2</ele>
        <time>2021-11-21T14:23:07Z</time>
      </trkpt>
      <trkpt lat="44.18886" lon="1.37674">
        <ele>176.3</ele>
        <time>2021-11-21T14:23:09Z</time>
      </trkpt>
      <trkpt lat="44.18885" lon="1.37673">
        <ele>176.3</ele>
        <time>2021-11-21T14:23:10Z</time>
      </trkpt>
      <trkpt lat="44.18885" lon="1.37673">
        <ele>176.3</ele>
        <time>2021-11-21T14:23:12Z</time>
      </trkpt>
      <trkpt lat="44.18884" lon="1.37672">
        <ele>176.4</ele>
        <time>2021-11-21T14:23:13Z</time>
      </trkpt>
      <trkpt lat="44.18883" lon="1.37671">
        <ele>176.4</ele>
        <time>2021-11-21T14:23:14Z</time>
      </trkpt>
      <trkpt lat="44.18882" lon="1.3767">
        <ele>176.5</ele>
        <time>2021-11-21T14:23:16Z</time>
      </trkpt>
      <trkpt lat="44.18881" lon="1.37669">
        <ele>176.5</ele>
        <time>2021-11-21T14:23:17Z</time>
      </trkpt>
      <trkpt lat="44.1888" lon="1.37668">
        <ele>176.6</ele>
        <time>2021-11-21T14:23:19Z</time>
      </trkpt>
      <trkpt lat="44.18879" lon="1.37667">
        <ele>176.7</ele>
        <time>2021-11-21T14:23:20Z</time>
      </trkpt>
      <trkpt lat="44.18878" lon="1.37665">
        <ele>176.7</ele>
        <time>2021-11-21T14:23:21Z</time>
      </trkpt>
      <trkpt lat="44.18877" lon="1.37664">
        <ele>176.8</ele>
        <time>2021-11-21T14:23:23Z</time>
      </trkpt>
      <trkpt lat="44.18876" lon="1.37663">
        <ele>176.8</ele>
        <time>2021-11-21T14:23:24Z</time>
      </trkpt>
      <trkpt lat="44.18876" lon="1.37663">
        <ele>176.9</ele>
        <time>2021-11-21T14:23:26Z</time>
      </trkpt>
      <trkpt lat="44.18875" lon="1.37662">
        <ele>176.9</ele>
        <time>2021-11-21T14:23:27Z</time>
      </trkpt>
      <trkpt lat="44.18874" lon="1.37661">
        <ele>177</ele>
        <time>2021-11-21T14:23:29Z</time>
      </trkpt>
      <trkpt lat="44.18873" lon="1.3766">
        <ele>177</ele>
        <time>2021-11-21T14:23:30Z</time>
      </trkpt>
      <trkpt lat="44.18873" lon="1.37659">
        <ele>177.1</ele>
        <time>2021-11-21T14:23:32Z</time>
      </trkpt>
      <trkpt lat="44.18872" lon="1.37658">
        <ele>177.1</ele>
        <time>2021-11-21T14:23:33Z</time>
      </trkpt>
      <trkpt lat="44.18872" lon="1.37658">
        <ele>177.1</ele>
        <time>2021-11-21T14:23:34Z</time>
      </trkpt>
      <trkpt lat="44.18871" lon="1.37657">
        <ele>177.2</ele>
        <time>2021-11-21T14:23:35Z</time>
      </trkpt>
      <trkpt lat="44.18871" lon="1.37656">
        <ele>177.2</ele>
        <time>2021-11-21T14:23:37Z</time>
      </trkpt>
      <trkpt lat="44.1887" lon="1.37655">
        <ele>177.2</ele>
        <time>2021-11-21T14:23:38Z</time>
      </trkpt>
      <trkpt lat="44.1887" lon="1.37654">
        <ele>177.3</ele>
        <time>2021-11-21T14:23:39Z</time>
      </trkpt>
      <trkpt lat="44.18869" lon="1.37653">
        <ele>177.3</ele>
        <time>2021-11-21T14:23:41Z</time>
      </trkpt>
      <trkpt lat="44.18869" lon="1.37653">
        <ele>177.3</ele>
        <time>2021-11-21T14:23:43Z</time>
      </trkpt>
      <trkpt lat="44.18869" lon="1.37653">
        <ele>177.3</ele>
        <time>2021-11-21T14:23:44Z</time>
      </trkpt>
      <trkpt lat="44.18869" lon="1.37653">
        <ele>177.3</ele>
        <time>2021-11-21T14:23:45Z</time>
      </trkpt>
      <trkpt lat="44.1887" lon="1.37654">
        <ele>177.3</ele>
        <time>2021-11-21T14:23:47Z</time>
      </trkpt>
      <trkpt lat="44.1887" lon="1.37654">
        <ele>177.4</ele>
        <time>2021-11-21T14:23:48Z</time>
      </trkpt>
      <trkpt lat="44.1887" lon="1.37654">
        <ele>177.4</ele>
        <time>2021-11-21T14:23:50Z</time>
      </trkpt>
      <trkpt lat="44.18869" lon="1.37654">
        <ele>177.4</ele>
        <time>2021-11-21T14:23:51Z</time>
      </trkpt>
      <trkpt lat="44.18868" lon="1.37654">
        <ele>177.4</ele>
        <time>2021-11-21T14:23:52Z</time>
      </trkpt>
      <trkpt lat="44.18868" lon="1.37653">
        <ele>177.5</ele>
        <time>2021-11-21T14:23:54Z</time>
      </trkpt>
      <trkpt lat="44.18867" lon="1.37653">
        <ele>177.5</ele>
        <time>2021-11-21T14:23:55Z</time>
      </trkpt>
      <trkpt lat="44.18866" lon="1.37652">
        <ele>177.6</ele>
        <time>2021-11-21T14:23:56Z</time>
      </trkpt>
      <trkpt lat="44.18865" lon="1.3765">
        <ele>177.6</ele>
        <time>2021-11-21T14:23:58Z</time>
      </trkpt>
      <trkpt lat="44.18863" lon="1.37648">
        <ele>177.7</ele>
        <time>2021-11-21T14:23:59Z</time>
      </trkpt>
      <trkpt lat="44.18863" lon="1.37647">
        <ele>177.7</ele>
        <time>2021-11-21T14:24:01Z</time>
      </trkpt>
      <trkpt lat="44.18862" lon="1.37646">
        <ele>177.7</ele>
        <time>2021-11-21T14:24:02Z</time>
      </trkpt>
      <trkpt lat="44.18862" lon="1.37645">
        <ele>177.7</ele>
        <time>2021-11-21T14:24:04Z</time>
      </trkpt>
      <trkpt lat="44.18861" lon="1.37643">
        <ele>177.8</ele>
        <time>2021-11-21T14:24:05Z</time>
      </trkpt>
      <trkpt lat="44.1886" lon="1.37641">
        <ele>177.8</ele>
        <time>2021-11-21T14:24:07Z</time>
      </trkpt>
      <trkpt lat="44.18859" lon="1.3764">
        <ele>177.8</ele>
        <time>2021-11-21T14:24:08Z</time>
      </trkpt>
      <trkpt lat="44.18858" lon="1.37639">
        <ele>177.9</ele>
        <time>2021-11-21T14:24:10Z</time>
      </trkpt>
      <trkpt lat="44.18858" lon="1.37637">
        <ele>177.9</ele>
        <time>2021-11-21T14:24:11Z</time>
      </trkpt>
      <trkpt lat="44.18857" lon="1.37636">
        <ele>177.9</ele>
        <time>2021-11-21T14:24:13Z</time>
      </trkpt>
      <trkpt lat="44.18857" lon="1.37634">
        <ele>177.9</ele>
        <time>2021-11-21T14:24:14Z</time>
      </trkpt>
      <trkpt lat="44.18857" lon="1.37633">
        <ele>177.9</ele>
        <time>2021-11-21T14:24:15Z</time>
      </trkpt>
      <trkpt lat="44.18856" lon="1.37632">
        <ele>177.9</ele>
        <time>2021-11-21T14:24:17Z</time>
      </trkpt>
      <trkpt lat="44.18855" lon="1.37631">
        <ele>177.9</ele>
        <time>2021-11-21T14:24:18Z</time>
      </trkpt>
      <trkpt lat="44.18854" lon="1.3763">
        <ele>177.9</ele>
        <time>2021-11-21T14:24:19Z</time>
      </trkpt>
      <trkpt lat="44.18854" lon="1.37629">
        <ele>177.9</ele>
        <time>2021-11-21T14:24:20Z</time>
      </trkpt>
      <trkpt lat="44.18853" lon="1.37628">
        <ele>178</ele>
        <time>2021-11-21T14:24:21Z</time>
      </trkpt>
      <trkpt lat="44.18852" lon="1.37627">
        <ele>178</ele>
        <time>2021-11-21T14:24:22Z</time>
      </trkpt>
      <trkpt lat="44.18851" lon="1.37626">
        <ele>178</ele>
        <time>2021-11-21T14:24:24Z</time>
      </trkpt>
      <trkpt lat="44.1885" lon="1.37624">
        <ele>178</ele>
        <time>2021-11-21T14:24:25Z</time>
      </trkpt>
      <trkpt lat="44.18849" lon="1.37623">
        <ele>178</ele>
        <time>2021-11-21T14:24:26Z</time>
      </trkpt>
      <trkpt lat="44.18847" lon="1.3762">
        <ele>178</ele>
        <time>2021-11-21T14:24:28Z</time>
      </trkpt>
      <trkpt lat="44.18847" lon="1.37619">
        <ele>178</ele>
        <time>2021-11-21T14:24:29Z</time>
      </trkpt>
      <trkpt lat="44.18845" lon="1.37617">
        <ele>178.1</ele>
        <time>2021-11-21T14:24:30Z</time>
      </trkpt>
      <trkpt lat="44.18844" lon="1.37615">
        <ele>178.1</ele>
        <time>2021-11-21T14:24:32Z</time>
      </trkpt>
      <trkpt lat="44.18843" lon="1.37614">
        <ele>178</ele>
        <time>2021-11-21T14:24:33Z</time>
      </trkpt>
      <trkpt lat="44.18843" lon="1.37614">
        <ele>178</ele>
        <time>2021-11-21T14:24:34Z</time>
      </trkpt>
      <trkpt lat="44.18842" lon="1.37612">
        <ele>178</ele>
        <time>2021-11-21T14:24:35Z</time>
      </trkpt>
      <trkpt lat="44.18841" lon="1.37611">
        <ele>178</ele>
        <time>2021-11-21T14:24:36Z</time>
      </trkpt>
      <trkpt lat="44.1884" lon="1.37609">
        <ele>178</ele>
        <time>2021-11-21T14:24:38Z</time>
      </trkpt>
      <trkpt lat="44.1884" lon="1.37608">
        <ele>178</ele>
        <time>2021-11-21T14:24:39Z</time>
      </trkpt>
      <trkpt lat="44.18839" lon="1.37605">
        <ele>178</ele>
        <time>2021-11-21T14:24:41Z</time>
      </trkpt>
      <trkpt lat="44.18838" lon="1.37604">
        <ele>178</ele>
        <time>2021-11-21T14:24:42Z</time>
      </trkpt>
      <trkpt lat="44.18838" lon="1.37602">
        <ele>177.9</ele>
        <time>2021-11-21T14:24:43Z</time>
      </trkpt>
      <trkpt lat="44.18837" lon="1.37601">
        <ele>177.9</ele>
        <time>2021-11-21T14:24:45Z</time>
      </trkpt>
      <trkpt lat="44.18836" lon="1.376">
        <ele>177.9</ele>
        <time>2021-11-21T14:24:46Z</time>
      </trkpt>
      <trkpt lat="44.18836" lon="1.37599">
        <ele>177.9</ele>
        <time>2021-11-21T14:24:47Z</time>
      </trkpt>
      <trkpt lat="44.18836" lon="1.37596">
        <ele>177.9</ele>
        <time>2021-11-21T14:24:48Z</time>
      </trkpt>
      <trkpt lat="44.18836" lon="1.37594">
        <ele>177.8</ele>
        <time>2021-11-21T14:24:50Z</time>
      </trkpt>
      <trkpt lat="44.18836" lon="1.37592">
        <ele>177.8</ele>
        <time>2021-11-21T14:24:51Z</time>
      </trkpt>
      <trkpt lat="44.18837" lon="1.37589">
        <ele>177.7</ele>
        <time>2021-11-21T14:24:52Z</time>
      </trkpt>
      <trkpt lat="44.18837" lon="1.37587">
        <ele>177.7</ele>
        <time>2021-11-21T14:24:54Z</time>
      </trkpt>
      <trkpt lat="44.18837" lon="1.37586">
        <ele>177.7</ele>
        <time>2021-11-21T14:24:55Z</time>
      </trkpt>
      <trkpt lat="44.18837" lon="1.37584">
        <ele>177.7</ele>
        <time>2021-11-21T14:24:56Z</time>
      </trkpt>
      <trkpt lat="44.18837" lon="1.37583">
        <ele>177.7</ele>
        <time>2021-11-21T14:24:57Z</time>
      </trkpt>
      <trkpt lat="44.18837" lon="1.37581">
        <ele>177.6</ele>
        <time>2021-11-21T14:24:59Z</time>
      </trkpt>
      <trkpt lat="44.18837" lon="1.3758">
        <ele>177.6</ele>
        <time>2021-11-21T14:25:00Z</time>
      </trkpt>
      <trkpt lat="44.18836" lon="1.37579">
        <ele>177.6</ele>
        <time>2021-11-21T14:25:02Z</time>
      </trkpt>
      <trkpt lat="44.18836" lon="1.37578">
        <ele>177.6</ele>
        <time>2021-11-21T14:25:03Z</time>
      </trkpt>
      <trkpt lat="44.18835" lon="1.37577">
        <ele>177.6</ele>
        <time>2021-11-21T14:25:04Z</time>
      </trkpt>
      <trkpt lat="44.18835" lon="1.37576">
        <ele>177.5</ele>
        <time>2021-11-21T14:25:05Z</time>
      </trkpt>
      <trkpt lat="44.18834" lon="1.37575">
        <ele>177.5</ele>
        <time>2021-11-21T14:25:07Z</time>
      </trkpt>
      <trkpt lat="44.18834" lon="1.37574">
        <ele>177.5</ele>
        <time>2021-11-21T14:25:08Z</time>
      </trkpt>
      <trkpt lat="44.18834" lon="1.37572">
        <ele>177.5</ele>
        <time>2021-11-21T14:25:09Z</time>
      </trkpt>
      <trkpt lat="44.18833" lon="1.37571">
        <ele>177.5</ele>
        <time>2021-11-21T14:25:10Z</time>
      </trkpt>
      <trkpt lat="44.18833" lon="1.3757">
        <ele>177.5</ele>
        <time>2021-11-21T14:25:11Z</time>
      </trkpt>
      <trkpt lat="44.18833" lon="1.37568">
        <ele>177.4</ele>
        <time>2021-11-21T14:25:12Z</time>
      </trkpt>
      <trkpt lat="44.18834" lon="1.37567">
        <ele>177.4</ele>
        <time>2021-11-21T14:25:14Z</time>
      </trkpt>
      <trkpt lat="44.18834" lon="1.37565">
        <ele>177.4</ele>
        <time>2021-11-21T14:25:15Z</time>
      </trkpt>
      <trkpt lat="44.18833" lon="1.37564">
        <ele>177.4</ele>
        <time>2021-11-21T14:25:16Z</time>
      </trkpt>
      <trkpt lat="44.18833" lon="1.37562">
        <ele>177.3</ele>
        <time>2021-11-21T14:25:17Z</time>
      </trkpt>
      <trkpt lat="44.18832" lon="1.3756">
        <ele>177.3</ele>
        <time>2021-11-21T14:25:18Z</time>
      </trkpt>
      <trkpt lat="44.18832" lon="1.37558">
        <ele>177.3</ele>
        <time>2021-11-21T14:25:20Z</time>
      </trkpt>
      <trkpt lat="44.18831" lon="1.37557">
        <ele>177.3</ele>
        <time>2021-11-21T14:25:21Z</time>
      </trkpt>
      <trkpt lat="44.1883" lon="1.37554">
        <ele>177.2</ele>
        <time>2021-11-21T14:25:23Z</time>
      </trkpt>
      <trkpt lat="44.1883" lon="1.37553">
        <ele>177.2</ele>
        <time>2021-11-21T14:25:24Z</time>
      </trkpt>
      <trkpt lat="44.18829" lon="1.37552">
        <ele>177.2</ele>
        <time>2021-11-21T14:25:25Z</time>
      </trkpt>
      <trkpt lat="44.18829" lon="1.37551">
        <ele>177.2</ele>
        <time>2021-11-21T14:25:26Z</time>
      </trkpt>
      <trkpt lat="44.18829" lon="1.37549">
        <ele>177.2</ele>
        <time>2021-11-21T14:25:28Z</time>
      </trkpt>
      <trkpt lat="44.18828" lon="1.37547">
        <ele>177.2</ele>
        <time>2021-11-21T14:25:29Z</time>
      </trkpt>
      <trkpt lat="44.18827" lon="1.37544">
        <ele>177.2</ele>
        <time>2021-11-21T14:25:31Z</time>
      </trkpt>
      <trkpt lat="44.18827" lon="1.37543">
        <ele>177.2</ele>
        <time>2021-11-21T14:25:32Z</time>
      </trkpt>
      <trkpt lat="44.18827" lon="1.3754">
        <ele>177.1</ele>
        <time>2021-11-21T14:25:33Z</time>
      </trkpt>
      <trkpt lat="44.18827" lon="1.37539">
        <ele>177.1</ele>
        <time>2021-11-21T14:25:34Z</time>
      </trkpt>
      <trkpt lat="44.18827" lon="1.37538">
        <ele>177.1</ele>
        <time>2021-11-21T14:25:35Z</time>
      </trkpt>
      <trkpt lat="44.18826" lon="1.37535">
        <ele>177.1</ele>
        <time>2021-11-21T14:25:37Z</time>
      </trkpt>
      <trkpt lat="44.18826" lon="1.37533">
        <ele>177.1</ele>
        <time>2021-11-21T14:25:38Z</time>
      </trkpt>
      <trkpt lat="44.18826" lon="1.37532">
        <ele>177.1</ele>
        <time>2021-11-21T14:25:39Z</time>
      </trkpt>
      <trkpt lat="44.18825" lon="1.3753">
        <ele>177.1</ele>
        <time>2021-11-21T14:25:41Z</time>
      </trkpt>
      <trkpt lat="44.18825" lon="1.37529">
        <ele>177.1</ele>
        <time>2021-11-21T14:25:42Z</time>
      </trkpt>
      <trkpt lat="44.18825" lon="1.37528">
        <ele>177.1</ele>
        <time>2021-11-21T14:25:43Z</time>
      </trkpt>
      <trkpt lat="44.18824" lon="1.37525">
        <ele>177.1</ele>
        <time>2021-11-21T14:25:44Z</time>
      </trkpt>
      <trkpt lat="44.18824" lon="1.37524">
        <ele>177.1</ele>
        <time>2021-11-21T14:25:45Z</time>
      </trkpt>
      <trkpt lat="44.18824" lon="1.37523">
        <ele>177.1</ele>
        <time>2021-11-21T14:25:46Z</time>
      </trkpt>
      <trkpt lat="44.18823" lon="1.37522">
        <ele>177.1</ele>
        <time>2021-11-21T14:25:48Z</time>
      </trkpt>
      <trkpt lat="44.18822" lon="1.3752">
        <ele>177.1</ele>
        <time>2021-11-21T14:25:49Z</time>
      </trkpt>
      <trkpt lat="44.18822" lon="1.37519">
        <ele>177.1</ele>
        <time>2021-11-21T14:25:50Z</time>
      </trkpt>
      <trkpt lat="44.18821" lon="1.37517">
        <ele>177.1</ele>
        <time>2021-11-21T14:25:51Z</time>
      </trkpt>
      <trkpt lat="44.1882" lon="1.37516">
        <ele>177.1</ele>
        <time>2021-11-21T14:25:52Z</time>
      </trkpt>
      <trkpt lat="44.18819" lon="1.37513">
        <ele>177.1</ele>
        <time>2021-11-21T14:25:53Z</time>
      </trkpt>
      <trkpt lat="44.18819" lon="1.37512">
        <ele>177.1</ele>
        <time>2021-11-21T14:25:55Z</time>
      </trkpt>
      <trkpt lat="44.18819" lon="1.3751">
        <ele>177.1</ele>
        <time>2021-11-21T14:25:56Z</time>
      </trkpt>
      <trkpt lat="44.18818" lon="1.37508">
        <ele>177.1</ele>
        <time>2021-11-21T14:25:57Z</time>
      </trkpt>
      <trkpt lat="44.18818" lon="1.37507">
        <ele>177.1</ele>
        <time>2021-11-21T14:25:58Z</time>
      </trkpt>
      <trkpt lat="44.18818" lon="1.37505">
        <ele>177.2</ele>
        <time>2021-11-21T14:25:59Z</time>
      </trkpt>
      <trkpt lat="44.18818" lon="1.37503">
        <ele>177.2</ele>
        <time>2021-11-21T14:26:01Z</time>
      </trkpt>
      <trkpt lat="44.18817" lon="1.37501">
        <ele>177.2</ele>
        <time>2021-11-21T14:26:02Z</time>
      </trkpt>
      <trkpt lat="44.18817" lon="1.375">
        <ele>177.2</ele>
        <time>2021-11-21T14:26:03Z</time>
      </trkpt>
      <trkpt lat="44.18817" lon="1.37498">
        <ele>177.2</ele>
        <time>2021-11-21T14:26:04Z</time>
      </trkpt>
      <trkpt lat="44.18817" lon="1.37497">
        <ele>177.2</ele>
        <time>2021-11-21T14:26:05Z</time>
      </trkpt>
      <trkpt lat="44.18816" lon="1.37496">
        <ele>177.2</ele>
        <time>2021-11-21T14:26:06Z</time>
      </trkpt>
      <trkpt lat="44.18816" lon="1.37493">
        <ele>177.2</ele>
        <time>2021-11-21T14:26:08Z</time>
      </trkpt>
      <trkpt lat="44.18815" lon="1.3749">
        <ele>177.2</ele>
        <time>2021-11-21T14:26:09Z</time>
      </trkpt>
      <trkpt lat="44.18815" lon="1.37488">
        <ele>177.3</ele>
        <time>2021-11-21T14:26:11Z</time>
      </trkpt>
      <trkpt lat="44.18814" lon="1.37487">
        <ele>177.3</ele>
        <time>2021-11-21T14:26:12Z</time>
      </trkpt>
      <trkpt lat="44.18814" lon="1.37485">
        <ele>177.3</ele>
        <time>2021-11-21T14:26:14Z</time>
      </trkpt>
      <trkpt lat="44.18813" lon="1.37483">
        <ele>177.3</ele>
        <time>2021-11-21T14:26:15Z</time>
      </trkpt>
      <trkpt lat="44.18813" lon="1.37481">
        <ele>177.3</ele>
        <time>2021-11-21T14:26:16Z</time>
      </trkpt>
      <trkpt lat="44.18813" lon="1.3748">
        <ele>177.3</ele>
        <time>2021-11-21T14:26:17Z</time>
      </trkpt>
      <trkpt lat="44.18812" lon="1.37477">
        <ele>177.4</ele>
        <time>2021-11-21T14:26:19Z</time>
      </trkpt>
      <trkpt lat="44.18812" lon="1.37476">
        <ele>177.4</ele>
        <time>2021-11-21T14:26:20Z</time>
      </trkpt>
      <trkpt lat="44.18812" lon="1.37475">
        <ele>177.4</ele>
        <time>2021-11-21T14:26:21Z</time>
      </trkpt>
      <trkpt lat="44.18812" lon="1.37472">
        <ele>177.4</ele>
        <time>2021-11-21T14:26:22Z</time>
      </trkpt>
      <trkpt lat="44.18812" lon="1.37471">
        <ele>177.4</ele>
        <time>2021-11-21T14:26:24Z</time>
      </trkpt>
      <trkpt lat="44.18811" lon="1.3747">
        <ele>177.4</ele>
        <time>2021-11-21T14:26:25Z</time>
      </trkpt>
      <trkpt lat="44.18811" lon="1.37467">
        <ele>177.5</ele>
        <time>2021-11-21T14:26:26Z</time>
      </trkpt>
      <trkpt lat="44.18811" lon="1.37466">
        <ele>177.5</ele>
        <time>2021-11-21T14:26:27Z</time>
      </trkpt>
      <trkpt lat="44.18811" lon="1.37465">
        <ele>177.5</ele>
        <time>2021-11-21T14:26:28Z</time>
      </trkpt>
      <trkpt lat="44.1881" lon="1.37463">
        <ele>177.5</ele>
        <time>2021-11-21T14:26:30Z</time>
      </trkpt>
      <trkpt lat="44.1881" lon="1.37462">
        <ele>177.5</ele>
        <time>2021-11-21T14:26:31Z</time>
      </trkpt>
      <trkpt lat="44.1881" lon="1.3746">
        <ele>177.6</ele>
        <time>2021-11-21T14:26:32Z</time>
      </trkpt>
      <trkpt lat="44.1881" lon="1.37459">
        <ele>177.6</ele>
        <time>2021-11-21T14:26:33Z</time>
      </trkpt>
      <trkpt lat="44.18809" lon="1.37457">
        <ele>177.6</ele>
        <time>2021-11-21T14:26:35Z</time>
      </trkpt>
      <trkpt lat="44.18809" lon="1.37456">
        <ele>177.6</ele>
        <time>2021-11-21T14:26:36Z</time>
      </trkpt>
      <trkpt lat="44.18809" lon="1.37455">
        <ele>177.6</ele>
        <time>2021-11-21T14:26:37Z</time>
      </trkpt>
      <trkpt lat="44.18809" lon="1.37453">
        <ele>177.7</ele>
        <time>2021-11-21T14:26:38Z</time>
      </trkpt>
      <trkpt lat="44.18809" lon="1.37452">
        <ele>177.7</ele>
        <time>2021-11-21T14:26:39Z</time>
      </trkpt>
      <trkpt lat="44.18809" lon="1.3745">
        <ele>177.7</ele>
        <time>2021-11-21T14:26:41Z</time>
      </trkpt>
      <trkpt lat="44.18808" lon="1.37449">
        <ele>177.7</ele>
        <time>2021-11-21T14:26:42Z</time>
      </trkpt>
      <trkpt lat="44.18808" lon="1.37446">
        <ele>177.8</ele>
        <time>2021-11-21T14:26:44Z</time>
      </trkpt>
      <trkpt lat="44.18808" lon="1.37445">
        <ele>177.8</ele>
        <time>2021-11-21T14:26:45Z</time>
      </trkpt>
      <trkpt lat="44.18808" lon="1.37443">
        <ele>177.9</ele>
        <time>2021-11-21T14:26:46Z</time>
      </trkpt>
      <trkpt lat="44.18808" lon="1.37441">
        <ele>177.9</ele>
        <time>2021-11-21T14:26:48Z</time>
      </trkpt>
      <trkpt lat="44.18808" lon="1.37438">
        <ele>178</ele>
        <time>2021-11-21T14:26:49Z</time>
      </trkpt>
      <trkpt lat="44.18808" lon="1.37437">
        <ele>178</ele>
        <time>2021-11-21T14:26:50Z</time>
      </trkpt>
      <trkpt lat="44.18808" lon="1.37436">
        <ele>178</ele>
        <time>2021-11-21T14:26:51Z</time>
      </trkpt>
      <trkpt lat="44.18807" lon="1.37434">
        <ele>178.1</ele>
        <time>2021-11-21T14:26:53Z</time>
      </trkpt>
      <trkpt lat="44.18807" lon="1.37433">
        <ele>178.1</ele>
        <time>2021-11-21T14:26:54Z</time>
      </trkpt>
      <trkpt lat="44.18807" lon="1.37431">
        <ele>178.2</ele>
        <time>2021-11-21T14:26:55Z</time>
      </trkpt>
      <trkpt lat="44.18807" lon="1.37429">
        <ele>178.2</ele>
        <time>2021-11-21T14:26:56Z</time>
      </trkpt>
      <trkpt lat="44.18807" lon="1.37428">
        <ele>178.3</ele>
        <time>2021-11-21T14:26:57Z</time>
      </trkpt>
      <trkpt lat="44.18807" lon="1.37426">
        <ele>178.3</ele>
        <time>2021-11-21T14:26:58Z</time>
      </trkpt>
      <trkpt lat="44.18806" lon="1.37424">
        <ele>178.4</ele>
        <time>2021-11-21T14:27:00Z</time>
      </trkpt>
      <trkpt lat="44.18805" lon="1.37423">
        <ele>178.4</ele>
        <time>2021-11-21T14:27:01Z</time>
      </trkpt>
      <trkpt lat="44.18805" lon="1.37422">
        <ele>178.4</ele>
        <time>2021-11-21T14:27:02Z</time>
      </trkpt>
      <trkpt lat="44.18804" lon="1.3742">
        <ele>178.5</ele>
        <time>2021-11-21T14:27:04Z</time>
      </trkpt>
      <trkpt lat="44.18804" lon="1.37418">
        <ele>178.6</ele>
        <time>2021-11-21T14:27:05Z</time>
      </trkpt>
      <trkpt lat="44.18803" lon="1.37415">
        <ele>178.6</ele>
        <time>2021-11-21T14:27:06Z</time>
      </trkpt>
      <trkpt lat="44.18803" lon="1.37413">
        <ele>178.7</ele>
        <time>2021-11-21T14:27:08Z</time>
      </trkpt>
      <trkpt lat="44.18803" lon="1.37412">
        <ele>178.7</ele>
        <time>2021-11-21T14:27:09Z</time>
      </trkpt>
      <trkpt lat="44.18802" lon="1.3741">
        <ele>178.8</ele>
        <time>2021-11-21T14:27:11Z</time>
      </trkpt>
      <trkpt lat="44.18802" lon="1.37409">
        <ele>178.8</ele>
        <time>2021-11-21T14:27:12Z</time>
      </trkpt>
      <trkpt lat="44.18802" lon="1.37407">
        <ele>178.9</ele>
        <time>2021-11-21T14:27:13Z</time>
      </trkpt>
      <trkpt lat="44.18801" lon="1.37405">
        <ele>178.9</ele>
        <time>2021-11-21T14:27:14Z</time>
      </trkpt>
      <trkpt lat="44.18801" lon="1.37402">
        <ele>179</ele>
        <time>2021-11-21T14:27:16Z</time>
      </trkpt>
      <trkpt lat="44.18801" lon="1.37401">
        <ele>179</ele>
        <time>2021-11-21T14:27:18Z</time>
      </trkpt>
      <trkpt lat="44.18801" lon="1.374">
        <ele>179.1</ele>
        <time>2021-11-21T14:27:19Z</time>
      </trkpt>
      <trkpt lat="44.18801" lon="1.37399">
        <ele>179.1</ele>
        <time>2021-11-21T14:27:20Z</time>
      </trkpt>
      <trkpt lat="44.188" lon="1.37398">
        <ele>179.1</ele>
        <time>2021-11-21T14:27:22Z</time>
      </trkpt>
      <trkpt lat="44.188" lon="1.37396">
        <ele>179.2</ele>
        <time>2021-11-21T14:27:23Z</time>
      </trkpt>
      <trkpt lat="44.18801" lon="1.37393">
        <ele>179.3</ele>
        <time>2021-11-21T14:27:24Z</time>
      </trkpt>
      <trkpt lat="44.18801" lon="1.37391">
        <ele>179.3</ele>
        <time>2021-11-21T14:27:26Z</time>
      </trkpt>
      <trkpt lat="44.18801" lon="1.3739">
        <ele>179.3</ele>
        <time>2021-11-21T14:27:27Z</time>
      </trkpt>
      <trkpt lat="44.18801" lon="1.37388">
        <ele>179.4</ele>
        <time>2021-11-21T14:27:28Z</time>
      </trkpt>
      <trkpt lat="44.18801" lon="1.37387">
        <ele>179.4</ele>
        <time>2021-11-21T14:27:29Z</time>
      </trkpt>
      <trkpt lat="44.188" lon="1.37384">
        <ele>179.5</ele>
        <time>2021-11-21T14:27:31Z</time>
      </trkpt>
      <trkpt lat="44.188" lon="1.37382">
        <ele>179.5</ele>
        <time>2021-11-21T14:27:32Z</time>
      </trkpt>
      <trkpt lat="44.188" lon="1.3738">
        <ele>179.6</ele>
        <time>2021-11-21T14:27:33Z</time>
      </trkpt>
      <trkpt lat="44.188" lon="1.37378">
        <ele>179.7</ele>
        <time>2021-11-21T14:27:34Z</time>
      </trkpt>
      <trkpt lat="44.188" lon="1.37375">
        <ele>179.7</ele>
        <time>2021-11-21T14:27:36Z</time>
      </trkpt>
      <trkpt lat="44.188" lon="1.37373">
        <ele>179.8</ele>
        <time>2021-11-21T14:27:38Z</time>
      </trkpt>
      <trkpt lat="44.188" lon="1.37372">
        <ele>179.8</ele>
        <time>2021-11-21T14:27:39Z</time>
      </trkpt>
      <trkpt lat="44.188" lon="1.37371">
        <ele>179.9</ele>
        <time>2021-11-21T14:27:40Z</time>
      </trkpt>
      <trkpt lat="44.188" lon="1.3737">
        <ele>179.9</ele>
        <time>2021-11-21T14:27:42Z</time>
      </trkpt>
      <trkpt lat="44.188" lon="1.37368">
        <ele>180</ele>
        <time>2021-11-21T14:27:43Z</time>
      </trkpt>
      <trkpt lat="44.188" lon="1.37367">
        <ele>180</ele>
        <time>2021-11-21T14:27:44Z</time>
      </trkpt>
      <trkpt lat="44.188" lon="1.37366">
        <ele>180</ele>
        <time>2021-11-21T14:27:46Z</time>
      </trkpt>
      <trkpt lat="44.188" lon="1.37364">
        <ele>180.1</ele>
        <time>2021-11-21T14:27:47Z</time>
      </trkpt>
      <trkpt lat="44.18799" lon="1.37363">
        <ele>180.1</ele>
        <time>2021-11-21T14:27:48Z</time>
      </trkpt>
      <trkpt lat="44.18799" lon="1.37361">
        <ele>180.2</ele>
        <time>2021-11-21T14:27:50Z</time>
      </trkpt>
      <trkpt lat="44.18799" lon="1.3736">
        <ele>180.2</ele>
        <time>2021-11-21T14:27:51Z</time>
      </trkpt>
      <trkpt lat="44.18799" lon="1.37358">
        <ele>180.3</ele>
        <time>2021-11-21T14:27:52Z</time>
      </trkpt>
      <trkpt lat="44.18799" lon="1.37356">
        <ele>180.4</ele>
        <time>2021-11-21T14:27:53Z</time>
      </trkpt>
      <trkpt lat="44.18799" lon="1.37355">
        <ele>180.4</ele>
        <time>2021-11-21T14:27:54Z</time>
      </trkpt>
      <trkpt lat="44.188" lon="1.37353">
        <ele>180.5</ele>
        <time>2021-11-21T14:27:55Z</time>
      </trkpt>
      <trkpt lat="44.188" lon="1.37351">
        <ele>180.6</ele>
        <time>2021-11-21T14:27:57Z</time>
      </trkpt>
      <trkpt lat="44.188" lon="1.37349">
        <ele>180.7</ele>
        <time>2021-11-21T14:27:58Z</time>
      </trkpt>
      <trkpt lat="44.188" lon="1.37346">
        <ele>180.8</ele>
        <time>2021-11-21T14:28:00Z</time>
      </trkpt>
      <trkpt lat="44.18801" lon="1.37344">
        <ele>180.8</ele>
        <time>2021-11-21T14:28:01Z</time>
      </trkpt>
      <trkpt lat="44.18801" lon="1.37343">
        <ele>180.9</ele>
        <time>2021-11-21T14:28:02Z</time>
      </trkpt>
      <trkpt lat="44.18801" lon="1.37341">
        <ele>181</ele>
        <time>2021-11-21T14:28:04Z</time>
      </trkpt>
      <trkpt lat="44.18801" lon="1.37339">
        <ele>181.1</ele>
        <time>2021-11-21T14:28:05Z</time>
      </trkpt>
      <trkpt lat="44.18801" lon="1.37338">
        <ele>181.1</ele>
        <time>2021-11-21T14:28:06Z</time>
      </trkpt>
      <trkpt lat="44.188" lon="1.37335">
        <ele>181.2</ele>
        <time>2021-11-21T14:28:08Z</time>
      </trkpt>
      <trkpt lat="44.188" lon="1.37332">
        <ele>181.4</ele>
        <time>2021-11-21T14:28:10Z</time>
      </trkpt>
      <trkpt lat="44.188" lon="1.37331">
        <ele>181.4</ele>
        <time>2021-11-21T14:28:11Z</time>
      </trkpt>
      <trkpt lat="44.18801" lon="1.3733">
        <ele>181.5</ele>
        <time>2021-11-21T14:28:13Z</time>
      </trkpt>
      <trkpt lat="44.18802" lon="1.37329">
        <ele>181.6</ele>
        <time>2021-11-21T14:28:15Z</time>
      </trkpt>
      <trkpt lat="44.18802" lon="1.37328">
        <ele>181.6</ele>
        <time>2021-11-21T14:28:16Z</time>
      </trkpt>
      <trkpt lat="44.18801" lon="1.37327">
        <ele>181.6</ele>
        <time>2021-11-21T14:28:17Z</time>
      </trkpt>
      <trkpt lat="44.18801" lon="1.37326">
        <ele>181.7</ele>
        <time>2021-11-21T14:28:19Z</time>
      </trkpt>
      <trkpt lat="44.188" lon="1.37324">
        <ele>181.8</ele>
        <time>2021-11-21T14:28:20Z</time>
      </trkpt>
      <trkpt lat="44.18799" lon="1.37322">
        <ele>181.9</ele>
        <time>2021-11-21T14:28:21Z</time>
      </trkpt>
      <trkpt lat="44.18798" lon="1.37321">
        <ele>181.9</ele>
        <time>2021-11-21T14:28:23Z</time>
      </trkpt>
      <trkpt lat="44.18797" lon="1.3732">
        <ele>182</ele>
        <time>2021-11-21T14:28:24Z</time>
      </trkpt>
      <trkpt lat="44.18796" lon="1.37319">
        <ele>182.1</ele>
        <time>2021-11-21T14:28:25Z</time>
      </trkpt>
      <trkpt lat="44.18795" lon="1.37318">
        <ele>182.1</ele>
        <time>2021-11-21T14:28:26Z</time>
      </trkpt>
      <trkpt lat="44.18793" lon="1.37317">
        <ele>182.2</ele>
        <time>2021-11-21T14:28:28Z</time>
      </trkpt>
      <trkpt lat="44.18792" lon="1.37316">
        <ele>182.3</ele>
        <time>2021-11-21T14:28:29Z</time>
      </trkpt>
      <trkpt lat="44.1879" lon="1.37314">
        <ele>182.4</ele>
        <time>2021-11-21T14:28:31Z</time>
      </trkpt>
      <trkpt lat="44.1879" lon="1.37313">
        <ele>182.5</ele>
        <time>2021-11-21T14:28:32Z</time>
      </trkpt>
      <trkpt lat="44.18789" lon="1.37313">
        <ele>182.5</ele>
        <time>2021-11-21T14:28:33Z</time>
      </trkpt>
      <trkpt lat="44.18788" lon="1.37312">
        <ele>182.6</ele>
        <time>2021-11-21T14:28:35Z</time>
      </trkpt>
      <trkpt lat="44.18788" lon="1.37311">
        <ele>182.6</ele>
        <time>2021-11-21T14:28:36Z</time>
      </trkpt>
      <trkpt lat="44.18787" lon="1.3731">
        <ele>182.7</ele>
        <time>2021-11-21T14:28:38Z</time>
      </trkpt>
      <trkpt lat="44.18786" lon="1.37309">
        <ele>182.8</ele>
        <time>2021-11-21T14:28:39Z</time>
      </trkpt>
      <trkpt lat="44.18786" lon="1.37307">
        <ele>182.9</ele>
        <time>2021-11-21T14:28:40Z</time>
      </trkpt>
      <trkpt lat="44.18785" lon="1.37305">
        <ele>182.9</ele>
        <time>2021-11-21T14:28:42Z</time>
      </trkpt>
      <trkpt lat="44.18785" lon="1.37304">
        <ele>183</ele>
        <time>2021-11-21T14:28:43Z</time>
      </trkpt>
      <trkpt lat="44.18784" lon="1.37302">
        <ele>183.1</ele>
        <time>2021-11-21T14:28:44Z</time>
      </trkpt>
      <trkpt lat="44.18784" lon="1.37301">
        <ele>183.1</ele>
        <time>2021-11-21T14:28:46Z</time>
      </trkpt>
      <trkpt lat="44.18783" lon="1.373">
        <ele>183.2</ele>
        <time>2021-11-21T14:28:47Z</time>
      </trkpt>
      <trkpt lat="44.18782" lon="1.37299">
        <ele>183.3</ele>
        <time>2021-11-21T14:28:49Z</time>
      </trkpt>
      <trkpt lat="44.18781" lon="1.37298">
        <ele>183.3</ele>
        <time>2021-11-21T14:28:50Z</time>
      </trkpt>
      <trkpt lat="44.18781" lon="1.37297">
        <ele>183.3</ele>
        <time>2021-11-21T14:28:51Z</time>
      </trkpt>
      <trkpt lat="44.1878" lon="1.37296">
        <ele>183.3</ele>
        <time>2021-11-21T14:28:52Z</time>
      </trkpt>
      <trkpt lat="44.18779" lon="1.37294">
        <ele>183.4</ele>
        <time>2021-11-21T14:28:54Z</time>
      </trkpt>
      <trkpt lat="44.18778" lon="1.37293">
        <ele>183.5</ele>
        <time>2021-11-21T14:28:56Z</time>
      </trkpt>
      <trkpt lat="44.18777" lon="1.37291">
        <ele>183.6</ele>
        <time>2021-11-21T14:28:57Z</time>
      </trkpt>
      <trkpt lat="44.18776" lon="1.37289">
        <ele>183.6</ele>
        <time>2021-11-21T14:28:59Z</time>
      </trkpt>
      <trkpt lat="44.18776" lon="1.37288">
        <ele>183.7</ele>
        <time>2021-11-21T14:29:00Z</time>
      </trkpt>
      <trkpt lat="44.18775" lon="1.37287">
        <ele>183.7</ele>
        <time>2021-11-21T14:29:01Z</time>
      </trkpt>
      <trkpt lat="44.18774" lon="1.37286">
        <ele>183.8</ele>
        <time>2021-11-21T14:29:02Z</time>
      </trkpt>
      <trkpt lat="44.18773" lon="1.37286">
        <ele>183.8</ele>
        <time>2021-11-21T14:29:03Z</time>
      </trkpt>
      <trkpt lat="44.18772" lon="1.37285">
        <ele>183.9</ele>
        <time>2021-11-21T14:29:05Z</time>
      </trkpt>
      <trkpt lat="44.1877" lon="1.37284">
        <ele>184</ele>
        <time>2021-11-21T14:29:06Z</time>
      </trkpt>
      <trkpt lat="44.18769" lon="1.37284">
        <ele>184</ele>
        <time>2021-11-21T14:29:08Z</time>
      </trkpt>
      <trkpt lat="44.18768" lon="1.37284">
        <ele>184</ele>
        <time>2021-11-21T14:29:09Z</time>
      </trkpt>
      <trkpt lat="44.18767" lon="1.37284">
        <ele>184</ele>
        <time>2021-11-21T14:29:10Z</time>
      </trkpt>
      <trkpt lat="44.18766" lon="1.37284">
        <ele>184</ele>
        <time>2021-11-21T14:29:12Z</time>
      </trkpt>
      <trkpt lat="44.18765" lon="1.37284">
        <ele>184</ele>
        <time>2021-11-21T14:29:13Z</time>
      </trkpt>
      <trkpt lat="44.18764" lon="1.37284">
        <ele>184</ele>
        <time>2021-11-21T14:29:14Z</time>
      </trkpt>
      <trkpt lat="44.18763" lon="1.37284">
        <ele>184.1</ele>
        <time>2021-11-21T14:29:15Z</time>
      </trkpt>
      <trkpt lat="44.18762" lon="1.37283">
        <ele>184.1</ele>
        <time>2021-11-21T14:29:16Z</time>
      </trkpt>
      <trkpt lat="44.18761" lon="1.37283">
        <ele>184.1</ele>
        <time>2021-11-21T14:29:17Z</time>
      </trkpt>
      <trkpt lat="44.1876" lon="1.37283">
        <ele>184.1</ele>
        <time>2021-11-21T14:29:18Z</time>
      </trkpt>
      <trkpt lat="44.18759" lon="1.37282">
        <ele>184.1</ele>
        <time>2021-11-21T14:29:20Z</time>
      </trkpt>
      <trkpt lat="44.18758" lon="1.37282">
        <ele>184</ele>
        <time>2021-11-21T14:29:21Z</time>
      </trkpt>
      <trkpt lat="44.18756" lon="1.37282">
        <ele>184.1</ele>
        <time>2021-11-21T14:29:22Z</time>
      </trkpt>
      <trkpt lat="44.18755" lon="1.37282">
        <ele>184</ele>
        <time>2021-11-21T14:29:24Z</time>
      </trkpt>
      <trkpt lat="44.18753" lon="1.37281">
        <ele>184</ele>
        <time>2021-11-21T14:29:25Z</time>
      </trkpt>
      <trkpt lat="44.18751" lon="1.3728">
        <ele>184</ele>
        <time>2021-11-21T14:29:27Z</time>
      </trkpt>
      <trkpt lat="44.1875" lon="1.3728">
        <ele>184</ele>
        <time>2021-11-21T14:29:28Z</time>
      </trkpt>
      <trkpt lat="44.18749" lon="1.37279">
        <ele>183.9</ele>
        <time>2021-11-21T14:29:29Z</time>
      </trkpt>
      <trkpt lat="44.18746" lon="1.37278">
        <ele>183.9</ele>
        <time>2021-11-21T14:29:30Z</time>
      </trkpt>
      <trkpt lat="44.18745" lon="1.37278">
        <ele>183.9</ele>
        <time>2021-11-21T14:29:31Z</time>
      </trkpt>
      <trkpt lat="44.18745" lon="1.37277">
        <ele>183.8</ele>
        <time>2021-11-21T14:29:32Z</time>
      </trkpt>
      <trkpt lat="44.18743" lon="1.37277">
        <ele>183.8</ele>
        <time>2021-11-21T14:29:34Z</time>
      </trkpt>
      <trkpt lat="44.18742" lon="1.37276">
        <ele>183.7</ele>
        <time>2021-11-21T14:29:35Z</time>
      </trkpt>
      <trkpt lat="44.18741" lon="1.37276">
        <ele>183.7</ele>
        <time>2021-11-21T14:29:36Z</time>
      </trkpt>
      <trkpt lat="44.18739" lon="1.37275">
        <ele>183.6</ele>
        <time>2021-11-21T14:29:37Z</time>
      </trkpt>
      <trkpt lat="44.18737" lon="1.37275">
        <ele>183.5</ele>
        <time>2021-11-21T14:29:39Z</time>
      </trkpt>
      <trkpt lat="44.18736" lon="1.37275">
        <ele>183.5</ele>
        <time>2021-11-21T14:29:40Z</time>
      </trkpt>
      <trkpt lat="44.18735" lon="1.37274">
        <ele>183.5</ele>
        <time>2021-11-21T14:29:41Z</time>
      </trkpt>
      <trkpt lat="44.18734" lon="1.37274">
        <ele>183.4</ele>
        <time>2021-11-21T14:29:42Z</time>
      </trkpt>
      <trkpt lat="44.18733" lon="1.37274">
        <ele>183.4</ele>
        <time>2021-11-21T14:29:43Z</time>
      </trkpt>
      <trkpt lat="44.18731" lon="1.37273">
        <ele>183.3</ele>
        <time>2021-11-21T14:29:45Z</time>
      </trkpt>
      <trkpt lat="44.18731" lon="1.37274">
        <ele>183.3</ele>
        <time>2021-11-21T14:29:46Z</time>
      </trkpt>
      <trkpt lat="44.1873" lon="1.37274">
        <ele>183.2</ele>
        <time>2021-11-21T14:29:47Z</time>
      </trkpt>
      <trkpt lat="44.18729" lon="1.37274">
        <ele>183.2</ele>
        <time>2021-11-21T14:29:48Z</time>
      </trkpt>
      <trkpt lat="44.18728" lon="1.37273">
        <ele>183.1</ele>
        <time>2021-11-21T14:29:50Z</time>
      </trkpt>
      <trkpt lat="44.18727" lon="1.37272">
        <ele>183.1</ele>
        <time>2021-11-21T14:29:51Z</time>
      </trkpt>
      <trkpt lat="44.18726" lon="1.37272">
        <ele>183</ele>
        <time>2021-11-21T14:29:52Z</time>
      </trkpt>
      <trkpt lat="44.18724" lon="1.37272">
        <ele>183</ele>
        <time>2021-11-21T14:29:53Z</time>
      </trkpt>
      <trkpt lat="44.18723" lon="1.37272">
        <ele>183</ele>
        <time>2021-11-21T14:29:55Z</time>
      </trkpt>
      <trkpt lat="44.18722" lon="1.37271">
        <ele>182.9</ele>
        <time>2021-11-21T14:29:56Z</time>
      </trkpt>
      <trkpt lat="44.18722" lon="1.37271">
        <ele>182.9</ele>
        <time>2021-11-21T14:29:57Z</time>
      </trkpt>
      <trkpt lat="44.18721" lon="1.37271">
        <ele>182.9</ele>
        <time>2021-11-21T14:29:59Z</time>
      </trkpt>
      <trkpt lat="44.18719" lon="1.3727">
        <ele>182.8</ele>
        <time>2021-11-21T14:30:00Z</time>
      </trkpt>
      <trkpt lat="44.18718" lon="1.3727">
        <ele>182.7</ele>
        <time>2021-11-21T14:30:01Z</time>
      </trkpt>
      <trkpt lat="44.18717" lon="1.37269">
        <ele>182.6</ele>
        <time>2021-11-21T14:30:02Z</time>
      </trkpt>
      <trkpt lat="44.18715" lon="1.37267">
        <ele>182.5</ele>
        <time>2021-11-21T14:30:03Z</time>
      </trkpt>
      <trkpt lat="44.18714" lon="1.37267">
        <ele>182.5</ele>
        <time>2021-11-21T14:30:05Z</time>
      </trkpt>
      <trkpt lat="44.18713" lon="1.37266">
        <ele>182.4</ele>
        <time>2021-11-21T14:30:06Z</time>
      </trkpt>
      <trkpt lat="44.18712" lon="1.37266">
        <ele>182.4</ele>
        <time>2021-11-21T14:30:07Z</time>
      </trkpt>
      <trkpt lat="44.18711" lon="1.37266">
        <ele>182.3</ele>
        <time>2021-11-21T14:30:08Z</time>
      </trkpt>
      <trkpt lat="44.1871" lon="1.37266">
        <ele>182.3</ele>
        <time>2021-11-21T14:30:09Z</time>
      </trkpt>
      <trkpt lat="44.18709" lon="1.37266">
        <ele>182.2</ele>
        <time>2021-11-21T14:30:11Z</time>
      </trkpt>
      <trkpt lat="44.18708" lon="1.37266">
        <ele>182.1</ele>
        <time>2021-11-21T14:30:12Z</time>
      </trkpt>
      <trkpt lat="44.18707" lon="1.37267">
        <ele>182.1</ele>
        <time>2021-11-21T14:30:13Z</time>
      </trkpt>
      <trkpt lat="44.18706" lon="1.37267">
        <ele>182</ele>
        <time>2021-11-21T14:30:14Z</time>
      </trkpt>
      <trkpt lat="44.18705" lon="1.37268">
        <ele>182</ele>
        <time>2021-11-21T14:30:15Z</time>
      </trkpt>
      <trkpt lat="44.18704" lon="1.37268">
        <ele>181.9</ele>
        <time>2021-11-21T14:30:17Z</time>
      </trkpt>
      <trkpt lat="44.18703" lon="1.37268">
        <ele>181.8</ele>
        <time>2021-11-21T14:30:18Z</time>
      </trkpt>
      <trkpt lat="44.18702" lon="1.37268">
        <ele>181.8</ele>
        <time>2021-11-21T14:30:19Z</time>
      </trkpt>
      <trkpt lat="44.187" lon="1.37268">
        <ele>181.7</ele>
        <time>2021-11-21T14:30:20Z</time>
      </trkpt>
      <trkpt lat="44.18699" lon="1.37268">
        <ele>181.6</ele>
        <time>2021-11-21T14:30:21Z</time>
      </trkpt>
      <trkpt lat="44.18697" lon="1.37267">
        <ele>181.5</ele>
        <time>2021-11-21T14:30:23Z</time>
      </trkpt>
      <trkpt lat="44.18696" lon="1.37267">
        <ele>181.4</ele>
        <time>2021-11-21T14:30:24Z</time>
      </trkpt>
      <trkpt lat="44.18695" lon="1.37266">
        <ele>181.4</ele>
        <time>2021-11-21T14:30:25Z</time>
      </trkpt>
      <trkpt lat="44.18694" lon="1.37265">
        <ele>181.3</ele>
        <time>2021-11-21T14:30:26Z</time>
      </trkpt>
      <trkpt lat="44.18693" lon="1.37264">
        <ele>181.2</ele>
        <time>2021-11-21T14:30:27Z</time>
      </trkpt>
      <trkpt lat="44.18691" lon="1.37263">
        <ele>181.1</ele>
        <time>2021-11-21T14:30:29Z</time>
      </trkpt>
      <trkpt lat="44.1869" lon="1.37263">
        <ele>181</ele>
        <time>2021-11-21T14:30:30Z</time>
      </trkpt>
      <trkpt lat="44.18689" lon="1.37263">
        <ele>181</ele>
        <time>2021-11-21T14:30:31Z</time>
      </trkpt>
      <trkpt lat="44.18687" lon="1.37264">
        <ele>180.9</ele>
        <time>2021-11-21T14:30:33Z</time>
      </trkpt>
      <trkpt lat="44.18686" lon="1.37265">
        <ele>180.8</ele>
        <time>2021-11-21T14:30:34Z</time>
      </trkpt>
      <trkpt lat="44.18685" lon="1.37265">
        <ele>180.7</ele>
        <time>2021-11-21T14:30:36Z</time>
      </trkpt>
      <trkpt lat="44.18684" lon="1.37265">
        <ele>180.6</ele>
        <time>2021-11-21T14:30:37Z</time>
      </trkpt>
      <trkpt lat="44.18682" lon="1.37265">
        <ele>180.5</ele>
        <time>2021-11-21T14:30:39Z</time>
      </trkpt>
      <trkpt lat="44.18681" lon="1.37265">
        <ele>180.4</ele>
        <time>2021-11-21T14:30:40Z</time>
      </trkpt>
      <trkpt lat="44.18679" lon="1.37265">
        <ele>180.3</ele>
        <time>2021-11-21T14:30:42Z</time>
      </trkpt>
      <trkpt lat="44.18677" lon="1.37265">
        <ele>180.2</ele>
        <time>2021-11-21T14:30:44Z</time>
      </trkpt>
      <trkpt lat="44.18676" lon="1.37264">
        <ele>180.1</ele>
        <time>2021-11-21T14:30:46Z</time>
      </trkpt>
      <trkpt lat="44.18675" lon="1.37264">
        <ele>180.1</ele>
        <time>2021-11-21T14:30:47Z</time>
      </trkpt>
      <trkpt lat="44.18674" lon="1.37264">
        <ele>180</ele>
        <time>2021-11-21T14:30:48Z</time>
      </trkpt>
      <trkpt lat="44.18672" lon="1.37264">
        <ele>179.9</ele>
        <time>2021-11-21T14:30:50Z</time>
      </trkpt>
      <trkpt lat="44.18671" lon="1.37264">
        <ele>179.9</ele>
        <time>2021-11-21T14:30:51Z</time>
      </trkpt>
      <trkpt lat="44.18671" lon="1.37265">
        <ele>179.8</ele>
        <time>2021-11-21T14:30:52Z</time>
      </trkpt>
      <trkpt lat="44.1867" lon="1.37265">
        <ele>179.8</ele>
        <time>2021-11-21T14:30:53Z</time>
      </trkpt>
      <trkpt lat="44.18669" lon="1.37266">
        <ele>179.7</ele>
        <time>2021-11-21T14:30:54Z</time>
      </trkpt>
      <trkpt lat="44.18668" lon="1.37267">
        <ele>179.6</ele>
        <time>2021-11-21T14:30:55Z</time>
      </trkpt>
      <trkpt lat="44.18667" lon="1.37268">
        <ele>179.6</ele>
        <time>2021-11-21T14:30:57Z</time>
      </trkpt>
      <trkpt lat="44.18666" lon="1.37269">
        <ele>179.5</ele>
        <time>2021-11-21T14:30:58Z</time>
      </trkpt>
      <trkpt lat="44.18665" lon="1.37269">
        <ele>179.5</ele>
        <time>2021-11-21T14:30:59Z</time>
      </trkpt>
      <trkpt lat="44.18665" lon="1.37269">
        <ele>179.4</ele>
        <time>2021-11-21T14:31:01Z</time>
      </trkpt>
      <trkpt lat="44.18663" lon="1.37269">
        <ele>179.4</ele>
        <time>2021-11-21T14:31:02Z</time>
      </trkpt>
      <trkpt lat="44.18662" lon="1.37268">
        <ele>179.3</ele>
        <time>2021-11-21T14:31:03Z</time>
      </trkpt>
      <trkpt lat="44.18661" lon="1.37268">
        <ele>179.3</ele>
        <time>2021-11-21T14:31:04Z</time>
      </trkpt>
      <trkpt lat="44.1866" lon="1.37267">
        <ele>179.2</ele>
        <time>2021-11-21T14:31:06Z</time>
      </trkpt>
      <trkpt lat="44.18658" lon="1.37267">
        <ele>179.1</ele>
        <time>2021-11-21T14:31:08Z</time>
      </trkpt>
      <trkpt lat="44.18657" lon="1.37267">
        <ele>179.1</ele>
        <time>2021-11-21T14:31:09Z</time>
      </trkpt>
      <trkpt lat="44.18656" lon="1.37267">
        <ele>179</ele>
        <time>2021-11-21T14:31:10Z</time>
      </trkpt>
      <trkpt lat="44.18655" lon="1.37267">
        <ele>179</ele>
        <time>2021-11-21T14:31:12Z</time>
      </trkpt>
      <trkpt lat="44.18654" lon="1.37267">
        <ele>179</ele>
        <time>2021-11-21T14:31:13Z</time>
      </trkpt>
      <trkpt lat="44.18653" lon="1.37266">
        <ele>178.9</ele>
        <time>2021-11-21T14:31:14Z</time>
      </trkpt>
      <trkpt lat="44.18651" lon="1.37266">
        <ele>178.8</ele>
        <time>2021-11-21T14:31:15Z</time>
      </trkpt>
      <trkpt lat="44.1865" lon="1.37266">
        <ele>178.8</ele>
        <time>2021-11-21T14:31:17Z</time>
      </trkpt>
      <trkpt lat="44.1865" lon="1.37266">
        <ele>178.8</ele>
        <time>2021-11-21T14:31:18Z</time>
      </trkpt>
      <trkpt lat="44.1865" lon="1.37265">
        <ele>178.8</ele>
        <time>2021-11-21T14:31:19Z</time>
      </trkpt>
      <trkpt lat="44.18652" lon="1.37265">
        <ele>178.7</ele>
        <time>2021-11-21T14:31:21Z</time>
      </trkpt>
      <trkpt lat="44.18653" lon="1.37265">
        <ele>178.6</ele>
        <time>2021-11-21T14:31:23Z</time>
      </trkpt>
      <trkpt lat="44.18654" lon="1.37264">
        <ele>178.6</ele>
        <time>2021-11-21T14:31:24Z</time>
      </trkpt>
      <trkpt lat="44.18654" lon="1.37264">
        <ele>178.6</ele>
        <time>2021-11-21T14:31:25Z</time>
      </trkpt>
      <trkpt lat="44.18654" lon="1.37264">
        <ele>178.6</ele>
        <time>2021-11-21T14:31:26Z</time>
      </trkpt>
      <trkpt lat="44.18654" lon="1.37264">
        <ele>178.6</ele>
        <time>2021-11-21T14:31:27Z</time>
      </trkpt>
      <trkpt lat="44.18654" lon="1.37265">
        <ele>178.6</ele>
        <time>2021-11-21T14:31:29Z</time>
      </trkpt>
      <trkpt lat="44.18653" lon="1.37266">
        <ele>178.5</ele>
        <time>2021-11-21T14:31:31Z</time>
      </trkpt>
      <trkpt lat="44.18652" lon="1.37267">
        <ele>178.5</ele>
        <time>2021-11-21T14:31:32Z</time>
      </trkpt>
      <trkpt lat="44.18652" lon="1.37267">
        <ele>178.5</ele>
        <time>2021-11-21T14:31:33Z</time>
      </trkpt>
      <trkpt lat="44.1865" lon="1.37268">
        <ele>178.4</ele>
        <time>2021-11-21T14:31:35Z</time>
      </trkpt>
      <trkpt lat="44.18649" lon="1.37268">
        <ele>178.4</ele>
        <time>2021-11-21T14:31:36Z</time>
      </trkpt>
      <trkpt lat="44.18648" lon="1.37268">
        <ele>178.3</ele>
        <time>2021-11-21T14:31:37Z</time>
      </trkpt>
      <trkpt lat="44.18647" lon="1.37268">
        <ele>178.3</ele>
        <time>2021-11-21T14:31:38Z</time>
      </trkpt>
      <trkpt lat="44.18646" lon="1.37268">
        <ele>178.3</ele>
        <time>2021-11-21T14:31:39Z</time>
      </trkpt>
      <trkpt lat="44.18645" lon="1.37268">
        <ele>178.2</ele>
        <time>2021-11-21T14:31:41Z</time>
      </trkpt>
      <trkpt lat="44.18643" lon="1.37268">
        <ele>178.2</ele>
        <time>2021-11-21T14:31:42Z</time>
      </trkpt>
      <trkpt lat="44.18642" lon="1.37268">
        <ele>178.1</ele>
        <time>2021-11-21T14:31:43Z</time>
      </trkpt>
      <trkpt lat="44.1864" lon="1.37267">
        <ele>178.1</ele>
        <time>2021-11-21T14:31:45Z</time>
      </trkpt>
      <trkpt lat="44.18639" lon="1.37267">
        <ele>178</ele>
        <time>2021-11-21T14:31:46Z</time>
      </trkpt>
      <trkpt lat="44.18638" lon="1.37267">
        <ele>178</ele>
        <time>2021-11-21T14:31:47Z</time>
      </trkpt>
      <trkpt lat="44.18637" lon="1.37267">
        <ele>178</ele>
        <time>2021-11-21T14:31:48Z</time>
      </trkpt>
      <trkpt lat="44.18636" lon="1.37267">
        <ele>177.9</ele>
        <time>2021-11-21T14:31:49Z</time>
      </trkpt>
      <trkpt lat="44.18634" lon="1.37267">
        <ele>177.9</ele>
        <time>2021-11-21T14:31:51Z</time>
      </trkpt>
      <trkpt lat="44.18633" lon="1.37267">
        <ele>177.8</ele>
        <time>2021-11-21T14:31:52Z</time>
      </trkpt>
      <trkpt lat="44.18632" lon="1.37267">
        <ele>177.8</ele>
        <time>2021-11-21T14:31:53Z</time>
      </trkpt>
      <trkpt lat="44.18631" lon="1.37267">
        <ele>177.8</ele>
        <time>2021-11-21T14:31:54Z</time>
      </trkpt>
      <trkpt lat="44.1863" lon="1.37266">
        <ele>177.7</ele>
        <time>2021-11-21T14:31:55Z</time>
      </trkpt>
      <trkpt lat="44.18628" lon="1.37266">
        <ele>177.7</ele>
        <time>2021-11-21T14:31:56Z</time>
      </trkpt>
      <trkpt lat="44.18627" lon="1.37266">
        <ele>177.6</ele>
        <time>2021-11-21T14:31:58Z</time>
      </trkpt>
      <trkpt lat="44.18625" lon="1.37266">
        <ele>177.6</ele>
        <time>2021-11-21T14:31:59Z</time>
      </trkpt>
      <trkpt lat="44.18624" lon="1.37266">
        <ele>177.6</ele>
        <time>2021-11-21T14:32:00Z</time>
      </trkpt>
      <trkpt lat="44.18623" lon="1.37266">
        <ele>177.6</ele>
        <time>2021-11-21T14:32:01Z</time>
      </trkpt>
      <trkpt lat="44.18621" lon="1.37266">
        <ele>177.5</ele>
        <time>2021-11-21T14:32:03Z</time>
      </trkpt>
      <trkpt lat="44.1862" lon="1.37266">
        <ele>177.5</ele>
        <time>2021-11-21T14:32:04Z</time>
      </trkpt>
      <trkpt lat="44.18619" lon="1.37266">
        <ele>177.5</ele>
        <time>2021-11-21T14:32:05Z</time>
      </trkpt>
      <trkpt lat="44.18618" lon="1.37266">
        <ele>177.5</ele>
        <time>2021-11-21T14:32:07Z</time>
      </trkpt>
      <trkpt lat="44.18616" lon="1.37266">
        <ele>177.5</ele>
        <time>2021-11-21T14:32:08Z</time>
      </trkpt>
      <trkpt lat="44.18615" lon="1.37266">
        <ele>177.4</ele>
        <time>2021-11-21T14:32:09Z</time>
      </trkpt>
      <trkpt lat="44.18614" lon="1.37267">
        <ele>177.4</ele>
        <time>2021-11-21T14:32:11Z</time>
      </trkpt>
      <trkpt lat="44.18612" lon="1.37267">
        <ele>177.4</ele>
        <time>2021-11-21T14:32:12Z</time>
      </trkpt>
      <trkpt lat="44.18611" lon="1.37267">
        <ele>177.4</ele>
        <time>2021-11-21T14:32:13Z</time>
      </trkpt>
      <trkpt lat="44.1861" lon="1.37268">
        <ele>177.4</ele>
        <time>2021-11-21T14:32:15Z</time>
      </trkpt>
      <trkpt lat="44.18609" lon="1.37267">
        <ele>177.4</ele>
        <time>2021-11-21T14:32:16Z</time>
      </trkpt>
      <trkpt lat="44.18608" lon="1.37268">
        <ele>177.4</ele>
        <time>2021-11-21T14:32:18Z</time>
      </trkpt>
      <trkpt lat="44.18607" lon="1.37268">
        <ele>177.4</ele>
        <time>2021-11-21T14:32:19Z</time>
      </trkpt>
      <trkpt lat="44.18606" lon="1.37268">
        <ele>177.4</ele>
        <time>2021-11-21T14:32:20Z</time>
      </trkpt>
      <trkpt lat="44.18605" lon="1.37268">
        <ele>177.3</ele>
        <time>2021-11-21T14:32:22Z</time>
      </trkpt>
      <trkpt lat="44.18604" lon="1.37268">
        <ele>177.3</ele>
        <time>2021-11-21T14:32:23Z</time>
      </trkpt>
      <trkpt lat="44.18603" lon="1.37267">
        <ele>177.3</ele>
        <time>2021-11-21T14:32:24Z</time>
      </trkpt>
      <trkpt lat="44.18602" lon="1.37267">
        <ele>177.3</ele>
        <time>2021-11-21T14:32:26Z</time>
      </trkpt>
      <trkpt lat="44.18601" lon="1.37267">
        <ele>177.3</ele>
        <time>2021-11-21T14:32:27Z</time>
      </trkpt>
      <trkpt lat="44.186" lon="1.37267">
        <ele>177.3</ele>
        <time>2021-11-21T14:32:28Z</time>
      </trkpt>
      <trkpt lat="44.18599" lon="1.37267">
        <ele>177.3</ele>
        <time>2021-11-21T14:32:29Z</time>
      </trkpt>
      <trkpt lat="44.18598" lon="1.37267">
        <ele>177.3</ele>
        <time>2021-11-21T14:32:30Z</time>
      </trkpt>
      <trkpt lat="44.18596" lon="1.37267">
        <ele>177.3</ele>
        <time>2021-11-21T14:32:32Z</time>
      </trkpt>
      <trkpt lat="44.18595" lon="1.37267">
        <ele>177.3</ele>
        <time>2021-11-21T14:32:33Z</time>
      </trkpt>
      <trkpt lat="44.18594" lon="1.37267">
        <ele>177.3</ele>
        <time>2021-11-21T14:32:34Z</time>
      </trkpt>
      <trkpt lat="44.18593" lon="1.37267">
        <ele>177.3</ele>
        <time>2021-11-21T14:32:35Z</time>
      </trkpt>
      <trkpt lat="44.18592" lon="1.37267">
        <ele>177.3</ele>
        <time>2021-11-21T14:32:37Z</time>
      </trkpt>
      <trkpt lat="44.18591" lon="1.37267">
        <ele>177.3</ele>
        <time>2021-11-21T14:32:38Z</time>
      </trkpt>
      <trkpt lat="44.18589" lon="1.37267">
        <ele>177.3</ele>
        <time>2021-11-21T14:32:39Z</time>
      </trkpt>
      <trkpt lat="44.18588" lon="1.37267">
        <ele>177.3</ele>
        <time>2021-11-21T14:32:40Z</time>
      </trkpt>
      <trkpt lat="44.18588" lon="1.37267">
        <ele>177.3</ele>
        <time>2021-11-21T14:32:41Z</time>
      </trkpt>
      <trkpt lat="44.18585" lon="1.37266">
        <ele>177.3</ele>
        <time>2021-11-21T14:32:42Z</time>
      </trkpt>
      <trkpt lat="44.18585" lon="1.37266">
        <ele>177.3</ele>
        <time>2021-11-21T14:32:44Z</time>
      </trkpt>
      <trkpt lat="44.18584" lon="1.37267">
        <ele>177.3</ele>
        <time>2021-11-21T14:32:45Z</time>
      </trkpt>
      <trkpt lat="44.18583" lon="1.37267">
        <ele>177.3</ele>
        <time>2021-11-21T14:32:46Z</time>
      </trkpt>
      <trkpt lat="44.18581" lon="1.37266">
        <ele>177.3</ele>
        <time>2021-11-21T14:32:48Z</time>
      </trkpt>
      <trkpt lat="44.1858" lon="1.37266">
        <ele>177.3</ele>
        <time>2021-11-21T14:32:49Z</time>
      </trkpt>
      <trkpt lat="44.18578" lon="1.37265">
        <ele>177.3</ele>
        <time>2021-11-21T14:32:51Z</time>
      </trkpt>
      <trkpt lat="44.18577" lon="1.37264">
        <ele>177.3</ele>
        <time>2021-11-21T14:32:52Z</time>
      </trkpt>
      <trkpt lat="44.18576" lon="1.37261">
        <ele>177.3</ele>
        <time>2021-11-21T14:32:54Z</time>
      </trkpt>
      <trkpt lat="44.18575" lon="1.3726">
        <ele>177.3</ele>
        <time>2021-11-21T14:32:56Z</time>
      </trkpt>
      <trkpt lat="44.18575" lon="1.37259">
        <ele>177.3</ele>
        <time>2021-11-21T14:32:57Z</time>
      </trkpt>
      <trkpt lat="44.18575" lon="1.37259">
        <ele>177.3</ele>
        <time>2021-11-21T14:32:59Z</time>
      </trkpt>
      <trkpt lat="44.18574" lon="1.37259">
        <ele>177.3</ele>
        <time>2021-11-21T14:33:00Z</time>
      </trkpt>
      <trkpt lat="44.18573" lon="1.37259">
        <ele>177.4</ele>
        <time>2021-11-21T14:33:01Z</time>
      </trkpt>
      <trkpt lat="44.18573" lon="1.37259">
        <ele>177.4</ele>
        <time>2021-11-21T14:33:02Z</time>
      </trkpt>
      <trkpt lat="44.18572" lon="1.3726">
        <ele>177.4</ele>
        <time>2021-11-21T14:33:04Z</time>
      </trkpt>
      <trkpt lat="44.18571" lon="1.3726">
        <ele>177.4</ele>
        <time>2021-11-21T14:33:05Z</time>
      </trkpt>
      <trkpt lat="44.1857" lon="1.37261">
        <ele>177.4</ele>
        <time>2021-11-21T14:33:06Z</time>
      </trkpt>
      <trkpt lat="44.18569" lon="1.37261">
        <ele>177.4</ele>
        <time>2021-11-21T14:33:07Z</time>
      </trkpt>
      <trkpt lat="44.18568" lon="1.37261">
        <ele>177.4</ele>
        <time>2021-11-21T14:33:09Z</time>
      </trkpt>
      <trkpt lat="44.18568" lon="1.37261">
        <ele>177.5</ele>
        <time>2021-11-21T14:33:10Z</time>
      </trkpt>
      <trkpt lat="44.18567" lon="1.3726">
        <ele>177.5</ele>
        <time>2021-11-21T14:33:11Z</time>
      </trkpt>
      <trkpt lat="44.18566" lon="1.3726">
        <ele>177.5</ele>
        <time>2021-11-21T14:33:12Z</time>
      </trkpt>
      <trkpt lat="44.18565" lon="1.3726">
        <ele>177.5</ele>
        <time>2021-11-21T14:33:14Z</time>
      </trkpt>
      <trkpt lat="44.18564" lon="1.3726">
        <ele>177.5</ele>
        <time>2021-11-21T14:33:15Z</time>
      </trkpt>
      <trkpt lat="44.18563" lon="1.3726">
        <ele>177.5</ele>
        <time>2021-11-21T14:33:16Z</time>
      </trkpt>
      <trkpt lat="44.18561" lon="1.3726">
        <ele>177.6</ele>
        <time>2021-11-21T14:33:18Z</time>
      </trkpt>
      <trkpt lat="44.18559" lon="1.37259">
        <ele>177.6</ele>
        <time>2021-11-21T14:33:20Z</time>
      </trkpt>
      <trkpt lat="44.18558" lon="1.37259">
        <ele>177.6</ele>
        <time>2021-11-21T14:33:21Z</time>
      </trkpt>
      <trkpt lat="44.18557" lon="1.37259">
        <ele>177.6</ele>
        <time>2021-11-21T14:33:22Z</time>
      </trkpt>
      <trkpt lat="44.18556" lon="1.37259">
        <ele>177.6</ele>
        <time>2021-11-21T14:33:24Z</time>
      </trkpt>
      <trkpt lat="44.18556" lon="1.37259">
        <ele>177.6</ele>
        <time>2021-11-21T14:33:26Z</time>
      </trkpt>
      <trkpt lat="44.18555" lon="1.37258">
        <ele>177.6</ele>
        <time>2021-11-21T14:33:28Z</time>
      </trkpt>
      <trkpt lat="44.18555" lon="1.37258">
        <ele>177.6</ele>
        <time>2021-11-21T14:33:29Z</time>
      </trkpt>
      <trkpt lat="44.18553" lon="1.37257">
        <ele>177.7</ele>
        <time>2021-11-21T14:33:31Z</time>
      </trkpt>
      <trkpt lat="44.18553" lon="1.37256">
        <ele>177.7</ele>
        <time>2021-11-21T14:33:32Z</time>
      </trkpt>
      <trkpt lat="44.18554" lon="1.37255">
        <ele>177.7</ele>
        <time>2021-11-21T14:33:33Z</time>
      </trkpt>
      <trkpt lat="44.18554" lon="1.37255">
        <ele>177.7</ele>
        <time>2021-11-21T14:33:34Z</time>
      </trkpt>
      <trkpt lat="44.18554" lon="1.37254">
        <ele>177.7</ele>
        <time>2021-11-21T14:33:35Z</time>
      </trkpt>
      <trkpt lat="44.18554" lon="1.37253">
        <ele>177.7</ele>
        <time>2021-11-21T14:33:37Z</time>
      </trkpt>
      <trkpt lat="44.18554" lon="1.37253">
        <ele>177.7</ele>
        <time>2021-11-21T14:33:38Z</time>
      </trkpt>
      <trkpt lat="44.18553" lon="1.37252">
        <ele>177.7</ele>
        <time>2021-11-21T14:33:40Z</time>
      </trkpt>
      <trkpt lat="44.18553" lon="1.37252">
        <ele>177.7</ele>
        <time>2021-11-21T14:33:41Z</time>
      </trkpt>
      <trkpt lat="44.18552" lon="1.37251">
        <ele>177.7</ele>
        <time>2021-11-21T14:33:43Z</time>
      </trkpt>
      <trkpt lat="44.18552" lon="1.37251">
        <ele>177.7</ele>
        <time>2021-11-21T14:33:44Z</time>
      </trkpt>
      <trkpt lat="44.18551" lon="1.37251">
        <ele>177.7</ele>
        <time>2021-11-21T14:33:46Z</time>
      </trkpt>
      <trkpt lat="44.18551" lon="1.3725">
        <ele>177.7</ele>
        <time>2021-11-21T14:33:47Z</time>
      </trkpt>
      <trkpt lat="44.18551" lon="1.3725">
        <ele>177.7</ele>
        <time>2021-11-21T14:33:48Z</time>
      </trkpt>
      <trkpt lat="44.18551" lon="1.37249">
        <ele>177.7</ele>
        <time>2021-11-21T14:33:50Z</time>
      </trkpt>
      <trkpt lat="44.18551" lon="1.37249">
        <ele>177.7</ele>
        <time>2021-11-21T14:33:51Z</time>
      </trkpt>
      <trkpt lat="44.18552" lon="1.3725">
        <ele>177.7</ele>
        <time>2021-11-21T14:33:53Z</time>
      </trkpt>
      <trkpt lat="44.18552" lon="1.3725">
        <ele>177.7</ele>
        <time>2021-11-21T14:33:54Z</time>
      </trkpt>
      <trkpt lat="44.18552" lon="1.3725">
        <ele>177.7</ele>
        <time>2021-11-21T14:33:55Z</time>
      </trkpt>
      <trkpt lat="44.18551" lon="1.37249">
        <ele>177.7</ele>
        <time>2021-11-21T14:33:57Z</time>
      </trkpt>
      <trkpt lat="44.1855" lon="1.37248">
        <ele>177.7</ele>
        <time>2021-11-21T14:33:58Z</time>
      </trkpt>
      <trkpt lat="44.18549" lon="1.3725">
        <ele>177.7</ele>
        <time>2021-11-21T14:34:00Z</time>
      </trkpt>
      <trkpt lat="44.18548" lon="1.3725">
        <ele>177.8</ele>
        <time>2021-11-21T14:34:01Z</time>
      </trkpt>
      <trkpt lat="44.18547" lon="1.3725">
        <ele>177.8</ele>
        <time>2021-11-21T14:34:03Z</time>
      </trkpt>
      <trkpt lat="44.18548" lon="1.37251">
        <ele>177.8</ele>
        <time>2021-11-21T14:34:05Z</time>
      </trkpt>
      <trkpt lat="44.18548" lon="1.37251">
        <ele>177.8</ele>
        <time>2021-11-21T14:34:06Z</time>
      </trkpt>
      <trkpt lat="44.18546" lon="1.37252">
        <ele>177.8</ele>
        <time>2021-11-21T14:34:08Z</time>
      </trkpt>
      <trkpt lat="44.18547" lon="1.37252">
        <ele>177.9</ele>
        <time>2021-11-21T14:34:09Z</time>
      </trkpt>
      <trkpt lat="44.18548" lon="1.37251">
        <ele>177.9</ele>
        <time>2021-11-21T14:34:10Z</time>
      </trkpt>
      <trkpt lat="44.18549" lon="1.37251">
        <ele>177.9</ele>
        <time>2021-11-21T14:34:12Z</time>
      </trkpt>
      <trkpt lat="44.18549" lon="1.37251">
        <ele>177.9</ele>
        <time>2021-11-21T14:34:13Z</time>
      </trkpt>
      <trkpt lat="44.18549" lon="1.37251">
        <ele>177.9</ele>
        <time>2021-11-21T14:34:14Z</time>
      </trkpt>
      <trkpt lat="44.18549" lon="1.37251">
        <ele>177.9</ele>
        <time>2021-11-21T14:34:16Z</time>
      </trkpt>
      <trkpt lat="44.18549" lon="1.37251">
        <ele>177.9</ele>
        <time>2021-11-21T14:34:17Z</time>
      </trkpt>
      <trkpt lat="44.18549" lon="1.37251">
        <ele>177.9</ele>
        <time>2021-11-21T14:34:18Z</time>
      </trkpt>
      <trkpt lat="44.18549" lon="1.37251">
        <ele>177.9</ele>
        <time>2021-11-21T14:34:20Z</time>
      </trkpt>
      <trkpt lat="44.18549" lon="1.37251">
        <ele>177.9</ele>
        <time>2021-11-21T14:34:22Z</time>
      </trkpt>
      <trkpt lat="44.18549" lon="1.37251">
        <ele>177.9</ele>
        <time>2021-11-21T14:34:24Z</time>
      </trkpt>
      <trkpt lat="44.18549" lon="1.37251">
        <ele>177.9</ele>
        <time>2021-11-21T14:34:25Z</time>
      </trkpt>
      <trkpt lat="44.18549" lon="1.3725">
        <ele>177.9</ele>
        <time>2021-11-21T14:34:27Z</time>
      </trkpt>
      <trkpt lat="44.18548" lon="1.3725">
        <ele>177.9</ele>
        <time>2021-11-21T14:34:28Z</time>
      </trkpt>
      <trkpt lat="44.18548" lon="1.3725">
        <ele>178</ele>
        <time>2021-11-21T14:34:30Z</time>
      </trkpt>
      <trkpt lat="44.18548" lon="1.3725">
        <ele>178</ele>
        <time>2021-11-21T14:34:31Z</time>
      </trkpt>
      <trkpt lat="44.18548" lon="1.3725">
        <ele>178</ele>
        <time>2021-11-21T14:34:33Z</time>
      </trkpt>
      <trkpt lat="44.18548" lon="1.3725">
        <ele>178</ele>
        <time>2021-11-21T14:34:34Z</time>
      </trkpt>
      <trkpt lat="44.18548" lon="1.3725">
        <ele>178</ele>
        <time>2021-11-21T14:34:35Z</time>
      </trkpt>
      <trkpt lat="44.18548" lon="1.3725">
        <ele>178</ele>
        <time>2021-11-21T14:34:37Z</time>
      </trkpt>
      <trkpt lat="44.18548" lon="1.3725">
        <ele>178</ele>
        <time>2021-11-21T14:34:38Z</time>
      </trkpt>
      <trkpt lat="44.18548" lon="1.3725">
        <ele>178</ele>
        <time>2021-11-21T14:34:40Z</time>
      </trkpt>
      <trkpt lat="44.18548" lon="1.3725">
        <ele>178</ele>
        <time>2021-11-21T14:34:42Z</time>
      </trkpt>
      <trkpt lat="44.18548" lon="1.3725">
        <ele>178</ele>
        <time>2021-11-21T14:34:43Z</time>
      </trkpt>
      <trkpt lat="44.18548" lon="1.3725">
        <ele>178</ele>
        <time>2021-11-21T14:34:45Z</time>
      </trkpt>
      <trkpt lat="44.18548" lon="1.3725">
        <ele>178</ele>
        <time>2021-11-21T14:34:47Z</time>
      </trkpt>
      <trkpt lat="44.18548" lon="1.3725">
        <ele>178</ele>
        <time>2021-11-21T14:34:49Z</time>
      </trkpt>
      <trkpt lat="44.18548" lon="1.3725">
        <ele>178</ele>
        <time>2021-11-21T14:34:50Z</time>
      </trkpt>
      <trkpt lat="44.18548" lon="1.3725">
        <ele>178</ele>
        <time>2021-11-21T14:34:51Z</time>
      </trkpt>
      <trkpt lat="44.18547" lon="1.3725">
        <ele>178</ele>
        <time>2021-11-21T14:34:53Z</time>
      </trkpt>
      <trkpt lat="44.18547" lon="1.3725">
        <ele>178</ele>
        <time>2021-11-21T14:34:54Z</time>
      </trkpt>
      <trkpt lat="44.18546" lon="1.3725">
        <ele>178</ele>
        <time>2021-11-21T14:34:56Z</time>
      </trkpt>
      <trkpt lat="44.18546" lon="1.37249">
        <ele>178</ele>
        <time>2021-11-21T14:34:58Z</time>
      </trkpt>
      <trkpt lat="44.18546" lon="1.3725">
        <ele>178</ele>
        <time>2021-11-21T14:34:59Z</time>
      </trkpt>
      <trkpt lat="44.18545" lon="1.3725">
        <ele>178.1</ele>
        <time>2021-11-21T14:35:00Z</time>
      </trkpt>
      <trkpt lat="44.18544" lon="1.3725">
        <ele>178.1</ele>
        <time>2021-11-21T14:35:02Z</time>
      </trkpt>
      <trkpt lat="44.18543" lon="1.37249">
        <ele>178.1</ele>
        <time>2021-11-21T14:35:03Z</time>
      </trkpt>
      <trkpt lat="44.18542" lon="1.37248">
        <ele>178.1</ele>
        <time>2021-11-21T14:35:04Z</time>
      </trkpt>
      <trkpt lat="44.18541" lon="1.37246">
        <ele>178.2</ele>
        <time>2021-11-21T14:35:06Z</time>
      </trkpt>
      <trkpt lat="44.18539" lon="1.37245">
        <ele>178.2</ele>
        <time>2021-11-21T14:35:07Z</time>
      </trkpt>
      <trkpt lat="44.18538" lon="1.37244">
        <ele>178.3</ele>
        <time>2021-11-21T14:35:08Z</time>
      </trkpt>
      <trkpt lat="44.18537" lon="1.37243">
        <ele>178.3</ele>
        <time>2021-11-21T14:35:09Z</time>
      </trkpt>
      <trkpt lat="44.18535" lon="1.37242">
        <ele>178.3</ele>
        <time>2021-11-21T14:35:11Z</time>
      </trkpt>
      <trkpt lat="44.18534" lon="1.37241">
        <ele>178.3</ele>
        <time>2021-11-21T14:35:12Z</time>
      </trkpt>
      <trkpt lat="44.18533" lon="1.37241">
        <ele>178.4</ele>
        <time>2021-11-21T14:35:13Z</time>
      </trkpt>
      <trkpt lat="44.18532" lon="1.3724">
        <ele>178.4</ele>
        <time>2021-11-21T14:35:14Z</time>
      </trkpt>
      <trkpt lat="44.1853" lon="1.3724">
        <ele>178.4</ele>
        <time>2021-11-21T14:35:15Z</time>
      </trkpt>
      <trkpt lat="44.18528" lon="1.37241">
        <ele>178.4</ele>
        <time>2021-11-21T14:35:16Z</time>
      </trkpt>
      <trkpt lat="44.18527" lon="1.37241">
        <ele>178.4</ele>
        <time>2021-11-21T14:35:18Z</time>
      </trkpt>
      <trkpt lat="44.18526" lon="1.37241">
        <ele>178.4</ele>
        <time>2021-11-21T14:35:19Z</time>
      </trkpt>
      <trkpt lat="44.18525" lon="1.37241">
        <ele>178.4</ele>
        <time>2021-11-21T14:35:20Z</time>
      </trkpt>
      <trkpt lat="44.18524" lon="1.37242">
        <ele>178.4</ele>
        <time>2021-11-21T14:35:21Z</time>
      </trkpt>
      <trkpt lat="44.18522" lon="1.37242">
        <ele>178.4</ele>
        <time>2021-11-21T14:35:22Z</time>
      </trkpt>
      <trkpt lat="44.18521" lon="1.37242">
        <ele>178.4</ele>
        <time>2021-11-21T14:35:23Z</time>
      </trkpt>
      <trkpt lat="44.1852" lon="1.3724">
        <ele>178.4</ele>
        <time>2021-11-21T14:35:25Z</time>
      </trkpt>
      <trkpt lat="44.18518" lon="1.37237">
        <ele>178.4</ele>
        <time>2021-11-21T14:35:27Z</time>
      </trkpt>
      <trkpt lat="44.18518" lon="1.37235">
        <ele>178.4</ele>
        <time>2021-11-21T14:35:28Z</time>
      </trkpt>
      <trkpt lat="44.18517" lon="1.37234">
        <ele>178.4</ele>
        <time>2021-11-21T14:35:29Z</time>
      </trkpt>
      <trkpt lat="44.18516" lon="1.37232">
        <ele>178.4</ele>
        <time>2021-11-21T14:35:30Z</time>
      </trkpt>
      <trkpt lat="44.18515" lon="1.37231">
        <ele>178.4</ele>
        <time>2021-11-21T14:35:31Z</time>
      </trkpt>
      <trkpt lat="44.18513" lon="1.3723">
        <ele>178.4</ele>
        <time>2021-11-21T14:35:32Z</time>
      </trkpt>
      <trkpt lat="44.18512" lon="1.37229">
        <ele>178.4</ele>
        <time>2021-11-21T14:35:33Z</time>
      </trkpt>
      <trkpt lat="44.1851" lon="1.37229">
        <ele>178.4</ele>
        <time>2021-11-21T14:35:35Z</time>
      </trkpt>
      <trkpt lat="44.18509" lon="1.37228">
        <ele>178.4</ele>
        <time>2021-11-21T14:35:36Z</time>
      </trkpt>
      <trkpt lat="44.18508" lon="1.37228">
        <ele>178.4</ele>
        <time>2021-11-21T14:35:37Z</time>
      </trkpt>
      <trkpt lat="44.18506" lon="1.37228">
        <ele>178.5</ele>
        <time>2021-11-21T14:35:38Z</time>
      </trkpt>
      <trkpt lat="44.18505" lon="1.37227">
        <ele>178.5</ele>
        <time>2021-11-21T14:35:39Z</time>
      </trkpt>
      <trkpt lat="44.18504" lon="1.37227">
        <ele>178.5</ele>
        <time>2021-11-21T14:35:40Z</time>
      </trkpt>
      <trkpt lat="44.18503" lon="1.37226">
        <ele>178.5</ele>
        <time>2021-11-21T14:35:42Z</time>
      </trkpt>
      <trkpt lat="44.18501" lon="1.37226">
        <ele>178.5</ele>
        <time>2021-11-21T14:35:43Z</time>
      </trkpt>
      <trkpt lat="44.185" lon="1.37225">
        <ele>178.5</ele>
        <time>2021-11-21T14:35:44Z</time>
      </trkpt>
      <trkpt lat="44.18499" lon="1.37225">
        <ele>178.5</ele>
        <time>2021-11-21T14:35:45Z</time>
      </trkpt>
      <trkpt lat="44.18497" lon="1.37224">
        <ele>178.5</ele>
        <time>2021-11-21T14:35:46Z</time>
      </trkpt>
      <trkpt lat="44.18496" lon="1.37224">
        <ele>178.5</ele>
        <time>2021-11-21T14:35:47Z</time>
      </trkpt>
      <trkpt lat="44.18495" lon="1.37223">
        <ele>178.5</ele>
        <time>2021-11-21T14:35:48Z</time>
      </trkpt>
      <trkpt lat="44.18493" lon="1.37222">
        <ele>178.6</ele>
        <time>2021-11-21T14:35:50Z</time>
      </trkpt>
      <trkpt lat="44.18493" lon="1.37222">
        <ele>178.6</ele>
        <time>2021-11-21T14:35:51Z</time>
      </trkpt>
      <trkpt lat="44.18492" lon="1.37222">
        <ele>178.6</ele>
        <time>2021-11-21T14:35:52Z</time>
      </trkpt>
      <trkpt lat="44.1849" lon="1.37221">
        <ele>178.6</ele>
        <time>2021-11-21T14:35:53Z</time>
      </trkpt>
      <trkpt lat="44.18489" lon="1.3722">
        <ele>178.6</ele>
        <time>2021-11-21T14:35:54Z</time>
      </trkpt>
      <trkpt lat="44.18488" lon="1.3722">
        <ele>178.6</ele>
        <time>2021-11-21T14:35:55Z</time>
      </trkpt>
      <trkpt lat="44.18487" lon="1.37219">
        <ele>178.6</ele>
        <time>2021-11-21T14:35:56Z</time>
      </trkpt>
      <trkpt lat="44.18485" lon="1.37218">
        <ele>178.7</ele>
        <time>2021-11-21T14:35:58Z</time>
      </trkpt>
      <trkpt lat="44.18485" lon="1.37218">
        <ele>178.7</ele>
        <time>2021-11-21T14:35:59Z</time>
      </trkpt>
      <trkpt lat="44.18484" lon="1.37217">
        <ele>178.7</ele>
        <time>2021-11-21T14:36:00Z</time>
      </trkpt>
      <trkpt lat="44.18482" lon="1.37216">
        <ele>178.7</ele>
        <time>2021-11-21T14:36:01Z</time>
      </trkpt>
      <trkpt lat="44.18481" lon="1.37215">
        <ele>178.7</ele>
        <time>2021-11-21T14:36:02Z</time>
      </trkpt>
      <trkpt lat="44.1848" lon="1.37215">
        <ele>178.7</ele>
        <time>2021-11-21T14:36:03Z</time>
      </trkpt>
      <trkpt lat="44.18479" lon="1.37215">
        <ele>178.8</ele>
        <time>2021-11-21T14:36:04Z</time>
      </trkpt>
      <trkpt lat="44.18477" lon="1.37213">
        <ele>178.8</ele>
        <time>2021-11-21T14:36:06Z</time>
      </trkpt>
      <trkpt lat="44.18476" lon="1.37213">
        <ele>178.8</ele>
        <time>2021-11-21T14:36:07Z</time>
      </trkpt>
      <trkpt lat="44.18476" lon="1.37212">
        <ele>178.8</ele>
        <time>2021-11-21T14:36:08Z</time>
      </trkpt>
      <trkpt lat="44.18473" lon="1.3721">
        <ele>179</ele>
        <time>2021-11-21T14:36:09Z</time>
      </trkpt>
      <trkpt lat="44.18473" lon="1.3721">
        <ele>179</ele>
        <time>2021-11-21T14:36:10Z</time>
      </trkpt>
      <trkpt lat="44.18473" lon="1.37209">
        <ele>179.1</ele>
        <time>2021-11-21T14:36:11Z</time>
      </trkpt>
      <trkpt lat="44.18472" lon="1.37208">
        <ele>179.1</ele>
        <time>2021-11-21T14:36:13Z</time>
      </trkpt>
      <trkpt lat="44.1847" lon="1.37207">
        <ele>179.3</ele>
        <time>2021-11-21T14:36:14Z</time>
      </trkpt>
      <trkpt lat="44.1847" lon="1.37207">
        <ele>179.4</ele>
        <time>2021-11-21T14:36:15Z</time>
      </trkpt>
      <trkpt lat="44.18469" lon="1.37206">
        <ele>179.4</ele>
        <time>2021-11-21T14:36:16Z</time>
      </trkpt>
      <trkpt lat="44.18468" lon="1.37206">
        <ele>179.5</ele>
        <time>2021-11-21T14:36:17Z</time>
      </trkpt>
      <trkpt lat="44.18466" lon="1.37205">
        <ele>179.6</ele>
        <time>2021-11-21T14:36:18Z</time>
      </trkpt>
      <trkpt lat="44.18465" lon="1.37205">
        <ele>179.7</ele>
        <time>2021-11-21T14:36:20Z</time>
      </trkpt>
      <trkpt lat="44.18464" lon="1.37204">
        <ele>179.8</ele>
        <time>2021-11-21T14:36:21Z</time>
      </trkpt>
      <trkpt lat="44.18463" lon="1.37204">
        <ele>179.9</ele>
        <time>2021-11-21T14:36:22Z</time>
      </trkpt>
      <trkpt lat="44.18461" lon="1.37203">
        <ele>180</ele>
        <time>2021-11-21T14:36:24Z</time>
      </trkpt>
      <trkpt lat="44.18461" lon="1.37202">
        <ele>180</ele>
        <time>2021-11-21T14:36:25Z</time>
      </trkpt>
      <trkpt lat="44.18459" lon="1.37201">
        <ele>180.1</ele>
        <time>2021-11-21T14:36:27Z</time>
      </trkpt>
      <trkpt lat="44.18457" lon="1.372">
        <ele>180.2</ele>
        <time>2021-11-21T14:36:29Z</time>
      </trkpt>
      <trkpt lat="44.18456" lon="1.37199">
        <ele>180.3</ele>
        <time>2021-11-21T14:36:30Z</time>
      </trkpt>
      <trkpt lat="44.18456" lon="1.37198">
        <ele>180.3</ele>
        <time>2021-11-21T14:36:31Z</time>
      </trkpt>
      <trkpt lat="44.18455" lon="1.37197">
        <ele>180.4</ele>
        <time>2021-11-21T14:36:32Z</time>
      </trkpt>
      <trkpt lat="44.18454" lon="1.37195">
        <ele>180.4</ele>
        <time>2021-11-21T14:36:34Z</time>
      </trkpt>
      <trkpt lat="44.18454" lon="1.37194">
        <ele>180.4</ele>
        <time>2021-11-21T14:36:35Z</time>
      </trkpt>
      <trkpt lat="44.18453" lon="1.37193">
        <ele>180.5</ele>
        <time>2021-11-21T14:36:36Z</time>
      </trkpt>
      <trkpt lat="44.18452" lon="1.37192">
        <ele>180.5</ele>
        <time>2021-11-21T14:36:38Z</time>
      </trkpt>
      <trkpt lat="44.18451" lon="1.37192">
        <ele>180.5</ele>
        <time>2021-11-21T14:36:39Z</time>
      </trkpt>
      <trkpt lat="44.1845" lon="1.37192">
        <ele>180.6</ele>
        <time>2021-11-21T14:36:40Z</time>
      </trkpt>
      <trkpt lat="44.18449" lon="1.37191">
        <ele>180.6</ele>
        <time>2021-11-21T14:36:42Z</time>
      </trkpt>
      <trkpt lat="44.18448" lon="1.37191">
        <ele>180.6</ele>
        <time>2021-11-21T14:36:43Z</time>
      </trkpt>
      <trkpt lat="44.18447" lon="1.37191">
        <ele>180.6</ele>
        <time>2021-11-21T14:36:44Z</time>
      </trkpt>
      <trkpt lat="44.18446" lon="1.3719">
        <ele>180.6</ele>
        <time>2021-11-21T14:36:45Z</time>
      </trkpt>
      <trkpt lat="44.18445" lon="1.3719">
        <ele>180.6</ele>
        <time>2021-11-21T14:36:47Z</time>
      </trkpt>
      <trkpt lat="44.18444" lon="1.3719">
        <ele>180.7</ele>
        <time>2021-11-21T14:36:48Z</time>
      </trkpt>
      <trkpt lat="44.18443" lon="1.37189">
        <ele>180.7</ele>
        <time>2021-11-21T14:36:50Z</time>
      </trkpt>
      <trkpt lat="44.18441" lon="1.37188">
        <ele>180.7</ele>
        <time>2021-11-21T14:36:51Z</time>
      </trkpt>
      <trkpt lat="44.1844" lon="1.37188">
        <ele>180.7</ele>
        <time>2021-11-21T14:36:52Z</time>
      </trkpt>
      <trkpt lat="44.18439" lon="1.37187">
        <ele>180.7</ele>
        <time>2021-11-21T14:36:53Z</time>
      </trkpt>
      <trkpt lat="44.18438" lon="1.37187">
        <ele>180.7</ele>
        <time>2021-11-21T14:36:54Z</time>
      </trkpt>
      <trkpt lat="44.18437" lon="1.37186">
        <ele>180.7</ele>
        <time>2021-11-21T14:36:56Z</time>
      </trkpt>
      <trkpt lat="44.18436" lon="1.37186">
        <ele>180.7</ele>
        <time>2021-11-21T14:36:57Z</time>
      </trkpt>
      <trkpt lat="44.18435" lon="1.37185">
        <ele>180.7</ele>
        <time>2021-11-21T14:36:58Z</time>
      </trkpt>
      <trkpt lat="44.18434" lon="1.37185">
        <ele>180.6</ele>
        <time>2021-11-21T14:36:59Z</time>
      </trkpt>
      <trkpt lat="44.18433" lon="1.37184">
        <ele>180.6</ele>
        <time>2021-11-21T14:37:00Z</time>
      </trkpt>
      <trkpt lat="44.18432" lon="1.37183">
        <ele>180.6</ele>
        <time>2021-11-21T14:37:02Z</time>
      </trkpt>
      <trkpt lat="44.18431" lon="1.37183">
        <ele>180.6</ele>
        <time>2021-11-21T14:37:03Z</time>
      </trkpt>
      <trkpt lat="44.1843" lon="1.37182">
        <ele>180.6</ele>
        <time>2021-11-21T14:37:04Z</time>
      </trkpt>
      <trkpt lat="44.18429" lon="1.37182">
        <ele>180.6</ele>
        <time>2021-11-21T14:37:05Z</time>
      </trkpt>
      <trkpt lat="44.18427" lon="1.3718">
        <ele>180.5</ele>
        <time>2021-11-21T14:37:06Z</time>
      </trkpt>
      <trkpt lat="44.18427" lon="1.3718">
        <ele>180.5</ele>
        <time>2021-11-21T14:37:07Z</time>
      </trkpt>
      <trkpt lat="44.18426" lon="1.37179">
        <ele>180.5</ele>
        <time>2021-11-21T14:37:09Z</time>
      </trkpt>
      <trkpt lat="44.18425" lon="1.37178">
        <ele>180.5</ele>
        <time>2021-11-21T14:37:10Z</time>
      </trkpt>
      <trkpt lat="44.18423" lon="1.37177">
        <ele>180.5</ele>
        <time>2021-11-21T14:37:11Z</time>
      </trkpt>
      <trkpt lat="44.18422" lon="1.37176">
        <ele>180.4</ele>
        <time>2021-11-21T14:37:12Z</time>
      </trkpt>
      <trkpt lat="44.18421" lon="1.37175">
        <ele>180.4</ele>
        <time>2021-11-21T14:37:13Z</time>
      </trkpt>
      <trkpt lat="44.1842" lon="1.37175">
        <ele>180.4</ele>
        <time>2021-11-21T14:37:14Z</time>
      </trkpt>
      <trkpt lat="44.18419" lon="1.37174">
        <ele>180.4</ele>
        <time>2021-11-21T14:37:16Z</time>
      </trkpt>
      <trkpt lat="44.18418" lon="1.37174">
        <ele>180.4</ele>
        <time>2021-11-21T14:37:17Z</time>
      </trkpt>
      <trkpt lat="44.18416" lon="1.37173">
        <ele>180.3</ele>
        <time>2021-11-21T14:37:18Z</time>
      </trkpt>
      <trkpt lat="44.18415" lon="1.37173">
        <ele>180.3</ele>
        <time>2021-11-21T14:37:19Z</time>
      </trkpt>
      <trkpt lat="44.18415" lon="1.37172">
        <ele>180.3</ele>
        <time>2021-11-21T14:37:20Z</time>
      </trkpt>
      <trkpt lat="44.18413" lon="1.37171">
        <ele>180.3</ele>
        <time>2021-11-21T14:37:22Z</time>
      </trkpt>
      <trkpt lat="44.18412" lon="1.37171">
        <ele>180.3</ele>
        <time>2021-11-21T14:37:23Z</time>
      </trkpt>
      <trkpt lat="44.18411" lon="1.37171">
        <ele>180.3</ele>
        <time>2021-11-21T14:37:24Z</time>
      </trkpt>
      <trkpt lat="44.1841" lon="1.3717">
        <ele>180.2</ele>
        <time>2021-11-21T14:37:25Z</time>
      </trkpt>
      <trkpt lat="44.18409" lon="1.3717">
        <ele>180.2</ele>
        <time>2021-11-21T14:37:26Z</time>
      </trkpt>
      <trkpt lat="44.18407" lon="1.37169">
        <ele>180.2</ele>
        <time>2021-11-21T14:37:27Z</time>
      </trkpt>
      <trkpt lat="44.18405" lon="1.37168">
        <ele>180.2</ele>
        <time>2021-11-21T14:37:29Z</time>
      </trkpt>
      <trkpt lat="44.18405" lon="1.37168">
        <ele>180.2</ele>
        <time>2021-11-21T14:37:30Z</time>
      </trkpt>
      <trkpt lat="44.18404" lon="1.37167">
        <ele>180.2</ele>
        <time>2021-11-21T14:37:31Z</time>
      </trkpt>
      <trkpt lat="44.18403" lon="1.37166">
        <ele>180.1</ele>
        <time>2021-11-21T14:37:32Z</time>
      </trkpt>
      <trkpt lat="44.18401" lon="1.37165">
        <ele>180.1</ele>
        <time>2021-11-21T14:37:33Z</time>
      </trkpt>
      <trkpt lat="44.184" lon="1.37165">
        <ele>180.1</ele>
        <time>2021-11-21T14:37:34Z</time>
      </trkpt>
      <trkpt lat="44.18399" lon="1.37164">
        <ele>180.1</ele>
        <time>2021-11-21T14:37:36Z</time>
      </trkpt>
      <trkpt lat="44.18398" lon="1.37163">
        <ele>180.1</ele>
        <time>2021-11-21T14:37:37Z</time>
      </trkpt>
      <trkpt lat="44.18397" lon="1.37163">
        <ele>180.1</ele>
        <time>2021-11-21T14:37:38Z</time>
      </trkpt>
      <trkpt lat="44.18395" lon="1.37161">
        <ele>180</ele>
        <time>2021-11-21T14:37:39Z</time>
      </trkpt>
      <trkpt lat="44.18394" lon="1.37161">
        <ele>180</ele>
        <time>2021-11-21T14:37:40Z</time>
      </trkpt>
      <trkpt lat="44.18393" lon="1.3716">
        <ele>180</ele>
        <time>2021-11-21T14:37:41Z</time>
      </trkpt>
      <trkpt lat="44.18392" lon="1.37159">
        <ele>180</ele>
        <time>2021-11-21T14:37:43Z</time>
      </trkpt>
      <trkpt lat="44.18391" lon="1.37158">
        <ele>180</ele>
        <time>2021-11-21T14:37:44Z</time>
      </trkpt>
      <trkpt lat="44.1839" lon="1.37157">
        <ele>180</ele>
        <time>2021-11-21T14:37:45Z</time>
      </trkpt>
      <trkpt lat="44.18388" lon="1.37156">
        <ele>180</ele>
        <time>2021-11-21T14:37:47Z</time>
      </trkpt>
      <trkpt lat="44.18387" lon="1.37154">
        <ele>179.9</ele>
        <time>2021-11-21T14:37:48Z</time>
      </trkpt>
      <trkpt lat="44.18386" lon="1.37153">
        <ele>179.9</ele>
        <time>2021-11-21T14:37:49Z</time>
      </trkpt>
      <trkpt lat="44.18385" lon="1.37152">
        <ele>179.9</ele>
        <time>2021-11-21T14:37:51Z</time>
      </trkpt>
      <trkpt lat="44.18385" lon="1.37151">
        <ele>179.9</ele>
        <time>2021-11-21T14:37:52Z</time>
      </trkpt>
      <trkpt lat="44.18384" lon="1.3715">
        <ele>179.9</ele>
        <time>2021-11-21T14:37:53Z</time>
      </trkpt>
      <trkpt lat="44.18382" lon="1.37149">
        <ele>179.9</ele>
        <time>2021-11-21T14:37:54Z</time>
      </trkpt>
      <trkpt lat="44.18381" lon="1.37148">
        <ele>179.9</ele>
        <time>2021-11-21T14:37:55Z</time>
      </trkpt>
      <trkpt lat="44.1838" lon="1.37148">
        <ele>179.9</ele>
        <time>2021-11-21T14:37:57Z</time>
      </trkpt>
      <trkpt lat="44.18379" lon="1.37147">
        <ele>179.8</ele>
        <time>2021-11-21T14:37:58Z</time>
      </trkpt>
      <trkpt lat="44.18378" lon="1.37146">
        <ele>179.8</ele>
        <time>2021-11-21T14:37:59Z</time>
      </trkpt>
      <trkpt lat="44.18377" lon="1.37145">
        <ele>179.8</ele>
        <time>2021-11-21T14:38:00Z</time>
      </trkpt>
      <trkpt lat="44.18376" lon="1.37145">
        <ele>179.8</ele>
        <time>2021-11-21T14:38:01Z</time>
      </trkpt>
      <trkpt lat="44.18374" lon="1.37144">
        <ele>179.8</ele>
        <time>2021-11-21T14:38:02Z</time>
      </trkpt>
      <trkpt lat="44.18373" lon="1.37143">
        <ele>179.8</ele>
        <time>2021-11-21T14:38:04Z</time>
      </trkpt>
      <trkpt lat="44.18372" lon="1.37142">
        <ele>179.8</ele>
        <time>2021-11-21T14:38:05Z</time>
      </trkpt>
      <trkpt lat="44.18371" lon="1.37142">
        <ele>179.8</ele>
        <time>2021-11-21T14:38:06Z</time>
      </trkpt>
      <trkpt lat="44.18371" lon="1.37141">
        <ele>179.8</ele>
        <time>2021-11-21T14:38:07Z</time>
      </trkpt>
      <trkpt lat="44.18369" lon="1.3714">
        <ele>179.8</ele>
        <time>2021-11-21T14:38:09Z</time>
      </trkpt>
      <trkpt lat="44.18368" lon="1.37139">
        <ele>179.8</ele>
        <time>2021-11-21T14:38:10Z</time>
      </trkpt>
      <trkpt lat="44.18368" lon="1.37138">
        <ele>179.8</ele>
        <time>2021-11-21T14:38:11Z</time>
      </trkpt>
      <trkpt lat="44.18367" lon="1.37138">
        <ele>179.8</ele>
        <time>2021-11-21T14:38:12Z</time>
      </trkpt>
      <trkpt lat="44.18365" lon="1.37136">
        <ele>179.7</ele>
        <time>2021-11-21T14:38:14Z</time>
      </trkpt>
      <trkpt lat="44.18365" lon="1.37136">
        <ele>179.7</ele>
        <time>2021-11-21T14:38:15Z</time>
      </trkpt>
      <trkpt lat="44.18364" lon="1.37135">
        <ele>179.7</ele>
        <time>2021-11-21T14:38:16Z</time>
      </trkpt>
      <trkpt lat="44.18362" lon="1.37134">
        <ele>179.7</ele>
        <time>2021-11-21T14:38:17Z</time>
      </trkpt>
      <trkpt lat="44.18361" lon="1.37133">
        <ele>179.7</ele>
        <time>2021-11-21T14:38:18Z</time>
      </trkpt>
      <trkpt lat="44.1836" lon="1.37132">
        <ele>179.7</ele>
        <time>2021-11-21T14:38:20Z</time>
      </trkpt>
      <trkpt lat="44.18359" lon="1.37132">
        <ele>179.7</ele>
        <time>2021-11-21T14:38:21Z</time>
      </trkpt>
      <trkpt lat="44.18358" lon="1.37131">
        <ele>179.7</ele>
        <time>2021-11-21T14:38:22Z</time>
      </trkpt>
      <trkpt lat="44.18358" lon="1.3713">
        <ele>179.7</ele>
        <time>2021-11-21T14:38:23Z</time>
      </trkpt>
      <trkpt lat="44.18357" lon="1.37129">
        <ele>179.7</ele>
        <time>2021-11-21T14:38:25Z</time>
      </trkpt>
      <trkpt lat="44.18356" lon="1.37129">
        <ele>179.7</ele>
        <time>2021-11-21T14:38:26Z</time>
      </trkpt>
      <trkpt lat="44.18355" lon="1.37128">
        <ele>179.7</ele>
        <time>2021-11-21T14:38:27Z</time>
      </trkpt>
      <trkpt lat="44.18354" lon="1.37127">
        <ele>179.7</ele>
        <time>2021-11-21T14:38:28Z</time>
      </trkpt>
      <trkpt lat="44.18353" lon="1.37126">
        <ele>179.7</ele>
        <time>2021-11-21T14:38:29Z</time>
      </trkpt>
      <trkpt lat="44.18352" lon="1.37125">
        <ele>179.7</ele>
        <time>2021-11-21T14:38:31Z</time>
      </trkpt>
      <trkpt lat="44.18351" lon="1.37124">
        <ele>179.7</ele>
        <time>2021-11-21T14:38:32Z</time>
      </trkpt>
      <trkpt lat="44.18349" lon="1.37123">
        <ele>179.7</ele>
        <time>2021-11-21T14:38:33Z</time>
      </trkpt>
      <trkpt lat="44.18349" lon="1.37122">
        <ele>179.7</ele>
        <time>2021-11-21T14:38:34Z</time>
      </trkpt>
      <trkpt lat="44.18348" lon="1.37121">
        <ele>179.7</ele>
        <time>2021-11-21T14:38:36Z</time>
      </trkpt>
      <trkpt lat="44.18347" lon="1.3712">
        <ele>179.7</ele>
        <time>2021-11-21T14:38:37Z</time>
      </trkpt>
      <trkpt lat="44.18346" lon="1.37119">
        <ele>179.7</ele>
        <time>2021-11-21T14:38:38Z</time>
      </trkpt>
      <trkpt lat="44.18344" lon="1.37118">
        <ele>179.7</ele>
        <time>2021-11-21T14:38:39Z</time>
      </trkpt>
      <trkpt lat="44.18343" lon="1.37118">
        <ele>179.8</ele>
        <time>2021-11-21T14:38:41Z</time>
      </trkpt>
      <trkpt lat="44.18341" lon="1.37117">
        <ele>179.8</ele>
        <time>2021-11-21T14:38:42Z</time>
      </trkpt>
      <trkpt lat="44.1834" lon="1.37116">
        <ele>179.9</ele>
        <time>2021-11-21T14:38:43Z</time>
      </trkpt>
      <trkpt lat="44.18339" lon="1.37116">
        <ele>179.9</ele>
        <time>2021-11-21T14:38:45Z</time>
      </trkpt>
      <trkpt lat="44.18338" lon="1.37115">
        <ele>179.9</ele>
        <time>2021-11-21T14:38:46Z</time>
      </trkpt>
      <trkpt lat="44.18338" lon="1.37115">
        <ele>179.9</ele>
        <time>2021-11-21T14:38:48Z</time>
      </trkpt>
      <trkpt lat="44.18337" lon="1.37114">
        <ele>180</ele>
        <time>2021-11-21T14:38:49Z</time>
      </trkpt>
      <trkpt lat="44.18336" lon="1.37113">
        <ele>180</ele>
        <time>2021-11-21T14:38:50Z</time>
      </trkpt>
      <trkpt lat="44.18336" lon="1.37113">
        <ele>180</ele>
        <time>2021-11-21T14:38:52Z</time>
      </trkpt>
      <trkpt lat="44.18336" lon="1.37113">
        <ele>180</ele>
        <time>2021-11-21T14:38:53Z</time>
      </trkpt>
      <trkpt lat="44.18336" lon="1.37113">
        <ele>180</ele>
        <time>2021-11-21T14:38:54Z</time>
      </trkpt>
      <trkpt lat="44.18337" lon="1.37113">
        <ele>180</ele>
        <time>2021-11-21T14:38:56Z</time>
      </trkpt>
      <trkpt lat="44.18337" lon="1.37113">
        <ele>180</ele>
        <time>2021-11-21T14:38:57Z</time>
      </trkpt>
      <trkpt lat="44.18337" lon="1.37113">
        <ele>180</ele>
        <time>2021-11-21T14:38:58Z</time>
      </trkpt>
      <trkpt lat="44.18337" lon="1.37113">
        <ele>180</ele>
        <time>2021-11-21T14:38:59Z</time>
      </trkpt>
      <trkpt lat="44.18338" lon="1.37113">
        <ele>180</ele>
        <time>2021-11-21T14:39:01Z</time>
      </trkpt>
      <trkpt lat="44.18338" lon="1.37113">
        <ele>180</ele>
        <time>2021-11-21T14:39:02Z</time>
      </trkpt>
      <trkpt lat="44.18338" lon="1.37113">
        <ele>180</ele>
        <time>2021-11-21T14:39:03Z</time>
      </trkpt>
      <trkpt lat="44.18338" lon="1.37113">
        <ele>180.1</ele>
        <time>2021-11-21T14:39:05Z</time>
      </trkpt>
      <trkpt lat="44.18338" lon="1.37113">
        <ele>180.1</ele>
        <time>2021-11-21T14:39:06Z</time>
      </trkpt>
      <trkpt lat="44.18338" lon="1.37114">
        <ele>180.1</ele>
        <time>2021-11-21T14:39:08Z</time>
      </trkpt>
      <trkpt lat="44.18338" lon="1.37114">
        <ele>180.1</ele>
        <time>2021-11-21T14:39:10Z</time>
      </trkpt>
      <trkpt lat="44.18338" lon="1.37114">
        <ele>180.1</ele>
        <time>2021-11-21T14:39:12Z</time>
      </trkpt>
      <trkpt lat="44.18337" lon="1.37114">
        <ele>180.1</ele>
        <time>2021-11-21T14:39:13Z</time>
      </trkpt>
      <trkpt lat="44.18337" lon="1.37114">
        <ele>180.1</ele>
        <time>2021-11-21T14:39:15Z</time>
      </trkpt>
      <trkpt lat="44.18337" lon="1.37114">
        <ele>180.1</ele>
        <time>2021-11-21T14:39:17Z</time>
      </trkpt>
      <trkpt lat="44.18337" lon="1.37114">
        <ele>180.1</ele>
        <time>2021-11-21T14:39:19Z</time>
      </trkpt>
      <trkpt lat="44.18337" lon="1.37114">
        <ele>180.1</ele>
        <time>2021-11-21T14:39:20Z</time>
      </trkpt>
      <trkpt lat="44.18337" lon="1.37115">
        <ele>180.1</ele>
        <time>2021-11-21T14:39:22Z</time>
      </trkpt>
      <trkpt lat="44.18337" lon="1.37115">
        <ele>180.1</ele>
        <time>2021-11-21T14:39:23Z</time>
      </trkpt>
      <trkpt lat="44.18337" lon="1.37115">
        <ele>180.1</ele>
        <time>2021-11-21T14:39:25Z</time>
      </trkpt>
      <trkpt lat="44.18337" lon="1.37114">
        <ele>180.1</ele>
        <time>2021-11-21T14:39:27Z</time>
      </trkpt>
      <trkpt lat="44.18337" lon="1.37114">
        <ele>180.1</ele>
        <time>2021-11-21T14:39:29Z</time>
      </trkpt>
      <trkpt lat="44.18338" lon="1.37115">
        <ele>180.2</ele>
        <time>2021-11-21T14:39:30Z</time>
      </trkpt>
      <trkpt lat="44.18338" lon="1.37115">
        <ele>180.2</ele>
        <time>2021-11-21T14:39:31Z</time>
      </trkpt>
      <trkpt lat="44.18338" lon="1.37116">
        <ele>180.2</ele>
        <time>2021-11-21T14:39:32Z</time>
      </trkpt>
      <trkpt lat="44.18339" lon="1.37117">
        <ele>180.2</ele>
        <time>2021-11-21T14:39:34Z</time>
      </trkpt>
      <trkpt lat="44.18339" lon="1.37117">
        <ele>180.2</ele>
        <time>2021-11-21T14:39:35Z</time>
      </trkpt>
      <trkpt lat="44.18339" lon="1.37117">
        <ele>180.2</ele>
        <time>2021-11-21T14:39:36Z</time>
      </trkpt>
      <trkpt lat="44.1834" lon="1.37118">
        <ele>180.3</ele>
        <time>2021-11-21T14:39:38Z</time>
      </trkpt>
      <trkpt lat="44.18342" lon="1.37118">
        <ele>180.3</ele>
        <time>2021-11-21T14:39:40Z</time>
      </trkpt>
      <trkpt lat="44.18342" lon="1.37118">
        <ele>180.3</ele>
        <time>2021-11-21T14:39:41Z</time>
      </trkpt>
      <trkpt lat="44.18339" lon="1.37116">
        <ele>180.4</ele>
        <time>2021-11-21T14:39:43Z</time>
      </trkpt>
      <trkpt lat="44.18338" lon="1.37115">
        <ele>180.4</ele>
        <time>2021-11-21T14:39:44Z</time>
      </trkpt>
      <trkpt lat="44.18335" lon="1.37114">
        <ele>180.5</ele>
        <time>2021-11-21T14:39:46Z</time>
      </trkpt>
      <trkpt lat="44.18331" lon="1.37112">
        <ele>180.6</ele>
        <time>2021-11-21T14:39:48Z</time>
      </trkpt>
      <trkpt lat="44.18329" lon="1.37111">
        <ele>180.7</ele>
        <time>2021-11-21T14:39:49Z</time>
      </trkpt>
      <trkpt lat="44.18328" lon="1.37111">
        <ele>180.7</ele>
        <time>2021-11-21T14:39:50Z</time>
      </trkpt>
      <trkpt lat="44.18325" lon="1.37111">
        <ele>180.7</ele>
        <time>2021-11-21T14:39:52Z</time>
      </trkpt>
      <trkpt lat="44.18325" lon="1.37111">
        <ele>180.8</ele>
        <time>2021-11-21T14:39:53Z</time>
      </trkpt>
      <trkpt lat="44.18324" lon="1.37111">
        <ele>180.8</ele>
        <time>2021-11-21T14:39:54Z</time>
      </trkpt>
      <trkpt lat="44.18321" lon="1.37111">
        <ele>180.8</ele>
        <time>2021-11-21T14:39:56Z</time>
      </trkpt>
      <trkpt lat="44.1832" lon="1.37111">
        <ele>180.8</ele>
        <time>2021-11-21T14:39:57Z</time>
      </trkpt>
      <trkpt lat="44.18318" lon="1.37112">
        <ele>180.8</ele>
        <time>2021-11-21T14:39:59Z</time>
      </trkpt>
      <trkpt lat="44.18316" lon="1.37113">
        <ele>180.8</ele>
        <time>2021-11-21T14:40:01Z</time>
      </trkpt>
      <trkpt lat="44.18314" lon="1.37115">
        <ele>180.8</ele>
        <time>2021-11-21T14:40:02Z</time>
      </trkpt>
      <trkpt lat="44.18313" lon="1.37116">
        <ele>180.8</ele>
        <time>2021-11-21T14:40:03Z</time>
      </trkpt>
      <trkpt lat="44.18312" lon="1.37116">
        <ele>180.8</ele>
        <time>2021-11-21T14:40:04Z</time>
      </trkpt>
      <trkpt lat="44.18309" lon="1.37118">
        <ele>180.8</ele>
        <time>2021-11-21T14:40:06Z</time>
      </trkpt>
      <trkpt lat="44.18309" lon="1.37118">
        <ele>180.8</ele>
        <time>2021-11-21T14:40:07Z</time>
      </trkpt>
      <trkpt lat="44.18307" lon="1.37119">
        <ele>180.8</ele>
        <time>2021-11-21T14:40:09Z</time>
      </trkpt>
      <trkpt lat="44.18306" lon="1.37121">
        <ele>180.8</ele>
        <time>2021-11-21T14:40:10Z</time>
      </trkpt>
      <trkpt lat="44.18304" lon="1.37122">
        <ele>180.7</ele>
        <time>2021-11-21T14:40:12Z</time>
      </trkpt>
      <trkpt lat="44.18303" lon="1.37122">
        <ele>180.7</ele>
        <time>2021-11-21T14:40:13Z</time>
      </trkpt>
      <trkpt lat="44.18302" lon="1.37123">
        <ele>180.7</ele>
        <time>2021-11-21T14:40:14Z</time>
      </trkpt>
      <trkpt lat="44.183" lon="1.37124">
        <ele>180.6</ele>
        <time>2021-11-21T14:40:15Z</time>
      </trkpt>
      <trkpt lat="44.18299" lon="1.37124">
        <ele>180.6</ele>
        <time>2021-11-21T14:40:16Z</time>
      </trkpt>
      <trkpt lat="44.18299" lon="1.37124">
        <ele>180.6</ele>
        <time>2021-11-21T14:40:17Z</time>
      </trkpt>
      <trkpt lat="44.18296" lon="1.37123">
        <ele>180.6</ele>
        <time>2021-11-21T14:40:19Z</time>
      </trkpt>
      <trkpt lat="44.18296" lon="1.37123">
        <ele>180.7</ele>
        <time>2021-11-21T14:40:20Z</time>
      </trkpt>
      <trkpt lat="44.18295" lon="1.37123">
        <ele>180.7</ele>
        <time>2021-11-21T14:40:21Z</time>
      </trkpt>
      <trkpt lat="44.18295" lon="1.37122">
        <ele>180.7</ele>
        <time>2021-11-21T14:40:23Z</time>
      </trkpt>
      <trkpt lat="44.18295" lon="1.37122">
        <ele>180.7</ele>
        <time>2021-11-21T14:40:24Z</time>
      </trkpt>
      <trkpt lat="44.18295" lon="1.37122">
        <ele>180.7</ele>
        <time>2021-11-21T14:40:26Z</time>
      </trkpt>
      <trkpt lat="44.18295" lon="1.37122">
        <ele>180.7</ele>
        <time>2021-11-21T14:40:27Z</time>
      </trkpt>
      <trkpt lat="44.18295" lon="1.37121">
        <ele>180.7</ele>
        <time>2021-11-21T14:40:28Z</time>
      </trkpt>
      <trkpt lat="44.18295" lon="1.37121">
        <ele>180.7</ele>
        <time>2021-11-21T14:40:29Z</time>
      </trkpt>
      <trkpt lat="44.18295" lon="1.37121">
        <ele>180.7</ele>
        <time>2021-11-21T14:40:31Z</time>
      </trkpt>
      <trkpt lat="44.18296" lon="1.37121">
        <ele>180.7</ele>
        <time>2021-11-21T14:40:32Z</time>
      </trkpt>
      <trkpt lat="44.18296" lon="1.37121">
        <ele>180.7</ele>
        <time>2021-11-21T14:40:34Z</time>
      </trkpt>
      <trkpt lat="44.18296" lon="1.3712">
        <ele>180.8</ele>
        <time>2021-11-21T14:40:36Z</time>
      </trkpt>
      <trkpt lat="44.18296" lon="1.3712">
        <ele>180.8</ele>
        <time>2021-11-21T14:40:37Z</time>
      </trkpt>
      <trkpt lat="44.18297" lon="1.3712">
        <ele>180.8</ele>
        <time>2021-11-21T14:40:39Z</time>
      </trkpt>
      <trkpt lat="44.18298" lon="1.3712">
        <ele>180.8</ele>
        <time>2021-11-21T14:40:40Z</time>
      </trkpt>
      <trkpt lat="44.18298" lon="1.37119">
        <ele>180.8</ele>
        <time>2021-11-21T14:40:41Z</time>
      </trkpt>
      <trkpt lat="44.18298" lon="1.37119">
        <ele>180.8</ele>
        <time>2021-11-21T14:40:43Z</time>
      </trkpt>
      <trkpt lat="44.18299" lon="1.37119">
        <ele>180.8</ele>
        <time>2021-11-21T14:40:45Z</time>
      </trkpt>
      <trkpt lat="44.18299" lon="1.37119">
        <ele>180.8</ele>
        <time>2021-11-21T14:40:47Z</time>
      </trkpt>
      <trkpt lat="44.18299" lon="1.37119">
        <ele>180.8</ele>
        <time>2021-11-21T14:40:48Z</time>
      </trkpt>
      <trkpt lat="44.183" lon="1.37119">
        <ele>180.8</ele>
        <time>2021-11-21T14:40:49Z</time>
      </trkpt>
      <trkpt lat="44.183" lon="1.37119">
        <ele>180.8</ele>
        <time>2021-11-21T14:40:51Z</time>
      </trkpt>
      <trkpt lat="44.18301" lon="1.37119">
        <ele>180.8</ele>
        <time>2021-11-21T14:40:52Z</time>
      </trkpt>
      <trkpt lat="44.18301" lon="1.37118">
        <ele>180.8</ele>
        <time>2021-11-21T14:40:54Z</time>
      </trkpt>
      <trkpt lat="44.18301" lon="1.37118">
        <ele>180.8</ele>
        <time>2021-11-21T14:40:55Z</time>
      </trkpt>
      <trkpt lat="44.18302" lon="1.37118">
        <ele>180.8</ele>
        <time>2021-11-21T14:40:56Z</time>
      </trkpt>
      <trkpt lat="44.18302" lon="1.37118">
        <ele>180.8</ele>
        <time>2021-11-21T14:40:58Z</time>
      </trkpt>
      <trkpt lat="44.18303" lon="1.37118">
        <ele>180.8</ele>
        <time>2021-11-21T14:40:59Z</time>
      </trkpt>
      <trkpt lat="44.18303" lon="1.37118">
        <ele>180.8</ele>
        <time>2021-11-21T14:41:01Z</time>
      </trkpt>
      <trkpt lat="44.18303" lon="1.37118">
        <ele>180.8</ele>
        <time>2021-11-21T14:41:03Z</time>
      </trkpt>
      <trkpt lat="44.18304" lon="1.37118">
        <ele>180.8</ele>
        <time>2021-11-21T14:41:05Z</time>
      </trkpt>
      <trkpt lat="44.18304" lon="1.37117">
        <ele>180.8</ele>
        <time>2021-11-21T14:41:06Z</time>
      </trkpt>
      <trkpt lat="44.18304" lon="1.37117">
        <ele>180.8</ele>
        <time>2021-11-21T14:41:07Z</time>
      </trkpt>
      <trkpt lat="44.18305" lon="1.37117">
        <ele>180.8</ele>
        <time>2021-11-21T14:41:09Z</time>
      </trkpt>
      <trkpt lat="44.18305" lon="1.37117">
        <ele>180.8</ele>
        <time>2021-11-21T14:41:10Z</time>
      </trkpt>
      <trkpt lat="44.18306" lon="1.37117">
        <ele>180.8</ele>
        <time>2021-11-21T14:41:11Z</time>
      </trkpt>
      <trkpt lat="44.18306" lon="1.37117">
        <ele>180.8</ele>
        <time>2021-11-21T14:41:12Z</time>
      </trkpt>
      <trkpt lat="44.18306" lon="1.37117">
        <ele>180.8</ele>
        <time>2021-11-21T14:41:14Z</time>
      </trkpt>
      <trkpt lat="44.18307" lon="1.37117">
        <ele>180.8</ele>
        <time>2021-11-21T14:41:16Z</time>
      </trkpt>
      <trkpt lat="44.18307" lon="1.37116">
        <ele>180.8</ele>
        <time>2021-11-21T14:41:17Z</time>
      </trkpt>
      <trkpt lat="44.18308" lon="1.37116">
        <ele>180.8</ele>
        <time>2021-11-21T14:41:19Z</time>
      </trkpt>
      <trkpt lat="44.18308" lon="1.37116">
        <ele>180.8</ele>
        <time>2021-11-21T14:41:20Z</time>
      </trkpt>
      <trkpt lat="44.18308" lon="1.37116">
        <ele>180.8</ele>
        <time>2021-11-21T14:41:21Z</time>
      </trkpt>
      <trkpt lat="44.18309" lon="1.37116">
        <ele>180.8</ele>
        <time>2021-11-21T14:41:22Z</time>
      </trkpt>
      <trkpt lat="44.18309" lon="1.37116">
        <ele>180.8</ele>
        <time>2021-11-21T14:41:23Z</time>
      </trkpt>
      <trkpt lat="44.1831" lon="1.37115">
        <ele>180.8</ele>
        <time>2021-11-21T14:41:25Z</time>
      </trkpt>
      <trkpt lat="44.18311" lon="1.37115">
        <ele>180.8</ele>
        <time>2021-11-21T14:41:26Z</time>
      </trkpt>
      <trkpt lat="44.18312" lon="1.37115">
        <ele>180.8</ele>
        <time>2021-11-21T14:41:27Z</time>
      </trkpt>
      <trkpt lat="44.18314" lon="1.37115">
        <ele>180.7</ele>
        <time>2021-11-21T14:41:29Z</time>
      </trkpt>
      <trkpt lat="44.18316" lon="1.37114">
        <ele>180.7</ele>
        <time>2021-11-21T14:41:30Z</time>
      </trkpt>
      <trkpt lat="44.18317" lon="1.37114">
        <ele>180.7</ele>
        <time>2021-11-21T14:41:31Z</time>
      </trkpt>
      <trkpt lat="44.18317" lon="1.37113">
        <ele>180.7</ele>
        <time>2021-11-21T14:41:32Z</time>
      </trkpt>
      <trkpt lat="44.18319" lon="1.37113">
        <ele>180.6</ele>
        <time>2021-11-21T14:41:34Z</time>
      </trkpt>
      <trkpt lat="44.1832" lon="1.37112">
        <ele>180.6</ele>
        <time>2021-11-21T14:41:35Z</time>
      </trkpt>
      <trkpt lat="44.18322" lon="1.37112">
        <ele>180.5</ele>
        <time>2021-11-21T14:41:36Z</time>
      </trkpt>
      <trkpt lat="44.18323" lon="1.37113">
        <ele>180.5</ele>
        <time>2021-11-21T14:41:37Z</time>
      </trkpt>
      <trkpt lat="44.18324" lon="1.37113">
        <ele>180.5</ele>
        <time>2021-11-21T14:41:38Z</time>
      </trkpt>
      <trkpt lat="44.18326" lon="1.37114">
        <ele>180.4</ele>
        <time>2021-11-21T14:41:40Z</time>
      </trkpt>
      <trkpt lat="44.18328" lon="1.37113">
        <ele>180.3</ele>
        <time>2021-11-21T14:41:41Z</time>
      </trkpt>
      <trkpt lat="44.18329" lon="1.37113">
        <ele>180.3</ele>
        <time>2021-11-21T14:41:42Z</time>
      </trkpt>
      <trkpt lat="44.18329" lon="1.37113">
        <ele>180.3</ele>
        <time>2021-11-21T14:41:43Z</time>
      </trkpt>
      <trkpt lat="44.1833" lon="1.37113">
        <ele>180.2</ele>
        <time>2021-11-21T14:41:44Z</time>
      </trkpt>
      <trkpt lat="44.18332" lon="1.37112">
        <ele>180.2</ele>
        <time>2021-11-21T14:41:45Z</time>
      </trkpt>
      <trkpt lat="44.18333" lon="1.37112">
        <ele>180.1</ele>
        <time>2021-11-21T14:41:47Z</time>
      </trkpt>
      <trkpt lat="44.18336" lon="1.37113">
        <ele>180.1</ele>
        <time>2021-11-21T14:41:49Z</time>
      </trkpt>
      <trkpt lat="44.18337" lon="1.37114">
        <ele>180</ele>
        <time>2021-11-21T14:41:50Z</time>
      </trkpt>
      <trkpt lat="44.18338" lon="1.37114">
        <ele>179.9</ele>
        <time>2021-11-21T14:41:51Z</time>
      </trkpt>
      <trkpt lat="44.18339" lon="1.37115">
        <ele>179.9</ele>
        <time>2021-11-21T14:41:52Z</time>
      </trkpt>
      <trkpt lat="44.1834" lon="1.37115">
        <ele>179.9</ele>
        <time>2021-11-21T14:41:53Z</time>
      </trkpt>
      <trkpt lat="44.18341" lon="1.37116">
        <ele>179.8</ele>
        <time>2021-11-21T14:41:54Z</time>
      </trkpt>
      <trkpt lat="44.18343" lon="1.37117">
        <ele>179.8</ele>
        <time>2021-11-21T14:41:56Z</time>
      </trkpt>
      <trkpt lat="44.18344" lon="1.37117">
        <ele>179.7</ele>
        <time>2021-11-21T14:41:57Z</time>
      </trkpt>
      <trkpt lat="44.18346" lon="1.37118">
        <ele>179.7</ele>
        <time>2021-11-21T14:41:58Z</time>
      </trkpt>
      <trkpt lat="44.18346" lon="1.37119">
        <ele>179.7</ele>
        <time>2021-11-21T14:41:59Z</time>
      </trkpt>
      <trkpt lat="44.18347" lon="1.37119">
        <ele>179.7</ele>
        <time>2021-11-21T14:42:00Z</time>
      </trkpt>
      <trkpt lat="44.1835" lon="1.37121">
        <ele>179.7</ele>
        <time>2021-11-21T14:42:01Z</time>
      </trkpt>
      <trkpt lat="44.18351" lon="1.37121">
        <ele>179.7</ele>
        <time>2021-11-21T14:42:03Z</time>
      </trkpt>
      <trkpt lat="44.18352" lon="1.37122">
        <ele>179.7</ele>
        <time>2021-11-21T14:42:04Z</time>
      </trkpt>
      <trkpt lat="44.18353" lon="1.37122">
        <ele>179.7</ele>
        <time>2021-11-21T14:42:05Z</time>
      </trkpt>
      <trkpt lat="44.18353" lon="1.37123">
        <ele>179.7</ele>
        <time>2021-11-21T14:42:06Z</time>
      </trkpt>
      <trkpt lat="44.18354" lon="1.37124">
        <ele>179.7</ele>
        <time>2021-11-21T14:42:07Z</time>
      </trkpt>
      <trkpt lat="44.18355" lon="1.37124">
        <ele>179.7</ele>
        <time>2021-11-21T14:42:09Z</time>
      </trkpt>
      <trkpt lat="44.18357" lon="1.37125">
        <ele>179.7</ele>
        <time>2021-11-21T14:42:10Z</time>
      </trkpt>
      <trkpt lat="44.18358" lon="1.37126">
        <ele>179.7</ele>
        <time>2021-11-21T14:42:11Z</time>
      </trkpt>
      <trkpt lat="44.18359" lon="1.37126">
        <ele>179.7</ele>
        <time>2021-11-21T14:42:12Z</time>
      </trkpt>
      <trkpt lat="44.1836" lon="1.37127">
        <ele>179.7</ele>
        <time>2021-11-21T14:42:14Z</time>
      </trkpt>
      <trkpt lat="44.18361" lon="1.37128">
        <ele>179.7</ele>
        <time>2021-11-21T14:42:15Z</time>
      </trkpt>
      <trkpt lat="44.18362" lon="1.3713">
        <ele>179.7</ele>
        <time>2021-11-21T14:42:16Z</time>
      </trkpt>
      <trkpt lat="44.18363" lon="1.3713">
        <ele>179.7</ele>
        <time>2021-11-21T14:42:18Z</time>
      </trkpt>
      <trkpt lat="44.18363" lon="1.37131">
        <ele>179.7</ele>
        <time>2021-11-21T14:42:19Z</time>
      </trkpt>
      <trkpt lat="44.18364" lon="1.37132">
        <ele>179.7</ele>
        <time>2021-11-21T14:42:20Z</time>
      </trkpt>
      <trkpt lat="44.18366" lon="1.37133">
        <ele>179.7</ele>
        <time>2021-11-21T14:42:21Z</time>
      </trkpt>
      <trkpt lat="44.18366" lon="1.37133">
        <ele>179.7</ele>
        <time>2021-11-21T14:42:22Z</time>
      </trkpt>
      <trkpt lat="44.18367" lon="1.37134">
        <ele>179.7</ele>
        <time>2021-11-21T14:42:24Z</time>
      </trkpt>
      <trkpt lat="44.18368" lon="1.37135">
        <ele>179.8</ele>
        <time>2021-11-21T14:42:25Z</time>
      </trkpt>
      <trkpt lat="44.18369" lon="1.37135">
        <ele>179.8</ele>
        <time>2021-11-21T14:42:26Z</time>
      </trkpt>
      <trkpt lat="44.1837" lon="1.37136">
        <ele>179.8</ele>
        <time>2021-11-21T14:42:27Z</time>
      </trkpt>
      <trkpt lat="44.18371" lon="1.37136">
        <ele>179.8</ele>
        <time>2021-11-21T14:42:29Z</time>
      </trkpt>
      <trkpt lat="44.18372" lon="1.37137">
        <ele>179.8</ele>
        <time>2021-11-21T14:42:30Z</time>
      </trkpt>
      <trkpt lat="44.18374" lon="1.37138">
        <ele>179.8</ele>
        <time>2021-11-21T14:42:31Z</time>
      </trkpt>
      <trkpt lat="44.18374" lon="1.37138">
        <ele>179.8</ele>
        <time>2021-11-21T14:42:32Z</time>
      </trkpt>
      <trkpt lat="44.18375" lon="1.37139">
        <ele>179.8</ele>
        <time>2021-11-21T14:42:33Z</time>
      </trkpt>
      <trkpt lat="44.18376" lon="1.3714">
        <ele>179.8</ele>
        <time>2021-11-21T14:42:34Z</time>
      </trkpt>
      <trkpt lat="44.18378" lon="1.37141">
        <ele>179.8</ele>
        <time>2021-11-21T14:42:36Z</time>
      </trkpt>
      <trkpt lat="44.18378" lon="1.37141">
        <ele>179.8</ele>
        <time>2021-11-21T14:42:37Z</time>
      </trkpt>
      <trkpt lat="44.18379" lon="1.37142">
        <ele>179.8</ele>
        <time>2021-11-21T14:42:38Z</time>
      </trkpt>
      <trkpt lat="44.18381" lon="1.37143">
        <ele>179.8</ele>
        <time>2021-11-21T14:42:39Z</time>
      </trkpt>
      <trkpt lat="44.18382" lon="1.37143">
        <ele>179.9</ele>
        <time>2021-11-21T14:42:40Z</time>
      </trkpt>
      <trkpt lat="44.18383" lon="1.37144">
        <ele>179.9</ele>
        <time>2021-11-21T14:42:41Z</time>
      </trkpt>
      <trkpt lat="44.18385" lon="1.37145">
        <ele>179.9</ele>
        <time>2021-11-21T14:42:43Z</time>
      </trkpt>
      <trkpt lat="44.18386" lon="1.37146">
        <ele>179.9</ele>
        <time>2021-11-21T14:42:44Z</time>
      </trkpt>
      <trkpt lat="44.18387" lon="1.37146">
        <ele>179.9</ele>
        <time>2021-11-21T14:42:45Z</time>
      </trkpt>
      <trkpt lat="44.18388" lon="1.37148">
        <ele>179.9</ele>
        <time>2021-11-21T14:42:46Z</time>
      </trkpt>
      <trkpt lat="44.18389" lon="1.37149">
        <ele>179.9</ele>
        <time>2021-11-21T14:42:47Z</time>
      </trkpt>
      <trkpt lat="44.18391" lon="1.37151">
        <ele>180</ele>
        <time>2021-11-21T14:42:48Z</time>
      </trkpt>
      <trkpt lat="44.18392" lon="1.37152">
        <ele>180</ele>
        <time>2021-11-21T14:42:50Z</time>
      </trkpt>
      <trkpt lat="44.18393" lon="1.37152">
        <ele>180</ele>
        <time>2021-11-21T14:42:51Z</time>
      </trkpt>
      <trkpt lat="44.18394" lon="1.37153">
        <ele>180</ele>
        <time>2021-11-21T14:42:52Z</time>
      </trkpt>
      <trkpt lat="44.18395" lon="1.37154">
        <ele>180</ele>
        <time>2021-11-21T14:42:53Z</time>
      </trkpt>
      <trkpt lat="44.18396" lon="1.37155">
        <ele>180</ele>
        <time>2021-11-21T14:42:54Z</time>
      </trkpt>
      <trkpt lat="44.18397" lon="1.37157">
        <ele>180.1</ele>
        <time>2021-11-21T14:42:56Z</time>
      </trkpt>
      <trkpt lat="44.18399" lon="1.37159">
        <ele>180.1</ele>
        <time>2021-11-21T14:42:58Z</time>
      </trkpt>
      <trkpt lat="44.184" lon="1.3716">
        <ele>180.1</ele>
        <time>2021-11-21T14:42:59Z</time>
      </trkpt>
      <trkpt lat="44.18401" lon="1.37161">
        <ele>180.1</ele>
        <time>2021-11-21T14:43:00Z</time>
      </trkpt>
      <trkpt lat="44.18403" lon="1.37162">
        <ele>180.1</ele>
        <time>2021-11-21T14:43:01Z</time>
      </trkpt>
      <trkpt lat="44.18404" lon="1.37164">
        <ele>180.2</ele>
        <time>2021-11-21T14:43:03Z</time>
      </trkpt>
      <trkpt lat="44.18405" lon="1.37164">
        <ele>180.2</ele>
        <time>2021-11-21T14:43:04Z</time>
      </trkpt>
      <trkpt lat="44.18406" lon="1.37165">
        <ele>180.2</ele>
        <time>2021-11-21T14:43:05Z</time>
      </trkpt>
      <trkpt lat="44.18408" lon="1.37166">
        <ele>180.2</ele>
        <time>2021-11-21T14:43:06Z</time>
      </trkpt>
      <trkpt lat="44.18408" lon="1.37167">
        <ele>180.2</ele>
        <time>2021-11-21T14:43:07Z</time>
      </trkpt>
      <trkpt lat="44.18411" lon="1.37168">
        <ele>180.3</ele>
        <time>2021-11-21T14:43:08Z</time>
      </trkpt>
      <trkpt lat="44.18412" lon="1.37169">
        <ele>180.3</ele>
        <time>2021-11-21T14:43:10Z</time>
      </trkpt>
      <trkpt lat="44.18413" lon="1.3717">
        <ele>180.3</ele>
        <time>2021-11-21T14:43:11Z</time>
      </trkpt>
      <trkpt lat="44.18415" lon="1.37171">
        <ele>180.3</ele>
        <time>2021-11-21T14:43:12Z</time>
      </trkpt>
      <trkpt lat="44.18415" lon="1.37171">
        <ele>180.3</ele>
        <time>2021-11-21T14:43:14Z</time>
      </trkpt>
      <trkpt lat="44.18416" lon="1.37172">
        <ele>180.4</ele>
        <time>2021-11-21T14:43:15Z</time>
      </trkpt>
      <trkpt lat="44.18417" lon="1.37173">
        <ele>180.4</ele>
        <time>2021-11-21T14:43:16Z</time>
      </trkpt>
      <trkpt lat="44.18419" lon="1.37174">
        <ele>180.4</ele>
        <time>2021-11-21T14:43:17Z</time>
      </trkpt>
      <trkpt lat="44.1842" lon="1.37175">
        <ele>180.4</ele>
        <time>2021-11-21T14:43:18Z</time>
      </trkpt>
      <trkpt lat="44.18421" lon="1.37175">
        <ele>180.4</ele>
        <time>2021-11-21T14:43:19Z</time>
      </trkpt>
      <trkpt lat="44.18422" lon="1.37176">
        <ele>180.5</ele>
        <time>2021-11-21T14:43:21Z</time>
      </trkpt>
      <trkpt lat="44.18423" lon="1.37176">
        <ele>180.5</ele>
        <time>2021-11-21T14:43:22Z</time>
      </trkpt>
      <trkpt lat="44.18424" lon="1.37177">
        <ele>180.5</ele>
        <time>2021-11-21T14:43:23Z</time>
      </trkpt>
      <trkpt lat="44.18425" lon="1.37177">
        <ele>180.5</ele>
        <time>2021-11-21T14:43:24Z</time>
      </trkpt>
      <trkpt lat="44.18426" lon="1.37178">
        <ele>180.5</ele>
        <time>2021-11-21T14:43:25Z</time>
      </trkpt>
      <trkpt lat="44.18428" lon="1.37179">
        <ele>180.5</ele>
        <time>2021-11-21T14:43:26Z</time>
      </trkpt>
      <trkpt lat="44.18429" lon="1.37179">
        <ele>180.6</ele>
        <time>2021-11-21T14:43:28Z</time>
      </trkpt>
      <trkpt lat="44.1843" lon="1.3718">
        <ele>180.6</ele>
        <time>2021-11-21T14:43:29Z</time>
      </trkpt>
      <trkpt lat="44.18431" lon="1.3718">
        <ele>180.6</ele>
        <time>2021-11-21T14:43:30Z</time>
      </trkpt>
      <trkpt lat="44.18433" lon="1.37181">
        <ele>180.6</ele>
        <time>2021-11-21T14:43:31Z</time>
      </trkpt>
      <trkpt lat="44.18434" lon="1.37181">
        <ele>180.6</ele>
        <time>2021-11-21T14:43:32Z</time>
      </trkpt>
      <trkpt lat="44.18434" lon="1.37181">
        <ele>180.6</ele>
        <time>2021-11-21T14:43:33Z</time>
      </trkpt>
      <trkpt lat="44.18436" lon="1.37182">
        <ele>180.7</ele>
        <time>2021-11-21T14:43:35Z</time>
      </trkpt>
      <trkpt lat="44.18437" lon="1.37182">
        <ele>180.7</ele>
        <time>2021-11-21T14:43:36Z</time>
      </trkpt>
      <trkpt lat="44.18438" lon="1.37182">
        <ele>180.7</ele>
        <time>2021-11-21T14:43:37Z</time>
      </trkpt>
      <trkpt lat="44.18439" lon="1.37183">
        <ele>180.7</ele>
        <time>2021-11-21T14:43:38Z</time>
      </trkpt>
      <trkpt lat="44.1844" lon="1.37183">
        <ele>180.7</ele>
        <time>2021-11-21T14:43:39Z</time>
      </trkpt>
      <trkpt lat="44.18441" lon="1.37184">
        <ele>180.7</ele>
        <time>2021-11-21T14:43:41Z</time>
      </trkpt>
      <trkpt lat="44.18442" lon="1.37184">
        <ele>180.7</ele>
        <time>2021-11-21T14:43:42Z</time>
      </trkpt>
      <trkpt lat="44.18443" lon="1.37184">
        <ele>180.7</ele>
        <time>2021-11-21T14:43:43Z</time>
      </trkpt>
      <trkpt lat="44.18444" lon="1.37185">
        <ele>180.7</ele>
        <time>2021-11-21T14:43:44Z</time>
      </trkpt>
      <trkpt lat="44.18445" lon="1.37185">
        <ele>180.7</ele>
        <time>2021-11-21T14:43:45Z</time>
      </trkpt>
      <trkpt lat="44.18446" lon="1.37185">
        <ele>180.6</ele>
        <time>2021-11-21T14:43:46Z</time>
      </trkpt>
      <trkpt lat="44.18447" lon="1.37186">
        <ele>180.6</ele>
        <time>2021-11-21T14:43:48Z</time>
      </trkpt>
      <trkpt lat="44.18448" lon="1.37187">
        <ele>180.6</ele>
        <time>2021-11-21T14:43:49Z</time>
      </trkpt>
      <trkpt lat="44.18449" lon="1.37188">
        <ele>180.6</ele>
        <time>2021-11-21T14:43:50Z</time>
      </trkpt>
      <trkpt lat="44.1845" lon="1.37188">
        <ele>180.6</ele>
        <time>2021-11-21T14:43:51Z</time>
      </trkpt>
      <trkpt lat="44.18451" lon="1.37189">
        <ele>180.5</ele>
        <time>2021-11-21T14:43:52Z</time>
      </trkpt>
      <trkpt lat="44.18452" lon="1.37189">
        <ele>180.5</ele>
        <time>2021-11-21T14:43:53Z</time>
      </trkpt>
      <trkpt lat="44.18453" lon="1.3719">
        <ele>180.5</ele>
        <time>2021-11-21T14:43:55Z</time>
      </trkpt>
      <trkpt lat="44.18455" lon="1.37191">
        <ele>180.4</ele>
        <time>2021-11-21T14:43:56Z</time>
      </trkpt>
      <trkpt lat="44.18456" lon="1.37192">
        <ele>180.4</ele>
        <time>2021-11-21T14:43:57Z</time>
      </trkpt>
      <trkpt lat="44.18457" lon="1.37193">
        <ele>180.3</ele>
        <time>2021-11-21T14:43:58Z</time>
      </trkpt>
      <trkpt lat="44.18458" lon="1.37194">
        <ele>180.3</ele>
        <time>2021-11-21T14:43:59Z</time>
      </trkpt>
      <trkpt lat="44.18459" lon="1.37195">
        <ele>180.2</ele>
        <time>2021-11-21T14:44:00Z</time>
      </trkpt>
      <trkpt lat="44.18461" lon="1.37196">
        <ele>180.1</ele>
        <time>2021-11-21T14:44:02Z</time>
      </trkpt>
      <trkpt lat="44.18461" lon="1.37196">
        <ele>180.1</ele>
        <time>2021-11-21T14:44:03Z</time>
      </trkpt>
      <trkpt lat="44.18462" lon="1.37197">
        <ele>180</ele>
        <time>2021-11-21T14:44:04Z</time>
      </trkpt>
      <trkpt lat="44.18463" lon="1.37198">
        <ele>180</ele>
        <time>2021-11-21T14:44:05Z</time>
      </trkpt>
      <trkpt lat="44.18465" lon="1.37198">
        <ele>179.9</ele>
        <time>2021-11-21T14:44:06Z</time>
      </trkpt>
      <trkpt lat="44.18466" lon="1.37199">
        <ele>179.8</ele>
        <time>2021-11-21T14:44:08Z</time>
      </trkpt>
      <trkpt lat="44.18468" lon="1.372">
        <ele>179.7</ele>
        <time>2021-11-21T14:44:09Z</time>
      </trkpt>
      <trkpt lat="44.18469" lon="1.372">
        <ele>179.6</ele>
        <time>2021-11-21T14:44:10Z</time>
      </trkpt>
      <trkpt lat="44.18471" lon="1.37201">
        <ele>179.4</ele>
        <time>2021-11-21T14:44:12Z</time>
      </trkpt>
      <trkpt lat="44.18472" lon="1.37201">
        <ele>179.3</ele>
        <time>2021-11-21T14:44:13Z</time>
      </trkpt>
      <trkpt lat="44.18473" lon="1.37201">
        <ele>179.2</ele>
        <time>2021-11-21T14:44:14Z</time>
      </trkpt>
      <trkpt lat="44.18474" lon="1.37202">
        <ele>179.1</ele>
        <time>2021-11-21T14:44:15Z</time>
      </trkpt>
      <trkpt lat="44.18475" lon="1.37202">
        <ele>179</ele>
        <time>2021-11-21T14:44:17Z</time>
      </trkpt>
      <trkpt lat="44.18477" lon="1.37202">
        <ele>178.9</ele>
        <time>2021-11-21T14:44:18Z</time>
      </trkpt>
      <trkpt lat="44.18477" lon="1.37202">
        <ele>178.8</ele>
        <time>2021-11-21T14:44:19Z</time>
      </trkpt>
      <trkpt lat="44.18478" lon="1.37203">
        <ele>178.8</ele>
        <time>2021-11-21T14:44:20Z</time>
      </trkpt>
      <trkpt lat="44.18479" lon="1.37203">
        <ele>178.8</ele>
        <time>2021-11-21T14:44:21Z</time>
      </trkpt>
      <trkpt lat="44.18481" lon="1.37204">
        <ele>178.8</ele>
        <time>2021-11-21T14:44:23Z</time>
      </trkpt>
      <trkpt lat="44.18482" lon="1.37205">
        <ele>178.8</ele>
        <time>2021-11-21T14:44:24Z</time>
      </trkpt>
      <trkpt lat="44.18482" lon="1.37206">
        <ele>178.7</ele>
        <time>2021-11-21T14:44:25Z</time>
      </trkpt>
      <trkpt lat="44.18483" lon="1.37207">
        <ele>178.7</ele>
        <time>2021-11-21T14:44:26Z</time>
      </trkpt>
      <trkpt lat="44.18485" lon="1.37208">
        <ele>178.7</ele>
        <time>2021-11-21T14:44:28Z</time>
      </trkpt>
      <trkpt lat="44.18486" lon="1.37209">
        <ele>178.7</ele>
        <time>2021-11-21T14:44:29Z</time>
      </trkpt>
      <trkpt lat="44.18487" lon="1.3721">
        <ele>178.6</ele>
        <time>2021-11-21T14:44:31Z</time>
      </trkpt>
      <trkpt lat="44.18489" lon="1.3721">
        <ele>178.6</ele>
        <time>2021-11-21T14:44:33Z</time>
      </trkpt>
      <trkpt lat="44.18489" lon="1.3721">
        <ele>178.6</ele>
        <time>2021-11-21T14:44:35Z</time>
      </trkpt>
      <trkpt lat="44.18488" lon="1.37209">
        <ele>178.6</ele>
        <time>2021-11-21T14:44:37Z</time>
      </trkpt>
      <trkpt lat="44.18488" lon="1.37209">
        <ele>178.6</ele>
        <time>2021-11-21T14:44:38Z</time>
      </trkpt>
      <trkpt lat="44.18488" lon="1.37209">
        <ele>178.6</ele>
        <time>2021-11-21T14:44:39Z</time>
      </trkpt>
      <trkpt lat="44.18488" lon="1.3721">
        <ele>178.6</ele>
        <time>2021-11-21T14:44:41Z</time>
      </trkpt>
      <trkpt lat="44.18487" lon="1.3721">
        <ele>178.6</ele>
        <time>2021-11-21T14:44:42Z</time>
      </trkpt>
      <trkpt lat="44.18487" lon="1.37211">
        <ele>178.6</ele>
        <time>2021-11-21T14:44:43Z</time>
      </trkpt>
      <trkpt lat="44.18487" lon="1.37211">
        <ele>178.6</ele>
        <time>2021-11-21T14:44:44Z</time>
      </trkpt>
      <trkpt lat="44.18487" lon="1.37212">
        <ele>178.6</ele>
        <time>2021-11-21T14:44:46Z</time>
      </trkpt>
      <trkpt lat="44.18487" lon="1.37213">
        <ele>178.6</ele>
        <time>2021-11-21T14:44:47Z</time>
      </trkpt>
      <trkpt lat="44.18487" lon="1.37213">
        <ele>178.6</ele>
        <time>2021-11-21T14:44:48Z</time>
      </trkpt>
      <trkpt lat="44.18489" lon="1.37214">
        <ele>178.5</ele>
        <time>2021-11-21T14:44:50Z</time>
      </trkpt>
      <trkpt lat="44.1849" lon="1.37214">
        <ele>178.5</ele>
        <time>2021-11-21T14:44:51Z</time>
      </trkpt>
      <trkpt lat="44.18491" lon="1.37214">
        <ele>178.5</ele>
        <time>2021-11-21T14:44:52Z</time>
      </trkpt>
      <trkpt lat="44.18493" lon="1.37215">
        <ele>178.5</ele>
        <time>2021-11-21T14:44:54Z</time>
      </trkpt>
      <trkpt lat="44.18495" lon="1.37216">
        <ele>178.5</ele>
        <time>2021-11-21T14:44:55Z</time>
      </trkpt>
      <trkpt lat="44.18496" lon="1.37217">
        <ele>178.5</ele>
        <time>2021-11-21T14:44:56Z</time>
      </trkpt>
      <trkpt lat="44.18497" lon="1.37218">
        <ele>178.5</ele>
        <time>2021-11-21T14:44:58Z</time>
      </trkpt>
      <trkpt lat="44.18499" lon="1.37219">
        <ele>178.5</ele>
        <time>2021-11-21T14:44:59Z</time>
      </trkpt>
      <trkpt lat="44.185" lon="1.3722">
        <ele>178.5</ele>
        <time>2021-11-21T14:45:00Z</time>
      </trkpt>
      <trkpt lat="44.18501" lon="1.37221">
        <ele>178.4</ele>
        <time>2021-11-21T14:45:02Z</time>
      </trkpt>
      <trkpt lat="44.18503" lon="1.37222">
        <ele>178.4</ele>
        <time>2021-11-21T14:45:03Z</time>
      </trkpt>
      <trkpt lat="44.18504" lon="1.37223">
        <ele>178.4</ele>
        <time>2021-11-21T14:45:04Z</time>
      </trkpt>
      <trkpt lat="44.18505" lon="1.37224">
        <ele>178.4</ele>
        <time>2021-11-21T14:45:05Z</time>
      </trkpt>
      <trkpt lat="44.18506" lon="1.37225">
        <ele>178.4</ele>
        <time>2021-11-21T14:45:07Z</time>
      </trkpt>
      <trkpt lat="44.1851" lon="1.37229">
        <ele>178.4</ele>
        <time>2021-11-21T14:45:08Z</time>
      </trkpt>
      <trkpt lat="44.18511" lon="1.37229">
        <ele>178.4</ele>
        <time>2021-11-21T14:45:09Z</time>
      </trkpt>
      <trkpt lat="44.18512" lon="1.3723">
        <ele>178.4</ele>
        <time>2021-11-21T14:45:10Z</time>
      </trkpt>
      <trkpt lat="44.18512" lon="1.3723">
        <ele>178.4</ele>
        <time>2021-11-21T14:45:11Z</time>
      </trkpt>
      <trkpt lat="44.18513" lon="1.37231">
        <ele>178.4</ele>
        <time>2021-11-21T14:45:12Z</time>
      </trkpt>
      <trkpt lat="44.18514" lon="1.37232">
        <ele>178.4</ele>
        <time>2021-11-21T14:45:13Z</time>
      </trkpt>
      <trkpt lat="44.18515" lon="1.37233">
        <ele>178.4</ele>
        <time>2021-11-21T14:45:15Z</time>
      </trkpt>
      <trkpt lat="44.18516" lon="1.37234">
        <ele>178.4</ele>
        <time>2021-11-21T14:45:16Z</time>
      </trkpt>
      <trkpt lat="44.18517" lon="1.37235">
        <ele>178.4</ele>
        <time>2021-11-21T14:45:17Z</time>
      </trkpt>
      <trkpt lat="44.18519" lon="1.37236">
        <ele>178.4</ele>
        <time>2021-11-21T14:45:19Z</time>
      </trkpt>
      <trkpt lat="44.18521" lon="1.37236">
        <ele>178.4</ele>
        <time>2021-11-21T14:45:20Z</time>
      </trkpt>
      <trkpt lat="44.18522" lon="1.37236">
        <ele>178.4</ele>
        <time>2021-11-21T14:45:21Z</time>
      </trkpt>
      <trkpt lat="44.18523" lon="1.37236">
        <ele>178.4</ele>
        <time>2021-11-21T14:45:22Z</time>
      </trkpt>
      <trkpt lat="44.18525" lon="1.37238">
        <ele>178.3</ele>
        <time>2021-11-21T14:45:24Z</time>
      </trkpt>
      <trkpt lat="44.18526" lon="1.37238">
        <ele>178.3</ele>
        <time>2021-11-21T14:45:25Z</time>
      </trkpt>
      <trkpt lat="44.18526" lon="1.37239">
        <ele>178.3</ele>
        <time>2021-11-21T14:45:26Z</time>
      </trkpt>
      <trkpt lat="44.18528" lon="1.3724">
        <ele>178.3</ele>
        <time>2021-11-21T14:45:28Z</time>
      </trkpt>
      <trkpt lat="44.18529" lon="1.37241">
        <ele>178.2</ele>
        <time>2021-11-21T14:45:29Z</time>
      </trkpt>
      <trkpt lat="44.18529" lon="1.37242">
        <ele>178.2</ele>
        <time>2021-11-21T14:45:30Z</time>
      </trkpt>
      <trkpt lat="44.18531" lon="1.37242">
        <ele>178.2</ele>
        <time>2021-11-21T14:45:32Z</time>
      </trkpt>
      <trkpt lat="44.18532" lon="1.37243">
        <ele>178.2</ele>
        <time>2021-11-21T14:45:33Z</time>
      </trkpt>
      <trkpt lat="44.18533" lon="1.37244">
        <ele>178.1</ele>
        <time>2021-11-21T14:45:34Z</time>
      </trkpt>
      <trkpt lat="44.18535" lon="1.37246">
        <ele>178</ele>
        <time>2021-11-21T14:45:36Z</time>
      </trkpt>
      <trkpt lat="44.18536" lon="1.37246">
        <ele>178</ele>
        <time>2021-11-21T14:45:37Z</time>
      </trkpt>
      <trkpt lat="44.18537" lon="1.37247">
        <ele>178</ele>
        <time>2021-11-21T14:45:38Z</time>
      </trkpt>
      <trkpt lat="44.18538" lon="1.37248">
        <ele>178</ele>
        <time>2021-11-21T14:45:40Z</time>
      </trkpt>
      <trkpt lat="44.18539" lon="1.37249">
        <ele>177.9</ele>
        <time>2021-11-21T14:45:41Z</time>
      </trkpt>
      <trkpt lat="44.1854" lon="1.3725">
        <ele>177.9</ele>
        <time>2021-11-21T14:45:42Z</time>
      </trkpt>
      <trkpt lat="44.18542" lon="1.37251">
        <ele>177.9</ele>
        <time>2021-11-21T14:45:43Z</time>
      </trkpt>
      <trkpt lat="44.18543" lon="1.37252">
        <ele>177.8</ele>
        <time>2021-11-21T14:45:44Z</time>
      </trkpt>
      <trkpt lat="44.18544" lon="1.37253">
        <ele>177.8</ele>
        <time>2021-11-21T14:45:46Z</time>
      </trkpt>
      <trkpt lat="44.18545" lon="1.37253">
        <ele>177.8</ele>
        <time>2021-11-21T14:45:47Z</time>
      </trkpt>
      <trkpt lat="44.18546" lon="1.37255">
        <ele>177.7</ele>
        <time>2021-11-21T14:45:48Z</time>
      </trkpt>
      <trkpt lat="44.18547" lon="1.37256">
        <ele>177.7</ele>
        <time>2021-11-21T14:45:49Z</time>
      </trkpt>
      <trkpt lat="44.18549" lon="1.37257">
        <ele>177.7</ele>
        <time>2021-11-21T14:45:51Z</time>
      </trkpt>
      <trkpt lat="44.1855" lon="1.37258">
        <ele>177.7</ele>
        <time>2021-11-21T14:45:54Z</time>
      </trkpt>
      <trkpt lat="44.18551" lon="1.37259">
        <ele>177.7</ele>
        <time>2021-11-21T14:45:55Z</time>
      </trkpt>
      <trkpt lat="44.18553" lon="1.3726">
        <ele>177.7</ele>
        <time>2021-11-21T14:45:57Z</time>
      </trkpt>
      <trkpt lat="44.18554" lon="1.37261">
        <ele>177.7</ele>
        <time>2021-11-21T14:45:58Z</time>
      </trkpt>
      <trkpt lat="44.18555" lon="1.37261">
        <ele>177.7</ele>
        <time>2021-11-21T14:45:59Z</time>
      </trkpt>
      <trkpt lat="44.18556" lon="1.37262">
        <ele>177.7</ele>
        <time>2021-11-21T14:46:00Z</time>
      </trkpt>
      <trkpt lat="44.18558" lon="1.37263">
        <ele>177.7</ele>
        <time>2021-11-21T14:46:01Z</time>
      </trkpt>
      <trkpt lat="44.18559" lon="1.37263">
        <ele>177.6</ele>
        <time>2021-11-21T14:46:03Z</time>
      </trkpt>
      <trkpt lat="44.18561" lon="1.37264">
        <ele>177.6</ele>
        <time>2021-11-21T14:46:04Z</time>
      </trkpt>
      <trkpt lat="44.18562" lon="1.37264">
        <ele>177.6</ele>
        <time>2021-11-21T14:46:05Z</time>
      </trkpt>
      <trkpt lat="44.18563" lon="1.37264">
        <ele>177.6</ele>
        <time>2021-11-21T14:46:06Z</time>
      </trkpt>
      <trkpt lat="44.18564" lon="1.37265">
        <ele>177.6</ele>
        <time>2021-11-21T14:46:07Z</time>
      </trkpt>
      <trkpt lat="44.18566" lon="1.37265">
        <ele>177.6</ele>
        <time>2021-11-21T14:46:08Z</time>
      </trkpt>
      <trkpt lat="44.18567" lon="1.37264">
        <ele>177.5</ele>
        <time>2021-11-21T14:46:10Z</time>
      </trkpt>
      <trkpt lat="44.18568" lon="1.37264">
        <ele>177.5</ele>
        <time>2021-11-21T14:46:11Z</time>
      </trkpt>
      <trkpt lat="44.18569" lon="1.37264">
        <ele>177.5</ele>
        <time>2021-11-21T14:46:12Z</time>
      </trkpt>
      <trkpt lat="44.1857" lon="1.37264">
        <ele>177.5</ele>
        <time>2021-11-21T14:46:13Z</time>
      </trkpt>
      <trkpt lat="44.18571" lon="1.37264">
        <ele>177.5</ele>
        <time>2021-11-21T14:46:14Z</time>
      </trkpt>
      <trkpt lat="44.18572" lon="1.37263">
        <ele>177.5</ele>
        <time>2021-11-21T14:46:15Z</time>
      </trkpt>
      <trkpt lat="44.18574" lon="1.37263">
        <ele>177.4</ele>
        <time>2021-11-21T14:46:17Z</time>
      </trkpt>
      <trkpt lat="44.18575" lon="1.37262">
        <ele>177.4</ele>
        <time>2021-11-21T14:46:18Z</time>
      </trkpt>
      <trkpt lat="44.18576" lon="1.37262">
        <ele>177.4</ele>
        <time>2021-11-21T14:46:19Z</time>
      </trkpt>
      <trkpt lat="44.18577" lon="1.37262">
        <ele>177.4</ele>
        <time>2021-11-21T14:46:20Z</time>
      </trkpt>
      <trkpt lat="44.18578" lon="1.37261">
        <ele>177.4</ele>
        <time>2021-11-21T14:46:21Z</time>
      </trkpt>
      <trkpt lat="44.18579" lon="1.37261">
        <ele>177.3</ele>
        <time>2021-11-21T14:46:22Z</time>
      </trkpt>
      <trkpt lat="44.1858" lon="1.3726">
        <ele>177.3</ele>
        <time>2021-11-21T14:46:24Z</time>
      </trkpt>
      <trkpt lat="44.18581" lon="1.3726">
        <ele>177.3</ele>
        <time>2021-11-21T14:46:25Z</time>
      </trkpt>
      <trkpt lat="44.18582" lon="1.3726">
        <ele>177.3</ele>
        <time>2021-11-21T14:46:26Z</time>
      </trkpt>
      <trkpt lat="44.18583" lon="1.3726">
        <ele>177.3</ele>
        <time>2021-11-21T14:46:27Z</time>
      </trkpt>
      <trkpt lat="44.18585" lon="1.3726">
        <ele>177.3</ele>
        <time>2021-11-21T14:46:28Z</time>
      </trkpt>
      <trkpt lat="44.18586" lon="1.3726">
        <ele>177.3</ele>
        <time>2021-11-21T14:46:29Z</time>
      </trkpt>
      <trkpt lat="44.18588" lon="1.37261">
        <ele>177.3</ele>
        <time>2021-11-21T14:46:31Z</time>
      </trkpt>
      <trkpt lat="44.18589" lon="1.37261">
        <ele>177.3</ele>
        <time>2021-11-21T14:46:32Z</time>
      </trkpt>
      <trkpt lat="44.1859" lon="1.37261">
        <ele>177.3</ele>
        <time>2021-11-21T14:46:33Z</time>
      </trkpt>
      <trkpt lat="44.18591" lon="1.37261">
        <ele>177.3</ele>
        <time>2021-11-21T14:46:34Z</time>
      </trkpt>
      <trkpt lat="44.18592" lon="1.37261">
        <ele>177.3</ele>
        <time>2021-11-21T14:46:35Z</time>
      </trkpt>
      <trkpt lat="44.18593" lon="1.37261">
        <ele>177.3</ele>
        <time>2021-11-21T14:46:36Z</time>
      </trkpt>
      <trkpt lat="44.18595" lon="1.37261">
        <ele>177.3</ele>
        <time>2021-11-21T14:46:37Z</time>
      </trkpt>
      <trkpt lat="44.18596" lon="1.37261">
        <ele>177.3</ele>
        <time>2021-11-21T14:46:39Z</time>
      </trkpt>
      <trkpt lat="44.18597" lon="1.37261">
        <ele>177.3</ele>
        <time>2021-11-21T14:46:40Z</time>
      </trkpt>
      <trkpt lat="44.18598" lon="1.3726">
        <ele>177.3</ele>
        <time>2021-11-21T14:46:41Z</time>
      </trkpt>
      <trkpt lat="44.18599" lon="1.3726">
        <ele>177.3</ele>
        <time>2021-11-21T14:46:42Z</time>
      </trkpt>
      <trkpt lat="44.186" lon="1.3726">
        <ele>177.3</ele>
        <time>2021-11-21T14:46:43Z</time>
      </trkpt>
      <trkpt lat="44.18601" lon="1.37261">
        <ele>177.3</ele>
        <time>2021-11-21T14:46:44Z</time>
      </trkpt>
      <trkpt lat="44.18602" lon="1.37261">
        <ele>177.3</ele>
        <time>2021-11-21T14:46:46Z</time>
      </trkpt>
      <trkpt lat="44.18604" lon="1.37262">
        <ele>177.3</ele>
        <time>2021-11-21T14:46:47Z</time>
      </trkpt>
      <trkpt lat="44.18605" lon="1.37263">
        <ele>177.3</ele>
        <time>2021-11-21T14:46:48Z</time>
      </trkpt>
      <trkpt lat="44.18606" lon="1.37263">
        <ele>177.3</ele>
        <time>2021-11-21T14:46:49Z</time>
      </trkpt>
      <trkpt lat="44.18607" lon="1.37264">
        <ele>177.3</ele>
        <time>2021-11-21T14:46:50Z</time>
      </trkpt>
      <trkpt lat="44.18608" lon="1.37264">
        <ele>177.3</ele>
        <time>2021-11-21T14:46:51Z</time>
      </trkpt>
      <trkpt lat="44.18609" lon="1.37265">
        <ele>177.3</ele>
        <time>2021-11-21T14:46:53Z</time>
      </trkpt>
      <trkpt lat="44.1861" lon="1.37265">
        <ele>177.3</ele>
        <time>2021-11-21T14:46:54Z</time>
      </trkpt>
      <trkpt lat="44.18611" lon="1.37265">
        <ele>177.4</ele>
        <time>2021-11-21T14:46:55Z</time>
      </trkpt>
      <trkpt lat="44.18612" lon="1.37265">
        <ele>177.4</ele>
        <time>2021-11-21T14:46:56Z</time>
      </trkpt>
      <trkpt lat="44.18613" lon="1.37264">
        <ele>177.4</ele>
        <time>2021-11-21T14:46:58Z</time>
      </trkpt>
      <trkpt lat="44.18613" lon="1.37264">
        <ele>177.4</ele>
        <time>2021-11-21T14:46:59Z</time>
      </trkpt>
      <trkpt lat="44.18613" lon="1.37264">
        <ele>177.4</ele>
        <time>2021-11-21T14:47:00Z</time>
      </trkpt>
      <trkpt lat="44.18613" lon="1.37263">
        <ele>177.4</ele>
        <time>2021-11-21T14:47:02Z</time>
      </trkpt>
      <trkpt lat="44.18613" lon="1.37263">
        <ele>177.4</ele>
        <time>2021-11-21T14:47:03Z</time>
      </trkpt>
      <trkpt lat="44.18613" lon="1.37263">
        <ele>177.4</ele>
        <time>2021-11-21T14:47:05Z</time>
      </trkpt>
      <trkpt lat="44.18613" lon="1.37263">
        <ele>177.4</ele>
        <time>2021-11-21T14:47:06Z</time>
      </trkpt>
      <trkpt lat="44.18612" lon="1.37263">
        <ele>177.4</ele>
        <time>2021-11-21T14:47:07Z</time>
      </trkpt>
      <trkpt lat="44.18613" lon="1.37264">
        <ele>177.4</ele>
        <time>2021-11-21T14:47:09Z</time>
      </trkpt>
      <trkpt lat="44.18613" lon="1.37264">
        <ele>177.4</ele>
        <time>2021-11-21T14:47:10Z</time>
      </trkpt>
      <trkpt lat="44.18613" lon="1.37264">
        <ele>177.4</ele>
        <time>2021-11-21T14:47:11Z</time>
      </trkpt>
      <trkpt lat="44.18614" lon="1.37264">
        <ele>177.4</ele>
        <time>2021-11-21T14:47:13Z</time>
      </trkpt>
      <trkpt lat="44.18615" lon="1.37263">
        <ele>177.4</ele>
        <time>2021-11-21T14:47:15Z</time>
      </trkpt>
      <trkpt lat="44.18615" lon="1.37263">
        <ele>177.4</ele>
        <time>2021-11-21T14:47:16Z</time>
      </trkpt>
      <trkpt lat="44.18615" lon="1.37263">
        <ele>177.4</ele>
        <time>2021-11-21T14:47:17Z</time>
      </trkpt>
      <trkpt lat="44.18615" lon="1.37262">
        <ele>177.4</ele>
        <time>2021-11-21T14:47:18Z</time>
      </trkpt>
      <trkpt lat="44.18615" lon="1.37262">
        <ele>177.4</ele>
        <time>2021-11-21T14:47:19Z</time>
      </trkpt>
      <trkpt lat="44.18615" lon="1.37263">
        <ele>177.4</ele>
        <time>2021-11-21T14:47:20Z</time>
      </trkpt>
      <trkpt lat="44.18615" lon="1.37263">
        <ele>177.4</ele>
        <time>2021-11-21T14:47:22Z</time>
      </trkpt>
      <trkpt lat="44.18614" lon="1.37263">
        <ele>177.4</ele>
        <time>2021-11-21T14:47:24Z</time>
      </trkpt>
      <trkpt lat="44.18614" lon="1.37264">
        <ele>177.4</ele>
        <time>2021-11-21T14:47:25Z</time>
      </trkpt>
      <trkpt lat="44.18614" lon="1.37264">
        <ele>177.4</ele>
        <time>2021-11-21T14:47:27Z</time>
      </trkpt>
      <trkpt lat="44.18614" lon="1.37264">
        <ele>177.4</ele>
        <time>2021-11-21T14:47:29Z</time>
      </trkpt>
      <trkpt lat="44.18614" lon="1.37264">
        <ele>177.4</ele>
        <time>2021-11-21T14:47:31Z</time>
      </trkpt>
      <trkpt lat="44.18614" lon="1.37265">
        <ele>177.4</ele>
        <time>2021-11-21T14:47:32Z</time>
      </trkpt>
      <trkpt lat="44.18613" lon="1.37266">
        <ele>177.5</ele>
        <time>2021-11-21T14:47:34Z</time>
      </trkpt>
      <trkpt lat="44.18612" lon="1.37266">
        <ele>177.5</ele>
        <time>2021-11-21T14:47:35Z</time>
      </trkpt>
      <trkpt lat="44.18612" lon="1.37266">
        <ele>177.5</ele>
        <time>2021-11-21T14:47:37Z</time>
      </trkpt>
      <trkpt lat="44.18612" lon="1.37266">
        <ele>177.5</ele>
        <time>2021-11-21T14:47:39Z</time>
      </trkpt>
      <trkpt lat="44.18612" lon="1.37266">
        <ele>177.5</ele>
        <time>2021-11-21T14:47:40Z</time>
      </trkpt>
      <trkpt lat="44.18612" lon="1.37266">
        <ele>177.5</ele>
        <time>2021-11-21T14:47:41Z</time>
      </trkpt>
      <trkpt lat="44.18612" lon="1.37266">
        <ele>177.5</ele>
        <time>2021-11-21T14:47:42Z</time>
      </trkpt>
      <trkpt lat="44.18612" lon="1.37266">
        <ele>177.5</ele>
        <time>2021-11-21T14:47:44Z</time>
      </trkpt>
      <trkpt lat="44.18612" lon="1.37266">
        <ele>177.5</ele>
        <time>2021-11-21T14:47:45Z</time>
      </trkpt>
      <trkpt lat="44.18612" lon="1.37265">
        <ele>177.5</ele>
        <time>2021-11-21T14:47:47Z</time>
      </trkpt>
      <trkpt lat="44.18613" lon="1.37266">
        <ele>177.5</ele>
        <time>2021-11-21T14:47:49Z</time>
      </trkpt>
      <trkpt lat="44.18612" lon="1.37266">
        <ele>177.5</ele>
        <time>2021-11-21T14:47:51Z</time>
      </trkpt>
      <trkpt lat="44.18612" lon="1.37265">
        <ele>177.5</ele>
        <time>2021-11-21T14:47:53Z</time>
      </trkpt>
      <trkpt lat="44.18612" lon="1.37265">
        <ele>177.5</ele>
        <time>2021-11-21T14:47:54Z</time>
      </trkpt>
      <trkpt lat="44.18612" lon="1.37265">
        <ele>177.5</ele>
        <time>2021-11-21T14:47:55Z</time>
      </trkpt>
      <trkpt lat="44.18612" lon="1.37264">
        <ele>177.5</ele>
        <time>2021-11-21T14:47:57Z</time>
      </trkpt>
      <trkpt lat="44.18612" lon="1.37264">
        <ele>177.5</ele>
        <time>2021-11-21T14:47:58Z</time>
      </trkpt>
      <trkpt lat="44.18612" lon="1.37264">
        <ele>177.5</ele>
        <time>2021-11-21T14:48:00Z</time>
      </trkpt>
      <trkpt lat="44.18612" lon="1.37264">
        <ele>177.5</ele>
        <time>2021-11-21T14:48:01Z</time>
      </trkpt>
      <trkpt lat="44.18612" lon="1.37264">
        <ele>177.6</ele>
        <time>2021-11-21T14:48:03Z</time>
      </trkpt>
      <trkpt lat="44.18612" lon="1.37264">
        <ele>177.6</ele>
        <time>2021-11-21T14:48:04Z</time>
      </trkpt>
      <trkpt lat="44.18613" lon="1.37264">
        <ele>177.6</ele>
        <time>2021-11-21T14:48:06Z</time>
      </trkpt>
      <trkpt lat="44.18613" lon="1.37264">
        <ele>177.6</ele>
        <time>2021-11-21T14:48:07Z</time>
      </trkpt>
      <trkpt lat="44.18613" lon="1.37264">
        <ele>177.6</ele>
        <time>2021-11-21T14:48:09Z</time>
      </trkpt>
      <trkpt lat="44.18613" lon="1.37264">
        <ele>177.6</ele>
        <time>2021-11-21T14:48:10Z</time>
      </trkpt>
      <trkpt lat="44.18614" lon="1.37264">
        <ele>177.6</ele>
        <time>2021-11-21T14:48:12Z</time>
      </trkpt>
      <trkpt lat="44.18614" lon="1.37265">
        <ele>177.6</ele>
        <time>2021-11-21T14:48:14Z</time>
      </trkpt>
      <trkpt lat="44.18614" lon="1.37265">
        <ele>177.6</ele>
        <time>2021-11-21T14:48:15Z</time>
      </trkpt>
      <trkpt lat="44.18614" lon="1.37265">
        <ele>177.6</ele>
        <time>2021-11-21T14:48:16Z</time>
      </trkpt>
      <trkpt lat="44.18614" lon="1.37265">
        <ele>177.6</ele>
        <time>2021-11-21T14:48:18Z</time>
      </trkpt>
      <trkpt lat="44.18614" lon="1.37265">
        <ele>177.6</ele>
        <time>2021-11-21T14:48:19Z</time>
      </trkpt>
      <trkpt lat="44.18614" lon="1.37265">
        <ele>177.6</ele>
        <time>2021-11-21T14:48:21Z</time>
      </trkpt>
      <trkpt lat="44.18614" lon="1.37265">
        <ele>177.6</ele>
        <time>2021-11-21T14:48:23Z</time>
      </trkpt>
      <trkpt lat="44.18614" lon="1.37265">
        <ele>177.6</ele>
        <time>2021-11-21T14:48:24Z</time>
      </trkpt>
      <trkpt lat="44.18614" lon="1.37266">
        <ele>177.6</ele>
        <time>2021-11-21T14:48:26Z</time>
      </trkpt>
      <trkpt lat="44.18614" lon="1.37266">
        <ele>177.6</ele>
        <time>2021-11-21T14:48:27Z</time>
      </trkpt>
      <trkpt lat="44.18614" lon="1.37266">
        <ele>177.6</ele>
        <time>2021-11-21T14:48:28Z</time>
      </trkpt>
      <trkpt lat="44.18614" lon="1.37266">
        <ele>177.6</ele>
        <time>2021-11-21T14:48:30Z</time>
      </trkpt>
      <trkpt lat="44.18614" lon="1.37266">
        <ele>177.6</ele>
        <time>2021-11-21T14:48:32Z</time>
      </trkpt>
      <trkpt lat="44.18615" lon="1.37267">
        <ele>177.7</ele>
        <time>2021-11-21T14:48:33Z</time>
      </trkpt>
      <trkpt lat="44.18615" lon="1.37267">
        <ele>177.7</ele>
        <time>2021-11-21T14:48:34Z</time>
      </trkpt>
      <trkpt lat="44.18616" lon="1.37269">
        <ele>177.7</ele>
        <time>2021-11-21T14:48:36Z</time>
      </trkpt>
      <trkpt lat="44.18617" lon="1.37269">
        <ele>177.7</ele>
        <time>2021-11-21T14:48:38Z</time>
      </trkpt>
      <trkpt lat="44.18617" lon="1.37269">
        <ele>177.8</ele>
        <time>2021-11-21T14:48:39Z</time>
      </trkpt>
      <trkpt lat="44.18618" lon="1.37268">
        <ele>177.8</ele>
        <time>2021-11-21T14:48:41Z</time>
      </trkpt>
      <trkpt lat="44.18618" lon="1.37268">
        <ele>177.8</ele>
        <time>2021-11-21T14:48:43Z</time>
      </trkpt>
      <trkpt lat="44.18618" lon="1.37267">
        <ele>177.8</ele>
        <time>2021-11-21T14:48:44Z</time>
      </trkpt>
      <trkpt lat="44.18618" lon="1.37267">
        <ele>177.8</ele>
        <time>2021-11-21T14:48:46Z</time>
      </trkpt>
      <trkpt lat="44.18619" lon="1.37267">
        <ele>177.8</ele>
        <time>2021-11-21T14:48:47Z</time>
      </trkpt>
      <trkpt lat="44.18619" lon="1.37267">
        <ele>177.8</ele>
        <time>2021-11-21T14:48:49Z</time>
      </trkpt>
      <trkpt lat="44.18619" lon="1.37266">
        <ele>177.8</ele>
        <time>2021-11-21T14:48:50Z</time>
      </trkpt>
      <trkpt lat="44.18619" lon="1.37266">
        <ele>177.8</ele>
        <time>2021-11-21T14:48:51Z</time>
      </trkpt>
      <trkpt lat="44.18619" lon="1.37266">
        <ele>177.9</ele>
        <time>2021-11-21T14:48:52Z</time>
      </trkpt>
      <trkpt lat="44.1862" lon="1.37266">
        <ele>177.9</ele>
        <time>2021-11-21T14:48:54Z</time>
      </trkpt>
      <trkpt lat="44.18621" lon="1.37266">
        <ele>177.9</ele>
        <time>2021-11-21T14:48:55Z</time>
      </trkpt>
      <trkpt lat="44.18622" lon="1.37266">
        <ele>178</ele>
        <time>2021-11-21T14:48:57Z</time>
      </trkpt>
      <trkpt lat="44.18624" lon="1.37266">
        <ele>178</ele>
        <time>2021-11-21T14:48:58Z</time>
      </trkpt>
      <trkpt lat="44.18626" lon="1.37267">
        <ele>178.1</ele>
        <time>2021-11-21T14:48:59Z</time>
      </trkpt>
      <trkpt lat="44.18626" lon="1.37267">
        <ele>178.1</ele>
        <time>2021-11-21T14:49:00Z</time>
      </trkpt>
      <trkpt lat="44.18627" lon="1.37267">
        <ele>178.1</ele>
        <time>2021-11-21T14:49:01Z</time>
      </trkpt>
      <trkpt lat="44.18629" lon="1.37268">
        <ele>178.2</ele>
        <time>2021-11-21T14:49:03Z</time>
      </trkpt>
      <trkpt lat="44.1863" lon="1.37268">
        <ele>178.2</ele>
        <time>2021-11-21T14:49:04Z</time>
      </trkpt>
      <trkpt lat="44.18632" lon="1.37268">
        <ele>178.3</ele>
        <time>2021-11-21T14:49:05Z</time>
      </trkpt>
      <trkpt lat="44.18633" lon="1.37268">
        <ele>178.4</ele>
        <time>2021-11-21T14:49:06Z</time>
      </trkpt>
      <trkpt lat="44.18635" lon="1.37268">
        <ele>178.4</ele>
        <time>2021-11-21T14:49:07Z</time>
      </trkpt>
      <trkpt lat="44.18636" lon="1.37268">
        <ele>178.5</ele>
        <time>2021-11-21T14:49:08Z</time>
      </trkpt>
      <trkpt lat="44.18638" lon="1.37268">
        <ele>178.5</ele>
        <time>2021-11-21T14:49:10Z</time>
      </trkpt>
      <trkpt lat="44.18639" lon="1.37268">
        <ele>178.6</ele>
        <time>2021-11-21T14:49:11Z</time>
      </trkpt>
      <trkpt lat="44.18641" lon="1.37268">
        <ele>178.6</ele>
        <time>2021-11-21T14:49:12Z</time>
      </trkpt>
      <trkpt lat="44.18642" lon="1.37268">
        <ele>178.7</ele>
        <time>2021-11-21T14:49:13Z</time>
      </trkpt>
      <trkpt lat="44.18644" lon="1.37268">
        <ele>178.7</ele>
        <time>2021-11-21T14:49:14Z</time>
      </trkpt>
      <trkpt lat="44.18645" lon="1.37268">
        <ele>178.8</ele>
        <time>2021-11-21T14:49:15Z</time>
      </trkpt>
      <trkpt lat="44.18646" lon="1.37268">
        <ele>178.8</ele>
        <time>2021-11-21T14:49:17Z</time>
      </trkpt>
      <trkpt lat="44.18648" lon="1.37268">
        <ele>178.9</ele>
        <time>2021-11-21T14:49:18Z</time>
      </trkpt>
      <trkpt lat="44.18649" lon="1.37268">
        <ele>179</ele>
        <time>2021-11-21T14:49:19Z</time>
      </trkpt>
      <trkpt lat="44.1865" lon="1.37268">
        <ele>179</ele>
        <time>2021-11-21T14:49:20Z</time>
      </trkpt>
      <trkpt lat="44.18651" lon="1.37268">
        <ele>179.1</ele>
        <time>2021-11-21T14:49:21Z</time>
      </trkpt>
      <trkpt lat="44.18652" lon="1.37268">
        <ele>179.1</ele>
        <time>2021-11-21T14:49:22Z</time>
      </trkpt>
      <trkpt lat="44.18654" lon="1.37268">
        <ele>179.2</ele>
        <time>2021-11-21T14:49:24Z</time>
      </trkpt>
      <trkpt lat="44.18655" lon="1.37268">
        <ele>179.2</ele>
        <time>2021-11-21T14:49:25Z</time>
      </trkpt>
      <trkpt lat="44.18657" lon="1.37268">
        <ele>179.3</ele>
        <time>2021-11-21T14:49:26Z</time>
      </trkpt>
      <trkpt lat="44.18659" lon="1.37268">
        <ele>179.4</ele>
        <time>2021-11-21T14:49:28Z</time>
      </trkpt>
      <trkpt lat="44.1866" lon="1.37268">
        <ele>179.5</ele>
        <time>2021-11-21T14:49:29Z</time>
      </trkpt>
      <trkpt lat="44.18662" lon="1.37269">
        <ele>179.6</ele>
        <time>2021-11-21T14:49:31Z</time>
      </trkpt>
      <trkpt lat="44.18663" lon="1.37269">
        <ele>179.7</ele>
        <time>2021-11-21T14:49:32Z</time>
      </trkpt>
      <trkpt lat="44.18665" lon="1.37269">
        <ele>179.7</ele>
        <time>2021-11-21T14:49:33Z</time>
      </trkpt>
      <trkpt lat="44.18666" lon="1.37269">
        <ele>179.8</ele>
        <time>2021-11-21T14:49:34Z</time>
      </trkpt>
      <trkpt lat="44.18668" lon="1.37269">
        <ele>179.9</ele>
        <time>2021-11-21T14:49:36Z</time>
      </trkpt>
      <trkpt lat="44.1867" lon="1.37269">
        <ele>180</ele>
        <time>2021-11-21T14:49:38Z</time>
      </trkpt>
      <trkpt lat="44.18671" lon="1.37269">
        <ele>180.1</ele>
        <time>2021-11-21T14:49:39Z</time>
      </trkpt>
      <trkpt lat="44.18672" lon="1.3727">
        <ele>180.2</ele>
        <time>2021-11-21T14:49:40Z</time>
      </trkpt>
      <trkpt lat="44.18673" lon="1.3727">
        <ele>180.3</ele>
        <time>2021-11-21T14:49:41Z</time>
      </trkpt>
      <trkpt lat="44.18674" lon="1.37271">
        <ele>180.3</ele>
        <time>2021-11-21T14:49:42Z</time>
      </trkpt>
      <trkpt lat="44.18676" lon="1.37271">
        <ele>180.4</ele>
        <time>2021-11-21T14:49:44Z</time>
      </trkpt>
      <trkpt lat="44.18677" lon="1.37271">
        <ele>180.5</ele>
        <time>2021-11-21T14:49:45Z</time>
      </trkpt>
      <trkpt lat="44.18678" lon="1.3727">
        <ele>180.6</ele>
        <time>2021-11-21T14:49:47Z</time>
      </trkpt>
      <trkpt lat="44.1868" lon="1.3727">
        <ele>180.7</ele>
        <time>2021-11-21T14:49:49Z</time>
      </trkpt>
      <trkpt lat="44.18681" lon="1.3727">
        <ele>180.7</ele>
        <time>2021-11-21T14:49:50Z</time>
      </trkpt>
      <trkpt lat="44.18682" lon="1.37271">
        <ele>180.8</ele>
        <time>2021-11-21T14:49:51Z</time>
      </trkpt>
      <trkpt lat="44.18683" lon="1.37271">
        <ele>180.9</ele>
        <time>2021-11-21T14:49:53Z</time>
      </trkpt>
      <trkpt lat="44.18685" lon="1.37271">
        <ele>181</ele>
        <time>2021-11-21T14:49:54Z</time>
      </trkpt>
      <trkpt lat="44.18687" lon="1.37271">
        <ele>181.1</ele>
        <time>2021-11-21T14:49:55Z</time>
      </trkpt>
      <trkpt lat="44.18688" lon="1.37271">
        <ele>181.2</ele>
        <time>2021-11-21T14:49:57Z</time>
      </trkpt>
      <trkpt lat="44.18689" lon="1.37271">
        <ele>181.3</ele>
        <time>2021-11-21T14:49:58Z</time>
      </trkpt>
      <trkpt lat="44.1869" lon="1.37271">
        <ele>181.3</ele>
        <time>2021-11-21T14:49:59Z</time>
      </trkpt>
      <trkpt lat="44.18691" lon="1.37271">
        <ele>181.4</ele>
        <time>2021-11-21T14:50:01Z</time>
      </trkpt>
      <trkpt lat="44.18692" lon="1.37271">
        <ele>181.4</ele>
        <time>2021-11-21T14:50:02Z</time>
      </trkpt>
      <trkpt lat="44.18693" lon="1.37271">
        <ele>181.5</ele>
        <time>2021-11-21T14:50:03Z</time>
      </trkpt>
      <trkpt lat="44.18695" lon="1.37271">
        <ele>181.6</ele>
        <time>2021-11-21T14:50:05Z</time>
      </trkpt>
      <trkpt lat="44.18696" lon="1.3727">
        <ele>181.7</ele>
        <time>2021-11-21T14:50:07Z</time>
      </trkpt>
      <trkpt lat="44.18697" lon="1.3727">
        <ele>181.7</ele>
        <time>2021-11-21T14:50:08Z</time>
      </trkpt>
      <trkpt lat="44.18697" lon="1.37269">
        <ele>181.8</ele>
        <time>2021-11-21T14:50:10Z</time>
      </trkpt>
      <trkpt lat="44.18699" lon="1.37269">
        <ele>181.9</ele>
        <time>2021-11-21T14:50:11Z</time>
      </trkpt>
      <trkpt lat="44.18701" lon="1.37269">
        <ele>182</ele>
        <time>2021-11-21T14:50:12Z</time>
      </trkpt>
      <trkpt lat="44.18702" lon="1.37269">
        <ele>182</ele>
        <time>2021-11-21T14:50:13Z</time>
      </trkpt>
      <trkpt lat="44.18703" lon="1.37269">
        <ele>182.1</ele>
        <time>2021-11-21T14:50:15Z</time>
      </trkpt>
      <trkpt lat="44.18704" lon="1.37269">
        <ele>182.1</ele>
        <time>2021-11-21T14:50:16Z</time>
      </trkpt>
      <trkpt lat="44.18705" lon="1.37269">
        <ele>182.2</ele>
        <time>2021-11-21T14:50:17Z</time>
      </trkpt>
      <trkpt lat="44.18706" lon="1.37269">
        <ele>182.3</ele>
        <time>2021-11-21T14:50:18Z</time>
      </trkpt>
      <trkpt lat="44.18707" lon="1.37269">
        <ele>182.3</ele>
        <time>2021-11-21T14:50:20Z</time>
      </trkpt>
      <trkpt lat="44.18708" lon="1.37269">
        <ele>182.4</ele>
        <time>2021-11-21T14:50:21Z</time>
      </trkpt>
      <trkpt lat="44.1871" lon="1.37269">
        <ele>182.5</ele>
        <time>2021-11-21T14:50:23Z</time>
      </trkpt>
      <trkpt lat="44.18711" lon="1.37269">
        <ele>182.6</ele>
        <time>2021-11-21T14:50:25Z</time>
      </trkpt>
      <trkpt lat="44.18712" lon="1.3727">
        <ele>182.6</ele>
        <time>2021-11-21T14:50:26Z</time>
      </trkpt>
      <trkpt lat="44.18713" lon="1.37269">
        <ele>182.7</ele>
        <time>2021-11-21T14:50:27Z</time>
      </trkpt>
      <trkpt lat="44.18715" lon="1.37269">
        <ele>182.8</ele>
        <time>2021-11-21T14:50:29Z</time>
      </trkpt>
      <trkpt lat="44.18715" lon="1.37269">
        <ele>182.8</ele>
        <time>2021-11-21T14:50:30Z</time>
      </trkpt>
      <trkpt lat="44.18716" lon="1.37269">
        <ele>182.8</ele>
        <time>2021-11-21T14:50:31Z</time>
      </trkpt>
      <trkpt lat="44.18717" lon="1.37269">
        <ele>182.9</ele>
        <time>2021-11-21T14:50:33Z</time>
      </trkpt>
      <trkpt lat="44.18718" lon="1.37269">
        <ele>182.9</ele>
        <time>2021-11-21T14:50:34Z</time>
      </trkpt>
      <trkpt lat="44.18719" lon="1.37268">
        <ele>183</ele>
        <time>2021-11-21T14:50:35Z</time>
      </trkpt>
      <trkpt lat="44.18719" lon="1.37268">
        <ele>183</ele>
        <time>2021-11-21T14:50:37Z</time>
      </trkpt>
      <trkpt lat="44.1872" lon="1.37268">
        <ele>183</ele>
        <time>2021-11-21T14:50:38Z</time>
      </trkpt>
      <trkpt lat="44.1872" lon="1.37268">
        <ele>183</ele>
        <time>2021-11-21T14:50:40Z</time>
      </trkpt>
      <trkpt lat="44.1872" lon="1.37269">
        <ele>183</ele>
        <time>2021-11-21T14:50:41Z</time>
      </trkpt>
      <trkpt lat="44.18721" lon="1.37269">
        <ele>183.1</ele>
        <time>2021-11-21T14:50:42Z</time>
      </trkpt>
      <trkpt lat="44.18721" lon="1.3727">
        <ele>183.1</ele>
        <time>2021-11-21T14:50:44Z</time>
      </trkpt>
      <trkpt lat="44.18721" lon="1.3727">
        <ele>183.1</ele>
        <time>2021-11-21T14:50:45Z</time>
      </trkpt>
      <trkpt lat="44.18721" lon="1.3727">
        <ele>183.1</ele>
        <time>2021-11-21T14:50:46Z</time>
      </trkpt>
      <trkpt lat="44.18721" lon="1.3727">
        <ele>183.1</ele>
        <time>2021-11-21T14:50:47Z</time>
      </trkpt>
      <trkpt lat="44.18721" lon="1.3727">
        <ele>183.1</ele>
        <time>2021-11-21T14:50:49Z</time>
      </trkpt>
      <trkpt lat="44.18722" lon="1.37271">
        <ele>183.2</ele>
        <time>2021-11-21T14:50:50Z</time>
      </trkpt>
      <trkpt lat="44.18722" lon="1.37271">
        <ele>183.2</ele>
        <time>2021-11-21T14:50:51Z</time>
      </trkpt>
      <trkpt lat="44.18723" lon="1.37271">
        <ele>183.2</ele>
        <time>2021-11-21T14:50:53Z</time>
      </trkpt>
      <trkpt lat="44.18723" lon="1.37272">
        <ele>183.3</ele>
        <time>2021-11-21T14:50:54Z</time>
      </trkpt>
      <trkpt lat="44.18725" lon="1.37273">
        <ele>183.3</ele>
        <time>2021-11-21T14:50:56Z</time>
      </trkpt>
      <trkpt lat="44.18725" lon="1.37273">
        <ele>183.3</ele>
        <time>2021-11-21T14:50:57Z</time>
      </trkpt>
      <trkpt lat="44.18727" lon="1.37274">
        <ele>183.4</ele>
        <time>2021-11-21T14:50:58Z</time>
      </trkpt>
      <trkpt lat="44.18727" lon="1.37274">
        <ele>183.4</ele>
        <time>2021-11-21T14:50:59Z</time>
      </trkpt>
      <trkpt lat="44.18727" lon="1.37274">
        <ele>183.4</ele>
        <time>2021-11-21T14:51:01Z</time>
      </trkpt>
      <trkpt lat="44.18728" lon="1.37274">
        <ele>183.5</ele>
        <time>2021-11-21T14:51:02Z</time>
      </trkpt>
      <trkpt lat="44.18729" lon="1.37275">
        <ele>183.5</ele>
        <time>2021-11-21T14:51:03Z</time>
      </trkpt>
      <trkpt lat="44.1873" lon="1.37275">
        <ele>183.6</ele>
        <time>2021-11-21T14:51:04Z</time>
      </trkpt>
      <trkpt lat="44.18731" lon="1.37276">
        <ele>183.6</ele>
        <time>2021-11-21T14:51:05Z</time>
      </trkpt>
      <trkpt lat="44.18732" lon="1.37276">
        <ele>183.6</ele>
        <time>2021-11-21T14:51:07Z</time>
      </trkpt>
      <trkpt lat="44.18733" lon="1.37276">
        <ele>183.7</ele>
        <time>2021-11-21T14:51:08Z</time>
      </trkpt>
      <trkpt lat="44.18734" lon="1.37277">
        <ele>183.7</ele>
        <time>2021-11-21T14:51:09Z</time>
      </trkpt>
      <trkpt lat="44.18735" lon="1.37277">
        <ele>183.7</ele>
        <time>2021-11-21T14:51:10Z</time>
      </trkpt>
      <trkpt lat="44.18736" lon="1.37278">
        <ele>183.8</ele>
        <time>2021-11-21T14:51:12Z</time>
      </trkpt>
      <trkpt lat="44.18738" lon="1.37278">
        <ele>183.8</ele>
        <time>2021-11-21T14:51:14Z</time>
      </trkpt>
      <trkpt lat="44.18739" lon="1.37278">
        <ele>183.8</ele>
        <time>2021-11-21T14:51:15Z</time>
      </trkpt>
      <trkpt lat="44.1874" lon="1.37279">
        <ele>183.9</ele>
        <time>2021-11-21T14:51:16Z</time>
      </trkpt>
      <trkpt lat="44.1874" lon="1.37279">
        <ele>183.9</ele>
        <time>2021-11-21T14:51:17Z</time>
      </trkpt>
      <trkpt lat="44.18742" lon="1.37279">
        <ele>183.9</ele>
        <time>2021-11-21T14:51:18Z</time>
      </trkpt>
      <trkpt lat="44.18743" lon="1.3728">
        <ele>184</ele>
        <time>2021-11-21T14:51:20Z</time>
      </trkpt>
      <trkpt lat="44.18745" lon="1.3728">
        <ele>184</ele>
        <time>2021-11-21T14:51:22Z</time>
      </trkpt>
      <trkpt lat="44.18746" lon="1.37281">
        <ele>184</ele>
        <time>2021-11-21T14:51:23Z</time>
      </trkpt>
      <trkpt lat="44.18748" lon="1.37281">
        <ele>184</ele>
        <time>2021-11-21T14:51:24Z</time>
      </trkpt>
      <trkpt lat="44.18749" lon="1.37282">
        <ele>184.1</ele>
        <time>2021-11-21T14:51:25Z</time>
      </trkpt>
      <trkpt lat="44.18751" lon="1.37282">
        <ele>184.1</ele>
        <time>2021-11-21T14:51:26Z</time>
      </trkpt>
      <trkpt lat="44.18753" lon="1.37283">
        <ele>184.1</ele>
        <time>2021-11-21T14:51:28Z</time>
      </trkpt>
      <trkpt lat="44.18755" lon="1.37284">
        <ele>184</ele>
        <time>2021-11-21T14:51:29Z</time>
      </trkpt>
      <trkpt lat="44.18756" lon="1.37285">
        <ele>184</ele>
        <time>2021-11-21T14:51:30Z</time>
      </trkpt>
      <trkpt lat="44.18758" lon="1.37285">
        <ele>184</ele>
        <time>2021-11-21T14:51:31Z</time>
      </trkpt>
      <trkpt lat="44.1876" lon="1.37286">
        <ele>184</ele>
        <time>2021-11-21T14:51:32Z</time>
      </trkpt>
      <trkpt lat="44.18762" lon="1.37288">
        <ele>183.9</ele>
        <time>2021-11-21T14:51:33Z</time>
      </trkpt>
      <trkpt lat="44.18764" lon="1.37289">
        <ele>183.8</ele>
        <time>2021-11-21T14:51:35Z</time>
      </trkpt>
      <trkpt lat="44.18767" lon="1.3729">
        <ele>183.7</ele>
        <time>2021-11-21T14:51:36Z</time>
      </trkpt>
      <trkpt lat="44.18767" lon="1.37291">
        <ele>183.7</ele>
        <time>2021-11-21T14:51:37Z</time>
      </trkpt>
      <trkpt lat="44.1877" lon="1.37293">
        <ele>183.5</ele>
        <time>2021-11-21T14:51:38Z</time>
      </trkpt>
      <trkpt lat="44.18772" lon="1.37294">
        <ele>183.4</ele>
        <time>2021-11-21T14:51:39Z</time>
      </trkpt>
      <trkpt lat="44.18773" lon="1.37296">
        <ele>183.3</ele>
        <time>2021-11-21T14:51:40Z</time>
      </trkpt>
      <trkpt lat="44.18775" lon="1.37297">
        <ele>183.2</ele>
        <time>2021-11-21T14:51:42Z</time>
      </trkpt>
      <trkpt lat="44.18778" lon="1.373">
        <ele>183</ele>
        <time>2021-11-21T14:51:43Z</time>
      </trkpt>
      <trkpt lat="44.18779" lon="1.37301">
        <ele>182.9</ele>
        <time>2021-11-21T14:51:44Z</time>
      </trkpt>
      <trkpt lat="44.18781" lon="1.37303">
        <ele>182.8</ele>
        <time>2021-11-21T14:51:45Z</time>
      </trkpt>
      <trkpt lat="44.18782" lon="1.37304">
        <ele>182.7</ele>
        <time>2021-11-21T14:51:46Z</time>
      </trkpt>
      <trkpt lat="44.18783" lon="1.37305">
        <ele>182.6</ele>
        <time>2021-11-21T14:51:47Z</time>
      </trkpt>
      <trkpt lat="44.18784" lon="1.37306">
        <ele>182.6</ele>
        <time>2021-11-21T14:51:49Z</time>
      </trkpt>
      <trkpt lat="44.18785" lon="1.37307">
        <ele>182.5</ele>
        <time>2021-11-21T14:51:50Z</time>
      </trkpt>
      <trkpt lat="44.18786" lon="1.37309">
        <ele>182.4</ele>
        <time>2021-11-21T14:51:51Z</time>
      </trkpt>
      <trkpt lat="44.18787" lon="1.3731">
        <ele>182.4</ele>
        <time>2021-11-21T14:51:52Z</time>
      </trkpt>
      <trkpt lat="44.18787" lon="1.37311">
        <ele>182.3</ele>
        <time>2021-11-21T14:51:53Z</time>
      </trkpt>
      <trkpt lat="44.18788" lon="1.37312">
        <ele>182.2</ele>
        <time>2021-11-21T14:51:54Z</time>
      </trkpt>
      <trkpt lat="44.18789" lon="1.37314">
        <ele>182.2</ele>
        <time>2021-11-21T14:51:56Z</time>
      </trkpt>
      <trkpt lat="44.18789" lon="1.37314">
        <ele>182.1</ele>
        <time>2021-11-21T14:51:57Z</time>
      </trkpt>
      <trkpt lat="44.18789" lon="1.37316">
        <ele>182.1</ele>
        <time>2021-11-21T14:51:58Z</time>
      </trkpt>
      <trkpt lat="44.1879" lon="1.37317">
        <ele>182</ele>
        <time>2021-11-21T14:51:59Z</time>
      </trkpt>
      <trkpt lat="44.1879" lon="1.37318">
        <ele>182</ele>
        <time>2021-11-21T14:52:00Z</time>
      </trkpt>
      <trkpt lat="44.1879" lon="1.37319">
        <ele>181.9</ele>
        <time>2021-11-21T14:52:01Z</time>
      </trkpt>
      <trkpt lat="44.18791" lon="1.37321">
        <ele>181.9</ele>
        <time>2021-11-21T14:52:03Z</time>
      </trkpt>
      <trkpt lat="44.18791" lon="1.37322">
        <ele>181.8</ele>
        <time>2021-11-21T14:52:04Z</time>
      </trkpt>
      <trkpt lat="44.18792" lon="1.37323">
        <ele>181.7</ele>
        <time>2021-11-21T14:52:05Z</time>
      </trkpt>
      <trkpt lat="44.18792" lon="1.37325">
        <ele>181.7</ele>
        <time>2021-11-21T14:52:06Z</time>
      </trkpt>
      <trkpt lat="44.18793" lon="1.37326">
        <ele>181.6</ele>
        <time>2021-11-21T14:52:07Z</time>
      </trkpt>
      <trkpt lat="44.18793" lon="1.37328">
        <ele>181.5</ele>
        <time>2021-11-21T14:52:09Z</time>
      </trkpt>
      <trkpt lat="44.18794" lon="1.37329">
        <ele>181.5</ele>
        <time>2021-11-21T14:52:10Z</time>
      </trkpt>
      <trkpt lat="44.18794" lon="1.37331">
        <ele>181.4</ele>
        <time>2021-11-21T14:52:11Z</time>
      </trkpt>
      <trkpt lat="44.18795" lon="1.37334">
        <ele>181.3</ele>
        <time>2021-11-21T14:52:12Z</time>
      </trkpt>
      <trkpt lat="44.18795" lon="1.37335">
        <ele>181.2</ele>
        <time>2021-11-21T14:52:13Z</time>
      </trkpt>
      <trkpt lat="44.18796" lon="1.37336">
        <ele>181.1</ele>
        <time>2021-11-21T14:52:14Z</time>
      </trkpt>
      <trkpt lat="44.18796" lon="1.37339">
        <ele>181</ele>
        <time>2021-11-21T14:52:16Z</time>
      </trkpt>
      <trkpt lat="44.18797" lon="1.3734">
        <ele>181</ele>
        <time>2021-11-21T14:52:17Z</time>
      </trkpt>
      <trkpt lat="44.18797" lon="1.37341">
        <ele>180.9</ele>
        <time>2021-11-21T14:52:18Z</time>
      </trkpt>
      <trkpt lat="44.18797" lon="1.37344">
        <ele>180.8</ele>
        <time>2021-11-21T14:52:19Z</time>
      </trkpt>
      <trkpt lat="44.18798" lon="1.37346">
        <ele>180.7</ele>
        <time>2021-11-21T14:52:20Z</time>
      </trkpt>
      <trkpt lat="44.18798" lon="1.37348">
        <ele>180.6</ele>
        <time>2021-11-21T14:52:21Z</time>
      </trkpt>
      <trkpt lat="44.18799" lon="1.3735">
        <ele>180.5</ele>
        <time>2021-11-21T14:52:23Z</time>
      </trkpt>
      <trkpt lat="44.18799" lon="1.37352">
        <ele>180.4</ele>
        <time>2021-11-21T14:52:24Z</time>
      </trkpt>
      <trkpt lat="44.188" lon="1.37354">
        <ele>180.4</ele>
        <time>2021-11-21T14:52:25Z</time>
      </trkpt>
      <trkpt lat="44.18801" lon="1.37357">
        <ele>180.3</ele>
        <time>2021-11-21T14:52:26Z</time>
      </trkpt>
      <trkpt lat="44.18801" lon="1.37358">
        <ele>180.2</ele>
        <time>2021-11-21T14:52:27Z</time>
      </trkpt>
      <trkpt lat="44.18801" lon="1.37359">
        <ele>180.2</ele>
        <time>2021-11-21T14:52:28Z</time>
      </trkpt>
      <trkpt lat="44.18802" lon="1.37362">
        <ele>180.1</ele>
        <time>2021-11-21T14:52:30Z</time>
      </trkpt>
      <trkpt lat="44.18802" lon="1.37363">
        <ele>180</ele>
        <time>2021-11-21T14:52:31Z</time>
      </trkpt>
      <trkpt lat="44.18802" lon="1.37364">
        <ele>180</ele>
        <time>2021-11-21T14:52:32Z</time>
      </trkpt>
      <trkpt lat="44.18802" lon="1.37366">
        <ele>179.9</ele>
        <time>2021-11-21T14:52:33Z</time>
      </trkpt>
      <trkpt lat="44.18802" lon="1.37368">
        <ele>179.9</ele>
        <time>2021-11-21T14:52:34Z</time>
      </trkpt>
      <trkpt lat="44.18802" lon="1.37369">
        <ele>179.8</ele>
        <time>2021-11-21T14:52:35Z</time>
      </trkpt>
      <trkpt lat="44.18802" lon="1.3737">
        <ele>179.8</ele>
        <time>2021-11-21T14:52:37Z</time>
      </trkpt>
      <trkpt lat="44.18802" lon="1.37372">
        <ele>179.8</ele>
        <time>2021-11-21T14:52:38Z</time>
      </trkpt>
      <trkpt lat="44.18803" lon="1.37373">
        <ele>179.7</ele>
        <time>2021-11-21T14:52:39Z</time>
      </trkpt>
      <trkpt lat="44.18803" lon="1.37375">
        <ele>179.7</ele>
        <time>2021-11-21T14:52:40Z</time>
      </trkpt>
      <trkpt lat="44.18803" lon="1.37376">
        <ele>179.6</ele>
        <time>2021-11-21T14:52:41Z</time>
      </trkpt>
      <trkpt lat="44.18802" lon="1.37377">
        <ele>179.6</ele>
        <time>2021-11-21T14:52:42Z</time>
      </trkpt>
      <trkpt lat="44.18802" lon="1.37379">
        <ele>179.6</ele>
        <time>2021-11-21T14:52:44Z</time>
      </trkpt>
      <trkpt lat="44.18802" lon="1.3738">
        <ele>179.5</ele>
        <time>2021-11-21T14:52:45Z</time>
      </trkpt>
      <trkpt lat="44.18802" lon="1.37381">
        <ele>179.5</ele>
        <time>2021-11-21T14:52:46Z</time>
      </trkpt>
      <trkpt lat="44.18802" lon="1.37382">
        <ele>179.5</ele>
        <time>2021-11-21T14:52:47Z</time>
      </trkpt>
      <trkpt lat="44.18802" lon="1.37384">
        <ele>179.4</ele>
        <time>2021-11-21T14:52:49Z</time>
      </trkpt>
      <trkpt lat="44.18802" lon="1.37386">
        <ele>179.4</ele>
        <time>2021-11-21T14:52:50Z</time>
      </trkpt>
      <trkpt lat="44.18803" lon="1.37388">
        <ele>179.3</ele>
        <time>2021-11-21T14:52:51Z</time>
      </trkpt>
      <trkpt lat="44.18803" lon="1.37389">
        <ele>179.3</ele>
        <time>2021-11-21T14:52:52Z</time>
      </trkpt>
      <trkpt lat="44.18803" lon="1.3739">
        <ele>179.3</ele>
        <time>2021-11-21T14:52:54Z</time>
      </trkpt>
      <trkpt lat="44.18803" lon="1.37391">
        <ele>179.2</ele>
        <time>2021-11-21T14:52:55Z</time>
      </trkpt>
      <trkpt lat="44.18803" lon="1.37392">
        <ele>179.2</ele>
        <time>2021-11-21T14:52:56Z</time>
      </trkpt>
      <trkpt lat="44.18803" lon="1.37394">
        <ele>179.1</ele>
        <time>2021-11-21T14:52:58Z</time>
      </trkpt>
      <trkpt lat="44.18803" lon="1.37395">
        <ele>179.1</ele>
        <time>2021-11-21T14:52:59Z</time>
      </trkpt>
      <trkpt lat="44.18804" lon="1.37397">
        <ele>179.1</ele>
        <time>2021-11-21T14:53:00Z</time>
      </trkpt>
      <trkpt lat="44.18804" lon="1.37398">
        <ele>179</ele>
        <time>2021-11-21T14:53:01Z</time>
      </trkpt>
      <trkpt lat="44.18804" lon="1.374">
        <ele>179</ele>
        <time>2021-11-21T14:53:02Z</time>
      </trkpt>
      <trkpt lat="44.18804" lon="1.37401">
        <ele>178.9</ele>
        <time>2021-11-21T14:53:03Z</time>
      </trkpt>
      <trkpt lat="44.18804" lon="1.37404">
        <ele>178.9</ele>
        <time>2021-11-21T14:53:05Z</time>
      </trkpt>
      <trkpt lat="44.18804" lon="1.37405">
        <ele>178.8</ele>
        <time>2021-11-21T14:53:06Z</time>
      </trkpt>
      <trkpt lat="44.18805" lon="1.37406">
        <ele>178.8</ele>
        <time>2021-11-21T14:53:07Z</time>
      </trkpt>
      <trkpt lat="44.18805" lon="1.37409">
        <ele>178.7</ele>
        <time>2021-11-21T14:53:09Z</time>
      </trkpt>
      <trkpt lat="44.18805" lon="1.37412">
        <ele>178.6</ele>
        <time>2021-11-21T14:53:10Z</time>
      </trkpt>
      <trkpt lat="44.18805" lon="1.37413">
        <ele>178.6</ele>
        <time>2021-11-21T14:53:11Z</time>
      </trkpt>
      <trkpt lat="44.18805" lon="1.37414">
        <ele>178.6</ele>
        <time>2021-11-21T14:53:12Z</time>
      </trkpt>
      <trkpt lat="44.18805" lon="1.37415">
        <ele>178.5</ele>
        <time>2021-11-21T14:53:13Z</time>
      </trkpt>
      <trkpt lat="44.18805" lon="1.37418">
        <ele>178.5</ele>
        <time>2021-11-21T14:53:15Z</time>
      </trkpt>
      <trkpt lat="44.18805" lon="1.3742">
        <ele>178.4</ele>
        <time>2021-11-21T14:53:16Z</time>
      </trkpt>
      <trkpt lat="44.18806" lon="1.37422">
        <ele>178.4</ele>
        <time>2021-11-21T14:53:18Z</time>
      </trkpt>
      <trkpt lat="44.18806" lon="1.37423">
        <ele>178.3</ele>
        <time>2021-11-21T14:53:19Z</time>
      </trkpt>
      <trkpt lat="44.18806" lon="1.37426">
        <ele>178.3</ele>
        <time>2021-11-21T14:53:20Z</time>
      </trkpt>
      <trkpt lat="44.18806" lon="1.37427">
        <ele>178.2</ele>
        <time>2021-11-21T14:53:21Z</time>
      </trkpt>
      <trkpt lat="44.18806" lon="1.3743">
        <ele>178.1</ele>
        <time>2021-11-21T14:53:22Z</time>
      </trkpt>
      <trkpt lat="44.18806" lon="1.37431">
        <ele>178.1</ele>
        <time>2021-11-21T14:53:23Z</time>
      </trkpt>
      <trkpt lat="44.18807" lon="1.37433">
        <ele>178.1</ele>
        <time>2021-11-21T14:53:24Z</time>
      </trkpt>
      <trkpt lat="44.18807" lon="1.37436">
        <ele>178</ele>
        <time>2021-11-21T14:53:26Z</time>
      </trkpt>
      <trkpt lat="44.18807" lon="1.37437">
        <ele>178</ele>
        <time>2021-11-21T14:53:27Z</time>
      </trkpt>
      <trkpt lat="44.18807" lon="1.37438">
        <ele>177.9</ele>
        <time>2021-11-21T14:53:28Z</time>
      </trkpt>
      <trkpt lat="44.18807" lon="1.37439">
        <ele>177.9</ele>
        <time>2021-11-21T14:53:29Z</time>
      </trkpt>
      <trkpt lat="44.18807" lon="1.37442">
        <ele>177.8</ele>
        <time>2021-11-21T14:53:30Z</time>
      </trkpt>
      <trkpt lat="44.18807" lon="1.37443">
        <ele>177.8</ele>
        <time>2021-11-21T14:53:31Z</time>
      </trkpt>
      <trkpt lat="44.18807" lon="1.37444">
        <ele>177.8</ele>
        <time>2021-11-21T14:53:32Z</time>
      </trkpt>
      <trkpt lat="44.18808" lon="1.37446">
        <ele>177.8</ele>
        <time>2021-11-21T14:53:34Z</time>
      </trkpt>
      <trkpt lat="44.18808" lon="1.37448">
        <ele>177.7</ele>
        <time>2021-11-21T14:53:35Z</time>
      </trkpt>
      <trkpt lat="44.18808" lon="1.37449">
        <ele>177.7</ele>
        <time>2021-11-21T14:53:36Z</time>
      </trkpt>
      <trkpt lat="44.18808" lon="1.37451">
        <ele>177.7</ele>
        <time>2021-11-21T14:53:37Z</time>
      </trkpt>
      <trkpt lat="44.18809" lon="1.37452">
        <ele>177.6</ele>
        <time>2021-11-21T14:53:38Z</time>
      </trkpt>
      <trkpt lat="44.18809" lon="1.37454">
        <ele>177.6</ele>
        <time>2021-11-21T14:53:39Z</time>
      </trkpt>
      <trkpt lat="44.18809" lon="1.37455">
        <ele>177.6</ele>
        <time>2021-11-21T14:53:41Z</time>
      </trkpt>
      <trkpt lat="44.18809" lon="1.37456">
        <ele>177.6</ele>
        <time>2021-11-21T14:53:42Z</time>
      </trkpt>
      <trkpt lat="44.1881" lon="1.37458">
        <ele>177.6</ele>
        <time>2021-11-21T14:53:43Z</time>
      </trkpt>
      <trkpt lat="44.1881" lon="1.37459">
        <ele>177.5</ele>
        <time>2021-11-21T14:53:44Z</time>
      </trkpt>
      <trkpt lat="44.1881" lon="1.37463">
        <ele>177.5</ele>
        <time>2021-11-21T14:53:45Z</time>
      </trkpt>
      <trkpt lat="44.18811" lon="1.37463">
        <ele>177.5</ele>
        <time>2021-11-21T14:53:46Z</time>
      </trkpt>
      <trkpt lat="44.18811" lon="1.37464">
        <ele>177.5</ele>
        <time>2021-11-21T14:53:47Z</time>
      </trkpt>
      <trkpt lat="44.18811" lon="1.37466">
        <ele>177.4</ele>
        <time>2021-11-21T14:53:49Z</time>
      </trkpt>
      <trkpt lat="44.18811" lon="1.37468">
        <ele>177.4</ele>
        <time>2021-11-21T14:53:50Z</time>
      </trkpt>
      <trkpt lat="44.18812" lon="1.37469">
        <ele>177.4</ele>
        <time>2021-11-21T14:53:51Z</time>
      </trkpt>
      <trkpt lat="44.18812" lon="1.37471">
        <ele>177.4</ele>
        <time>2021-11-21T14:53:52Z</time>
      </trkpt>
      <trkpt lat="44.18812" lon="1.37472">
        <ele>177.4</ele>
        <time>2021-11-21T14:53:53Z</time>
      </trkpt>
      <trkpt lat="44.18813" lon="1.37475">
        <ele>177.4</ele>
        <time>2021-11-21T14:53:54Z</time>
      </trkpt>
      <trkpt lat="44.18813" lon="1.37477">
        <ele>177.3</ele>
        <time>2021-11-21T14:53:55Z</time>
      </trkpt>
      <trkpt lat="44.18813" lon="1.37478">
        <ele>177.3</ele>
        <time>2021-11-21T14:53:57Z</time>
      </trkpt>
      <trkpt lat="44.18813" lon="1.3748">
        <ele>177.3</ele>
        <time>2021-11-21T14:53:58Z</time>
      </trkpt>
      <trkpt lat="44.18813" lon="1.37481">
        <ele>177.3</ele>
        <time>2021-11-21T14:53:59Z</time>
      </trkpt>
      <trkpt lat="44.18814" lon="1.37483">
        <ele>177.3</ele>
        <time>2021-11-21T14:54:00Z</time>
      </trkpt>
      <trkpt lat="44.18814" lon="1.37484">
        <ele>177.3</ele>
        <time>2021-11-21T14:54:01Z</time>
      </trkpt>
      <trkpt lat="44.18814" lon="1.37485">
        <ele>177.3</ele>
        <time>2021-11-21T14:54:02Z</time>
      </trkpt>
      <trkpt lat="44.18815" lon="1.37487">
        <ele>177.2</ele>
        <time>2021-11-21T14:54:04Z</time>
      </trkpt>
      <trkpt lat="44.18815" lon="1.37488">
        <ele>177.2</ele>
        <time>2021-11-21T14:54:05Z</time>
      </trkpt>
      <trkpt lat="44.18815" lon="1.37491">
        <ele>177.2</ele>
        <time>2021-11-21T14:54:06Z</time>
      </trkpt>
      <trkpt lat="44.18816" lon="1.37493">
        <ele>177.2</ele>
        <time>2021-11-21T14:54:07Z</time>
      </trkpt>
      <trkpt lat="44.18816" lon="1.37494">
        <ele>177.2</ele>
        <time>2021-11-21T14:54:08Z</time>
      </trkpt>
      <trkpt lat="44.18816" lon="1.37495">
        <ele>177.2</ele>
        <time>2021-11-21T14:54:09Z</time>
      </trkpt>
      <trkpt lat="44.18817" lon="1.37498">
        <ele>177.2</ele>
        <time>2021-11-21T14:54:11Z</time>
      </trkpt>
      <trkpt lat="44.18817" lon="1.375">
        <ele>177.2</ele>
        <time>2021-11-21T14:54:12Z</time>
      </trkpt>
      <trkpt lat="44.18817" lon="1.37501">
        <ele>177.2</ele>
        <time>2021-11-21T14:54:13Z</time>
      </trkpt>
      <trkpt lat="44.18818" lon="1.37502">
        <ele>177.2</ele>
        <time>2021-11-21T14:54:14Z</time>
      </trkpt>
      <trkpt lat="44.18818" lon="1.37504">
        <ele>177.1</ele>
        <time>2021-11-21T14:54:15Z</time>
      </trkpt>
      <trkpt lat="44.18819" lon="1.37507">
        <ele>177.1</ele>
        <time>2021-11-21T14:54:16Z</time>
      </trkpt>
      <trkpt lat="44.18819" lon="1.37508">
        <ele>177.1</ele>
        <time>2021-11-21T14:54:17Z</time>
      </trkpt>
      <trkpt lat="44.1882" lon="1.37509">
        <ele>177.1</ele>
        <time>2021-11-21T14:54:19Z</time>
      </trkpt>
      <trkpt lat="44.1882" lon="1.3751">
        <ele>177.1</ele>
        <time>2021-11-21T14:54:20Z</time>
      </trkpt>
      <trkpt lat="44.1882" lon="1.37512">
        <ele>177.1</ele>
        <time>2021-11-21T14:54:21Z</time>
      </trkpt>
      <trkpt lat="44.18821" lon="1.37513">
        <ele>177.1</ele>
        <time>2021-11-21T14:54:22Z</time>
      </trkpt>
      <trkpt lat="44.18821" lon="1.37514">
        <ele>177.1</ele>
        <time>2021-11-21T14:54:23Z</time>
      </trkpt>
      <trkpt lat="44.18821" lon="1.37516">
        <ele>177.1</ele>
        <time>2021-11-21T14:54:24Z</time>
      </trkpt>
      <trkpt lat="44.18822" lon="1.37518">
        <ele>177.1</ele>
        <time>2021-11-21T14:54:26Z</time>
      </trkpt>
      <trkpt lat="44.18822" lon="1.37519">
        <ele>177.1</ele>
        <time>2021-11-21T14:54:27Z</time>
      </trkpt>
      <trkpt lat="44.18822" lon="1.37521">
        <ele>177.1</ele>
        <time>2021-11-21T14:54:28Z</time>
      </trkpt>
      <trkpt lat="44.18823" lon="1.37523">
        <ele>177.1</ele>
        <time>2021-11-21T14:54:29Z</time>
      </trkpt>
      <trkpt lat="44.18823" lon="1.37524">
        <ele>177.1</ele>
        <time>2021-11-21T14:54:30Z</time>
      </trkpt>
      <trkpt lat="44.18823" lon="1.37526">
        <ele>177.1</ele>
        <time>2021-11-21T14:54:31Z</time>
      </trkpt>
      <trkpt lat="44.18824" lon="1.37527">
        <ele>177.1</ele>
        <time>2021-11-21T14:54:33Z</time>
      </trkpt>
      <trkpt lat="44.18825" lon="1.3753">
        <ele>177.1</ele>
        <time>2021-11-21T14:54:34Z</time>
      </trkpt>
      <trkpt lat="44.18825" lon="1.37531">
        <ele>177.1</ele>
        <time>2021-11-21T14:54:35Z</time>
      </trkpt>
      <trkpt lat="44.18825" lon="1.37532">
        <ele>177.1</ele>
        <time>2021-11-21T14:54:36Z</time>
      </trkpt>
      <trkpt lat="44.18826" lon="1.37534">
        <ele>177.1</ele>
        <time>2021-11-21T14:54:37Z</time>
      </trkpt>
      <trkpt lat="44.18826" lon="1.37536">
        <ele>177.1</ele>
        <time>2021-11-21T14:54:38Z</time>
      </trkpt>
      <trkpt lat="44.18827" lon="1.37537">
        <ele>177.2</ele>
        <time>2021-11-21T14:54:40Z</time>
      </trkpt>
      <trkpt lat="44.18827" lon="1.3754">
        <ele>177.2</ele>
        <time>2021-11-21T14:54:41Z</time>
      </trkpt>
      <trkpt lat="44.18828" lon="1.37541">
        <ele>177.2</ele>
        <time>2021-11-21T14:54:42Z</time>
      </trkpt>
      <trkpt lat="44.18828" lon="1.37543">
        <ele>177.2</ele>
        <time>2021-11-21T14:54:43Z</time>
      </trkpt>
      <trkpt lat="44.18828" lon="1.37545">
        <ele>177.2</ele>
        <time>2021-11-21T14:54:44Z</time>
      </trkpt>
      <trkpt lat="44.18829" lon="1.37547">
        <ele>177.2</ele>
        <time>2021-11-21T14:54:45Z</time>
      </trkpt>
      <trkpt lat="44.18829" lon="1.37549">
        <ele>177.2</ele>
        <time>2021-11-21T14:54:47Z</time>
      </trkpt>
      <trkpt lat="44.1883" lon="1.37551">
        <ele>177.2</ele>
        <time>2021-11-21T14:54:48Z</time>
      </trkpt>
      <trkpt lat="44.1883" lon="1.37553">
        <ele>177.2</ele>
        <time>2021-11-21T14:54:49Z</time>
      </trkpt>
      <trkpt lat="44.18831" lon="1.37555">
        <ele>177.2</ele>
        <time>2021-11-21T14:54:50Z</time>
      </trkpt>
      <trkpt lat="44.18831" lon="1.37557">
        <ele>177.3</ele>
        <time>2021-11-21T14:54:51Z</time>
      </trkpt>
      <trkpt lat="44.18832" lon="1.3756">
        <ele>177.3</ele>
        <time>2021-11-21T14:54:52Z</time>
      </trkpt>
      <trkpt lat="44.18832" lon="1.37561">
        <ele>177.3</ele>
        <time>2021-11-21T14:54:54Z</time>
      </trkpt>
      <trkpt lat="44.18832" lon="1.37562">
        <ele>177.3</ele>
        <time>2021-11-21T14:54:55Z</time>
      </trkpt>
      <trkpt lat="44.18833" lon="1.37565">
        <ele>177.4</ele>
        <time>2021-11-21T14:54:56Z</time>
      </trkpt>
      <trkpt lat="44.18833" lon="1.37566">
        <ele>177.4</ele>
        <time>2021-11-21T14:54:57Z</time>
      </trkpt>
      <trkpt lat="44.18834" lon="1.37568">
        <ele>177.4</ele>
        <time>2021-11-21T14:54:58Z</time>
      </trkpt>
      <trkpt lat="44.18834" lon="1.37569">
        <ele>177.5</ele>
        <time>2021-11-21T14:55:00Z</time>
      </trkpt>
      <trkpt lat="44.18834" lon="1.37572">
        <ele>177.5</ele>
        <time>2021-11-21T14:55:01Z</time>
      </trkpt>
      <trkpt lat="44.18835" lon="1.37574">
        <ele>177.5</ele>
        <time>2021-11-21T14:55:02Z</time>
      </trkpt>
      <trkpt lat="44.18835" lon="1.37576">
        <ele>177.5</ele>
        <time>2021-11-21T14:55:04Z</time>
      </trkpt>
      <trkpt lat="44.18835" lon="1.37577">
        <ele>177.6</ele>
        <time>2021-11-21T14:55:05Z</time>
      </trkpt>
      <trkpt lat="44.18836" lon="1.37579">
        <ele>177.6</ele>
        <time>2021-11-21T14:55:06Z</time>
      </trkpt>
      <trkpt lat="44.18836" lon="1.3758">
        <ele>177.6</ele>
        <time>2021-11-21T14:55:07Z</time>
      </trkpt>
      <trkpt lat="44.18836" lon="1.37582">
        <ele>177.6</ele>
        <time>2021-11-21T14:55:08Z</time>
      </trkpt>
      <trkpt lat="44.18836" lon="1.37583">
        <ele>177.7</ele>
        <time>2021-11-21T14:55:09Z</time>
      </trkpt>
      <trkpt lat="44.18837" lon="1.37586">
        <ele>177.7</ele>
        <time>2021-11-21T14:55:11Z</time>
      </trkpt>
      <trkpt lat="44.18838" lon="1.37587">
        <ele>177.7</ele>
        <time>2021-11-21T14:55:12Z</time>
      </trkpt>
      <trkpt lat="44.18838" lon="1.37589">
        <ele>177.8</ele>
        <time>2021-11-21T14:55:14Z</time>
      </trkpt>
      <trkpt lat="44.18838" lon="1.37591">
        <ele>177.8</ele>
        <time>2021-11-21T14:55:15Z</time>
      </trkpt>
      <trkpt lat="44.18839" lon="1.37594">
        <ele>177.8</ele>
        <time>2021-11-21T14:55:16Z</time>
      </trkpt>
      <trkpt lat="44.18839" lon="1.37594">
        <ele>177.9</ele>
        <time>2021-11-21T14:55:17Z</time>
      </trkpt>
      <trkpt lat="44.1884" lon="1.37595">
        <ele>177.9</ele>
        <time>2021-11-21T14:55:18Z</time>
      </trkpt>
      <trkpt lat="44.1884" lon="1.37596">
        <ele>177.9</ele>
        <time>2021-11-21T14:55:19Z</time>
      </trkpt>
      <trkpt lat="44.18841" lon="1.37598">
        <ele>177.9</ele>
        <time>2021-11-21T14:55:21Z</time>
      </trkpt>
      <trkpt lat="44.18841" lon="1.376">
        <ele>177.9</ele>
        <time>2021-11-21T14:55:22Z</time>
      </trkpt>
      <trkpt lat="44.18842" lon="1.37601">
        <ele>178</ele>
        <time>2021-11-21T14:55:23Z</time>
      </trkpt>
      <trkpt lat="44.18842" lon="1.37602">
        <ele>178</ele>
        <time>2021-11-21T14:55:24Z</time>
      </trkpt>
      <trkpt lat="44.18842" lon="1.37605">
        <ele>178</ele>
        <time>2021-11-21T14:55:26Z</time>
      </trkpt>
      <trkpt lat="44.18843" lon="1.37608">
        <ele>178</ele>
        <time>2021-11-21T14:55:27Z</time>
      </trkpt>
      <trkpt lat="44.18843" lon="1.37609">
        <ele>178</ele>
        <time>2021-11-21T14:55:28Z</time>
      </trkpt>
      <trkpt lat="44.18844" lon="1.3761">
        <ele>178</ele>
        <time>2021-11-21T14:55:29Z</time>
      </trkpt>
      <trkpt lat="44.18844" lon="1.37612">
        <ele>178</ele>
        <time>2021-11-21T14:55:31Z</time>
      </trkpt>
      <trkpt lat="44.18845" lon="1.37614">
        <ele>178.1</ele>
        <time>2021-11-21T14:55:32Z</time>
      </trkpt>
      <trkpt lat="44.18846" lon="1.37616">
        <ele>178.1</ele>
        <time>2021-11-21T14:55:33Z</time>
      </trkpt>
      <trkpt lat="44.18846" lon="1.37618">
        <ele>178.1</ele>
        <time>2021-11-21T14:55:35Z</time>
      </trkpt>
      <trkpt lat="44.18847" lon="1.37619">
        <ele>178</ele>
        <time>2021-11-21T14:55:36Z</time>
      </trkpt>
      <trkpt lat="44.18848" lon="1.3762">
        <ele>178</ele>
        <time>2021-11-21T14:55:38Z</time>
      </trkpt>
      <trkpt lat="44.18848" lon="1.37622">
        <ele>178</ele>
        <time>2021-11-21T14:55:39Z</time>
      </trkpt>
      <trkpt lat="44.18849" lon="1.37623">
        <ele>178</ele>
        <time>2021-11-21T14:55:40Z</time>
      </trkpt>
      <trkpt lat="44.1885" lon="1.37625">
        <ele>178</ele>
        <time>2021-11-21T14:55:41Z</time>
      </trkpt>
      <trkpt lat="44.18851" lon="1.37626">
        <ele>178</ele>
        <time>2021-11-21T14:55:42Z</time>
      </trkpt>
      <trkpt lat="44.18851" lon="1.37628">
        <ele>178</ele>
        <time>2021-11-21T14:55:43Z</time>
      </trkpt>
      <trkpt lat="44.18852" lon="1.37629">
        <ele>178</ele>
        <time>2021-11-21T14:55:45Z</time>
      </trkpt>
      <trkpt lat="44.18852" lon="1.3763">
        <ele>177.9</ele>
        <time>2021-11-21T14:55:46Z</time>
      </trkpt>
      <trkpt lat="44.18854" lon="1.37633">
        <ele>177.9</ele>
        <time>2021-11-21T14:55:47Z</time>
      </trkpt>
      <trkpt lat="44.18854" lon="1.37634">
        <ele>177.9</ele>
        <time>2021-11-21T14:55:48Z</time>
      </trkpt>
      <trkpt lat="44.18854" lon="1.37635">
        <ele>177.9</ele>
        <time>2021-11-21T14:55:49Z</time>
      </trkpt>
      <trkpt lat="44.18855" lon="1.37636">
        <ele>177.9</ele>
        <time>2021-11-21T14:55:50Z</time>
      </trkpt>
      <trkpt lat="44.18856" lon="1.37637">
        <ele>177.9</ele>
        <time>2021-11-21T14:55:52Z</time>
      </trkpt>
      <trkpt lat="44.18857" lon="1.37639">
        <ele>177.9</ele>
        <time>2021-11-21T14:55:53Z</time>
      </trkpt>
      <trkpt lat="44.18858" lon="1.37641">
        <ele>177.8</ele>
        <time>2021-11-21T14:55:54Z</time>
      </trkpt>
      <trkpt lat="44.18859" lon="1.37642">
        <ele>177.8</ele>
        <time>2021-11-21T14:55:55Z</time>
      </trkpt>
      <trkpt lat="44.18859" lon="1.37642">
        <ele>177.8</ele>
        <time>2021-11-21T14:55:56Z</time>
      </trkpt>
      <trkpt lat="44.1886" lon="1.37643">
        <ele>177.8</ele>
        <time>2021-11-21T14:55:57Z</time>
      </trkpt>
      <trkpt lat="44.18861" lon="1.37645">
        <ele>177.7</ele>
        <time>2021-11-21T14:55:59Z</time>
      </trkpt>
      <trkpt lat="44.18861" lon="1.37645">
        <ele>177.7</ele>
        <time>2021-11-21T14:56:00Z</time>
      </trkpt>
      <trkpt lat="44.18862" lon="1.37646">
        <ele>177.7</ele>
        <time>2021-11-21T14:56:01Z</time>
      </trkpt>
      <trkpt lat="44.18863" lon="1.37647">
        <ele>177.7</ele>
        <time>2021-11-21T14:56:02Z</time>
      </trkpt>
      <trkpt lat="44.18864" lon="1.37648">
        <ele>177.6</ele>
        <time>2021-11-21T14:56:03Z</time>
      </trkpt>
      <trkpt lat="44.18864" lon="1.37649">
        <ele>177.6</ele>
        <time>2021-11-21T14:56:04Z</time>
      </trkpt>
      <trkpt lat="44.18865" lon="1.3765">
        <ele>177.6</ele>
        <time>2021-11-21T14:56:06Z</time>
      </trkpt>
      <trkpt lat="44.18866" lon="1.37651">
        <ele>177.5</ele>
        <time>2021-11-21T14:56:07Z</time>
      </trkpt>
      <trkpt lat="44.18866" lon="1.37652">
        <ele>177.5</ele>
        <time>2021-11-21T14:56:08Z</time>
      </trkpt>
      <trkpt lat="44.18867" lon="1.37653">
        <ele>177.5</ele>
        <time>2021-11-21T14:56:09Z</time>
      </trkpt>
      <trkpt lat="44.18868" lon="1.37654">
        <ele>177.4</ele>
        <time>2021-11-21T14:56:10Z</time>
      </trkpt>
      <trkpt lat="44.18869" lon="1.37655">
        <ele>177.4</ele>
        <time>2021-11-21T14:56:11Z</time>
      </trkpt>
      <trkpt lat="44.18869" lon="1.37656">
        <ele>177.3</ele>
        <time>2021-11-21T14:56:13Z</time>
      </trkpt>
      <trkpt lat="44.1887" lon="1.37657">
        <ele>177.3</ele>
        <time>2021-11-21T14:56:14Z</time>
      </trkpt>
      <trkpt lat="44.18871" lon="1.37658">
        <ele>177.2</ele>
        <time>2021-11-21T14:56:15Z</time>
      </trkpt>
      <trkpt lat="44.18872" lon="1.37659">
        <ele>177.2</ele>
        <time>2021-11-21T14:56:16Z</time>
      </trkpt>
      <trkpt lat="44.18872" lon="1.3766">
        <ele>177.1</ele>
        <time>2021-11-21T14:56:17Z</time>
      </trkpt>
      <trkpt lat="44.18873" lon="1.37662">
        <ele>177.1</ele>
        <time>2021-11-21T14:56:18Z</time>
      </trkpt>
      <trkpt lat="44.18874" lon="1.37663">
        <ele>177</ele>
        <time>2021-11-21T14:56:20Z</time>
      </trkpt>
      <trkpt lat="44.18875" lon="1.37663">
        <ele>177</ele>
        <time>2021-11-21T14:56:21Z</time>
      </trkpt>
      <trkpt lat="44.18877" lon="1.37665">
        <ele>176.9</ele>
        <time>2021-11-21T14:56:23Z</time>
      </trkpt>
      <trkpt lat="44.18878" lon="1.37665">
        <ele>176.8</ele>
        <time>2021-11-21T14:56:24Z</time>
      </trkpt>
      <trkpt lat="44.1888" lon="1.37667">
        <ele>176.7</ele>
        <time>2021-11-21T14:56:25Z</time>
      </trkpt>
      <trkpt lat="44.18881" lon="1.37668">
        <ele>176.6</ele>
        <time>2021-11-21T14:56:26Z</time>
      </trkpt>
      <trkpt lat="44.18881" lon="1.37669">
        <ele>176.6</ele>
        <time>2021-11-21T14:56:27Z</time>
      </trkpt>
      <trkpt lat="44.18882" lon="1.3767">
        <ele>176.6</ele>
        <time>2021-11-21T14:56:29Z</time>
      </trkpt>
      <trkpt lat="44.18883" lon="1.37671">
        <ele>176.5</ele>
        <time>2021-11-21T14:56:30Z</time>
      </trkpt>
      <trkpt lat="44.18884" lon="1.37672">
        <ele>176.4</ele>
        <time>2021-11-21T14:56:31Z</time>
      </trkpt>
      <trkpt lat="44.18885" lon="1.37674">
        <ele>176.4</ele>
        <time>2021-11-21T14:56:32Z</time>
      </trkpt>
      <trkpt lat="44.18886" lon="1.37675">
        <ele>176.3</ele>
        <time>2021-11-21T14:56:33Z</time>
      </trkpt>
      <trkpt lat="44.18887" lon="1.37676">
        <ele>176.2</ele>
        <time>2021-11-21T14:56:34Z</time>
      </trkpt>
      <trkpt lat="44.18888" lon="1.37678">
        <ele>176.2</ele>
        <time>2021-11-21T14:56:36Z</time>
      </trkpt>
      <trkpt lat="44.18889" lon="1.37679">
        <ele>176.1</ele>
        <time>2021-11-21T14:56:37Z</time>
      </trkpt>
      <trkpt lat="44.1889" lon="1.3768">
        <ele>176</ele>
        <time>2021-11-21T14:56:38Z</time>
      </trkpt>
      <trkpt lat="44.18891" lon="1.37682">
        <ele>175.9</ele>
        <time>2021-11-21T14:56:39Z</time>
      </trkpt>
      <trkpt lat="44.18892" lon="1.37683">
        <ele>175.9</ele>
        <time>2021-11-21T14:56:40Z</time>
      </trkpt>
      <trkpt lat="44.18892" lon="1.37684">
        <ele>175.9</ele>
        <time>2021-11-21T14:56:41Z</time>
      </trkpt>
      <trkpt lat="44.18894" lon="1.37686">
        <ele>175.8</ele>
        <time>2021-11-21T14:56:42Z</time>
      </trkpt>
      <trkpt lat="44.18894" lon="1.37687">
        <ele>175.7</ele>
        <time>2021-11-21T14:56:44Z</time>
      </trkpt>
      <trkpt lat="44.18895" lon="1.37688">
        <ele>175.7</ele>
        <time>2021-11-21T14:56:45Z</time>
      </trkpt>
      <trkpt lat="44.18897" lon="1.3769">
        <ele>175.6</ele>
        <time>2021-11-21T14:56:46Z</time>
      </trkpt>
      <trkpt lat="44.18897" lon="1.37691">
        <ele>175.5</ele>
        <time>2021-11-21T14:56:47Z</time>
      </trkpt>
      <trkpt lat="44.18898" lon="1.37692">
        <ele>175.5</ele>
        <time>2021-11-21T14:56:48Z</time>
      </trkpt>
      <trkpt lat="44.18899" lon="1.37694">
        <ele>175.4</ele>
        <time>2021-11-21T14:56:49Z</time>
      </trkpt>
      <trkpt lat="44.189" lon="1.37695">
        <ele>175.3</ele>
        <time>2021-11-21T14:56:50Z</time>
      </trkpt>
      <trkpt lat="44.18901" lon="1.37696">
        <ele>175.3</ele>
        <time>2021-11-21T14:56:52Z</time>
      </trkpt>
      <trkpt lat="44.18901" lon="1.37697">
        <ele>175.2</ele>
        <time>2021-11-21T14:56:53Z</time>
      </trkpt>
      <trkpt lat="44.18902" lon="1.37698">
        <ele>175.2</ele>
        <time>2021-11-21T14:56:54Z</time>
      </trkpt>
      <trkpt lat="44.18902" lon="1.37699">
        <ele>175.1</ele>
        <time>2021-11-21T14:56:55Z</time>
      </trkpt>
      <trkpt lat="44.18903" lon="1.377">
        <ele>175.1</ele>
        <time>2021-11-21T14:56:56Z</time>
      </trkpt>
      <trkpt lat="44.18904" lon="1.37702">
        <ele>175</ele>
        <time>2021-11-21T14:56:57Z</time>
      </trkpt>
      <trkpt lat="44.18905" lon="1.37703">
        <ele>174.9</ele>
        <time>2021-11-21T14:56:58Z</time>
      </trkpt>
      <trkpt lat="44.18906" lon="1.37705">
        <ele>174.8</ele>
        <time>2021-11-21T14:57:00Z</time>
      </trkpt>
      <trkpt lat="44.18907" lon="1.37705">
        <ele>174.7</ele>
        <time>2021-11-21T14:57:01Z</time>
      </trkpt>
      <trkpt lat="44.18908" lon="1.37706">
        <ele>174.7</ele>
        <time>2021-11-21T14:57:02Z</time>
      </trkpt>
      <trkpt lat="44.18909" lon="1.37708">
        <ele>174.5</ele>
        <time>2021-11-21T14:57:03Z</time>
      </trkpt>
      <trkpt lat="44.1891" lon="1.37709">
        <ele>174.5</ele>
        <time>2021-11-21T14:57:04Z</time>
      </trkpt>
      <trkpt lat="44.1891" lon="1.3771">
        <ele>174.5</ele>
        <time>2021-11-21T14:57:05Z</time>
      </trkpt>
      <trkpt lat="44.18911" lon="1.3771">
        <ele>174.4</ele>
        <time>2021-11-21T14:57:07Z</time>
      </trkpt>
      <trkpt lat="44.18912" lon="1.37712">
        <ele>174.3</ele>
        <time>2021-11-21T14:57:08Z</time>
      </trkpt>
      <trkpt lat="44.18913" lon="1.37713">
        <ele>174.2</ele>
        <time>2021-11-21T14:57:09Z</time>
      </trkpt>
      <trkpt lat="44.18914" lon="1.37714">
        <ele>174.1</ele>
        <time>2021-11-21T14:57:10Z</time>
      </trkpt>
      <trkpt lat="44.18915" lon="1.37715">
        <ele>174.1</ele>
        <time>2021-11-21T14:57:11Z</time>
      </trkpt>
      <trkpt lat="44.18916" lon="1.37716">
        <ele>174</ele>
        <time>2021-11-21T14:57:12Z</time>
      </trkpt>
      <trkpt lat="44.18917" lon="1.37717">
        <ele>173.9</ele>
        <time>2021-11-21T14:57:13Z</time>
      </trkpt>
      <trkpt lat="44.18917" lon="1.37718">
        <ele>173.8</ele>
        <time>2021-11-21T14:57:15Z</time>
      </trkpt>
      <trkpt lat="44.18918" lon="1.37719">
        <ele>173.7</ele>
        <time>2021-11-21T14:57:16Z</time>
      </trkpt>
      <trkpt lat="44.18919" lon="1.3772">
        <ele>173.6</ele>
        <time>2021-11-21T14:57:17Z</time>
      </trkpt>
      <trkpt lat="44.18921" lon="1.37722">
        <ele>173.5</ele>
        <time>2021-11-21T14:57:18Z</time>
      </trkpt>
      <trkpt lat="44.18921" lon="1.37722">
        <ele>173.4</ele>
        <time>2021-11-21T14:57:19Z</time>
      </trkpt>
      <trkpt lat="44.18922" lon="1.37723">
        <ele>173.4</ele>
        <time>2021-11-21T14:57:20Z</time>
      </trkpt>
      <trkpt lat="44.18923" lon="1.37723">
        <ele>173.3</ele>
        <time>2021-11-21T14:57:22Z</time>
      </trkpt>
      <trkpt lat="44.18924" lon="1.37724">
        <ele>173.2</ele>
        <time>2021-11-21T14:57:23Z</time>
      </trkpt>
      <trkpt lat="44.18926" lon="1.37725">
        <ele>173.1</ele>
        <time>2021-11-21T14:57:24Z</time>
      </trkpt>
      <trkpt lat="44.18927" lon="1.37725">
        <ele>173</ele>
        <time>2021-11-21T14:57:25Z</time>
      </trkpt>
      <trkpt lat="44.18928" lon="1.37725">
        <ele>172.9</ele>
        <time>2021-11-21T14:57:26Z</time>
      </trkpt>
      <trkpt lat="44.18929" lon="1.37726">
        <ele>172.8</ele>
        <time>2021-11-21T14:57:27Z</time>
      </trkpt>
      <trkpt lat="44.1893" lon="1.37726">
        <ele>172.6</ele>
        <time>2021-11-21T14:57:29Z</time>
      </trkpt>
      <trkpt lat="44.18931" lon="1.37727">
        <ele>172.5</ele>
        <time>2021-11-21T14:57:30Z</time>
      </trkpt>
      <trkpt lat="44.18933" lon="1.37727">
        <ele>172.4</ele>
        <time>2021-11-21T14:57:31Z</time>
      </trkpt>
      <trkpt lat="44.18934" lon="1.37727">
        <ele>172.3</ele>
        <time>2021-11-21T14:57:32Z</time>
      </trkpt>
      <trkpt lat="44.18935" lon="1.37728">
        <ele>172.1</ele>
        <time>2021-11-21T14:57:33Z</time>
      </trkpt>
      <trkpt lat="44.18936" lon="1.37728">
        <ele>172</ele>
        <time>2021-11-21T14:57:34Z</time>
      </trkpt>
      <trkpt lat="44.18937" lon="1.37728">
        <ele>171.9</ele>
        <time>2021-11-21T14:57:36Z</time>
      </trkpt>
      <trkpt lat="44.18938" lon="1.37728">
        <ele>171.8</ele>
        <time>2021-11-21T14:57:37Z</time>
      </trkpt>
      <trkpt lat="44.1894" lon="1.37729">
        <ele>171.5</ele>
        <time>2021-11-21T14:57:39Z</time>
      </trkpt>
      <trkpt lat="44.18941" lon="1.3773">
        <ele>171.4</ele>
        <time>2021-11-21T14:57:41Z</time>
      </trkpt>
      <trkpt lat="44.18942" lon="1.3773">
        <ele>171.3</ele>
        <time>2021-11-21T14:57:42Z</time>
      </trkpt>
      <trkpt lat="44.18943" lon="1.3773">
        <ele>171.2</ele>
        <time>2021-11-21T14:57:43Z</time>
      </trkpt>
      <trkpt lat="44.18944" lon="1.37729">
        <ele>171.1</ele>
        <time>2021-11-21T14:57:44Z</time>
      </trkpt>
      <trkpt lat="44.18945" lon="1.37729">
        <ele>171</ele>
        <time>2021-11-21T14:57:46Z</time>
      </trkpt>
      <trkpt lat="44.18946" lon="1.37728">
        <ele>170.8</ele>
        <time>2021-11-21T14:57:47Z</time>
      </trkpt>
      <trkpt lat="44.18947" lon="1.37728">
        <ele>170.7</ele>
        <time>2021-11-21T14:57:48Z</time>
      </trkpt>
      <trkpt lat="44.18949" lon="1.37727">
        <ele>170.5</ele>
        <time>2021-11-21T14:57:49Z</time>
      </trkpt>
      <trkpt lat="44.1895" lon="1.37726">
        <ele>170.3</ele>
        <time>2021-11-21T14:57:50Z</time>
      </trkpt>
      <trkpt lat="44.18951" lon="1.37725">
        <ele>170.2</ele>
        <time>2021-11-21T14:57:51Z</time>
      </trkpt>
      <trkpt lat="44.18952" lon="1.37724">
        <ele>170.1</ele>
        <time>2021-11-21T14:57:53Z</time>
      </trkpt>
      <trkpt lat="44.18953" lon="1.37724">
        <ele>170</ele>
        <time>2021-11-21T14:57:54Z</time>
      </trkpt>
      <trkpt lat="44.18953" lon="1.37724">
        <ele>170</ele>
        <time>2021-11-21T14:57:55Z</time>
      </trkpt>
      <trkpt lat="44.18954" lon="1.37723">
        <ele>169.8</ele>
        <time>2021-11-21T14:57:56Z</time>
      </trkpt>
      <trkpt lat="44.18955" lon="1.37722">
        <ele>169.8</ele>
        <time>2021-11-21T14:57:57Z</time>
      </trkpt>
      <trkpt lat="44.18956" lon="1.37721">
        <ele>169.6</ele>
        <time>2021-11-21T14:57:59Z</time>
      </trkpt>
      <trkpt lat="44.18956" lon="1.3772">
        <ele>169.5</ele>
        <time>2021-11-21T14:58:00Z</time>
      </trkpt>
      <trkpt lat="44.18957" lon="1.3772">
        <ele>169.4</ele>
        <time>2021-11-21T14:58:01Z</time>
      </trkpt>
      <trkpt lat="44.18958" lon="1.37718">
        <ele>169.3</ele>
        <time>2021-11-21T14:58:03Z</time>
      </trkpt>
      <trkpt lat="44.18959" lon="1.37718">
        <ele>169.2</ele>
        <time>2021-11-21T14:58:04Z</time>
      </trkpt>
      <trkpt lat="44.1896" lon="1.37717">
        <ele>169.1</ele>
        <time>2021-11-21T14:58:05Z</time>
      </trkpt>
      <trkpt lat="44.1896" lon="1.37717">
        <ele>169</ele>
        <time>2021-11-21T14:58:07Z</time>
      </trkpt>
      <trkpt lat="44.18961" lon="1.37716">
        <ele>168.9</ele>
        <time>2021-11-21T14:58:08Z</time>
      </trkpt>
      <trkpt lat="44.18962" lon="1.37715">
        <ele>168.8</ele>
        <time>2021-11-21T14:58:09Z</time>
      </trkpt>
      <trkpt lat="44.18963" lon="1.37715">
        <ele>168.7</ele>
        <time>2021-11-21T14:58:10Z</time>
      </trkpt>
      <trkpt lat="44.18965" lon="1.37714">
        <ele>168.5</ele>
        <time>2021-11-21T14:58:12Z</time>
      </trkpt>
      <trkpt lat="44.18966" lon="1.37713">
        <ele>168.5</ele>
        <time>2021-11-21T14:58:13Z</time>
      </trkpt>
      <trkpt lat="44.18967" lon="1.37713">
        <ele>168.5</ele>
        <time>2021-11-21T14:58:14Z</time>
      </trkpt>
      <trkpt lat="44.18968" lon="1.37713">
        <ele>168.4</ele>
        <time>2021-11-21T14:58:15Z</time>
      </trkpt>
      <trkpt lat="44.18968" lon="1.37712">
        <ele>168.4</ele>
        <time>2021-11-21T14:58:17Z</time>
      </trkpt>
      <trkpt lat="44.18969" lon="1.37712">
        <ele>168.3</ele>
        <time>2021-11-21T14:58:18Z</time>
      </trkpt>
      <trkpt lat="44.18971" lon="1.37711">
        <ele>168.3</ele>
        <time>2021-11-21T14:58:19Z</time>
      </trkpt>
      <trkpt lat="44.18972" lon="1.37711">
        <ele>168.2</ele>
        <time>2021-11-21T14:58:20Z</time>
      </trkpt>
      <trkpt lat="44.18973" lon="1.37711">
        <ele>168.2</ele>
        <time>2021-11-21T14:58:21Z</time>
      </trkpt>
      <trkpt lat="44.18974" lon="1.3771">
        <ele>168.2</ele>
        <time>2021-11-21T14:58:22Z</time>
      </trkpt>
      <trkpt lat="44.18975" lon="1.37709">
        <ele>168.1</ele>
        <time>2021-11-21T14:58:24Z</time>
      </trkpt>
      <trkpt lat="44.18977" lon="1.37709">
        <ele>168.1</ele>
        <time>2021-11-21T14:58:26Z</time>
      </trkpt>
      <trkpt lat="44.18978" lon="1.37709">
        <ele>168</ele>
        <time>2021-11-21T14:58:27Z</time>
      </trkpt>
      <trkpt lat="44.18979" lon="1.37708">
        <ele>168</ele>
        <time>2021-11-21T14:58:28Z</time>
      </trkpt>
      <trkpt lat="44.1898" lon="1.37708">
        <ele>167.9</ele>
        <time>2021-11-21T14:58:29Z</time>
      </trkpt>
      <trkpt lat="44.18981" lon="1.37708">
        <ele>167.9</ele>
        <time>2021-11-21T14:58:30Z</time>
      </trkpt>
      <trkpt lat="44.18982" lon="1.37707">
        <ele>167.9</ele>
        <time>2021-11-21T14:58:31Z</time>
      </trkpt>
      <trkpt lat="44.18983" lon="1.37707">
        <ele>167.9</ele>
        <time>2021-11-21T14:58:33Z</time>
      </trkpt>
      <trkpt lat="44.18985" lon="1.37706">
        <ele>167.8</ele>
        <time>2021-11-21T14:58:34Z</time>
      </trkpt>
      <trkpt lat="44.18985" lon="1.37706">
        <ele>167.8</ele>
        <time>2021-11-21T14:58:35Z</time>
      </trkpt>
      <trkpt lat="44.18986" lon="1.37705">
        <ele>167.8</ele>
        <time>2021-11-21T14:58:36Z</time>
      </trkpt>
      <trkpt lat="44.18987" lon="1.37705">
        <ele>167.8</ele>
        <time>2021-11-21T14:58:37Z</time>
      </trkpt>
      <trkpt lat="44.18989" lon="1.37704">
        <ele>167.7</ele>
        <time>2021-11-21T14:58:38Z</time>
      </trkpt>
      <trkpt lat="44.1899" lon="1.37704">
        <ele>167.7</ele>
        <time>2021-11-21T14:58:40Z</time>
      </trkpt>
      <trkpt lat="44.18991" lon="1.37704">
        <ele>167.7</ele>
        <time>2021-11-21T14:58:41Z</time>
      </trkpt>
      <trkpt lat="44.18993" lon="1.37703">
        <ele>167.6</ele>
        <time>2021-11-21T14:58:42Z</time>
      </trkpt>
      <trkpt lat="44.18994" lon="1.37703">
        <ele>167.6</ele>
        <time>2021-11-21T14:58:43Z</time>
      </trkpt>
      <trkpt lat="44.18994" lon="1.37702">
        <ele>167.6</ele>
        <time>2021-11-21T14:58:44Z</time>
      </trkpt>
      <trkpt lat="44.18995" lon="1.37702">
        <ele>167.6</ele>
        <time>2021-11-21T14:58:45Z</time>
      </trkpt>
      <trkpt lat="44.18997" lon="1.37702">
        <ele>167.6</ele>
        <time>2021-11-21T14:58:47Z</time>
      </trkpt>
      <trkpt lat="44.18998" lon="1.37702">
        <ele>167.5</ele>
        <time>2021-11-21T14:58:48Z</time>
      </trkpt>
      <trkpt lat="44.19" lon="1.37701">
        <ele>167.5</ele>
        <time>2021-11-21T14:58:49Z</time>
      </trkpt>
      <trkpt lat="44.19001" lon="1.37701">
        <ele>167.5</ele>
        <time>2021-11-21T14:58:50Z</time>
      </trkpt>
      <trkpt lat="44.19002" lon="1.37701">
        <ele>167.5</ele>
        <time>2021-11-21T14:58:51Z</time>
      </trkpt>
      <trkpt lat="44.19004" lon="1.37701">
        <ele>167.4</ele>
        <time>2021-11-21T14:58:52Z</time>
      </trkpt>
      <trkpt lat="44.19005" lon="1.37701">
        <ele>167.4</ele>
        <time>2021-11-21T14:58:54Z</time>
      </trkpt>
      <trkpt lat="44.19006" lon="1.37701">
        <ele>167.4</ele>
        <time>2021-11-21T14:58:55Z</time>
      </trkpt>
      <trkpt lat="44.19008" lon="1.377">
        <ele>167.3</ele>
        <time>2021-11-21T14:58:56Z</time>
      </trkpt>
      <trkpt lat="44.19009" lon="1.377">
        <ele>167.3</ele>
        <time>2021-11-21T14:58:57Z</time>
      </trkpt>
      <trkpt lat="44.19009" lon="1.377">
        <ele>167.3</ele>
        <time>2021-11-21T14:58:58Z</time>
      </trkpt>
      <trkpt lat="44.19011" lon="1.377">
        <ele>167.2</ele>
        <time>2021-11-21T14:58:59Z</time>
      </trkpt>
      <trkpt lat="44.19012" lon="1.377">
        <ele>167.2</ele>
        <time>2021-11-21T14:59:01Z</time>
      </trkpt>
      <trkpt lat="44.19013" lon="1.377">
        <ele>167.1</ele>
        <time>2021-11-21T14:59:02Z</time>
      </trkpt>
      <trkpt lat="44.19014" lon="1.377">
        <ele>167.1</ele>
        <time>2021-11-21T14:59:03Z</time>
      </trkpt>
      <trkpt lat="44.19016" lon="1.377">
        <ele>167</ele>
        <time>2021-11-21T14:59:04Z</time>
      </trkpt>
      <trkpt lat="44.19018" lon="1.377">
        <ele>166.9</ele>
        <time>2021-11-21T14:59:05Z</time>
      </trkpt>
      <trkpt lat="44.19019" lon="1.377">
        <ele>166.9</ele>
        <time>2021-11-21T14:59:06Z</time>
      </trkpt>
      <trkpt lat="44.1902" lon="1.37701">
        <ele>166.8</ele>
        <time>2021-11-21T14:59:08Z</time>
      </trkpt>
      <trkpt lat="44.19022" lon="1.37701">
        <ele>166.8</ele>
        <time>2021-11-21T14:59:09Z</time>
      </trkpt>
      <trkpt lat="44.19023" lon="1.37701">
        <ele>166.7</ele>
        <time>2021-11-21T14:59:11Z</time>
      </trkpt>
      <trkpt lat="44.19024" lon="1.37701">
        <ele>166.7</ele>
        <time>2021-11-21T14:59:12Z</time>
      </trkpt>
      <trkpt lat="44.19025" lon="1.37701">
        <ele>166.6</ele>
        <time>2021-11-21T14:59:13Z</time>
      </trkpt>
      <trkpt lat="44.19027" lon="1.37701">
        <ele>166.5</ele>
        <time>2021-11-21T14:59:14Z</time>
      </trkpt>
      <trkpt lat="44.19027" lon="1.37701">
        <ele>166.5</ele>
        <time>2021-11-21T14:59:15Z</time>
      </trkpt>
      <trkpt lat="44.19029" lon="1.37702">
        <ele>166.4</ele>
        <time>2021-11-21T14:59:17Z</time>
      </trkpt>
      <trkpt lat="44.1903" lon="1.37702">
        <ele>166.4</ele>
        <time>2021-11-21T14:59:18Z</time>
      </trkpt>
      <trkpt lat="44.19032" lon="1.37702">
        <ele>166.3</ele>
        <time>2021-11-21T14:59:19Z</time>
      </trkpt>
      <trkpt lat="44.19033" lon="1.37703">
        <ele>166.2</ele>
        <time>2021-11-21T14:59:21Z</time>
      </trkpt>
      <trkpt lat="44.19035" lon="1.37703">
        <ele>166.1</ele>
        <time>2021-11-21T14:59:22Z</time>
      </trkpt>
      <trkpt lat="44.19036" lon="1.37703">
        <ele>166.1</ele>
        <time>2021-11-21T14:59:23Z</time>
      </trkpt>
      <trkpt lat="44.19037" lon="1.37704">
        <ele>166</ele>
        <time>2021-11-21T14:59:24Z</time>
      </trkpt>
      <trkpt lat="44.19039" lon="1.37704">
        <ele>165.9</ele>
        <time>2021-11-21T14:59:25Z</time>
      </trkpt>
      <trkpt lat="44.1904" lon="1.37704">
        <ele>165.9</ele>
        <time>2021-11-21T14:59:27Z</time>
      </trkpt>
      <trkpt lat="44.19041" lon="1.37704">
        <ele>165.8</ele>
        <time>2021-11-21T14:59:28Z</time>
      </trkpt>
      <trkpt lat="44.19043" lon="1.37705">
        <ele>165.8</ele>
        <time>2021-11-21T14:59:29Z</time>
      </trkpt>
      <trkpt lat="44.19043" lon="1.37705">
        <ele>165.7</ele>
        <time>2021-11-21T14:59:30Z</time>
      </trkpt>
      <trkpt lat="44.19045" lon="1.37705">
        <ele>165.7</ele>
        <time>2021-11-21T14:59:32Z</time>
      </trkpt>
      <trkpt lat="44.19046" lon="1.37705">
        <ele>165.6</ele>
        <time>2021-11-21T14:59:33Z</time>
      </trkpt>
      <trkpt lat="44.19048" lon="1.37706">
        <ele>165.6</ele>
        <time>2021-11-21T14:59:35Z</time>
      </trkpt>
      <trkpt lat="44.19049" lon="1.37706">
        <ele>165.5</ele>
        <time>2021-11-21T14:59:36Z</time>
      </trkpt>
      <trkpt lat="44.1905" lon="1.37707">
        <ele>165.5</ele>
        <time>2021-11-21T14:59:37Z</time>
      </trkpt>
      <trkpt lat="44.19051" lon="1.37707">
        <ele>165.5</ele>
        <time>2021-11-21T14:59:38Z</time>
      </trkpt>
      <trkpt lat="44.19053" lon="1.37708">
        <ele>165.4</ele>
        <time>2021-11-21T14:59:40Z</time>
      </trkpt>
      <trkpt lat="44.19054" lon="1.37708">
        <ele>165.4</ele>
        <time>2021-11-21T14:59:41Z</time>
      </trkpt>
      <trkpt lat="44.19055" lon="1.37708">
        <ele>165.4</ele>
        <time>2021-11-21T14:59:42Z</time>
      </trkpt>
      <trkpt lat="44.19056" lon="1.37709">
        <ele>165.3</ele>
        <time>2021-11-21T14:59:43Z</time>
      </trkpt>
      <trkpt lat="44.19057" lon="1.37709">
        <ele>165.3</ele>
        <time>2021-11-21T14:59:44Z</time>
      </trkpt>
      <trkpt lat="44.19058" lon="1.37709">
        <ele>165.3</ele>
        <time>2021-11-21T14:59:46Z</time>
      </trkpt>
      <trkpt lat="44.19059" lon="1.3771">
        <ele>165.3</ele>
        <time>2021-11-21T14:59:47Z</time>
      </trkpt>
      <trkpt lat="44.1906" lon="1.3771">
        <ele>165.3</ele>
        <time>2021-11-21T14:59:48Z</time>
      </trkpt>
      <trkpt lat="44.19061" lon="1.3771">
        <ele>165.3</ele>
        <time>2021-11-21T14:59:49Z</time>
      </trkpt>
      <trkpt lat="44.19063" lon="1.37711">
        <ele>165.3</ele>
        <time>2021-11-21T14:59:50Z</time>
      </trkpt>
      <trkpt lat="44.19064" lon="1.37711">
        <ele>165.3</ele>
        <time>2021-11-21T14:59:51Z</time>
      </trkpt>
      <trkpt lat="44.19066" lon="1.37711">
        <ele>165.3</ele>
        <time>2021-11-21T14:59:53Z</time>
      </trkpt>
      <trkpt lat="44.19067" lon="1.37712">
        <ele>165.3</ele>
        <time>2021-11-21T14:59:54Z</time>
      </trkpt>
      <trkpt lat="44.19068" lon="1.37712">
        <ele>165.3</ele>
        <time>2021-11-21T14:59:55Z</time>
      </trkpt>
      <trkpt lat="44.19068" lon="1.37712">
        <ele>165.3</ele>
        <time>2021-11-21T14:59:56Z</time>
      </trkpt>
      <trkpt lat="44.19069" lon="1.37713">
        <ele>165.3</ele>
        <time>2021-11-21T14:59:57Z</time>
      </trkpt>
      <trkpt lat="44.1907" lon="1.37714">
        <ele>165.2</ele>
        <time>2021-11-21T14:59:58Z</time>
      </trkpt>
      <trkpt lat="44.19072" lon="1.37715">
        <ele>165.2</ele>
        <time>2021-11-21T15:00:00Z</time>
      </trkpt>
      <trkpt lat="44.19073" lon="1.37715">
        <ele>165.2</ele>
        <time>2021-11-21T15:00:01Z</time>
      </trkpt>
      <trkpt lat="44.19074" lon="1.37716">
        <ele>165.2</ele>
        <time>2021-11-21T15:00:02Z</time>
      </trkpt>
      <trkpt lat="44.19075" lon="1.37716">
        <ele>165.2</ele>
        <time>2021-11-21T15:00:03Z</time>
      </trkpt>
      <trkpt lat="44.19076" lon="1.37716">
        <ele>165.2</ele>
        <time>2021-11-21T15:00:04Z</time>
      </trkpt>
      <trkpt lat="44.19077" lon="1.37717">
        <ele>165.2</ele>
        <time>2021-11-21T15:00:05Z</time>
      </trkpt>
      <trkpt lat="44.19078" lon="1.37717">
        <ele>165.2</ele>
        <time>2021-11-21T15:00:07Z</time>
      </trkpt>
      <trkpt lat="44.19079" lon="1.37718">
        <ele>165.2</ele>
        <time>2021-11-21T15:00:08Z</time>
      </trkpt>
      <trkpt lat="44.1908" lon="1.37718">
        <ele>165.2</ele>
        <time>2021-11-21T15:00:09Z</time>
      </trkpt>
      <trkpt lat="44.19082" lon="1.37719">
        <ele>165.2</ele>
        <time>2021-11-21T15:00:10Z</time>
      </trkpt>
      <trkpt lat="44.19082" lon="1.37719">
        <ele>165.2</ele>
        <time>2021-11-21T15:00:11Z</time>
      </trkpt>
      <trkpt lat="44.19083" lon="1.37719">
        <ele>165.1</ele>
        <time>2021-11-21T15:00:12Z</time>
      </trkpt>
      <trkpt lat="44.19084" lon="1.3772">
        <ele>165.1</ele>
        <time>2021-11-21T15:00:14Z</time>
      </trkpt>
      <trkpt lat="44.19086" lon="1.37721">
        <ele>165</ele>
        <time>2021-11-21T15:00:15Z</time>
      </trkpt>
      <trkpt lat="44.19087" lon="1.37721">
        <ele>164.9</ele>
        <time>2021-11-21T15:00:16Z</time>
      </trkpt>
      <trkpt lat="44.19088" lon="1.37722">
        <ele>164.8</ele>
        <time>2021-11-21T15:00:17Z</time>
      </trkpt>
      <trkpt lat="44.19089" lon="1.37722">
        <ele>164.8</ele>
        <time>2021-11-21T15:00:18Z</time>
      </trkpt>
      <trkpt lat="44.1909" lon="1.37723">
        <ele>164.7</ele>
        <time>2021-11-21T15:00:20Z</time>
      </trkpt>
      <trkpt lat="44.19091" lon="1.37724">
        <ele>164.6</ele>
        <time>2021-11-21T15:00:21Z</time>
      </trkpt>
      <trkpt lat="44.19092" lon="1.37724">
        <ele>164.5</ele>
        <time>2021-11-21T15:00:22Z</time>
      </trkpt>
      <trkpt lat="44.19093" lon="1.37724">
        <ele>164.5</ele>
        <time>2021-11-21T15:00:23Z</time>
      </trkpt>
      <trkpt lat="44.19094" lon="1.37724">
        <ele>164.4</ele>
        <time>2021-11-21T15:00:24Z</time>
      </trkpt>
      <trkpt lat="44.19095" lon="1.37725">
        <ele>164.3</ele>
        <time>2021-11-21T15:00:25Z</time>
      </trkpt>
      <trkpt lat="44.19096" lon="1.37724">
        <ele>164.3</ele>
        <time>2021-11-21T15:00:27Z</time>
      </trkpt>
      <trkpt lat="44.19097" lon="1.37725">
        <ele>164.2</ele>
        <time>2021-11-21T15:00:28Z</time>
      </trkpt>
      <trkpt lat="44.19098" lon="1.37725">
        <ele>164.1</ele>
        <time>2021-11-21T15:00:29Z</time>
      </trkpt>
      <trkpt lat="44.19099" lon="1.37726">
        <ele>164.1</ele>
        <time>2021-11-21T15:00:30Z</time>
      </trkpt>
      <trkpt lat="44.19101" lon="1.37726">
        <ele>164</ele>
        <time>2021-11-21T15:00:31Z</time>
      </trkpt>
      <trkpt lat="44.19102" lon="1.37727">
        <ele>163.9</ele>
        <time>2021-11-21T15:00:32Z</time>
      </trkpt>
      <trkpt lat="44.19103" lon="1.37727">
        <ele>163.9</ele>
        <time>2021-11-21T15:00:34Z</time>
      </trkpt>
      <trkpt lat="44.19104" lon="1.37727">
        <ele>163.8</ele>
        <time>2021-11-21T15:00:35Z</time>
      </trkpt>
      <trkpt lat="44.19105" lon="1.37728">
        <ele>163.7</ele>
        <time>2021-11-21T15:00:36Z</time>
      </trkpt>
      <trkpt lat="44.19106" lon="1.37728">
        <ele>163.7</ele>
        <time>2021-11-21T15:00:37Z</time>
      </trkpt>
      <trkpt lat="44.19108" lon="1.37729">
        <ele>163.5</ele>
        <time>2021-11-21T15:00:38Z</time>
      </trkpt>
      <trkpt lat="44.19108" lon="1.37729">
        <ele>163.5</ele>
        <time>2021-11-21T15:00:39Z</time>
      </trkpt>
      <trkpt lat="44.19109" lon="1.3773">
        <ele>163.5</ele>
        <time>2021-11-21T15:00:41Z</time>
      </trkpt>
      <trkpt lat="44.1911" lon="1.3773">
        <ele>163.4</ele>
        <time>2021-11-21T15:00:42Z</time>
      </trkpt>
      <trkpt lat="44.19111" lon="1.3773">
        <ele>163.4</ele>
        <time>2021-11-21T15:00:43Z</time>
      </trkpt>
      <trkpt lat="44.19112" lon="1.37731">
        <ele>163.3</ele>
        <time>2021-11-21T15:00:44Z</time>
      </trkpt>
      <trkpt lat="44.19112" lon="1.37731">
        <ele>163.3</ele>
        <time>2021-11-21T15:00:45Z</time>
      </trkpt>
      <trkpt lat="44.19114" lon="1.37732">
        <ele>163.2</ele>
        <time>2021-11-21T15:00:46Z</time>
      </trkpt>
      <trkpt lat="44.19114" lon="1.37732">
        <ele>163.1</ele>
        <time>2021-11-21T15:00:48Z</time>
      </trkpt>
      <trkpt lat="44.19115" lon="1.37733">
        <ele>163.1</ele>
        <time>2021-11-21T15:00:49Z</time>
      </trkpt>
      <trkpt lat="44.19116" lon="1.37733">
        <ele>163</ele>
        <time>2021-11-21T15:00:50Z</time>
      </trkpt>
      <trkpt lat="44.19117" lon="1.37734">
        <ele>162.9</ele>
        <time>2021-11-21T15:00:51Z</time>
      </trkpt>
      <trkpt lat="44.19118" lon="1.37735">
        <ele>162.9</ele>
        <time>2021-11-21T15:00:52Z</time>
      </trkpt>
      <trkpt lat="44.19119" lon="1.37736">
        <ele>162.8</ele>
        <time>2021-11-21T15:00:53Z</time>
      </trkpt>
      <trkpt lat="44.1912" lon="1.37737">
        <ele>162.8</ele>
        <time>2021-11-21T15:00:55Z</time>
      </trkpt>
      <trkpt lat="44.19121" lon="1.37738">
        <ele>162.7</ele>
        <time>2021-11-21T15:00:56Z</time>
      </trkpt>
      <trkpt lat="44.19122" lon="1.37739">
        <ele>162.7</ele>
        <time>2021-11-21T15:00:57Z</time>
      </trkpt>
      <trkpt lat="44.19122" lon="1.37739">
        <ele>162.6</ele>
        <time>2021-11-21T15:00:58Z</time>
      </trkpt>
      <trkpt lat="44.19123" lon="1.3774">
        <ele>162.5</ele>
        <time>2021-11-21T15:00:59Z</time>
      </trkpt>
      <trkpt lat="44.19125" lon="1.37742">
        <ele>162.4</ele>
        <time>2021-11-21T15:01:01Z</time>
      </trkpt>
      <trkpt lat="44.19126" lon="1.37742">
        <ele>162.4</ele>
        <time>2021-11-21T15:01:02Z</time>
      </trkpt>
      <trkpt lat="44.19127" lon="1.37744">
        <ele>162.3</ele>
        <time>2021-11-21T15:01:03Z</time>
      </trkpt>
      <trkpt lat="44.19128" lon="1.37744">
        <ele>162.3</ele>
        <time>2021-11-21T15:01:04Z</time>
      </trkpt>
      <trkpt lat="44.19129" lon="1.37746">
        <ele>162.2</ele>
        <time>2021-11-21T15:01:06Z</time>
      </trkpt>
      <trkpt lat="44.1913" lon="1.37746">
        <ele>162.1</ele>
        <time>2021-11-21T15:01:07Z</time>
      </trkpt>
      <trkpt lat="44.19131" lon="1.37747">
        <ele>162.1</ele>
        <time>2021-11-21T15:01:08Z</time>
      </trkpt>
      <trkpt lat="44.19132" lon="1.37748">
        <ele>162</ele>
        <time>2021-11-21T15:01:09Z</time>
      </trkpt>
      <trkpt lat="44.19133" lon="1.37749">
        <ele>162</ele>
        <time>2021-11-21T15:01:10Z</time>
      </trkpt>
      <trkpt lat="44.19134" lon="1.3775">
        <ele>161.9</ele>
        <time>2021-11-21T15:01:11Z</time>
      </trkpt>
      <trkpt lat="44.19136" lon="1.37751">
        <ele>161.8</ele>
        <time>2021-11-21T15:01:13Z</time>
      </trkpt>
      <trkpt lat="44.19137" lon="1.37752">
        <ele>161.7</ele>
        <time>2021-11-21T15:01:14Z</time>
      </trkpt>
      <trkpt lat="44.19138" lon="1.37754">
        <ele>161.7</ele>
        <time>2021-11-21T15:01:15Z</time>
      </trkpt>
      <trkpt lat="44.19139" lon="1.37755">
        <ele>161.6</ele>
        <time>2021-11-21T15:01:17Z</time>
      </trkpt>
      <trkpt lat="44.1914" lon="1.37756">
        <ele>161.5</ele>
        <time>2021-11-21T15:01:18Z</time>
      </trkpt>
      <trkpt lat="44.19142" lon="1.37758">
        <ele>161.5</ele>
        <time>2021-11-21T15:01:19Z</time>
      </trkpt>
      <trkpt lat="44.19143" lon="1.37759">
        <ele>161.4</ele>
        <time>2021-11-21T15:01:20Z</time>
      </trkpt>
      <trkpt lat="44.19144" lon="1.37761">
        <ele>161.3</ele>
        <time>2021-11-21T15:01:22Z</time>
      </trkpt>
      <trkpt lat="44.19145" lon="1.37762">
        <ele>161.3</ele>
        <time>2021-11-21T15:01:23Z</time>
      </trkpt>
      <trkpt lat="44.19146" lon="1.37764">
        <ele>161.2</ele>
        <time>2021-11-21T15:01:24Z</time>
      </trkpt>
      <trkpt lat="44.19147" lon="1.37765">
        <ele>161.2</ele>
        <time>2021-11-21T15:01:25Z</time>
      </trkpt>
      <trkpt lat="44.19148" lon="1.37767">
        <ele>161.1</ele>
        <time>2021-11-21T15:01:26Z</time>
      </trkpt>
      <trkpt lat="44.19149" lon="1.37768">
        <ele>161</ele>
        <time>2021-11-21T15:01:27Z</time>
      </trkpt>
      <trkpt lat="44.1915" lon="1.37769">
        <ele>161</ele>
        <time>2021-11-21T15:01:29Z</time>
      </trkpt>
      <trkpt lat="44.19151" lon="1.3777">
        <ele>160.9</ele>
        <time>2021-11-21T15:01:30Z</time>
      </trkpt>
      <trkpt lat="44.19153" lon="1.37772">
        <ele>160.9</ele>
        <time>2021-11-21T15:01:31Z</time>
      </trkpt>
      <trkpt lat="44.19153" lon="1.37773">
        <ele>160.8</ele>
        <time>2021-11-21T15:01:32Z</time>
      </trkpt>
      <trkpt lat="44.19154" lon="1.37774">
        <ele>160.8</ele>
        <time>2021-11-21T15:01:33Z</time>
      </trkpt>
      <trkpt lat="44.19155" lon="1.37776">
        <ele>160.7</ele>
        <time>2021-11-21T15:01:34Z</time>
      </trkpt>
      <trkpt lat="44.19156" lon="1.37778">
        <ele>160.6</ele>
        <time>2021-11-21T15:01:36Z</time>
      </trkpt>
      <trkpt lat="44.19157" lon="1.3778">
        <ele>160.6</ele>
        <time>2021-11-21T15:01:37Z</time>
      </trkpt>
      <trkpt lat="44.19157" lon="1.37781">
        <ele>160.6</ele>
        <time>2021-11-21T15:01:38Z</time>
      </trkpt>
      <trkpt lat="44.19158" lon="1.37782">
        <ele>160.5</ele>
        <time>2021-11-21T15:01:40Z</time>
      </trkpt>
      <trkpt lat="44.19159" lon="1.37784">
        <ele>160.4</ele>
        <time>2021-11-21T15:01:41Z</time>
      </trkpt>
      <trkpt lat="44.19159" lon="1.37786">
        <ele>160.4</ele>
        <time>2021-11-21T15:01:42Z</time>
      </trkpt>
      <trkpt lat="44.1916" lon="1.37787">
        <ele>160.4</ele>
        <time>2021-11-21T15:01:43Z</time>
      </trkpt>
      <trkpt lat="44.1916" lon="1.37788">
        <ele>160.3</ele>
        <time>2021-11-21T15:01:44Z</time>
      </trkpt>
      <trkpt lat="44.19161" lon="1.3779">
        <ele>160.3</ele>
        <time>2021-11-21T15:01:45Z</time>
      </trkpt>
      <trkpt lat="44.19162" lon="1.37791">
        <ele>160.3</ele>
        <time>2021-11-21T15:01:46Z</time>
      </trkpt>
      <trkpt lat="44.19162" lon="1.37792">
        <ele>160.2</ele>
        <time>2021-11-21T15:01:48Z</time>
      </trkpt>
      <trkpt lat="44.19163" lon="1.37794">
        <ele>160.2</ele>
        <time>2021-11-21T15:01:49Z</time>
      </trkpt>
      <trkpt lat="44.19163" lon="1.37795">
        <ele>160.2</ele>
        <time>2021-11-21T15:01:50Z</time>
      </trkpt>
      <trkpt lat="44.19164" lon="1.37797">
        <ele>160.1</ele>
        <time>2021-11-21T15:01:51Z</time>
      </trkpt>
      <trkpt lat="44.19165" lon="1.37799">
        <ele>160.1</ele>
        <time>2021-11-21T15:01:52Z</time>
      </trkpt>
      <trkpt lat="44.19165" lon="1.378">
        <ele>160</ele>
        <time>2021-11-21T15:01:53Z</time>
      </trkpt>
      <trkpt lat="44.19166" lon="1.37801">
        <ele>160</ele>
        <time>2021-11-21T15:01:55Z</time>
      </trkpt>
      <trkpt lat="44.19166" lon="1.37803">
        <ele>160</ele>
        <time>2021-11-21T15:01:56Z</time>
      </trkpt>
      <trkpt lat="44.19166" lon="1.37804">
        <ele>160</ele>
        <time>2021-11-21T15:01:57Z</time>
      </trkpt>
      <trkpt lat="44.19167" lon="1.37805">
        <ele>159.9</ele>
        <time>2021-11-21T15:01:58Z</time>
      </trkpt>
      <trkpt lat="44.19167" lon="1.37806">
        <ele>159.9</ele>
        <time>2021-11-21T15:01:59Z</time>
      </trkpt>
      <trkpt lat="44.19168" lon="1.37809">
        <ele>159.8</ele>
        <time>2021-11-21T15:02:00Z</time>
      </trkpt>
      <trkpt lat="44.19168" lon="1.37811">
        <ele>159.8</ele>
        <time>2021-11-21T15:02:01Z</time>
      </trkpt>
      <trkpt lat="44.19169" lon="1.37812">
        <ele>159.8</ele>
        <time>2021-11-21T15:02:03Z</time>
      </trkpt>
      <trkpt lat="44.19169" lon="1.37814">
        <ele>159.7</ele>
        <time>2021-11-21T15:02:04Z</time>
      </trkpt>
      <trkpt lat="44.1917" lon="1.37815">
        <ele>159.7</ele>
        <time>2021-11-21T15:02:05Z</time>
      </trkpt>
      <trkpt lat="44.1917" lon="1.37817">
        <ele>159.7</ele>
        <time>2021-11-21T15:02:06Z</time>
      </trkpt>
      <trkpt lat="44.1917" lon="1.37817">
        <ele>159.7</ele>
        <time>2021-11-21T15:02:07Z</time>
      </trkpt>
      <trkpt lat="44.19171" lon="1.37819">
        <ele>159.6</ele>
        <time>2021-11-21T15:02:08Z</time>
      </trkpt>
      <trkpt lat="44.19171" lon="1.37821">
        <ele>159.6</ele>
        <time>2021-11-21T15:02:09Z</time>
      </trkpt>
      <trkpt lat="44.19171" lon="1.37822">
        <ele>159.6</ele>
        <time>2021-11-21T15:02:11Z</time>
      </trkpt>
      <trkpt lat="44.19172" lon="1.37825">
        <ele>159.5</ele>
        <time>2021-11-21T15:02:12Z</time>
      </trkpt>
      <trkpt lat="44.19173" lon="1.37827">
        <ele>159.5</ele>
        <time>2021-11-21T15:02:13Z</time>
      </trkpt>
      <trkpt lat="44.19173" lon="1.37828">
        <ele>159.4</ele>
        <time>2021-11-21T15:02:14Z</time>
      </trkpt>
      <trkpt lat="44.19173" lon="1.37829">
        <ele>159.4</ele>
        <time>2021-11-21T15:02:15Z</time>
      </trkpt>
      <trkpt lat="44.19174" lon="1.37833">
        <ele>159.3</ele>
        <time>2021-11-21T15:02:16Z</time>
      </trkpt>
      <trkpt lat="44.19174" lon="1.37834">
        <ele>159.3</ele>
        <time>2021-11-21T15:02:18Z</time>
      </trkpt>
      <trkpt lat="44.19175" lon="1.37835">
        <ele>159.3</ele>
        <time>2021-11-21T15:02:19Z</time>
      </trkpt>
      <trkpt lat="44.19175" lon="1.37836">
        <ele>159.3</ele>
        <time>2021-11-21T15:02:20Z</time>
      </trkpt>
      <trkpt lat="44.19176" lon="1.37839">
        <ele>159.2</ele>
        <time>2021-11-21T15:02:21Z</time>
      </trkpt>
      <trkpt lat="44.19176" lon="1.3784">
        <ele>159.2</ele>
        <time>2021-11-21T15:02:22Z</time>
      </trkpt>
      <trkpt lat="44.19177" lon="1.37841">
        <ele>159.2</ele>
        <time>2021-11-21T15:02:23Z</time>
      </trkpt>
      <trkpt lat="44.19177" lon="1.37843">
        <ele>159.1</ele>
        <time>2021-11-21T15:02:24Z</time>
      </trkpt>
      <trkpt lat="44.19178" lon="1.37845">
        <ele>159.1</ele>
        <time>2021-11-21T15:02:26Z</time>
      </trkpt>
      <trkpt lat="44.19178" lon="1.37847">
        <ele>159.1</ele>
        <time>2021-11-21T15:02:27Z</time>
      </trkpt>
      <trkpt lat="44.19179" lon="1.37849">
        <ele>159</ele>
        <time>2021-11-21T15:02:28Z</time>
      </trkpt>
      <trkpt lat="44.19179" lon="1.37851">
        <ele>159</ele>
        <time>2021-11-21T15:02:29Z</time>
      </trkpt>
      <trkpt lat="44.1918" lon="1.37852">
        <ele>159</ele>
        <time>2021-11-21T15:02:30Z</time>
      </trkpt>
      <trkpt lat="44.1918" lon="1.37854">
        <ele>158.9</ele>
        <time>2021-11-21T15:02:31Z</time>
      </trkpt>
      <trkpt lat="44.1918" lon="1.37856">
        <ele>158.9</ele>
        <time>2021-11-21T15:02:32Z</time>
      </trkpt>
      <trkpt lat="44.19181" lon="1.37858">
        <ele>158.8</ele>
        <time>2021-11-21T15:02:34Z</time>
      </trkpt>
      <trkpt lat="44.19181" lon="1.37859">
        <ele>158.8</ele>
        <time>2021-11-21T15:02:35Z</time>
      </trkpt>
      <trkpt lat="44.19182" lon="1.37861">
        <ele>158.8</ele>
        <time>2021-11-21T15:02:36Z</time>
      </trkpt>
      <trkpt lat="44.19182" lon="1.37861">
        <ele>158.8</ele>
        <time>2021-11-21T15:02:37Z</time>
      </trkpt>
      <trkpt lat="44.19182" lon="1.37863">
        <ele>158.8</ele>
        <time>2021-11-21T15:02:38Z</time>
      </trkpt>
      <trkpt lat="44.19183" lon="1.37864">
        <ele>158.7</ele>
        <time>2021-11-21T15:02:39Z</time>
      </trkpt>
      <trkpt lat="44.19184" lon="1.37867">
        <ele>158.7</ele>
        <time>2021-11-21T15:02:40Z</time>
      </trkpt>
      <trkpt lat="44.19184" lon="1.37868">
        <ele>158.6</ele>
        <time>2021-11-21T15:02:42Z</time>
      </trkpt>
      <trkpt lat="44.19184" lon="1.37869">
        <ele>158.6</ele>
        <time>2021-11-21T15:02:43Z</time>
      </trkpt>
      <trkpt lat="44.19186" lon="1.37871">
        <ele>158.6</ele>
        <time>2021-11-21T15:02:44Z</time>
      </trkpt>
      <trkpt lat="44.19186" lon="1.37873">
        <ele>158.5</ele>
        <time>2021-11-21T15:02:45Z</time>
      </trkpt>
      <trkpt lat="44.19187" lon="1.37874">
        <ele>158.5</ele>
        <time>2021-11-21T15:02:46Z</time>
      </trkpt>
      <trkpt lat="44.19187" lon="1.37875">
        <ele>158.5</ele>
        <time>2021-11-21T15:02:47Z</time>
      </trkpt>
      <trkpt lat="44.19188" lon="1.37876">
        <ele>158.5</ele>
        <time>2021-11-21T15:02:49Z</time>
      </trkpt>
      <trkpt lat="44.19188" lon="1.37877">
        <ele>158.4</ele>
        <time>2021-11-21T15:02:50Z</time>
      </trkpt>
      <trkpt lat="44.19189" lon="1.37879">
        <ele>158.4</ele>
        <time>2021-11-21T15:02:51Z</time>
      </trkpt>
      <trkpt lat="44.1919" lon="1.3788">
        <ele>158.4</ele>
        <time>2021-11-21T15:02:52Z</time>
      </trkpt>
      <trkpt lat="44.19191" lon="1.37883">
        <ele>158.3</ele>
        <time>2021-11-21T15:02:53Z</time>
      </trkpt>
      <trkpt lat="44.19192" lon="1.37884">
        <ele>158.3</ele>
        <time>2021-11-21T15:02:54Z</time>
      </trkpt>
      <trkpt lat="44.19192" lon="1.37885">
        <ele>158.2</ele>
        <time>2021-11-21T15:02:56Z</time>
      </trkpt>
      <trkpt lat="44.19193" lon="1.37886">
        <ele>158.2</ele>
        <time>2021-11-21T15:02:57Z</time>
      </trkpt>
      <trkpt lat="44.19193" lon="1.37887">
        <ele>158.2</ele>
        <time>2021-11-21T15:02:58Z</time>
      </trkpt>
      <trkpt lat="44.19194" lon="1.37888">
        <ele>158.2</ele>
        <time>2021-11-21T15:02:59Z</time>
      </trkpt>
      <trkpt lat="44.19195" lon="1.3789">
        <ele>158.1</ele>
        <time>2021-11-21T15:03:00Z</time>
      </trkpt>
      <trkpt lat="44.19195" lon="1.37891">
        <ele>158.1</ele>
        <time>2021-11-21T15:03:01Z</time>
      </trkpt>
      <trkpt lat="44.19196" lon="1.37893">
        <ele>158.1</ele>
        <time>2021-11-21T15:03:02Z</time>
      </trkpt>
      <trkpt lat="44.19196" lon="1.37894">
        <ele>158</ele>
        <time>2021-11-21T15:03:04Z</time>
      </trkpt>
      <trkpt lat="44.19197" lon="1.37896">
        <ele>158</ele>
        <time>2021-11-21T15:03:05Z</time>
      </trkpt>
      <trkpt lat="44.19198" lon="1.37897">
        <ele>158</ele>
        <time>2021-11-21T15:03:06Z</time>
      </trkpt>
      <trkpt lat="44.19199" lon="1.379">
        <ele>157.9</ele>
        <time>2021-11-21T15:03:07Z</time>
      </trkpt>
      <trkpt lat="44.19199" lon="1.37901">
        <ele>157.9</ele>
        <time>2021-11-21T15:03:08Z</time>
      </trkpt>
      <trkpt lat="44.192" lon="1.37902">
        <ele>157.9</ele>
        <time>2021-11-21T15:03:09Z</time>
      </trkpt>
      <trkpt lat="44.19201" lon="1.37904">
        <ele>157.8</ele>
        <time>2021-11-21T15:03:11Z</time>
      </trkpt>
      <trkpt lat="44.19202" lon="1.37904">
        <ele>157.8</ele>
        <time>2021-11-21T15:03:12Z</time>
      </trkpt>
      <trkpt lat="44.19203" lon="1.37905">
        <ele>157.7</ele>
        <time>2021-11-21T15:03:13Z</time>
      </trkpt>
      <trkpt lat="44.19205" lon="1.37906">
        <ele>157.7</ele>
        <time>2021-11-21T15:03:14Z</time>
      </trkpt>
      <trkpt lat="44.19206" lon="1.37907">
        <ele>157.7</ele>
        <time>2021-11-21T15:03:15Z</time>
      </trkpt>
      <trkpt lat="44.19207" lon="1.37907">
        <ele>157.5</ele>
        <time>2021-11-21T15:03:16Z</time>
      </trkpt>
      <trkpt lat="44.19208" lon="1.37907">
        <ele>157.5</ele>
        <time>2021-11-21T15:03:18Z</time>
      </trkpt>
      <trkpt lat="44.19209" lon="1.37906">
        <ele>157.5</ele>
        <time>2021-11-21T15:03:19Z</time>
      </trkpt>
      <trkpt lat="44.19211" lon="1.37906">
        <ele>157.5</ele>
        <time>2021-11-21T15:03:20Z</time>
      </trkpt>
      <trkpt lat="44.19212" lon="1.37905">
        <ele>157.4</ele>
        <time>2021-11-21T15:03:21Z</time>
      </trkpt>
      <trkpt lat="44.19214" lon="1.37904">
        <ele>157.4</ele>
        <time>2021-11-21T15:03:22Z</time>
      </trkpt>
      <trkpt lat="44.19214" lon="1.37902">
        <ele>157.4</ele>
        <time>2021-11-21T15:03:23Z</time>
      </trkpt>
      <trkpt lat="44.19215" lon="1.379">
        <ele>157.4</ele>
        <time>2021-11-21T15:03:24Z</time>
      </trkpt>
      <trkpt lat="44.19215" lon="1.37898">
        <ele>157.4</ele>
        <time>2021-11-21T15:03:26Z</time>
      </trkpt>
      <trkpt lat="44.19217" lon="1.37896">
        <ele>157.3</ele>
        <time>2021-11-21T15:03:27Z</time>
      </trkpt>
      <trkpt lat="44.19217" lon="1.37895">
        <ele>157.3</ele>
        <time>2021-11-21T15:03:28Z</time>
      </trkpt>
      <trkpt lat="44.19217" lon="1.37892">
        <ele>157.3</ele>
        <time>2021-11-21T15:03:29Z</time>
      </trkpt>
      <trkpt lat="44.19218" lon="1.3789">
        <ele>157.2</ele>
        <time>2021-11-21T15:03:30Z</time>
      </trkpt>
      <trkpt lat="44.19218" lon="1.37889">
        <ele>157.2</ele>
        <time>2021-11-21T15:03:31Z</time>
      </trkpt>
      <trkpt lat="44.19218" lon="1.37887">
        <ele>157.2</ele>
        <time>2021-11-21T15:03:32Z</time>
      </trkpt>
      <trkpt lat="44.19219" lon="1.37885">
        <ele>157.1</ele>
        <time>2021-11-21T15:03:33Z</time>
      </trkpt>
      <trkpt lat="44.1922" lon="1.37883">
        <ele>157.1</ele>
        <time>2021-11-21T15:03:34Z</time>
      </trkpt>
      <trkpt lat="44.1922" lon="1.37881">
        <ele>157</ele>
        <time>2021-11-21T15:03:36Z</time>
      </trkpt>
      <trkpt lat="44.1922" lon="1.3788">
        <ele>157</ele>
        <time>2021-11-21T15:03:37Z</time>
      </trkpt>
      <trkpt lat="44.19221" lon="1.37878">
        <ele>156.9</ele>
        <time>2021-11-21T15:03:38Z</time>
      </trkpt>
      <trkpt lat="44.19222" lon="1.37876">
        <ele>156.9</ele>
        <time>2021-11-21T15:03:39Z</time>
      </trkpt>
      <trkpt lat="44.19222" lon="1.37875">
        <ele>156.9</ele>
        <time>2021-11-21T15:03:40Z</time>
      </trkpt>
      <trkpt lat="44.19223" lon="1.37874">
        <ele>156.8</ele>
        <time>2021-11-21T15:03:41Z</time>
      </trkpt>
      <trkpt lat="44.19223" lon="1.37872">
        <ele>156.8</ele>
        <time>2021-11-21T15:03:42Z</time>
      </trkpt>
      <trkpt lat="44.19224" lon="1.3787">
        <ele>156.7</ele>
        <time>2021-11-21T15:03:43Z</time>
      </trkpt>
      <trkpt lat="44.19224" lon="1.37869">
        <ele>156.7</ele>
        <time>2021-11-21T15:03:45Z</time>
      </trkpt>
      <trkpt lat="44.19225" lon="1.37868">
        <ele>156.6</ele>
        <time>2021-11-21T15:03:46Z</time>
      </trkpt>
      <trkpt lat="44.19226" lon="1.37865">
        <ele>156.5</ele>
        <time>2021-11-21T15:03:47Z</time>
      </trkpt>
      <trkpt lat="44.19227" lon="1.37864">
        <ele>156.5</ele>
        <time>2021-11-21T15:03:48Z</time>
      </trkpt>
      <trkpt lat="44.19228" lon="1.37862">
        <ele>156.4</ele>
        <time>2021-11-21T15:03:49Z</time>
      </trkpt>
      <trkpt lat="44.19229" lon="1.37861">
        <ele>156.3</ele>
        <time>2021-11-21T15:03:50Z</time>
      </trkpt>
      <trkpt lat="44.19229" lon="1.3786">
        <ele>156.3</ele>
        <time>2021-11-21T15:03:51Z</time>
      </trkpt>
      <trkpt lat="44.19231" lon="1.37858">
        <ele>156.2</ele>
        <time>2021-11-21T15:03:52Z</time>
      </trkpt>
      <trkpt lat="44.19231" lon="1.37857">
        <ele>156.1</ele>
        <time>2021-11-21T15:03:54Z</time>
      </trkpt>
      <trkpt lat="44.19232" lon="1.37856">
        <ele>156.1</ele>
        <time>2021-11-21T15:03:55Z</time>
      </trkpt>
      <trkpt lat="44.19233" lon="1.37855">
        <ele>156</ele>
        <time>2021-11-21T15:03:56Z</time>
      </trkpt>
      <trkpt lat="44.19234" lon="1.37853">
        <ele>155.9</ele>
        <time>2021-11-21T15:03:57Z</time>
      </trkpt>
      <trkpt lat="44.19235" lon="1.37851">
        <ele>155.8</ele>
        <time>2021-11-21T15:03:58Z</time>
      </trkpt>
      <trkpt lat="44.19235" lon="1.37849">
        <ele>155.7</ele>
        <time>2021-11-21T15:04:00Z</time>
      </trkpt>
      <trkpt lat="44.19236" lon="1.37848">
        <ele>155.7</ele>
        <time>2021-11-21T15:04:01Z</time>
      </trkpt>
      <trkpt lat="44.19237" lon="1.37847">
        <ele>155.6</ele>
        <time>2021-11-21T15:04:02Z</time>
      </trkpt>
      <trkpt lat="44.19237" lon="1.37845">
        <ele>155.5</ele>
        <time>2021-11-21T15:04:03Z</time>
      </trkpt>
      <trkpt lat="44.19238" lon="1.37843">
        <ele>155.4</ele>
        <time>2021-11-21T15:04:05Z</time>
      </trkpt>
      <trkpt lat="44.19239" lon="1.37842">
        <ele>155.4</ele>
        <time>2021-11-21T15:04:06Z</time>
      </trkpt>
      <trkpt lat="44.1924" lon="1.37839">
        <ele>155.2</ele>
        <time>2021-11-21T15:04:07Z</time>
      </trkpt>
      <trkpt lat="44.1924" lon="1.37838">
        <ele>155.2</ele>
        <time>2021-11-21T15:04:08Z</time>
      </trkpt>
      <trkpt lat="44.1924" lon="1.37837">
        <ele>155.1</ele>
        <time>2021-11-21T15:04:09Z</time>
      </trkpt>
      <trkpt lat="44.19241" lon="1.37835">
        <ele>155</ele>
        <time>2021-11-21T15:04:10Z</time>
      </trkpt>
      <trkpt lat="44.19242" lon="1.37833">
        <ele>154.9</ele>
        <time>2021-11-21T15:04:11Z</time>
      </trkpt>
      <trkpt lat="44.19243" lon="1.37831">
        <ele>154.8</ele>
        <time>2021-11-21T15:04:13Z</time>
      </trkpt>
      <trkpt lat="44.19243" lon="1.3783">
        <ele>154.8</ele>
        <time>2021-11-21T15:04:14Z</time>
      </trkpt>
      <trkpt lat="44.19244" lon="1.37829">
        <ele>154.7</ele>
        <time>2021-11-21T15:04:15Z</time>
      </trkpt>
      <trkpt lat="44.19244" lon="1.37828">
        <ele>154.6</ele>
        <time>2021-11-21T15:04:16Z</time>
      </trkpt>
      <trkpt lat="44.19246" lon="1.37825">
        <ele>154.5</ele>
        <time>2021-11-21T15:04:17Z</time>
      </trkpt>
      <trkpt lat="44.19246" lon="1.37824">
        <ele>154.4</ele>
        <time>2021-11-21T15:04:18Z</time>
      </trkpt>
      <trkpt lat="44.19246" lon="1.37823">
        <ele>154.4</ele>
        <time>2021-11-21T15:04:19Z</time>
      </trkpt>
      <trkpt lat="44.19247" lon="1.3782">
        <ele>154.3</ele>
        <time>2021-11-21T15:04:20Z</time>
      </trkpt>
      <trkpt lat="44.19248" lon="1.37819">
        <ele>154.2</ele>
        <time>2021-11-21T15:04:22Z</time>
      </trkpt>
      <trkpt lat="44.19248" lon="1.37818">
        <ele>154.1</ele>
        <time>2021-11-21T15:04:23Z</time>
      </trkpt>
      <trkpt lat="44.19249" lon="1.37817">
        <ele>154</ele>
        <time>2021-11-21T15:04:24Z</time>
      </trkpt>
      <trkpt lat="44.19249" lon="1.37815">
        <ele>154</ele>
        <time>2021-11-21T15:04:25Z</time>
      </trkpt>
      <trkpt lat="44.1925" lon="1.37814">
        <ele>153.9</ele>
        <time>2021-11-21T15:04:26Z</time>
      </trkpt>
      <trkpt lat="44.19251" lon="1.37812">
        <ele>153.8</ele>
        <time>2021-11-21T15:04:27Z</time>
      </trkpt>
      <trkpt lat="44.19252" lon="1.37811">
        <ele>153.7</ele>
        <time>2021-11-21T15:04:28Z</time>
      </trkpt>
      <trkpt lat="44.19252" lon="1.3781">
        <ele>153.6</ele>
        <time>2021-11-21T15:04:29Z</time>
      </trkpt>
      <trkpt lat="44.19253" lon="1.37808">
        <ele>153.5</ele>
        <time>2021-11-21T15:04:31Z</time>
      </trkpt>
      <trkpt lat="44.19253" lon="1.37807">
        <ele>153.4</ele>
        <time>2021-11-21T15:04:32Z</time>
      </trkpt>
      <trkpt lat="44.19255" lon="1.37804">
        <ele>153.3</ele>
        <time>2021-11-21T15:04:33Z</time>
      </trkpt>
      <trkpt lat="44.19255" lon="1.37803">
        <ele>153.2</ele>
        <time>2021-11-21T15:04:34Z</time>
      </trkpt>
      <trkpt lat="44.19255" lon="1.37803">
        <ele>153.2</ele>
        <time>2021-11-21T15:04:35Z</time>
      </trkpt>
      <trkpt lat="44.19256" lon="1.37801">
        <ele>153.1</ele>
        <time>2021-11-21T15:04:36Z</time>
      </trkpt>
      <trkpt lat="44.19257" lon="1.37799">
        <ele>153</ele>
        <time>2021-11-21T15:04:37Z</time>
      </trkpt>
      <trkpt lat="44.19257" lon="1.37798">
        <ele>152.9</ele>
        <time>2021-11-21T15:04:38Z</time>
      </trkpt>
      <trkpt lat="44.19258" lon="1.37797">
        <ele>152.8</ele>
        <time>2021-11-21T15:04:39Z</time>
      </trkpt>
      <trkpt lat="44.19259" lon="1.37796">
        <ele>152.7</ele>
        <time>2021-11-21T15:04:41Z</time>
      </trkpt>
      <trkpt lat="44.19259" lon="1.37794">
        <ele>152.6</ele>
        <time>2021-11-21T15:04:42Z</time>
      </trkpt>
      <trkpt lat="44.1926" lon="1.37792">
        <ele>152.5</ele>
        <time>2021-11-21T15:04:43Z</time>
      </trkpt>
      <trkpt lat="44.19261" lon="1.37791">
        <ele>152.4</ele>
        <time>2021-11-21T15:04:44Z</time>
      </trkpt>
      <trkpt lat="44.19262" lon="1.3779">
        <ele>152.3</ele>
        <time>2021-11-21T15:04:45Z</time>
      </trkpt>
      <trkpt lat="44.19263" lon="1.37789">
        <ele>152.2</ele>
        <time>2021-11-21T15:04:46Z</time>
      </trkpt>
      <trkpt lat="44.19264" lon="1.37787">
        <ele>152.1</ele>
        <time>2021-11-21T15:04:48Z</time>
      </trkpt>
      <trkpt lat="44.19264" lon="1.37786">
        <ele>152.1</ele>
        <time>2021-11-21T15:04:49Z</time>
      </trkpt>
      <trkpt lat="44.19265" lon="1.37785">
        <ele>152</ele>
        <time>2021-11-21T15:04:50Z</time>
      </trkpt>
      <trkpt lat="44.19266" lon="1.37782">
        <ele>151.9</ele>
        <time>2021-11-21T15:04:51Z</time>
      </trkpt>
      <trkpt lat="44.19266" lon="1.37781">
        <ele>151.8</ele>
        <time>2021-11-21T15:04:52Z</time>
      </trkpt>
      <trkpt lat="44.19267" lon="1.3778">
        <ele>151.7</ele>
        <time>2021-11-21T15:04:53Z</time>
      </trkpt>
      <trkpt lat="44.19268" lon="1.37779">
        <ele>151.7</ele>
        <time>2021-11-21T15:04:54Z</time>
      </trkpt>
      <trkpt lat="44.19268" lon="1.37778">
        <ele>151.6</ele>
        <time>2021-11-21T15:04:55Z</time>
      </trkpt>
      <trkpt lat="44.19269" lon="1.37777">
        <ele>151.5</ele>
        <time>2021-11-21T15:04:57Z</time>
      </trkpt>
      <trkpt lat="44.1927" lon="1.37775">
        <ele>151.4</ele>
        <time>2021-11-21T15:04:58Z</time>
      </trkpt>
      <trkpt lat="44.19271" lon="1.37774">
        <ele>151.3</ele>
        <time>2021-11-21T15:04:59Z</time>
      </trkpt>
      <trkpt lat="44.19271" lon="1.37772">
        <ele>151.3</ele>
        <time>2021-11-21T15:05:00Z</time>
      </trkpt>
      <trkpt lat="44.19272" lon="1.37771">
        <ele>151.2</ele>
        <time>2021-11-21T15:05:01Z</time>
      </trkpt>
      <trkpt lat="44.19272" lon="1.37769">
        <ele>151.1</ele>
        <time>2021-11-21T15:05:02Z</time>
      </trkpt>
      <trkpt lat="44.19273" lon="1.37767">
        <ele>151</ele>
        <time>2021-11-21T15:05:03Z</time>
      </trkpt>
      <trkpt lat="44.19273" lon="1.37765">
        <ele>150.9</ele>
        <time>2021-11-21T15:05:04Z</time>
      </trkpt>
      <trkpt lat="44.19274" lon="1.37764">
        <ele>150.8</ele>
        <time>2021-11-21T15:05:06Z</time>
      </trkpt>
      <trkpt lat="44.19274" lon="1.37763">
        <ele>150.8</ele>
        <time>2021-11-21T15:05:07Z</time>
      </trkpt>
      <trkpt lat="44.19274" lon="1.37762">
        <ele>150.7</ele>
        <time>2021-11-21T15:05:08Z</time>
      </trkpt>
      <trkpt lat="44.19275" lon="1.3776">
        <ele>150.7</ele>
        <time>2021-11-21T15:05:09Z</time>
      </trkpt>
      <trkpt lat="44.19276" lon="1.37758">
        <ele>150.5</ele>
        <time>2021-11-21T15:05:10Z</time>
      </trkpt>
      <trkpt lat="44.19276" lon="1.37757">
        <ele>150.5</ele>
        <time>2021-11-21T15:05:11Z</time>
      </trkpt>
      <trkpt lat="44.19277" lon="1.37756">
        <ele>150.4</ele>
        <time>2021-11-21T15:05:12Z</time>
      </trkpt>
      <trkpt lat="44.19278" lon="1.37753">
        <ele>150.3</ele>
        <time>2021-11-21T15:05:13Z</time>
      </trkpt>
      <trkpt lat="44.19278" lon="1.37752">
        <ele>150.2</ele>
        <time>2021-11-21T15:05:15Z</time>
      </trkpt>
      <trkpt lat="44.19278" lon="1.37751">
        <ele>150.2</ele>
        <time>2021-11-21T15:05:16Z</time>
      </trkpt>
      <trkpt lat="44.19279" lon="1.37749">
        <ele>150.1</ele>
        <time>2021-11-21T15:05:17Z</time>
      </trkpt>
      <trkpt lat="44.1928" lon="1.37747">
        <ele>150</ele>
        <time>2021-11-21T15:05:18Z</time>
      </trkpt>
      <trkpt lat="44.1928" lon="1.37746">
        <ele>149.9</ele>
        <time>2021-11-21T15:05:19Z</time>
      </trkpt>
      <trkpt lat="44.19281" lon="1.37744">
        <ele>149.8</ele>
        <time>2021-11-21T15:05:20Z</time>
      </trkpt>
      <trkpt lat="44.19281" lon="1.37743">
        <ele>149.8</ele>
        <time>2021-11-21T15:05:21Z</time>
      </trkpt>
      <trkpt lat="44.19282" lon="1.3774">
        <ele>149.6</ele>
        <time>2021-11-21T15:05:22Z</time>
      </trkpt>
      <trkpt lat="44.19282" lon="1.37739">
        <ele>149.6</ele>
        <time>2021-11-21T15:05:24Z</time>
      </trkpt>
      <trkpt lat="44.19283" lon="1.37738">
        <ele>149.5</ele>
        <time>2021-11-21T15:05:25Z</time>
      </trkpt>
      <trkpt lat="44.19284" lon="1.37735">
        <ele>149.4</ele>
        <time>2021-11-21T15:05:26Z</time>
      </trkpt>
      <trkpt lat="44.19285" lon="1.37735">
        <ele>149.4</ele>
        <time>2021-11-21T15:05:27Z</time>
      </trkpt>
      <trkpt lat="44.19285" lon="1.37734">
        <ele>149.3</ele>
        <time>2021-11-21T15:05:28Z</time>
      </trkpt>
      <trkpt lat="44.19287" lon="1.37732">
        <ele>149.2</ele>
        <time>2021-11-21T15:05:29Z</time>
      </trkpt>
      <trkpt lat="44.19287" lon="1.37731">
        <ele>149.2</ele>
        <time>2021-11-21T15:05:30Z</time>
      </trkpt>
      <trkpt lat="44.19288" lon="1.3773">
        <ele>149.2</ele>
        <time>2021-11-21T15:05:31Z</time>
      </trkpt>
      <trkpt lat="44.19288" lon="1.37729">
        <ele>149.1</ele>
        <time>2021-11-21T15:05:33Z</time>
      </trkpt>
      <trkpt lat="44.19289" lon="1.37728">
        <ele>149</ele>
        <time>2021-11-21T15:05:34Z</time>
      </trkpt>
      <trkpt lat="44.1929" lon="1.37726">
        <ele>149</ele>
        <time>2021-11-21T15:05:35Z</time>
      </trkpt>
      <trkpt lat="44.1929" lon="1.37725">
        <ele>148.9</ele>
        <time>2021-11-21T15:05:36Z</time>
      </trkpt>
      <trkpt lat="44.19291" lon="1.37724">
        <ele>148.9</ele>
        <time>2021-11-21T15:05:37Z</time>
      </trkpt>
      <trkpt lat="44.19292" lon="1.37723">
        <ele>148.8</ele>
        <time>2021-11-21T15:05:38Z</time>
      </trkpt>
      <trkpt lat="44.19293" lon="1.3772">
        <ele>148.7</ele>
        <time>2021-11-21T15:05:39Z</time>
      </trkpt>
      <trkpt lat="44.19294" lon="1.37719">
        <ele>148.7</ele>
        <time>2021-11-21T15:05:41Z</time>
      </trkpt>
      <trkpt lat="44.19294" lon="1.37718">
        <ele>148.6</ele>
        <time>2021-11-21T15:05:42Z</time>
      </trkpt>
      <trkpt lat="44.19295" lon="1.37717">
        <ele>148.6</ele>
        <time>2021-11-21T15:05:43Z</time>
      </trkpt>
      <trkpt lat="44.19296" lon="1.37715">
        <ele>148.5</ele>
        <time>2021-11-21T15:05:44Z</time>
      </trkpt>
      <trkpt lat="44.19297" lon="1.37713">
        <ele>148.4</ele>
        <time>2021-11-21T15:05:45Z</time>
      </trkpt>
      <trkpt lat="44.19297" lon="1.37712">
        <ele>148.4</ele>
        <time>2021-11-21T15:05:46Z</time>
      </trkpt>
      <trkpt lat="44.19298" lon="1.3771">
        <ele>148.3</ele>
        <time>2021-11-21T15:05:47Z</time>
      </trkpt>
      <trkpt lat="44.19299" lon="1.37709">
        <ele>148.3</ele>
        <time>2021-11-21T15:05:48Z</time>
      </trkpt>
      <trkpt lat="44.19299" lon="1.37707">
        <ele>148.2</ele>
        <time>2021-11-21T15:05:49Z</time>
      </trkpt>
      <trkpt lat="44.193" lon="1.37706">
        <ele>148.2</ele>
        <time>2021-11-21T15:05:51Z</time>
      </trkpt>
      <trkpt lat="44.19301" lon="1.37704">
        <ele>148.1</ele>
        <time>2021-11-21T15:05:52Z</time>
      </trkpt>
      <trkpt lat="44.19301" lon="1.37702">
        <ele>148.1</ele>
        <time>2021-11-21T15:05:53Z</time>
      </trkpt>
      <trkpt lat="44.19302" lon="1.377">
        <ele>148</ele>
        <time>2021-11-21T15:05:54Z</time>
      </trkpt>
      <trkpt lat="44.19303" lon="1.37699">
        <ele>147.9</ele>
        <time>2021-11-21T15:05:55Z</time>
      </trkpt>
      <trkpt lat="44.19303" lon="1.37697">
        <ele>147.9</ele>
        <time>2021-11-21T15:05:56Z</time>
      </trkpt>
      <trkpt lat="44.19304" lon="1.37695">
        <ele>147.8</ele>
        <time>2021-11-21T15:05:57Z</time>
      </trkpt>
      <trkpt lat="44.19305" lon="1.37694">
        <ele>147.8</ele>
        <time>2021-11-21T15:05:58Z</time>
      </trkpt>
      <trkpt lat="44.19305" lon="1.37692">
        <ele>147.8</ele>
        <time>2021-11-21T15:05:59Z</time>
      </trkpt>
      <trkpt lat="44.19306" lon="1.37691">
        <ele>147.7</ele>
        <time>2021-11-21T15:06:01Z</time>
      </trkpt>
      <trkpt lat="44.19307" lon="1.37689">
        <ele>147.7</ele>
        <time>2021-11-21T15:06:02Z</time>
      </trkpt>
      <trkpt lat="44.19308" lon="1.37687">
        <ele>147.6</ele>
        <time>2021-11-21T15:06:03Z</time>
      </trkpt>
      <trkpt lat="44.19308" lon="1.37686">
        <ele>147.6</ele>
        <time>2021-11-21T15:06:04Z</time>
      </trkpt>
      <trkpt lat="44.19309" lon="1.37684">
        <ele>147.5</ele>
        <time>2021-11-21T15:06:05Z</time>
      </trkpt>
      <trkpt lat="44.1931" lon="1.37683">
        <ele>147.5</ele>
        <time>2021-11-21T15:06:06Z</time>
      </trkpt>
      <trkpt lat="44.19311" lon="1.37681">
        <ele>147.4</ele>
        <time>2021-11-21T15:06:07Z</time>
      </trkpt>
      <trkpt lat="44.19312" lon="1.37678">
        <ele>147.3</ele>
        <time>2021-11-21T15:06:09Z</time>
      </trkpt>
      <trkpt lat="44.19313" lon="1.37677">
        <ele>147.3</ele>
        <time>2021-11-21T15:06:10Z</time>
      </trkpt>
      <trkpt lat="44.19313" lon="1.37676">
        <ele>147.3</ele>
        <time>2021-11-21T15:06:11Z</time>
      </trkpt>
      <trkpt lat="44.19314" lon="1.37674">
        <ele>147.2</ele>
        <time>2021-11-21T15:06:12Z</time>
      </trkpt>
      <trkpt lat="44.19315" lon="1.37673">
        <ele>147.2</ele>
        <time>2021-11-21T15:06:13Z</time>
      </trkpt>
      <trkpt lat="44.19315" lon="1.37672">
        <ele>147.1</ele>
        <time>2021-11-21T15:06:14Z</time>
      </trkpt>
      <trkpt lat="44.19316" lon="1.37671">
        <ele>147.1</ele>
        <time>2021-11-21T15:06:15Z</time>
      </trkpt>
      <trkpt lat="44.19317" lon="1.37668">
        <ele>147</ele>
        <time>2021-11-21T15:06:17Z</time>
      </trkpt>
      <trkpt lat="44.19318" lon="1.37667">
        <ele>147</ele>
        <time>2021-11-21T15:06:18Z</time>
      </trkpt>
      <trkpt lat="44.19319" lon="1.37665">
        <ele>146.9</ele>
        <time>2021-11-21T15:06:19Z</time>
      </trkpt>
      <trkpt lat="44.19319" lon="1.37664">
        <ele>146.9</ele>
        <time>2021-11-21T15:06:21Z</time>
      </trkpt>
      <trkpt lat="44.1932" lon="1.37661">
        <ele>146.8</ele>
        <time>2021-11-21T15:06:22Z</time>
      </trkpt>
      <trkpt lat="44.19321" lon="1.3766">
        <ele>146.8</ele>
        <time>2021-11-21T15:06:23Z</time>
      </trkpt>
      <trkpt lat="44.19321" lon="1.3766">
        <ele>146.7</ele>
        <time>2021-11-21T15:06:24Z</time>
      </trkpt>
      <trkpt lat="44.19322" lon="1.37658">
        <ele>146.7</ele>
        <time>2021-11-21T15:06:25Z</time>
      </trkpt>
      <trkpt lat="44.19323" lon="1.37657">
        <ele>146.7</ele>
        <time>2021-11-21T15:06:26Z</time>
      </trkpt>
      <trkpt lat="44.19323" lon="1.37655">
        <ele>146.6</ele>
        <time>2021-11-21T15:06:27Z</time>
      </trkpt>
      <trkpt lat="44.19323" lon="1.37654">
        <ele>146.6</ele>
        <time>2021-11-21T15:06:28Z</time>
      </trkpt>
      <trkpt lat="44.19324" lon="1.37653">
        <ele>146.5</ele>
        <time>2021-11-21T15:06:30Z</time>
      </trkpt>
      <trkpt lat="44.19324" lon="1.37651">
        <ele>146.5</ele>
        <time>2021-11-21T15:06:31Z</time>
      </trkpt>
      <trkpt lat="44.19325" lon="1.3765">
        <ele>146.4</ele>
        <time>2021-11-21T15:06:32Z</time>
      </trkpt>
      <trkpt lat="44.19325" lon="1.37648">
        <ele>146.4</ele>
        <time>2021-11-21T15:06:33Z</time>
      </trkpt>
      <trkpt lat="44.19326" lon="1.37647">
        <ele>146.4</ele>
        <time>2021-11-21T15:06:34Z</time>
      </trkpt>
      <trkpt lat="44.19327" lon="1.37645">
        <ele>146.3</ele>
        <time>2021-11-21T15:06:35Z</time>
      </trkpt>
      <trkpt lat="44.19327" lon="1.37644">
        <ele>146.3</ele>
        <time>2021-11-21T15:06:36Z</time>
      </trkpt>
      <trkpt lat="44.19328" lon="1.37643">
        <ele>146.2</ele>
        <time>2021-11-21T15:06:38Z</time>
      </trkpt>
      <trkpt lat="44.19329" lon="1.3764">
        <ele>146.1</ele>
        <time>2021-11-21T15:06:39Z</time>
      </trkpt>
      <trkpt lat="44.1933" lon="1.37639">
        <ele>146.1</ele>
        <time>2021-11-21T15:06:40Z</time>
      </trkpt>
      <trkpt lat="44.1933" lon="1.37638">
        <ele>146.1</ele>
        <time>2021-11-21T15:06:41Z</time>
      </trkpt>
      <trkpt lat="44.19332" lon="1.37635">
        <ele>146</ele>
        <time>2021-11-21T15:06:42Z</time>
      </trkpt>
      <trkpt lat="44.19332" lon="1.37634">
        <ele>145.9</ele>
        <time>2021-11-21T15:06:43Z</time>
      </trkpt>
      <trkpt lat="44.19333" lon="1.37633">
        <ele>145.9</ele>
        <time>2021-11-21T15:06:44Z</time>
      </trkpt>
      <trkpt lat="44.19334" lon="1.37631">
        <ele>145.8</ele>
        <time>2021-11-21T15:06:46Z</time>
      </trkpt>
      <trkpt lat="44.19335" lon="1.3763">
        <ele>145.8</ele>
        <time>2021-11-21T15:06:47Z</time>
      </trkpt>
      <trkpt lat="44.19335" lon="1.37629">
        <ele>145.8</ele>
        <time>2021-11-21T15:06:48Z</time>
      </trkpt>
      <trkpt lat="44.19336" lon="1.37626">
        <ele>145.7</ele>
        <time>2021-11-21T15:06:49Z</time>
      </trkpt>
      <trkpt lat="44.19337" lon="1.37625">
        <ele>145.7</ele>
        <time>2021-11-21T15:06:50Z</time>
      </trkpt>
      <trkpt lat="44.19338" lon="1.37624">
        <ele>145.6</ele>
        <time>2021-11-21T15:06:51Z</time>
      </trkpt>
      <trkpt lat="44.19338" lon="1.37623">
        <ele>145.6</ele>
        <time>2021-11-21T15:06:52Z</time>
      </trkpt>
      <trkpt lat="44.19339" lon="1.37621">
        <ele>145.5</ele>
        <time>2021-11-21T15:06:53Z</time>
      </trkpt>
      <trkpt lat="44.1934" lon="1.37619">
        <ele>145.5</ele>
        <time>2021-11-21T15:06:55Z</time>
      </trkpt>
      <trkpt lat="44.19341" lon="1.37618">
        <ele>145.4</ele>
        <time>2021-11-21T15:06:56Z</time>
      </trkpt>
      <trkpt lat="44.19342" lon="1.37616">
        <ele>145.4</ele>
        <time>2021-11-21T15:06:57Z</time>
      </trkpt>
      <trkpt lat="44.19342" lon="1.37614">
        <ele>145.3</ele>
        <time>2021-11-21T15:06:58Z</time>
      </trkpt>
      <trkpt lat="44.19343" lon="1.37612">
        <ele>145.3</ele>
        <time>2021-11-21T15:06:59Z</time>
      </trkpt>
      <trkpt lat="44.19344" lon="1.3761">
        <ele>145.2</ele>
        <time>2021-11-21T15:07:00Z</time>
      </trkpt>
      <trkpt lat="44.19344" lon="1.37609">
        <ele>145.2</ele>
        <time>2021-11-21T15:07:01Z</time>
      </trkpt>
      <trkpt lat="44.19345" lon="1.37607">
        <ele>145.1</ele>
        <time>2021-11-21T15:07:02Z</time>
      </trkpt>
      <trkpt lat="44.19346" lon="1.37604">
        <ele>145.1</ele>
        <time>2021-11-21T15:07:03Z</time>
      </trkpt>
      <trkpt lat="44.19346" lon="1.37603">
        <ele>145</ele>
        <time>2021-11-21T15:07:05Z</time>
      </trkpt>
      <trkpt lat="44.19347" lon="1.37602">
        <ele>145</ele>
        <time>2021-11-21T15:07:06Z</time>
      </trkpt>
      <trkpt lat="44.19348" lon="1.376">
        <ele>144.9</ele>
        <time>2021-11-21T15:07:07Z</time>
      </trkpt>
      <trkpt lat="44.19348" lon="1.37599">
        <ele>144.9</ele>
        <time>2021-11-21T15:07:08Z</time>
      </trkpt>
      <trkpt lat="44.19349" lon="1.37598">
        <ele>144.9</ele>
        <time>2021-11-21T15:07:09Z</time>
      </trkpt>
      <trkpt lat="44.1935" lon="1.37596">
        <ele>144.8</ele>
        <time>2021-11-21T15:07:10Z</time>
      </trkpt>
      <trkpt lat="44.1935" lon="1.37595">
        <ele>144.8</ele>
        <time>2021-11-21T15:07:11Z</time>
      </trkpt>
      <trkpt lat="44.19351" lon="1.37594">
        <ele>144.8</ele>
        <time>2021-11-21T15:07:13Z</time>
      </trkpt>
      <trkpt lat="44.19351" lon="1.37593">
        <ele>144.7</ele>
        <time>2021-11-21T15:07:14Z</time>
      </trkpt>
      <trkpt lat="44.19352" lon="1.37591">
        <ele>144.7</ele>
        <time>2021-11-21T15:07:15Z</time>
      </trkpt>
      <trkpt lat="44.19353" lon="1.3759">
        <ele>144.6</ele>
        <time>2021-11-21T15:07:16Z</time>
      </trkpt>
      <trkpt lat="44.19354" lon="1.37589">
        <ele>144.6</ele>
        <time>2021-11-21T15:07:17Z</time>
      </trkpt>
      <trkpt lat="44.19354" lon="1.37588">
        <ele>144.6</ele>
        <time>2021-11-21T15:07:18Z</time>
      </trkpt>
      <trkpt lat="44.19355" lon="1.37587">
        <ele>144.5</ele>
        <time>2021-11-21T15:07:19Z</time>
      </trkpt>
      <trkpt lat="44.19356" lon="1.37586">
        <ele>144.5</ele>
        <time>2021-11-21T15:07:20Z</time>
      </trkpt>
      <trkpt lat="44.19356" lon="1.37585">
        <ele>144.5</ele>
        <time>2021-11-21T15:07:22Z</time>
      </trkpt>
      <trkpt lat="44.19357" lon="1.37584">
        <ele>144.4</ele>
        <time>2021-11-21T15:07:23Z</time>
      </trkpt>
      <trkpt lat="44.19358" lon="1.37583">
        <ele>144.4</ele>
        <time>2021-11-21T15:07:24Z</time>
      </trkpt>
      <trkpt lat="44.19359" lon="1.37582">
        <ele>144.3</ele>
        <time>2021-11-21T15:07:25Z</time>
      </trkpt>
      <trkpt lat="44.19359" lon="1.37581">
        <ele>144.3</ele>
        <time>2021-11-21T15:07:26Z</time>
      </trkpt>
      <trkpt lat="44.1936" lon="1.3758">
        <ele>144.3</ele>
        <time>2021-11-21T15:07:27Z</time>
      </trkpt>
      <trkpt lat="44.19361" lon="1.37579">
        <ele>144.2</ele>
        <time>2021-11-21T15:07:28Z</time>
      </trkpt>
      <trkpt lat="44.19361" lon="1.37577">
        <ele>144.2</ele>
        <time>2021-11-21T15:07:29Z</time>
      </trkpt>
      <trkpt lat="44.19361" lon="1.37576">
        <ele>144.2</ele>
        <time>2021-11-21T15:07:31Z</time>
      </trkpt>
      <trkpt lat="44.19362" lon="1.37575">
        <ele>144.1</ele>
        <time>2021-11-21T15:07:32Z</time>
      </trkpt>
      <trkpt lat="44.19363" lon="1.37574">
        <ele>144.1</ele>
        <time>2021-11-21T15:07:33Z</time>
      </trkpt>
      <trkpt lat="44.19363" lon="1.37573">
        <ele>144.1</ele>
        <time>2021-11-21T15:07:34Z</time>
      </trkpt>
      <trkpt lat="44.19364" lon="1.37572">
        <ele>144</ele>
        <time>2021-11-21T15:07:35Z</time>
      </trkpt>
      <trkpt lat="44.19365" lon="1.3757">
        <ele>144</ele>
        <time>2021-11-21T15:07:36Z</time>
      </trkpt>
      <trkpt lat="44.19365" lon="1.37569">
        <ele>143.9</ele>
        <time>2021-11-21T15:07:37Z</time>
      </trkpt>
      <trkpt lat="44.19366" lon="1.37568">
        <ele>143.9</ele>
        <time>2021-11-21T15:07:38Z</time>
      </trkpt>
      <trkpt lat="44.19366" lon="1.37566">
        <ele>143.9</ele>
        <time>2021-11-21T15:07:40Z</time>
      </trkpt>
      <trkpt lat="44.19367" lon="1.37565">
        <ele>143.8</ele>
        <time>2021-11-21T15:07:41Z</time>
      </trkpt>
      <trkpt lat="44.19367" lon="1.37563">
        <ele>143.8</ele>
        <time>2021-11-21T15:07:42Z</time>
      </trkpt>
      <trkpt lat="44.19368" lon="1.37562">
        <ele>143.8</ele>
        <time>2021-11-21T15:07:43Z</time>
      </trkpt>
      <trkpt lat="44.19368" lon="1.37561">
        <ele>143.7</ele>
        <time>2021-11-21T15:07:44Z</time>
      </trkpt>
      <trkpt lat="44.19369" lon="1.37559">
        <ele>143.7</ele>
        <time>2021-11-21T15:07:45Z</time>
      </trkpt>
      <trkpt lat="44.19369" lon="1.37557">
        <ele>143.6</ele>
        <time>2021-11-21T15:07:46Z</time>
      </trkpt>
      <trkpt lat="44.1937" lon="1.37555">
        <ele>143.5</ele>
        <time>2021-11-21T15:07:47Z</time>
      </trkpt>
      <trkpt lat="44.1937" lon="1.37554">
        <ele>143.5</ele>
        <time>2021-11-21T15:07:49Z</time>
      </trkpt>
      <trkpt lat="44.1937" lon="1.37552">
        <ele>143.5</ele>
        <time>2021-11-21T15:07:50Z</time>
      </trkpt>
      <trkpt lat="44.1937" lon="1.37551">
        <ele>143.4</ele>
        <time>2021-11-21T15:07:51Z</time>
      </trkpt>
      <trkpt lat="44.19371" lon="1.37549">
        <ele>143.4</ele>
        <time>2021-11-21T15:07:52Z</time>
      </trkpt>
      <trkpt lat="44.19372" lon="1.37546">
        <ele>143.3</ele>
        <time>2021-11-21T15:07:53Z</time>
      </trkpt>
      <trkpt lat="44.19372" lon="1.37545">
        <ele>143.2</ele>
        <time>2021-11-21T15:07:54Z</time>
      </trkpt>
      <trkpt lat="44.19373" lon="1.37544">
        <ele>143.2</ele>
        <time>2021-11-21T15:07:55Z</time>
      </trkpt>
      <trkpt lat="44.19374" lon="1.37541">
        <ele>143.1</ele>
        <time>2021-11-21T15:07:56Z</time>
      </trkpt>
      <trkpt lat="44.19374" lon="1.3754">
        <ele>143</ele>
        <time>2021-11-21T15:07:58Z</time>
      </trkpt>
      <trkpt lat="44.19375" lon="1.37539">
        <ele>143</ele>
        <time>2021-11-21T15:07:59Z</time>
      </trkpt>
      <trkpt lat="44.19375" lon="1.37537">
        <ele>142.9</ele>
        <time>2021-11-21T15:08:00Z</time>
      </trkpt>
      <trkpt lat="44.19376" lon="1.37535">
        <ele>142.9</ele>
        <time>2021-11-21T15:08:01Z</time>
      </trkpt>
      <trkpt lat="44.19377" lon="1.37533">
        <ele>142.8</ele>
        <time>2021-11-21T15:08:02Z</time>
      </trkpt>
      <trkpt lat="44.19377" lon="1.37531">
        <ele>142.7</ele>
        <time>2021-11-21T15:08:03Z</time>
      </trkpt>
      <trkpt lat="44.19378" lon="1.37529">
        <ele>142.7</ele>
        <time>2021-11-21T15:08:04Z</time>
      </trkpt>
      <trkpt lat="44.19378" lon="1.37528">
        <ele>142.6</ele>
        <time>2021-11-21T15:08:05Z</time>
      </trkpt>
      <trkpt lat="44.19379" lon="1.37526">
        <ele>142.6</ele>
        <time>2021-11-21T15:08:07Z</time>
      </trkpt>
      <trkpt lat="44.19379" lon="1.37524">
        <ele>142.5</ele>
        <time>2021-11-21T15:08:08Z</time>
      </trkpt>
      <trkpt lat="44.1938" lon="1.37523">
        <ele>142.4</ele>
        <time>2021-11-21T15:08:09Z</time>
      </trkpt>
      <trkpt lat="44.19381" lon="1.3752">
        <ele>142.3</ele>
        <time>2021-11-21T15:08:10Z</time>
      </trkpt>
      <trkpt lat="44.19381" lon="1.37519">
        <ele>142.3</ele>
        <time>2021-11-21T15:08:11Z</time>
      </trkpt>
      <trkpt lat="44.19382" lon="1.37518">
        <ele>142.2</ele>
        <time>2021-11-21T15:08:12Z</time>
      </trkpt>
      <trkpt lat="44.19382" lon="1.37516">
        <ele>142.2</ele>
        <time>2021-11-21T15:08:13Z</time>
      </trkpt>
      <trkpt lat="44.19383" lon="1.37515">
        <ele>142.1</ele>
        <time>2021-11-21T15:08:14Z</time>
      </trkpt>
      <trkpt lat="44.19383" lon="1.37513">
        <ele>142.1</ele>
        <time>2021-11-21T15:08:16Z</time>
      </trkpt>
      <trkpt lat="44.19384" lon="1.3751">
        <ele>142</ele>
        <time>2021-11-21T15:08:17Z</time>
      </trkpt>
      <trkpt lat="44.19385" lon="1.37509">
        <ele>141.9</ele>
        <time>2021-11-21T15:08:18Z</time>
      </trkpt>
      <trkpt lat="44.19385" lon="1.37508">
        <ele>141.9</ele>
        <time>2021-11-21T15:08:19Z</time>
      </trkpt>
      <trkpt lat="44.19385" lon="1.37507">
        <ele>141.8</ele>
        <time>2021-11-21T15:08:20Z</time>
      </trkpt>
      <trkpt lat="44.19386" lon="1.37505">
        <ele>141.8</ele>
        <time>2021-11-21T15:08:21Z</time>
      </trkpt>
      <trkpt lat="44.19386" lon="1.37504">
        <ele>141.7</ele>
        <time>2021-11-21T15:08:22Z</time>
      </trkpt>
      <trkpt lat="44.19387" lon="1.37503">
        <ele>141.6</ele>
        <time>2021-11-21T15:08:24Z</time>
      </trkpt>
      <trkpt lat="44.19387" lon="1.37501">
        <ele>141.6</ele>
        <time>2021-11-21T15:08:25Z</time>
      </trkpt>
      <trkpt lat="44.19388" lon="1.375">
        <ele>141.5</ele>
        <time>2021-11-21T15:08:26Z</time>
      </trkpt>
      <trkpt lat="44.19389" lon="1.37499">
        <ele>141.5</ele>
        <time>2021-11-21T15:08:27Z</time>
      </trkpt>
      <trkpt lat="44.19389" lon="1.37497">
        <ele>141.4</ele>
        <time>2021-11-21T15:08:28Z</time>
      </trkpt>
      <trkpt lat="44.19389" lon="1.37496">
        <ele>141.3</ele>
        <time>2021-11-21T15:08:29Z</time>
      </trkpt>
      <trkpt lat="44.1939" lon="1.37494">
        <ele>141.3</ele>
        <time>2021-11-21T15:08:30Z</time>
      </trkpt>
      <trkpt lat="44.1939" lon="1.37492">
        <ele>141.2</ele>
        <time>2021-11-21T15:08:31Z</time>
      </trkpt>
      <trkpt lat="44.1939" lon="1.37491">
        <ele>141.2</ele>
        <time>2021-11-21T15:08:32Z</time>
      </trkpt>
      <trkpt lat="44.19391" lon="1.37489">
        <ele>141.1</ele>
        <time>2021-11-21T15:08:34Z</time>
      </trkpt>
      <trkpt lat="44.19391" lon="1.37487">
        <ele>141</ele>
        <time>2021-11-21T15:08:35Z</time>
      </trkpt>
      <trkpt lat="44.19391" lon="1.37486">
        <ele>141</ele>
        <time>2021-11-21T15:08:36Z</time>
      </trkpt>
      <trkpt lat="44.19392" lon="1.37484">
        <ele>140.8</ele>
        <time>2021-11-21T15:08:37Z</time>
      </trkpt>
      <trkpt lat="44.19393" lon="1.37482">
        <ele>140.8</ele>
        <time>2021-11-21T15:08:38Z</time>
      </trkpt>
      <trkpt lat="44.19393" lon="1.37481">
        <ele>140.8</ele>
        <time>2021-11-21T15:08:39Z</time>
      </trkpt>
      <trkpt lat="44.19393" lon="1.3748">
        <ele>140.7</ele>
        <time>2021-11-21T15:08:40Z</time>
      </trkpt>
      <trkpt lat="44.19394" lon="1.37478">
        <ele>140.6</ele>
        <time>2021-11-21T15:08:41Z</time>
      </trkpt>
      <trkpt lat="44.19394" lon="1.37476">
        <ele>140.5</ele>
        <time>2021-11-21T15:08:43Z</time>
      </trkpt>
      <trkpt lat="44.19395" lon="1.37475">
        <ele>140.5</ele>
        <time>2021-11-21T15:08:44Z</time>
      </trkpt>
      <trkpt lat="44.19396" lon="1.37473">
        <ele>140.4</ele>
        <time>2021-11-21T15:08:45Z</time>
      </trkpt>
      <trkpt lat="44.19396" lon="1.3747">
        <ele>140.3</ele>
        <time>2021-11-21T15:08:46Z</time>
      </trkpt>
      <trkpt lat="44.19396" lon="1.37469">
        <ele>140.2</ele>
        <time>2021-11-21T15:08:47Z</time>
      </trkpt>
      <trkpt lat="44.19397" lon="1.37468">
        <ele>140.2</ele>
        <time>2021-11-21T15:08:48Z</time>
      </trkpt>
      <trkpt lat="44.19397" lon="1.37465">
        <ele>140</ele>
        <time>2021-11-21T15:08:49Z</time>
      </trkpt>
      <trkpt lat="44.19397" lon="1.37464">
        <ele>140</ele>
        <time>2021-11-21T15:08:51Z</time>
      </trkpt>
      <trkpt lat="44.19398" lon="1.37463">
        <ele>140</ele>
        <time>2021-11-21T15:08:52Z</time>
      </trkpt>
      <trkpt lat="44.19398" lon="1.37461">
        <ele>139.9</ele>
        <time>2021-11-21T15:08:53Z</time>
      </trkpt>
      <trkpt lat="44.19398" lon="1.37459">
        <ele>139.8</ele>
        <time>2021-11-21T15:08:54Z</time>
      </trkpt>
      <trkpt lat="44.19399" lon="1.37457">
        <ele>139.7</ele>
        <time>2021-11-21T15:08:55Z</time>
      </trkpt>
      <trkpt lat="44.19399" lon="1.37456">
        <ele>139.6</ele>
        <time>2021-11-21T15:08:56Z</time>
      </trkpt>
      <trkpt lat="44.194" lon="1.37454">
        <ele>139.6</ele>
        <time>2021-11-21T15:08:57Z</time>
      </trkpt>
      <trkpt lat="44.194" lon="1.37453">
        <ele>139.5</ele>
        <time>2021-11-21T15:08:58Z</time>
      </trkpt>
      <trkpt lat="44.194" lon="1.37451">
        <ele>139.4</ele>
        <time>2021-11-21T15:09:00Z</time>
      </trkpt>
      <trkpt lat="44.19401" lon="1.3745">
        <ele>139.4</ele>
        <time>2021-11-21T15:09:01Z</time>
      </trkpt>
      <trkpt lat="44.19401" lon="1.37448">
        <ele>139.3</ele>
        <time>2021-11-21T15:09:02Z</time>
      </trkpt>
      <trkpt lat="44.19401" lon="1.37447">
        <ele>139.2</ele>
        <time>2021-11-21T15:09:03Z</time>
      </trkpt>
      <trkpt lat="44.19402" lon="1.37445">
        <ele>139.2</ele>
        <time>2021-11-21T15:09:04Z</time>
      </trkpt>
      <trkpt lat="44.19402" lon="1.37443">
        <ele>139</ele>
        <time>2021-11-21T15:09:05Z</time>
      </trkpt>
      <trkpt lat="44.19402" lon="1.37441">
        <ele>139</ele>
        <time>2021-11-21T15:09:06Z</time>
      </trkpt>
      <trkpt lat="44.19403" lon="1.3744">
        <ele>138.9</ele>
        <time>2021-11-21T15:09:07Z</time>
      </trkpt>
      <trkpt lat="44.19403" lon="1.37438">
        <ele>138.8</ele>
        <time>2021-11-21T15:09:08Z</time>
      </trkpt>
      <trkpt lat="44.19403" lon="1.37437">
        <ele>138.7</ele>
        <time>2021-11-21T15:09:10Z</time>
      </trkpt>
      <trkpt lat="44.19404" lon="1.37435">
        <ele>138.7</ele>
        <time>2021-11-21T15:09:11Z</time>
      </trkpt>
      <trkpt lat="44.19404" lon="1.37434">
        <ele>138.6</ele>
        <time>2021-11-21T15:09:12Z</time>
      </trkpt>
      <trkpt lat="44.19405" lon="1.37432">
        <ele>138.5</ele>
        <time>2021-11-21T15:09:13Z</time>
      </trkpt>
      <trkpt lat="44.19405" lon="1.37431">
        <ele>138.5</ele>
        <time>2021-11-21T15:09:14Z</time>
      </trkpt>
      <trkpt lat="44.19405" lon="1.37428">
        <ele>138.3</ele>
        <time>2021-11-21T15:09:15Z</time>
      </trkpt>
      <trkpt lat="44.19405" lon="1.37427">
        <ele>138.3</ele>
        <time>2021-11-21T15:09:16Z</time>
      </trkpt>
      <trkpt lat="44.19405" lon="1.37425">
        <ele>138.2</ele>
        <time>2021-11-21T15:09:17Z</time>
      </trkpt>
      <trkpt lat="44.19405" lon="1.37424">
        <ele>138.1</ele>
        <time>2021-11-21T15:09:18Z</time>
      </trkpt>
      <trkpt lat="44.19406" lon="1.37422">
        <ele>138</ele>
        <time>2021-11-21T15:09:19Z</time>
      </trkpt>
      <trkpt lat="44.19406" lon="1.3742">
        <ele>137.9</ele>
        <time>2021-11-21T15:09:21Z</time>
      </trkpt>
      <trkpt lat="44.19407" lon="1.37418">
        <ele>137.9</ele>
        <time>2021-11-21T15:09:22Z</time>
      </trkpt>
      <trkpt lat="44.19407" lon="1.37416">
        <ele>137.8</ele>
        <time>2021-11-21T15:09:23Z</time>
      </trkpt>
      <trkpt lat="44.19408" lon="1.37414">
        <ele>137.6</ele>
        <time>2021-11-21T15:09:24Z</time>
      </trkpt>
      <trkpt lat="44.19408" lon="1.37413">
        <ele>137.6</ele>
        <time>2021-11-21T15:09:25Z</time>
      </trkpt>
      <trkpt lat="44.19409" lon="1.37412">
        <ele>137.5</ele>
        <time>2021-11-21T15:09:26Z</time>
      </trkpt>
      <trkpt lat="44.19408" lon="1.37411">
        <ele>137.5</ele>
        <time>2021-11-21T15:09:28Z</time>
      </trkpt>
      <trkpt lat="44.19407" lon="1.37409">
        <ele>137.4</ele>
        <time>2021-11-21T15:09:29Z</time>
      </trkpt>
      <trkpt lat="44.19407" lon="1.37407">
        <ele>137.3</ele>
        <time>2021-11-21T15:09:30Z</time>
      </trkpt>
      <trkpt lat="44.19408" lon="1.37406">
        <ele>137.3</ele>
        <time>2021-11-21T15:09:31Z</time>
      </trkpt>
      <trkpt lat="44.19408" lon="1.37405">
        <ele>137.2</ele>
        <time>2021-11-21T15:09:32Z</time>
      </trkpt>
      <trkpt lat="44.19409" lon="1.37403">
        <ele>137.1</ele>
        <time>2021-11-21T15:09:33Z</time>
      </trkpt>
      <trkpt lat="44.19409" lon="1.37402">
        <ele>137.1</ele>
        <time>2021-11-21T15:09:34Z</time>
      </trkpt>
      <trkpt lat="44.19409" lon="1.37401">
        <ele>137</ele>
        <time>2021-11-21T15:09:35Z</time>
      </trkpt>
      <trkpt lat="44.1941" lon="1.374">
        <ele>137</ele>
        <time>2021-11-21T15:09:37Z</time>
      </trkpt>
      <trkpt lat="44.1941" lon="1.37398">
        <ele>136.9</ele>
        <time>2021-11-21T15:09:38Z</time>
      </trkpt>
      <trkpt lat="44.1941" lon="1.37397">
        <ele>136.8</ele>
        <time>2021-11-21T15:09:39Z</time>
      </trkpt>
      <trkpt lat="44.19411" lon="1.37396">
        <ele>136.8</ele>
        <time>2021-11-21T15:09:40Z</time>
      </trkpt>
      <trkpt lat="44.19411" lon="1.37394">
        <ele>136.7</ele>
        <time>2021-11-21T15:09:41Z</time>
      </trkpt>
      <trkpt lat="44.19412" lon="1.37392">
        <ele>136.6</ele>
        <time>2021-11-21T15:09:42Z</time>
      </trkpt>
      <trkpt lat="44.19413" lon="1.3739">
        <ele>136.5</ele>
        <time>2021-11-21T15:09:43Z</time>
      </trkpt>
      <trkpt lat="44.19413" lon="1.37389">
        <ele>136.5</ele>
        <time>2021-11-21T15:09:44Z</time>
      </trkpt>
      <trkpt lat="44.19414" lon="1.37387">
        <ele>136.4</ele>
        <time>2021-11-21T15:09:45Z</time>
      </trkpt>
      <trkpt lat="44.19414" lon="1.37386">
        <ele>136.3</ele>
        <time>2021-11-21T15:09:46Z</time>
      </trkpt>
      <trkpt lat="44.19414" lon="1.37384">
        <ele>136.2</ele>
        <time>2021-11-21T15:09:48Z</time>
      </trkpt>
      <trkpt lat="44.19415" lon="1.37383">
        <ele>136.2</ele>
        <time>2021-11-21T15:09:49Z</time>
      </trkpt>
      <trkpt lat="44.19415" lon="1.37382">
        <ele>136.1</ele>
        <time>2021-11-21T15:09:50Z</time>
      </trkpt>
      <trkpt lat="44.19416" lon="1.37381">
        <ele>136.1</ele>
        <time>2021-11-21T15:09:51Z</time>
      </trkpt>
      <trkpt lat="44.19416" lon="1.37379">
        <ele>136</ele>
        <time>2021-11-21T15:09:52Z</time>
      </trkpt>
      <trkpt lat="44.19417" lon="1.37378">
        <ele>135.9</ele>
        <time>2021-11-21T15:09:53Z</time>
      </trkpt>
      <trkpt lat="44.19417" lon="1.37377">
        <ele>135.9</ele>
        <time>2021-11-21T15:09:54Z</time>
      </trkpt>
      <trkpt lat="44.19418" lon="1.37375">
        <ele>135.8</ele>
        <time>2021-11-21T15:09:55Z</time>
      </trkpt>
      <trkpt lat="44.19418" lon="1.37374">
        <ele>135.7</ele>
        <time>2021-11-21T15:09:57Z</time>
      </trkpt>
      <trkpt lat="44.19418" lon="1.37373">
        <ele>135.7</ele>
        <time>2021-11-21T15:09:58Z</time>
      </trkpt>
      <trkpt lat="44.19419" lon="1.37372">
        <ele>135.6</ele>
        <time>2021-11-21T15:09:59Z</time>
      </trkpt>
      <trkpt lat="44.19419" lon="1.37371">
        <ele>135.6</ele>
        <time>2021-11-21T15:10:00Z</time>
      </trkpt>
      <trkpt lat="44.19419" lon="1.37369">
        <ele>135.5</ele>
        <time>2021-11-21T15:10:01Z</time>
      </trkpt>
      <trkpt lat="44.19419" lon="1.37368">
        <ele>135.5</ele>
        <time>2021-11-21T15:10:02Z</time>
      </trkpt>
      <trkpt lat="44.1942" lon="1.37366">
        <ele>135.4</ele>
        <time>2021-11-21T15:10:03Z</time>
      </trkpt>
      <trkpt lat="44.1942" lon="1.37363">
        <ele>135.3</ele>
        <time>2021-11-21T15:10:04Z</time>
      </trkpt>
      <trkpt lat="44.1942" lon="1.37362">
        <ele>135.2</ele>
        <time>2021-11-21T15:10:05Z</time>
      </trkpt>
      <trkpt lat="44.1942" lon="1.3736">
        <ele>135.2</ele>
        <time>2021-11-21T15:10:06Z</time>
      </trkpt>
      <trkpt lat="44.19421" lon="1.37358">
        <ele>135.1</ele>
        <time>2021-11-21T15:10:08Z</time>
      </trkpt>
      <trkpt lat="44.19421" lon="1.37356">
        <ele>135</ele>
        <time>2021-11-21T15:10:09Z</time>
      </trkpt>
      <trkpt lat="44.19422" lon="1.37354">
        <ele>134.9</ele>
        <time>2021-11-21T15:10:10Z</time>
      </trkpt>
      <trkpt lat="44.19422" lon="1.37352">
        <ele>134.9</ele>
        <time>2021-11-21T15:10:11Z</time>
      </trkpt>
      <trkpt lat="44.19423" lon="1.3735">
        <ele>134.8</ele>
        <time>2021-11-21T15:10:12Z</time>
      </trkpt>
      <trkpt lat="44.19423" lon="1.37348">
        <ele>134.7</ele>
        <time>2021-11-21T15:10:13Z</time>
      </trkpt>
      <trkpt lat="44.19424" lon="1.37346">
        <ele>134.6</ele>
        <time>2021-11-21T15:10:14Z</time>
      </trkpt>
      <trkpt lat="44.19424" lon="1.37344">
        <ele>134.6</ele>
        <time>2021-11-21T15:10:15Z</time>
      </trkpt>
      <trkpt lat="44.19424" lon="1.37342">
        <ele>134.5</ele>
        <time>2021-11-21T15:10:16Z</time>
      </trkpt>
      <trkpt lat="44.19425" lon="1.3734">
        <ele>134.4</ele>
        <time>2021-11-21T15:10:18Z</time>
      </trkpt>
      <trkpt lat="44.19425" lon="1.37338">
        <ele>134.4</ele>
        <time>2021-11-21T15:10:19Z</time>
      </trkpt>
      <trkpt lat="44.19425" lon="1.37336">
        <ele>134.3</ele>
        <time>2021-11-21T15:10:20Z</time>
      </trkpt>
      <trkpt lat="44.19426" lon="1.37334">
        <ele>134.3</ele>
        <time>2021-11-21T15:10:21Z</time>
      </trkpt>
      <trkpt lat="44.19426" lon="1.37332">
        <ele>134.2</ele>
        <time>2021-11-21T15:10:22Z</time>
      </trkpt>
      <trkpt lat="44.19427" lon="1.3733">
        <ele>134.1</ele>
        <time>2021-11-21T15:10:23Z</time>
      </trkpt>
      <trkpt lat="44.19427" lon="1.37328">
        <ele>134.1</ele>
        <time>2021-11-21T15:10:24Z</time>
      </trkpt>
      <trkpt lat="44.19428" lon="1.37326">
        <ele>134</ele>
        <time>2021-11-21T15:10:25Z</time>
      </trkpt>
      <trkpt lat="44.19428" lon="1.37325">
        <ele>134</ele>
        <time>2021-11-21T15:10:27Z</time>
      </trkpt>
      <trkpt lat="44.19429" lon="1.37323">
        <ele>133.9</ele>
        <time>2021-11-21T15:10:28Z</time>
      </trkpt>
      <trkpt lat="44.19429" lon="1.37321">
        <ele>133.9</ele>
        <time>2021-11-21T15:10:29Z</time>
      </trkpt>
      <trkpt lat="44.1943" lon="1.37319">
        <ele>133.8</ele>
        <time>2021-11-21T15:10:30Z</time>
      </trkpt>
      <trkpt lat="44.1943" lon="1.37316">
        <ele>133.7</ele>
        <time>2021-11-21T15:10:31Z</time>
      </trkpt>
      <trkpt lat="44.19431" lon="1.37315">
        <ele>133.7</ele>
        <time>2021-11-21T15:10:32Z</time>
      </trkpt>
      <trkpt lat="44.19431" lon="1.37314">
        <ele>133.7</ele>
        <time>2021-11-21T15:10:33Z</time>
      </trkpt>
      <trkpt lat="44.19431" lon="1.37313">
        <ele>133.7</ele>
        <time>2021-11-21T15:10:34Z</time>
      </trkpt>
      <trkpt lat="44.19432" lon="1.37311">
        <ele>133.6</ele>
        <time>2021-11-21T15:10:36Z</time>
      </trkpt>
      <trkpt lat="44.19432" lon="1.3731">
        <ele>133.6</ele>
        <time>2021-11-21T15:10:37Z</time>
      </trkpt>
      <trkpt lat="44.19433" lon="1.37308">
        <ele>133.5</ele>
        <time>2021-11-21T15:10:38Z</time>
      </trkpt>
      <trkpt lat="44.19433" lon="1.37307">
        <ele>133.5</ele>
        <time>2021-11-21T15:10:39Z</time>
      </trkpt>
      <trkpt lat="44.19433" lon="1.37305">
        <ele>133.5</ele>
        <time>2021-11-21T15:10:40Z</time>
      </trkpt>
      <trkpt lat="44.19434" lon="1.37303">
        <ele>133.5</ele>
        <time>2021-11-21T15:10:41Z</time>
      </trkpt>
      <trkpt lat="44.19434" lon="1.37301">
        <ele>133.4</ele>
        <time>2021-11-21T15:10:42Z</time>
      </trkpt>
      <trkpt lat="44.19434" lon="1.373">
        <ele>133.4</ele>
        <time>2021-11-21T15:10:43Z</time>
      </trkpt>
      <trkpt lat="44.19434" lon="1.37298">
        <ele>133.4</ele>
        <time>2021-11-21T15:10:45Z</time>
      </trkpt>
      <trkpt lat="44.19435" lon="1.37297">
        <ele>133.4</ele>
        <time>2021-11-21T15:10:46Z</time>
      </trkpt>
      <trkpt lat="44.19435" lon="1.37294">
        <ele>133.3</ele>
        <time>2021-11-21T15:10:47Z</time>
      </trkpt>
      <trkpt lat="44.19436" lon="1.37293">
        <ele>133.3</ele>
        <time>2021-11-21T15:10:48Z</time>
      </trkpt>
      <trkpt lat="44.19436" lon="1.37292">
        <ele>133.3</ele>
        <time>2021-11-21T15:10:49Z</time>
      </trkpt>
      <trkpt lat="44.19436" lon="1.3729">
        <ele>133.3</ele>
        <time>2021-11-21T15:10:50Z</time>
      </trkpt>
      <trkpt lat="44.19437" lon="1.37288">
        <ele>133.3</ele>
        <time>2021-11-21T15:10:51Z</time>
      </trkpt>
      <trkpt lat="44.19437" lon="1.37287">
        <ele>133.3</ele>
        <time>2021-11-21T15:10:52Z</time>
      </trkpt>
      <trkpt lat="44.19437" lon="1.37284">
        <ele>133.3</ele>
        <time>2021-11-21T15:10:54Z</time>
      </trkpt>
      <trkpt lat="44.19438" lon="1.37283">
        <ele>133.3</ele>
        <time>2021-11-21T15:10:55Z</time>
      </trkpt>
      <trkpt lat="44.19438" lon="1.37282">
        <ele>133.3</ele>
        <time>2021-11-21T15:10:56Z</time>
      </trkpt>
      <trkpt lat="44.19439" lon="1.37281">
        <ele>133.3</ele>
        <time>2021-11-21T15:10:57Z</time>
      </trkpt>
      <trkpt lat="44.19439" lon="1.37279">
        <ele>133.3</ele>
        <time>2021-11-21T15:10:58Z</time>
      </trkpt>
      <trkpt lat="44.19439" lon="1.37278">
        <ele>133.3</ele>
        <time>2021-11-21T15:10:59Z</time>
      </trkpt>
      <trkpt lat="44.1944" lon="1.37276">
        <ele>133.3</ele>
        <time>2021-11-21T15:11:00Z</time>
      </trkpt>
      <trkpt lat="44.1944" lon="1.37275">
        <ele>133.3</ele>
        <time>2021-11-21T15:11:02Z</time>
      </trkpt>
      <trkpt lat="44.1944" lon="1.37273">
        <ele>133.3</ele>
        <time>2021-11-21T15:11:03Z</time>
      </trkpt>
      <trkpt lat="44.19441" lon="1.3727">
        <ele>133.3</ele>
        <time>2021-11-21T15:11:04Z</time>
      </trkpt>
      <trkpt lat="44.19441" lon="1.37269">
        <ele>133.3</ele>
        <time>2021-11-21T15:11:05Z</time>
      </trkpt>
      <trkpt lat="44.19441" lon="1.37268">
        <ele>133.3</ele>
        <time>2021-11-21T15:11:06Z</time>
      </trkpt>
      <trkpt lat="44.19442" lon="1.37266">
        <ele>133.3</ele>
        <time>2021-11-21T15:11:07Z</time>
      </trkpt>
      <trkpt lat="44.19442" lon="1.37264">
        <ele>133.3</ele>
        <time>2021-11-21T15:11:08Z</time>
      </trkpt>
      <trkpt lat="44.19443" lon="1.37262">
        <ele>133.3</ele>
        <time>2021-11-21T15:11:10Z</time>
      </trkpt>
      <trkpt lat="44.19443" lon="1.3726">
        <ele>133.4</ele>
        <time>2021-11-21T15:11:11Z</time>
      </trkpt>
      <trkpt lat="44.19444" lon="1.37259">
        <ele>133.4</ele>
        <time>2021-11-21T15:11:12Z</time>
      </trkpt>
      <trkpt lat="44.19444" lon="1.37256">
        <ele>133.4</ele>
        <time>2021-11-21T15:11:13Z</time>
      </trkpt>
      <trkpt lat="44.19445" lon="1.37255">
        <ele>133.4</ele>
        <time>2021-11-21T15:11:14Z</time>
      </trkpt>
      <trkpt lat="44.19445" lon="1.37254">
        <ele>133.5</ele>
        <time>2021-11-21T15:11:15Z</time>
      </trkpt>
      <trkpt lat="44.19446" lon="1.37251">
        <ele>133.5</ele>
        <time>2021-11-21T15:11:17Z</time>
      </trkpt>
      <trkpt lat="44.19446" lon="1.3725">
        <ele>133.5</ele>
        <time>2021-11-21T15:11:18Z</time>
      </trkpt>
      <trkpt lat="44.19446" lon="1.37249">
        <ele>133.6</ele>
        <time>2021-11-21T15:11:19Z</time>
      </trkpt>
      <trkpt lat="44.19446" lon="1.37247">
        <ele>133.6</ele>
        <time>2021-11-21T15:11:20Z</time>
      </trkpt>
      <trkpt lat="44.19446" lon="1.37245">
        <ele>133.6</ele>
        <time>2021-11-21T15:11:21Z</time>
      </trkpt>
      <trkpt lat="44.19446" lon="1.37242">
        <ele>133.7</ele>
        <time>2021-11-21T15:11:23Z</time>
      </trkpt>
      <trkpt lat="44.19446" lon="1.3724">
        <ele>133.7</ele>
        <time>2021-11-21T15:11:24Z</time>
      </trkpt>
      <trkpt lat="44.19446" lon="1.37237">
        <ele>133.8</ele>
        <time>2021-11-21T15:11:25Z</time>
      </trkpt>
      <trkpt lat="44.19446" lon="1.37236">
        <ele>133.9</ele>
        <time>2021-11-21T15:11:27Z</time>
      </trkpt>
      <trkpt lat="44.19446" lon="1.37234">
        <ele>133.9</ele>
        <time>2021-11-21T15:11:29Z</time>
      </trkpt>
      <trkpt lat="44.19446" lon="1.37233">
        <ele>133.9</ele>
        <time>2021-11-21T15:11:30Z</time>
      </trkpt>
      <trkpt lat="44.19446" lon="1.37231">
        <ele>134</ele>
        <time>2021-11-21T15:11:31Z</time>
      </trkpt>
      <trkpt lat="44.19446" lon="1.37228">
        <ele>134.1</ele>
        <time>2021-11-21T15:11:32Z</time>
      </trkpt>
      <trkpt lat="44.19446" lon="1.37227">
        <ele>134.1</ele>
        <time>2021-11-21T15:11:33Z</time>
      </trkpt>
      <trkpt lat="44.19446" lon="1.37226">
        <ele>134.2</ele>
        <time>2021-11-21T15:11:35Z</time>
      </trkpt>
      <trkpt lat="44.19446" lon="1.37224">
        <ele>134.2</ele>
        <time>2021-11-21T15:11:36Z</time>
      </trkpt>
      <trkpt lat="44.19446" lon="1.37223">
        <ele>134.3</ele>
        <time>2021-11-21T15:11:37Z</time>
      </trkpt>
      <trkpt lat="44.19446" lon="1.37222">
        <ele>134.3</ele>
        <time>2021-11-21T15:11:38Z</time>
      </trkpt>
      <trkpt lat="44.19446" lon="1.37221">
        <ele>134.4</ele>
        <time>2021-11-21T15:11:40Z</time>
      </trkpt>
      <trkpt lat="44.19446" lon="1.37219">
        <ele>134.4</ele>
        <time>2021-11-21T15:11:41Z</time>
      </trkpt>
      <trkpt lat="44.19445" lon="1.37218">
        <ele>134.5</ele>
        <time>2021-11-21T15:11:42Z</time>
      </trkpt>
      <trkpt lat="44.19445" lon="1.37217">
        <ele>134.5</ele>
        <time>2021-11-21T15:11:43Z</time>
      </trkpt>
      <trkpt lat="44.19445" lon="1.37216">
        <ele>134.6</ele>
        <time>2021-11-21T15:11:44Z</time>
      </trkpt>
      <trkpt lat="44.19444" lon="1.37215">
        <ele>134.6</ele>
        <time>2021-11-21T15:11:46Z</time>
      </trkpt>
      <trkpt lat="44.19444" lon="1.37213">
        <ele>134.7</ele>
        <time>2021-11-21T15:11:47Z</time>
      </trkpt>
      <trkpt lat="44.19444" lon="1.37212">
        <ele>134.7</ele>
        <time>2021-11-21T15:11:48Z</time>
      </trkpt>
      <trkpt lat="44.19443" lon="1.37211">
        <ele>134.8</ele>
        <time>2021-11-21T15:11:50Z</time>
      </trkpt>
      <trkpt lat="44.19442" lon="1.3721">
        <ele>134.9</ele>
        <time>2021-11-21T15:11:51Z</time>
      </trkpt>
      <trkpt lat="44.19442" lon="1.37208">
        <ele>135</ele>
        <time>2021-11-21T15:11:52Z</time>
      </trkpt>
      <trkpt lat="44.19442" lon="1.37207">
        <ele>135</ele>
        <time>2021-11-21T15:11:54Z</time>
      </trkpt>
      <trkpt lat="44.19441" lon="1.37205">
        <ele>135.1</ele>
        <time>2021-11-21T15:11:55Z</time>
      </trkpt>
      <trkpt lat="44.1944" lon="1.37204">
        <ele>135.2</ele>
        <time>2021-11-21T15:11:56Z</time>
      </trkpt>
      <trkpt lat="44.1944" lon="1.37203">
        <ele>135.3</ele>
        <time>2021-11-21T15:11:57Z</time>
      </trkpt>
      <trkpt lat="44.19439" lon="1.37201">
        <ele>135.4</ele>
        <time>2021-11-21T15:11:59Z</time>
      </trkpt>
      <trkpt lat="44.19438" lon="1.37199">
        <ele>135.6</ele>
        <time>2021-11-21T15:12:00Z</time>
      </trkpt>
      <trkpt lat="44.19437" lon="1.37198">
        <ele>135.7</ele>
        <time>2021-11-21T15:12:02Z</time>
      </trkpt>
      <trkpt lat="44.19436" lon="1.37197">
        <ele>135.7</ele>
        <time>2021-11-21T15:12:03Z</time>
      </trkpt>
      <trkpt lat="44.19435" lon="1.37194">
        <ele>135.9</ele>
        <time>2021-11-21T15:12:05Z</time>
      </trkpt>
      <trkpt lat="44.19435" lon="1.37193">
        <ele>135.9</ele>
        <time>2021-11-21T15:12:06Z</time>
      </trkpt>
      <trkpt lat="44.19435" lon="1.37192">
        <ele>136</ele>
        <time>2021-11-21T15:12:07Z</time>
      </trkpt>
      <trkpt lat="44.19434" lon="1.37191">
        <ele>136.1</ele>
        <time>2021-11-21T15:12:09Z</time>
      </trkpt>
      <trkpt lat="44.19433" lon="1.3719">
        <ele>136.2</ele>
        <time>2021-11-21T15:12:10Z</time>
      </trkpt>
      <trkpt lat="44.19432" lon="1.37188">
        <ele>136.3</ele>
        <time>2021-11-21T15:12:11Z</time>
      </trkpt>
      <trkpt lat="44.19432" lon="1.37187">
        <ele>136.4</ele>
        <time>2021-11-21T15:12:13Z</time>
      </trkpt>
      <trkpt lat="44.19431" lon="1.37186">
        <ele>136.5</ele>
        <time>2021-11-21T15:12:14Z</time>
      </trkpt>
      <trkpt lat="44.1943" lon="1.37184">
        <ele>136.6</ele>
        <time>2021-11-21T15:12:16Z</time>
      </trkpt>
      <trkpt lat="44.1943" lon="1.37182">
        <ele>136.7</ele>
        <time>2021-11-21T15:12:17Z</time>
      </trkpt>
      <trkpt lat="44.19429" lon="1.37181">
        <ele>136.8</ele>
        <time>2021-11-21T15:12:18Z</time>
      </trkpt>
      <trkpt lat="44.19429" lon="1.37179">
        <ele>137</ele>
        <time>2021-11-21T15:12:20Z</time>
      </trkpt>
      <trkpt lat="44.19428" lon="1.37176">
        <ele>137.2</ele>
        <time>2021-11-21T15:12:21Z</time>
      </trkpt>
      <trkpt lat="44.19427" lon="1.37175">
        <ele>137.3</ele>
        <time>2021-11-21T15:12:23Z</time>
      </trkpt>
      <trkpt lat="44.19427" lon="1.37174">
        <ele>137.3</ele>
        <time>2021-11-21T15:12:24Z</time>
      </trkpt>
      <trkpt lat="44.19426" lon="1.37173">
        <ele>137.4</ele>
        <time>2021-11-21T15:12:25Z</time>
      </trkpt>
      <trkpt lat="44.19426" lon="1.37172">
        <ele>137.5</ele>
        <time>2021-11-21T15:12:26Z</time>
      </trkpt>
      <trkpt lat="44.19426" lon="1.3717">
        <ele>137.6</ele>
        <time>2021-11-21T15:12:28Z</time>
      </trkpt>
      <trkpt lat="44.19425" lon="1.37169">
        <ele>137.7</ele>
        <time>2021-11-21T15:12:29Z</time>
      </trkpt>
      <trkpt lat="44.19425" lon="1.37167">
        <ele>137.8</ele>
        <time>2021-11-21T15:12:30Z</time>
      </trkpt>
      <trkpt lat="44.19425" lon="1.37166">
        <ele>137.9</ele>
        <time>2021-11-21T15:12:31Z</time>
      </trkpt>
      <trkpt lat="44.19424" lon="1.37165">
        <ele>138.1</ele>
        <time>2021-11-21T15:12:33Z</time>
      </trkpt>
      <trkpt lat="44.19424" lon="1.37163">
        <ele>138.2</ele>
        <time>2021-11-21T15:12:34Z</time>
      </trkpt>
      <trkpt lat="44.19423" lon="1.37162">
        <ele>138.3</ele>
        <time>2021-11-21T15:12:35Z</time>
      </trkpt>
      <trkpt lat="44.19423" lon="1.3716">
        <ele>138.4</ele>
        <time>2021-11-21T15:12:37Z</time>
      </trkpt>
      <trkpt lat="44.19423" lon="1.37158">
        <ele>138.5</ele>
        <time>2021-11-21T15:12:38Z</time>
      </trkpt>
      <trkpt lat="44.19422" lon="1.37156">
        <ele>138.7</ele>
        <time>2021-11-21T15:12:40Z</time>
      </trkpt>
      <trkpt lat="44.19422" lon="1.37155">
        <ele>138.8</ele>
        <time>2021-11-21T15:12:41Z</time>
      </trkpt>
      <trkpt lat="44.19421" lon="1.37153">
        <ele>139</ele>
        <time>2021-11-21T15:12:43Z</time>
      </trkpt>
      <trkpt lat="44.19421" lon="1.37151">
        <ele>139.1</ele>
        <time>2021-11-21T15:12:44Z</time>
      </trkpt>
      <trkpt lat="44.19421" lon="1.37149">
        <ele>139.3</ele>
        <time>2021-11-21T15:12:46Z</time>
      </trkpt>
      <trkpt lat="44.19421" lon="1.37147">
        <ele>139.4</ele>
        <time>2021-11-21T15:12:47Z</time>
      </trkpt>
      <trkpt lat="44.19421" lon="1.37146">
        <ele>139.5</ele>
        <time>2021-11-21T15:12:48Z</time>
      </trkpt>
      <trkpt lat="44.19421" lon="1.37145">
        <ele>139.6</ele>
        <time>2021-11-21T15:12:49Z</time>
      </trkpt>
      <trkpt lat="44.1942" lon="1.37144">
        <ele>139.7</ele>
        <time>2021-11-21T15:12:50Z</time>
      </trkpt>
      <trkpt lat="44.1942" lon="1.37143">
        <ele>139.8</ele>
        <time>2021-11-21T15:12:52Z</time>
      </trkpt>
      <trkpt lat="44.1942" lon="1.37142">
        <ele>139.9</ele>
        <time>2021-11-21T15:12:53Z</time>
      </trkpt>
      <trkpt lat="44.1942" lon="1.37142">
        <ele>139.9</ele>
        <time>2021-11-21T15:12:54Z</time>
      </trkpt>
      <trkpt lat="44.19419" lon="1.37142">
        <ele>139.9</ele>
        <time>2021-11-21T15:12:56Z</time>
      </trkpt>
      <trkpt lat="44.19419" lon="1.37142">
        <ele>140</ele>
        <time>2021-11-21T15:12:57Z</time>
      </trkpt>
      <trkpt lat="44.19419" lon="1.37142">
        <ele>140</ele>
        <time>2021-11-21T15:12:58Z</time>
      </trkpt>
      <trkpt lat="44.19419" lon="1.37142">
        <ele>140</ele>
        <time>2021-11-21T15:13:00Z</time>
      </trkpt>
      <trkpt lat="44.19419" lon="1.37141">
        <ele>140.1</ele>
        <time>2021-11-21T15:13:01Z</time>
      </trkpt>
      <trkpt lat="44.1942" lon="1.3714">
        <ele>140.2</ele>
        <time>2021-11-21T15:13:03Z</time>
      </trkpt>
      <trkpt lat="44.1942" lon="1.37139">
        <ele>140.3</ele>
        <time>2021-11-21T15:13:04Z</time>
      </trkpt>
      <trkpt lat="44.1942" lon="1.37138">
        <ele>140.3</ele>
        <time>2021-11-21T15:13:05Z</time>
      </trkpt>
      <trkpt lat="44.19421" lon="1.37137">
        <ele>140.5</ele>
        <time>2021-11-21T15:13:07Z</time>
      </trkpt>
      <trkpt lat="44.19421" lon="1.37136">
        <ele>140.6</ele>
        <time>2021-11-21T15:13:08Z</time>
      </trkpt>
      <trkpt lat="44.19421" lon="1.37134">
        <ele>140.7</ele>
        <time>2021-11-21T15:13:10Z</time>
      </trkpt>
      <trkpt lat="44.19421" lon="1.37133">
        <ele>140.8</ele>
        <time>2021-11-21T15:13:11Z</time>
      </trkpt>
      <trkpt lat="44.1942" lon="1.37131">
        <ele>140.9</ele>
        <time>2021-11-21T15:13:13Z</time>
      </trkpt>
      <trkpt lat="44.1942" lon="1.3713">
        <ele>141</ele>
        <time>2021-11-21T15:13:14Z</time>
      </trkpt>
      <trkpt lat="44.1942" lon="1.37128">
        <ele>141.2</ele>
        <time>2021-11-21T15:13:16Z</time>
      </trkpt>
      <trkpt lat="44.1942" lon="1.37127">
        <ele>141.2</ele>
        <time>2021-11-21T15:13:17Z</time>
      </trkpt>
      <trkpt lat="44.1942" lon="1.37125">
        <ele>141.4</ele>
        <time>2021-11-21T15:13:19Z</time>
      </trkpt>
      <trkpt lat="44.1942" lon="1.37123">
        <ele>141.5</ele>
        <time>2021-11-21T15:13:20Z</time>
      </trkpt>
      <trkpt lat="44.1942" lon="1.37122">
        <ele>141.6</ele>
        <time>2021-11-21T15:13:22Z</time>
      </trkpt>
      <trkpt lat="44.19421" lon="1.37121">
        <ele>141.7</ele>
        <time>2021-11-21T15:13:23Z</time>
      </trkpt>
      <trkpt lat="44.19421" lon="1.37119">
        <ele>141.9</ele>
        <time>2021-11-21T15:13:25Z</time>
      </trkpt>
      <trkpt lat="44.19421" lon="1.37118">
        <ele>141.9</ele>
        <time>2021-11-21T15:13:26Z</time>
      </trkpt>
      <trkpt lat="44.19421" lon="1.37117">
        <ele>142</ele>
        <time>2021-11-21T15:13:27Z</time>
      </trkpt>
      <trkpt lat="44.19421" lon="1.37115">
        <ele>142.1</ele>
        <time>2021-11-21T15:13:29Z</time>
      </trkpt>
      <trkpt lat="44.19421" lon="1.37114">
        <ele>142.2</ele>
        <time>2021-11-21T15:13:30Z</time>
      </trkpt>
      <trkpt lat="44.19421" lon="1.37113">
        <ele>142.3</ele>
        <time>2021-11-21T15:13:31Z</time>
      </trkpt>
      <trkpt lat="44.19421" lon="1.37112">
        <ele>142.4</ele>
        <time>2021-11-21T15:13:33Z</time>
      </trkpt>
      <trkpt lat="44.19421" lon="1.3711">
        <ele>142.5</ele>
        <time>2021-11-21T15:13:34Z</time>
      </trkpt>
      <trkpt lat="44.19421" lon="1.37107">
        <ele>142.7</ele>
        <time>2021-11-21T15:13:35Z</time>
      </trkpt>
      <trkpt lat="44.19421" lon="1.37106">
        <ele>142.8</ele>
        <time>2021-11-21T15:13:37Z</time>
      </trkpt>
      <trkpt lat="44.19421" lon="1.37105">
        <ele>142.9</ele>
        <time>2021-11-21T15:13:38Z</time>
      </trkpt>
      <trkpt lat="44.19421" lon="1.37103">
        <ele>143.1</ele>
        <time>2021-11-21T15:13:40Z</time>
      </trkpt>
      <trkpt lat="44.19421" lon="1.37101">
        <ele>143.2</ele>
        <time>2021-11-21T15:13:41Z</time>
      </trkpt>
      <trkpt lat="44.19422" lon="1.37099">
        <ele>143.4</ele>
        <time>2021-11-21T15:13:42Z</time>
      </trkpt>
      <trkpt lat="44.19422" lon="1.37098">
        <ele>143.4</ele>
        <time>2021-11-21T15:13:43Z</time>
      </trkpt>
      <trkpt lat="44.19422" lon="1.37097">
        <ele>143.6</ele>
        <time>2021-11-21T15:13:45Z</time>
      </trkpt>
      <trkpt lat="44.19422" lon="1.37095">
        <ele>143.7</ele>
        <time>2021-11-21T15:13:46Z</time>
      </trkpt>
      <trkpt lat="44.19422" lon="1.37094">
        <ele>143.8</ele>
        <time>2021-11-21T15:13:47Z</time>
      </trkpt>
      <trkpt lat="44.19422" lon="1.37093">
        <ele>143.9</ele>
        <time>2021-11-21T15:13:48Z</time>
      </trkpt>
      <trkpt lat="44.19422" lon="1.37092">
        <ele>144</ele>
        <time>2021-11-21T15:13:50Z</time>
      </trkpt>
      <trkpt lat="44.19422" lon="1.3709">
        <ele>144.2</ele>
        <time>2021-11-21T15:13:51Z</time>
      </trkpt>
      <trkpt lat="44.19422" lon="1.37088">
        <ele>144.3</ele>
        <time>2021-11-21T15:13:53Z</time>
      </trkpt>
      <trkpt lat="44.19422" lon="1.37086">
        <ele>144.4</ele>
        <time>2021-11-21T15:13:54Z</time>
      </trkpt>
      <trkpt lat="44.19422" lon="1.37085">
        <ele>144.6</ele>
        <time>2021-11-21T15:13:56Z</time>
      </trkpt>
      <trkpt lat="44.19422" lon="1.37083">
        <ele>144.7</ele>
        <time>2021-11-21T15:13:57Z</time>
      </trkpt>
      <trkpt lat="44.19422" lon="1.37081">
        <ele>144.9</ele>
        <time>2021-11-21T15:13:59Z</time>
      </trkpt>
      <trkpt lat="44.19423" lon="1.3708">
        <ele>145</ele>
        <time>2021-11-21T15:14:00Z</time>
      </trkpt>
      <trkpt lat="44.19423" lon="1.37079">
        <ele>145.1</ele>
        <time>2021-11-21T15:14:02Z</time>
      </trkpt>
      <trkpt lat="44.19423" lon="1.37078">
        <ele>145.2</ele>
        <time>2021-11-21T15:14:03Z</time>
      </trkpt>
      <trkpt lat="44.19423" lon="1.37079">
        <ele>145.3</ele>
        <time>2021-11-21T15:14:05Z</time>
      </trkpt>
      <trkpt lat="44.19423" lon="1.37079">
        <ele>145.3</ele>
        <time>2021-11-21T15:14:06Z</time>
      </trkpt>
      <trkpt lat="44.19423" lon="1.37079">
        <ele>145.3</ele>
        <time>2021-11-21T15:14:08Z</time>
      </trkpt>
      <trkpt lat="44.19423" lon="1.3708">
        <ele>145.4</ele>
        <time>2021-11-21T15:14:10Z</time>
      </trkpt>
      <trkpt lat="44.19423" lon="1.3708">
        <ele>145.4</ele>
        <time>2021-11-21T15:14:11Z</time>
      </trkpt>
      <trkpt lat="44.19423" lon="1.37081">
        <ele>145.5</ele>
        <time>2021-11-21T15:14:13Z</time>
      </trkpt>
      <trkpt lat="44.19423" lon="1.37081">
        <ele>145.5</ele>
        <time>2021-11-21T15:14:14Z</time>
      </trkpt>
      <trkpt lat="44.19423" lon="1.37081">
        <ele>145.5</ele>
        <time>2021-11-21T15:14:15Z</time>
      </trkpt>
      <trkpt lat="44.19423" lon="1.3708">
        <ele>145.5</ele>
        <time>2021-11-21T15:14:17Z</time>
      </trkpt>
      <trkpt lat="44.19424" lon="1.37079">
        <ele>145.6</ele>
        <time>2021-11-21T15:14:18Z</time>
      </trkpt>
      <trkpt lat="44.19424" lon="1.37078">
        <ele>145.7</ele>
        <time>2021-11-21T15:14:20Z</time>
      </trkpt>
      <trkpt lat="44.19424" lon="1.37077">
        <ele>145.8</ele>
        <time>2021-11-21T15:14:21Z</time>
      </trkpt>
      <trkpt lat="44.19424" lon="1.37076">
        <ele>145.8</ele>
        <time>2021-11-21T15:14:23Z</time>
      </trkpt>
      <trkpt lat="44.19424" lon="1.37075">
        <ele>145.9</ele>
        <time>2021-11-21T15:14:24Z</time>
      </trkpt>
      <trkpt lat="44.19424" lon="1.37073">
        <ele>146.1</ele>
        <time>2021-11-21T15:14:26Z</time>
      </trkpt>
      <trkpt lat="44.19424" lon="1.37071">
        <ele>146.2</ele>
        <time>2021-11-21T15:14:27Z</time>
      </trkpt>
      <trkpt lat="44.19424" lon="1.3707">
        <ele>146.3</ele>
        <time>2021-11-21T15:14:28Z</time>
      </trkpt>
      <trkpt lat="44.19424" lon="1.37069">
        <ele>146.5</ele>
        <time>2021-11-21T15:14:30Z</time>
      </trkpt>
      <trkpt lat="44.19424" lon="1.37067">
        <ele>146.6</ele>
        <time>2021-11-21T15:14:31Z</time>
      </trkpt>
      <trkpt lat="44.19424" lon="1.37065">
        <ele>146.8</ele>
        <time>2021-11-21T15:14:33Z</time>
      </trkpt>
      <trkpt lat="44.19424" lon="1.37063">
        <ele>146.9</ele>
        <time>2021-11-21T15:14:34Z</time>
      </trkpt>
      <trkpt lat="44.19424" lon="1.37061">
        <ele>147</ele>
        <time>2021-11-21T15:14:35Z</time>
      </trkpt>
      <trkpt lat="44.19424" lon="1.3706">
        <ele>147.1</ele>
        <time>2021-11-21T15:14:36Z</time>
      </trkpt>
      <trkpt lat="44.19424" lon="1.37059">
        <ele>147.2</ele>
        <time>2021-11-21T15:14:38Z</time>
      </trkpt>
      <trkpt lat="44.19424" lon="1.37057">
        <ele>147.4</ele>
        <time>2021-11-21T15:14:39Z</time>
      </trkpt>
      <trkpt lat="44.19424" lon="1.37055">
        <ele>147.4</ele>
        <time>2021-11-21T15:14:40Z</time>
      </trkpt>
      <trkpt lat="44.19424" lon="1.37054">
        <ele>147.5</ele>
        <time>2021-11-21T15:14:41Z</time>
      </trkpt>
      <trkpt lat="44.19424" lon="1.37052">
        <ele>147.7</ele>
        <time>2021-11-21T15:14:43Z</time>
      </trkpt>
      <trkpt lat="44.19424" lon="1.37052">
        <ele>147.7</ele>
        <time>2021-11-21T15:14:44Z</time>
      </trkpt>
      <trkpt lat="44.19424" lon="1.3705">
        <ele>147.9</ele>
        <time>2021-11-21T15:14:46Z</time>
      </trkpt>
      <trkpt lat="44.19425" lon="1.37049">
        <ele>148</ele>
        <time>2021-11-21T15:14:47Z</time>
      </trkpt>
      <trkpt lat="44.19425" lon="1.37048">
        <ele>148</ele>
        <time>2021-11-21T15:14:48Z</time>
      </trkpt>
      <trkpt lat="44.19425" lon="1.37046">
        <ele>148.1</ele>
        <time>2021-11-21T15:14:50Z</time>
      </trkpt>
      <trkpt lat="44.19426" lon="1.37045">
        <ele>148.2</ele>
        <time>2021-11-21T15:14:51Z</time>
      </trkpt>
      <trkpt lat="44.19426" lon="1.37044">
        <ele>148.3</ele>
        <time>2021-11-21T15:14:52Z</time>
      </trkpt>
      <trkpt lat="44.19426" lon="1.37044">
        <ele>148.3</ele>
        <time>2021-11-21T15:14:53Z</time>
      </trkpt>
      <trkpt lat="44.19426" lon="1.37042">
        <ele>148.4</ele>
        <time>2021-11-21T15:14:55Z</time>
      </trkpt>
      <trkpt lat="44.19426" lon="1.37041">
        <ele>148.5</ele>
        <time>2021-11-21T15:14:56Z</time>
      </trkpt>
      <trkpt lat="44.19426" lon="1.3704">
        <ele>148.6</ele>
        <time>2021-11-21T15:14:57Z</time>
      </trkpt>
      <trkpt lat="44.19426" lon="1.37039">
        <ele>148.6</ele>
        <time>2021-11-21T15:14:58Z</time>
      </trkpt>
      <trkpt lat="44.19426" lon="1.37039">
        <ele>148.7</ele>
        <time>2021-11-21T15:14:59Z</time>
      </trkpt>
      <trkpt lat="44.19426" lon="1.37038">
        <ele>148.7</ele>
        <time>2021-11-21T15:15:00Z</time>
      </trkpt>
      <trkpt lat="44.19426" lon="1.37037">
        <ele>148.8</ele>
        <time>2021-11-21T15:15:02Z</time>
      </trkpt>
      <trkpt lat="44.19426" lon="1.37037">
        <ele>148.8</ele>
        <time>2021-11-21T15:15:03Z</time>
      </trkpt>
      <trkpt lat="44.19425" lon="1.37037">
        <ele>148.9</ele>
        <time>2021-11-21T15:15:04Z</time>
      </trkpt>
      <trkpt lat="44.19425" lon="1.37037">
        <ele>148.9</ele>
        <time>2021-11-21T15:15:06Z</time>
      </trkpt>
      <trkpt lat="44.19425" lon="1.37037">
        <ele>148.9</ele>
        <time>2021-11-21T15:15:07Z</time>
      </trkpt>
      <trkpt lat="44.19426" lon="1.37036">
        <ele>149</ele>
        <time>2021-11-21T15:15:09Z</time>
      </trkpt>
      <trkpt lat="44.19426" lon="1.37034">
        <ele>149.1</ele>
        <time>2021-11-21T15:15:11Z</time>
      </trkpt>
      <trkpt lat="44.19427" lon="1.37033">
        <ele>149.2</ele>
        <time>2021-11-21T15:15:12Z</time>
      </trkpt>
      <trkpt lat="44.19427" lon="1.37032">
        <ele>149.3</ele>
        <time>2021-11-21T15:15:13Z</time>
      </trkpt>
      <trkpt lat="44.19427" lon="1.37031">
        <ele>149.3</ele>
        <time>2021-11-21T15:15:14Z</time>
      </trkpt>
      <trkpt lat="44.19427" lon="1.3703">
        <ele>149.4</ele>
        <time>2021-11-21T15:15:16Z</time>
      </trkpt>
      <trkpt lat="44.19426" lon="1.37028">
        <ele>149.5</ele>
        <time>2021-11-21T15:15:17Z</time>
      </trkpt>
      <trkpt lat="44.19426" lon="1.37026">
        <ele>149.6</ele>
        <time>2021-11-21T15:15:19Z</time>
      </trkpt>
      <trkpt lat="44.19426" lon="1.37025">
        <ele>149.7</ele>
        <time>2021-11-21T15:15:20Z</time>
      </trkpt>
      <trkpt lat="44.19426" lon="1.37024">
        <ele>149.8</ele>
        <time>2021-11-21T15:15:22Z</time>
      </trkpt>
      <trkpt lat="44.19426" lon="1.37022">
        <ele>150</ele>
        <time>2021-11-21T15:15:23Z</time>
      </trkpt>
      <trkpt lat="44.19426" lon="1.37021">
        <ele>150.1</ele>
        <time>2021-11-21T15:15:24Z</time>
      </trkpt>
      <trkpt lat="44.19426" lon="1.37019">
        <ele>150.2</ele>
        <time>2021-11-21T15:15:26Z</time>
      </trkpt>
      <trkpt lat="44.19426" lon="1.37017">
        <ele>150.3</ele>
        <time>2021-11-21T15:15:27Z</time>
      </trkpt>
      <trkpt lat="44.19426" lon="1.37016">
        <ele>150.4</ele>
        <time>2021-11-21T15:15:28Z</time>
      </trkpt>
      <trkpt lat="44.19426" lon="1.37015">
        <ele>150.5</ele>
        <time>2021-11-21T15:15:30Z</time>
      </trkpt>
      <trkpt lat="44.19426" lon="1.37014">
        <ele>150.5</ele>
        <time>2021-11-21T15:15:31Z</time>
      </trkpt>
      <trkpt lat="44.19427" lon="1.37014">
        <ele>150.6</ele>
        <time>2021-11-21T15:15:32Z</time>
      </trkpt>
      <trkpt lat="44.19427" lon="1.37013">
        <ele>150.6</ele>
        <time>2021-11-21T15:15:33Z</time>
      </trkpt>
      <trkpt lat="44.19427" lon="1.37012">
        <ele>150.7</ele>
        <time>2021-11-21T15:15:35Z</time>
      </trkpt>
      <trkpt lat="44.19428" lon="1.37011">
        <ele>150.8</ele>
        <time>2021-11-21T15:15:36Z</time>
      </trkpt>
      <trkpt lat="44.19428" lon="1.3701">
        <ele>150.8</ele>
        <time>2021-11-21T15:15:37Z</time>
      </trkpt>
      <trkpt lat="44.19428" lon="1.37009">
        <ele>150.9</ele>
        <time>2021-11-21T15:15:39Z</time>
      </trkpt>
      <trkpt lat="44.19428" lon="1.37007">
        <ele>151.1</ele>
        <time>2021-11-21T15:15:40Z</time>
      </trkpt>
      <trkpt lat="44.19429" lon="1.37006">
        <ele>151.1</ele>
        <time>2021-11-21T15:15:41Z</time>
      </trkpt>
      <trkpt lat="44.19429" lon="1.37005">
        <ele>151.2</ele>
        <time>2021-11-21T15:15:42Z</time>
      </trkpt>
      <trkpt lat="44.19429" lon="1.37004">
        <ele>151.3</ele>
        <time>2021-11-21T15:15:44Z</time>
      </trkpt>
      <trkpt lat="44.1943" lon="1.37004">
        <ele>151.3</ele>
        <time>2021-11-21T15:15:46Z</time>
      </trkpt>
      <trkpt lat="44.1943" lon="1.37004">
        <ele>151.4</ele>
        <time>2021-11-21T15:15:48Z</time>
      </trkpt>
      <trkpt lat="44.1943" lon="1.37003">
        <ele>151.4</ele>
        <time>2021-11-21T15:15:50Z</time>
      </trkpt>
      <trkpt lat="44.1943" lon="1.37002">
        <ele>151.5</ele>
        <time>2021-11-21T15:15:51Z</time>
      </trkpt>
      <trkpt lat="44.1943" lon="1.37001">
        <ele>151.6</ele>
        <time>2021-11-21T15:15:52Z</time>
      </trkpt>
      <trkpt lat="44.1943" lon="1.37">
        <ele>151.6</ele>
        <time>2021-11-21T15:15:53Z</time>
      </trkpt>
      <trkpt lat="44.1943" lon="1.36999">
        <ele>151.7</ele>
        <time>2021-11-21T15:15:55Z</time>
      </trkpt>
      <trkpt lat="44.19431" lon="1.36998">
        <ele>151.8</ele>
        <time>2021-11-21T15:15:56Z</time>
      </trkpt>
      <trkpt lat="44.19431" lon="1.36997">
        <ele>151.9</ele>
        <time>2021-11-21T15:15:58Z</time>
      </trkpt>
      <trkpt lat="44.19431" lon="1.36997">
        <ele>151.9</ele>
        <time>2021-11-21T15:15:59Z</time>
      </trkpt>
      <trkpt lat="44.19432" lon="1.36997">
        <ele>151.9</ele>
        <time>2021-11-21T15:16:00Z</time>
      </trkpt>
      <trkpt lat="44.19432" lon="1.36996">
        <ele>152</ele>
        <time>2021-11-21T15:16:02Z</time>
      </trkpt>
      <trkpt lat="44.19433" lon="1.36997">
        <ele>152</ele>
        <time>2021-11-21T15:16:04Z</time>
      </trkpt>
      <trkpt lat="44.19433" lon="1.36997">
        <ele>152.1</ele>
        <time>2021-11-21T15:16:05Z</time>
      </trkpt>
      <trkpt lat="44.19433" lon="1.36998">
        <ele>152.1</ele>
        <time>2021-11-21T15:16:07Z</time>
      </trkpt>
      <trkpt lat="44.19433" lon="1.36998">
        <ele>152.1</ele>
        <time>2021-11-21T15:16:09Z</time>
      </trkpt>
      <trkpt lat="44.19433" lon="1.36998">
        <ele>152.2</ele>
        <time>2021-11-21T15:16:10Z</time>
      </trkpt>
      <trkpt lat="44.19434" lon="1.36998">
        <ele>152.2</ele>
        <time>2021-11-21T15:16:11Z</time>
      </trkpt>
      <trkpt lat="44.19434" lon="1.36998">
        <ele>152.3</ele>
        <time>2021-11-21T15:16:13Z</time>
      </trkpt>
      <trkpt lat="44.19434" lon="1.36997">
        <ele>152.3</ele>
        <time>2021-11-21T15:16:14Z</time>
      </trkpt>
      <trkpt lat="44.19434" lon="1.36995">
        <ele>152.4</ele>
        <time>2021-11-21T15:16:16Z</time>
      </trkpt>
      <trkpt lat="44.19434" lon="1.36994">
        <ele>152.6</ele>
        <time>2021-11-21T15:16:17Z</time>
      </trkpt>
      <trkpt lat="44.19434" lon="1.36992">
        <ele>152.7</ele>
        <time>2021-11-21T15:16:18Z</time>
      </trkpt>
      <trkpt lat="44.19434" lon="1.36991">
        <ele>152.8</ele>
        <time>2021-11-21T15:16:19Z</time>
      </trkpt>
      <trkpt lat="44.19434" lon="1.36989">
        <ele>152.9</ele>
        <time>2021-11-21T15:16:21Z</time>
      </trkpt>
      <trkpt lat="44.19434" lon="1.36987">
        <ele>153.1</ele>
        <time>2021-11-21T15:16:22Z</time>
      </trkpt>
      <trkpt lat="44.19434" lon="1.36985">
        <ele>153.2</ele>
        <time>2021-11-21T15:16:24Z</time>
      </trkpt>
      <trkpt lat="44.19433" lon="1.36983">
        <ele>153.4</ele>
        <time>2021-11-21T15:16:25Z</time>
      </trkpt>
      <trkpt lat="44.19433" lon="1.3698">
        <ele>153.6</ele>
        <time>2021-11-21T15:16:27Z</time>
      </trkpt>
      <trkpt lat="44.19433" lon="1.36978">
        <ele>153.8</ele>
        <time>2021-11-21T15:16:28Z</time>
      </trkpt>
      <trkpt lat="44.19433" lon="1.36977">
        <ele>153.9</ele>
        <time>2021-11-21T15:16:29Z</time>
      </trkpt>
      <trkpt lat="44.19434" lon="1.36974">
        <ele>154.2</ele>
        <time>2021-11-21T15:16:31Z</time>
      </trkpt>
      <trkpt lat="44.19434" lon="1.36973">
        <ele>154.3</ele>
        <time>2021-11-21T15:16:32Z</time>
      </trkpt>
      <trkpt lat="44.19434" lon="1.36971">
        <ele>154.4</ele>
        <time>2021-11-21T15:16:33Z</time>
      </trkpt>
      <trkpt lat="44.19434" lon="1.3697">
        <ele>154.4</ele>
        <time>2021-11-21T15:16:34Z</time>
      </trkpt>
      <trkpt lat="44.19434" lon="1.36969">
        <ele>154.6</ele>
        <time>2021-11-21T15:16:35Z</time>
      </trkpt>
      <trkpt lat="44.19434" lon="1.36968">
        <ele>154.7</ele>
        <time>2021-11-21T15:16:36Z</time>
      </trkpt>
      <trkpt lat="44.19434" lon="1.36966">
        <ele>154.8</ele>
        <time>2021-11-21T15:16:38Z</time>
      </trkpt>
      <trkpt lat="44.19434" lon="1.36964">
        <ele>155</ele>
        <time>2021-11-21T15:16:39Z</time>
      </trkpt>
      <trkpt lat="44.19434" lon="1.36962">
        <ele>155.1</ele>
        <time>2021-11-21T15:16:41Z</time>
      </trkpt>
      <trkpt lat="44.19434" lon="1.36961">
        <ele>155.3</ele>
        <time>2021-11-21T15:16:42Z</time>
      </trkpt>
      <trkpt lat="44.19434" lon="1.3696">
        <ele>155.3</ele>
        <time>2021-11-21T15:16:43Z</time>
      </trkpt>
      <trkpt lat="44.19434" lon="1.3696">
        <ele>155.4</ele>
        <time>2021-11-21T15:16:45Z</time>
      </trkpt>
      <trkpt lat="44.19434" lon="1.3696">
        <ele>155.4</ele>
        <time>2021-11-21T15:16:47Z</time>
      </trkpt>
      <trkpt lat="44.19434" lon="1.3696">
        <ele>155.4</ele>
        <time>2021-11-21T15:16:48Z</time>
      </trkpt>
      <trkpt lat="44.19434" lon="1.3696">
        <ele>155.5</ele>
        <time>2021-11-21T15:16:49Z</time>
      </trkpt>
      <trkpt lat="44.19434" lon="1.3696">
        <ele>155.5</ele>
        <time>2021-11-21T15:16:50Z</time>
      </trkpt>
      <trkpt lat="44.19434" lon="1.36959">
        <ele>155.6</ele>
        <time>2021-11-21T15:16:52Z</time>
      </trkpt>
      <trkpt lat="44.19435" lon="1.36958">
        <ele>155.7</ele>
        <time>2021-11-21T15:16:53Z</time>
      </trkpt>
      <trkpt lat="44.19435" lon="1.36957">
        <ele>155.8</ele>
        <time>2021-11-21T15:16:55Z</time>
      </trkpt>
      <trkpt lat="44.19436" lon="1.36955">
        <ele>155.9</ele>
        <time>2021-11-21T15:16:56Z</time>
      </trkpt>
      <trkpt lat="44.19436" lon="1.36953">
        <ele>156.1</ele>
        <time>2021-11-21T15:16:58Z</time>
      </trkpt>
      <trkpt lat="44.19436" lon="1.36952">
        <ele>156.2</ele>
        <time>2021-11-21T15:16:59Z</time>
      </trkpt>
      <trkpt lat="44.19436" lon="1.3695">
        <ele>156.4</ele>
        <time>2021-11-21T15:17:01Z</time>
      </trkpt>
      <trkpt lat="44.19436" lon="1.36949">
        <ele>156.5</ele>
        <time>2021-11-21T15:17:02Z</time>
      </trkpt>
      <trkpt lat="44.19436" lon="1.36947">
        <ele>156.7</ele>
        <time>2021-11-21T15:17:04Z</time>
      </trkpt>
      <trkpt lat="44.19436" lon="1.36945">
        <ele>156.8</ele>
        <time>2021-11-21T15:17:05Z</time>
      </trkpt>
      <trkpt lat="44.19437" lon="1.36943">
        <ele>157</ele>
        <time>2021-11-21T15:17:07Z</time>
      </trkpt>
      <trkpt lat="44.19437" lon="1.36942">
        <ele>157.1</ele>
        <time>2021-11-21T15:17:08Z</time>
      </trkpt>
      <trkpt lat="44.19437" lon="1.36941">
        <ele>157.2</ele>
        <time>2021-11-21T15:17:09Z</time>
      </trkpt>
      <trkpt lat="44.19438" lon="1.36939">
        <ele>157.3</ele>
        <time>2021-11-21T15:17:11Z</time>
      </trkpt>
      <trkpt lat="44.19438" lon="1.36938">
        <ele>157.4</ele>
        <time>2021-11-21T15:17:12Z</time>
      </trkpt>
      <trkpt lat="44.19438" lon="1.36936">
        <ele>157.5</ele>
        <time>2021-11-21T15:17:14Z</time>
      </trkpt>
      <trkpt lat="44.19438" lon="1.36935">
        <ele>157.6</ele>
        <time>2021-11-21T15:17:15Z</time>
      </trkpt>
      <trkpt lat="44.19437" lon="1.36934">
        <ele>158.3</ele>
        <time>2021-11-21T15:17:17Z</time>
      </trkpt>
      <trkpt lat="44.19436" lon="1.36933">
        <ele>158.3</ele>
        <time>2021-11-21T15:17:18Z</time>
      </trkpt>
      <trkpt lat="44.19436" lon="1.36932">
        <ele>158.3</ele>
        <time>2021-11-21T15:17:19Z</time>
      </trkpt>
      <trkpt lat="44.19435" lon="1.3693">
        <ele>158.3</ele>
        <time>2021-11-21T15:17:21Z</time>
      </trkpt>
      <trkpt lat="44.19434" lon="1.36929">
        <ele>158.3</ele>
        <time>2021-11-21T15:17:22Z</time>
      </trkpt>
      <trkpt lat="44.19433" lon="1.36927">
        <ele>158.3</ele>
        <time>2021-11-21T15:17:24Z</time>
      </trkpt>
      <trkpt lat="44.19433" lon="1.36926">
        <ele>158.3</ele>
        <time>2021-11-21T15:17:25Z</time>
      </trkpt>
      <trkpt lat="44.19432" lon="1.36925">
        <ele>158.3</ele>
        <time>2021-11-21T15:17:26Z</time>
      </trkpt>
      <trkpt lat="44.19432" lon="1.36924">
        <ele>158.4</ele>
        <time>2021-11-21T15:17:28Z</time>
      </trkpt>
      <trkpt lat="44.19432" lon="1.36922">
        <ele>158.4</ele>
        <time>2021-11-21T15:17:29Z</time>
      </trkpt>
      <trkpt lat="44.19432" lon="1.36921">
        <ele>158.4</ele>
        <time>2021-11-21T15:17:31Z</time>
      </trkpt>
      <trkpt lat="44.19432" lon="1.36919">
        <ele>158.4</ele>
        <time>2021-11-21T15:17:32Z</time>
      </trkpt>
      <trkpt lat="44.19432" lon="1.36918">
        <ele>158.4</ele>
        <time>2021-11-21T15:17:33Z</time>
      </trkpt>
      <trkpt lat="44.19432" lon="1.36917">
        <ele>158.4</ele>
        <time>2021-11-21T15:17:34Z</time>
      </trkpt>
      <trkpt lat="44.19432" lon="1.36914">
        <ele>158.5</ele>
        <time>2021-11-21T15:17:36Z</time>
      </trkpt>
      <trkpt lat="44.19432" lon="1.36913">
        <ele>158.5</ele>
        <time>2021-11-21T15:17:37Z</time>
      </trkpt>
      <trkpt lat="44.19431" lon="1.36911">
        <ele>158.5</ele>
        <time>2021-11-21T15:17:39Z</time>
      </trkpt>
      <trkpt lat="44.19431" lon="1.3691">
        <ele>158.5</ele>
        <time>2021-11-21T15:17:40Z</time>
      </trkpt>
      <trkpt lat="44.19431" lon="1.36908">
        <ele>158.5</ele>
        <time>2021-11-21T15:17:42Z</time>
      </trkpt>
      <trkpt lat="44.19431" lon="1.36907">
        <ele>158.5</ele>
        <time>2021-11-21T15:17:43Z</time>
      </trkpt>
      <trkpt lat="44.1943" lon="1.36906">
        <ele>158.6</ele>
        <time>2021-11-21T15:17:45Z</time>
      </trkpt>
      <trkpt lat="44.1943" lon="1.36904">
        <ele>158.6</ele>
        <time>2021-11-21T15:17:46Z</time>
      </trkpt>
      <trkpt lat="44.19431" lon="1.36905">
        <ele>158.6</ele>
        <time>2021-11-21T15:17:47Z</time>
      </trkpt>
      <trkpt lat="44.19431" lon="1.36905">
        <ele>158.6</ele>
        <time>2021-11-21T15:17:49Z</time>
      </trkpt>
      <trkpt lat="44.19431" lon="1.36906">
        <ele>158.6</ele>
        <time>2021-11-21T15:17:50Z</time>
      </trkpt>
      <trkpt lat="44.19431" lon="1.36906">
        <ele>158.6</ele>
        <time>2021-11-21T15:17:51Z</time>
      </trkpt>
      <trkpt lat="44.19431" lon="1.36906">
        <ele>158.6</ele>
        <time>2021-11-21T15:17:53Z</time>
      </trkpt>
      <trkpt lat="44.19431" lon="1.36906">
        <ele>158.6</ele>
        <time>2021-11-21T15:17:54Z</time>
      </trkpt>
      <trkpt lat="44.1943" lon="1.36906">
        <ele>158.6</ele>
        <time>2021-11-21T15:17:56Z</time>
      </trkpt>
      <trkpt lat="44.1943" lon="1.36905">
        <ele>158.6</ele>
        <time>2021-11-21T15:17:58Z</time>
      </trkpt>
      <trkpt lat="44.1943" lon="1.36905">
        <ele>158.6</ele>
        <time>2021-11-21T15:17:59Z</time>
      </trkpt>
      <trkpt lat="44.19429" lon="1.36904">
        <ele>158.7</ele>
        <time>2021-11-21T15:18:00Z</time>
      </trkpt>
      <trkpt lat="44.19429" lon="1.36903">
        <ele>158.7</ele>
        <time>2021-11-21T15:18:02Z</time>
      </trkpt>
      <trkpt lat="44.19428" lon="1.369">
        <ele>158.7</ele>
        <time>2021-11-21T15:18:03Z</time>
      </trkpt>
      <trkpt lat="44.19428" lon="1.36899">
        <ele>158.7</ele>
        <time>2021-11-21T15:18:05Z</time>
      </trkpt>
      <trkpt lat="44.19428" lon="1.36898">
        <ele>158.8</ele>
        <time>2021-11-21T15:18:06Z</time>
      </trkpt>
      <trkpt lat="44.19428" lon="1.36896">
        <ele>158.8</ele>
        <time>2021-11-21T15:18:08Z</time>
      </trkpt>
      <trkpt lat="44.19428" lon="1.36895">
        <ele>158.8</ele>
        <time>2021-11-21T15:18:09Z</time>
      </trkpt>
      <trkpt lat="44.19427" lon="1.36893">
        <ele>158.9</ele>
        <time>2021-11-21T15:18:11Z</time>
      </trkpt>
      <trkpt lat="44.19427" lon="1.36891">
        <ele>159</ele>
        <time>2021-11-21T15:18:12Z</time>
      </trkpt>
      <trkpt lat="44.19427" lon="1.3689">
        <ele>159</ele>
        <time>2021-11-21T15:18:13Z</time>
      </trkpt>
      <trkpt lat="44.19427" lon="1.36888">
        <ele>159</ele>
        <time>2021-11-21T15:18:15Z</time>
      </trkpt>
      <trkpt lat="44.19426" lon="1.36888">
        <ele>159.1</ele>
        <time>2021-11-21T15:18:16Z</time>
      </trkpt>
      <trkpt lat="44.19425" lon="1.36888">
        <ele>159.1</ele>
        <time>2021-11-21T15:18:18Z</time>
      </trkpt>
      <trkpt lat="44.19425" lon="1.36889">
        <ele>159.1</ele>
        <time>2021-11-21T15:18:19Z</time>
      </trkpt>
      <trkpt lat="44.19425" lon="1.36889">
        <ele>159.1</ele>
        <time>2021-11-21T15:18:21Z</time>
      </trkpt>
      <trkpt lat="44.19425" lon="1.36889">
        <ele>159.1</ele>
        <time>2021-11-21T15:18:23Z</time>
      </trkpt>
      <trkpt lat="44.19425" lon="1.36889">
        <ele>159.1</ele>
        <time>2021-11-21T15:18:24Z</time>
      </trkpt>
      <trkpt lat="44.19425" lon="1.36888">
        <ele>159.2</ele>
        <time>2021-11-21T15:18:26Z</time>
      </trkpt>
      <trkpt lat="44.19425" lon="1.36887">
        <ele>159.2</ele>
        <time>2021-11-21T15:18:27Z</time>
      </trkpt>
      <trkpt lat="44.19424" lon="1.36886">
        <ele>159.3</ele>
        <time>2021-11-21T15:18:29Z</time>
      </trkpt>
      <trkpt lat="44.19424" lon="1.36884">
        <ele>159.3</ele>
        <time>2021-11-21T15:18:30Z</time>
      </trkpt>
      <trkpt lat="44.19423" lon="1.36882">
        <ele>159.4</ele>
        <time>2021-11-21T15:18:31Z</time>
      </trkpt>
      <trkpt lat="44.19423" lon="1.36881">
        <ele>159.4</ele>
        <time>2021-11-21T15:18:33Z</time>
      </trkpt>
      <trkpt lat="44.19423" lon="1.3688">
        <ele>159.5</ele>
        <time>2021-11-21T15:18:34Z</time>
      </trkpt>
      <trkpt lat="44.19422" lon="1.36878">
        <ele>159.5</ele>
        <time>2021-11-21T15:18:35Z</time>
      </trkpt>
      <trkpt lat="44.19421" lon="1.36876">
        <ele>159.6</ele>
        <time>2021-11-21T15:18:37Z</time>
      </trkpt>
      <trkpt lat="44.19421" lon="1.36874">
        <ele>159.6</ele>
        <time>2021-11-21T15:18:38Z</time>
      </trkpt>
      <trkpt lat="44.19422" lon="1.36872">
        <ele>159.7</ele>
        <time>2021-11-21T15:18:40Z</time>
      </trkpt>
      <trkpt lat="44.19422" lon="1.36871">
        <ele>159.8</ele>
        <time>2021-11-21T15:18:41Z</time>
      </trkpt>
      <trkpt lat="44.19422" lon="1.36869">
        <ele>159.8</ele>
        <time>2021-11-21T15:18:42Z</time>
      </trkpt>
      <trkpt lat="44.19422" lon="1.36868">
        <ele>159.9</ele>
        <time>2021-11-21T15:18:43Z</time>
      </trkpt>
      <trkpt lat="44.19421" lon="1.36865">
        <ele>160</ele>
        <time>2021-11-21T15:18:45Z</time>
      </trkpt>
      <trkpt lat="44.19421" lon="1.36864">
        <ele>160</ele>
        <time>2021-11-21T15:18:46Z</time>
      </trkpt>
      <trkpt lat="44.19421" lon="1.36863">
        <ele>160.1</ele>
        <time>2021-11-21T15:18:47Z</time>
      </trkpt>
      <trkpt lat="44.19421" lon="1.36861">
        <ele>160.1</ele>
        <time>2021-11-21T15:18:49Z</time>
      </trkpt>
      <trkpt lat="44.19421" lon="1.3686">
        <ele>160.2</ele>
        <time>2021-11-21T15:18:50Z</time>
      </trkpt>
      <trkpt lat="44.19421" lon="1.36858">
        <ele>160.2</ele>
        <time>2021-11-21T15:18:51Z</time>
      </trkpt>
      <trkpt lat="44.1942" lon="1.36855">
        <ele>160.3</ele>
        <time>2021-11-21T15:18:53Z</time>
      </trkpt>
      <trkpt lat="44.1942" lon="1.36854">
        <ele>160.4</ele>
        <time>2021-11-21T15:18:54Z</time>
      </trkpt>
      <trkpt lat="44.19419" lon="1.36853">
        <ele>160.4</ele>
        <time>2021-11-21T15:18:55Z</time>
      </trkpt>
      <trkpt lat="44.19419" lon="1.36852">
        <ele>160.5</ele>
        <time>2021-11-21T15:18:57Z</time>
      </trkpt>
      <trkpt lat="44.19419" lon="1.3685">
        <ele>160.6</ele>
        <time>2021-11-21T15:18:58Z</time>
      </trkpt>
      <trkpt lat="44.19418" lon="1.36847">
        <ele>160.7</ele>
        <time>2021-11-21T15:18:59Z</time>
      </trkpt>
      <trkpt lat="44.19417" lon="1.36846">
        <ele>160.7</ele>
        <time>2021-11-21T15:19:01Z</time>
      </trkpt>
      <trkpt lat="44.19417" lon="1.36845">
        <ele>160.8</ele>
        <time>2021-11-21T15:19:02Z</time>
      </trkpt>
      <trkpt lat="44.19416" lon="1.36842">
        <ele>160.9</ele>
        <time>2021-11-21T15:19:04Z</time>
      </trkpt>
      <trkpt lat="44.19415" lon="1.36841">
        <ele>161</ele>
        <time>2021-11-21T15:19:05Z</time>
      </trkpt>
      <trkpt lat="44.19415" lon="1.3684">
        <ele>161</ele>
        <time>2021-11-21T15:19:06Z</time>
      </trkpt>
      <trkpt lat="44.19415" lon="1.36839">
        <ele>161.1</ele>
        <time>2021-11-21T15:19:07Z</time>
      </trkpt>
      <trkpt lat="44.19414" lon="1.36838">
        <ele>161.1</ele>
        <time>2021-11-21T15:19:09Z</time>
      </trkpt>
      <trkpt lat="44.19413" lon="1.36836">
        <ele>161.2</ele>
        <time>2021-11-21T15:19:10Z</time>
      </trkpt>
      <trkpt lat="44.19413" lon="1.36835">
        <ele>161.3</ele>
        <time>2021-11-21T15:19:11Z</time>
      </trkpt>
      <trkpt lat="44.19413" lon="1.36834">
        <ele>161.3</ele>
        <time>2021-11-21T15:19:12Z</time>
      </trkpt>
      <trkpt lat="44.19413" lon="1.36832">
        <ele>161.4</ele>
        <time>2021-11-21T15:19:14Z</time>
      </trkpt>
      <trkpt lat="44.19413" lon="1.36831">
        <ele>161.4</ele>
        <time>2021-11-21T15:19:15Z</time>
      </trkpt>
      <trkpt lat="44.19412" lon="1.36829">
        <ele>161.5</ele>
        <time>2021-11-21T15:19:17Z</time>
      </trkpt>
      <trkpt lat="44.19412" lon="1.36827">
        <ele>161.6</ele>
        <time>2021-11-21T15:19:18Z</time>
      </trkpt>
      <trkpt lat="44.19412" lon="1.36826">
        <ele>161.7</ele>
        <time>2021-11-21T15:19:20Z</time>
      </trkpt>
      <trkpt lat="44.19412" lon="1.36824">
        <ele>161.7</ele>
        <time>2021-11-21T15:19:21Z</time>
      </trkpt>
      <trkpt lat="44.19411" lon="1.36823">
        <ele>161.8</ele>
        <time>2021-11-21T15:19:22Z</time>
      </trkpt>
      <trkpt lat="44.19411" lon="1.3682">
        <ele>161.9</ele>
        <time>2021-11-21T15:19:24Z</time>
      </trkpt>
      <trkpt lat="44.19411" lon="1.36819">
        <ele>162</ele>
        <time>2021-11-21T15:19:25Z</time>
      </trkpt>
      <trkpt lat="44.19411" lon="1.36817">
        <ele>162</ele>
        <time>2021-11-21T15:19:26Z</time>
      </trkpt>
      <trkpt lat="44.19411" lon="1.36815">
        <ele>162.1</ele>
        <time>2021-11-21T15:19:28Z</time>
      </trkpt>
      <trkpt lat="44.19411" lon="1.36813">
        <ele>162.2</ele>
        <time>2021-11-21T15:19:29Z</time>
      </trkpt>
      <trkpt lat="44.1941" lon="1.36812">
        <ele>162.3</ele>
        <time>2021-11-21T15:19:30Z</time>
      </trkpt>
      <trkpt lat="44.1941" lon="1.3681">
        <ele>162.3</ele>
        <time>2021-11-21T15:19:32Z</time>
      </trkpt>
      <trkpt lat="44.1941" lon="1.36809">
        <ele>162.4</ele>
        <time>2021-11-21T15:19:33Z</time>
      </trkpt>
      <trkpt lat="44.19409" lon="1.36806">
        <ele>162.5</ele>
        <time>2021-11-21T15:19:35Z</time>
      </trkpt>
      <trkpt lat="44.19409" lon="1.36805">
        <ele>162.6</ele>
        <time>2021-11-21T15:19:36Z</time>
      </trkpt>
      <trkpt lat="44.19408" lon="1.36803">
        <ele>162.7</ele>
        <time>2021-11-21T15:19:37Z</time>
      </trkpt>
      <trkpt lat="44.19406" lon="1.36801">
        <ele>162.8</ele>
        <time>2021-11-21T15:19:39Z</time>
      </trkpt>
      <trkpt lat="44.19405" lon="1.368">
        <ele>162.9</ele>
        <time>2021-11-21T15:19:40Z</time>
      </trkpt>
      <trkpt lat="44.19404" lon="1.36798">
        <ele>163.1</ele>
        <time>2021-11-21T15:19:42Z</time>
      </trkpt>
      <trkpt lat="44.19403" lon="1.36797">
        <ele>163.1</ele>
        <time>2021-11-21T15:19:43Z</time>
      </trkpt>
      <trkpt lat="44.19403" lon="1.36795">
        <ele>163.2</ele>
        <time>2021-11-21T15:19:45Z</time>
      </trkpt>
      <trkpt lat="44.19402" lon="1.36794">
        <ele>163.3</ele>
        <time>2021-11-21T15:19:46Z</time>
      </trkpt>
      <trkpt lat="44.19401" lon="1.36791">
        <ele>163.4</ele>
        <time>2021-11-21T15:19:48Z</time>
      </trkpt>
      <trkpt lat="44.19401" lon="1.3679">
        <ele>163.5</ele>
        <time>2021-11-21T15:19:49Z</time>
      </trkpt>
      <trkpt lat="44.19401" lon="1.36789">
        <ele>163.5</ele>
        <time>2021-11-21T15:19:51Z</time>
      </trkpt>
      <trkpt lat="44.194" lon="1.36788">
        <ele>163.6</ele>
        <time>2021-11-21T15:19:52Z</time>
      </trkpt>
      <trkpt lat="44.194" lon="1.36786">
        <ele>163.7</ele>
        <time>2021-11-21T15:19:54Z</time>
      </trkpt>
      <trkpt lat="44.194" lon="1.36785">
        <ele>163.7</ele>
        <time>2021-11-21T15:19:55Z</time>
      </trkpt>
      <trkpt lat="44.19399" lon="1.36784">
        <ele>163.8</ele>
        <time>2021-11-21T15:19:57Z</time>
      </trkpt>
      <trkpt lat="44.19398" lon="1.36782">
        <ele>163.9</ele>
        <time>2021-11-21T15:19:58Z</time>
      </trkpt>
      <trkpt lat="44.19397" lon="1.3678">
        <ele>164</ele>
        <time>2021-11-21T15:20:00Z</time>
      </trkpt>
      <trkpt lat="44.19397" lon="1.36779">
        <ele>164.1</ele>
        <time>2021-11-21T15:20:01Z</time>
      </trkpt>
      <trkpt lat="44.19397" lon="1.36778">
        <ele>164.1</ele>
        <time>2021-11-21T15:20:03Z</time>
      </trkpt>
      <trkpt lat="44.19396" lon="1.36777">
        <ele>164.2</ele>
        <time>2021-11-21T15:20:04Z</time>
      </trkpt>
      <trkpt lat="44.19396" lon="1.36776">
        <ele>164.3</ele>
        <time>2021-11-21T15:20:05Z</time>
      </trkpt>
      <trkpt lat="44.19396" lon="1.36775">
        <ele>164.3</ele>
        <time>2021-11-21T15:20:07Z</time>
      </trkpt>
      <trkpt lat="44.19395" lon="1.36773">
        <ele>164.4</ele>
        <time>2021-11-21T15:20:08Z</time>
      </trkpt>
      <trkpt lat="44.19395" lon="1.36772">
        <ele>164.5</ele>
        <time>2021-11-21T15:20:10Z</time>
      </trkpt>
      <trkpt lat="44.19395" lon="1.3677">
        <ele>164.6</ele>
        <time>2021-11-21T15:20:11Z</time>
      </trkpt>
      <trkpt lat="44.19394" lon="1.36769">
        <ele>164.7</ele>
        <time>2021-11-21T15:20:12Z</time>
      </trkpt>
      <trkpt lat="44.19394" lon="1.36767">
        <ele>164.8</ele>
        <time>2021-11-21T15:20:14Z</time>
      </trkpt>
      <trkpt lat="44.19394" lon="1.36766">
        <ele>164.9</ele>
        <time>2021-11-21T15:20:15Z</time>
      </trkpt>
      <trkpt lat="44.19393" lon="1.36764">
        <ele>164.9</ele>
        <time>2021-11-21T15:20:17Z</time>
      </trkpt>
      <trkpt lat="44.19393" lon="1.36763">
        <ele>165</ele>
        <time>2021-11-21T15:20:18Z</time>
      </trkpt>
      <trkpt lat="44.19393" lon="1.36761">
        <ele>165.1</ele>
        <time>2021-11-21T15:20:19Z</time>
      </trkpt>
      <trkpt lat="44.19393" lon="1.3676">
        <ele>165.2</ele>
        <time>2021-11-21T15:20:21Z</time>
      </trkpt>
      <trkpt lat="44.19393" lon="1.36759">
        <ele>165.2</ele>
        <time>2021-11-21T15:20:22Z</time>
      </trkpt>
      <trkpt lat="44.19392" lon="1.36757">
        <ele>165.3</ele>
        <time>2021-11-21T15:20:23Z</time>
      </trkpt>
      <trkpt lat="44.19392" lon="1.36755">
        <ele>165.4</ele>
        <time>2021-11-21T15:20:25Z</time>
      </trkpt>
      <trkpt lat="44.19392" lon="1.36754">
        <ele>165.5</ele>
        <time>2021-11-21T15:20:26Z</time>
      </trkpt>
      <trkpt lat="44.19391" lon="1.36752">
        <ele>165.6</ele>
        <time>2021-11-21T15:20:28Z</time>
      </trkpt>
      <trkpt lat="44.19391" lon="1.36751">
        <ele>165.7</ele>
        <time>2021-11-21T15:20:29Z</time>
      </trkpt>
      <trkpt lat="44.19391" lon="1.3675">
        <ele>165.8</ele>
        <time>2021-11-21T15:20:30Z</time>
      </trkpt>
      <trkpt lat="44.1939" lon="1.36749">
        <ele>165.8</ele>
        <time>2021-11-21T15:20:31Z</time>
      </trkpt>
      <trkpt lat="44.1939" lon="1.36747">
        <ele>166</ele>
        <time>2021-11-21T15:20:33Z</time>
      </trkpt>
      <trkpt lat="44.19389" lon="1.36745">
        <ele>166.1</ele>
        <time>2021-11-21T15:20:34Z</time>
      </trkpt>
      <trkpt lat="44.19389" lon="1.36743">
        <ele>166.2</ele>
        <time>2021-11-21T15:20:36Z</time>
      </trkpt>
      <trkpt lat="44.19388" lon="1.36741">
        <ele>166.3</ele>
        <time>2021-11-21T15:20:37Z</time>
      </trkpt>
      <trkpt lat="44.19388" lon="1.36739">
        <ele>166.4</ele>
        <time>2021-11-21T15:20:39Z</time>
      </trkpt>
      <trkpt lat="44.19387" lon="1.36737">
        <ele>166.5</ele>
        <time>2021-11-21T15:20:40Z</time>
      </trkpt>
      <trkpt lat="44.19387" lon="1.36735">
        <ele>166.6</ele>
        <time>2021-11-21T15:20:41Z</time>
      </trkpt>
      <trkpt lat="44.19386" lon="1.36733">
        <ele>166.8</ele>
        <time>2021-11-21T15:20:43Z</time>
      </trkpt>
      <trkpt lat="44.19385" lon="1.3673">
        <ele>166.9</ele>
        <time>2021-11-21T15:20:44Z</time>
      </trkpt>
      <trkpt lat="44.19385" lon="1.36729">
        <ele>167</ele>
        <time>2021-11-21T15:20:45Z</time>
      </trkpt>
      <trkpt lat="44.19385" lon="1.36728">
        <ele>167</ele>
        <time>2021-11-21T15:20:46Z</time>
      </trkpt>
      <trkpt lat="44.19384" lon="1.36727">
        <ele>167.1</ele>
        <time>2021-11-21T15:20:48Z</time>
      </trkpt>
      <trkpt lat="44.19383" lon="1.36725">
        <ele>167.2</ele>
        <time>2021-11-21T15:20:49Z</time>
      </trkpt>
      <trkpt lat="44.19383" lon="1.36722">
        <ele>167.4</ele>
        <time>2021-11-21T15:20:50Z</time>
      </trkpt>
      <trkpt lat="44.19382" lon="1.3672">
        <ele>167.4</ele>
        <time>2021-11-21T15:20:52Z</time>
      </trkpt>
      <trkpt lat="44.19382" lon="1.36719">
        <ele>167.5</ele>
        <time>2021-11-21T15:20:53Z</time>
      </trkpt>
      <trkpt lat="44.19381" lon="1.36718">
        <ele>167.6</ele>
        <time>2021-11-21T15:20:55Z</time>
      </trkpt>
      <trkpt lat="44.19381" lon="1.36716">
        <ele>167.6</ele>
        <time>2021-11-21T15:20:56Z</time>
      </trkpt>
      <trkpt lat="44.19381" lon="1.36715">
        <ele>167.7</ele>
        <time>2021-11-21T15:20:57Z</time>
      </trkpt>
      <trkpt lat="44.19381" lon="1.36714">
        <ele>167.7</ele>
        <time>2021-11-21T15:20:58Z</time>
      </trkpt>
      <trkpt lat="44.1938" lon="1.36713">
        <ele>167.8</ele>
        <time>2021-11-21T15:21:00Z</time>
      </trkpt>
      <trkpt lat="44.1938" lon="1.36711">
        <ele>167.9</ele>
        <time>2021-11-21T15:21:01Z</time>
      </trkpt>
      <trkpt lat="44.19379" lon="1.3671">
        <ele>168</ele>
        <time>2021-11-21T15:21:02Z</time>
      </trkpt>
      <trkpt lat="44.19378" lon="1.36708">
        <ele>168.1</ele>
        <time>2021-11-21T15:21:04Z</time>
      </trkpt>
      <trkpt lat="44.19378" lon="1.36707">
        <ele>168.1</ele>
        <time>2021-11-21T15:21:05Z</time>
      </trkpt>
      <trkpt lat="44.19377" lon="1.36706">
        <ele>168.2</ele>
        <time>2021-11-21T15:21:06Z</time>
      </trkpt>
      <trkpt lat="44.19376" lon="1.36705">
        <ele>168.2</ele>
        <time>2021-11-21T15:21:07Z</time>
      </trkpt>
      <trkpt lat="44.19375" lon="1.36703">
        <ele>168.4</ele>
        <time>2021-11-21T15:21:09Z</time>
      </trkpt>
      <trkpt lat="44.19374" lon="1.36701">
        <ele>168.4</ele>
        <time>2021-11-21T15:21:11Z</time>
      </trkpt>
      <trkpt lat="44.19374" lon="1.367">
        <ele>168.5</ele>
        <time>2021-11-21T15:21:12Z</time>
      </trkpt>
      <trkpt lat="44.19374" lon="1.36699">
        <ele>168.6</ele>
        <time>2021-11-21T15:21:14Z</time>
      </trkpt>
      <trkpt lat="44.19373" lon="1.36698">
        <ele>168.6</ele>
        <time>2021-11-21T15:21:15Z</time>
      </trkpt>
      <trkpt lat="44.19373" lon="1.36696">
        <ele>168.7</ele>
        <time>2021-11-21T15:21:16Z</time>
      </trkpt>
      <trkpt lat="44.19373" lon="1.36695">
        <ele>168.7</ele>
        <time>2021-11-21T15:21:17Z</time>
      </trkpt>
      <trkpt lat="44.19373" lon="1.36693">
        <ele>168.8</ele>
        <time>2021-11-21T15:21:19Z</time>
      </trkpt>
      <trkpt lat="44.19373" lon="1.36691">
        <ele>168.9</ele>
        <time>2021-11-21T15:21:20Z</time>
      </trkpt>
      <trkpt lat="44.19373" lon="1.3669">
        <ele>168.9</ele>
        <time>2021-11-21T15:21:21Z</time>
      </trkpt>
      <trkpt lat="44.19373" lon="1.36689">
        <ele>169</ele>
        <time>2021-11-21T15:21:22Z</time>
      </trkpt>
      <trkpt lat="44.19373" lon="1.36686">
        <ele>169.1</ele>
        <time>2021-11-21T15:21:24Z</time>
      </trkpt>
      <trkpt lat="44.19373" lon="1.36684">
        <ele>169.1</ele>
        <time>2021-11-21T15:21:25Z</time>
      </trkpt>
      <trkpt lat="44.19373" lon="1.36682">
        <ele>169.2</ele>
        <time>2021-11-21T15:21:27Z</time>
      </trkpt>
      <trkpt lat="44.19372" lon="1.3668">
        <ele>169.3</ele>
        <time>2021-11-21T15:21:28Z</time>
      </trkpt>
      <trkpt lat="44.19372" lon="1.36677">
        <ele>169.4</ele>
        <time>2021-11-21T15:21:29Z</time>
      </trkpt>
      <trkpt lat="44.19372" lon="1.36676">
        <ele>169.5</ele>
        <time>2021-11-21T15:21:31Z</time>
      </trkpt>
      <trkpt lat="44.19371" lon="1.36674">
        <ele>169.5</ele>
        <time>2021-11-21T15:21:32Z</time>
      </trkpt>
      <trkpt lat="44.19371" lon="1.36673">
        <ele>169.6</ele>
        <time>2021-11-21T15:21:34Z</time>
      </trkpt>
      <trkpt lat="44.19371" lon="1.36671">
        <ele>169.6</ele>
        <time>2021-11-21T15:21:35Z</time>
      </trkpt>
      <trkpt lat="44.19371" lon="1.36669">
        <ele>169.7</ele>
        <time>2021-11-21T15:21:36Z</time>
      </trkpt>
      <trkpt lat="44.1937" lon="1.36668">
        <ele>169.7</ele>
        <time>2021-11-21T15:21:37Z</time>
      </trkpt>
      <trkpt lat="44.1937" lon="1.36667">
        <ele>169.8</ele>
        <time>2021-11-21T15:21:39Z</time>
      </trkpt>
      <trkpt lat="44.1937" lon="1.36665">
        <ele>169.8</ele>
        <time>2021-11-21T15:21:40Z</time>
      </trkpt>
      <trkpt lat="44.19369" lon="1.36664">
        <ele>169.9</ele>
        <time>2021-11-21T15:21:41Z</time>
      </trkpt>
      <trkpt lat="44.19369" lon="1.36662">
        <ele>169.9</ele>
        <time>2021-11-21T15:21:42Z</time>
      </trkpt>
      <trkpt lat="44.19369" lon="1.36661">
        <ele>170</ele>
        <time>2021-11-21T15:21:44Z</time>
      </trkpt>
      <trkpt lat="44.19368" lon="1.36659">
        <ele>170</ele>
        <time>2021-11-21T15:21:45Z</time>
      </trkpt>
      <trkpt lat="44.19368" lon="1.36658">
        <ele>170</ele>
        <time>2021-11-21T15:21:47Z</time>
      </trkpt>
      <trkpt lat="44.19368" lon="1.36657">
        <ele>170.1</ele>
        <time>2021-11-21T15:21:48Z</time>
      </trkpt>
      <trkpt lat="44.19367" lon="1.36656">
        <ele>170.1</ele>
        <time>2021-11-21T15:21:50Z</time>
      </trkpt>
      <trkpt lat="44.19367" lon="1.36655">
        <ele>170.2</ele>
        <time>2021-11-21T15:21:51Z</time>
      </trkpt>
      <trkpt lat="44.19366" lon="1.36654">
        <ele>170.2</ele>
        <time>2021-11-21T15:21:52Z</time>
      </trkpt>
      <trkpt lat="44.19366" lon="1.36654">
        <ele>170.2</ele>
        <time>2021-11-21T15:21:53Z</time>
      </trkpt>
      <trkpt lat="44.19366" lon="1.36652">
        <ele>170.2</ele>
        <time>2021-11-21T15:21:55Z</time>
      </trkpt>
      <trkpt lat="44.19365" lon="1.36651">
        <ele>170.3</ele>
        <time>2021-11-21T15:21:56Z</time>
      </trkpt>
      <trkpt lat="44.19365" lon="1.36651">
        <ele>170.3</ele>
        <time>2021-11-21T15:21:58Z</time>
      </trkpt>
      <trkpt lat="44.19364" lon="1.36651">
        <ele>170.3</ele>
        <time>2021-11-21T15:21:59Z</time>
      </trkpt>
      <trkpt lat="44.19364" lon="1.3665">
        <ele>170.3</ele>
        <time>2021-11-21T15:22:01Z</time>
      </trkpt>
      <trkpt lat="44.19364" lon="1.36649">
        <ele>170.3</ele>
        <time>2021-11-21T15:22:02Z</time>
      </trkpt>
      <trkpt lat="44.19364" lon="1.36648">
        <ele>170.4</ele>
        <time>2021-11-21T15:22:03Z</time>
      </trkpt>
      <trkpt lat="44.19364" lon="1.36645">
        <ele>170.5</ele>
        <time>2021-11-21T15:22:04Z</time>
      </trkpt>
      <trkpt lat="44.19363" lon="1.36644">
        <ele>170.5</ele>
        <time>2021-11-21T15:22:06Z</time>
      </trkpt>
      <trkpt lat="44.19363" lon="1.36643">
        <ele>170.5</ele>
        <time>2021-11-21T15:22:07Z</time>
      </trkpt>
      <trkpt lat="44.19363" lon="1.36642">
        <ele>170.5</ele>
        <time>2021-11-21T15:22:09Z</time>
      </trkpt>
      <trkpt lat="44.19363" lon="1.36641">
        <ele>170.5</ele>
        <time>2021-11-21T15:22:10Z</time>
      </trkpt>
      <trkpt lat="44.19363" lon="1.3664">
        <ele>170.6</ele>
        <time>2021-11-21T15:22:11Z</time>
      </trkpt>
      <trkpt lat="44.19363" lon="1.36639">
        <ele>170.6</ele>
        <time>2021-11-21T15:22:13Z</time>
      </trkpt>
      <trkpt lat="44.19363" lon="1.36638">
        <ele>170.6</ele>
        <time>2021-11-21T15:22:14Z</time>
      </trkpt>
      <trkpt lat="44.19363" lon="1.36637">
        <ele>170.6</ele>
        <time>2021-11-21T15:22:16Z</time>
      </trkpt>
      <trkpt lat="44.19363" lon="1.36635">
        <ele>170.7</ele>
        <time>2021-11-21T15:22:17Z</time>
      </trkpt>
      <trkpt lat="44.19363" lon="1.36634">
        <ele>170.7</ele>
        <time>2021-11-21T15:22:18Z</time>
      </trkpt>
      <trkpt lat="44.19362" lon="1.36631">
        <ele>170.8</ele>
        <time>2021-11-21T15:22:19Z</time>
      </trkpt>
      <trkpt lat="44.19361" lon="1.3663">
        <ele>170.8</ele>
        <time>2021-11-21T15:22:21Z</time>
      </trkpt>
      <trkpt lat="44.19361" lon="1.36629">
        <ele>170.8</ele>
        <time>2021-11-21T15:22:22Z</time>
      </trkpt>
      <trkpt lat="44.1936" lon="1.36627">
        <ele>170.9</ele>
        <time>2021-11-21T15:22:23Z</time>
      </trkpt>
      <trkpt lat="44.1936" lon="1.36625">
        <ele>170.9</ele>
        <time>2021-11-21T15:22:25Z</time>
      </trkpt>
      <trkpt lat="44.19359" lon="1.36624">
        <ele>170.9</ele>
        <time>2021-11-21T15:22:26Z</time>
      </trkpt>
      <trkpt lat="44.19359" lon="1.36623">
        <ele>170.9</ele>
        <time>2021-11-21T15:22:27Z</time>
      </trkpt>
      <trkpt lat="44.19358" lon="1.36621">
        <ele>171</ele>
        <time>2021-11-21T15:22:29Z</time>
      </trkpt>
      <trkpt lat="44.19358" lon="1.36619">
        <ele>171</ele>
        <time>2021-11-21T15:22:31Z</time>
      </trkpt>
      <trkpt lat="44.19358" lon="1.36617">
        <ele>171</ele>
        <time>2021-11-21T15:22:32Z</time>
      </trkpt>
      <trkpt lat="44.19357" lon="1.36616">
        <ele>171.1</ele>
        <time>2021-11-21T15:22:33Z</time>
      </trkpt>
      <trkpt lat="44.19357" lon="1.36615">
        <ele>171.1</ele>
        <time>2021-11-21T15:22:34Z</time>
      </trkpt>
      <trkpt lat="44.19357" lon="1.36614">
        <ele>171.1</ele>
        <time>2021-11-21T15:22:35Z</time>
      </trkpt>
      <trkpt lat="44.19357" lon="1.36613">
        <ele>171.1</ele>
        <time>2021-11-21T15:22:37Z</time>
      </trkpt>
      <trkpt lat="44.19356" lon="1.36611">
        <ele>171.1</ele>
        <time>2021-11-21T15:22:38Z</time>
      </trkpt>
      <trkpt lat="44.19356" lon="1.3661">
        <ele>171.1</ele>
        <time>2021-11-21T15:22:39Z</time>
      </trkpt>
      <trkpt lat="44.19355" lon="1.36607">
        <ele>171.2</ele>
        <time>2021-11-21T15:22:40Z</time>
      </trkpt>
      <trkpt lat="44.19355" lon="1.36606">
        <ele>171.2</ele>
        <time>2021-11-21T15:22:41Z</time>
      </trkpt>
      <trkpt lat="44.19355" lon="1.36605">
        <ele>171.2</ele>
        <time>2021-11-21T15:22:42Z</time>
      </trkpt>
      <trkpt lat="44.19354" lon="1.36602">
        <ele>171.2</ele>
        <time>2021-11-21T15:22:44Z</time>
      </trkpt>
      <trkpt lat="44.19354" lon="1.366">
        <ele>171.2</ele>
        <time>2021-11-21T15:22:45Z</time>
      </trkpt>
      <trkpt lat="44.19354" lon="1.36599">
        <ele>171.2</ele>
        <time>2021-11-21T15:22:46Z</time>
      </trkpt>
      <trkpt lat="44.19354" lon="1.36597">
        <ele>171.3</ele>
        <time>2021-11-21T15:22:47Z</time>
      </trkpt>
      <trkpt lat="44.19354" lon="1.36596">
        <ele>171.3</ele>
        <time>2021-11-21T15:22:48Z</time>
      </trkpt>
      <trkpt lat="44.19354" lon="1.36593">
        <ele>171.3</ele>
        <time>2021-11-21T15:22:50Z</time>
      </trkpt>
      <trkpt lat="44.19354" lon="1.36591">
        <ele>171.3</ele>
        <time>2021-11-21T15:22:51Z</time>
      </trkpt>
      <trkpt lat="44.19354" lon="1.3659">
        <ele>171.3</ele>
        <time>2021-11-21T15:22:52Z</time>
      </trkpt>
      <trkpt lat="44.19354" lon="1.36587">
        <ele>171.3</ele>
        <time>2021-11-21T15:22:54Z</time>
      </trkpt>
      <trkpt lat="44.19353" lon="1.36585">
        <ele>171.4</ele>
        <time>2021-11-21T15:22:55Z</time>
      </trkpt>
      <trkpt lat="44.19353" lon="1.36583">
        <ele>171.4</ele>
        <time>2021-11-21T15:22:56Z</time>
      </trkpt>
      <trkpt lat="44.19353" lon="1.36581">
        <ele>171.4</ele>
        <time>2021-11-21T15:22:58Z</time>
      </trkpt>
      <trkpt lat="44.19352" lon="1.36579">
        <ele>171.4</ele>
        <time>2021-11-21T15:22:59Z</time>
      </trkpt>
      <trkpt lat="44.19352" lon="1.36578">
        <ele>171.4</ele>
        <time>2021-11-21T15:23:00Z</time>
      </trkpt>
      <trkpt lat="44.19351" lon="1.36577">
        <ele>171.4</ele>
        <time>2021-11-21T15:23:01Z</time>
      </trkpt>
      <trkpt lat="44.19351" lon="1.36575">
        <ele>171.4</ele>
        <time>2021-11-21T15:23:02Z</time>
      </trkpt>
      <trkpt lat="44.19349" lon="1.36574">
        <ele>171.4</ele>
        <time>2021-11-21T15:23:04Z</time>
      </trkpt>
      <trkpt lat="44.19348" lon="1.36573">
        <ele>171.4</ele>
        <time>2021-11-21T15:23:05Z</time>
      </trkpt>
      <trkpt lat="44.19347" lon="1.36572">
        <ele>171.4</ele>
        <time>2021-11-21T15:23:06Z</time>
      </trkpt>
      <trkpt lat="44.19345" lon="1.36572">
        <ele>171.4</ele>
        <time>2021-11-21T15:23:08Z</time>
      </trkpt>
      <trkpt lat="44.19343" lon="1.36571">
        <ele>171.4</ele>
        <time>2021-11-21T15:23:09Z</time>
      </trkpt>
      <trkpt lat="44.19342" lon="1.36571">
        <ele>171.4</ele>
        <time>2021-11-21T15:23:10Z</time>
      </trkpt>
      <trkpt lat="44.19341" lon="1.3657">
        <ele>171.4</ele>
        <time>2021-11-21T15:23:11Z</time>
      </trkpt>
      <trkpt lat="44.1934" lon="1.36569">
        <ele>171.4</ele>
        <time>2021-11-21T15:23:12Z</time>
      </trkpt>
      <trkpt lat="44.19339" lon="1.36569">
        <ele>171.4</ele>
        <time>2021-11-21T15:23:13Z</time>
      </trkpt>
      <trkpt lat="44.19338" lon="1.36568">
        <ele>171.4</ele>
        <time>2021-11-21T15:23:14Z</time>
      </trkpt>
      <trkpt lat="44.19336" lon="1.36568">
        <ele>171.4</ele>
        <time>2021-11-21T15:23:16Z</time>
      </trkpt>
      <trkpt lat="44.19335" lon="1.36567">
        <ele>171.4</ele>
        <time>2021-11-21T15:23:17Z</time>
      </trkpt>
      <trkpt lat="44.19334" lon="1.36566">
        <ele>171.4</ele>
        <time>2021-11-21T15:23:18Z</time>
      </trkpt>
      <trkpt lat="44.19332" lon="1.36565">
        <ele>171.4</ele>
        <time>2021-11-21T15:23:20Z</time>
      </trkpt>
      <trkpt lat="44.19331" lon="1.36564">
        <ele>171.4</ele>
        <time>2021-11-21T15:23:21Z</time>
      </trkpt>
      <trkpt lat="44.19329" lon="1.36563">
        <ele>171.4</ele>
        <time>2021-11-21T15:23:23Z</time>
      </trkpt>
      <trkpt lat="44.19328" lon="1.36562">
        <ele>171.4</ele>
        <time>2021-11-21T15:23:24Z</time>
      </trkpt>
      <trkpt lat="44.19328" lon="1.36562">
        <ele>171.4</ele>
        <time>2021-11-21T15:23:25Z</time>
      </trkpt>
      <trkpt lat="44.19328" lon="1.36562">
        <ele>171.4</ele>
        <time>2021-11-21T15:23:27Z</time>
      </trkpt>
      <trkpt lat="44.19328" lon="1.36562">
        <ele>171.4</ele>
        <time>2021-11-21T15:23:28Z</time>
      </trkpt>
      <trkpt lat="44.19328" lon="1.36561">
        <ele>171.4</ele>
        <time>2021-11-21T15:23:30Z</time>
      </trkpt>
      <trkpt lat="44.19328" lon="1.36561">
        <ele>171.4</ele>
        <time>2021-11-21T15:23:31Z</time>
      </trkpt>
      <trkpt lat="44.19328" lon="1.3656">
        <ele>171.4</ele>
        <time>2021-11-21T15:23:32Z</time>
      </trkpt>
      <trkpt lat="44.19327" lon="1.36558">
        <ele>171.4</ele>
        <time>2021-11-21T15:23:34Z</time>
      </trkpt>
      <trkpt lat="44.19328" lon="1.36556">
        <ele>171.4</ele>
        <time>2021-11-21T15:23:36Z</time>
      </trkpt>
      <trkpt lat="44.19327" lon="1.36554">
        <ele>171.4</ele>
        <time>2021-11-21T15:23:37Z</time>
      </trkpt>
      <trkpt lat="44.19328" lon="1.36552">
        <ele>171.4</ele>
        <time>2021-11-21T15:23:38Z</time>
      </trkpt>
      <trkpt lat="44.19328" lon="1.36551">
        <ele>171.4</ele>
        <time>2021-11-21T15:23:39Z</time>
      </trkpt>
      <trkpt lat="44.19329" lon="1.36548">
        <ele>171.4</ele>
        <time>2021-11-21T15:23:41Z</time>
      </trkpt>
      <trkpt lat="44.19329" lon="1.36546">
        <ele>171.4</ele>
        <time>2021-11-21T15:23:42Z</time>
      </trkpt>
      <trkpt lat="44.1933" lon="1.36545">
        <ele>171.4</ele>
        <time>2021-11-21T15:23:43Z</time>
      </trkpt>
      <trkpt lat="44.19329" lon="1.36542">
        <ele>171.4</ele>
        <time>2021-11-21T15:23:45Z</time>
      </trkpt>
      <trkpt lat="44.19329" lon="1.36541">
        <ele>171.4</ele>
        <time>2021-11-21T15:23:46Z</time>
      </trkpt>
      <trkpt lat="44.19328" lon="1.3654">
        <ele>171.4</ele>
        <time>2021-11-21T15:23:47Z</time>
      </trkpt>
      <trkpt lat="44.19327" lon="1.36539">
        <ele>171.4</ele>
        <time>2021-11-21T15:23:48Z</time>
      </trkpt>
      <trkpt lat="44.19325" lon="1.36539">
        <ele>171.4</ele>
        <time>2021-11-21T15:23:50Z</time>
      </trkpt>
      <trkpt lat="44.19324" lon="1.36539">
        <ele>171.4</ele>
        <time>2021-11-21T15:23:51Z</time>
      </trkpt>
      <trkpt lat="44.19323" lon="1.36539">
        <ele>171.4</ele>
        <time>2021-11-21T15:23:52Z</time>
      </trkpt>
      <trkpt lat="44.19322" lon="1.36538">
        <ele>171.4</ele>
        <time>2021-11-21T15:23:53Z</time>
      </trkpt>
      <trkpt lat="44.19321" lon="1.36538">
        <ele>171.4</ele>
        <time>2021-11-21T15:23:55Z</time>
      </trkpt>
      <trkpt lat="44.1932" lon="1.36537">
        <ele>171.4</ele>
        <time>2021-11-21T15:23:56Z</time>
      </trkpt>
      <trkpt lat="44.1932" lon="1.36538">
        <ele>171.4</ele>
        <time>2021-11-21T15:23:58Z</time>
      </trkpt>
      <trkpt lat="44.1932" lon="1.36539">
        <ele>171.4</ele>
        <time>2021-11-21T15:24:00Z</time>
      </trkpt>
      <trkpt lat="44.1932" lon="1.36539">
        <ele>171.4</ele>
        <time>2021-11-21T15:24:01Z</time>
      </trkpt>
      <trkpt lat="44.1932" lon="1.3654">
        <ele>171.4</ele>
        <time>2021-11-21T15:24:02Z</time>
      </trkpt>
      <trkpt lat="44.1932" lon="1.3654">
        <ele>171.4</ele>
        <time>2021-11-21T15:24:03Z</time>
      </trkpt>
      <trkpt lat="44.19321" lon="1.3654">
        <ele>171.4</ele>
        <time>2021-11-21T15:24:05Z</time>
      </trkpt>
      <trkpt lat="44.19321" lon="1.36541">
        <ele>171.4</ele>
        <time>2021-11-21T15:24:07Z</time>
      </trkpt>
      <trkpt lat="44.19321" lon="1.36541">
        <ele>171.4</ele>
        <time>2021-11-21T15:24:08Z</time>
      </trkpt>
      <trkpt lat="44.19322" lon="1.36542">
        <ele>171.4</ele>
        <time>2021-11-21T15:24:10Z</time>
      </trkpt>
      <trkpt lat="44.19322" lon="1.36542">
        <ele>171.4</ele>
        <time>2021-11-21T15:24:11Z</time>
      </trkpt>
      <trkpt lat="44.19322" lon="1.36542">
        <ele>171.4</ele>
        <time>2021-11-21T15:24:13Z</time>
      </trkpt>
      <trkpt lat="44.19322" lon="1.36542">
        <ele>171.4</ele>
        <time>2021-11-21T15:24:15Z</time>
      </trkpt>
      <trkpt lat="44.19322" lon="1.36542">
        <ele>171.4</ele>
        <time>2021-11-21T15:24:16Z</time>
      </trkpt>
      <trkpt lat="44.19322" lon="1.36542">
        <ele>171.4</ele>
        <time>2021-11-21T15:24:18Z</time>
      </trkpt>
      <trkpt lat="44.19323" lon="1.36542">
        <ele>171.4</ele>
        <time>2021-11-21T15:24:19Z</time>
      </trkpt>
      <trkpt lat="44.19323" lon="1.36542">
        <ele>171.4</ele>
        <time>2021-11-21T15:24:21Z</time>
      </trkpt>
      <trkpt lat="44.19322" lon="1.36542">
        <ele>171.4</ele>
        <time>2021-11-21T15:24:23Z</time>
      </trkpt>
      <trkpt lat="44.19322" lon="1.36543">
        <ele>171.4</ele>
        <time>2021-11-21T15:24:25Z</time>
      </trkpt>
      <trkpt lat="44.19321" lon="1.36543">
        <ele>171.4</ele>
        <time>2021-11-21T15:24:26Z</time>
      </trkpt>
      <trkpt lat="44.19321" lon="1.36543">
        <ele>171.4</ele>
        <time>2021-11-21T15:24:28Z</time>
      </trkpt>
      <trkpt lat="44.19321" lon="1.36543">
        <ele>171.4</ele>
        <time>2021-11-21T15:24:29Z</time>
      </trkpt>
      <trkpt lat="44.19321" lon="1.36543">
        <ele>171.4</ele>
        <time>2021-11-21T15:24:30Z</time>
      </trkpt>
      <trkpt lat="44.19321" lon="1.36543">
        <ele>171.4</ele>
        <time>2021-11-21T15:24:31Z</time>
      </trkpt>
      <trkpt lat="44.19321" lon="1.36543">
        <ele>171.4</ele>
        <time>2021-11-21T15:24:33Z</time>
      </trkpt>
      <trkpt lat="44.19321" lon="1.36543">
        <ele>171.4</ele>
        <time>2021-11-21T15:24:34Z</time>
      </trkpt>
      <trkpt lat="44.19321" lon="1.36543">
        <ele>171.4</ele>
        <time>2021-11-21T15:24:36Z</time>
      </trkpt>
      <trkpt lat="44.19321" lon="1.36543">
        <ele>171.4</ele>
        <time>2021-11-21T15:24:37Z</time>
      </trkpt>
      <trkpt lat="44.1932" lon="1.36542">
        <ele>171.4</ele>
        <time>2021-11-21T15:24:39Z</time>
      </trkpt>
      <trkpt lat="44.1932" lon="1.36542">
        <ele>171.4</ele>
        <time>2021-11-21T15:24:41Z</time>
      </trkpt>
      <trkpt lat="44.19321" lon="1.36541">
        <ele>171.4</ele>
        <time>2021-11-21T15:24:42Z</time>
      </trkpt>
      <trkpt lat="44.19321" lon="1.3654">
        <ele>171.4</ele>
        <time>2021-11-21T15:24:43Z</time>
      </trkpt>
      <trkpt lat="44.19322" lon="1.36539">
        <ele>171.4</ele>
        <time>2021-11-21T15:24:45Z</time>
      </trkpt>
      <trkpt lat="44.19324" lon="1.36537">
        <ele>171.4</ele>
        <time>2021-11-21T15:24:46Z</time>
      </trkpt>
      <trkpt lat="44.19324" lon="1.36537">
        <ele>171.4</ele>
        <time>2021-11-21T15:24:47Z</time>
      </trkpt>
      <trkpt lat="44.19325" lon="1.36535">
        <ele>171.4</ele>
        <time>2021-11-21T15:24:49Z</time>
      </trkpt>
      <trkpt lat="44.19326" lon="1.36534">
        <ele>171.4</ele>
        <time>2021-11-21T15:24:51Z</time>
      </trkpt>
      <trkpt lat="44.19326" lon="1.36533">
        <ele>171.4</ele>
        <time>2021-11-21T15:24:53Z</time>
      </trkpt>
      <trkpt lat="44.19326" lon="1.36532">
        <ele>171.4</ele>
        <time>2021-11-21T15:24:54Z</time>
      </trkpt>
      <trkpt lat="44.19327" lon="1.36531">
        <ele>171.4</ele>
        <time>2021-11-21T15:24:55Z</time>
      </trkpt>
      <trkpt lat="44.19327" lon="1.36529">
        <ele>171.4</ele>
        <time>2021-11-21T15:24:57Z</time>
      </trkpt>
      <trkpt lat="44.19328" lon="1.36527">
        <ele>171.4</ele>
        <time>2021-11-21T15:24:58Z</time>
      </trkpt>
      <trkpt lat="44.19328" lon="1.36524">
        <ele>171.4</ele>
        <time>2021-11-21T15:25:00Z</time>
      </trkpt>
      <trkpt lat="44.19328" lon="1.36522">
        <ele>171.4</ele>
        <time>2021-11-21T15:25:01Z</time>
      </trkpt>
      <trkpt lat="44.19328" lon="1.3652">
        <ele>171.4</ele>
        <time>2021-11-21T15:25:02Z</time>
      </trkpt>
      <trkpt lat="44.19328" lon="1.36519">
        <ele>171.4</ele>
        <time>2021-11-21T15:25:04Z</time>
      </trkpt>
      <trkpt lat="44.19328" lon="1.36517">
        <ele>171.4</ele>
        <time>2021-11-21T15:25:05Z</time>
      </trkpt>
      <trkpt lat="44.19328" lon="1.36516">
        <ele>171.3</ele>
        <time>2021-11-21T15:25:06Z</time>
      </trkpt>
      <trkpt lat="44.19328" lon="1.36514">
        <ele>171.3</ele>
        <time>2021-11-21T15:25:08Z</time>
      </trkpt>
      <trkpt lat="44.19328" lon="1.36514">
        <ele>171.3</ele>
        <time>2021-11-21T15:25:09Z</time>
      </trkpt>
      <trkpt lat="44.19328" lon="1.36513">
        <ele>171.3</ele>
        <time>2021-11-21T15:25:11Z</time>
      </trkpt>
      <trkpt lat="44.19328" lon="1.36513">
        <ele>171.3</ele>
        <time>2021-11-21T15:25:12Z</time>
      </trkpt>
      <trkpt lat="44.19327" lon="1.36513">
        <ele>171.3</ele>
        <time>2021-11-21T15:25:13Z</time>
      </trkpt>
      <trkpt lat="44.19327" lon="1.36513">
        <ele>171.3</ele>
        <time>2021-11-21T15:25:14Z</time>
      </trkpt>
      <trkpt lat="44.19327" lon="1.36513">
        <ele>171.3</ele>
        <time>2021-11-21T15:25:16Z</time>
      </trkpt>
      <trkpt lat="44.19327" lon="1.36513">
        <ele>171.3</ele>
        <time>2021-11-21T15:25:17Z</time>
      </trkpt>
      <trkpt lat="44.19327" lon="1.36512">
        <ele>171.3</ele>
        <time>2021-11-21T15:25:19Z</time>
      </trkpt>
      <trkpt lat="44.19326" lon="1.36512">
        <ele>171.3</ele>
        <time>2021-11-21T15:25:20Z</time>
      </trkpt>
      <trkpt lat="44.19326" lon="1.36511">
        <ele>171.3</ele>
        <time>2021-11-21T15:25:21Z</time>
      </trkpt>
      <trkpt lat="44.19326" lon="1.3651">
        <ele>171.3</ele>
        <time>2021-11-21T15:25:23Z</time>
      </trkpt>
      <trkpt lat="44.19326" lon="1.36508">
        <ele>171.3</ele>
        <time>2021-11-21T15:25:24Z</time>
      </trkpt>
      <trkpt lat="44.19326" lon="1.36507">
        <ele>171.3</ele>
        <time>2021-11-21T15:25:25Z</time>
      </trkpt>
      <trkpt lat="44.19326" lon="1.36507">
        <ele>171.3</ele>
        <time>2021-11-21T15:25:26Z</time>
      </trkpt>
      <trkpt lat="44.19326" lon="1.36506">
        <ele>171.3</ele>
        <time>2021-11-21T15:25:27Z</time>
      </trkpt>
      <trkpt lat="44.19326" lon="1.36506">
        <ele>171.3</ele>
        <time>2021-11-21T15:25:29Z</time>
      </trkpt>
      <trkpt lat="44.19325" lon="1.36507">
        <ele>171.3</ele>
        <time>2021-11-21T15:25:30Z</time>
      </trkpt>
      <trkpt lat="44.19325" lon="1.36507">
        <ele>171.3</ele>
        <time>2021-11-21T15:25:31Z</time>
      </trkpt>
      <trkpt lat="44.19325" lon="1.36507">
        <ele>171.3</ele>
        <time>2021-11-21T15:25:33Z</time>
      </trkpt>
      <trkpt lat="44.19325" lon="1.36508">
        <ele>171.3</ele>
        <time>2021-11-21T15:25:34Z</time>
      </trkpt>
      <trkpt lat="44.19325" lon="1.36508">
        <ele>171.3</ele>
        <time>2021-11-21T15:25:36Z</time>
      </trkpt>
      <trkpt lat="44.19325" lon="1.36508">
        <ele>171.3</ele>
        <time>2021-11-21T15:25:37Z</time>
      </trkpt>
      <trkpt lat="44.19325" lon="1.36509">
        <ele>171.3</ele>
        <time>2021-11-21T15:25:39Z</time>
      </trkpt>
      <trkpt lat="44.19326" lon="1.36509">
        <ele>171.3</ele>
        <time>2021-11-21T15:25:40Z</time>
      </trkpt>
      <trkpt lat="44.19326" lon="1.3651">
        <ele>171.3</ele>
        <time>2021-11-21T15:25:42Z</time>
      </trkpt>
      <trkpt lat="44.19326" lon="1.3651">
        <ele>171.3</ele>
        <time>2021-11-21T15:25:43Z</time>
      </trkpt>
      <trkpt lat="44.19327" lon="1.3651">
        <ele>171.3</ele>
        <time>2021-11-21T15:25:45Z</time>
      </trkpt>
      <trkpt lat="44.19327" lon="1.36511">
        <ele>171.3</ele>
        <time>2021-11-21T15:25:46Z</time>
      </trkpt>
      <trkpt lat="44.19327" lon="1.36511">
        <ele>171.3</ele>
        <time>2021-11-21T15:25:47Z</time>
      </trkpt>
      <trkpt lat="44.19327" lon="1.36511">
        <ele>171.3</ele>
        <time>2021-11-21T15:25:48Z</time>
      </trkpt>
      <trkpt lat="44.19327" lon="1.36511">
        <ele>171.3</ele>
        <time>2021-11-21T15:25:50Z</time>
      </trkpt>
      <trkpt lat="44.19327" lon="1.36511">
        <ele>171.3</ele>
        <time>2021-11-21T15:25:52Z</time>
      </trkpt>
      <trkpt lat="44.19327" lon="1.36511">
        <ele>171.3</ele>
        <time>2021-11-21T15:25:53Z</time>
      </trkpt>
      <trkpt lat="44.19327" lon="1.36511">
        <ele>171.3</ele>
        <time>2021-11-21T15:25:55Z</time>
      </trkpt>
      <trkpt lat="44.19327" lon="1.36512">
        <ele>171.3</ele>
        <time>2021-11-21T15:25:56Z</time>
      </trkpt>
      <trkpt lat="44.19328" lon="1.36511">
        <ele>171.3</ele>
        <time>2021-11-21T15:25:58Z</time>
      </trkpt>
      <trkpt lat="44.19328" lon="1.36511">
        <ele>171.3</ele>
        <time>2021-11-21T15:26:00Z</time>
      </trkpt>
      <trkpt lat="44.19328" lon="1.36511">
        <ele>171.3</ele>
        <time>2021-11-21T15:26:02Z</time>
      </trkpt>
      <trkpt lat="44.19328" lon="1.36511">
        <ele>171.3</ele>
        <time>2021-11-21T15:26:03Z</time>
      </trkpt>
      <trkpt lat="44.19328" lon="1.3651">
        <ele>171.3</ele>
        <time>2021-11-21T15:26:05Z</time>
      </trkpt>
      <trkpt lat="44.19328" lon="1.36509">
        <ele>171.3</ele>
        <time>2021-11-21T15:26:06Z</time>
      </trkpt>
      <trkpt lat="44.19328" lon="1.36507">
        <ele>171.3</ele>
        <time>2021-11-21T15:26:08Z</time>
      </trkpt>
      <trkpt lat="44.19328" lon="1.36505">
        <ele>171.3</ele>
        <time>2021-11-21T15:26:09Z</time>
      </trkpt>
      <trkpt lat="44.19329" lon="1.36502">
        <ele>171.3</ele>
        <time>2021-11-21T15:26:11Z</time>
      </trkpt>
      <trkpt lat="44.19329" lon="1.36501">
        <ele>171.3</ele>
        <time>2021-11-21T15:26:12Z</time>
      </trkpt>
      <trkpt lat="44.19328" lon="1.365">
        <ele>171.3</ele>
        <time>2021-11-21T15:26:13Z</time>
      </trkpt>
      <trkpt lat="44.19328" lon="1.36498">
        <ele>171.3</ele>
        <time>2021-11-21T15:26:14Z</time>
      </trkpt>
      <trkpt lat="44.19328" lon="1.36497">
        <ele>171.3</ele>
        <time>2021-11-21T15:26:15Z</time>
      </trkpt>
      <trkpt lat="44.19328" lon="1.36494">
        <ele>171.3</ele>
        <time>2021-11-21T15:26:17Z</time>
      </trkpt>
      <trkpt lat="44.19327" lon="1.36492">
        <ele>171.3</ele>
        <time>2021-11-21T15:26:18Z</time>
      </trkpt>
      <trkpt lat="44.19327" lon="1.36491">
        <ele>171.3</ele>
        <time>2021-11-21T15:26:19Z</time>
      </trkpt>
      <trkpt lat="44.19327" lon="1.3649">
        <ele>171.3</ele>
        <time>2021-11-21T15:26:20Z</time>
      </trkpt>
      <trkpt lat="44.19327" lon="1.36487">
        <ele>171.3</ele>
        <time>2021-11-21T15:26:22Z</time>
      </trkpt>
      <trkpt lat="44.19327" lon="1.36485">
        <ele>171.3</ele>
        <time>2021-11-21T15:26:23Z</time>
      </trkpt>
      <trkpt lat="44.19327" lon="1.36484">
        <ele>171.3</ele>
        <time>2021-11-21T15:26:24Z</time>
      </trkpt>
      <trkpt lat="44.19327" lon="1.36483">
        <ele>171.3</ele>
        <time>2021-11-21T15:26:25Z</time>
      </trkpt>
      <trkpt lat="44.19327" lon="1.36481">
        <ele>171.3</ele>
        <time>2021-11-21T15:26:27Z</time>
      </trkpt>
      <trkpt lat="44.19326" lon="1.36479">
        <ele>171.3</ele>
        <time>2021-11-21T15:26:28Z</time>
      </trkpt>
      <trkpt lat="44.19326" lon="1.36479">
        <ele>171.3</ele>
        <time>2021-11-21T15:26:29Z</time>
      </trkpt>
      <trkpt lat="44.19325" lon="1.36478">
        <ele>171.3</ele>
        <time>2021-11-21T15:26:31Z</time>
      </trkpt>
      <trkpt lat="44.19325" lon="1.36478">
        <ele>171.3</ele>
        <time>2021-11-21T15:26:32Z</time>
      </trkpt>
      <trkpt lat="44.19325" lon="1.36478">
        <ele>171.3</ele>
        <time>2021-11-21T15:26:34Z</time>
      </trkpt>
      <trkpt lat="44.19325" lon="1.36478">
        <ele>171.3</ele>
        <time>2021-11-21T15:26:36Z</time>
      </trkpt>
      <trkpt lat="44.19326" lon="1.36478">
        <ele>171.3</ele>
        <time>2021-11-21T15:26:37Z</time>
      </trkpt>
      <trkpt lat="44.19326" lon="1.36478">
        <ele>171.3</ele>
        <time>2021-11-21T15:26:39Z</time>
      </trkpt>
      <trkpt lat="44.19327" lon="1.36479">
        <ele>171.3</ele>
        <time>2021-11-21T15:26:40Z</time>
      </trkpt>
      <trkpt lat="44.19327" lon="1.36479">
        <ele>171.3</ele>
        <time>2021-11-21T15:26:41Z</time>
      </trkpt>
      <trkpt lat="44.19327" lon="1.3648">
        <ele>171.3</ele>
        <time>2021-11-21T15:26:43Z</time>
      </trkpt>
      <trkpt lat="44.19327" lon="1.3648">
        <ele>171.3</ele>
        <time>2021-11-21T15:26:44Z</time>
      </trkpt>
      <trkpt lat="44.19327" lon="1.3648">
        <ele>171.3</ele>
        <time>2021-11-21T15:26:45Z</time>
      </trkpt>
      <trkpt lat="44.19327" lon="1.3648">
        <ele>171.3</ele>
        <time>2021-11-21T15:26:46Z</time>
      </trkpt>
      <trkpt lat="44.19327" lon="1.3648">
        <ele>171.3</ele>
        <time>2021-11-21T15:26:48Z</time>
      </trkpt>
      <trkpt lat="44.19327" lon="1.3648">
        <ele>171.3</ele>
        <time>2021-11-21T15:26:49Z</time>
      </trkpt>
      <trkpt lat="44.19327" lon="1.3648">
        <ele>171.3</ele>
        <time>2021-11-21T15:26:50Z</time>
      </trkpt>
      <trkpt lat="44.19326" lon="1.3648">
        <ele>171.3</ele>
        <time>2021-11-21T15:26:52Z</time>
      </trkpt>
      <trkpt lat="44.19326" lon="1.3648">
        <ele>171.3</ele>
        <time>2021-11-21T15:26:54Z</time>
      </trkpt>
      <trkpt lat="44.19325" lon="1.3648">
        <ele>171.3</ele>
        <time>2021-11-21T15:26:56Z</time>
      </trkpt>
      <trkpt lat="44.19325" lon="1.3648">
        <ele>171.3</ele>
        <time>2021-11-21T15:26:57Z</time>
      </trkpt>
      <trkpt lat="44.19325" lon="1.3648">
        <ele>171.3</ele>
        <time>2021-11-21T15:26:58Z</time>
      </trkpt>
      <trkpt lat="44.19324" lon="1.3648">
        <ele>171.3</ele>
        <time>2021-11-21T15:26:59Z</time>
      </trkpt>
      <trkpt lat="44.19323" lon="1.36478">
        <ele>171.3</ele>
        <time>2021-11-21T15:27:01Z</time>
      </trkpt>
      <trkpt lat="44.19324" lon="1.36475">
        <ele>171.3</ele>
        <time>2021-11-21T15:27:03Z</time>
      </trkpt>
      <trkpt lat="44.19324" lon="1.36473">
        <ele>171.3</ele>
        <time>2021-11-21T15:27:04Z</time>
      </trkpt>
      <trkpt lat="44.19325" lon="1.36471">
        <ele>171.3</ele>
        <time>2021-11-21T15:27:05Z</time>
      </trkpt>
      <trkpt lat="44.19326" lon="1.36469">
        <ele>171.3</ele>
        <time>2021-11-21T15:27:07Z</time>
      </trkpt>
      <trkpt lat="44.19327" lon="1.36467">
        <ele>171.3</ele>
        <time>2021-11-21T15:27:08Z</time>
      </trkpt>
      <trkpt lat="44.19327" lon="1.36465">
        <ele>171.3</ele>
        <time>2021-11-21T15:27:09Z</time>
      </trkpt>
      <trkpt lat="44.19328" lon="1.36464">
        <ele>171.3</ele>
        <time>2021-11-21T15:27:10Z</time>
      </trkpt>
      <trkpt lat="44.19328" lon="1.36463">
        <ele>171.3</ele>
        <time>2021-11-21T15:27:11Z</time>
      </trkpt>
      <trkpt lat="44.19328" lon="1.36462">
        <ele>171.3</ele>
        <time>2021-11-21T15:27:12Z</time>
      </trkpt>
      <trkpt lat="44.19327" lon="1.36461">
        <ele>171.3</ele>
        <time>2021-11-21T15:27:14Z</time>
      </trkpt>
      <trkpt lat="44.19328" lon="1.36461">
        <ele>171.3</ele>
        <time>2021-11-21T15:27:16Z</time>
      </trkpt>
      <trkpt lat="44.19328" lon="1.3646">
        <ele>171.3</ele>
        <time>2021-11-21T15:27:17Z</time>
      </trkpt>
      <trkpt lat="44.19329" lon="1.36458">
        <ele>171.3</ele>
        <time>2021-11-21T15:27:18Z</time>
      </trkpt>
      <trkpt lat="44.19329" lon="1.36455">
        <ele>171.3</ele>
        <time>2021-11-21T15:27:20Z</time>
      </trkpt>
      <trkpt lat="44.19329" lon="1.36454">
        <ele>171.3</ele>
        <time>2021-11-21T15:27:21Z</time>
      </trkpt>
      <trkpt lat="44.19329" lon="1.36453">
        <ele>171.3</ele>
        <time>2021-11-21T15:27:22Z</time>
      </trkpt>
      <trkpt lat="44.19329" lon="1.36451">
        <ele>171.3</ele>
        <time>2021-11-21T15:27:23Z</time>
      </trkpt>
      <trkpt lat="44.19329" lon="1.3645">
        <ele>171.3</ele>
        <time>2021-11-21T15:27:24Z</time>
      </trkpt>
      <trkpt lat="44.1933" lon="1.36448">
        <ele>171.3</ele>
        <time>2021-11-21T15:27:26Z</time>
      </trkpt>
      <trkpt lat="44.1933" lon="1.36447">
        <ele>171.3</ele>
        <time>2021-11-21T15:27:27Z</time>
      </trkpt>
      <trkpt lat="44.1933" lon="1.36445">
        <ele>171.3</ele>
        <time>2021-11-21T15:27:28Z</time>
      </trkpt>
      <trkpt lat="44.19331" lon="1.36444">
        <ele>171.3</ele>
        <time>2021-11-21T15:27:29Z</time>
      </trkpt>
      <trkpt lat="44.1933" lon="1.36443">
        <ele>171.3</ele>
        <time>2021-11-21T15:27:30Z</time>
      </trkpt>
      <trkpt lat="44.1933" lon="1.36442">
        <ele>171.3</ele>
        <time>2021-11-21T15:27:32Z</time>
      </trkpt>
      <trkpt lat="44.19329" lon="1.36442">
        <ele>171.3</ele>
        <time>2021-11-21T15:27:33Z</time>
      </trkpt>
      <trkpt lat="44.19328" lon="1.36441">
        <ele>171.3</ele>
        <time>2021-11-21T15:27:34Z</time>
      </trkpt>
      <trkpt lat="44.19328" lon="1.3644">
        <ele>171.3</ele>
        <time>2021-11-21T15:27:35Z</time>
      </trkpt>
      <trkpt lat="44.19328" lon="1.3644">
        <ele>171.3</ele>
        <time>2021-11-21T15:27:36Z</time>
      </trkpt>
      <trkpt lat="44.19328" lon="1.36438">
        <ele>171.3</ele>
        <time>2021-11-21T15:27:37Z</time>
      </trkpt>
      <trkpt lat="44.19328" lon="1.36436">
        <ele>171.3</ele>
        <time>2021-11-21T15:27:39Z</time>
      </trkpt>
      <trkpt lat="44.19328" lon="1.36435">
        <ele>171.3</ele>
        <time>2021-11-21T15:27:40Z</time>
      </trkpt>
      <trkpt lat="44.19328" lon="1.36433">
        <ele>171.3</ele>
        <time>2021-11-21T15:27:41Z</time>
      </trkpt>
      <trkpt lat="44.19328" lon="1.36432">
        <ele>171.3</ele>
        <time>2021-11-21T15:27:42Z</time>
      </trkpt>
      <trkpt lat="44.19327" lon="1.3643">
        <ele>171.3</ele>
        <time>2021-11-21T15:27:43Z</time>
      </trkpt>
      <trkpt lat="44.19327" lon="1.36428">
        <ele>171.3</ele>
        <time>2021-11-21T15:27:45Z</time>
      </trkpt>
      <trkpt lat="44.19327" lon="1.36426">
        <ele>171.3</ele>
        <time>2021-11-21T15:27:46Z</time>
      </trkpt>
      <trkpt lat="44.19327" lon="1.36425">
        <ele>171.3</ele>
        <time>2021-11-21T15:27:47Z</time>
      </trkpt>
      <trkpt lat="44.19327" lon="1.36425">
        <ele>171.3</ele>
        <time>2021-11-21T15:27:49Z</time>
      </trkpt>
      <trkpt lat="44.19327" lon="1.36423">
        <ele>171.3</ele>
        <time>2021-11-21T15:27:50Z</time>
      </trkpt>
      <trkpt lat="44.19328" lon="1.36422">
        <ele>171.3</ele>
        <time>2021-11-21T15:27:51Z</time>
      </trkpt>
      <trkpt lat="44.19328" lon="1.3642">
        <ele>171.3</ele>
        <time>2021-11-21T15:27:52Z</time>
      </trkpt>
      <trkpt lat="44.19329" lon="1.36418">
        <ele>171.4</ele>
        <time>2021-11-21T15:27:54Z</time>
      </trkpt>
      <trkpt lat="44.19329" lon="1.36416">
        <ele>171.4</ele>
        <time>2021-11-21T15:27:55Z</time>
      </trkpt>
      <trkpt lat="44.19329" lon="1.36414">
        <ele>171.4</ele>
        <time>2021-11-21T15:27:57Z</time>
      </trkpt>
      <trkpt lat="44.1933" lon="1.36412">
        <ele>171.4</ele>
        <time>2021-11-21T15:27:58Z</time>
      </trkpt>
      <trkpt lat="44.1933" lon="1.36409">
        <ele>171.4</ele>
        <time>2021-11-21T15:28:00Z</time>
      </trkpt>
      <trkpt lat="44.19329" lon="1.36406">
        <ele>171.4</ele>
        <time>2021-11-21T15:28:01Z</time>
      </trkpt>
      <trkpt lat="44.19329" lon="1.36404">
        <ele>171.4</ele>
        <time>2021-11-21T15:28:02Z</time>
      </trkpt>
      <trkpt lat="44.19328" lon="1.36402">
        <ele>171.4</ele>
        <time>2021-11-21T15:28:03Z</time>
      </trkpt>
      <trkpt lat="44.19328" lon="1.364">
        <ele>171.4</ele>
        <time>2021-11-21T15:28:04Z</time>
      </trkpt>
      <trkpt lat="44.19328" lon="1.36398">
        <ele>171.4</ele>
        <time>2021-11-21T15:28:05Z</time>
      </trkpt>
      <trkpt lat="44.19327" lon="1.36396">
        <ele>171.4</ele>
        <time>2021-11-21T15:28:06Z</time>
      </trkpt>
      <trkpt lat="44.19327" lon="1.36394">
        <ele>171.4</ele>
        <time>2021-11-21T15:28:08Z</time>
      </trkpt>
      <trkpt lat="44.19326" lon="1.36391">
        <ele>171.4</ele>
        <time>2021-11-21T15:28:09Z</time>
      </trkpt>
      <trkpt lat="44.19326" lon="1.36389">
        <ele>171.5</ele>
        <time>2021-11-21T15:28:10Z</time>
      </trkpt>
      <trkpt lat="44.19327" lon="1.36388">
        <ele>171.5</ele>
        <time>2021-11-21T15:28:12Z</time>
      </trkpt>
      <trkpt lat="44.19329" lon="1.36387">
        <ele>171.5</ele>
        <time>2021-11-21T15:28:13Z</time>
      </trkpt>
      <trkpt lat="44.1933" lon="1.36387">
        <ele>171.5</ele>
        <time>2021-11-21T15:28:14Z</time>
      </trkpt>
      <trkpt lat="44.19332" lon="1.36388">
        <ele>171.5</ele>
        <time>2021-11-21T15:28:15Z</time>
      </trkpt>
      <trkpt lat="44.19333" lon="1.36388">
        <ele>171.5</ele>
        <time>2021-11-21T15:28:17Z</time>
      </trkpt>
      <trkpt lat="44.19335" lon="1.36388">
        <ele>171.5</ele>
        <time>2021-11-21T15:28:18Z</time>
      </trkpt>
      <trkpt lat="44.19336" lon="1.36388">
        <ele>171.5</ele>
        <time>2021-11-21T15:28:19Z</time>
      </trkpt>
      <trkpt lat="44.19337" lon="1.36389">
        <ele>171.5</ele>
        <time>2021-11-21T15:28:21Z</time>
      </trkpt>
      <trkpt lat="44.19338" lon="1.36389">
        <ele>171.6</ele>
        <time>2021-11-21T15:28:22Z</time>
      </trkpt>
      <trkpt lat="44.19338" lon="1.36389">
        <ele>171.6</ele>
        <time>2021-11-21T15:28:24Z</time>
      </trkpt>
      <trkpt lat="44.19338" lon="1.3639">
        <ele>171.6</ele>
        <time>2021-11-21T15:28:25Z</time>
      </trkpt>
      <trkpt lat="44.19337" lon="1.3639">
        <ele>171.6</ele>
        <time>2021-11-21T15:28:27Z</time>
      </trkpt>
      <trkpt lat="44.19336" lon="1.36391">
        <ele>171.6</ele>
        <time>2021-11-21T15:28:29Z</time>
      </trkpt>
      <trkpt lat="44.19336" lon="1.36391">
        <ele>171.6</ele>
        <time>2021-11-21T15:28:30Z</time>
      </trkpt>
      <trkpt lat="44.19336" lon="1.36391">
        <ele>171.6</ele>
        <time>2021-11-21T15:28:32Z</time>
      </trkpt>
      <trkpt lat="44.19336" lon="1.36391">
        <ele>171.6</ele>
        <time>2021-11-21T15:28:33Z</time>
      </trkpt>
      <trkpt lat="44.19336" lon="1.36391">
        <ele>171.6</ele>
        <time>2021-11-21T15:28:35Z</time>
      </trkpt>
      <trkpt lat="44.19335" lon="1.3639">
        <ele>171.6</ele>
        <time>2021-11-21T15:28:36Z</time>
      </trkpt>
      <trkpt lat="44.19334" lon="1.3639">
        <ele>171.6</ele>
        <time>2021-11-21T15:28:37Z</time>
      </trkpt>
      <trkpt lat="44.19333" lon="1.3639">
        <ele>171.6</ele>
        <time>2021-11-21T15:28:38Z</time>
      </trkpt>
      <trkpt lat="44.19332" lon="1.3639">
        <ele>171.6</ele>
        <time>2021-11-21T15:28:40Z</time>
      </trkpt>
      <trkpt lat="44.1933" lon="1.36389">
        <ele>171.6</ele>
        <time>2021-11-21T15:28:41Z</time>
      </trkpt>
      <trkpt lat="44.19329" lon="1.36389">
        <ele>171.7</ele>
        <time>2021-11-21T15:28:42Z</time>
      </trkpt>
      <trkpt lat="44.19329" lon="1.36388">
        <ele>171.7</ele>
        <time>2021-11-21T15:28:44Z</time>
      </trkpt>
      <trkpt lat="44.19329" lon="1.36386">
        <ele>171.7</ele>
        <time>2021-11-21T15:28:45Z</time>
      </trkpt>
      <trkpt lat="44.19329" lon="1.36385">
        <ele>171.7</ele>
        <time>2021-11-21T15:28:46Z</time>
      </trkpt>
      <trkpt lat="44.19329" lon="1.36384">
        <ele>171.7</ele>
        <time>2021-11-21T15:28:47Z</time>
      </trkpt>
      <trkpt lat="44.19329" lon="1.36381">
        <ele>171.7</ele>
        <time>2021-11-21T15:28:49Z</time>
      </trkpt>
      <trkpt lat="44.19329" lon="1.36379">
        <ele>171.7</ele>
        <time>2021-11-21T15:28:50Z</time>
      </trkpt>
      <trkpt lat="44.1933" lon="1.36377">
        <ele>171.8</ele>
        <time>2021-11-21T15:28:51Z</time>
      </trkpt>
      <trkpt lat="44.1933" lon="1.36376">
        <ele>171.8</ele>
        <time>2021-11-21T15:28:52Z</time>
      </trkpt>
      <trkpt lat="44.1933" lon="1.36375">
        <ele>171.8</ele>
        <time>2021-11-21T15:28:53Z</time>
      </trkpt>
      <trkpt lat="44.1933" lon="1.36373">
        <ele>171.8</ele>
        <time>2021-11-21T15:28:55Z</time>
      </trkpt>
      <trkpt lat="44.1933" lon="1.36372">
        <ele>171.8</ele>
        <time>2021-11-21T15:28:56Z</time>
      </trkpt>
      <trkpt lat="44.1933" lon="1.36371">
        <ele>171.8</ele>
        <time>2021-11-21T15:28:57Z</time>
      </trkpt>
      <trkpt lat="44.1933" lon="1.36369">
        <ele>171.8</ele>
        <time>2021-11-21T15:28:58Z</time>
      </trkpt>
      <trkpt lat="44.1933" lon="1.36368">
        <ele>171.8</ele>
        <time>2021-11-21T15:29:00Z</time>
      </trkpt>
      <trkpt lat="44.1933" lon="1.36366">
        <ele>171.8</ele>
        <time>2021-11-21T15:29:01Z</time>
      </trkpt>
      <trkpt lat="44.1933" lon="1.36364">
        <ele>171.9</ele>
        <time>2021-11-21T15:29:02Z</time>
      </trkpt>
      <trkpt lat="44.1933" lon="1.36363">
        <ele>171.9</ele>
        <time>2021-11-21T15:29:03Z</time>
      </trkpt>
      <trkpt lat="44.1933" lon="1.36361">
        <ele>171.9</ele>
        <time>2021-11-21T15:29:05Z</time>
      </trkpt>
      <trkpt lat="44.1933" lon="1.3636">
        <ele>171.9</ele>
        <time>2021-11-21T15:29:06Z</time>
      </trkpt>
      <trkpt lat="44.1933" lon="1.36358">
        <ele>171.9</ele>
        <time>2021-11-21T15:29:08Z</time>
      </trkpt>
      <trkpt lat="44.19329" lon="1.36356">
        <ele>171.9</ele>
        <time>2021-11-21T15:29:09Z</time>
      </trkpt>
      <trkpt lat="44.19329" lon="1.36354">
        <ele>172</ele>
        <time>2021-11-21T15:29:11Z</time>
      </trkpt>
      <trkpt lat="44.19328" lon="1.36352">
        <ele>172</ele>
        <time>2021-11-21T15:29:13Z</time>
      </trkpt>
      <trkpt lat="44.19327" lon="1.3635">
        <ele>172</ele>
        <time>2021-11-21T15:29:14Z</time>
      </trkpt>
      <trkpt lat="44.19327" lon="1.36349">
        <ele>172</ele>
        <time>2021-11-21T15:29:15Z</time>
      </trkpt>
      <trkpt lat="44.19326" lon="1.36347">
        <ele>171.9</ele>
        <time>2021-11-21T15:29:16Z</time>
      </trkpt>
      <trkpt lat="44.19326" lon="1.36346">
        <ele>171.9</ele>
        <time>2021-11-21T15:29:18Z</time>
      </trkpt>
      <trkpt lat="44.19326" lon="1.36344">
        <ele>171.8</ele>
        <time>2021-11-21T15:29:19Z</time>
      </trkpt>
      <trkpt lat="44.19326" lon="1.36343">
        <ele>171.8</ele>
        <time>2021-11-21T15:29:20Z</time>
      </trkpt>
      <trkpt lat="44.19326" lon="1.36342">
        <ele>171.8</ele>
        <time>2021-11-21T15:29:21Z</time>
      </trkpt>
      <trkpt lat="44.19326" lon="1.3634">
        <ele>171.7</ele>
        <time>2021-11-21T15:29:22Z</time>
      </trkpt>
      <trkpt lat="44.19326" lon="1.36339">
        <ele>171.7</ele>
        <time>2021-11-21T15:29:24Z</time>
      </trkpt>
      <trkpt lat="44.19326" lon="1.36337">
        <ele>171.6</ele>
        <time>2021-11-21T15:29:25Z</time>
      </trkpt>
      <trkpt lat="44.19327" lon="1.36336">
        <ele>171.6</ele>
        <time>2021-11-21T15:29:26Z</time>
      </trkpt>
      <trkpt lat="44.19328" lon="1.36335">
        <ele>171.5</ele>
        <time>2021-11-21T15:29:28Z</time>
      </trkpt>
      <trkpt lat="44.19328" lon="1.36334">
        <ele>171.4</ele>
        <time>2021-11-21T15:29:29Z</time>
      </trkpt>
      <trkpt lat="44.19329" lon="1.36333">
        <ele>171.4</ele>
        <time>2021-11-21T15:29:30Z</time>
      </trkpt>
      <trkpt lat="44.1933" lon="1.36331">
        <ele>171.3</ele>
        <time>2021-11-21T15:29:32Z</time>
      </trkpt>
      <trkpt lat="44.19331" lon="1.3633">
        <ele>171.2</ele>
        <time>2021-11-21T15:29:33Z</time>
      </trkpt>
      <trkpt lat="44.19332" lon="1.36329">
        <ele>171.1</ele>
        <time>2021-11-21T15:29:34Z</time>
      </trkpt>
      <trkpt lat="44.19333" lon="1.36328">
        <ele>171.1</ele>
        <time>2021-11-21T15:29:35Z</time>
      </trkpt>
      <trkpt lat="44.19334" lon="1.36327">
        <ele>171</ele>
        <time>2021-11-21T15:29:37Z</time>
      </trkpt>
      <trkpt lat="44.19334" lon="1.36326">
        <ele>170.9</ele>
        <time>2021-11-21T15:29:38Z</time>
      </trkpt>
      <trkpt lat="44.19335" lon="1.36325">
        <ele>170.8</ele>
        <time>2021-11-21T15:29:39Z</time>
      </trkpt>
      <trkpt lat="44.19336" lon="1.36324">
        <ele>170.8</ele>
        <time>2021-11-21T15:29:40Z</time>
      </trkpt>
      <trkpt lat="44.19337" lon="1.36323">
        <ele>170.7</ele>
        <time>2021-11-21T15:29:41Z</time>
      </trkpt>
      <trkpt lat="44.19338" lon="1.36323">
        <ele>170.7</ele>
        <time>2021-11-21T15:29:43Z</time>
      </trkpt>
      <trkpt lat="44.19339" lon="1.36322">
        <ele>170.6</ele>
        <time>2021-11-21T15:29:44Z</time>
      </trkpt>
      <trkpt lat="44.1934" lon="1.3632">
        <ele>170.5</ele>
        <time>2021-11-21T15:29:45Z</time>
      </trkpt>
      <trkpt lat="44.1934" lon="1.3632">
        <ele>170.5</ele>
        <time>2021-11-21T15:29:46Z</time>
      </trkpt>
      <trkpt lat="44.1934" lon="1.36319">
        <ele>170.4</ele>
        <time>2021-11-21T15:29:48Z</time>
      </trkpt>
      <trkpt lat="44.19341" lon="1.36319">
        <ele>170.4</ele>
        <time>2021-11-21T15:29:49Z</time>
      </trkpt>
      <trkpt lat="44.19342" lon="1.36318">
        <ele>170.4</ele>
        <time>2021-11-21T15:29:50Z</time>
      </trkpt>
      <trkpt lat="44.19343" lon="1.36318">
        <ele>170.4</ele>
        <time>2021-11-21T15:29:51Z</time>
      </trkpt>
      <trkpt lat="44.19344" lon="1.36315">
        <ele>170.3</ele>
        <time>2021-11-21T15:29:52Z</time>
      </trkpt>
      <trkpt lat="44.19344" lon="1.36314">
        <ele>170.3</ele>
        <time>2021-11-21T15:29:54Z</time>
      </trkpt>
      <trkpt lat="44.19345" lon="1.36313">
        <ele>170.3</ele>
        <time>2021-11-21T15:29:55Z</time>
      </trkpt>
      <trkpt lat="44.19345" lon="1.36312">
        <ele>170.2</ele>
        <time>2021-11-21T15:29:56Z</time>
      </trkpt>
      <trkpt lat="44.19346" lon="1.36311">
        <ele>170.2</ele>
        <time>2021-11-21T15:29:58Z</time>
      </trkpt>
      <trkpt lat="44.19347" lon="1.3631">
        <ele>170.2</ele>
        <time>2021-11-21T15:29:59Z</time>
      </trkpt>
      <trkpt lat="44.19348" lon="1.3631">
        <ele>170.1</ele>
        <time>2021-11-21T15:30:00Z</time>
      </trkpt>
      <trkpt lat="44.19349" lon="1.36309">
        <ele>170.1</ele>
        <time>2021-11-21T15:30:01Z</time>
      </trkpt>
      <trkpt lat="44.1935" lon="1.36309">
        <ele>170</ele>
        <time>2021-11-21T15:30:02Z</time>
      </trkpt>
      <trkpt lat="44.19352" lon="1.36308">
        <ele>169.9</ele>
        <time>2021-11-21T15:30:04Z</time>
      </trkpt>
      <trkpt lat="44.19353" lon="1.36308">
        <ele>169.8</ele>
        <time>2021-11-21T15:30:05Z</time>
      </trkpt>
      <trkpt lat="44.19353" lon="1.36307">
        <ele>169.8</ele>
        <time>2021-11-21T15:30:06Z</time>
      </trkpt>
      <trkpt lat="44.19354" lon="1.36306">
        <ele>169.7</ele>
        <time>2021-11-21T15:30:07Z</time>
      </trkpt>
      <trkpt lat="44.19355" lon="1.36305">
        <ele>169.6</ele>
        <time>2021-11-21T15:30:09Z</time>
      </trkpt>
      <trkpt lat="44.19356" lon="1.36304">
        <ele>169.5</ele>
        <time>2021-11-21T15:30:10Z</time>
      </trkpt>
      <trkpt lat="44.19357" lon="1.36303">
        <ele>169.5</ele>
        <time>2021-11-21T15:30:11Z</time>
      </trkpt>
      <trkpt lat="44.19358" lon="1.36302">
        <ele>169.4</ele>
        <time>2021-11-21T15:30:12Z</time>
      </trkpt>
      <trkpt lat="44.19359" lon="1.36301">
        <ele>169.3</ele>
        <time>2021-11-21T15:30:13Z</time>
      </trkpt>
      <trkpt lat="44.19361" lon="1.363">
        <ele>169.2</ele>
        <time>2021-11-21T15:30:15Z</time>
      </trkpt>
      <trkpt lat="44.19362" lon="1.36299">
        <ele>169.1</ele>
        <time>2021-11-21T15:30:16Z</time>
      </trkpt>
      <trkpt lat="44.19363" lon="1.36299">
        <ele>169</ele>
        <time>2021-11-21T15:30:17Z</time>
      </trkpt>
      <trkpt lat="44.19364" lon="1.36298">
        <ele>169</ele>
        <time>2021-11-21T15:30:18Z</time>
      </trkpt>
      <trkpt lat="44.19364" lon="1.36297">
        <ele>168.9</ele>
        <time>2021-11-21T15:30:19Z</time>
      </trkpt>
      <trkpt lat="44.19365" lon="1.36296">
        <ele>168.8</ele>
        <time>2021-11-21T15:30:21Z</time>
      </trkpt>
      <trkpt lat="44.19366" lon="1.36296">
        <ele>168.7</ele>
        <time>2021-11-21T15:30:22Z</time>
      </trkpt>
      <trkpt lat="44.19367" lon="1.36296">
        <ele>168.7</ele>
        <time>2021-11-21T15:30:24Z</time>
      </trkpt>
      <trkpt lat="44.19367" lon="1.36296">
        <ele>168.6</ele>
        <time>2021-11-21T15:30:25Z</time>
      </trkpt>
      <trkpt lat="44.19368" lon="1.36297">
        <ele>168.6</ele>
        <time>2021-11-21T15:30:27Z</time>
      </trkpt>
      <trkpt lat="44.19369" lon="1.36297">
        <ele>168.6</ele>
        <time>2021-11-21T15:30:29Z</time>
      </trkpt>
      <trkpt lat="44.19369" lon="1.36296">
        <ele>168.5</ele>
        <time>2021-11-21T15:30:30Z</time>
      </trkpt>
      <trkpt lat="44.19371" lon="1.36296">
        <ele>168.4</ele>
        <time>2021-11-21T15:30:31Z</time>
      </trkpt>
      <trkpt lat="44.19373" lon="1.36295">
        <ele>168.3</ele>
        <time>2021-11-21T15:30:33Z</time>
      </trkpt>
      <trkpt lat="44.19374" lon="1.36294">
        <ele>168.2</ele>
        <time>2021-11-21T15:30:34Z</time>
      </trkpt>
      <trkpt lat="44.19374" lon="1.36294">
        <ele>168.1</ele>
        <time>2021-11-21T15:30:35Z</time>
      </trkpt>
      <trkpt lat="44.19376" lon="1.36292">
        <ele>168</ele>
        <time>2021-11-21T15:30:36Z</time>
      </trkpt>
      <trkpt lat="44.19376" lon="1.36291">
        <ele>168</ele>
        <time>2021-11-21T15:30:38Z</time>
      </trkpt>
      <trkpt lat="44.19376" lon="1.36291">
        <ele>167.9</ele>
        <time>2021-11-21T15:30:39Z</time>
      </trkpt>
      <trkpt lat="44.19377" lon="1.3629">
        <ele>167.9</ele>
        <time>2021-11-21T15:30:41Z</time>
      </trkpt>
      <trkpt lat="44.19377" lon="1.3629">
        <ele>167.9</ele>
        <time>2021-11-21T15:30:42Z</time>
      </trkpt>
      <trkpt lat="44.19378" lon="1.36289">
        <ele>167.8</ele>
        <time>2021-11-21T15:30:44Z</time>
      </trkpt>
      <trkpt lat="44.19378" lon="1.36288">
        <ele>167.8</ele>
        <time>2021-11-21T15:30:45Z</time>
      </trkpt>
      <trkpt lat="44.19379" lon="1.36288">
        <ele>167.7</ele>
        <time>2021-11-21T15:30:47Z</time>
      </trkpt>
      <trkpt lat="44.19379" lon="1.36287">
        <ele>167.7</ele>
        <time>2021-11-21T15:30:48Z</time>
      </trkpt>
      <trkpt lat="44.19379" lon="1.36287">
        <ele>167.7</ele>
        <time>2021-11-21T15:30:49Z</time>
      </trkpt>
      <trkpt lat="44.1938" lon="1.36286">
        <ele>167.6</ele>
        <time>2021-11-21T15:30:51Z</time>
      </trkpt>
      <trkpt lat="44.1938" lon="1.36286">
        <ele>167.6</ele>
        <time>2021-11-21T15:30:52Z</time>
      </trkpt>
      <trkpt lat="44.19381" lon="1.36285">
        <ele>167.5</ele>
        <time>2021-11-21T15:30:53Z</time>
      </trkpt>
      <trkpt lat="44.19381" lon="1.36285">
        <ele>167.5</ele>
        <time>2021-11-21T15:30:54Z</time>
      </trkpt>
      <trkpt lat="44.19382" lon="1.36282">
        <ele>167.4</ele>
        <time>2021-11-21T15:30:56Z</time>
      </trkpt>
      <trkpt lat="44.19382" lon="1.36281">
        <ele>167.3</ele>
        <time>2021-11-21T15:30:57Z</time>
      </trkpt>
      <trkpt lat="44.19382" lon="1.3628">
        <ele>167.3</ele>
        <time>2021-11-21T15:30:58Z</time>
      </trkpt>
      <trkpt lat="44.19383" lon="1.36278">
        <ele>167.2</ele>
        <time>2021-11-21T15:31:00Z</time>
      </trkpt>
      <trkpt lat="44.19383" lon="1.36276">
        <ele>167.1</ele>
        <time>2021-11-21T15:31:01Z</time>
      </trkpt>
      <trkpt lat="44.19384" lon="1.36274">
        <ele>167</ele>
        <time>2021-11-21T15:31:03Z</time>
      </trkpt>
      <trkpt lat="44.19385" lon="1.36273">
        <ele>166.9</ele>
        <time>2021-11-21T15:31:04Z</time>
      </trkpt>
      <trkpt lat="44.19385" lon="1.36272">
        <ele>166.9</ele>
        <time>2021-11-21T15:31:05Z</time>
      </trkpt>
      <trkpt lat="44.19386" lon="1.36271">
        <ele>166.8</ele>
        <time>2021-11-21T15:31:07Z</time>
      </trkpt>
      <trkpt lat="44.19386" lon="1.3627">
        <ele>166.7</ele>
        <time>2021-11-21T15:31:08Z</time>
      </trkpt>
      <trkpt lat="44.19387" lon="1.36269">
        <ele>166.7</ele>
        <time>2021-11-21T15:31:09Z</time>
      </trkpt>
      <trkpt lat="44.19387" lon="1.36268">
        <ele>166.6</ele>
        <time>2021-11-21T15:31:11Z</time>
      </trkpt>
      <trkpt lat="44.19387" lon="1.36268">
        <ele>166.6</ele>
        <time>2021-11-21T15:31:12Z</time>
      </trkpt>
      <trkpt lat="44.19387" lon="1.36268">
        <ele>166.6</ele>
        <time>2021-11-21T15:31:13Z</time>
      </trkpt>
      <trkpt lat="44.19387" lon="1.36267">
        <ele>166.6</ele>
        <time>2021-11-21T15:31:15Z</time>
      </trkpt>
      <trkpt lat="44.19387" lon="1.36267">
        <ele>166.6</ele>
        <time>2021-11-21T15:31:17Z</time>
      </trkpt>
      <trkpt lat="44.19387" lon="1.36267">
        <ele>166.6</ele>
        <time>2021-11-21T15:31:18Z</time>
      </trkpt>
      <trkpt lat="44.19387" lon="1.36267">
        <ele>166.6</ele>
        <time>2021-11-21T15:31:20Z</time>
      </trkpt>
      <trkpt lat="44.19387" lon="1.36267">
        <ele>166.6</ele>
        <time>2021-11-21T15:31:22Z</time>
      </trkpt>
      <trkpt lat="44.19387" lon="1.36267">
        <ele>166.6</ele>
        <time>2021-11-21T15:31:24Z</time>
      </trkpt>
      <trkpt lat="44.19387" lon="1.36267">
        <ele>166.6</ele>
        <time>2021-11-21T15:31:25Z</time>
      </trkpt>
      <trkpt lat="44.19387" lon="1.36267">
        <ele>166.6</ele>
        <time>2021-11-21T15:31:27Z</time>
      </trkpt>
      <trkpt lat="44.19387" lon="1.36268">
        <ele>166.5</ele>
        <time>2021-11-21T15:31:28Z</time>
      </trkpt>
      <trkpt lat="44.19387" lon="1.36268">
        <ele>166.5</ele>
        <time>2021-11-21T15:31:29Z</time>
      </trkpt>
      <trkpt lat="44.19388" lon="1.36268">
        <ele>166.5</ele>
        <time>2021-11-21T15:31:31Z</time>
      </trkpt>
      <trkpt lat="44.19388" lon="1.36269">
        <ele>166.5</ele>
        <time>2021-11-21T15:31:32Z</time>
      </trkpt>
      <trkpt lat="44.19388" lon="1.36269">
        <ele>166.4</ele>
        <time>2021-11-21T15:31:34Z</time>
      </trkpt>
      <trkpt lat="44.19388" lon="1.3627">
        <ele>166.4</ele>
        <time>2021-11-21T15:31:35Z</time>
      </trkpt>
      <trkpt lat="44.19388" lon="1.36269">
        <ele>166.4</ele>
        <time>2021-11-21T15:31:36Z</time>
      </trkpt>
      <trkpt lat="44.19389" lon="1.36268">
        <ele>166.3</ele>
        <time>2021-11-21T15:31:38Z</time>
      </trkpt>
      <trkpt lat="44.19389" lon="1.36267">
        <ele>166.3</ele>
        <time>2021-11-21T15:31:39Z</time>
      </trkpt>
      <trkpt lat="44.1939" lon="1.36266">
        <ele>166.2</ele>
        <time>2021-11-21T15:31:40Z</time>
      </trkpt>
      <trkpt lat="44.19391" lon="1.36266">
        <ele>166.1</ele>
        <time>2021-11-21T15:31:42Z</time>
      </trkpt>
      <trkpt lat="44.19392" lon="1.36265">
        <ele>166.1</ele>
        <time>2021-11-21T15:31:43Z</time>
      </trkpt>
      <trkpt lat="44.19393" lon="1.36265">
        <ele>166</ele>
        <time>2021-11-21T15:31:44Z</time>
      </trkpt>
      <trkpt lat="44.19395" lon="1.36265">
        <ele>165.9</ele>
        <time>2021-11-21T15:31:45Z</time>
      </trkpt>
      <trkpt lat="44.19396" lon="1.36265">
        <ele>165.8</ele>
        <time>2021-11-21T15:31:46Z</time>
      </trkpt>
      <trkpt lat="44.19397" lon="1.36264">
        <ele>165.7</ele>
        <time>2021-11-21T15:31:48Z</time>
      </trkpt>
      <trkpt lat="44.19399" lon="1.36263">
        <ele>165.6</ele>
        <time>2021-11-21T15:31:49Z</time>
      </trkpt>
      <trkpt lat="44.19401" lon="1.36262">
        <ele>165.5</ele>
        <time>2021-11-21T15:31:51Z</time>
      </trkpt>
      <trkpt lat="44.19401" lon="1.36261">
        <ele>165.4</ele>
        <time>2021-11-21T15:31:52Z</time>
      </trkpt>
      <trkpt lat="44.19403" lon="1.3626">
        <ele>165.3</ele>
        <time>2021-11-21T15:31:53Z</time>
      </trkpt>
      <trkpt lat="44.19403" lon="1.36259">
        <ele>165.3</ele>
        <time>2021-11-21T15:31:55Z</time>
      </trkpt>
      <trkpt lat="44.19404" lon="1.36259">
        <ele>165.2</ele>
        <time>2021-11-21T15:31:56Z</time>
      </trkpt>
      <trkpt lat="44.19405" lon="1.36259">
        <ele>165.2</ele>
        <time>2021-11-21T15:31:57Z</time>
      </trkpt>
      <trkpt lat="44.19406" lon="1.36258">
        <ele>165.1</ele>
        <time>2021-11-21T15:31:59Z</time>
      </trkpt>
      <trkpt lat="44.19407" lon="1.36258">
        <ele>165</ele>
        <time>2021-11-21T15:32:00Z</time>
      </trkpt>
      <trkpt lat="44.19408" lon="1.36257">
        <ele>164.9</ele>
        <time>2021-11-21T15:32:01Z</time>
      </trkpt>
      <trkpt lat="44.19409" lon="1.36257">
        <ele>164.9</ele>
        <time>2021-11-21T15:32:02Z</time>
      </trkpt>
      <trkpt lat="44.1941" lon="1.36257">
        <ele>164.8</ele>
        <time>2021-11-21T15:32:03Z</time>
      </trkpt>
      <trkpt lat="44.1941" lon="1.36257">
        <ele>164.8</ele>
        <time>2021-11-21T15:32:05Z</time>
      </trkpt>
      <trkpt lat="44.19411" lon="1.36256">
        <ele>164.8</ele>
        <time>2021-11-21T15:32:06Z</time>
      </trkpt>
      <trkpt lat="44.19412" lon="1.36256">
        <ele>164.7</ele>
        <time>2021-11-21T15:32:07Z</time>
      </trkpt>
      <trkpt lat="44.19413" lon="1.36256">
        <ele>164.6</ele>
        <time>2021-11-21T15:32:08Z</time>
      </trkpt>
      <trkpt lat="44.19414" lon="1.36256">
        <ele>164.6</ele>
        <time>2021-11-21T15:32:09Z</time>
      </trkpt>
      <trkpt lat="44.19415" lon="1.36256">
        <ele>164.5</ele>
        <time>2021-11-21T15:32:11Z</time>
      </trkpt>
      <trkpt lat="44.19416" lon="1.36256">
        <ele>164.4</ele>
        <time>2021-11-21T15:32:12Z</time>
      </trkpt>
      <trkpt lat="44.19417" lon="1.36256">
        <ele>164.3</ele>
        <time>2021-11-21T15:32:13Z</time>
      </trkpt>
      <trkpt lat="44.19418" lon="1.36255">
        <ele>164.3</ele>
        <time>2021-11-21T15:32:14Z</time>
      </trkpt>
      <trkpt lat="44.19419" lon="1.36255">
        <ele>164.2</ele>
        <time>2021-11-21T15:32:15Z</time>
      </trkpt>
      <trkpt lat="44.1942" lon="1.36254">
        <ele>164.1</ele>
        <time>2021-11-21T15:32:17Z</time>
      </trkpt>
      <trkpt lat="44.19422" lon="1.36253">
        <ele>164</ele>
        <time>2021-11-21T15:32:18Z</time>
      </trkpt>
      <trkpt lat="44.19423" lon="1.36252">
        <ele>163.9</ele>
        <time>2021-11-21T15:32:19Z</time>
      </trkpt>
      <trkpt lat="44.19424" lon="1.36251">
        <ele>163.8</ele>
        <time>2021-11-21T15:32:20Z</time>
      </trkpt>
      <trkpt lat="44.19425" lon="1.3625">
        <ele>163.8</ele>
        <time>2021-11-21T15:32:22Z</time>
      </trkpt>
      <trkpt lat="44.19427" lon="1.36249">
        <ele>163.7</ele>
        <time>2021-11-21T15:32:23Z</time>
      </trkpt>
      <trkpt lat="44.19428" lon="1.36249">
        <ele>163.6</ele>
        <time>2021-11-21T15:32:24Z</time>
      </trkpt>
      <trkpt lat="44.19429" lon="1.36248">
        <ele>163.5</ele>
        <time>2021-11-21T15:32:25Z</time>
      </trkpt>
      <trkpt lat="44.19431" lon="1.36248">
        <ele>163.4</ele>
        <time>2021-11-21T15:32:26Z</time>
      </trkpt>
      <trkpt lat="44.19432" lon="1.36247">
        <ele>163.3</ele>
        <time>2021-11-21T15:32:28Z</time>
      </trkpt>
      <trkpt lat="44.19433" lon="1.36247">
        <ele>163.2</ele>
        <time>2021-11-21T15:32:29Z</time>
      </trkpt>
      <trkpt lat="44.19436" lon="1.36246">
        <ele>163.1</ele>
        <time>2021-11-21T15:32:30Z</time>
      </trkpt>
      <trkpt lat="44.19436" lon="1.36246">
        <ele>163</ele>
        <time>2021-11-21T15:32:31Z</time>
      </trkpt>
      <trkpt lat="44.19437" lon="1.36246">
        <ele>163</ele>
        <time>2021-11-21T15:32:32Z</time>
      </trkpt>
      <trkpt lat="44.19439" lon="1.36246">
        <ele>162.9</ele>
        <time>2021-11-21T15:32:33Z</time>
      </trkpt>
      <trkpt lat="44.19439" lon="1.36246">
        <ele>162.9</ele>
        <time>2021-11-21T15:32:34Z</time>
      </trkpt>
      <trkpt lat="44.19439" lon="1.36246">
        <ele>162.8</ele>
        <time>2021-11-21T15:32:36Z</time>
      </trkpt>
      <trkpt lat="44.1944" lon="1.36246">
        <ele>162.8</ele>
        <time>2021-11-21T15:32:37Z</time>
      </trkpt>
      <trkpt lat="44.19442" lon="1.36245">
        <ele>162.7</ele>
        <time>2021-11-21T15:32:38Z</time>
      </trkpt>
      <trkpt lat="44.19443" lon="1.36244">
        <ele>162.6</ele>
        <time>2021-11-21T15:32:39Z</time>
      </trkpt>
      <trkpt lat="44.19443" lon="1.36244">
        <ele>162.6</ele>
        <time>2021-11-21T15:32:40Z</time>
      </trkpt>
      <trkpt lat="44.19445" lon="1.36243">
        <ele>162.4</ele>
        <time>2021-11-21T15:32:42Z</time>
      </trkpt>
      <trkpt lat="44.19446" lon="1.36243">
        <ele>162.4</ele>
        <time>2021-11-21T15:32:43Z</time>
      </trkpt>
      <trkpt lat="44.19447" lon="1.36242">
        <ele>162.3</ele>
        <time>2021-11-21T15:32:44Z</time>
      </trkpt>
      <trkpt lat="44.19448" lon="1.36242">
        <ele>162.3</ele>
        <time>2021-11-21T15:32:45Z</time>
      </trkpt>
      <trkpt lat="44.19449" lon="1.36242">
        <ele>162.2</ele>
        <time>2021-11-21T15:32:46Z</time>
      </trkpt>
      <trkpt lat="44.1945" lon="1.36242">
        <ele>162.1</ele>
        <time>2021-11-21T15:32:47Z</time>
      </trkpt>
      <trkpt lat="44.19452" lon="1.36241">
        <ele>162</ele>
        <time>2021-11-21T15:32:49Z</time>
      </trkpt>
      <trkpt lat="44.19452" lon="1.36241">
        <ele>161.9</ele>
        <time>2021-11-21T15:32:51Z</time>
      </trkpt>
      <trkpt lat="44.19452" lon="1.3624">
        <ele>161.9</ele>
        <time>2021-11-21T15:32:52Z</time>
      </trkpt>
      <trkpt lat="44.19452" lon="1.3624">
        <ele>161.9</ele>
        <time>2021-11-21T15:32:53Z</time>
      </trkpt>
      <trkpt lat="44.19451" lon="1.3624">
        <ele>161.9</ele>
        <time>2021-11-21T15:32:54Z</time>
      </trkpt>
      <trkpt lat="44.19451" lon="1.36239">
        <ele>161.8</ele>
        <time>2021-11-21T15:32:56Z</time>
      </trkpt>
      <trkpt lat="44.19452" lon="1.36239">
        <ele>161.8</ele>
        <time>2021-11-21T15:32:57Z</time>
      </trkpt>
      <trkpt lat="44.19452" lon="1.36238">
        <ele>161.8</ele>
        <time>2021-11-21T15:32:58Z</time>
      </trkpt>
      <trkpt lat="44.19454" lon="1.36237">
        <ele>161.6</ele>
        <time>2021-11-21T15:33:00Z</time>
      </trkpt>
      <trkpt lat="44.19454" lon="1.36236">
        <ele>161.6</ele>
        <time>2021-11-21T15:33:02Z</time>
      </trkpt>
      <trkpt lat="44.19455" lon="1.36236">
        <ele>161.5</ele>
        <time>2021-11-21T15:33:03Z</time>
      </trkpt>
      <trkpt lat="44.19456" lon="1.36235">
        <ele>161.5</ele>
        <time>2021-11-21T15:33:05Z</time>
      </trkpt>
      <trkpt lat="44.19457" lon="1.36235">
        <ele>161.4</ele>
        <time>2021-11-21T15:33:06Z</time>
      </trkpt>
      <trkpt lat="44.19457" lon="1.36235">
        <ele>161.4</ele>
        <time>2021-11-21T15:33:08Z</time>
      </trkpt>
      <trkpt lat="44.19457" lon="1.36235">
        <ele>161.4</ele>
        <time>2021-11-21T15:33:09Z</time>
      </trkpt>
      <trkpt lat="44.19458" lon="1.36235">
        <ele>161.3</ele>
        <time>2021-11-21T15:33:10Z</time>
      </trkpt>
      <trkpt lat="44.19458" lon="1.36235">
        <ele>161.3</ele>
        <time>2021-11-21T15:33:11Z</time>
      </trkpt>
      <trkpt lat="44.19459" lon="1.36235">
        <ele>161.3</ele>
        <time>2021-11-21T15:33:13Z</time>
      </trkpt>
      <trkpt lat="44.19459" lon="1.36235">
        <ele>161.3</ele>
        <time>2021-11-21T15:33:15Z</time>
      </trkpt>
      <trkpt lat="44.19459" lon="1.36235">
        <ele>161.2</ele>
        <time>2021-11-21T15:33:17Z</time>
      </trkpt>
      <trkpt lat="44.1946" lon="1.36235">
        <ele>161.2</ele>
        <time>2021-11-21T15:33:19Z</time>
      </trkpt>
      <trkpt lat="44.19461" lon="1.36236">
        <ele>161.1</ele>
        <time>2021-11-21T15:33:20Z</time>
      </trkpt>
      <trkpt lat="44.19462" lon="1.36237">
        <ele>161</ele>
        <time>2021-11-21T15:33:22Z</time>
      </trkpt>
      <trkpt lat="44.19463" lon="1.36237">
        <ele>160.9</ele>
        <time>2021-11-21T15:33:23Z</time>
      </trkpt>
      <trkpt lat="44.19464" lon="1.36238">
        <ele>160.9</ele>
        <time>2021-11-21T15:33:25Z</time>
      </trkpt>
      <trkpt lat="44.19463" lon="1.36238">
        <ele>160.9</ele>
        <time>2021-11-21T15:33:27Z</time>
      </trkpt>
      <trkpt lat="44.19463" lon="1.36238">
        <ele>161</ele>
        <time>2021-11-21T15:33:29Z</time>
      </trkpt>
      <trkpt lat="44.19463" lon="1.36238">
        <ele>161</ele>
        <time>2021-11-21T15:33:30Z</time>
      </trkpt>
      <trkpt lat="44.19463" lon="1.36238">
        <ele>161</ele>
        <time>2021-11-21T15:33:31Z</time>
      </trkpt>
      <trkpt lat="44.19462" lon="1.36238">
        <ele>161</ele>
        <time>2021-11-21T15:33:33Z</time>
      </trkpt>
      <trkpt lat="44.19462" lon="1.36238">
        <ele>161</ele>
        <time>2021-11-21T15:33:34Z</time>
      </trkpt>
      <trkpt lat="44.19462" lon="1.36238">
        <ele>161</ele>
        <time>2021-11-21T15:33:35Z</time>
      </trkpt>
      <trkpt lat="44.19462" lon="1.36238">
        <ele>161.1</ele>
        <time>2021-11-21T15:33:37Z</time>
      </trkpt>
      <trkpt lat="44.19461" lon="1.36238">
        <ele>161.1</ele>
        <time>2021-11-21T15:33:38Z</time>
      </trkpt>
      <trkpt lat="44.19461" lon="1.36238">
        <ele>161.1</ele>
        <time>2021-11-21T15:33:39Z</time>
      </trkpt>
      <trkpt lat="44.19461" lon="1.36238">
        <ele>161.1</ele>
        <time>2021-11-21T15:33:40Z</time>
      </trkpt>
      <trkpt lat="44.1946" lon="1.36238">
        <ele>161.2</ele>
        <time>2021-11-21T15:33:42Z</time>
      </trkpt>
      <trkpt lat="44.1946" lon="1.36239">
        <ele>161.2</ele>
        <time>2021-11-21T15:33:44Z</time>
      </trkpt>
      <trkpt lat="44.1946" lon="1.36239">
        <ele>161.2</ele>
        <time>2021-11-21T15:33:46Z</time>
      </trkpt>
      <trkpt lat="44.1946" lon="1.36239">
        <ele>161.2</ele>
        <time>2021-11-21T15:33:47Z</time>
      </trkpt>
      <trkpt lat="44.19459" lon="1.36238">
        <ele>161.3</ele>
        <time>2021-11-21T15:33:49Z</time>
      </trkpt>
      <trkpt lat="44.19459" lon="1.36238">
        <ele>161.3</ele>
        <time>2021-11-21T15:33:51Z</time>
      </trkpt>
      <trkpt lat="44.19459" lon="1.36237">
        <ele>161.3</ele>
        <time>2021-11-21T15:33:53Z</time>
      </trkpt>
      <trkpt lat="44.1946" lon="1.36237">
        <ele>161.4</ele>
        <time>2021-11-21T15:33:55Z</time>
      </trkpt>
      <trkpt lat="44.1946" lon="1.36237">
        <ele>161.4</ele>
        <time>2021-11-21T15:33:57Z</time>
      </trkpt>
      <trkpt lat="44.1946" lon="1.36237">
        <ele>161.4</ele>
        <time>2021-11-21T15:33:59Z</time>
      </trkpt>
      <trkpt lat="44.1946" lon="1.36237">
        <ele>161.4</ele>
        <time>2021-11-21T15:34:00Z</time>
      </trkpt>
      <trkpt lat="44.1946" lon="1.36237">
        <ele>161.4</ele>
        <time>2021-11-21T15:34:01Z</time>
      </trkpt>
      <trkpt lat="44.1946" lon="1.36237">
        <ele>161.4</ele>
        <time>2021-11-21T15:34:03Z</time>
      </trkpt>
      <trkpt lat="44.1946" lon="1.36237">
        <ele>161.5</ele>
        <time>2021-11-21T15:34:05Z</time>
      </trkpt>
      <trkpt lat="44.1946" lon="1.36237">
        <ele>161.5</ele>
        <time>2021-11-21T15:34:06Z</time>
      </trkpt>
      <trkpt lat="44.1946" lon="1.36238">
        <ele>161.5</ele>
        <time>2021-11-21T15:34:08Z</time>
      </trkpt>
      <trkpt lat="44.1946" lon="1.36237">
        <ele>161.5</ele>
        <time>2021-11-21T15:34:09Z</time>
      </trkpt>
      <trkpt lat="44.1946" lon="1.36237">
        <ele>161.5</ele>
        <time>2021-11-21T15:34:11Z</time>
      </trkpt>
      <trkpt lat="44.19459" lon="1.36237">
        <ele>161.5</ele>
        <time>2021-11-21T15:34:12Z</time>
      </trkpt>
      <trkpt lat="44.19459" lon="1.36237">
        <ele>161.5</ele>
        <time>2021-11-21T15:34:14Z</time>
      </trkpt>
      <trkpt lat="44.19458" lon="1.36237">
        <ele>161.6</ele>
        <time>2021-11-21T15:34:15Z</time>
      </trkpt>
      <trkpt lat="44.19458" lon="1.36239">
        <ele>161.7</ele>
        <time>2021-11-21T15:34:17Z</time>
      </trkpt>
      <trkpt lat="44.19459" lon="1.36241">
        <ele>161.8</ele>
        <time>2021-11-21T15:34:18Z</time>
      </trkpt>
      <trkpt lat="44.19458" lon="1.36243">
        <ele>161.9</ele>
        <time>2021-11-21T15:34:20Z</time>
      </trkpt>
      <trkpt lat="44.19455" lon="1.36239">
        <ele>162.1</ele>
        <time>2021-11-21T15:34:22Z</time>
      </trkpt>
      <trkpt lat="44.19454" lon="1.36238">
        <ele>162.2</ele>
        <time>2021-11-21T15:34:23Z</time>
      </trkpt>
      <trkpt lat="44.19452" lon="1.36238">
        <ele>162.3</ele>
        <time>2021-11-21T15:34:24Z</time>
      </trkpt>
      <trkpt lat="44.1945" lon="1.36237">
        <ele>162.5</ele>
        <time>2021-11-21T15:34:26Z</time>
      </trkpt>
      <trkpt lat="44.19449" lon="1.36237">
        <ele>162.5</ele>
        <time>2021-11-21T15:34:27Z</time>
      </trkpt>
      <trkpt lat="44.19448" lon="1.36236">
        <ele>162.6</ele>
        <time>2021-11-21T15:34:28Z</time>
      </trkpt>
      <trkpt lat="44.19447" lon="1.36236">
        <ele>162.7</ele>
        <time>2021-11-21T15:34:30Z</time>
      </trkpt>
      <trkpt lat="44.19446" lon="1.36237">
        <ele>162.7</ele>
        <time>2021-11-21T15:34:31Z</time>
      </trkpt>
      <trkpt lat="44.19444" lon="1.36237">
        <ele>162.9</ele>
        <time>2021-11-21T15:34:33Z</time>
      </trkpt>
      <trkpt lat="44.19443" lon="1.36237">
        <ele>162.9</ele>
        <time>2021-11-21T15:34:35Z</time>
      </trkpt>
      <trkpt lat="44.19442" lon="1.36238">
        <ele>162.9</ele>
        <time>2021-11-21T15:34:36Z</time>
      </trkpt>
      <trkpt lat="44.19442" lon="1.36238">
        <ele>163</ele>
        <time>2021-11-21T15:34:37Z</time>
      </trkpt>
      <trkpt lat="44.1944" lon="1.36239">
        <ele>163.1</ele>
        <time>2021-11-21T15:34:39Z</time>
      </trkpt>
      <trkpt lat="44.19439" lon="1.36239">
        <ele>163.1</ele>
        <time>2021-11-21T15:34:40Z</time>
      </trkpt>
      <trkpt lat="44.19438" lon="1.36241">
        <ele>163.2</ele>
        <time>2021-11-21T15:34:41Z</time>
      </trkpt>
      <trkpt lat="44.19437" lon="1.36241">
        <ele>163.3</ele>
        <time>2021-11-21T15:34:43Z</time>
      </trkpt>
      <trkpt lat="44.19436" lon="1.36242">
        <ele>163.4</ele>
        <time>2021-11-21T15:34:44Z</time>
      </trkpt>
      <trkpt lat="44.19435" lon="1.36243">
        <ele>163.4</ele>
        <time>2021-11-21T15:34:45Z</time>
      </trkpt>
      <trkpt lat="44.19433" lon="1.36244">
        <ele>163.6</ele>
        <time>2021-11-21T15:34:47Z</time>
      </trkpt>
      <trkpt lat="44.19432" lon="1.36245">
        <ele>163.6</ele>
        <time>2021-11-21T15:34:49Z</time>
      </trkpt>
      <trkpt lat="44.1943" lon="1.36245">
        <ele>163.7</ele>
        <time>2021-11-21T15:34:50Z</time>
      </trkpt>
      <trkpt lat="44.19429" lon="1.36246">
        <ele>163.8</ele>
        <time>2021-11-21T15:34:51Z</time>
      </trkpt>
      <trkpt lat="44.19428" lon="1.36246">
        <ele>163.9</ele>
        <time>2021-11-21T15:34:53Z</time>
      </trkpt>
      <trkpt lat="44.19427" lon="1.36247">
        <ele>164</ele>
        <time>2021-11-21T15:34:54Z</time>
      </trkpt>
      <trkpt lat="44.19426" lon="1.36247">
        <ele>164</ele>
        <time>2021-11-21T15:34:55Z</time>
      </trkpt>
      <trkpt lat="44.19424" lon="1.36248">
        <ele>164.1</ele>
        <time>2021-11-21T15:34:57Z</time>
      </trkpt>
      <trkpt lat="44.19423" lon="1.36249">
        <ele>164.2</ele>
        <time>2021-11-21T15:34:58Z</time>
      </trkpt>
      <trkpt lat="44.19422" lon="1.3625">
        <ele>164.3</ele>
        <time>2021-11-21T15:34:59Z</time>
      </trkpt>
      <trkpt lat="44.19421" lon="1.36251">
        <ele>164.4</ele>
        <time>2021-11-21T15:35:01Z</time>
      </trkpt>
      <trkpt lat="44.1942" lon="1.36252">
        <ele>164.4</ele>
        <time>2021-11-21T15:35:02Z</time>
      </trkpt>
      <trkpt lat="44.19419" lon="1.36253">
        <ele>164.5</ele>
        <time>2021-11-21T15:35:03Z</time>
      </trkpt>
      <trkpt lat="44.19418" lon="1.36254">
        <ele>164.5</ele>
        <time>2021-11-21T15:35:04Z</time>
      </trkpt>
      <trkpt lat="44.19417" lon="1.36255">
        <ele>164.7</ele>
        <time>2021-11-21T15:35:05Z</time>
      </trkpt>
      <trkpt lat="44.19416" lon="1.36256">
        <ele>164.7</ele>
        <time>2021-11-21T15:35:07Z</time>
      </trkpt>
      <trkpt lat="44.19415" lon="1.36257">
        <ele>164.8</ele>
        <time>2021-11-21T15:35:08Z</time>
      </trkpt>
      <trkpt lat="44.19414" lon="1.36258">
        <ele>164.9</ele>
        <time>2021-11-21T15:35:09Z</time>
      </trkpt>
      <trkpt lat="44.19413" lon="1.36259">
        <ele>165</ele>
        <time>2021-11-21T15:35:11Z</time>
      </trkpt>
      <trkpt lat="44.19411" lon="1.3626">
        <ele>165.1</ele>
        <time>2021-11-21T15:35:12Z</time>
      </trkpt>
      <trkpt lat="44.1941" lon="1.36261">
        <ele>165.2</ele>
        <time>2021-11-21T15:35:14Z</time>
      </trkpt>
      <trkpt lat="44.19409" lon="1.36262">
        <ele>165.2</ele>
        <time>2021-11-21T15:35:15Z</time>
      </trkpt>
      <trkpt lat="44.19407" lon="1.36262">
        <ele>165.3</ele>
        <time>2021-11-21T15:35:16Z</time>
      </trkpt>
      <trkpt lat="44.19406" lon="1.36263">
        <ele>165.4</ele>
        <time>2021-11-21T15:35:18Z</time>
      </trkpt>
      <trkpt lat="44.19405" lon="1.36264">
        <ele>165.5</ele>
        <time>2021-11-21T15:35:19Z</time>
      </trkpt>
      <trkpt lat="44.19404" lon="1.36265">
        <ele>165.6</ele>
        <time>2021-11-21T15:35:20Z</time>
      </trkpt>
      <trkpt lat="44.19403" lon="1.36265">
        <ele>165.7</ele>
        <time>2021-11-21T15:35:22Z</time>
      </trkpt>
      <trkpt lat="44.19401" lon="1.36266">
        <ele>165.7</ele>
        <time>2021-11-21T15:35:23Z</time>
      </trkpt>
      <trkpt lat="44.194" lon="1.36266">
        <ele>165.8</ele>
        <time>2021-11-21T15:35:24Z</time>
      </trkpt>
      <trkpt lat="44.19399" lon="1.36267">
        <ele>165.9</ele>
        <time>2021-11-21T15:35:26Z</time>
      </trkpt>
      <trkpt lat="44.19398" lon="1.36268">
        <ele>166</ele>
        <time>2021-11-21T15:35:27Z</time>
      </trkpt>
      <trkpt lat="44.19397" lon="1.36268">
        <ele>166</ele>
        <time>2021-11-21T15:35:28Z</time>
      </trkpt>
      <trkpt lat="44.19396" lon="1.36268">
        <ele>166.1</ele>
        <time>2021-11-21T15:35:29Z</time>
      </trkpt>
      <trkpt lat="44.19394" lon="1.36269">
        <ele>166.2</ele>
        <time>2021-11-21T15:35:31Z</time>
      </trkpt>
      <trkpt lat="44.19393" lon="1.36269">
        <ele>166.2</ele>
        <time>2021-11-21T15:35:32Z</time>
      </trkpt>
      <trkpt lat="44.19393" lon="1.36269">
        <ele>166.3</ele>
        <time>2021-11-21T15:35:33Z</time>
      </trkpt>
      <trkpt lat="44.19391" lon="1.36269">
        <ele>166.4</ele>
        <time>2021-11-21T15:35:35Z</time>
      </trkpt>
      <trkpt lat="44.1939" lon="1.3627">
        <ele>166.5</ele>
        <time>2021-11-21T15:35:36Z</time>
      </trkpt>
      <trkpt lat="44.19389" lon="1.36271">
        <ele>166.5</ele>
        <time>2021-11-21T15:35:37Z</time>
      </trkpt>
      <trkpt lat="44.19388" lon="1.36272">
        <ele>166.6</ele>
        <time>2021-11-21T15:35:39Z</time>
      </trkpt>
      <trkpt lat="44.19387" lon="1.36272">
        <ele>166.7</ele>
        <time>2021-11-21T15:35:40Z</time>
      </trkpt>
      <trkpt lat="44.19385" lon="1.36274">
        <ele>166.8</ele>
        <time>2021-11-21T15:35:41Z</time>
      </trkpt>
      <trkpt lat="44.19385" lon="1.36275">
        <ele>166.8</ele>
        <time>2021-11-21T15:35:43Z</time>
      </trkpt>
      <trkpt lat="44.19384" lon="1.36276">
        <ele>166.9</ele>
        <time>2021-11-21T15:35:44Z</time>
      </trkpt>
      <trkpt lat="44.19383" lon="1.36277">
        <ele>167</ele>
        <time>2021-11-21T15:35:46Z</time>
      </trkpt>
      <trkpt lat="44.19382" lon="1.36278">
        <ele>167.1</ele>
        <time>2021-11-21T15:35:47Z</time>
      </trkpt>
      <trkpt lat="44.19381" lon="1.36279">
        <ele>167.2</ele>
        <time>2021-11-21T15:35:48Z</time>
      </trkpt>
      <trkpt lat="44.1938" lon="1.36281">
        <ele>167.3</ele>
        <time>2021-11-21T15:35:50Z</time>
      </trkpt>
      <trkpt lat="44.19379" lon="1.36282">
        <ele>167.3</ele>
        <time>2021-11-21T15:35:51Z</time>
      </trkpt>
      <trkpt lat="44.19377" lon="1.36283">
        <ele>167.4</ele>
        <time>2021-11-21T15:35:53Z</time>
      </trkpt>
      <trkpt lat="44.19376" lon="1.36283">
        <ele>167.5</ele>
        <time>2021-11-21T15:35:54Z</time>
      </trkpt>
      <trkpt lat="44.19374" lon="1.36284">
        <ele>167.6</ele>
        <time>2021-11-21T15:35:56Z</time>
      </trkpt>
      <trkpt lat="44.19373" lon="1.36284">
        <ele>167.7</ele>
        <time>2021-11-21T15:35:57Z</time>
      </trkpt>
      <trkpt lat="44.19372" lon="1.36286">
        <ele>167.8</ele>
        <time>2021-11-21T15:35:59Z</time>
      </trkpt>
      <trkpt lat="44.1937" lon="1.36287">
        <ele>167.9</ele>
        <time>2021-11-21T15:36:00Z</time>
      </trkpt>
      <trkpt lat="44.19369" lon="1.36288">
        <ele>168</ele>
        <time>2021-11-21T15:36:01Z</time>
      </trkpt>
      <trkpt lat="44.19368" lon="1.36289">
        <ele>168.1</ele>
        <time>2021-11-21T15:36:02Z</time>
      </trkpt>
      <trkpt lat="44.19366" lon="1.3629">
        <ele>168.2</ele>
        <time>2021-11-21T15:36:04Z</time>
      </trkpt>
      <trkpt lat="44.19365" lon="1.3629">
        <ele>168.3</ele>
        <time>2021-11-21T15:36:06Z</time>
      </trkpt>
      <trkpt lat="44.19364" lon="1.3629">
        <ele>168.4</ele>
        <time>2021-11-21T15:36:07Z</time>
      </trkpt>
      <trkpt lat="44.19363" lon="1.36291">
        <ele>168.4</ele>
        <time>2021-11-21T15:36:08Z</time>
      </trkpt>
      <trkpt lat="44.19362" lon="1.36292">
        <ele>168.5</ele>
        <time>2021-11-21T15:36:10Z</time>
      </trkpt>
      <trkpt lat="44.19362" lon="1.36293">
        <ele>168.6</ele>
        <time>2021-11-21T15:36:11Z</time>
      </trkpt>
      <trkpt lat="44.19362" lon="1.36295">
        <ele>168.7</ele>
        <time>2021-11-21T15:36:13Z</time>
      </trkpt>
      <trkpt lat="44.19362" lon="1.36297">
        <ele>168.7</ele>
        <time>2021-11-21T15:36:14Z</time>
      </trkpt>
      <trkpt lat="44.19362" lon="1.36298">
        <ele>168.8</ele>
        <time>2021-11-21T15:36:15Z</time>
      </trkpt>
      <trkpt lat="44.19362" lon="1.363">
        <ele>168.9</ele>
        <time>2021-11-21T15:36:17Z</time>
      </trkpt>
      <trkpt lat="44.19362" lon="1.36302">
        <ele>169</ele>
        <time>2021-11-21T15:36:18Z</time>
      </trkpt>
      <trkpt lat="44.19362" lon="1.36303">
        <ele>169</ele>
        <time>2021-11-21T15:36:19Z</time>
      </trkpt>
      <trkpt lat="44.19362" lon="1.36305">
        <ele>169.1</ele>
        <time>2021-11-21T15:36:21Z</time>
      </trkpt>
      <trkpt lat="44.19362" lon="1.36306">
        <ele>169.2</ele>
        <time>2021-11-21T15:36:22Z</time>
      </trkpt>
      <trkpt lat="44.19361" lon="1.36306">
        <ele>169.2</ele>
        <time>2021-11-21T15:36:23Z</time>
      </trkpt>
      <trkpt lat="44.1936" lon="1.36306">
        <ele>169.3</ele>
        <time>2021-11-21T15:36:25Z</time>
      </trkpt>
      <trkpt lat="44.19359" lon="1.36306">
        <ele>169.3</ele>
        <time>2021-11-21T15:36:27Z</time>
      </trkpt>
      <trkpt lat="44.19359" lon="1.36306">
        <ele>169.3</ele>
        <time>2021-11-21T15:36:28Z</time>
      </trkpt>
      <trkpt lat="44.19359" lon="1.36306">
        <ele>169.4</ele>
        <time>2021-11-21T15:36:30Z</time>
      </trkpt>
      <trkpt lat="44.19358" lon="1.36306">
        <ele>169.4</ele>
        <time>2021-11-21T15:36:31Z</time>
      </trkpt>
      <trkpt lat="44.19357" lon="1.36306">
        <ele>169.4</ele>
        <time>2021-11-21T15:36:33Z</time>
      </trkpt>
      <trkpt lat="44.19356" lon="1.36306">
        <ele>169.5</ele>
        <time>2021-11-21T15:36:35Z</time>
      </trkpt>
      <trkpt lat="44.19355" lon="1.36306">
        <ele>169.6</ele>
        <time>2021-11-21T15:36:36Z</time>
      </trkpt>
      <trkpt lat="44.19354" lon="1.36306">
        <ele>169.6</ele>
        <time>2021-11-21T15:36:37Z</time>
      </trkpt>
      <trkpt lat="44.19353" lon="1.36305">
        <ele>169.7</ele>
        <time>2021-11-21T15:36:39Z</time>
      </trkpt>
      <trkpt lat="44.19352" lon="1.36305">
        <ele>169.8</ele>
        <time>2021-11-21T15:36:40Z</time>
      </trkpt>
      <trkpt lat="44.19351" lon="1.36305">
        <ele>169.9</ele>
        <time>2021-11-21T15:36:41Z</time>
      </trkpt>
      <trkpt lat="44.1935" lon="1.36305">
        <ele>169.9</ele>
        <time>2021-11-21T15:36:42Z</time>
      </trkpt>
      <trkpt lat="44.19349" lon="1.36306">
        <ele>170</ele>
        <time>2021-11-21T15:36:44Z</time>
      </trkpt>
      <trkpt lat="44.19348" lon="1.36306">
        <ele>170</ele>
        <time>2021-11-21T15:36:45Z</time>
      </trkpt>
      <trkpt lat="44.19347" lon="1.36306">
        <ele>170.1</ele>
        <time>2021-11-21T15:36:47Z</time>
      </trkpt>
      <trkpt lat="44.19347" lon="1.36306">
        <ele>170.1</ele>
        <time>2021-11-21T15:36:49Z</time>
      </trkpt>
      <trkpt lat="44.19347" lon="1.36306">
        <ele>170.1</ele>
        <time>2021-11-21T15:36:51Z</time>
      </trkpt>
      <trkpt lat="44.19347" lon="1.36307">
        <ele>170.1</ele>
        <time>2021-11-21T15:36:52Z</time>
      </trkpt>
      <trkpt lat="44.19347" lon="1.36307">
        <ele>170.2</ele>
        <time>2021-11-21T15:36:53Z</time>
      </trkpt>
      <trkpt lat="44.19346" lon="1.36308">
        <ele>170.2</ele>
        <time>2021-11-21T15:36:55Z</time>
      </trkpt>
      <trkpt lat="44.19345" lon="1.36309">
        <ele>170.2</ele>
        <time>2021-11-21T15:36:56Z</time>
      </trkpt>
      <trkpt lat="44.19345" lon="1.36311">
        <ele>170.3</ele>
        <time>2021-11-21T15:36:58Z</time>
      </trkpt>
      <trkpt lat="44.19344" lon="1.36313">
        <ele>170.3</ele>
        <time>2021-11-21T15:37:00Z</time>
      </trkpt>
      <trkpt lat="44.19343" lon="1.36314">
        <ele>170.3</ele>
        <time>2021-11-21T15:37:01Z</time>
      </trkpt>
      <trkpt lat="44.19342" lon="1.36315">
        <ele>170.4</ele>
        <time>2021-11-21T15:37:02Z</time>
      </trkpt>
      <trkpt lat="44.19341" lon="1.36315">
        <ele>170.4</ele>
        <time>2021-11-21T15:37:03Z</time>
      </trkpt>
      <trkpt lat="44.1934" lon="1.36316">
        <ele>170.4</ele>
        <time>2021-11-21T15:37:05Z</time>
      </trkpt>
      <trkpt lat="44.1934" lon="1.36317">
        <ele>170.4</ele>
        <time>2021-11-21T15:37:06Z</time>
      </trkpt>
      <trkpt lat="44.19339" lon="1.36319">
        <ele>170.5</ele>
        <time>2021-11-21T15:37:07Z</time>
      </trkpt>
      <trkpt lat="44.19338" lon="1.3632">
        <ele>170.6</ele>
        <time>2021-11-21T15:37:09Z</time>
      </trkpt>
      <trkpt lat="44.19337" lon="1.36322">
        <ele>170.7</ele>
        <time>2021-11-21T15:37:10Z</time>
      </trkpt>
      <trkpt lat="44.19336" lon="1.36323">
        <ele>170.8</ele>
        <time>2021-11-21T15:37:11Z</time>
      </trkpt>
      <trkpt lat="44.19335" lon="1.36325">
        <ele>170.9</ele>
        <time>2021-11-21T15:37:13Z</time>
      </trkpt>
      <trkpt lat="44.19334" lon="1.36327">
        <ele>170.9</ele>
        <time>2021-11-21T15:37:14Z</time>
      </trkpt>
      <trkpt lat="44.19334" lon="1.36328">
        <ele>171</ele>
        <time>2021-11-21T15:37:15Z</time>
      </trkpt>
      <trkpt lat="44.19334" lon="1.3633">
        <ele>171.1</ele>
        <time>2021-11-21T15:37:17Z</time>
      </trkpt>
      <trkpt lat="44.19333" lon="1.36331">
        <ele>171.2</ele>
        <time>2021-11-21T15:37:18Z</time>
      </trkpt>
      <trkpt lat="44.19332" lon="1.36333">
        <ele>171.3</ele>
        <time>2021-11-21T15:37:19Z</time>
      </trkpt>
      <trkpt lat="44.19332" lon="1.36336">
        <ele>171.4</ele>
        <time>2021-11-21T15:37:20Z</time>
      </trkpt>
      <trkpt lat="44.19331" lon="1.36337">
        <ele>171.4</ele>
        <time>2021-11-21T15:37:21Z</time>
      </trkpt>
      <trkpt lat="44.19331" lon="1.36338">
        <ele>171.5</ele>
        <time>2021-11-21T15:37:23Z</time>
      </trkpt>
      <trkpt lat="44.1933" lon="1.36339">
        <ele>171.5</ele>
        <time>2021-11-21T15:37:24Z</time>
      </trkpt>
      <trkpt lat="44.1933" lon="1.36341">
        <ele>171.6</ele>
        <time>2021-11-21T15:37:26Z</time>
      </trkpt>
      <trkpt lat="44.19329" lon="1.36342">
        <ele>171.6</ele>
        <time>2021-11-21T15:37:27Z</time>
      </trkpt>
      <trkpt lat="44.19328" lon="1.36342">
        <ele>172.1</ele>
        <time>2021-11-21T15:37:29Z</time>
      </trkpt>
      <trkpt lat="44.19327" lon="1.36342">
        <ele>172.1</ele>
        <time>2021-11-21T15:37:30Z</time>
      </trkpt>
      <trkpt lat="44.19326" lon="1.36341">
        <ele>172.1</ele>
        <time>2021-11-21T15:37:31Z</time>
      </trkpt>
      <trkpt lat="44.19325" lon="1.3634">
        <ele>172.1</ele>
        <time>2021-11-21T15:37:33Z</time>
      </trkpt>
      <trkpt lat="44.19325" lon="1.3634">
        <ele>172.2</ele>
        <time>2021-11-21T15:37:34Z</time>
      </trkpt>
      <trkpt lat="44.19325" lon="1.36339">
        <ele>172.2</ele>
        <time>2021-11-21T15:37:36Z</time>
      </trkpt>
      <trkpt lat="44.19325" lon="1.36339">
        <ele>172.2</ele>
        <time>2021-11-21T15:37:37Z</time>
      </trkpt>
      <trkpt lat="44.19325" lon="1.36339">
        <ele>172.2</ele>
        <time>2021-11-21T15:37:38Z</time>
      </trkpt>
      <trkpt lat="44.19324" lon="1.36339">
        <ele>172.2</ele>
        <time>2021-11-21T15:37:40Z</time>
      </trkpt>
      <trkpt lat="44.19323" lon="1.36338">
        <ele>172.2</ele>
        <time>2021-11-21T15:37:41Z</time>
      </trkpt>
      <trkpt lat="44.19323" lon="1.36337">
        <ele>172.2</ele>
        <time>2021-11-21T15:37:42Z</time>
      </trkpt>
      <trkpt lat="44.19322" lon="1.36336">
        <ele>172.3</ele>
        <time>2021-11-21T15:37:43Z</time>
      </trkpt>
      <trkpt lat="44.19321" lon="1.36335">
        <ele>172.3</ele>
        <time>2021-11-21T15:37:45Z</time>
      </trkpt>
      <trkpt lat="44.19319" lon="1.36334">
        <ele>172.4</ele>
        <time>2021-11-21T15:37:46Z</time>
      </trkpt>
      <trkpt lat="44.19318" lon="1.36333">
        <ele>172.4</ele>
        <time>2021-11-21T15:37:47Z</time>
      </trkpt>
      <trkpt lat="44.19317" lon="1.36332">
        <ele>172.4</ele>
        <time>2021-11-21T15:37:48Z</time>
      </trkpt>
      <trkpt lat="44.19316" lon="1.36331">
        <ele>172.5</ele>
        <time>2021-11-21T15:37:50Z</time>
      </trkpt>
      <trkpt lat="44.19314" lon="1.3633">
        <ele>172.5</ele>
        <time>2021-11-21T15:37:51Z</time>
      </trkpt>
      <trkpt lat="44.19313" lon="1.36329">
        <ele>172.6</ele>
        <time>2021-11-21T15:37:52Z</time>
      </trkpt>
      <trkpt lat="44.19313" lon="1.36328">
        <ele>172.6</ele>
        <time>2021-11-21T15:37:53Z</time>
      </trkpt>
      <trkpt lat="44.19312" lon="1.36327">
        <ele>172.6</ele>
        <time>2021-11-21T15:37:54Z</time>
      </trkpt>
      <trkpt lat="44.19311" lon="1.36326">
        <ele>172.6</ele>
        <time>2021-11-21T15:37:56Z</time>
      </trkpt>
      <trkpt lat="44.1931" lon="1.36325">
        <ele>172.7</ele>
        <time>2021-11-21T15:37:57Z</time>
      </trkpt>
      <trkpt lat="44.19309" lon="1.36324">
        <ele>172.7</ele>
        <time>2021-11-21T15:37:58Z</time>
      </trkpt>
      <trkpt lat="44.19309" lon="1.36322">
        <ele>172.7</ele>
        <time>2021-11-21T15:37:59Z</time>
      </trkpt>
      <trkpt lat="44.19307" lon="1.3632">
        <ele>172.8</ele>
        <time>2021-11-21T15:38:01Z</time>
      </trkpt>
      <trkpt lat="44.19307" lon="1.36319">
        <ele>172.8</ele>
        <time>2021-11-21T15:38:02Z</time>
      </trkpt>
      <trkpt lat="44.19306" lon="1.36317">
        <ele>172.9</ele>
        <time>2021-11-21T15:38:04Z</time>
      </trkpt>
      <trkpt lat="44.19305" lon="1.36315">
        <ele>172.9</ele>
        <time>2021-11-21T15:38:06Z</time>
      </trkpt>
      <trkpt lat="44.19304" lon="1.36313">
        <ele>173</ele>
        <time>2021-11-21T15:38:07Z</time>
      </trkpt>
      <trkpt lat="44.19303" lon="1.36312">
        <ele>173</ele>
        <time>2021-11-21T15:38:08Z</time>
      </trkpt>
      <trkpt lat="44.19302" lon="1.3631">
        <ele>173.1</ele>
        <time>2021-11-21T15:38:09Z</time>
      </trkpt>
      <trkpt lat="44.19302" lon="1.36309">
        <ele>173.1</ele>
        <time>2021-11-21T15:38:10Z</time>
      </trkpt>
      <trkpt lat="44.19301" lon="1.36307">
        <ele>173.1</ele>
        <time>2021-11-21T15:38:12Z</time>
      </trkpt>
      <trkpt lat="44.193" lon="1.36306">
        <ele>173.2</ele>
        <time>2021-11-21T15:38:13Z</time>
      </trkpt>
      <trkpt lat="44.19299" lon="1.36305">
        <ele>173.2</ele>
        <time>2021-11-21T15:38:15Z</time>
      </trkpt>
      <trkpt lat="44.19299" lon="1.36303">
        <ele>173.2</ele>
        <time>2021-11-21T15:38:16Z</time>
      </trkpt>
      <trkpt lat="44.19298" lon="1.36301">
        <ele>173.3</ele>
        <time>2021-11-21T15:38:17Z</time>
      </trkpt>
      <trkpt lat="44.19297" lon="1.36297">
        <ele>173.4</ele>
        <time>2021-11-21T15:38:19Z</time>
      </trkpt>
      <trkpt lat="44.19296" lon="1.36295">
        <ele>173.4</ele>
        <time>2021-11-21T15:38:21Z</time>
      </trkpt>
      <trkpt lat="44.19296" lon="1.36293">
        <ele>173.5</ele>
        <time>2021-11-21T15:38:22Z</time>
      </trkpt>
      <trkpt lat="44.19295" lon="1.36292">
        <ele>173.5</ele>
        <time>2021-11-21T15:38:24Z</time>
      </trkpt>
      <trkpt lat="44.19294" lon="1.3629">
        <ele>173.6</ele>
        <time>2021-11-21T15:38:25Z</time>
      </trkpt>
      <trkpt lat="44.19293" lon="1.36288">
        <ele>173.6</ele>
        <time>2021-11-21T15:38:26Z</time>
      </trkpt>
      <trkpt lat="44.19293" lon="1.36286">
        <ele>173.6</ele>
        <time>2021-11-21T15:38:27Z</time>
      </trkpt>
      <trkpt lat="44.19292" lon="1.36286">
        <ele>173.7</ele>
        <time>2021-11-21T15:38:28Z</time>
      </trkpt>
      <trkpt lat="44.19291" lon="1.36285">
        <ele>173.7</ele>
        <time>2021-11-21T15:38:29Z</time>
      </trkpt>
      <trkpt lat="44.19291" lon="1.36285">
        <ele>173.7</ele>
        <time>2021-11-21T15:38:30Z</time>
      </trkpt>
      <trkpt lat="44.1929" lon="1.36283">
        <ele>173.8</ele>
        <time>2021-11-21T15:38:32Z</time>
      </trkpt>
      <trkpt lat="44.19289" lon="1.36282">
        <ele>173.9</ele>
        <time>2021-11-21T15:38:33Z</time>
      </trkpt>
      <trkpt lat="44.19288" lon="1.36281">
        <ele>173.9</ele>
        <time>2021-11-21T15:38:34Z</time>
      </trkpt>
      <trkpt lat="44.19287" lon="1.3628">
        <ele>174</ele>
        <time>2021-11-21T15:38:35Z</time>
      </trkpt>
      <trkpt lat="44.19286" lon="1.36277">
        <ele>174</ele>
        <time>2021-11-21T15:38:37Z</time>
      </trkpt>
      <trkpt lat="44.19284" lon="1.36276">
        <ele>174.1</ele>
        <time>2021-11-21T15:38:39Z</time>
      </trkpt>
      <trkpt lat="44.19284" lon="1.36275">
        <ele>174.2</ele>
        <time>2021-11-21T15:38:40Z</time>
      </trkpt>
      <trkpt lat="44.19283" lon="1.36275">
        <ele>174.2</ele>
        <time>2021-11-21T15:38:41Z</time>
      </trkpt>
      <trkpt lat="44.19282" lon="1.36273">
        <ele>174.3</ele>
        <time>2021-11-21T15:38:42Z</time>
      </trkpt>
      <trkpt lat="44.1928" lon="1.36271">
        <ele>174.4</ele>
        <time>2021-11-21T15:38:44Z</time>
      </trkpt>
      <trkpt lat="44.19279" lon="1.36271">
        <ele>174.4</ele>
        <time>2021-11-21T15:38:46Z</time>
      </trkpt>
      <trkpt lat="44.19278" lon="1.36271">
        <ele>174.5</ele>
        <time>2021-11-21T15:38:47Z</time>
      </trkpt>
      <trkpt lat="44.19277" lon="1.3627">
        <ele>174.5</ele>
        <time>2021-11-21T15:38:48Z</time>
      </trkpt>
      <trkpt lat="44.19276" lon="1.3627">
        <ele>174.6</ele>
        <time>2021-11-21T15:38:49Z</time>
      </trkpt>
      <trkpt lat="44.19274" lon="1.36268">
        <ele>174.7</ele>
        <time>2021-11-21T15:38:51Z</time>
      </trkpt>
      <trkpt lat="44.19273" lon="1.36267">
        <ele>174.7</ele>
        <time>2021-11-21T15:38:53Z</time>
      </trkpt>
      <trkpt lat="44.19271" lon="1.36266">
        <ele>174.8</ele>
        <time>2021-11-21T15:38:54Z</time>
      </trkpt>
      <trkpt lat="44.1927" lon="1.36265">
        <ele>174.9</ele>
        <time>2021-11-21T15:38:55Z</time>
      </trkpt>
      <trkpt lat="44.19269" lon="1.36264">
        <ele>175</ele>
        <time>2021-11-21T15:38:57Z</time>
      </trkpt>
      <trkpt lat="44.19267" lon="1.36262">
        <ele>175</ele>
        <time>2021-11-21T15:38:59Z</time>
      </trkpt>
      <trkpt lat="44.19266" lon="1.36261">
        <ele>175.1</ele>
        <time>2021-11-21T15:39:00Z</time>
      </trkpt>
      <trkpt lat="44.19266" lon="1.3626">
        <ele>175.2</ele>
        <time>2021-11-21T15:39:01Z</time>
      </trkpt>
      <trkpt lat="44.19265" lon="1.36259">
        <ele>175.2</ele>
        <time>2021-11-21T15:39:02Z</time>
      </trkpt>
      <trkpt lat="44.19264" lon="1.36259">
        <ele>175.2</ele>
        <time>2021-11-21T15:39:04Z</time>
      </trkpt>
      <trkpt lat="44.19263" lon="1.36258">
        <ele>175.3</ele>
        <time>2021-11-21T15:39:05Z</time>
      </trkpt>
      <trkpt lat="44.19262" lon="1.36258">
        <ele>175.3</ele>
        <time>2021-11-21T15:39:06Z</time>
      </trkpt>
      <trkpt lat="44.19261" lon="1.36258">
        <ele>175.4</ele>
        <time>2021-11-21T15:39:08Z</time>
      </trkpt>
      <trkpt lat="44.1926" lon="1.36258">
        <ele>175.4</ele>
        <time>2021-11-21T15:39:09Z</time>
      </trkpt>
      <trkpt lat="44.19259" lon="1.36258">
        <ele>175.5</ele>
        <time>2021-11-21T15:39:10Z</time>
      </trkpt>
      <trkpt lat="44.19258" lon="1.36257">
        <ele>175.5</ele>
        <time>2021-11-21T15:39:11Z</time>
      </trkpt>
      <trkpt lat="44.19258" lon="1.36256">
        <ele>175.5</ele>
        <time>2021-11-21T15:39:12Z</time>
      </trkpt>
      <trkpt lat="44.19257" lon="1.36255">
        <ele>175.6</ele>
        <time>2021-11-21T15:39:14Z</time>
      </trkpt>
      <trkpt lat="44.19257" lon="1.36254">
        <ele>175.6</ele>
        <time>2021-11-21T15:39:15Z</time>
      </trkpt>
      <trkpt lat="44.19257" lon="1.36253">
        <ele>175.7</ele>
        <time>2021-11-21T15:39:16Z</time>
      </trkpt>
      <trkpt lat="44.19257" lon="1.36251">
        <ele>175.7</ele>
        <time>2021-11-21T15:39:17Z</time>
      </trkpt>
      <trkpt lat="44.19257" lon="1.36248">
        <ele>175.8</ele>
        <time>2021-11-21T15:39:19Z</time>
      </trkpt>
      <trkpt lat="44.19257" lon="1.36246">
        <ele>175.9</ele>
        <time>2021-11-21T15:39:20Z</time>
      </trkpt>
      <trkpt lat="44.19257" lon="1.36244">
        <ele>175.9</ele>
        <time>2021-11-21T15:39:21Z</time>
      </trkpt>
      <trkpt lat="44.19257" lon="1.36242">
        <ele>176</ele>
        <time>2021-11-21T15:39:23Z</time>
      </trkpt>
      <trkpt lat="44.19257" lon="1.36241">
        <ele>176</ele>
        <time>2021-11-21T15:39:24Z</time>
      </trkpt>
      <trkpt lat="44.19257" lon="1.36239">
        <ele>176</ele>
        <time>2021-11-21T15:39:25Z</time>
      </trkpt>
      <trkpt lat="44.19257" lon="1.36238">
        <ele>176.1</ele>
        <time>2021-11-21T15:39:26Z</time>
      </trkpt>
      <trkpt lat="44.19257" lon="1.36235">
        <ele>176.1</ele>
        <time>2021-11-21T15:39:28Z</time>
      </trkpt>
      <trkpt lat="44.19256" lon="1.36234">
        <ele>176.2</ele>
        <time>2021-11-21T15:39:29Z</time>
      </trkpt>
      <trkpt lat="44.19256" lon="1.36232">
        <ele>176.2</ele>
        <time>2021-11-21T15:39:31Z</time>
      </trkpt>
      <trkpt lat="44.19255" lon="1.36229">
        <ele>176.3</ele>
        <time>2021-11-21T15:39:33Z</time>
      </trkpt>
      <trkpt lat="44.19254" lon="1.36226">
        <ele>176.3</ele>
        <time>2021-11-21T15:39:35Z</time>
      </trkpt>
      <trkpt lat="44.19254" lon="1.36223">
        <ele>176.4</ele>
        <time>2021-11-21T15:39:37Z</time>
      </trkpt>
      <trkpt lat="44.19253" lon="1.36221">
        <ele>176.5</ele>
        <time>2021-11-21T15:39:39Z</time>
      </trkpt>
      <trkpt lat="44.19253" lon="1.3622">
        <ele>176.5</ele>
        <time>2021-11-21T15:39:40Z</time>
      </trkpt>
      <trkpt lat="44.19252" lon="1.36219">
        <ele>176.5</ele>
        <time>2021-11-21T15:39:41Z</time>
      </trkpt>
      <trkpt lat="44.19252" lon="1.36217">
        <ele>176.5</ele>
        <time>2021-11-21T15:39:43Z</time>
      </trkpt>
      <trkpt lat="44.19252" lon="1.36215">
        <ele>176.6</ele>
        <time>2021-11-21T15:39:44Z</time>
      </trkpt>
      <trkpt lat="44.19251" lon="1.36212">
        <ele>176.6</ele>
        <time>2021-11-21T15:39:45Z</time>
      </trkpt>
      <trkpt lat="44.1925" lon="1.36211">
        <ele>176.6</ele>
        <time>2021-11-21T15:39:47Z</time>
      </trkpt>
      <trkpt lat="44.1925" lon="1.3621">
        <ele>176.7</ele>
        <time>2021-11-21T15:39:48Z</time>
      </trkpt>
      <trkpt lat="44.19249" lon="1.3621">
        <ele>176.7</ele>
        <time>2021-11-21T15:39:50Z</time>
      </trkpt>
      <trkpt lat="44.19248" lon="1.36208">
        <ele>176.7</ele>
        <time>2021-11-21T15:39:51Z</time>
      </trkpt>
      <trkpt lat="44.19247" lon="1.36207">
        <ele>176.7</ele>
        <time>2021-11-21T15:39:53Z</time>
      </trkpt>
      <trkpt lat="44.19246" lon="1.36206">
        <ele>176.7</ele>
        <time>2021-11-21T15:39:54Z</time>
      </trkpt>
      <trkpt lat="44.19245" lon="1.36204">
        <ele>176.8</ele>
        <time>2021-11-21T15:39:56Z</time>
      </trkpt>
      <trkpt lat="44.19244" lon="1.36203">
        <ele>176.8</ele>
        <time>2021-11-21T15:39:57Z</time>
      </trkpt>
      <trkpt lat="44.19243" lon="1.36201">
        <ele>176.8</ele>
        <time>2021-11-21T15:39:58Z</time>
      </trkpt>
      <trkpt lat="44.19242" lon="1.36201">
        <ele>176.9</ele>
        <time>2021-11-21T15:39:59Z</time>
      </trkpt>
      <trkpt lat="44.19241" lon="1.362">
        <ele>176.9</ele>
        <time>2021-11-21T15:40:00Z</time>
      </trkpt>
      <trkpt lat="44.1924" lon="1.36197">
        <ele>176.9</ele>
        <time>2021-11-21T15:40:02Z</time>
      </trkpt>
      <trkpt lat="44.19239" lon="1.36196">
        <ele>176.9</ele>
        <time>2021-11-21T15:40:03Z</time>
      </trkpt>
      <trkpt lat="44.19238" lon="1.36195">
        <ele>176.9</ele>
        <time>2021-11-21T15:40:04Z</time>
      </trkpt>
      <trkpt lat="44.19237" lon="1.36194">
        <ele>176.9</ele>
        <time>2021-11-21T15:40:06Z</time>
      </trkpt>
      <trkpt lat="44.19237" lon="1.36192">
        <ele>176.9</ele>
        <time>2021-11-21T15:40:07Z</time>
      </trkpt>
      <trkpt lat="44.19236" lon="1.3619">
        <ele>176.9</ele>
        <time>2021-11-21T15:40:08Z</time>
      </trkpt>
      <trkpt lat="44.19236" lon="1.36188">
        <ele>176.9</ele>
        <time>2021-11-21T15:40:09Z</time>
      </trkpt>
      <trkpt lat="44.19235" lon="1.36186">
        <ele>176.9</ele>
        <time>2021-11-21T15:40:11Z</time>
      </trkpt>
      <trkpt lat="44.19235" lon="1.36184">
        <ele>176.9</ele>
        <time>2021-11-21T15:40:12Z</time>
      </trkpt>
      <trkpt lat="44.19234" lon="1.36183">
        <ele>176.9</ele>
        <time>2021-11-21T15:40:13Z</time>
      </trkpt>
      <trkpt lat="44.19234" lon="1.36181">
        <ele>176.9</ele>
        <time>2021-11-21T15:40:14Z</time>
      </trkpt>
      <trkpt lat="44.19233" lon="1.36179">
        <ele>176.9</ele>
        <time>2021-11-21T15:40:15Z</time>
      </trkpt>
      <trkpt lat="44.19233" lon="1.36176">
        <ele>176.9</ele>
        <time>2021-11-21T15:40:17Z</time>
      </trkpt>
      <trkpt lat="44.19232" lon="1.36174">
        <ele>176.8</ele>
        <time>2021-11-21T15:40:18Z</time>
      </trkpt>
      <trkpt lat="44.19232" lon="1.36172">
        <ele>176.8</ele>
        <time>2021-11-21T15:40:19Z</time>
      </trkpt>
      <trkpt lat="44.19232" lon="1.36171">
        <ele>176.8</ele>
        <time>2021-11-21T15:40:20Z</time>
      </trkpt>
      <trkpt lat="44.19231" lon="1.36168">
        <ele>176.8</ele>
        <time>2021-11-21T15:40:22Z</time>
      </trkpt>
      <trkpt lat="44.19231" lon="1.36166">
        <ele>176.8</ele>
        <time>2021-11-21T15:40:23Z</time>
      </trkpt>
      <trkpt lat="44.1923" lon="1.36164">
        <ele>176.7</ele>
        <time>2021-11-21T15:40:25Z</time>
      </trkpt>
      <trkpt lat="44.1923" lon="1.36162">
        <ele>176.7</ele>
        <time>2021-11-21T15:40:26Z</time>
      </trkpt>
      <trkpt lat="44.1923" lon="1.3616">
        <ele>176.7</ele>
        <time>2021-11-21T15:40:27Z</time>
      </trkpt>
      <trkpt lat="44.1923" lon="1.36158">
        <ele>176.7</ele>
        <time>2021-11-21T15:40:29Z</time>
      </trkpt>
      <trkpt lat="44.1923" lon="1.36156">
        <ele>176.7</ele>
        <time>2021-11-21T15:40:30Z</time>
      </trkpt>
      <trkpt lat="44.1923" lon="1.36154">
        <ele>176.6</ele>
        <time>2021-11-21T15:40:31Z</time>
      </trkpt>
      <trkpt lat="44.1923" lon="1.36153">
        <ele>176.6</ele>
        <time>2021-11-21T15:40:32Z</time>
      </trkpt>
      <trkpt lat="44.1923" lon="1.36151">
        <ele>176.6</ele>
        <time>2021-11-21T15:40:34Z</time>
      </trkpt>
      <trkpt lat="44.19229" lon="1.36149">
        <ele>176.6</ele>
        <time>2021-11-21T15:40:35Z</time>
      </trkpt>
      <trkpt lat="44.19229" lon="1.36147">
        <ele>176.5</ele>
        <time>2021-11-21T15:40:36Z</time>
      </trkpt>
      <trkpt lat="44.19228" lon="1.36145">
        <ele>176.5</ele>
        <time>2021-11-21T15:40:37Z</time>
      </trkpt>
      <trkpt lat="44.19228" lon="1.36144">
        <ele>176.5</ele>
        <time>2021-11-21T15:40:38Z</time>
      </trkpt>
      <trkpt lat="44.19228" lon="1.36142">
        <ele>176.5</ele>
        <time>2021-11-21T15:40:39Z</time>
      </trkpt>
      <trkpt lat="44.19227" lon="1.36139">
        <ele>176.4</ele>
        <time>2021-11-21T15:40:41Z</time>
      </trkpt>
      <trkpt lat="44.19227" lon="1.36136">
        <ele>176.4</ele>
        <time>2021-11-21T15:40:42Z</time>
      </trkpt>
      <trkpt lat="44.19227" lon="1.36135">
        <ele>176.4</ele>
        <time>2021-11-21T15:40:43Z</time>
      </trkpt>
      <trkpt lat="44.19227" lon="1.36134">
        <ele>176.4</ele>
        <time>2021-11-21T15:40:44Z</time>
      </trkpt>
      <trkpt lat="44.19226" lon="1.36132">
        <ele>176.3</ele>
        <time>2021-11-21T15:40:46Z</time>
      </trkpt>
      <trkpt lat="44.19226" lon="1.3613">
        <ele>176.3</ele>
        <time>2021-11-21T15:40:47Z</time>
      </trkpt>
      <trkpt lat="44.19226" lon="1.36128">
        <ele>176.3</ele>
        <time>2021-11-21T15:40:48Z</time>
      </trkpt>
      <trkpt lat="44.19225" lon="1.36127">
        <ele>176.3</ele>
        <time>2021-11-21T15:40:49Z</time>
      </trkpt>
      <trkpt lat="44.19225" lon="1.36125">
        <ele>176.2</ele>
        <time>2021-11-21T15:40:51Z</time>
      </trkpt>
      <trkpt lat="44.19225" lon="1.36123">
        <ele>176.2</ele>
        <time>2021-11-21T15:40:52Z</time>
      </trkpt>
      <trkpt lat="44.19225" lon="1.36121">
        <ele>176.2</ele>
        <time>2021-11-21T15:40:53Z</time>
      </trkpt>
      <trkpt lat="44.19225" lon="1.3612">
        <ele>176.2</ele>
        <time>2021-11-21T15:40:54Z</time>
      </trkpt>
      <trkpt lat="44.19225" lon="1.36117">
        <ele>176.1</ele>
        <time>2021-11-21T15:40:56Z</time>
      </trkpt>
      <trkpt lat="44.19226" lon="1.36116">
        <ele>176.1</ele>
        <time>2021-11-21T15:40:57Z</time>
      </trkpt>
      <trkpt lat="44.19226" lon="1.36115">
        <ele>176.1</ele>
        <time>2021-11-21T15:40:58Z</time>
      </trkpt>
      <trkpt lat="44.19226" lon="1.36112">
        <ele>176.1</ele>
        <time>2021-11-21T15:41:00Z</time>
      </trkpt>
      <trkpt lat="44.19227" lon="1.36111">
        <ele>176</ele>
        <time>2021-11-21T15:41:01Z</time>
      </trkpt>
      <trkpt lat="44.19227" lon="1.36109">
        <ele>176</ele>
        <time>2021-11-21T15:41:02Z</time>
      </trkpt>
      <trkpt lat="44.19228" lon="1.36108">
        <ele>176</ele>
        <time>2021-11-21T15:41:03Z</time>
      </trkpt>
      <trkpt lat="44.19228" lon="1.36106">
        <ele>176</ele>
        <time>2021-11-21T15:41:05Z</time>
      </trkpt>
      <trkpt lat="44.19228" lon="1.36103">
        <ele>175.9</ele>
        <time>2021-11-21T15:41:06Z</time>
      </trkpt>
      <trkpt lat="44.19228" lon="1.36102">
        <ele>175.9</ele>
        <time>2021-11-21T15:41:07Z</time>
      </trkpt>
      <trkpt lat="44.19229" lon="1.36101">
        <ele>175.9</ele>
        <time>2021-11-21T15:41:08Z</time>
      </trkpt>
      <trkpt lat="44.1923" lon="1.36098">
        <ele>175.9</ele>
        <time>2021-11-21T15:41:10Z</time>
      </trkpt>
      <trkpt lat="44.1923" lon="1.36097">
        <ele>175.9</ele>
        <time>2021-11-21T15:41:11Z</time>
      </trkpt>
      <trkpt lat="44.1923" lon="1.36096">
        <ele>175.9</ele>
        <time>2021-11-21T15:41:12Z</time>
      </trkpt>
      <trkpt lat="44.19231" lon="1.36095">
        <ele>175.8</ele>
        <time>2021-11-21T15:41:13Z</time>
      </trkpt>
      <trkpt lat="44.19231" lon="1.36093">
        <ele>175.8</ele>
        <time>2021-11-21T15:41:15Z</time>
      </trkpt>
      <trkpt lat="44.19232" lon="1.36093">
        <ele>175.8</ele>
        <time>2021-11-21T15:41:16Z</time>
      </trkpt>
      <trkpt lat="44.19233" lon="1.36093">
        <ele>175.8</ele>
        <time>2021-11-21T15:41:18Z</time>
      </trkpt>
      <trkpt lat="44.19233" lon="1.36092">
        <ele>175.8</ele>
        <time>2021-11-21T15:41:19Z</time>
      </trkpt>
      <trkpt lat="44.19233" lon="1.36091">
        <ele>175.8</ele>
        <time>2021-11-21T15:41:21Z</time>
      </trkpt>
      <trkpt lat="44.19233" lon="1.36091">
        <ele>175.8</ele>
        <time>2021-11-21T15:41:22Z</time>
      </trkpt>
      <trkpt lat="44.19233" lon="1.3609">
        <ele>175.7</ele>
        <time>2021-11-21T15:41:23Z</time>
      </trkpt>
      <trkpt lat="44.19233" lon="1.36089">
        <ele>175.7</ele>
        <time>2021-11-21T15:41:24Z</time>
      </trkpt>
      <trkpt lat="44.19233" lon="1.36089">
        <ele>175.7</ele>
        <time>2021-11-21T15:41:25Z</time>
      </trkpt>
      <trkpt lat="44.19233" lon="1.36088">
        <ele>175.7</ele>
        <time>2021-11-21T15:41:26Z</time>
      </trkpt>
      <trkpt lat="44.19233" lon="1.36086">
        <ele>175.7</ele>
        <time>2021-11-21T15:41:28Z</time>
      </trkpt>
      <trkpt lat="44.19233" lon="1.36084">
        <ele>175.6</ele>
        <time>2021-11-21T15:41:29Z</time>
      </trkpt>
      <trkpt lat="44.19231" lon="1.36081">
        <ele>175.5</ele>
        <time>2021-11-21T15:41:30Z</time>
      </trkpt>
      <trkpt lat="44.1923" lon="1.3608">
        <ele>175.5</ele>
        <time>2021-11-21T15:41:31Z</time>
      </trkpt>
      <trkpt lat="44.19229" lon="1.36078">
        <ele>175.5</ele>
        <time>2021-11-21T15:41:32Z</time>
      </trkpt>
      <trkpt lat="44.19227" lon="1.36076">
        <ele>175.4</ele>
        <time>2021-11-21T15:41:34Z</time>
      </trkpt>
      <trkpt lat="44.19227" lon="1.36074">
        <ele>175.4</ele>
        <time>2021-11-21T15:41:35Z</time>
      </trkpt>
      <trkpt lat="44.19226" lon="1.36072">
        <ele>175.3</ele>
        <time>2021-11-21T15:41:36Z</time>
      </trkpt>
      <trkpt lat="44.19225" lon="1.36072">
        <ele>175.3</ele>
        <time>2021-11-21T15:41:38Z</time>
      </trkpt>
      <trkpt lat="44.19225" lon="1.36071">
        <ele>175.3</ele>
        <time>2021-11-21T15:41:39Z</time>
      </trkpt>
      <trkpt lat="44.19224" lon="1.36069">
        <ele>175.3</ele>
        <time>2021-11-21T15:41:40Z</time>
      </trkpt>
      <trkpt lat="44.19224" lon="1.36068">
        <ele>175.2</ele>
        <time>2021-11-21T15:41:42Z</time>
      </trkpt>
      <trkpt lat="44.19223" lon="1.36067">
        <ele>175.2</ele>
        <time>2021-11-21T15:41:43Z</time>
      </trkpt>
      <trkpt lat="44.19224" lon="1.36065">
        <ele>175.2</ele>
        <time>2021-11-21T15:41:44Z</time>
      </trkpt>
      <trkpt lat="44.19224" lon="1.36064">
        <ele>175.2</ele>
        <time>2021-11-21T15:41:45Z</time>
      </trkpt>
      <trkpt lat="44.19223" lon="1.36061">
        <ele>175.1</ele>
        <time>2021-11-21T15:41:46Z</time>
      </trkpt>
      <trkpt lat="44.19222" lon="1.3606">
        <ele>175.1</ele>
        <time>2021-11-21T15:41:48Z</time>
      </trkpt>
      <trkpt lat="44.19222" lon="1.36059">
        <ele>175</ele>
        <time>2021-11-21T15:41:49Z</time>
      </trkpt>
      <trkpt lat="44.19221" lon="1.36058">
        <ele>175</ele>
        <time>2021-11-21T15:41:50Z</time>
      </trkpt>
      <trkpt lat="44.1922" lon="1.36056">
        <ele>175</ele>
        <time>2021-11-21T15:41:52Z</time>
      </trkpt>
      <trkpt lat="44.19219" lon="1.36055">
        <ele>174.9</ele>
        <time>2021-11-21T15:41:53Z</time>
      </trkpt>
      <trkpt lat="44.19219" lon="1.36053">
        <ele>174.9</ele>
        <time>2021-11-21T15:41:54Z</time>
      </trkpt>
      <trkpt lat="44.19219" lon="1.36051">
        <ele>174.9</ele>
        <time>2021-11-21T15:41:55Z</time>
      </trkpt>
      <trkpt lat="44.19219" lon="1.3605">
        <ele>174.9</ele>
        <time>2021-11-21T15:41:56Z</time>
      </trkpt>
      <trkpt lat="44.19219" lon="1.36049">
        <ele>174.9</ele>
        <time>2021-11-21T15:41:57Z</time>
      </trkpt>
      <trkpt lat="44.19219" lon="1.36047">
        <ele>174.8</ele>
        <time>2021-11-21T15:41:58Z</time>
      </trkpt>
      <trkpt lat="44.19219" lon="1.36045">
        <ele>174.8</ele>
        <time>2021-11-21T15:42:00Z</time>
      </trkpt>
      <trkpt lat="44.19219" lon="1.36043">
        <ele>174.8</ele>
        <time>2021-11-21T15:42:01Z</time>
      </trkpt>
      <trkpt lat="44.19219" lon="1.36042">
        <ele>174.7</ele>
        <time>2021-11-21T15:42:02Z</time>
      </trkpt>
      <trkpt lat="44.19219" lon="1.36041">
        <ele>174.7</ele>
        <time>2021-11-21T15:42:03Z</time>
      </trkpt>
      <trkpt lat="44.19219" lon="1.36039">
        <ele>174.7</ele>
        <time>2021-11-21T15:42:05Z</time>
      </trkpt>
      <trkpt lat="44.19219" lon="1.36038">
        <ele>174.7</ele>
        <time>2021-11-21T15:42:06Z</time>
      </trkpt>
      <trkpt lat="44.19219" lon="1.36036">
        <ele>174.6</ele>
        <time>2021-11-21T15:42:08Z</time>
      </trkpt>
      <trkpt lat="44.19219" lon="1.36034">
        <ele>174.6</ele>
        <time>2021-11-21T15:42:09Z</time>
      </trkpt>
      <trkpt lat="44.19218" lon="1.36034">
        <ele>174.6</ele>
        <time>2021-11-21T15:42:10Z</time>
      </trkpt>
      <trkpt lat="44.19217" lon="1.36031">
        <ele>174.5</ele>
        <time>2021-11-21T15:42:11Z</time>
      </trkpt>
      <trkpt lat="44.19217" lon="1.3603">
        <ele>174.5</ele>
        <time>2021-11-21T15:42:13Z</time>
      </trkpt>
      <trkpt lat="44.19217" lon="1.36029">
        <ele>174.5</ele>
        <time>2021-11-21T15:42:14Z</time>
      </trkpt>
      <trkpt lat="44.19215" lon="1.36028">
        <ele>174.5</ele>
        <time>2021-11-21T15:42:15Z</time>
      </trkpt>
      <trkpt lat="44.19214" lon="1.36027">
        <ele>174.4</ele>
        <time>2021-11-21T15:42:16Z</time>
      </trkpt>
      <trkpt lat="44.19214" lon="1.36026">
        <ele>174.4</ele>
        <time>2021-11-21T15:42:17Z</time>
      </trkpt>
      <trkpt lat="44.19213" lon="1.36024">
        <ele>174.4</ele>
        <time>2021-11-21T15:42:18Z</time>
      </trkpt>
      <trkpt lat="44.19213" lon="1.36023">
        <ele>174.3</ele>
        <time>2021-11-21T15:42:20Z</time>
      </trkpt>
      <trkpt lat="44.19212" lon="1.36022">
        <ele>174.3</ele>
        <time>2021-11-21T15:42:21Z</time>
      </trkpt>
      <trkpt lat="44.19212" lon="1.36019">
        <ele>174.3</ele>
        <time>2021-11-21T15:42:22Z</time>
      </trkpt>
      <trkpt lat="44.19212" lon="1.36018">
        <ele>174</ele>
        <time>2021-11-21T15:42:24Z</time>
      </trkpt>
      <trkpt lat="44.19211" lon="1.36016">
        <ele>174</ele>
        <time>2021-11-21T15:42:25Z</time>
      </trkpt>
      <trkpt lat="44.19211" lon="1.36013">
        <ele>173.8</ele>
        <time>2021-11-21T15:42:26Z</time>
      </trkpt>
      <trkpt lat="44.19211" lon="1.36012">
        <ele>173.7</ele>
        <time>2021-11-21T15:42:27Z</time>
      </trkpt>
      <trkpt lat="44.19211" lon="1.3601">
        <ele>173.6</ele>
        <time>2021-11-21T15:42:29Z</time>
      </trkpt>
      <trkpt lat="44.19211" lon="1.36009">
        <ele>173.5</ele>
        <time>2021-11-21T15:42:30Z</time>
      </trkpt>
      <trkpt lat="44.19211" lon="1.36007">
        <ele>173.5</ele>
        <time>2021-11-21T15:42:32Z</time>
      </trkpt>
      <trkpt lat="44.19211" lon="1.36006">
        <ele>173.4</ele>
        <time>2021-11-21T15:42:33Z</time>
      </trkpt>
      <trkpt lat="44.19211" lon="1.36004">
        <ele>173.3</ele>
        <time>2021-11-21T15:42:34Z</time>
      </trkpt>
      <trkpt lat="44.19211" lon="1.36003">
        <ele>173.2</ele>
        <time>2021-11-21T15:42:35Z</time>
      </trkpt>
      <trkpt lat="44.19211" lon="1.36001">
        <ele>173.1</ele>
        <time>2021-11-21T15:42:36Z</time>
      </trkpt>
      <trkpt lat="44.19212" lon="1.36">
        <ele>173</ele>
        <time>2021-11-21T15:42:37Z</time>
      </trkpt>
      <trkpt lat="44.19212" lon="1.35998">
        <ele>172.9</ele>
        <time>2021-11-21T15:42:39Z</time>
      </trkpt>
      <trkpt lat="44.19212" lon="1.35996">
        <ele>172.7</ele>
        <time>2021-11-21T15:42:40Z</time>
      </trkpt>
      <trkpt lat="44.19213" lon="1.35994">
        <ele>172.6</ele>
        <time>2021-11-21T15:42:41Z</time>
      </trkpt>
      <trkpt lat="44.19213" lon="1.35993">
        <ele>172.5</ele>
        <time>2021-11-21T15:42:42Z</time>
      </trkpt>
      <trkpt lat="44.19213" lon="1.3599">
        <ele>172.3</ele>
        <time>2021-11-21T15:42:44Z</time>
      </trkpt>
      <trkpt lat="44.19214" lon="1.35989">
        <ele>172.3</ele>
        <time>2021-11-21T15:42:45Z</time>
      </trkpt>
      <trkpt lat="44.19214" lon="1.35987">
        <ele>172.1</ele>
        <time>2021-11-21T15:42:47Z</time>
      </trkpt>
      <trkpt lat="44.19214" lon="1.35985">
        <ele>172</ele>
        <time>2021-11-21T15:42:48Z</time>
      </trkpt>
      <trkpt lat="44.19214" lon="1.35984">
        <ele>172</ele>
        <time>2021-11-21T15:42:50Z</time>
      </trkpt>
      <trkpt lat="44.19214" lon="1.35983">
        <ele>171.9</ele>
        <time>2021-11-21T15:42:51Z</time>
      </trkpt>
      <trkpt lat="44.19214" lon="1.35982">
        <ele>171.8</ele>
        <time>2021-11-21T15:42:52Z</time>
      </trkpt>
      <trkpt lat="44.19214" lon="1.3598">
        <ele>171.7</ele>
        <time>2021-11-21T15:42:53Z</time>
      </trkpt>
      <trkpt lat="44.19214" lon="1.35978">
        <ele>171.6</ele>
        <time>2021-11-21T15:42:54Z</time>
      </trkpt>
      <trkpt lat="44.19213" lon="1.35977">
        <ele>171.5</ele>
        <time>2021-11-21T15:42:56Z</time>
      </trkpt>
      <trkpt lat="44.19213" lon="1.35976">
        <ele>171.4</ele>
        <time>2021-11-21T15:42:57Z</time>
      </trkpt>
      <trkpt lat="44.19214" lon="1.35974">
        <ele>171.3</ele>
        <time>2021-11-21T15:42:58Z</time>
      </trkpt>
      <trkpt lat="44.19214" lon="1.35973">
        <ele>171.1</ele>
        <time>2021-11-21T15:42:59Z</time>
      </trkpt>
      <trkpt lat="44.19215" lon="1.35972">
        <ele>171.1</ele>
        <time>2021-11-21T15:43:00Z</time>
      </trkpt>
      <trkpt lat="44.19216" lon="1.3597">
        <ele>170.9</ele>
        <time>2021-11-21T15:43:02Z</time>
      </trkpt>
      <trkpt lat="44.19217" lon="1.35969">
        <ele>170.8</ele>
        <time>2021-11-21T15:43:03Z</time>
      </trkpt>
      <trkpt lat="44.19218" lon="1.35968">
        <ele>170.7</ele>
        <time>2021-11-21T15:43:04Z</time>
      </trkpt>
      <trkpt lat="44.19219" lon="1.35968">
        <ele>170.6</ele>
        <time>2021-11-21T15:43:05Z</time>
      </trkpt>
      <trkpt lat="44.19219" lon="1.35967">
        <ele>170.5</ele>
        <time>2021-11-21T15:43:07Z</time>
      </trkpt>
      <trkpt lat="44.1922" lon="1.35966">
        <ele>170.4</ele>
        <time>2021-11-21T15:43:08Z</time>
      </trkpt>
      <trkpt lat="44.19221" lon="1.35965">
        <ele>170.3</ele>
        <time>2021-11-21T15:43:09Z</time>
      </trkpt>
      <trkpt lat="44.19221" lon="1.35965">
        <ele>170.3</ele>
        <time>2021-11-21T15:43:10Z</time>
      </trkpt>
      <trkpt lat="44.19222" lon="1.35964">
        <ele>170.2</ele>
        <time>2021-11-21T15:43:11Z</time>
      </trkpt>
      <trkpt lat="44.19223" lon="1.35963">
        <ele>170.1</ele>
        <time>2021-11-21T15:43:13Z</time>
      </trkpt>
      <trkpt lat="44.19224" lon="1.35965">
        <ele>169.9</ele>
        <time>2021-11-21T15:43:15Z</time>
      </trkpt>
      <trkpt lat="44.19223" lon="1.35965">
        <ele>169.9</ele>
        <time>2021-11-21T15:43:17Z</time>
      </trkpt>
      <trkpt lat="44.19223" lon="1.35966">
        <ele>169.9</ele>
        <time>2021-11-21T15:43:18Z</time>
      </trkpt>
      <trkpt lat="44.19223" lon="1.35966">
        <ele>169.9</ele>
        <time>2021-11-21T15:43:20Z</time>
      </trkpt>
      <trkpt lat="44.19224" lon="1.35965">
        <ele>169.8</ele>
        <time>2021-11-21T15:43:22Z</time>
      </trkpt>
      <trkpt lat="44.19225" lon="1.35964">
        <ele>169.7</ele>
        <time>2021-11-21T15:43:23Z</time>
      </trkpt>
      <trkpt lat="44.19226" lon="1.35963">
        <ele>169.5</ele>
        <time>2021-11-21T15:43:24Z</time>
      </trkpt>
      <trkpt lat="44.19226" lon="1.35962">
        <ele>169.5</ele>
        <time>2021-11-21T15:43:25Z</time>
      </trkpt>
      <trkpt lat="44.19227" lon="1.35961">
        <ele>169.3</ele>
        <time>2021-11-21T15:43:27Z</time>
      </trkpt>
      <trkpt lat="44.19228" lon="1.3596">
        <ele>169.2</ele>
        <time>2021-11-21T15:43:28Z</time>
      </trkpt>
      <trkpt lat="44.19229" lon="1.35958">
        <ele>169</ele>
        <time>2021-11-21T15:43:29Z</time>
      </trkpt>
      <trkpt lat="44.1923" lon="1.35956">
        <ele>168.8</ele>
        <time>2021-11-21T15:43:30Z</time>
      </trkpt>
      <trkpt lat="44.19231" lon="1.35954">
        <ele>168.7</ele>
        <time>2021-11-21T15:43:32Z</time>
      </trkpt>
      <trkpt lat="44.19232" lon="1.35953">
        <ele>168.5</ele>
        <time>2021-11-21T15:43:33Z</time>
      </trkpt>
      <trkpt lat="44.19233" lon="1.35951">
        <ele>168.4</ele>
        <time>2021-11-21T15:43:34Z</time>
      </trkpt>
      <trkpt lat="44.19233" lon="1.35949">
        <ele>168.2</ele>
        <time>2021-11-21T15:43:35Z</time>
      </trkpt>
      <trkpt lat="44.19233" lon="1.35946">
        <ele>168</ele>
        <time>2021-11-21T15:43:36Z</time>
      </trkpt>
      <trkpt lat="44.19234" lon="1.35944">
        <ele>167.8</ele>
        <time>2021-11-21T15:43:38Z</time>
      </trkpt>
      <trkpt lat="44.19235" lon="1.35944">
        <ele>167.7</ele>
        <time>2021-11-21T15:43:39Z</time>
      </trkpt>
      <trkpt lat="44.19235" lon="1.35943">
        <ele>167.6</ele>
        <time>2021-11-21T15:43:40Z</time>
      </trkpt>
      <trkpt lat="44.19236" lon="1.35942">
        <ele>167.5</ele>
        <time>2021-11-21T15:43:41Z</time>
      </trkpt>
      <trkpt lat="44.19237" lon="1.35941">
        <ele>167.4</ele>
        <time>2021-11-21T15:43:42Z</time>
      </trkpt>
      <trkpt lat="44.19238" lon="1.35941">
        <ele>167.3</ele>
        <time>2021-11-21T15:43:43Z</time>
      </trkpt>
      <trkpt lat="44.19239" lon="1.3594">
        <ele>167.1</ele>
        <time>2021-11-21T15:43:45Z</time>
      </trkpt>
      <trkpt lat="44.19241" lon="1.35939">
        <ele>167</ele>
        <time>2021-11-21T15:43:46Z</time>
      </trkpt>
      <trkpt lat="44.19242" lon="1.35939">
        <ele>166.8</ele>
        <time>2021-11-21T15:43:47Z</time>
      </trkpt>
      <trkpt lat="44.19243" lon="1.35939">
        <ele>166.7</ele>
        <time>2021-11-21T15:43:49Z</time>
      </trkpt>
      <trkpt lat="44.19244" lon="1.35938">
        <ele>166.6</ele>
        <time>2021-11-21T15:43:50Z</time>
      </trkpt>
      <trkpt lat="44.19244" lon="1.35937">
        <ele>166.5</ele>
        <time>2021-11-21T15:43:51Z</time>
      </trkpt>
      <trkpt lat="44.19244" lon="1.35936">
        <ele>166.4</ele>
        <time>2021-11-21T15:43:52Z</time>
      </trkpt>
      <trkpt lat="44.19244" lon="1.35934">
        <ele>166.2</ele>
        <time>2021-11-21T15:43:53Z</time>
      </trkpt>
      <trkpt lat="44.19243" lon="1.35932">
        <ele>166</ele>
        <time>2021-11-21T15:43:55Z</time>
      </trkpt>
      <trkpt lat="44.19242" lon="1.3593">
        <ele>165.8</ele>
        <time>2021-11-21T15:43:56Z</time>
      </trkpt>
      <trkpt lat="44.19241" lon="1.35929">
        <ele>165.7</ele>
        <time>2021-11-21T15:43:57Z</time>
      </trkpt>
      <trkpt lat="44.1924" lon="1.35929">
        <ele>165.6</ele>
        <time>2021-11-21T15:43:58Z</time>
      </trkpt>
      <trkpt lat="44.19239" lon="1.35929">
        <ele>165.5</ele>
        <time>2021-11-21T15:44:00Z</time>
      </trkpt>
      <trkpt lat="44.1924" lon="1.35929">
        <ele>165.5</ele>
        <time>2021-11-21T15:44:02Z</time>
      </trkpt>
      <trkpt lat="44.1924" lon="1.3593">
        <ele>165.4</ele>
        <time>2021-11-21T15:44:03Z</time>
      </trkpt>
      <trkpt lat="44.1924" lon="1.3593">
        <ele>165.4</ele>
        <time>2021-11-21T15:44:04Z</time>
      </trkpt>
      <trkpt lat="44.1924" lon="1.3593">
        <ele>165.4</ele>
        <time>2021-11-21T15:44:05Z</time>
      </trkpt>
      <trkpt lat="44.1924" lon="1.3593">
        <ele>165.4</ele>
        <time>2021-11-21T15:44:06Z</time>
      </trkpt>
      <trkpt lat="44.19239" lon="1.35931">
        <ele>165.3</ele>
        <time>2021-11-21T15:44:08Z</time>
      </trkpt>
      <trkpt lat="44.19239" lon="1.35931">
        <ele>165.3</ele>
        <time>2021-11-21T15:44:09Z</time>
      </trkpt>
      <trkpt lat="44.19238" lon="1.35931">
        <ele>165.2</ele>
        <time>2021-11-21T15:44:10Z</time>
      </trkpt>
      <trkpt lat="44.19237" lon="1.35932">
        <ele>165</ele>
        <time>2021-11-21T15:44:12Z</time>
      </trkpt>
      <trkpt lat="44.19237" lon="1.35932">
        <ele>165</ele>
        <time>2021-11-21T15:44:14Z</time>
      </trkpt>
      <trkpt lat="44.19237" lon="1.35932">
        <ele>165</ele>
        <time>2021-11-21T15:44:15Z</time>
      </trkpt>
    </trkseg>
  </trk>
</gpx>